<?xml version="1.0" encoding="UTF-8"?>
<gpx version="1.1" creator="https://www.youtrack.es" xsi:schemaLocation="http://www.topografix.com/GPX/1/1 http://www.topografix.com/GPX/1/1/gpx.xsd http://www.garmin.com/xmlschemas/GpxExtensions/v3 http://www.garmin.com/xmlschemas/GpxExtensionsv3.xsd http://www.garmin.com/xmlschemas/TrackPointExtension/v1 http://www.garmin.com/xmlschemas/TrackPointExtensionv1.xsd" xmlns:gpxtpx="http://www.garmin.com/xmlschemas/TrackPointExtension/v1" xmlns:gpxx="http://www.garmin.com/xmlschemas/GpxExtensions/v3" xmlns:xsi="http://www.w3.org/2001/XMLSchema-instance">
  <metadata>
    <author>
      <name>Angel Esquembri</name>
      <email id="a.esquembri" domain="gmail.com"/>
    </author>
    <link href="https://www.youtrack.es">
      <text>YouTrack.es</text>
    </link>
    <time>2026-05-08T02:21:55Z</time>
  </metadata>
  <trk>
    <src>https://www.youtrack.es</src>
    <link href="https://www.youtrack.es/ruta/31989-puerto-serrano-el-burgo">
      <text>YouTrack.es</text>
    </link>
    <trkseg>
      <trkpt lat="36.919133" lon="-5.552211">
        <ele>112.681</ele>
        <time>2017-09-16T09:59:21Z</time>
      </trkpt>
      <trkpt lat="36.919103" lon="-5.552239">
        <ele>115.961</ele>
        <time>2017-09-16T09:59:28Z</time>
      </trkpt>
      <trkpt lat="36.919097" lon="-5.552255">
        <ele>118.317</ele>
        <time>2017-09-16T09:59:30Z</time>
      </trkpt>
      <trkpt lat="36.919093" lon="-5.552260">
        <ele>122.708</ele>
        <time>2017-09-16T09:59:33Z</time>
      </trkpt>
      <trkpt lat="36.919094" lon="-5.552261">
        <ele>126.529</ele>
        <time>2017-09-16T09:59:36Z</time>
      </trkpt>
      <trkpt lat="36.919092" lon="-5.552261">
        <ele>129.497</ele>
        <time>2017-09-16T09:59:39Z</time>
      </trkpt>
      <trkpt lat="36.919095" lon="-5.552255">
        <ele>133.295</ele>
        <time>2017-09-16T09:59:43Z</time>
      </trkpt>
      <trkpt lat="36.919095" lon="-5.552256">
        <ele>136.643</ele>
        <time>2017-09-16T09:59:47Z</time>
      </trkpt>
      <trkpt lat="36.919095" lon="-5.552258">
        <ele>140.028</ele>
        <time>2017-09-16T09:59:51Z</time>
      </trkpt>
      <trkpt lat="36.919094" lon="-5.552260">
        <ele>141.924</ele>
        <time>2017-09-16T09:59:54Z</time>
      </trkpt>
      <trkpt lat="36.919093" lon="-5.552261">
        <ele>143.345</ele>
        <time>2017-09-16T09:59:56Z</time>
      </trkpt>
      <trkpt lat="36.919097" lon="-5.552255">
        <ele>145.737</ele>
        <time>2017-09-16T10:00:02Z</time>
      </trkpt>
      <trkpt lat="36.919097" lon="-5.552263">
        <ele>149.126</ele>
        <time>2017-09-16T10:00:11Z</time>
      </trkpt>
      <trkpt lat="36.919087" lon="-5.552297">
        <ele>152.047</ele>
        <time>2017-09-16T10:00:24Z</time>
      </trkpt>
      <trkpt lat="36.919086" lon="-5.552295">
        <ele>152.911</ele>
        <time>2017-09-16T10:00:28Z</time>
      </trkpt>
      <trkpt lat="36.919094" lon="-5.552274">
        <ele>152.908</ele>
        <time>2017-09-16T10:00:31Z</time>
      </trkpt>
      <trkpt lat="36.919159" lon="-5.552187">
        <ele>155.333</ele>
        <time>2017-09-16T10:00:44Z</time>
      </trkpt>
      <trkpt lat="36.919175" lon="-5.552197">
        <ele>158.211</ele>
        <time>2017-09-16T10:01:06Z</time>
      </trkpt>
      <trkpt lat="36.919157" lon="-5.552180">
        <ele>160.239</ele>
        <time>2017-09-16T10:02:03Z</time>
      </trkpt>
      <trkpt lat="36.919148" lon="-5.552184">
        <ele>160.217</ele>
        <time>2017-09-16T10:02:08Z</time>
      </trkpt>
      <trkpt lat="36.919019" lon="-5.552501">
        <ele>160.222</ele>
        <time>2017-09-16T10:02:19Z</time>
      </trkpt>
      <trkpt lat="36.919154" lon="-5.552794">
        <ele>158.748</ele>
        <time>2017-09-16T10:02:26Z</time>
      </trkpt>
      <trkpt lat="36.919467" lon="-5.553175">
        <ele>156.359</ele>
        <time>2017-09-16T10:02:34Z</time>
      </trkpt>
      <trkpt lat="36.919826" lon="-5.553377">
        <ele>153.951</ele>
        <time>2017-09-16T10:02:40Z</time>
      </trkpt>
      <trkpt lat="36.920086" lon="-5.553511">
        <ele>151.533</ele>
        <time>2017-09-16T10:02:44Z</time>
      </trkpt>
      <trkpt lat="36.920860" lon="-5.553883">
        <ele>149.123</ele>
        <time>2017-09-16T10:02:57Z</time>
      </trkpt>
      <trkpt lat="36.920979" lon="-5.553920">
        <ele>148.115</ele>
        <time>2017-09-16T10:03:04Z</time>
      </trkpt>
      <trkpt lat="36.920979" lon="-5.553905">
        <ele>148.608</ele>
        <time>2017-09-16T10:03:30Z</time>
      </trkpt>
      <trkpt lat="36.920980" lon="-5.553903">
        <ele>148.694</ele>
        <time>2017-09-16T10:03:35Z</time>
      </trkpt>
      <trkpt lat="36.921290" lon="-5.554074">
        <ele>149.162</ele>
        <time>2017-09-16T10:03:47Z</time>
      </trkpt>
      <trkpt lat="36.921716" lon="-5.554341">
        <ele>150.560</ele>
        <time>2017-09-16T10:04:01Z</time>
      </trkpt>
      <trkpt lat="36.921957" lon="-5.554737">
        <ele>152.998</ele>
        <time>2017-09-16T10:04:15Z</time>
      </trkpt>
      <trkpt lat="36.922205" lon="-5.555246">
        <ele>154.463</ele>
        <time>2017-09-16T10:04:29Z</time>
      </trkpt>
      <trkpt lat="36.922540" lon="-5.555902">
        <ele>152.569</ele>
        <time>2017-09-16T10:04:45Z</time>
      </trkpt>
      <trkpt lat="36.922787" lon="-5.556392">
        <ele>151.060</ele>
        <time>2017-09-16T10:04:54Z</time>
      </trkpt>
      <trkpt lat="36.922833" lon="-5.556503">
        <ele>151.572</ele>
        <time>2017-09-16T10:04:56Z</time>
      </trkpt>
      <trkpt lat="36.922955" lon="-5.556748">
        <ele>150.542</ele>
        <time>2017-09-16T10:05:01Z</time>
      </trkpt>
      <trkpt lat="36.923107" lon="-5.557041">
        <ele>149.122</ele>
        <time>2017-09-16T10:05:06Z</time>
      </trkpt>
      <trkpt lat="36.923651" lon="-5.557656">
        <ele>149.614</ele>
        <time>2017-09-16T10:05:19Z</time>
      </trkpt>
      <trkpt lat="36.923787" lon="-5.557770">
        <ele>148.608</ele>
        <time>2017-09-16T10:05:23Z</time>
      </trkpt>
      <trkpt lat="36.923902" lon="-5.557814">
        <ele>148.655</ele>
        <time>2017-09-16T10:05:26Z</time>
      </trkpt>
      <trkpt lat="36.924479" lon="-5.557796">
        <ele>149.193</ele>
        <time>2017-09-16T10:05:40Z</time>
      </trkpt>
      <trkpt lat="36.924723" lon="-5.557566">
        <ele>150.131</ele>
        <time>2017-09-16T10:05:50Z</time>
      </trkpt>
      <trkpt lat="36.924729" lon="-5.556972">
        <ele>152.919</ele>
        <time>2017-09-16T10:06:05Z</time>
      </trkpt>
      <trkpt lat="36.924745" lon="-5.556261">
        <ele>155.864</ele>
        <time>2017-09-16T10:06:23Z</time>
      </trkpt>
      <trkpt lat="36.924598" lon="-5.555689">
        <ele>156.890</ele>
        <time>2017-09-16T10:06:38Z</time>
      </trkpt>
      <trkpt lat="36.924536" lon="-5.555143">
        <ele>156.821</ele>
        <time>2017-09-16T10:06:50Z</time>
      </trkpt>
      <trkpt lat="36.924565" lon="-5.555077">
        <ele>156.353</ele>
        <time>2017-09-16T10:07:01Z</time>
      </trkpt>
      <trkpt lat="36.924566" lon="-5.555070">
        <ele>156.389</ele>
        <time>2017-09-16T10:07:02Z</time>
      </trkpt>
      <trkpt lat="36.924581" lon="-5.554974">
        <ele>156.306</ele>
        <time>2017-09-16T10:07:07Z</time>
      </trkpt>
      <trkpt lat="36.924679" lon="-5.554433">
        <ele>156.826</ele>
        <time>2017-09-16T10:07:20Z</time>
      </trkpt>
      <trkpt lat="36.924909" lon="-5.553601">
        <ele>156.808</ele>
        <time>2017-09-16T10:07:37Z</time>
      </trkpt>
      <trkpt lat="36.925076" lon="-5.553210">
        <ele>157.339</ele>
        <time>2017-09-16T10:07:45Z</time>
      </trkpt>
      <trkpt lat="36.925465" lon="-5.552413">
        <ele>156.817</ele>
        <time>2017-09-16T10:08:01Z</time>
      </trkpt>
      <trkpt lat="36.925855" lon="-5.551739">
        <ele>157.345</ele>
        <time>2017-09-16T10:08:15Z</time>
      </trkpt>
      <trkpt lat="36.925919" lon="-5.551655">
        <ele>157.343</ele>
        <time>2017-09-16T10:08:17Z</time>
      </trkpt>
      <trkpt lat="36.926551" lon="-5.550942">
        <ele>157.728</ele>
        <time>2017-09-16T10:08:35Z</time>
      </trkpt>
      <trkpt lat="36.927148" lon="-5.550389">
        <ele>159.214</ele>
        <time>2017-09-16T10:08:51Z</time>
      </trkpt>
      <trkpt lat="36.927902" lon="-5.549718">
        <ele>159.735</ele>
        <time>2017-09-16T10:09:10Z</time>
      </trkpt>
      <trkpt lat="36.928566" lon="-5.549138">
        <ele>158.737</ele>
        <time>2017-09-16T10:09:26Z</time>
      </trkpt>
      <trkpt lat="36.929259" lon="-5.548523">
        <ele>159.277</ele>
        <time>2017-09-16T10:09:43Z</time>
      </trkpt>
      <trkpt lat="36.929929" lon="-5.547930">
        <ele>159.261</ele>
        <time>2017-09-16T10:10:00Z</time>
      </trkpt>
      <trkpt lat="36.930488" lon="-5.547408">
        <ele>159.727</ele>
        <time>2017-09-16T10:10:15Z</time>
      </trkpt>
      <trkpt lat="36.930871" lon="-5.547017">
        <ele>159.208</ele>
        <time>2017-09-16T10:10:25Z</time>
      </trkpt>
      <trkpt lat="36.931321" lon="-5.546363">
        <ele>160.648</ele>
        <time>2017-09-16T10:10:40Z</time>
      </trkpt>
      <trkpt lat="36.931809" lon="-5.545471">
        <ele>161.626</ele>
        <time>2017-09-16T10:10:58Z</time>
      </trkpt>
      <trkpt lat="36.931857" lon="-5.545354">
        <ele>161.694</ele>
        <time>2017-09-16T10:11:00Z</time>
      </trkpt>
      <trkpt lat="36.932132" lon="-5.544360">
        <ele>161.612</ele>
        <time>2017-09-16T10:11:17Z</time>
      </trkpt>
      <trkpt lat="36.932248" lon="-5.543501">
        <ele>162.647</ele>
        <time>2017-09-16T10:11:33Z</time>
      </trkpt>
      <trkpt lat="36.932261" lon="-5.543394">
        <ele>163.013</ele>
        <time>2017-09-16T10:11:35Z</time>
      </trkpt>
      <trkpt lat="36.932374" lon="-5.542368">
        <ele>164.024</ele>
        <time>2017-09-16T10:11:53Z</time>
      </trkpt>
      <trkpt lat="36.932415" lon="-5.541831">
        <ele>163.086</ele>
        <time>2017-09-16T10:12:02Z</time>
      </trkpt>
      <trkpt lat="36.932598" lon="-5.541346">
        <ele>165.923</ele>
        <time>2017-09-16T10:12:14Z</time>
      </trkpt>
      <trkpt lat="36.932620" lon="-5.541287">
        <ele>166.983</ele>
        <time>2017-09-16T10:12:16Z</time>
      </trkpt>
      <trkpt lat="36.932795" lon="-5.540920">
        <ele>170.211</ele>
        <time>2017-09-16T10:12:28Z</time>
      </trkpt>
      <trkpt lat="36.933108" lon="-5.540311">
        <ele>172.208</ele>
        <time>2017-09-16T10:12:46Z</time>
      </trkpt>
      <trkpt lat="36.933283" lon="-5.539911">
        <ele>175.143</ele>
        <time>2017-09-16T10:12:58Z</time>
      </trkpt>
      <trkpt lat="36.933491" lon="-5.539458">
        <ele>178.971</ele>
        <time>2017-09-16T10:13:12Z</time>
      </trkpt>
      <trkpt lat="36.933843" lon="-5.538905">
        <ele>179.499</ele>
        <time>2017-09-16T10:13:28Z</time>
      </trkpt>
      <trkpt lat="36.934133" lon="-5.538421">
        <ele>182.347</ele>
        <time>2017-09-16T10:13:41Z</time>
      </trkpt>
      <trkpt lat="36.934417" lon="-5.537740">
        <ele>183.742</ele>
        <time>2017-09-16T10:13:58Z</time>
      </trkpt>
      <trkpt lat="36.934466" lon="-5.537501">
        <ele>184.238</ele>
        <time>2017-09-16T10:14:03Z</time>
      </trkpt>
      <trkpt lat="36.934390" lon="-5.536748">
        <ele>182.779</ele>
        <time>2017-09-16T10:14:16Z</time>
      </trkpt>
      <trkpt lat="36.934372" lon="-5.536424">
        <ele>181.391</ele>
        <time>2017-09-16T10:14:20Z</time>
      </trkpt>
      <trkpt lat="36.934475" lon="-5.535925">
        <ele>178.974</ele>
        <time>2017-09-16T10:14:25Z</time>
      </trkpt>
      <trkpt lat="36.934499" lon="-5.535364">
        <ele>175.156</ele>
        <time>2017-09-16T10:14:30Z</time>
      </trkpt>
      <trkpt lat="36.934541" lon="-5.534873">
        <ele>171.721</ele>
        <time>2017-09-16T10:14:35Z</time>
      </trkpt>
      <trkpt lat="36.934721" lon="-5.534285">
        <ele>167.808</ele>
        <time>2017-09-16T10:14:40Z</time>
      </trkpt>
      <trkpt lat="36.934625" lon="-5.533845">
        <ele>163.538</ele>
        <time>2017-09-16T10:14:44Z</time>
      </trkpt>
      <trkpt lat="36.934573" lon="-5.533765">
        <ele>161.186</ele>
        <time>2017-09-16T10:14:45Z</time>
      </trkpt>
      <trkpt lat="36.934512" lon="-5.533380">
        <ele>155.324</ele>
        <time>2017-09-16T10:14:50Z</time>
      </trkpt>
      <trkpt lat="36.934758" lon="-5.533322">
        <ele>153.422</ele>
        <time>2017-09-16T10:14:54Z</time>
      </trkpt>
      <trkpt lat="36.934818" lon="-5.533354">
        <ele>152.967</ele>
        <time>2017-09-16T10:14:55Z</time>
      </trkpt>
      <trkpt lat="36.934927" lon="-5.533428">
        <ele>152.923</ele>
        <time>2017-09-16T10:14:57Z</time>
      </trkpt>
      <trkpt lat="36.935134" lon="-5.533538">
        <ele>153.424</ele>
        <time>2017-09-16T10:15:01Z</time>
      </trkpt>
      <trkpt lat="36.935294" lon="-5.533528">
        <ele>153.466</ele>
        <time>2017-09-16T10:15:04Z</time>
      </trkpt>
      <trkpt lat="36.935952" lon="-5.533739">
        <ele>152.584</ele>
        <time>2017-09-16T10:15:15Z</time>
      </trkpt>
      <trkpt lat="36.936357" lon="-5.533836">
        <ele>156.307</ele>
        <time>2017-09-16T10:15:25Z</time>
      </trkpt>
      <trkpt lat="36.936715" lon="-5.533698">
        <ele>159.217</ele>
        <time>2017-09-16T10:15:36Z</time>
      </trkpt>
      <trkpt lat="36.937056" lon="-5.533399">
        <ele>162.108</ele>
        <time>2017-09-16T10:15:48Z</time>
      </trkpt>
      <trkpt lat="36.937503" lon="-5.532868">
        <ele>164.079</ele>
        <time>2017-09-16T10:16:04Z</time>
      </trkpt>
      <trkpt lat="36.938003" lon="-5.532083">
        <ele>163.587</ele>
        <time>2017-09-16T10:16:22Z</time>
      </trkpt>
      <trkpt lat="36.938085" lon="-5.531933">
        <ele>163.515</ele>
        <time>2017-09-16T10:16:25Z</time>
      </trkpt>
      <trkpt lat="36.938318" lon="-5.531453">
        <ele>163.523</ele>
        <time>2017-09-16T10:16:35Z</time>
      </trkpt>
      <trkpt lat="36.938515" lon="-5.530986">
        <ele>164.538</ele>
        <time>2017-09-16T10:16:44Z</time>
      </trkpt>
      <trkpt lat="36.938595" lon="-5.530667">
        <ele>165.974</ele>
        <time>2017-09-16T10:16:50Z</time>
      </trkpt>
      <trkpt lat="36.938730" lon="-5.530193">
        <ele>166.995</ele>
        <time>2017-09-16T10:16:59Z</time>
      </trkpt>
      <trkpt lat="36.939063" lon="-5.529073">
        <ele>165.077</ele>
        <time>2017-09-16T10:17:17Z</time>
      </trkpt>
      <trkpt lat="36.939349" lon="-5.528123">
        <ele>165.948</ele>
        <time>2017-09-16T10:17:34Z</time>
      </trkpt>
      <trkpt lat="36.939368" lon="-5.528069">
        <ele>165.961</ele>
        <time>2017-09-16T10:17:35Z</time>
      </trkpt>
      <trkpt lat="36.939726" lon="-5.527332">
        <ele>166.417</ele>
        <time>2017-09-16T10:17:50Z</time>
      </trkpt>
      <trkpt lat="36.940213" lon="-5.526551">
        <ele>165.008</ele>
        <time>2017-09-16T10:18:09Z</time>
      </trkpt>
      <trkpt lat="36.940216" lon="-5.526642">
        <ele>165.025</ele>
        <time>2017-09-16T10:18:44Z</time>
      </trkpt>
      <trkpt lat="36.940201" lon="-5.526627">
        <ele>165.043</ele>
        <time>2017-09-16T10:18:50Z</time>
      </trkpt>
      <trkpt lat="36.940450" lon="-5.526314">
        <ele>165.461</ele>
        <time>2017-09-16T10:19:02Z</time>
      </trkpt>
      <trkpt lat="36.940783" lon="-5.525976">
        <ele>164.599</ele>
        <time>2017-09-16T10:19:11Z</time>
      </trkpt>
      <trkpt lat="36.941448" lon="-5.525503">
        <ele>164.574</ele>
        <time>2017-09-16T10:19:27Z</time>
      </trkpt>
      <trkpt lat="36.942398" lon="-5.525073">
        <ele>165.080</ele>
        <time>2017-09-16T10:19:46Z</time>
      </trkpt>
      <trkpt lat="36.943308" lon="-5.524946">
        <ele>164.521</ele>
        <time>2017-09-16T10:20:03Z</time>
      </trkpt>
      <trkpt lat="36.944312" lon="-5.524892">
        <ele>164.513</ele>
        <time>2017-09-16T10:20:21Z</time>
      </trkpt>
      <trkpt lat="36.945155" lon="-5.524856">
        <ele>164.513</ele>
        <time>2017-09-16T10:20:36Z</time>
      </trkpt>
      <trkpt lat="36.945210" lon="-5.524858">
        <ele>164.543</ele>
        <time>2017-09-16T10:20:37Z</time>
      </trkpt>
      <trkpt lat="36.946272" lon="-5.524717">
        <ele>165.007</ele>
        <time>2017-09-16T10:20:56Z</time>
      </trkpt>
      <trkpt lat="36.947153" lon="-5.524373">
        <ele>164.508</ele>
        <time>2017-09-16T10:21:13Z</time>
      </trkpt>
      <trkpt lat="36.947973" lon="-5.523877">
        <ele>164.592</ele>
        <time>2017-09-16T10:21:30Z</time>
      </trkpt>
      <trkpt lat="36.948605" lon="-5.523303">
        <ele>165.060</ele>
        <time>2017-09-16T10:21:46Z</time>
      </trkpt>
      <trkpt lat="36.949057" lon="-5.522787">
        <ele>164.568</ele>
        <time>2017-09-16T10:22:00Z</time>
      </trkpt>
      <trkpt lat="36.949155" lon="-5.522667">
        <ele>165.046</ele>
        <time>2017-09-16T10:22:03Z</time>
      </trkpt>
      <trkpt lat="36.949517" lon="-5.522133">
        <ele>165.031</ele>
        <time>2017-09-16T10:22:15Z</time>
      </trkpt>
      <trkpt lat="36.949994" lon="-5.521123">
        <ele>165.057</ele>
        <time>2017-09-16T10:22:34Z</time>
      </trkpt>
      <trkpt lat="36.950228" lon="-5.520478">
        <ele>165.088</ele>
        <time>2017-09-16T10:22:45Z</time>
      </trkpt>
      <trkpt lat="36.950467" lon="-5.519380">
        <ele>165.020</ele>
        <time>2017-09-16T10:23:02Z</time>
      </trkpt>
      <trkpt lat="36.950546" lon="-5.518725">
        <ele>165.937</ele>
        <time>2017-09-16T10:23:12Z</time>
      </trkpt>
      <trkpt lat="36.950607" lon="-5.517631">
        <ele>165.449</ele>
        <time>2017-09-16T10:23:29Z</time>
      </trkpt>
      <trkpt lat="36.950656" lon="-5.516176">
        <ele>165.013</ele>
        <time>2017-09-16T10:23:51Z</time>
      </trkpt>
      <trkpt lat="36.950703" lon="-5.515405">
        <ele>165.408</ele>
        <time>2017-09-16T10:24:03Z</time>
      </trkpt>
      <trkpt lat="36.950740" lon="-5.514838">
        <ele>164.564</ele>
        <time>2017-09-16T10:24:12Z</time>
      </trkpt>
      <trkpt lat="36.950744" lon="-5.514712">
        <ele>164.522</ele>
        <time>2017-09-16T10:24:14Z</time>
      </trkpt>
      <trkpt lat="36.950784" lon="-5.513603">
        <ele>164.060</ele>
        <time>2017-09-16T10:24:31Z</time>
      </trkpt>
      <trkpt lat="36.950725" lon="-5.512483">
        <ele>165.958</ele>
        <time>2017-09-16T10:24:49Z</time>
      </trkpt>
      <trkpt lat="36.950559" lon="-5.511570">
        <ele>165.913</ele>
        <time>2017-09-16T10:25:05Z</time>
      </trkpt>
      <trkpt lat="36.950419" lon="-5.510821">
        <ele>166.919</ele>
        <time>2017-09-16T10:25:20Z</time>
      </trkpt>
      <trkpt lat="36.950092" lon="-5.509403">
        <ele>167.470</ele>
        <time>2017-09-16T10:25:42Z</time>
      </trkpt>
      <trkpt lat="36.949964" lon="-5.509020">
        <ele>168.352</ele>
        <time>2017-09-16T10:25:49Z</time>
      </trkpt>
      <trkpt lat="36.949519" lon="-5.508100">
        <ele>170.249</ele>
        <time>2017-09-16T10:26:08Z</time>
      </trkpt>
      <trkpt lat="36.949094" lon="-5.507424">
        <ele>170.202</ele>
        <time>2017-09-16T10:26:23Z</time>
      </trkpt>
      <trkpt lat="36.948388" lon="-5.506312">
        <ele>173.122</ele>
        <time>2017-09-16T10:26:48Z</time>
      </trkpt>
      <trkpt lat="36.947899" lon="-5.505499">
        <ele>174.608</ele>
        <time>2017-09-16T10:27:06Z</time>
      </trkpt>
      <trkpt lat="36.947459" lon="-5.504791">
        <ele>173.635</ele>
        <time>2017-09-16T10:27:22Z</time>
      </trkpt>
      <trkpt lat="36.947371" lon="-5.504655">
        <ele>174.153</ele>
        <time>2017-09-16T10:27:25Z</time>
      </trkpt>
      <trkpt lat="36.946797" lon="-5.503736">
        <ele>176.551</ele>
        <time>2017-09-16T10:27:45Z</time>
      </trkpt>
      <trkpt lat="36.946743" lon="-5.503657">
        <ele>177.559</ele>
        <time>2017-09-16T10:27:47Z</time>
      </trkpt>
      <trkpt lat="36.946590" lon="-5.503438">
        <ele>177.954</ele>
        <time>2017-09-16T10:27:53Z</time>
      </trkpt>
      <trkpt lat="36.946251" lon="-5.502867">
        <ele>177.580</ele>
        <time>2017-09-16T10:28:05Z</time>
      </trkpt>
      <trkpt lat="36.945932" lon="-5.502370">
        <ele>176.571</ele>
        <time>2017-09-16T10:28:16Z</time>
      </trkpt>
      <trkpt lat="36.945351" lon="-5.501398">
        <ele>174.153</ele>
        <time>2017-09-16T10:28:38Z</time>
      </trkpt>
      <trkpt lat="36.944810" lon="-5.500555">
        <ele>175.582</ele>
        <time>2017-09-16T10:28:57Z</time>
      </trkpt>
      <trkpt lat="36.944299" lon="-5.499723">
        <ele>176.543</ele>
        <time>2017-09-16T10:29:16Z</time>
      </trkpt>
      <trkpt lat="36.943874" lon="-5.494043">
        <ele>178.417</ele>
        <time>2017-09-16T10:30:57Z</time>
      </trkpt>
      <trkpt lat="36.944316" lon="-5.493307">
        <ele>178.408</ele>
        <time>2017-09-16T10:31:11Z</time>
      </trkpt>
      <trkpt lat="36.944629" lon="-5.492880">
        <ele>178.949</ele>
        <time>2017-09-16T10:31:20Z</time>
      </trkpt>
      <trkpt lat="36.945295" lon="-5.491955">
        <ele>179.987</ele>
        <time>2017-09-16T10:31:39Z</time>
      </trkpt>
      <trkpt lat="36.945845" lon="-5.490942">
        <ele>180.895</ele>
        <time>2017-09-16T10:31:59Z</time>
      </trkpt>
      <trkpt lat="36.946089" lon="-5.490140">
        <ele>183.273</ele>
        <time>2017-09-16T10:32:14Z</time>
      </trkpt>
      <trkpt lat="36.946144" lon="-5.489913">
        <ele>182.738</ele>
        <time>2017-09-16T10:32:18Z</time>
      </trkpt>
      <trkpt lat="36.946218" lon="-5.488747">
        <ele>181.374</ele>
        <time>2017-09-16T10:32:35Z</time>
      </trkpt>
      <trkpt lat="36.946118" lon="-5.487834">
        <ele>182.775</ele>
        <time>2017-09-16T10:32:49Z</time>
      </trkpt>
      <trkpt lat="36.945886" lon="-5.486892">
        <ele>183.747</ele>
        <time>2017-09-16T10:33:06Z</time>
      </trkpt>
      <trkpt lat="36.945653" lon="-5.486056">
        <ele>184.233</ele>
        <time>2017-09-16T10:33:21Z</time>
      </trkpt>
      <trkpt lat="36.945518" lon="-5.485568">
        <ele>185.123</ele>
        <time>2017-09-16T10:33:30Z</time>
      </trkpt>
      <trkpt lat="36.945345" lon="-5.484748">
        <ele>186.115</ele>
        <time>2017-09-16T10:33:47Z</time>
      </trkpt>
      <trkpt lat="36.945595" lon="-5.482008">
        <ele>189.008</ele>
        <time>2017-09-16T10:34:34Z</time>
      </trkpt>
      <trkpt lat="36.945939" lon="-5.481213">
        <ele>189.024</ele>
        <time>2017-09-16T10:34:50Z</time>
      </trkpt>
      <trkpt lat="36.946487" lon="-5.480465">
        <ele>190.952</ele>
        <time>2017-09-16T10:35:07Z</time>
      </trkpt>
      <trkpt lat="36.947017" lon="-5.479909">
        <ele>190.980</ele>
        <time>2017-09-16T10:35:21Z</time>
      </trkpt>
      <trkpt lat="36.947130" lon="-5.479781">
        <ele>190.458</ele>
        <time>2017-09-16T10:35:24Z</time>
      </trkpt>
      <trkpt lat="36.947867" lon="-5.478992">
        <ele>191.463</ele>
        <time>2017-09-16T10:35:43Z</time>
      </trkpt>
      <trkpt lat="36.948467" lon="-5.478156">
        <ele>192.819</ele>
        <time>2017-09-16T10:36:00Z</time>
      </trkpt>
      <trkpt lat="36.948947" lon="-5.477261">
        <ele>192.810</ele>
        <time>2017-09-16T10:36:17Z</time>
      </trkpt>
      <trkpt lat="36.949242" lon="-5.476458">
        <ele>193.332</ele>
        <time>2017-09-16T10:36:31Z</time>
      </trkpt>
      <trkpt lat="36.949518" lon="-5.475427">
        <ele>192.819</ele>
        <time>2017-09-16T10:36:48Z</time>
      </trkpt>
      <trkpt lat="36.949746" lon="-5.474465">
        <ele>193.809</ele>
        <time>2017-09-16T10:37:03Z</time>
      </trkpt>
      <trkpt lat="36.949997" lon="-5.473478">
        <ele>193.819</ele>
        <time>2017-09-16T10:37:19Z</time>
      </trkpt>
      <trkpt lat="36.950149" lon="-5.472514">
        <ele>194.808</ele>
        <time>2017-09-16T10:37:35Z</time>
      </trkpt>
      <trkpt lat="36.950145" lon="-5.471668">
        <ele>194.892</ele>
        <time>2017-09-16T10:37:49Z</time>
      </trkpt>
      <trkpt lat="36.950143" lon="-5.471610">
        <ele>194.870</ele>
        <time>2017-09-16T10:37:50Z</time>
      </trkpt>
      <trkpt lat="36.950076" lon="-5.471097">
        <ele>195.718</ele>
        <time>2017-09-16T10:37:59Z</time>
      </trkpt>
      <trkpt lat="36.949855" lon="-5.470281">
        <ele>196.266</ele>
        <time>2017-09-16T10:38:14Z</time>
      </trkpt>
      <trkpt lat="36.949614" lon="-5.469418">
        <ele>197.251</ele>
        <time>2017-09-16T10:38:30Z</time>
      </trkpt>
      <trkpt lat="36.949436" lon="-5.468792">
        <ele>198.157</ele>
        <time>2017-09-16T10:38:41Z</time>
      </trkpt>
      <trkpt lat="36.949216" lon="-5.467858">
        <ele>198.148</ele>
        <time>2017-09-16T10:38:58Z</time>
      </trkpt>
      <trkpt lat="36.949182" lon="-5.467338">
        <ele>197.660</ele>
        <time>2017-09-16T10:39:07Z</time>
      </trkpt>
      <trkpt lat="36.949257" lon="-5.466363">
        <ele>199.677</ele>
        <time>2017-09-16T10:39:24Z</time>
      </trkpt>
      <trkpt lat="36.949320" lon="-5.465921">
        <ele>201.061</ele>
        <time>2017-09-16T10:39:32Z</time>
      </trkpt>
      <trkpt lat="36.949537" lon="-5.465209">
        <ele>200.527</ele>
        <time>2017-09-16T10:39:45Z</time>
      </trkpt>
      <trkpt lat="36.950060" lon="-5.464235">
        <ele>199.108</ele>
        <time>2017-09-16T10:40:02Z</time>
      </trkpt>
      <trkpt lat="36.950723" lon="-5.463482">
        <ele>199.658</ele>
        <time>2017-09-16T10:40:19Z</time>
      </trkpt>
      <trkpt lat="36.951481" lon="-5.462980">
        <ele>199.686</ele>
        <time>2017-09-16T10:40:35Z</time>
      </trkpt>
      <trkpt lat="36.952180" lon="-5.462724">
        <ele>201.574</ele>
        <time>2017-09-16T10:40:51Z</time>
      </trkpt>
      <trkpt lat="36.952892" lon="-5.462641">
        <ele>203.432</ele>
        <time>2017-09-16T10:41:07Z</time>
      </trkpt>
      <trkpt lat="36.953339" lon="-5.462651">
        <ele>204.967</ele>
        <time>2017-09-16T10:41:17Z</time>
      </trkpt>
      <trkpt lat="36.953419" lon="-5.462626">
        <ele>206.383</ele>
        <time>2017-09-16T10:41:19Z</time>
      </trkpt>
      <trkpt lat="36.953607" lon="-5.462633">
        <ele>205.824</ele>
        <time>2017-09-16T10:41:23Z</time>
      </trkpt>
      <trkpt lat="36.954258" lon="-5.462977">
        <ele>204.996</ele>
        <time>2017-09-16T10:41:36Z</time>
      </trkpt>
      <trkpt lat="36.954763" lon="-5.463153">
        <ele>203.414</ele>
        <time>2017-09-16T10:41:44Z</time>
      </trkpt>
      <trkpt lat="36.955369" lon="-5.463321">
        <ele>204.954</ele>
        <time>2017-09-16T10:41:56Z</time>
      </trkpt>
      <trkpt lat="36.955508" lon="-5.463351">
        <ele>205.309</ele>
        <time>2017-09-16T10:41:59Z</time>
      </trkpt>
      <trkpt lat="36.955602" lon="-5.463364">
        <ele>205.808</ele>
        <time>2017-09-16T10:42:01Z</time>
      </trkpt>
      <trkpt lat="36.956395" lon="-5.463428">
        <ele>205.852</ele>
        <time>2017-09-16T10:42:17Z</time>
      </trkpt>
      <trkpt lat="36.956937" lon="-5.463347">
        <ele>206.330</ele>
        <time>2017-09-16T10:42:28Z</time>
      </trkpt>
      <trkpt lat="36.957700" lon="-5.462999">
        <ele>206.858</ele>
        <time>2017-09-16T10:42:45Z</time>
      </trkpt>
      <trkpt lat="36.958329" lon="-5.462516">
        <ele>207.376</ele>
        <time>2017-09-16T10:43:01Z</time>
      </trkpt>
      <trkpt lat="36.958951" lon="-5.461776">
        <ele>207.731</ele>
        <time>2017-09-16T10:43:19Z</time>
      </trkpt>
      <trkpt lat="36.959477" lon="-5.461066">
        <ele>207.347</ele>
        <time>2017-09-16T10:43:36Z</time>
      </trkpt>
      <trkpt lat="36.960137" lon="-5.460156">
        <ele>208.298</ele>
        <time>2017-09-16T10:44:01Z</time>
      </trkpt>
      <trkpt lat="36.960528" lon="-5.459416">
        <ele>207.330</ele>
        <time>2017-09-16T10:44:10Z</time>
      </trkpt>
      <trkpt lat="36.960733" lon="-5.458922">
        <ele>208.282</ele>
        <time>2017-09-16T10:44:20Z</time>
      </trkpt>
      <trkpt lat="36.960989" lon="-5.457933">
        <ele>210.143</ele>
        <time>2017-09-16T10:44:38Z</time>
      </trkpt>
      <trkpt lat="36.961110" lon="-5.457195">
        <ele>211.617</ele>
        <time>2017-09-16T10:44:51Z</time>
      </trkpt>
      <trkpt lat="36.961132" lon="-5.456311">
        <ele>211.108</ele>
        <time>2017-09-16T10:45:06Z</time>
      </trkpt>
      <trkpt lat="36.961033" lon="-5.455322">
        <ele>211.179</ele>
        <time>2017-09-16T10:45:22Z</time>
      </trkpt>
      <trkpt lat="36.960834" lon="-5.454465">
        <ele>210.187</ele>
        <time>2017-09-16T10:45:36Z</time>
      </trkpt>
      <trkpt lat="36.960454" lon="-5.453513">
        <ele>210.695</ele>
        <time>2017-09-16T10:45:54Z</time>
      </trkpt>
      <trkpt lat="36.960291" lon="-5.453210">
        <ele>211.133</ele>
        <time>2017-09-16T10:46:00Z</time>
      </trkpt>
      <trkpt lat="36.959863" lon="-5.452382">
        <ele>212.598</ele>
        <time>2017-09-16T10:46:17Z</time>
      </trkpt>
      <trkpt lat="36.959680" lon="-5.452034">
        <ele>212.584</ele>
        <time>2017-09-16T10:46:24Z</time>
      </trkpt>
      <trkpt lat="36.959116" lon="-5.451073">
        <ele>213.065</ele>
        <time>2017-09-16T10:46:46Z</time>
      </trkpt>
      <trkpt lat="36.958529" lon="-5.449831">
        <ele>214.597</ele>
        <time>2017-09-16T10:47:08Z</time>
      </trkpt>
      <trkpt lat="36.958094" lon="-5.449008">
        <ele>213.016</ele>
        <time>2017-09-16T10:47:25Z</time>
      </trkpt>
      <trkpt lat="36.957815" lon="-5.448500">
        <ele>215.476</ele>
        <time>2017-09-16T10:47:36Z</time>
      </trkpt>
      <trkpt lat="36.957713" lon="-5.448176">
        <ele>215.913</ele>
        <time>2017-09-16T10:47:42Z</time>
      </trkpt>
      <trkpt lat="36.957570" lon="-5.447919">
        <ele>215.908</ele>
        <time>2017-09-16T10:47:47Z</time>
      </trkpt>
      <trkpt lat="36.957333" lon="-5.447121">
        <ele>214.592</ele>
        <time>2017-09-16T10:48:00Z</time>
      </trkpt>
      <trkpt lat="36.957167" lon="-5.446229">
        <ele>215.930</ele>
        <time>2017-09-16T10:48:15Z</time>
      </trkpt>
      <trkpt lat="36.957162" lon="-5.446166">
        <ele>216.468</ele>
        <time>2017-09-16T10:48:16Z</time>
      </trkpt>
      <trkpt lat="36.957169" lon="-5.445515">
        <ele>215.416</ele>
        <time>2017-09-16T10:48:29Z</time>
      </trkpt>
      <trkpt lat="36.960484" lon="-5.435055">
        <ele>218.341</ele>
        <time>2017-09-16T10:51:22Z</time>
      </trkpt>
      <trkpt lat="36.960913" lon="-5.434438">
        <ele>217.497</ele>
        <time>2017-09-16T10:51:34Z</time>
      </trkpt>
      <trkpt lat="36.961495" lon="-5.433717">
        <ele>216.968</ele>
        <time>2017-09-16T10:51:51Z</time>
      </trkpt>
      <trkpt lat="36.961686" lon="-5.433470">
        <ele>216.480</ele>
        <time>2017-09-16T10:52:01Z</time>
      </trkpt>
      <trkpt lat="36.961668" lon="-5.433457">
        <ele>215.978</ele>
        <time>2017-09-16T10:52:31Z</time>
      </trkpt>
      <trkpt lat="36.961685" lon="-5.433452">
        <ele>215.933</ele>
        <time>2017-09-16T10:52:56Z</time>
      </trkpt>
      <trkpt lat="36.961676" lon="-5.433434">
        <ele>216.926</ele>
        <time>2017-09-16T10:53:29Z</time>
      </trkpt>
      <trkpt lat="36.961680" lon="-5.433466">
        <ele>217.408</ele>
        <time>2017-09-16T10:53:59Z</time>
      </trkpt>
      <trkpt lat="36.961698" lon="-5.433458">
        <ele>216.458</ele>
        <time>2017-09-16T10:54:13Z</time>
      </trkpt>
      <trkpt lat="36.961757" lon="-5.433402">
        <ele>216.946</ele>
        <time>2017-09-16T10:54:38Z</time>
      </trkpt>
      <trkpt lat="36.962125" lon="-5.432996">
        <ele>216.954</ele>
        <time>2017-09-16T10:54:49Z</time>
      </trkpt>
      <trkpt lat="36.962432" lon="-5.432696">
        <ele>216.422</ele>
        <time>2017-09-16T10:54:57Z</time>
      </trkpt>
      <trkpt lat="36.963176" lon="-5.431828">
        <ele>217.827</ele>
        <time>2017-09-16T10:55:17Z</time>
      </trkpt>
      <trkpt lat="36.963352" lon="-5.431617">
        <ele>217.433</ele>
        <time>2017-09-16T10:55:22Z</time>
      </trkpt>
      <trkpt lat="36.963480" lon="-5.431449">
        <ele>217.844</ele>
        <time>2017-09-16T10:55:26Z</time>
      </trkpt>
      <trkpt lat="36.964093" lon="-5.430694">
        <ele>216.976</ele>
        <time>2017-09-16T10:55:43Z</time>
      </trkpt>
      <trkpt lat="36.964310" lon="-5.430465">
        <ele>216.947</ele>
        <time>2017-09-16T10:55:49Z</time>
      </trkpt>
      <trkpt lat="36.964602" lon="-5.430335">
        <ele>217.429</ele>
        <time>2017-09-16T10:55:56Z</time>
      </trkpt>
      <trkpt lat="36.964817" lon="-5.430215">
        <ele>217.421</ele>
        <time>2017-09-16T10:56:01Z</time>
      </trkpt>
      <trkpt lat="36.965025" lon="-5.429872">
        <ele>216.908</ele>
        <time>2017-09-16T10:56:08Z</time>
      </trkpt>
      <trkpt lat="36.965137" lon="-5.429555">
        <ele>216.945</ele>
        <time>2017-09-16T10:56:14Z</time>
      </trkpt>
      <trkpt lat="36.965268" lon="-5.429380">
        <ele>216.933</ele>
        <time>2017-09-16T10:56:18Z</time>
      </trkpt>
      <trkpt lat="36.965346" lon="-5.429309">
        <ele>216.961</ele>
        <time>2017-09-16T10:56:20Z</time>
      </trkpt>
      <trkpt lat="36.965475" lon="-5.429145">
        <ele>217.449</ele>
        <time>2017-09-16T10:56:24Z</time>
      </trkpt>
      <trkpt lat="36.965543" lon="-5.429073">
        <ele>216.954</ele>
        <time>2017-09-16T10:56:26Z</time>
      </trkpt>
      <trkpt lat="36.967053" lon="-5.427952">
        <ele>219.860</ele>
        <time>2017-09-16T10:57:02Z</time>
      </trkpt>
      <trkpt lat="36.967867" lon="-5.427274">
        <ele>219.361</ele>
        <time>2017-09-16T10:57:19Z</time>
      </trkpt>
      <trkpt lat="36.968473" lon="-5.426558">
        <ele>221.763</ele>
        <time>2017-09-16T10:57:36Z</time>
      </trkpt>
      <trkpt lat="36.969427" lon="-5.425013">
        <ele>221.713</ele>
        <time>2017-09-16T10:58:04Z</time>
      </trkpt>
      <trkpt lat="36.969894" lon="-5.424140">
        <ele>221.243</ele>
        <time>2017-09-16T10:58:19Z</time>
      </trkpt>
      <trkpt lat="36.970402" lon="-5.423316">
        <ele>222.207</ele>
        <time>2017-09-16T10:58:36Z</time>
      </trkpt>
      <trkpt lat="36.970762" lon="-5.422687">
        <ele>225.508</ele>
        <time>2017-09-16T10:58:50Z</time>
      </trkpt>
      <trkpt lat="36.971786" lon="-5.420896">
        <ele>227.922</ele>
        <time>2017-09-16T10:59:22Z</time>
      </trkpt>
      <trkpt lat="36.972199" lon="-5.420018">
        <ele>229.470</ele>
        <time>2017-09-16T10:59:37Z</time>
      </trkpt>
      <trkpt lat="36.972491" lon="-5.418902">
        <ele>229.488</ele>
        <time>2017-09-16T10:59:55Z</time>
      </trkpt>
      <trkpt lat="36.972613" lon="-5.417691">
        <ele>229.856</ele>
        <time>2017-09-16T11:00:15Z</time>
      </trkpt>
      <trkpt lat="36.972563" lon="-5.416757">
        <ele>231.361</ele>
        <time>2017-09-16T11:00:31Z</time>
      </trkpt>
      <trkpt lat="36.972332" lon="-5.415796">
        <ele>231.847</ele>
        <time>2017-09-16T11:00:47Z</time>
      </trkpt>
      <trkpt lat="36.972067" lon="-5.414897">
        <ele>232.348</ele>
        <time>2017-09-16T11:01:01Z</time>
      </trkpt>
      <trkpt lat="36.971728" lon="-5.413818">
        <ele>231.870</ele>
        <time>2017-09-16T11:01:18Z</time>
      </trkpt>
      <trkpt lat="36.971571" lon="-5.413233">
        <ele>232.336</ele>
        <time>2017-09-16T11:01:27Z</time>
      </trkpt>
      <trkpt lat="36.971451" lon="-5.412331">
        <ele>236.117</ele>
        <time>2017-09-16T11:01:43Z</time>
      </trkpt>
      <trkpt lat="36.971442" lon="-5.412281">
        <ele>236.118</ele>
        <time>2017-09-16T11:01:44Z</time>
      </trkpt>
      <trkpt lat="36.971426" lon="-5.412176">
        <ele>236.608</ele>
        <time>2017-09-16T11:01:46Z</time>
      </trkpt>
      <trkpt lat="36.971414" lon="-5.411936">
        <ele>237.544</ele>
        <time>2017-09-16T11:01:50Z</time>
      </trkpt>
      <trkpt lat="36.971422" lon="-5.411046">
        <ele>235.162</ele>
        <time>2017-09-16T11:02:01Z</time>
      </trkpt>
      <trkpt lat="36.971530" lon="-5.410189">
        <ele>234.210</ele>
        <time>2017-09-16T11:02:14Z</time>
      </trkpt>
      <trkpt lat="36.971548" lon="-5.410067">
        <ele>235.188</ele>
        <time>2017-09-16T11:02:16Z</time>
      </trkpt>
      <trkpt lat="36.971628" lon="-5.409436">
        <ele>237.193</ele>
        <time>2017-09-16T11:02:27Z</time>
      </trkpt>
      <trkpt lat="36.971693" lon="-5.408869">
        <ele>238.079</ele>
        <time>2017-09-16T11:02:37Z</time>
      </trkpt>
      <trkpt lat="36.971822" lon="-5.407874">
        <ele>238.050</ele>
        <time>2017-09-16T11:02:54Z</time>
      </trkpt>
      <trkpt lat="36.972030" lon="-5.406677">
        <ele>237.532</ele>
        <time>2017-09-16T11:03:14Z</time>
      </trkpt>
      <trkpt lat="36.972327" lon="-5.405731">
        <ele>237.547</ele>
        <time>2017-09-16T11:03:31Z</time>
      </trkpt>
      <trkpt lat="36.972777" lon="-5.404993">
        <ele>239.529</ele>
        <time>2017-09-16T11:03:47Z</time>
      </trkpt>
      <trkpt lat="36.973265" lon="-5.404355">
        <ele>239.021</ele>
        <time>2017-09-16T11:04:01Z</time>
      </trkpt>
      <trkpt lat="36.973940" lon="-5.403836">
        <ele>240.408</ele>
        <time>2017-09-16T11:04:18Z</time>
      </trkpt>
      <trkpt lat="36.974025" lon="-5.403789">
        <ele>239.585</ele>
        <time>2017-09-16T11:04:20Z</time>
      </trkpt>
      <trkpt lat="36.974752" lon="-5.403494">
        <ele>240.463</ele>
        <time>2017-09-16T11:04:36Z</time>
      </trkpt>
      <trkpt lat="36.975579" lon="-5.403358">
        <ele>241.441</ele>
        <time>2017-09-16T11:04:52Z</time>
      </trkpt>
      <trkpt lat="36.976518" lon="-5.403186">
        <ele>241.969</ele>
        <time>2017-09-16T11:05:10Z</time>
      </trkpt>
      <trkpt lat="36.977278" lon="-5.403081">
        <ele>243.334</ele>
        <time>2017-09-16T11:05:26Z</time>
      </trkpt>
      <trkpt lat="36.978011" lon="-5.402970">
        <ele>244.380</ele>
        <time>2017-09-16T11:05:42Z</time>
      </trkpt>
      <trkpt lat="36.978716" lon="-5.402841">
        <ele>245.751</ele>
        <time>2017-09-16T11:05:58Z</time>
      </trkpt>
      <trkpt lat="36.981062" lon="-5.401836">
        <ele>247.683</ele>
        <time>2017-09-16T11:06:45Z</time>
      </trkpt>
      <trkpt lat="36.981744" lon="-5.401163">
        <ele>246.291</ele>
        <time>2017-09-16T11:07:01Z</time>
      </trkpt>
      <trkpt lat="36.982263" lon="-5.400555">
        <ele>247.681</ele>
        <time>2017-09-16T11:07:16Z</time>
      </trkpt>
      <trkpt lat="36.982299" lon="-5.400516">
        <ele>247.219</ele>
        <time>2017-09-16T11:07:17Z</time>
      </trkpt>
      <trkpt lat="36.982702" lon="-5.399984">
        <ele>248.608</ele>
        <time>2017-09-16T11:07:29Z</time>
      </trkpt>
      <trkpt lat="36.983238" lon="-5.399273">
        <ele>249.610</ele>
        <time>2017-09-16T11:07:45Z</time>
      </trkpt>
      <trkpt lat="36.983796" lon="-5.398548">
        <ele>250.098</ele>
        <time>2017-09-16T11:08:00Z</time>
      </trkpt>
      <trkpt lat="36.984356" lon="-5.397787">
        <ele>250.596</ele>
        <time>2017-09-16T11:08:17Z</time>
      </trkpt>
      <trkpt lat="36.984844" lon="-5.396965">
        <ele>252.474</ele>
        <time>2017-09-16T11:08:34Z</time>
      </trkpt>
      <trkpt lat="36.985303" lon="-5.395990">
        <ele>252.469</ele>
        <time>2017-09-16T11:08:52Z</time>
      </trkpt>
      <trkpt lat="36.985603" lon="-5.395377">
        <ele>254.465</ele>
        <time>2017-09-16T11:09:03Z</time>
      </trkpt>
      <trkpt lat="36.985346" lon="-5.395030">
        <ele>254.486</ele>
        <time>2017-09-16T11:09:08Z</time>
      </trkpt>
      <trkpt lat="36.985283" lon="-5.393869">
        <ele>255.318</ele>
        <time>2017-09-16T11:09:27Z</time>
      </trkpt>
      <trkpt lat="36.985047" lon="-5.392942">
        <ele>255.397</ele>
        <time>2017-09-16T11:09:41Z</time>
      </trkpt>
      <trkpt lat="36.984624" lon="-5.392008">
        <ele>256.323</ele>
        <time>2017-09-16T11:09:58Z</time>
      </trkpt>
      <trkpt lat="36.984163" lon="-5.391073">
        <ele>256.325</ele>
        <time>2017-09-16T11:10:14Z</time>
      </trkpt>
      <trkpt lat="36.983652" lon="-5.390116">
        <ele>257.708</ele>
        <time>2017-09-16T11:10:32Z</time>
      </trkpt>
      <trkpt lat="36.983470" lon="-5.389694">
        <ele>258.260</ele>
        <time>2017-09-16T11:10:40Z</time>
      </trkpt>
      <trkpt lat="36.983231" lon="-5.388780">
        <ele>257.758</ele>
        <time>2017-09-16T11:10:56Z</time>
      </trkpt>
      <trkpt lat="36.983189" lon="-5.388597">
        <ele>257.796</ele>
        <time>2017-09-16T11:10:59Z</time>
      </trkpt>
      <trkpt lat="36.983100" lon="-5.387407">
        <ele>256.354</ele>
        <time>2017-09-16T11:11:15Z</time>
      </trkpt>
      <trkpt lat="36.983097" lon="-5.387242">
        <ele>255.869</ele>
        <time>2017-09-16T11:11:17Z</time>
      </trkpt>
      <trkpt lat="36.983217" lon="-5.386520">
        <ele>256.885</ele>
        <time>2017-09-16T11:11:28Z</time>
      </trkpt>
      <trkpt lat="36.983382" lon="-5.385574">
        <ele>260.196</ele>
        <time>2017-09-16T11:11:44Z</time>
      </trkpt>
      <trkpt lat="36.983492" lon="-5.385001">
        <ele>260.128</ele>
        <time>2017-09-16T11:11:54Z</time>
      </trkpt>
      <trkpt lat="36.983649" lon="-5.384199">
        <ele>262.135</ele>
        <time>2017-09-16T11:12:08Z</time>
      </trkpt>
      <trkpt lat="36.983800" lon="-5.383191">
        <ele>262.186</ele>
        <time>2017-09-16T11:12:23Z</time>
      </trkpt>
      <trkpt lat="36.983861" lon="-5.382051">
        <ele>261.614</ele>
        <time>2017-09-16T11:12:39Z</time>
      </trkpt>
      <trkpt lat="36.983719" lon="-5.381067">
        <ele>261.608</ele>
        <time>2017-09-16T11:12:54Z</time>
      </trkpt>
      <trkpt lat="36.983575" lon="-5.380083">
        <ele>262.174</ele>
        <time>2017-09-16T11:13:09Z</time>
      </trkpt>
      <trkpt lat="36.983558" lon="-5.379915">
        <ele>262.142</ele>
        <time>2017-09-16T11:13:12Z</time>
      </trkpt>
      <trkpt lat="36.983360" lon="-5.378750">
        <ele>262.110</ele>
        <time>2017-09-16T11:13:29Z</time>
      </trkpt>
      <trkpt lat="36.983293" lon="-5.377476">
        <ele>261.198</ele>
        <time>2017-09-16T11:13:45Z</time>
      </trkpt>
      <trkpt lat="36.983232" lon="-5.377044">
        <ele>261.613</ele>
        <time>2017-09-16T11:13:51Z</time>
      </trkpt>
      <trkpt lat="36.983147" lon="-5.376767">
        <ele>261.689</ele>
        <time>2017-09-16T11:13:55Z</time>
      </trkpt>
      <trkpt lat="36.983031" lon="-5.375526">
        <ele>260.610</ele>
        <time>2017-09-16T11:14:13Z</time>
      </trkpt>
      <trkpt lat="36.983076" lon="-5.375022">
        <ele>259.632</ele>
        <time>2017-09-16T11:14:25Z</time>
      </trkpt>
      <trkpt lat="36.983065" lon="-5.374992">
        <ele>259.617</ele>
        <time>2017-09-16T11:14:35Z</time>
      </trkpt>
      <trkpt lat="36.983130" lon="-5.374567">
        <ele>259.687</ele>
        <time>2017-09-16T11:14:48Z</time>
      </trkpt>
      <trkpt lat="36.983206" lon="-5.374078">
        <ele>260.615</ele>
        <time>2017-09-16T11:15:02Z</time>
      </trkpt>
      <trkpt lat="36.983212" lon="-5.374054">
        <ele>261.108</ele>
        <time>2017-09-16T11:15:14Z</time>
      </trkpt>
      <trkpt lat="36.983222" lon="-5.374041">
        <ele>260.112</ele>
        <time>2017-09-16T11:15:54Z</time>
      </trkpt>
      <trkpt lat="36.983300" lon="-5.373626">
        <ele>260.690</ele>
        <time>2017-09-16T11:16:05Z</time>
      </trkpt>
      <trkpt lat="36.983469" lon="-5.372584">
        <ele>261.648</ele>
        <time>2017-09-16T11:16:23Z</time>
      </trkpt>
      <trkpt lat="36.983631" lon="-5.371701">
        <ele>262.576</ele>
        <time>2017-09-16T11:16:40Z</time>
      </trkpt>
      <trkpt lat="36.983808" lon="-5.370645">
        <ele>264.011</ele>
        <time>2017-09-16T11:16:57Z</time>
      </trkpt>
      <trkpt lat="36.983873" lon="-5.370257">
        <ele>264.967</ele>
        <time>2017-09-16T11:17:03Z</time>
      </trkpt>
      <trkpt lat="36.984055" lon="-5.369139">
        <ele>266.948</ele>
        <time>2017-09-16T11:17:20Z</time>
      </trkpt>
      <trkpt lat="36.984144" lon="-5.368674">
        <ele>267.870</ele>
        <time>2017-09-16T11:17:27Z</time>
      </trkpt>
      <trkpt lat="36.984285" lon="-5.367732">
        <ele>268.351</ele>
        <time>2017-09-16T11:17:39Z</time>
      </trkpt>
      <trkpt lat="36.984366" lon="-5.366593">
        <ele>269.701</ele>
        <time>2017-09-16T11:17:54Z</time>
      </trkpt>
      <trkpt lat="36.984200" lon="-5.365355">
        <ele>271.211</ele>
        <time>2017-09-16T11:18:12Z</time>
      </trkpt>
      <trkpt lat="36.984134" lon="-5.364977">
        <ele>271.708</ele>
        <time>2017-09-16T11:18:18Z</time>
      </trkpt>
      <trkpt lat="36.984030" lon="-5.364645">
        <ele>271.716</ele>
        <time>2017-09-16T11:18:25Z</time>
      </trkpt>
      <trkpt lat="36.983753" lon="-5.363979">
        <ele>272.684</ele>
        <time>2017-09-16T11:18:37Z</time>
      </trkpt>
      <trkpt lat="36.983334" lon="-5.363181">
        <ele>274.162</ele>
        <time>2017-09-16T11:18:51Z</time>
      </trkpt>
      <trkpt lat="36.983064" lon="-5.362834">
        <ele>273.630</ele>
        <time>2017-09-16T11:18:58Z</time>
      </trkpt>
      <trkpt lat="36.982626" lon="-5.362352">
        <ele>274.115</ele>
        <time>2017-09-16T11:19:09Z</time>
      </trkpt>
      <trkpt lat="36.981970" lon="-5.361691">
        <ele>275.521</ele>
        <time>2017-09-16T11:19:25Z</time>
      </trkpt>
      <trkpt lat="36.981454" lon="-5.361220">
        <ele>275.552</ele>
        <time>2017-09-16T11:19:39Z</time>
      </trkpt>
      <trkpt lat="36.980722" lon="-5.360713">
        <ele>277.474</ele>
        <time>2017-09-16T11:19:54Z</time>
      </trkpt>
      <trkpt lat="36.980137" lon="-5.360471">
        <ele>279.456</ele>
        <time>2017-09-16T11:20:05Z</time>
      </trkpt>
      <trkpt lat="36.979439" lon="-5.360254">
        <ele>279.859</ele>
        <time>2017-09-16T11:20:19Z</time>
      </trkpt>
      <trkpt lat="36.978597" lon="-5.360212">
        <ele>282.214</ele>
        <time>2017-09-16T11:20:36Z</time>
      </trkpt>
      <trkpt lat="36.978407" lon="-5.360228">
        <ele>282.708</ele>
        <time>2017-09-16T11:20:40Z</time>
      </trkpt>
      <trkpt lat="36.977816" lon="-5.360411">
        <ele>286.116</ele>
        <time>2017-09-16T11:20:52Z</time>
      </trkpt>
      <trkpt lat="36.977109" lon="-5.360679">
        <ele>285.644</ele>
        <time>2017-09-16T11:21:07Z</time>
      </trkpt>
      <trkpt lat="36.976337" lon="-5.361017">
        <ele>286.132</ele>
        <time>2017-09-16T11:21:27Z</time>
      </trkpt>
      <trkpt lat="36.971481" lon="-5.364121">
        <ele>294.760</ele>
        <time>2017-09-16T11:23:23Z</time>
      </trkpt>
      <trkpt lat="36.971443" lon="-5.364143">
        <ele>295.295</ele>
        <time>2017-09-16T11:23:24Z</time>
      </trkpt>
      <trkpt lat="36.971290" lon="-5.364249">
        <ele>296.291</ele>
        <time>2017-09-16T11:23:28Z</time>
      </trkpt>
      <trkpt lat="36.970868" lon="-5.364505">
        <ele>296.212</ele>
        <time>2017-09-16T11:23:37Z</time>
      </trkpt>
      <trkpt lat="36.970077" lon="-5.364976">
        <ele>296.234</ele>
        <time>2017-09-16T11:23:54Z</time>
      </trkpt>
      <trkpt lat="36.969350" lon="-5.365301">
        <ele>297.676</ele>
        <time>2017-09-16T11:24:10Z</time>
      </trkpt>
      <trkpt lat="36.969254" lon="-5.365324">
        <ele>297.690</ele>
        <time>2017-09-16T11:24:12Z</time>
      </trkpt>
      <trkpt lat="36.968917" lon="-5.365367">
        <ele>297.119</ele>
        <time>2017-09-16T11:24:19Z</time>
      </trkpt>
      <trkpt lat="36.968359" lon="-5.365484">
        <ele>298.608</ele>
        <time>2017-09-16T11:24:31Z</time>
      </trkpt>
      <trkpt lat="36.967218" lon="-5.365608">
        <ele>301.058</ele>
        <time>2017-09-16T11:24:55Z</time>
      </trkpt>
      <trkpt lat="36.966375" lon="-5.365761">
        <ele>301.086</ele>
        <time>2017-09-16T11:25:13Z</time>
      </trkpt>
      <trkpt lat="36.966238" lon="-5.365787">
        <ele>300.564</ele>
        <time>2017-09-16T11:25:16Z</time>
      </trkpt>
      <trkpt lat="36.965392" lon="-5.365883">
        <ele>302.432</ele>
        <time>2017-09-16T11:25:34Z</time>
      </trkpt>
      <trkpt lat="36.964654" lon="-5.365991">
        <ele>303.947</ele>
        <time>2017-09-16T11:25:50Z</time>
      </trkpt>
      <trkpt lat="36.963775" lon="-5.366088">
        <ele>303.463</ele>
        <time>2017-09-16T11:26:09Z</time>
      </trkpt>
      <trkpt lat="36.963065" lon="-5.366034">
        <ele>306.384</ele>
        <time>2017-09-16T11:26:25Z</time>
      </trkpt>
      <trkpt lat="36.962546" lon="-5.365899">
        <ele>309.626</ele>
        <time>2017-09-16T11:26:39Z</time>
      </trkpt>
      <trkpt lat="36.962504" lon="-5.365888">
        <ele>309.617</ele>
        <time>2017-09-16T11:26:40Z</time>
      </trkpt>
      <trkpt lat="36.961624" lon="-5.365345">
        <ele>307.787</ele>
        <time>2017-09-16T11:26:57Z</time>
      </trkpt>
      <trkpt lat="36.960782" lon="-5.364709">
        <ele>308.215</ele>
        <time>2017-09-16T11:27:15Z</time>
      </trkpt>
      <trkpt lat="36.960429" lon="-5.364364">
        <ele>309.208</ele>
        <time>2017-09-16T11:27:25Z</time>
      </trkpt>
      <trkpt lat="36.959976" lon="-5.363518">
        <ele>311.132</ele>
        <time>2017-09-16T11:27:49Z</time>
      </trkpt>
      <trkpt lat="36.959239" lon="-5.362481">
        <ele>313.560</ele>
        <time>2017-09-16T11:28:06Z</time>
      </trkpt>
      <trkpt lat="36.958959" lon="-5.361503">
        <ele>314.028</ele>
        <time>2017-09-16T11:28:23Z</time>
      </trkpt>
      <trkpt lat="36.958803" lon="-5.360546">
        <ele>314.496</ele>
        <time>2017-09-16T11:28:39Z</time>
      </trkpt>
      <trkpt lat="36.958782" lon="-5.359362">
        <ele>315.461</ele>
        <time>2017-09-16T11:28:59Z</time>
      </trkpt>
      <trkpt lat="36.958799" lon="-5.358368">
        <ele>316.887</ele>
        <time>2017-09-16T11:29:16Z</time>
      </trkpt>
      <trkpt lat="36.958802" lon="-5.357170">
        <ele>317.338</ele>
        <time>2017-09-16T11:29:36Z</time>
      </trkpt>
      <trkpt lat="36.958695" lon="-5.356485">
        <ele>318.840</ele>
        <time>2017-09-16T11:29:49Z</time>
      </trkpt>
      <trkpt lat="36.958522" lon="-5.355788">
        <ele>320.238</ele>
        <time>2017-09-16T11:30:01Z</time>
      </trkpt>
      <trkpt lat="36.958334" lon="-5.355275">
        <ele>321.270</ele>
        <time>2017-09-16T11:30:10Z</time>
      </trkpt>
      <trkpt lat="36.957884" lon="-5.354371">
        <ele>322.117</ele>
        <time>2017-09-16T11:30:27Z</time>
      </trkpt>
      <trkpt lat="36.957183" lon="-5.353387">
        <ele>323.608</ele>
        <time>2017-09-16T11:30:49Z</time>
      </trkpt>
      <trkpt lat="36.956482" lon="-5.352464">
        <ele>324.554</ele>
        <time>2017-09-16T11:31:10Z</time>
      </trkpt>
      <trkpt lat="36.955866" lon="-5.351597">
        <ele>326.942</ele>
        <time>2017-09-16T11:31:29Z</time>
      </trkpt>
      <trkpt lat="36.955428" lon="-5.350652">
        <ele>329.340</ele>
        <time>2017-09-16T11:31:47Z</time>
      </trkpt>
      <trkpt lat="36.955406" lon="-5.350594">
        <ele>329.398</ele>
        <time>2017-09-16T11:31:48Z</time>
      </trkpt>
      <trkpt lat="36.955358" lon="-5.350483">
        <ele>329.313</ele>
        <time>2017-09-16T11:31:50Z</time>
      </trkpt>
      <trkpt lat="36.955103" lon="-5.349342">
        <ele>331.729</ele>
        <time>2017-09-16T11:32:08Z</time>
      </trkpt>
      <trkpt lat="36.954985" lon="-5.348268">
        <ele>332.290</ele>
        <time>2017-09-16T11:32:23Z</time>
      </trkpt>
      <trkpt lat="36.954657" lon="-5.344455">
        <ele>336.182</ele>
        <time>2017-09-16T11:33:20Z</time>
      </trkpt>
      <trkpt lat="36.954565" lon="-5.344237">
        <ele>337.075</ele>
        <time>2017-09-16T11:33:23Z</time>
      </trkpt>
      <trkpt lat="36.954364" lon="-5.343738">
        <ele>339.928</ele>
        <time>2017-09-16T11:33:31Z</time>
      </trkpt>
      <trkpt lat="36.953971" lon="-5.342831">
        <ele>337.520</ele>
        <time>2017-09-16T11:33:46Z</time>
      </trkpt>
      <trkpt lat="36.953845" lon="-5.342548">
        <ele>337.508</ele>
        <time>2017-09-16T11:33:51Z</time>
      </trkpt>
      <trkpt lat="36.953796" lon="-5.342433">
        <ele>337.558</ele>
        <time>2017-09-16T11:33:53Z</time>
      </trkpt>
      <trkpt lat="36.953568" lon="-5.341967">
        <ele>338.576</ele>
        <time>2017-09-16T11:34:01Z</time>
      </trkpt>
      <trkpt lat="36.953188" lon="-5.341072">
        <ele>340.474</ele>
        <time>2017-09-16T11:34:17Z</time>
      </trkpt>
      <trkpt lat="36.952859" lon="-5.339905">
        <ele>341.422</ele>
        <time>2017-09-16T11:34:36Z</time>
      </trkpt>
      <trkpt lat="36.952819" lon="-5.339232">
        <ele>344.747</ele>
        <time>2017-09-16T11:34:47Z</time>
      </trkpt>
      <trkpt lat="36.952764" lon="-5.338554">
        <ele>343.853</ele>
        <time>2017-09-16T11:34:57Z</time>
      </trkpt>
      <trkpt lat="36.952911" lon="-5.337270">
        <ele>344.274</ele>
        <time>2017-09-16T11:35:15Z</time>
      </trkpt>
      <trkpt lat="36.953226" lon="-5.336194">
        <ele>346.286</ele>
        <time>2017-09-16T11:35:32Z</time>
      </trkpt>
      <trkpt lat="36.953296" lon="-5.336019">
        <ele>347.639</ele>
        <time>2017-09-16T11:35:35Z</time>
      </trkpt>
      <trkpt lat="36.953720" lon="-5.335183">
        <ele>348.101</ele>
        <time>2017-09-16T11:35:51Z</time>
      </trkpt>
      <trkpt lat="36.954037" lon="-5.334714">
        <ele>348.621</ele>
        <time>2017-09-16T11:36:01Z</time>
      </trkpt>
      <trkpt lat="36.954246" lon="-5.334329">
        <ele>349.508</ele>
        <time>2017-09-16T11:36:08Z</time>
      </trkpt>
      <trkpt lat="36.954772" lon="-5.333646">
        <ele>350.044</ele>
        <time>2017-09-16T11:36:23Z</time>
      </trkpt>
      <trkpt lat="36.955314" lon="-5.332808">
        <ele>350.092</ele>
        <time>2017-09-16T11:36:39Z</time>
      </trkpt>
      <trkpt lat="36.955684" lon="-5.332067">
        <ele>351.040</ele>
        <time>2017-09-16T11:36:52Z</time>
      </trkpt>
      <trkpt lat="36.956111" lon="-5.331087">
        <ele>350.038</ele>
        <time>2017-09-16T11:37:08Z</time>
      </trkpt>
      <trkpt lat="36.956372" lon="-5.330174">
        <ele>349.573</ele>
        <time>2017-09-16T11:37:22Z</time>
      </trkpt>
      <trkpt lat="36.956556" lon="-5.329307">
        <ele>350.089</ele>
        <time>2017-09-16T11:37:35Z</time>
      </trkpt>
      <trkpt lat="36.956681" lon="-5.328389">
        <ele>351.090</ele>
        <time>2017-09-16T11:37:50Z</time>
      </trkpt>
      <trkpt lat="36.956748" lon="-5.327504">
        <ele>352.442</ele>
        <time>2017-09-16T11:38:03Z</time>
      </trkpt>
      <trkpt lat="36.956769" lon="-5.326466">
        <ele>352.481</ele>
        <time>2017-09-16T11:38:18Z</time>
      </trkpt>
      <trkpt lat="36.956808" lon="-5.325343">
        <ele>351.561</ele>
        <time>2017-09-16T11:38:35Z</time>
      </trkpt>
      <trkpt lat="36.956854" lon="-5.324206">
        <ele>351.917</ele>
        <time>2017-09-16T11:38:52Z</time>
      </trkpt>
      <trkpt lat="36.956875" lon="-5.323522">
        <ele>353.908</ele>
        <time>2017-09-16T11:39:02Z</time>
      </trkpt>
      <trkpt lat="36.956881" lon="-5.323344">
        <ele>355.329</ele>
        <time>2017-09-16T11:39:05Z</time>
      </trkpt>
      <trkpt lat="36.956903" lon="-5.322320">
        <ele>356.317</ele>
        <time>2017-09-16T11:39:21Z</time>
      </trkpt>
      <trkpt lat="36.956928" lon="-5.321573">
        <ele>357.225</ele>
        <time>2017-09-16T11:39:33Z</time>
      </trkpt>
      <trkpt lat="36.956971" lon="-5.320549">
        <ele>357.793</ele>
        <time>2017-09-16T11:39:51Z</time>
      </trkpt>
      <trkpt lat="36.956972" lon="-5.320445">
        <ele>358.268</ele>
        <time>2017-09-16T11:39:53Z</time>
      </trkpt>
      <trkpt lat="36.957002" lon="-5.319561">
        <ele>359.644</ele>
        <time>2017-09-16T11:40:08Z</time>
      </trkpt>
      <trkpt lat="36.957054" lon="-5.318440">
        <ele>362.555</ele>
        <time>2017-09-16T11:40:27Z</time>
      </trkpt>
      <trkpt lat="36.957011" lon="-5.317537">
        <ele>363.587</ele>
        <time>2017-09-16T11:40:42Z</time>
      </trkpt>
      <trkpt lat="36.956797" lon="-5.316504">
        <ele>364.481</ele>
        <time>2017-09-16T11:41:00Z</time>
      </trkpt>
      <trkpt lat="36.956512" lon="-5.315810">
        <ele>365.461</ele>
        <time>2017-09-16T11:41:13Z</time>
      </trkpt>
      <trkpt lat="36.956356" lon="-5.315525">
        <ele>367.317</ele>
        <time>2017-09-16T11:41:19Z</time>
      </trkpt>
      <trkpt lat="36.956218" lon="-5.315305">
        <ele>366.408</ele>
        <time>2017-09-16T11:41:24Z</time>
      </trkpt>
      <trkpt lat="36.955970" lon="-5.315015">
        <ele>367.319</ele>
        <time>2017-09-16T11:41:31Z</time>
      </trkpt>
      <trkpt lat="36.955803" lon="-5.314866">
        <ele>367.857</ele>
        <time>2017-09-16T11:41:35Z</time>
      </trkpt>
      <trkpt lat="36.955671" lon="-5.314706">
        <ele>368.875</ele>
        <time>2017-09-16T11:41:39Z</time>
      </trkpt>
      <trkpt lat="36.955257" lon="-5.314300">
        <ele>369.283</ele>
        <time>2017-09-16T11:41:49Z</time>
      </trkpt>
      <trkpt lat="36.954510" lon="-5.313749">
        <ele>370.228</ele>
        <time>2017-09-16T11:42:08Z</time>
      </trkpt>
      <trkpt lat="36.953748" lon="-5.313214">
        <ele>369.794</ele>
        <time>2017-09-16T11:42:27Z</time>
      </trkpt>
      <trkpt lat="36.953248" lon="-5.312854">
        <ele>371.675</ele>
        <time>2017-09-16T11:42:41Z</time>
      </trkpt>
      <trkpt lat="36.952477" lon="-5.312244">
        <ele>375.057</ele>
        <time>2017-09-16T11:43:11Z</time>
      </trkpt>
      <trkpt lat="36.952453" lon="-5.312225">
        <ele>375.029</ele>
        <time>2017-09-16T11:43:12Z</time>
      </trkpt>
      <trkpt lat="36.951480" lon="-5.311161">
        <ele>373.600</ele>
        <time>2017-09-16T11:43:28Z</time>
      </trkpt>
      <trkpt lat="36.951446" lon="-5.311108">
        <ele>373.620</ele>
        <time>2017-09-16T11:43:29Z</time>
      </trkpt>
      <trkpt lat="36.951194" lon="-5.310768">
        <ele>371.208</ele>
        <time>2017-09-16T11:43:35Z</time>
      </trkpt>
      <trkpt lat="36.950826" lon="-5.310196">
        <ele>374.553</ele>
        <time>2017-09-16T11:43:47Z</time>
      </trkpt>
      <trkpt lat="36.950526" lon="-5.309613">
        <ele>376.491</ele>
        <time>2017-09-16T11:43:59Z</time>
      </trkpt>
      <trkpt lat="36.950327" lon="-5.309185">
        <ele>376.929</ele>
        <time>2017-09-16T11:44:08Z</time>
      </trkpt>
      <trkpt lat="36.950263" lon="-5.309039">
        <ele>377.477</ele>
        <time>2017-09-16T11:44:11Z</time>
      </trkpt>
      <trkpt lat="36.949824" lon="-5.308121">
        <ele>377.932</ele>
        <time>2017-09-16T11:44:29Z</time>
      </trkpt>
      <trkpt lat="36.949577" lon="-5.306074">
        <ele>381.738</ele>
        <time>2017-09-16T11:45:03Z</time>
      </trkpt>
      <trkpt lat="36.949482" lon="-5.305097">
        <ele>381.779</ele>
        <time>2017-09-16T11:45:18Z</time>
      </trkpt>
      <trkpt lat="36.949490" lon="-5.304223">
        <ele>384.141</ele>
        <time>2017-09-16T11:45:32Z</time>
      </trkpt>
      <trkpt lat="36.949584" lon="-5.303019">
        <ele>384.688</ele>
        <time>2017-09-16T11:45:51Z</time>
      </trkpt>
      <trkpt lat="36.949482" lon="-5.300579">
        <ele>388.524</ele>
        <time>2017-09-16T11:46:28Z</time>
      </trkpt>
      <trkpt lat="36.949326" lon="-5.299529">
        <ele>389.426</ele>
        <time>2017-09-16T11:46:44Z</time>
      </trkpt>
      <trkpt lat="36.949231" lon="-5.298948">
        <ele>390.408</ele>
        <time>2017-09-16T11:46:53Z</time>
      </trkpt>
      <trkpt lat="36.949139" lon="-5.298445">
        <ele>389.959</ele>
        <time>2017-09-16T11:47:01Z</time>
      </trkpt>
      <trkpt lat="36.948606" lon="-5.296702">
        <ele>392.397</ele>
        <time>2017-09-16T11:47:26Z</time>
      </trkpt>
      <trkpt lat="36.948623" lon="-5.295124">
        <ele>395.725</ele>
        <time>2017-09-16T11:47:52Z</time>
      </trkpt>
      <trkpt lat="36.948514" lon="-5.293926">
        <ele>396.223</ele>
        <time>2017-09-16T11:48:10Z</time>
      </trkpt>
      <trkpt lat="36.948441" lon="-5.292756">
        <ele>398.658</ele>
        <time>2017-09-16T11:48:28Z</time>
      </trkpt>
      <trkpt lat="36.948430" lon="-5.292633">
        <ele>398.634</ele>
        <time>2017-09-16T11:48:30Z</time>
      </trkpt>
      <trkpt lat="36.948328" lon="-5.292153">
        <ele>399.545</ele>
        <time>2017-09-16T11:48:41Z</time>
      </trkpt>
      <trkpt lat="36.948307" lon="-5.292069">
        <ele>399.537</ele>
        <time>2017-09-16T11:48:43Z</time>
      </trkpt>
      <trkpt lat="36.948305" lon="-5.291692">
        <ele>400.568</ele>
        <time>2017-09-16T11:48:47Z</time>
      </trkpt>
      <trkpt lat="36.948299" lon="-5.291451">
        <ele>400.042</ele>
        <time>2017-09-16T11:48:51Z</time>
      </trkpt>
      <trkpt lat="36.948002" lon="-5.289899">
        <ele>401.926</ele>
        <time>2017-09-16T11:49:23Z</time>
      </trkpt>
      <trkpt lat="36.947648" lon="-5.289131">
        <ele>403.808</ele>
        <time>2017-09-16T11:49:31Z</time>
      </trkpt>
      <trkpt lat="36.947231" lon="-5.288093">
        <ele>403.427</ele>
        <time>2017-09-16T11:49:49Z</time>
      </trkpt>
      <trkpt lat="36.947004" lon="-5.287316">
        <ele>405.355</ele>
        <time>2017-09-16T11:50:01Z</time>
      </trkpt>
      <trkpt lat="36.946797" lon="-5.286590">
        <ele>405.843</ele>
        <time>2017-09-16T11:50:13Z</time>
      </trkpt>
      <trkpt lat="36.946674" lon="-5.285925">
        <ele>406.281</ele>
        <time>2017-09-16T11:50:23Z</time>
      </trkpt>
      <trkpt lat="36.946658" lon="-5.285789">
        <ele>406.786</ele>
        <time>2017-09-16T11:50:25Z</time>
      </trkpt>
      <trkpt lat="36.946640" lon="-5.285654">
        <ele>407.282</ele>
        <time>2017-09-16T11:50:27Z</time>
      </trkpt>
      <trkpt lat="36.946614" lon="-5.285370">
        <ele>407.773</ele>
        <time>2017-09-16T11:50:31Z</time>
      </trkpt>
      <trkpt lat="36.946614" lon="-5.284340">
        <ele>410.675</ele>
        <time>2017-09-16T11:50:47Z</time>
      </trkpt>
      <trkpt lat="36.946633" lon="-5.284194">
        <ele>412.039</ele>
        <time>2017-09-16T11:50:50Z</time>
      </trkpt>
      <trkpt lat="36.946640" lon="-5.284101">
        <ele>411.501</ele>
        <time>2017-09-16T11:50:52Z</time>
      </trkpt>
      <trkpt lat="36.946791" lon="-5.282988">
        <ele>410.621</ele>
        <time>2017-09-16T11:51:08Z</time>
      </trkpt>
      <trkpt lat="36.946885" lon="-5.282260">
        <ele>409.608</ele>
        <time>2017-09-16T11:51:19Z</time>
      </trkpt>
      <trkpt lat="36.947121" lon="-5.281569">
        <ele>410.624</ele>
        <time>2017-09-16T11:51:30Z</time>
      </trkpt>
      <trkpt lat="36.947198" lon="-5.281268">
        <ele>412.552</ele>
        <time>2017-09-16T11:51:36Z</time>
      </trkpt>
      <trkpt lat="36.947341" lon="-5.280644">
        <ele>413.560</ele>
        <time>2017-09-16T11:51:48Z</time>
      </trkpt>
      <trkpt lat="36.947530" lon="-5.279873">
        <ele>417.378</ele>
        <time>2017-09-16T11:52:03Z</time>
      </trkpt>
      <trkpt lat="36.947553" lon="-5.279657">
        <ele>419.753</ele>
        <time>2017-09-16T11:52:08Z</time>
      </trkpt>
      <trkpt lat="36.947576" lon="-5.279138">
        <ele>419.289</ele>
        <time>2017-09-16T11:52:16Z</time>
      </trkpt>
      <trkpt lat="36.947295" lon="-5.278532">
        <ele>418.760</ele>
        <time>2017-09-16T11:52:24Z</time>
      </trkpt>
      <trkpt lat="36.947230" lon="-5.278423">
        <ele>418.372</ele>
        <time>2017-09-16T11:52:26Z</time>
      </trkpt>
      <trkpt lat="36.947161" lon="-5.278247">
        <ele>418.741</ele>
        <time>2017-09-16T11:52:29Z</time>
      </trkpt>
      <trkpt lat="36.947148" lon="-5.277919">
        <ele>418.381</ele>
        <time>2017-09-16T11:52:34Z</time>
      </trkpt>
      <trkpt lat="36.947193" lon="-5.277720">
        <ele>418.309</ele>
        <time>2017-09-16T11:52:37Z</time>
      </trkpt>
      <trkpt lat="36.947115" lon="-5.276922">
        <ele>419.208</ele>
        <time>2017-09-16T11:52:49Z</time>
      </trkpt>
      <trkpt lat="36.946914" lon="-5.275995">
        <ele>419.755</ele>
        <time>2017-09-16T11:53:03Z</time>
      </trkpt>
      <trkpt lat="36.946910" lon="-5.275932">
        <ele>420.233</ele>
        <time>2017-09-16T11:53:04Z</time>
      </trkpt>
      <trkpt lat="36.946829" lon="-5.275681">
        <ele>421.121</ele>
        <time>2017-09-16T11:53:08Z</time>
      </trkpt>
      <trkpt lat="36.946586" lon="-5.274824">
        <ele>422.129</ele>
        <time>2017-09-16T11:53:21Z</time>
      </trkpt>
      <trkpt lat="36.946596" lon="-5.274513">
        <ele>423.154</ele>
        <time>2017-09-16T11:53:25Z</time>
      </trkpt>
      <trkpt lat="36.946643" lon="-5.274269">
        <ele>423.690</ele>
        <time>2017-09-16T11:53:29Z</time>
      </trkpt>
      <trkpt lat="36.946646" lon="-5.274031">
        <ele>424.051</ele>
        <time>2017-09-16T11:53:33Z</time>
      </trkpt>
      <trkpt lat="36.946518" lon="-5.273050">
        <ele>423.653</ele>
        <time>2017-09-16T11:53:47Z</time>
      </trkpt>
      <trkpt lat="36.946541" lon="-5.272672">
        <ele>422.647</ele>
        <time>2017-09-16T11:53:51Z</time>
      </trkpt>
      <trkpt lat="36.946604" lon="-5.272460">
        <ele>423.129</ele>
        <time>2017-09-16T11:53:54Z</time>
      </trkpt>
      <trkpt lat="36.946685" lon="-5.271677">
        <ele>425.521</ele>
        <time>2017-09-16T11:54:07Z</time>
      </trkpt>
      <trkpt lat="36.946741" lon="-5.271298">
        <ele>426.008</ele>
        <time>2017-09-16T11:54:13Z</time>
      </trkpt>
      <trkpt lat="36.946714" lon="-5.270957">
        <ele>426.065</ele>
        <time>2017-09-16T11:54:17Z</time>
      </trkpt>
      <trkpt lat="36.946633" lon="-5.270682">
        <ele>426.063</ele>
        <time>2017-09-16T11:54:21Z</time>
      </trkpt>
      <trkpt lat="36.946643" lon="-5.270401">
        <ele>426.471</ele>
        <time>2017-09-16T11:54:25Z</time>
      </trkpt>
      <trkpt lat="36.946667" lon="-5.270266">
        <ele>426.029</ele>
        <time>2017-09-16T11:54:27Z</time>
      </trkpt>
      <trkpt lat="36.946646" lon="-5.269945">
        <ele>426.964</ele>
        <time>2017-09-16T11:54:32Z</time>
      </trkpt>
      <trkpt lat="36.946441" lon="-5.269129">
        <ele>427.430</ele>
        <time>2017-09-16T11:54:44Z</time>
      </trkpt>
      <trkpt lat="36.946366" lon="-5.268773">
        <ele>428.811</ele>
        <time>2017-09-16T11:54:49Z</time>
      </trkpt>
      <trkpt lat="36.946135" lon="-5.268235">
        <ele>429.343</ele>
        <time>2017-09-16T11:54:58Z</time>
      </trkpt>
      <trkpt lat="36.945826" lon="-5.267785">
        <ele>428.484</ele>
        <time>2017-09-16T11:55:06Z</time>
      </trkpt>
      <trkpt lat="36.945456" lon="-5.267400">
        <ele>429.307</ele>
        <time>2017-09-16T11:55:15Z</time>
      </trkpt>
      <trkpt lat="36.945293" lon="-5.267136">
        <ele>430.317</ele>
        <time>2017-09-16T11:55:20Z</time>
      </trkpt>
      <trkpt lat="36.944342" lon="-5.266300">
        <ele>432.708</ele>
        <time>2017-09-16T11:55:41Z</time>
      </trkpt>
      <trkpt lat="36.943999" lon="-5.266069">
        <ele>433.299</ele>
        <time>2017-09-16T11:55:48Z</time>
      </trkpt>
      <trkpt lat="36.943635" lon="-5.265621">
        <ele>434.137</ele>
        <time>2017-09-16T11:55:57Z</time>
      </trkpt>
      <trkpt lat="36.943390" lon="-5.265534">
        <ele>433.215</ele>
        <time>2017-09-16T11:56:01Z</time>
      </trkpt>
      <trkpt lat="36.943132" lon="-5.265309">
        <ele>433.673</ele>
        <time>2017-09-16T11:56:06Z</time>
      </trkpt>
      <trkpt lat="36.943058" lon="-5.265087">
        <ele>434.628</ele>
        <time>2017-09-16T11:56:09Z</time>
      </trkpt>
      <trkpt lat="36.942454" lon="-5.264094">
        <ele>436.554</ele>
        <time>2017-09-16T11:56:26Z</time>
      </trkpt>
      <trkpt lat="36.942312" lon="-5.263834">
        <ele>437.095</ele>
        <time>2017-09-16T11:56:30Z</time>
      </trkpt>
      <trkpt lat="36.941934" lon="-5.262923">
        <ele>439.467</ele>
        <time>2017-09-16T11:56:46Z</time>
      </trkpt>
      <trkpt lat="36.941571" lon="-5.262190">
        <ele>439.497</ele>
        <time>2017-09-16T11:57:04Z</time>
      </trkpt>
      <trkpt lat="36.941704" lon="-5.260464">
        <ele>440.423</ele>
        <time>2017-09-16T11:57:23Z</time>
      </trkpt>
      <trkpt lat="36.941673" lon="-5.259183">
        <ele>441.825</ele>
        <time>2017-09-16T11:57:41Z</time>
      </trkpt>
      <trkpt lat="36.941683" lon="-5.258571">
        <ele>444.708</ele>
        <time>2017-09-16T11:57:51Z</time>
      </trkpt>
      <trkpt lat="36.941620" lon="-5.257509">
        <ele>444.240</ele>
        <time>2017-09-16T11:58:06Z</time>
      </trkpt>
      <trkpt lat="36.941528" lon="-5.257118">
        <ele>441.818</ele>
        <time>2017-09-16T11:58:10Z</time>
      </trkpt>
      <trkpt lat="36.941571" lon="-5.256305">
        <ele>441.826</ele>
        <time>2017-09-16T11:58:19Z</time>
      </trkpt>
      <trkpt lat="36.941621" lon="-5.255801">
        <ele>444.714</ele>
        <time>2017-09-16T11:58:26Z</time>
      </trkpt>
      <trkpt lat="36.941653" lon="-5.254869">
        <ele>445.759</ele>
        <time>2017-09-16T11:58:38Z</time>
      </trkpt>
      <trkpt lat="36.941546" lon="-5.254207">
        <ele>443.765</ele>
        <time>2017-09-16T11:58:47Z</time>
      </trkpt>
      <trkpt lat="36.941547" lon="-5.253927">
        <ele>443.716</ele>
        <time>2017-09-16T11:58:52Z</time>
      </trkpt>
      <trkpt lat="36.941548" lon="-5.253170">
        <ele>445.218</ele>
        <time>2017-09-16T11:59:08Z</time>
      </trkpt>
      <trkpt lat="36.941559" lon="-5.252408">
        <ele>445.246</ele>
        <time>2017-09-16T11:59:25Z</time>
      </trkpt>
      <trkpt lat="36.941561" lon="-5.252024">
        <ele>444.788</ele>
        <time>2017-09-16T11:59:37Z</time>
      </trkpt>
      <trkpt lat="36.941565" lon="-5.251961">
        <ele>444.716</ele>
        <time>2017-09-16T11:59:39Z</time>
      </trkpt>
      <trkpt lat="36.941549" lon="-5.251990">
        <ele>445.208</ele>
        <time>2017-09-16T11:59:45Z</time>
      </trkpt>
      <trkpt lat="36.941556" lon="-5.252134">
        <ele>445.295</ele>
        <time>2017-09-16T11:59:50Z</time>
      </trkpt>
      <trkpt lat="36.941559" lon="-5.252499">
        <ele>444.733</ele>
        <time>2017-09-16T12:00:02Z</time>
      </trkpt>
      <trkpt lat="36.941594" lon="-5.252634">
        <ele>444.771</ele>
        <time>2017-09-16T12:00:12Z</time>
      </trkpt>
      <trkpt lat="36.941602" lon="-5.252622">
        <ele>445.269</ele>
        <time>2017-09-16T12:00:35Z</time>
      </trkpt>
      <trkpt lat="36.941579" lon="-5.252721">
        <ele>445.774</ele>
        <time>2017-09-16T12:00:39Z</time>
      </trkpt>
      <trkpt lat="36.941543" lon="-5.253399">
        <ele>445.260</ele>
        <time>2017-09-16T12:00:54Z</time>
      </trkpt>
      <trkpt lat="36.941536" lon="-5.254090">
        <ele>444.291</ele>
        <time>2017-09-16T12:01:10Z</time>
      </trkpt>
      <trkpt lat="36.941518" lon="-5.254162">
        <ele>443.783</ele>
        <time>2017-09-16T12:01:12Z</time>
      </trkpt>
      <trkpt lat="36.941252" lon="-5.254227">
        <ele>446.164</ele>
        <time>2017-09-16T12:01:24Z</time>
      </trkpt>
      <trkpt lat="36.941132" lon="-5.254266">
        <ele>447.606</ele>
        <time>2017-09-16T12:01:30Z</time>
      </trkpt>
      <trkpt lat="36.940929" lon="-5.254381">
        <ele>450.516</ele>
        <time>2017-09-16T12:01:41Z</time>
      </trkpt>
      <trkpt lat="36.940859" lon="-5.254435">
        <ele>451.408</ele>
        <time>2017-09-16T12:01:45Z</time>
      </trkpt>
      <trkpt lat="36.940724" lon="-5.254536">
        <ele>452.917</ele>
        <time>2017-09-16T12:01:53Z</time>
      </trkpt>
      <trkpt lat="36.940536" lon="-5.254687">
        <ele>455.855</ele>
        <time>2017-09-16T12:02:05Z</time>
      </trkpt>
      <trkpt lat="36.940356" lon="-5.254837">
        <ele>459.183</ele>
        <time>2017-09-16T12:02:18Z</time>
      </trkpt>
      <trkpt lat="36.940151" lon="-5.255022">
        <ele>462.571</ele>
        <time>2017-09-16T12:02:33Z</time>
      </trkpt>
      <trkpt lat="36.939995" lon="-5.255210">
        <ele>465.446</ele>
        <time>2017-09-16T12:02:46Z</time>
      </trkpt>
      <trkpt lat="36.939811" lon="-5.255436">
        <ele>468.782</ele>
        <time>2017-09-16T12:03:01Z</time>
      </trkpt>
      <trkpt lat="36.939612" lon="-5.255506">
        <ele>472.143</ele>
        <time>2017-09-16T12:03:13Z</time>
      </trkpt>
      <trkpt lat="36.939390" lon="-5.255444">
        <ele>475.515</ele>
        <time>2017-09-16T12:03:26Z</time>
      </trkpt>
      <trkpt lat="36.939151" lon="-5.255396">
        <ele>478.839</ele>
        <time>2017-09-16T12:03:40Z</time>
      </trkpt>
      <trkpt lat="36.938938" lon="-5.255418">
        <ele>482.201</ele>
        <time>2017-09-16T12:03:53Z</time>
      </trkpt>
      <trkpt lat="36.938916" lon="-5.255419">
        <ele>477.921</ele>
        <time>2017-09-16T12:03:54Z</time>
      </trkpt>
      <trkpt lat="36.938655" lon="-5.255500">
        <ele>484.608</ele>
        <time>2017-09-16T12:04:10Z</time>
      </trkpt>
      <trkpt lat="36.938340" lon="-5.255586">
        <ele>487.574</ele>
        <time>2017-09-16T12:04:29Z</time>
      </trkpt>
      <trkpt lat="36.938263" lon="-5.255634">
        <ele>488.972</ele>
        <time>2017-09-16T12:04:34Z</time>
      </trkpt>
      <trkpt lat="36.938104" lon="-5.255782">
        <ele>492.340</ele>
        <time>2017-09-16T12:04:47Z</time>
      </trkpt>
      <trkpt lat="36.937932" lon="-5.255919">
        <ele>495.238</ele>
        <time>2017-09-16T12:05:01Z</time>
      </trkpt>
      <trkpt lat="36.937817" lon="-5.256065">
        <ele>498.563</ele>
        <time>2017-09-16T12:05:12Z</time>
      </trkpt>
      <trkpt lat="36.937651" lon="-5.256221">
        <ele>501.469</ele>
        <time>2017-09-16T12:05:24Z</time>
      </trkpt>
      <trkpt lat="36.937459" lon="-5.256322">
        <ele>504.810</ele>
        <time>2017-09-16T12:05:35Z</time>
      </trkpt>
      <trkpt lat="36.937391" lon="-5.256383">
        <ele>506.282</ele>
        <time>2017-09-16T12:05:40Z</time>
      </trkpt>
      <trkpt lat="36.937267" lon="-5.256451">
        <ele>508.616</ele>
        <time>2017-09-16T12:05:50Z</time>
      </trkpt>
      <trkpt lat="36.937245" lon="-5.256495">
        <ele>509.676</ele>
        <time>2017-09-16T12:05:53Z</time>
      </trkpt>
      <trkpt lat="36.937089" lon="-5.256629">
        <ele>513.013</ele>
        <time>2017-09-16T12:06:07Z</time>
      </trkpt>
      <trkpt lat="36.936995" lon="-5.256704">
        <ele>515.408</ele>
        <time>2017-09-16T12:06:15Z</time>
      </trkpt>
      <trkpt lat="36.936893" lon="-5.256846">
        <ele>517.832</ele>
        <time>2017-09-16T12:06:26Z</time>
      </trkpt>
      <trkpt lat="36.936837" lon="-5.256936">
        <ele>519.790</ele>
        <time>2017-09-16T12:06:32Z</time>
      </trkpt>
      <trkpt lat="36.936713" lon="-5.257079">
        <ele>522.638</ele>
        <time>2017-09-16T12:06:44Z</time>
      </trkpt>
      <trkpt lat="36.936645" lon="-5.257203">
        <ele>525.096</ele>
        <time>2017-09-16T12:06:52Z</time>
      </trkpt>
      <trkpt lat="36.936592" lon="-5.257241">
        <ele>525.991</ele>
        <time>2017-09-16T12:06:56Z</time>
      </trkpt>
      <trkpt lat="36.936474" lon="-5.257404">
        <ele>529.877</ele>
        <time>2017-09-16T12:07:08Z</time>
      </trkpt>
      <trkpt lat="36.936334" lon="-5.257552">
        <ele>532.798</ele>
        <time>2017-09-16T12:07:19Z</time>
      </trkpt>
      <trkpt lat="36.936285" lon="-5.257597">
        <ele>533.680</ele>
        <time>2017-09-16T12:07:23Z</time>
      </trkpt>
      <trkpt lat="36.936117" lon="-5.257813">
        <ele>537.058</ele>
        <time>2017-09-16T12:07:37Z</time>
      </trkpt>
      <trkpt lat="36.935929" lon="-5.258064">
        <ele>539.452</ele>
        <time>2017-09-16T12:07:52Z</time>
      </trkpt>
      <trkpt lat="36.935760" lon="-5.258285">
        <ele>542.817</ele>
        <time>2017-09-16T12:08:05Z</time>
      </trkpt>
      <trkpt lat="36.935809" lon="-5.258424">
        <ele>543.708</ele>
        <time>2017-09-16T12:08:11Z</time>
      </trkpt>
      <trkpt lat="36.936151" lon="-5.258798">
        <ele>546.656</ele>
        <time>2017-09-16T12:08:29Z</time>
      </trkpt>
      <trkpt lat="36.936175" lon="-5.259164">
        <ele>550.034</ele>
        <time>2017-09-16T12:08:41Z</time>
      </trkpt>
      <trkpt lat="36.936004" lon="-5.259904">
        <ele>551.932</ele>
        <time>2017-09-16T12:09:00Z</time>
      </trkpt>
      <trkpt lat="36.935869" lon="-5.260484">
        <ele>550.920</ele>
        <time>2017-09-16T12:09:13Z</time>
      </trkpt>
      <trkpt lat="36.935802" lon="-5.260757">
        <ele>551.485</ele>
        <time>2017-09-16T12:09:19Z</time>
      </trkpt>
      <trkpt lat="36.935701" lon="-5.261431">
        <ele>552.451</ele>
        <time>2017-09-16T12:09:34Z</time>
      </trkpt>
      <trkpt lat="36.935679" lon="-5.261927">
        <ele>554.862</ele>
        <time>2017-09-16T12:09:47Z</time>
      </trkpt>
      <trkpt lat="36.935598" lon="-5.262484">
        <ele>558.184</ele>
        <time>2017-09-16T12:10:03Z</time>
      </trkpt>
      <trkpt lat="36.935524" lon="-5.263012">
        <ele>560.129</ele>
        <time>2017-09-16T12:10:19Z</time>
      </trkpt>
      <trkpt lat="36.935480" lon="-5.263481">
        <ele>563.400</ele>
        <time>2017-09-16T12:10:33Z</time>
      </trkpt>
      <trkpt lat="36.935539" lon="-5.264029">
        <ele>564.920</ele>
        <time>2017-09-16T12:10:49Z</time>
      </trkpt>
      <trkpt lat="36.935599" lon="-5.264383">
        <ele>567.808</ele>
        <time>2017-09-16T12:11:00Z</time>
      </trkpt>
      <trkpt lat="36.935702" lon="-5.264864">
        <ele>570.213</ele>
        <time>2017-09-16T12:11:16Z</time>
      </trkpt>
      <trkpt lat="36.935827" lon="-5.265298">
        <ele>572.611</ele>
        <time>2017-09-16T12:11:31Z</time>
      </trkpt>
      <trkpt lat="36.936059" lon="-5.265888">
        <ele>574.579</ele>
        <time>2017-09-16T12:11:50Z</time>
      </trkpt>
      <trkpt lat="36.936275" lon="-5.266401">
        <ele>575.497</ele>
        <time>2017-09-16T12:12:05Z</time>
      </trkpt>
      <trkpt lat="36.936268" lon="-5.266558">
        <ele>576.952</ele>
        <time>2017-09-16T12:12:10Z</time>
      </trkpt>
      <trkpt lat="36.936152" lon="-5.266608">
        <ele>577.878</ele>
        <time>2017-09-16T12:12:15Z</time>
      </trkpt>
      <trkpt lat="36.935989" lon="-5.266497">
        <ele>581.269</ele>
        <time>2017-09-16T12:12:24Z</time>
      </trkpt>
      <trkpt lat="36.935896" lon="-5.266363">
        <ele>583.181</ele>
        <time>2017-09-16T12:12:31Z</time>
      </trkpt>
      <trkpt lat="36.935805" lon="-5.266418">
        <ele>584.626</ele>
        <time>2017-09-16T12:12:38Z</time>
      </trkpt>
      <trkpt lat="36.935843" lon="-5.266537">
        <ele>585.147</ele>
        <time>2017-09-16T12:12:43Z</time>
      </trkpt>
      <trkpt lat="36.935693" lon="-5.266632">
        <ele>587.511</ele>
        <time>2017-09-16T12:12:53Z</time>
      </trkpt>
      <trkpt lat="36.935517" lon="-5.266733">
        <ele>590.808</ele>
        <time>2017-09-16T12:13:04Z</time>
      </trkpt>
      <trkpt lat="36.935317" lon="-5.266865">
        <ele>593.263</ele>
        <time>2017-09-16T12:13:14Z</time>
      </trkpt>
      <trkpt lat="36.935330" lon="-5.267072">
        <ele>595.661</ele>
        <time>2017-09-16T12:13:26Z</time>
      </trkpt>
      <trkpt lat="36.935341" lon="-5.267110">
        <ele>596.679</ele>
        <time>2017-09-16T12:13:29Z</time>
      </trkpt>
      <trkpt lat="36.935356" lon="-5.267174">
        <ele>597.697</ele>
        <time>2017-09-16T12:13:33Z</time>
      </trkpt>
      <trkpt lat="36.935352" lon="-5.267248">
        <ele>599.512</ele>
        <time>2017-09-16T12:13:37Z</time>
      </trkpt>
      <trkpt lat="36.935324" lon="-5.267419">
        <ele>601.958</ele>
        <time>2017-09-16T12:13:45Z</time>
      </trkpt>
      <trkpt lat="36.935257" lon="-5.267590">
        <ele>604.879</ele>
        <time>2017-09-16T12:13:55Z</time>
      </trkpt>
      <trkpt lat="36.935259" lon="-5.267645">
        <ele>605.761</ele>
        <time>2017-09-16T12:13:58Z</time>
      </trkpt>
      <trkpt lat="36.935361" lon="-5.267753">
        <ele>608.115</ele>
        <time>2017-09-16T12:14:08Z</time>
      </trkpt>
      <trkpt lat="36.935370" lon="-5.267739">
        <ele>609.165</ele>
        <time>2017-09-16T12:14:10Z</time>
      </trkpt>
      <trkpt lat="36.935400" lon="-5.267697">
        <ele>610.511</ele>
        <time>2017-09-16T12:14:15Z</time>
      </trkpt>
      <trkpt lat="36.935450" lon="-5.267669">
        <ele>611.508</ele>
        <time>2017-09-16T12:14:19Z</time>
      </trkpt>
      <trkpt lat="36.935535" lon="-5.267792">
        <ele>613.942</ele>
        <time>2017-09-16T12:14:27Z</time>
      </trkpt>
      <trkpt lat="36.935597" lon="-5.267851">
        <ele>615.880</ele>
        <time>2017-09-16T12:14:32Z</time>
      </trkpt>
      <trkpt lat="36.935482" lon="-5.267917">
        <ele>615.338</ele>
        <time>2017-09-16T12:14:43Z</time>
      </trkpt>
      <trkpt lat="36.935470" lon="-5.267928">
        <ele>615.846</ele>
        <time>2017-09-16T12:14:44Z</time>
      </trkpt>
      <trkpt lat="36.935429" lon="-5.267970">
        <ele>616.391</ele>
        <time>2017-09-16T12:14:47Z</time>
      </trkpt>
      <trkpt lat="36.935262" lon="-5.267922">
        <ele>616.397</ele>
        <time>2017-09-16T12:14:56Z</time>
      </trkpt>
      <trkpt lat="36.935150" lon="-5.267987">
        <ele>615.818</ele>
        <time>2017-09-16T12:15:06Z</time>
      </trkpt>
      <trkpt lat="36.935170" lon="-5.267979">
        <ele>615.840</ele>
        <time>2017-09-16T12:15:19Z</time>
      </trkpt>
      <trkpt lat="36.935170" lon="-5.267975">
        <ele>615.391</ele>
        <time>2017-09-16T12:15:27Z</time>
      </trkpt>
      <trkpt lat="36.935186" lon="-5.268004">
        <ele>616.381</ele>
        <time>2017-09-16T12:15:49Z</time>
      </trkpt>
      <trkpt lat="36.935221" lon="-5.268039">
        <ele>615.819</ele>
        <time>2017-09-16T12:16:25Z</time>
      </trkpt>
      <trkpt lat="36.935241" lon="-5.267993">
        <ele>616.308</ele>
        <time>2017-09-16T12:16:53Z</time>
      </trkpt>
      <trkpt lat="36.935252" lon="-5.267965">
        <ele>616.310</ele>
        <time>2017-09-16T12:17:01Z</time>
      </trkpt>
      <trkpt lat="36.935275" lon="-5.267932">
        <ele>616.348</ele>
        <time>2017-09-16T12:17:04Z</time>
      </trkpt>
      <trkpt lat="36.935353" lon="-5.267924">
        <ele>616.896</ele>
        <time>2017-09-16T12:17:10Z</time>
      </trkpt>
      <trkpt lat="36.935405" lon="-5.267999">
        <ele>617.364</ele>
        <time>2017-09-16T12:17:16Z</time>
      </trkpt>
      <trkpt lat="36.935458" lon="-5.267996">
        <ele>617.369</ele>
        <time>2017-09-16T12:17:20Z</time>
      </trkpt>
      <trkpt lat="36.935526" lon="-5.267982">
        <ele>617.345</ele>
        <time>2017-09-16T12:17:24Z</time>
      </trkpt>
      <trkpt lat="36.935639" lon="-5.268070">
        <ele>617.336</ele>
        <time>2017-09-16T12:17:35Z</time>
      </trkpt>
      <trkpt lat="36.935637" lon="-5.268077">
        <ele>616.868</ele>
        <time>2017-09-16T12:17:36Z</time>
      </trkpt>
      <trkpt lat="36.935659" lon="-5.268091">
        <ele>617.368</ele>
        <time>2017-09-16T12:17:59Z</time>
      </trkpt>
      <trkpt lat="36.935658" lon="-5.268080">
        <ele>617.742</ele>
        <time>2017-09-16T12:18:31Z</time>
      </trkpt>
      <trkpt lat="36.935640" lon="-5.268100">
        <ele>617.726</ele>
        <time>2017-09-16T12:19:07Z</time>
      </trkpt>
      <trkpt lat="36.935627" lon="-5.268125">
        <ele>618.208</ele>
        <time>2017-09-16T12:19:44Z</time>
      </trkpt>
      <trkpt lat="36.935645" lon="-5.268087">
        <ele>617.377</ele>
        <time>2017-09-16T12:20:19Z</time>
      </trkpt>
      <trkpt lat="36.935669" lon="-5.268060">
        <ele>617.355</ele>
        <time>2017-09-16T12:20:58Z</time>
      </trkpt>
      <trkpt lat="36.862298" lon="-5.178963">
        <ele>559.614</ele>
        <time>2021-09-19T08:11:48Z</time>
      </trkpt>
      <trkpt lat="36.862298" lon="-5.178961">
        <ele>559.654</ele>
        <time>2021-09-19T08:11:49Z</time>
      </trkpt>
      <trkpt lat="36.862312" lon="-5.179076">
        <ele>559.609</ele>
        <time>2021-09-19T08:11:57Z</time>
      </trkpt>
      <trkpt lat="36.862318" lon="-5.179108">
        <ele>559.608</ele>
        <time>2021-09-19T08:11:59Z</time>
      </trkpt>
      <trkpt lat="36.862320" lon="-5.179158">
        <ele>559.699</ele>
        <time>2021-09-19T08:12:01Z</time>
      </trkpt>
      <trkpt lat="36.862321" lon="-5.179233">
        <ele>560.015</ele>
        <time>2021-09-19T08:12:04Z</time>
      </trkpt>
      <trkpt lat="36.862336" lon="-5.179308">
        <ele>560.663</ele>
        <time>2021-09-19T08:12:07Z</time>
      </trkpt>
      <trkpt lat="36.862365" lon="-5.179375">
        <ele>561.215</ele>
        <time>2021-09-19T08:12:10Z</time>
      </trkpt>
      <trkpt lat="36.862395" lon="-5.179410">
        <ele>561.428</ele>
        <time>2021-09-19T08:12:12Z</time>
      </trkpt>
      <trkpt lat="36.862471" lon="-5.179483">
        <ele>562.294</ele>
        <time>2021-09-19T08:12:17Z</time>
      </trkpt>
      <trkpt lat="36.862487" lon="-5.179492">
        <ele>562.427</ele>
        <time>2021-09-19T08:12:18Z</time>
      </trkpt>
      <trkpt lat="36.862543" lon="-5.179483">
        <ele>563.014</ele>
        <time>2021-09-19T08:12:22Z</time>
      </trkpt>
      <trkpt lat="36.862530" lon="-5.179458">
        <ele>563.436</ele>
        <time>2021-09-19T08:12:24Z</time>
      </trkpt>
      <trkpt lat="36.862525" lon="-5.179418">
        <ele>564.217</ele>
        <time>2021-09-19T08:12:26Z</time>
      </trkpt>
      <trkpt lat="36.862523" lon="-5.179398">
        <ele>564.418</ele>
        <time>2021-09-19T08:12:27Z</time>
      </trkpt>
      <trkpt lat="36.862524" lon="-5.179380">
        <ele>564.608</ele>
        <time>2021-09-19T08:12:28Z</time>
      </trkpt>
      <trkpt lat="36.862508" lon="-5.179249">
        <ele>565.251</ele>
        <time>2021-09-19T08:12:34Z</time>
      </trkpt>
      <trkpt lat="36.862485" lon="-5.179025">
        <ele>565.657</ele>
        <time>2021-09-19T08:12:40Z</time>
      </trkpt>
      <trkpt lat="36.862452" lon="-5.178749">
        <ele>565.675</ele>
        <time>2021-09-19T08:12:45Z</time>
      </trkpt>
      <trkpt lat="36.862439" lon="-5.178677">
        <ele>565.657</ele>
        <time>2021-09-19T08:12:46Z</time>
      </trkpt>
      <trkpt lat="36.862400" lon="-5.178526">
        <ele>565.690</ele>
        <time>2021-09-19T08:12:48Z</time>
      </trkpt>
      <trkpt lat="36.862366" lon="-5.178350">
        <ele>565.486</ele>
        <time>2021-09-19T08:12:50Z</time>
      </trkpt>
      <trkpt lat="36.862300" lon="-5.178012">
        <ele>563.859</ele>
        <time>2021-09-19T08:12:54Z</time>
      </trkpt>
      <trkpt lat="36.862293" lon="-5.177941">
        <ele>562.626</ele>
        <time>2021-09-19T08:12:55Z</time>
      </trkpt>
      <trkpt lat="36.862299" lon="-5.177878">
        <ele>561.829</ele>
        <time>2021-09-19T08:12:56Z</time>
      </trkpt>
      <trkpt lat="36.862321" lon="-5.177838">
        <ele>560.800</ele>
        <time>2021-09-19T08:12:57Z</time>
      </trkpt>
      <trkpt lat="36.862344" lon="-5.177809">
        <ele>559.820</ele>
        <time>2021-09-19T08:12:58Z</time>
      </trkpt>
      <trkpt lat="36.862357" lon="-5.177782">
        <ele>559.408</ele>
        <time>2021-09-19T08:12:59Z</time>
      </trkpt>
      <trkpt lat="36.862367" lon="-5.177734">
        <ele>559.010</ele>
        <time>2021-09-19T08:13:01Z</time>
      </trkpt>
      <trkpt lat="36.862419" lon="-5.177632">
        <ele>558.876</ele>
        <time>2021-09-19T08:13:07Z</time>
      </trkpt>
      <trkpt lat="36.862453" lon="-5.177516">
        <ele>560.464</ele>
        <time>2021-09-19T08:13:13Z</time>
      </trkpt>
      <trkpt lat="36.862460" lon="-5.177494">
        <ele>560.886</ele>
        <time>2021-09-19T08:13:14Z</time>
      </trkpt>
      <trkpt lat="36.862491" lon="-5.177414">
        <ele>561.869</ele>
        <time>2021-09-19T08:13:18Z</time>
      </trkpt>
      <trkpt lat="36.862522" lon="-5.177395">
        <ele>562.485</ele>
        <time>2021-09-19T08:13:20Z</time>
      </trkpt>
      <trkpt lat="36.862548" lon="-5.177401">
        <ele>563.088</ele>
        <time>2021-09-19T08:13:22Z</time>
      </trkpt>
      <trkpt lat="36.862603" lon="-5.177412">
        <ele>563.625</ele>
        <time>2021-09-19T08:13:25Z</time>
      </trkpt>
      <trkpt lat="36.862628" lon="-5.177390">
        <ele>564.042</ele>
        <time>2021-09-19T08:13:27Z</time>
      </trkpt>
      <trkpt lat="36.862670" lon="-5.177322">
        <ele>564.822</ele>
        <time>2021-09-19T08:13:31Z</time>
      </trkpt>
      <trkpt lat="36.862682" lon="-5.177306">
        <ele>565.014</ele>
        <time>2021-09-19T08:13:32Z</time>
      </trkpt>
      <trkpt lat="36.862707" lon="-5.177269">
        <ele>565.408</ele>
        <time>2021-09-19T08:13:34Z</time>
      </trkpt>
      <trkpt lat="36.862748" lon="-5.177201">
        <ele>566.282</ele>
        <time>2021-09-19T08:13:38Z</time>
      </trkpt>
      <trkpt lat="36.862758" lon="-5.177186">
        <ele>566.418</ele>
        <time>2021-09-19T08:13:39Z</time>
      </trkpt>
      <trkpt lat="36.862820" lon="-5.177104">
        <ele>567.476</ele>
        <time>2021-09-19T08:13:44Z</time>
      </trkpt>
      <trkpt lat="36.862835" lon="-5.177091">
        <ele>567.698</ele>
        <time>2021-09-19T08:13:45Z</time>
      </trkpt>
      <trkpt lat="36.862908" lon="-5.177005">
        <ele>568.661</ele>
        <time>2021-09-19T08:13:51Z</time>
      </trkpt>
      <trkpt lat="36.862973" lon="-5.176927">
        <ele>569.697</ele>
        <time>2021-09-19T08:13:56Z</time>
      </trkpt>
      <trkpt lat="36.863008" lon="-5.176878">
        <ele>570.690</ele>
        <time>2021-09-19T08:13:59Z</time>
      </trkpt>
      <trkpt lat="36.863020" lon="-5.176862">
        <ele>570.687</ele>
        <time>2021-09-19T08:14:00Z</time>
      </trkpt>
      <trkpt lat="36.863083" lon="-5.176763">
        <ele>571.419</ele>
        <time>2021-09-19T08:14:06Z</time>
      </trkpt>
      <trkpt lat="36.863108" lon="-5.176733">
        <ele>572.209</ele>
        <time>2021-09-19T08:14:08Z</time>
      </trkpt>
      <trkpt lat="36.863183" lon="-5.176655">
        <ele>573.419</ele>
        <time>2021-09-19T08:14:13Z</time>
      </trkpt>
      <trkpt lat="36.863212" lon="-5.176626">
        <ele>573.608</ele>
        <time>2021-09-19T08:14:15Z</time>
      </trkpt>
      <trkpt lat="36.863287" lon="-5.176555">
        <ele>574.439</ele>
        <time>2021-09-19T08:14:20Z</time>
      </trkpt>
      <trkpt lat="36.863343" lon="-5.176491">
        <ele>575.295</ele>
        <time>2021-09-19T08:14:24Z</time>
      </trkpt>
      <trkpt lat="36.863358" lon="-5.176477">
        <ele>575.443</ele>
        <time>2021-09-19T08:14:25Z</time>
      </trkpt>
      <trkpt lat="36.863434" lon="-5.176409">
        <ele>576.485</ele>
        <time>2021-09-19T08:14:30Z</time>
      </trkpt>
      <trkpt lat="36.863447" lon="-5.176392">
        <ele>576.628</ele>
        <time>2021-09-19T08:14:31Z</time>
      </trkpt>
      <trkpt lat="36.863512" lon="-5.176322">
        <ele>577.854</ele>
        <time>2021-09-19T08:14:36Z</time>
      </trkpt>
      <trkpt lat="36.863554" lon="-5.176266">
        <ele>578.897</ele>
        <time>2021-09-19T08:14:40Z</time>
      </trkpt>
      <trkpt lat="36.863576" lon="-5.176119">
        <ele>580.014</ele>
        <time>2021-09-19T08:14:47Z</time>
      </trkpt>
      <trkpt lat="36.863667" lon="-5.175965">
        <ele>580.671</ele>
        <time>2021-09-19T08:14:53Z</time>
      </trkpt>
      <trkpt lat="36.863806" lon="-5.175834">
        <ele>581.041</ele>
        <time>2021-09-19T08:15:00Z</time>
      </trkpt>
      <trkpt lat="36.863825" lon="-5.175816">
        <ele>581.015</ele>
        <time>2021-09-19T08:15:01Z</time>
      </trkpt>
      <trkpt lat="36.863891" lon="-5.175685">
        <ele>582.008</ele>
        <time>2021-09-19T08:15:07Z</time>
      </trkpt>
      <trkpt lat="36.863897" lon="-5.175660">
        <ele>582.285</ele>
        <time>2021-09-19T08:15:08Z</time>
      </trkpt>
      <trkpt lat="36.863925" lon="-5.175519">
        <ele>583.691</ele>
        <time>2021-09-19T08:15:13Z</time>
      </trkpt>
      <trkpt lat="36.863940" lon="-5.175465">
        <ele>584.059</ele>
        <time>2021-09-19T08:15:15Z</time>
      </trkpt>
      <trkpt lat="36.863978" lon="-5.175327">
        <ele>584.861</ele>
        <time>2021-09-19T08:15:20Z</time>
      </trkpt>
      <trkpt lat="36.864023" lon="-5.175162">
        <ele>585.874</ele>
        <time>2021-09-19T08:15:26Z</time>
      </trkpt>
      <trkpt lat="36.864028" lon="-5.175133">
        <ele>585.870</ele>
        <time>2021-09-19T08:15:27Z</time>
      </trkpt>
      <trkpt lat="36.864089" lon="-5.175054">
        <ele>586.693</ele>
        <time>2021-09-19T08:15:31Z</time>
      </trkpt>
      <trkpt lat="36.864142" lon="-5.175038">
        <ele>587.260</ele>
        <time>2021-09-19T08:15:34Z</time>
      </trkpt>
      <trkpt lat="36.864162" lon="-5.175040">
        <ele>587.285</ele>
        <time>2021-09-19T08:15:35Z</time>
      </trkpt>
      <trkpt lat="36.864181" lon="-5.175046">
        <ele>587.289</ele>
        <time>2021-09-19T08:15:36Z</time>
      </trkpt>
      <trkpt lat="36.864256" lon="-5.175074">
        <ele>588.217</ele>
        <time>2021-09-19T08:15:40Z</time>
      </trkpt>
      <trkpt lat="36.864318" lon="-5.175057">
        <ele>589.008</ele>
        <time>2021-09-19T08:15:43Z</time>
      </trkpt>
      <trkpt lat="36.864343" lon="-5.175047">
        <ele>589.266</ele>
        <time>2021-09-19T08:15:44Z</time>
      </trkpt>
      <trkpt lat="36.864513" lon="-5.174986">
        <ele>590.092</ele>
        <time>2021-09-19T08:15:49Z</time>
      </trkpt>
      <trkpt lat="36.864834" lon="-5.174884">
        <ele>590.090</ele>
        <time>2021-09-19T08:15:56Z</time>
      </trkpt>
      <trkpt lat="36.865190" lon="-5.174751">
        <ele>588.282</ele>
        <time>2021-09-19T08:16:03Z</time>
      </trkpt>
      <trkpt lat="36.865290" lon="-5.174712">
        <ele>588.025</ele>
        <time>2021-09-19T08:16:05Z</time>
      </trkpt>
      <trkpt lat="36.865707" lon="-5.174567">
        <ele>587.481</ele>
        <time>2021-09-19T08:16:13Z</time>
      </trkpt>
      <trkpt lat="36.865759" lon="-5.174548">
        <ele>587.234</ele>
        <time>2021-09-19T08:16:14Z</time>
      </trkpt>
      <trkpt lat="36.865984" lon="-5.174484">
        <ele>586.851</ele>
        <time>2021-09-19T08:16:18Z</time>
      </trkpt>
      <trkpt lat="36.866162" lon="-5.174435">
        <ele>586.863</ele>
        <time>2021-09-19T08:16:21Z</time>
      </trkpt>
      <trkpt lat="36.866628" lon="-5.174265">
        <ele>586.044</ele>
        <time>2021-09-19T08:16:29Z</time>
      </trkpt>
      <trkpt lat="36.867082" lon="-5.174137">
        <ele>585.218</ele>
        <time>2021-09-19T08:16:37Z</time>
      </trkpt>
      <trkpt lat="36.867193" lon="-5.174111">
        <ele>585.008</ele>
        <time>2021-09-19T08:16:39Z</time>
      </trkpt>
      <trkpt lat="36.867247" lon="-5.174100">
        <ele>585.024</ele>
        <time>2021-09-19T08:16:40Z</time>
      </trkpt>
      <trkpt lat="36.867657" lon="-5.174026">
        <ele>584.480</ele>
        <time>2021-09-19T08:16:48Z</time>
      </trkpt>
      <trkpt lat="36.867796" lon="-5.174019">
        <ele>584.438</ele>
        <time>2021-09-19T08:16:51Z</time>
      </trkpt>
      <trkpt lat="36.867888" lon="-5.174002">
        <ele>584.440</ele>
        <time>2021-09-19T08:16:53Z</time>
      </trkpt>
      <trkpt lat="36.868322" lon="-5.173923">
        <ele>585.233</ele>
        <time>2021-09-19T08:17:02Z</time>
      </trkpt>
      <trkpt lat="36.868866" lon="-5.173790">
        <ele>585.059</ele>
        <time>2021-09-19T08:17:13Z</time>
      </trkpt>
      <trkpt lat="36.868915" lon="-5.173778">
        <ele>585.042</ele>
        <time>2021-09-19T08:17:14Z</time>
      </trkpt>
      <trkpt lat="36.869276" lon="-5.173692">
        <ele>585.269</ele>
        <time>2021-09-19T08:17:22Z</time>
      </trkpt>
      <trkpt lat="36.869520" lon="-5.173634">
        <ele>585.819</ele>
        <time>2021-09-19T08:17:28Z</time>
      </trkpt>
      <trkpt lat="36.869601" lon="-5.173606">
        <ele>586.009</ele>
        <time>2021-09-19T08:17:30Z</time>
      </trkpt>
      <trkpt lat="36.869643" lon="-5.173596">
        <ele>586.219</ele>
        <time>2021-09-19T08:17:31Z</time>
      </trkpt>
      <trkpt lat="36.870064" lon="-5.173499">
        <ele>587.008</ele>
        <time>2021-09-19T08:17:41Z</time>
      </trkpt>
      <trkpt lat="36.870521" lon="-5.173384">
        <ele>587.489</ele>
        <time>2021-09-19T08:17:52Z</time>
      </trkpt>
      <trkpt lat="36.870671" lon="-5.173342">
        <ele>587.695</ele>
        <time>2021-09-19T08:17:56Z</time>
      </trkpt>
      <trkpt lat="36.870861" lon="-5.173270">
        <ele>587.663</ele>
        <time>2021-09-19T08:18:01Z</time>
      </trkpt>
      <trkpt lat="36.871093" lon="-5.173179">
        <ele>588.085</ele>
        <time>2021-09-19T08:18:07Z</time>
      </trkpt>
      <trkpt lat="36.871287" lon="-5.173105">
        <ele>588.078</ele>
        <time>2021-09-19T08:18:12Z</time>
      </trkpt>
      <trkpt lat="36.871597" lon="-5.172988">
        <ele>588.034</ele>
        <time>2021-09-19T08:18:19Z</time>
      </trkpt>
      <trkpt lat="36.871737" lon="-5.172932">
        <ele>588.087</ele>
        <time>2021-09-19T08:18:22Z</time>
      </trkpt>
      <trkpt lat="36.871833" lon="-5.172902">
        <ele>587.884</ele>
        <time>2021-09-19T08:18:24Z</time>
      </trkpt>
      <trkpt lat="36.871924" lon="-5.172867">
        <ele>587.814</ele>
        <time>2021-09-19T08:18:26Z</time>
      </trkpt>
      <trkpt lat="36.872049" lon="-5.172817">
        <ele>587.254</ele>
        <time>2021-09-19T08:18:29Z</time>
      </trkpt>
      <trkpt lat="36.872206" lon="-5.172756">
        <ele>587.009</ele>
        <time>2021-09-19T08:18:33Z</time>
      </trkpt>
      <trkpt lat="36.872502" lon="-5.172639">
        <ele>587.008</ele>
        <time>2021-09-19T08:18:41Z</time>
      </trkpt>
      <trkpt lat="36.872806" lon="-5.172502">
        <ele>587.069</ele>
        <time>2021-09-19T08:18:49Z</time>
      </trkpt>
      <trkpt lat="36.873110" lon="-5.172355">
        <ele>587.085</ele>
        <time>2021-09-19T08:18:56Z</time>
      </trkpt>
      <trkpt lat="36.873326" lon="-5.172244">
        <ele>587.023</ele>
        <time>2021-09-19T08:19:01Z</time>
      </trkpt>
      <trkpt lat="36.873370" lon="-5.172220">
        <ele>587.015</ele>
        <time>2021-09-19T08:19:02Z</time>
      </trkpt>
      <trkpt lat="36.873502" lon="-5.172153">
        <ele>586.868</ele>
        <time>2021-09-19T08:19:05Z</time>
      </trkpt>
      <trkpt lat="36.873856" lon="-5.171989">
        <ele>586.624</ele>
        <time>2021-09-19T08:19:13Z</time>
      </trkpt>
      <trkpt lat="36.874151" lon="-5.171847">
        <ele>586.837</ele>
        <time>2021-09-19T08:19:21Z</time>
      </trkpt>
      <trkpt lat="36.874385" lon="-5.171728">
        <ele>587.254</ele>
        <time>2021-09-19T08:19:28Z</time>
      </trkpt>
      <trkpt lat="36.874419" lon="-5.171713">
        <ele>587.481</ele>
        <time>2021-09-19T08:19:29Z</time>
      </trkpt>
      <trkpt lat="36.874578" lon="-5.171627">
        <ele>588.061</ele>
        <time>2021-09-19T08:19:34Z</time>
      </trkpt>
      <trkpt lat="36.874701" lon="-5.171569">
        <ele>589.217</ele>
        <time>2021-09-19T08:19:38Z</time>
      </trkpt>
      <trkpt lat="36.874732" lon="-5.171554">
        <ele>589.208</ele>
        <time>2021-09-19T08:19:39Z</time>
      </trkpt>
      <trkpt lat="36.874919" lon="-5.171466">
        <ele>590.496</ele>
        <time>2021-09-19T08:19:45Z</time>
      </trkpt>
      <trkpt lat="36.875044" lon="-5.171400">
        <ele>590.822</ele>
        <time>2021-09-19T08:19:49Z</time>
      </trkpt>
      <trkpt lat="36.875323" lon="-5.171255">
        <ele>591.470</ele>
        <time>2021-09-19T08:19:58Z</time>
      </trkpt>
      <trkpt lat="36.875355" lon="-5.171240">
        <ele>591.442</ele>
        <time>2021-09-19T08:19:59Z</time>
      </trkpt>
      <trkpt lat="36.875387" lon="-5.171224">
        <ele>591.455</ele>
        <time>2021-09-19T08:20:00Z</time>
      </trkpt>
      <trkpt lat="36.875675" lon="-5.171087">
        <ele>592.611</ele>
        <time>2021-09-19T08:20:09Z</time>
      </trkpt>
      <trkpt lat="36.875706" lon="-5.171068">
        <ele>592.664</ele>
        <time>2021-09-19T08:20:10Z</time>
      </trkpt>
      <trkpt lat="36.876021" lon="-5.170895">
        <ele>593.661</ele>
        <time>2021-09-19T08:20:20Z</time>
      </trkpt>
      <trkpt lat="36.876273" lon="-5.170765">
        <ele>594.418</ele>
        <time>2021-09-19T08:20:28Z</time>
      </trkpt>
      <trkpt lat="36.876365" lon="-5.170710">
        <ele>594.898</ele>
        <time>2021-09-19T08:20:31Z</time>
      </trkpt>
      <trkpt lat="36.876582" lon="-5.170580">
        <ele>595.417</ele>
        <time>2021-09-19T08:20:38Z</time>
      </trkpt>
      <trkpt lat="36.876738" lon="-5.170495">
        <ele>595.808</ele>
        <time>2021-09-19T08:20:43Z</time>
      </trkpt>
      <trkpt lat="36.876930" lon="-5.170398">
        <ele>596.459</ele>
        <time>2021-09-19T08:20:49Z</time>
      </trkpt>
      <trkpt lat="36.877164" lon="-5.170266">
        <ele>597.015</ele>
        <time>2021-09-19T08:20:57Z</time>
      </trkpt>
      <trkpt lat="36.877222" lon="-5.170240">
        <ele>597.493</ele>
        <time>2021-09-19T08:20:59Z</time>
      </trkpt>
      <trkpt lat="36.877414" lon="-5.170124">
        <ele>598.095</ele>
        <time>2021-09-19T08:21:06Z</time>
      </trkpt>
      <trkpt lat="36.877466" lon="-5.170090">
        <ele>598.228</ele>
        <time>2021-09-19T08:21:08Z</time>
      </trkpt>
      <trkpt lat="36.877732" lon="-5.169943">
        <ele>599.294</ele>
        <time>2021-09-19T08:21:18Z</time>
      </trkpt>
      <trkpt lat="36.877756" lon="-5.169926">
        <ele>599.447</ele>
        <time>2021-09-19T08:21:19Z</time>
      </trkpt>
      <trkpt lat="36.877940" lon="-5.169821">
        <ele>600.224</ele>
        <time>2021-09-19T08:21:26Z</time>
      </trkpt>
      <trkpt lat="36.878018" lon="-5.169776">
        <ele>600.676</ele>
        <time>2021-09-19T08:21:29Z</time>
      </trkpt>
      <trkpt lat="36.878178" lon="-5.169685">
        <ele>601.290</ele>
        <time>2021-09-19T08:21:35Z</time>
      </trkpt>
      <trkpt lat="36.878258" lon="-5.169642">
        <ele>601.819</ele>
        <time>2021-09-19T08:21:38Z</time>
      </trkpt>
      <trkpt lat="36.878443" lon="-5.169539">
        <ele>602.608</ele>
        <time>2021-09-19T08:21:45Z</time>
      </trkpt>
      <trkpt lat="36.878496" lon="-5.169510">
        <ele>602.855</ele>
        <time>2021-09-19T08:21:47Z</time>
      </trkpt>
      <trkpt lat="36.878521" lon="-5.169496">
        <ele>603.061</ele>
        <time>2021-09-19T08:21:48Z</time>
      </trkpt>
      <trkpt lat="36.878652" lon="-5.169421">
        <ele>603.859</ele>
        <time>2021-09-19T08:21:53Z</time>
      </trkpt>
      <trkpt lat="36.878704" lon="-5.169392">
        <ele>604.251</ele>
        <time>2021-09-19T08:21:55Z</time>
      </trkpt>
      <trkpt lat="36.878837" lon="-5.169317">
        <ele>605.014</ele>
        <time>2021-09-19T08:22:00Z</time>
      </trkpt>
      <trkpt lat="36.878945" lon="-5.169254">
        <ele>605.880</ele>
        <time>2021-09-19T08:22:04Z</time>
      </trkpt>
      <trkpt lat="36.879000" lon="-5.169223">
        <ele>606.213</ele>
        <time>2021-09-19T08:22:06Z</time>
      </trkpt>
      <trkpt lat="36.879261" lon="-5.169107">
        <ele>607.050</ele>
        <time>2021-09-19T08:22:15Z</time>
      </trkpt>
      <trkpt lat="36.879346" lon="-5.169063">
        <ele>607.472</ele>
        <time>2021-09-19T08:22:18Z</time>
      </trkpt>
      <trkpt lat="36.879534" lon="-5.168933">
        <ele>608.013</ele>
        <time>2021-09-19T08:22:25Z</time>
      </trkpt>
      <trkpt lat="36.879631" lon="-5.168839">
        <ele>608.414</ele>
        <time>2021-09-19T08:22:29Z</time>
      </trkpt>
      <trkpt lat="36.879724" lon="-5.168737">
        <ele>609.008</ele>
        <time>2021-09-19T08:22:33Z</time>
      </trkpt>
      <trkpt lat="36.879876" lon="-5.168545">
        <ele>609.445</ele>
        <time>2021-09-19T08:22:40Z</time>
      </trkpt>
      <trkpt lat="36.879897" lon="-5.168516">
        <ele>609.631</ele>
        <time>2021-09-19T08:22:41Z</time>
      </trkpt>
      <trkpt lat="36.880080" lon="-5.168252">
        <ele>610.419</ele>
        <time>2021-09-19T08:22:50Z</time>
      </trkpt>
      <trkpt lat="36.880101" lon="-5.168225">
        <ele>610.441</ele>
        <time>2021-09-19T08:22:51Z</time>
      </trkpt>
      <trkpt lat="36.880124" lon="-5.168198">
        <ele>610.654</ele>
        <time>2021-09-19T08:22:52Z</time>
      </trkpt>
      <trkpt lat="36.880275" lon="-5.168007">
        <ele>611.670</ele>
        <time>2021-09-19T08:22:59Z</time>
      </trkpt>
      <trkpt lat="36.880295" lon="-5.167979">
        <ele>611.633</ele>
        <time>2021-09-19T08:23:00Z</time>
      </trkpt>
      <trkpt lat="36.880464" lon="-5.167767">
        <ele>612.620</ele>
        <time>2021-09-19T08:23:08Z</time>
      </trkpt>
      <trkpt lat="36.880487" lon="-5.167743">
        <ele>612.821</ele>
        <time>2021-09-19T08:23:09Z</time>
      </trkpt>
      <trkpt lat="36.880678" lon="-5.167514">
        <ele>614.041</ele>
        <time>2021-09-19T08:23:18Z</time>
      </trkpt>
      <trkpt lat="36.880847" lon="-5.167303">
        <ele>615.005</ele>
        <time>2021-09-19T08:23:26Z</time>
      </trkpt>
      <trkpt lat="36.880955" lon="-5.167167">
        <ele>615.608</ele>
        <time>2021-09-19T08:23:31Z</time>
      </trkpt>
      <trkpt lat="36.881148" lon="-5.166909">
        <ele>616.080</ele>
        <time>2021-09-19T08:23:40Z</time>
      </trkpt>
      <trkpt lat="36.881285" lon="-5.166697">
        <ele>616.686</ele>
        <time>2021-09-19T08:23:47Z</time>
      </trkpt>
      <trkpt lat="36.881376" lon="-5.166543">
        <ele>617.034</ele>
        <time>2021-09-19T08:23:52Z</time>
      </trkpt>
      <trkpt lat="36.881430" lon="-5.166446">
        <ele>617.226</ele>
        <time>2021-09-19T08:23:55Z</time>
      </trkpt>
      <trkpt lat="36.881560" lon="-5.166166">
        <ele>617.699</ele>
        <time>2021-09-19T08:24:03Z</time>
      </trkpt>
      <trkpt lat="36.881648" lon="-5.165938">
        <ele>617.865</ele>
        <time>2021-09-19T08:24:09Z</time>
      </trkpt>
      <trkpt lat="36.881775" lon="-5.165621">
        <ele>618.258</ele>
        <time>2021-09-19T08:24:17Z</time>
      </trkpt>
      <trkpt lat="36.881811" lon="-5.165428">
        <ele>618.475</ele>
        <time>2021-09-19T08:24:22Z</time>
      </trkpt>
      <trkpt lat="36.881802" lon="-5.165391">
        <ele>618.416</ele>
        <time>2021-09-19T08:24:23Z</time>
      </trkpt>
      <trkpt lat="36.881787" lon="-5.165360">
        <ele>618.476</ele>
        <time>2021-09-19T08:24:24Z</time>
      </trkpt>
      <trkpt lat="36.881719" lon="-5.165279">
        <ele>618.813</ele>
        <time>2021-09-19T08:24:27Z</time>
      </trkpt>
      <trkpt lat="36.881579" lon="-5.165109">
        <ele>619.408</ele>
        <time>2021-09-19T08:24:33Z</time>
      </trkpt>
      <trkpt lat="36.881536" lon="-5.165049">
        <ele>619.669</ele>
        <time>2021-09-19T08:24:35Z</time>
      </trkpt>
      <trkpt lat="36.881335" lon="-5.164755">
        <ele>620.445</ele>
        <time>2021-09-19T08:24:44Z</time>
      </trkpt>
      <trkpt lat="36.881312" lon="-5.164721">
        <ele>620.433</ele>
        <time>2021-09-19T08:24:45Z</time>
      </trkpt>
      <trkpt lat="36.881087" lon="-5.164390">
        <ele>621.225</ele>
        <time>2021-09-19T08:24:55Z</time>
      </trkpt>
      <trkpt lat="36.880933" lon="-5.164158">
        <ele>621.898</ele>
        <time>2021-09-19T08:25:02Z</time>
      </trkpt>
      <trkpt lat="36.880843" lon="-5.164027">
        <ele>622.074</ele>
        <time>2021-09-19T08:25:06Z</time>
      </trkpt>
      <trkpt lat="36.880612" lon="-5.163657">
        <ele>622.827</ele>
        <time>2021-09-19T08:25:17Z</time>
      </trkpt>
      <trkpt lat="36.880549" lon="-5.163556">
        <ele>623.074</ele>
        <time>2021-09-19T08:25:20Z</time>
      </trkpt>
      <trkpt lat="36.880303" lon="-5.163189">
        <ele>623.615</ele>
        <time>2021-09-19T08:25:31Z</time>
      </trkpt>
      <trkpt lat="36.880281" lon="-5.163154">
        <ele>623.865</ele>
        <time>2021-09-19T08:25:32Z</time>
      </trkpt>
      <trkpt lat="36.880060" lon="-5.162805">
        <ele>624.411</ele>
        <time>2021-09-19T08:25:42Z</time>
      </trkpt>
      <trkpt lat="36.879837" lon="-5.162469">
        <ele>624.808</ele>
        <time>2021-09-19T08:25:52Z</time>
      </trkpt>
      <trkpt lat="36.879814" lon="-5.162435">
        <ele>624.879</ele>
        <time>2021-09-19T08:25:53Z</time>
      </trkpt>
      <trkpt lat="36.879592" lon="-5.162091">
        <ele>625.435</ele>
        <time>2021-09-19T08:26:03Z</time>
      </trkpt>
      <trkpt lat="36.879394" lon="-5.161778">
        <ele>626.013</ele>
        <time>2021-09-19T08:26:12Z</time>
      </trkpt>
      <trkpt lat="36.879280" lon="-5.161600">
        <ele>626.295</ele>
        <time>2021-09-19T08:26:17Z</time>
      </trkpt>
      <trkpt lat="36.879010" lon="-5.161167">
        <ele>626.898</ele>
        <time>2021-09-19T08:26:29Z</time>
      </trkpt>
      <trkpt lat="36.878708" lon="-5.160704">
        <ele>627.284</ele>
        <time>2021-09-19T08:26:42Z</time>
      </trkpt>
      <trkpt lat="36.878641" lon="-5.160600">
        <ele>627.427</ele>
        <time>2021-09-19T08:26:45Z</time>
      </trkpt>
      <trkpt lat="36.878461" lon="-5.160325">
        <ele>628.074</ele>
        <time>2021-09-19T08:26:53Z</time>
      </trkpt>
      <trkpt lat="36.878268" lon="-5.160024">
        <ele>628.498</ele>
        <time>2021-09-19T08:27:02Z</time>
      </trkpt>
      <trkpt lat="36.878248" lon="-5.159994">
        <ele>628.615</ele>
        <time>2021-09-19T08:27:03Z</time>
      </trkpt>
      <trkpt lat="36.878110" lon="-5.159776">
        <ele>629.426</ele>
        <time>2021-09-19T08:27:10Z</time>
      </trkpt>
      <trkpt lat="36.878050" lon="-5.159683">
        <ele>629.808</ele>
        <time>2021-09-19T08:27:13Z</time>
      </trkpt>
      <trkpt lat="36.877970" lon="-5.159559">
        <ele>630.447</ele>
        <time>2021-09-19T08:27:17Z</time>
      </trkpt>
      <trkpt lat="36.877826" lon="-5.159340">
        <ele>631.293</ele>
        <time>2021-09-19T08:27:24Z</time>
      </trkpt>
      <trkpt lat="36.877784" lon="-5.159277">
        <ele>631.651</ele>
        <time>2021-09-19T08:27:26Z</time>
      </trkpt>
      <trkpt lat="36.877620" lon="-5.159019">
        <ele>632.813</ele>
        <time>2021-09-19T08:27:34Z</time>
      </trkpt>
      <trkpt lat="36.877600" lon="-5.158988">
        <ele>633.016</ele>
        <time>2021-09-19T08:27:35Z</time>
      </trkpt>
      <trkpt lat="36.877465" lon="-5.158774">
        <ele>633.632</ele>
        <time>2021-09-19T08:27:42Z</time>
      </trkpt>
      <trkpt lat="36.877367" lon="-5.158620">
        <ele>634.415</ele>
        <time>2021-09-19T08:27:47Z</time>
      </trkpt>
      <trkpt lat="36.877270" lon="-5.158459">
        <ele>635.092</ele>
        <time>2021-09-19T08:27:52Z</time>
      </trkpt>
      <trkpt lat="36.877167" lon="-5.158304">
        <ele>635.636</ele>
        <time>2021-09-19T08:27:57Z</time>
      </trkpt>
      <trkpt lat="36.877124" lon="-5.158243">
        <ele>636.017</ele>
        <time>2021-09-19T08:27:59Z</time>
      </trkpt>
      <trkpt lat="36.876970" lon="-5.157993">
        <ele>637.218</ele>
        <time>2021-09-19T08:28:07Z</time>
      </trkpt>
      <trkpt lat="36.876812" lon="-5.157750">
        <ele>638.208</ele>
        <time>2021-09-19T08:28:15Z</time>
      </trkpt>
      <trkpt lat="36.876795" lon="-5.157721">
        <ele>638.241</ele>
        <time>2021-09-19T08:28:16Z</time>
      </trkpt>
      <trkpt lat="36.876655" lon="-5.157502">
        <ele>639.497</ele>
        <time>2021-09-19T08:28:24Z</time>
      </trkpt>
      <trkpt lat="36.876638" lon="-5.157474">
        <ele>639.825</ele>
        <time>2021-09-19T08:28:25Z</time>
      </trkpt>
      <trkpt lat="36.876585" lon="-5.157390">
        <ele>640.817</ele>
        <time>2021-09-19T08:28:28Z</time>
      </trkpt>
      <trkpt lat="36.876505" lon="-5.157288">
        <ele>641.490</ele>
        <time>2021-09-19T08:28:32Z</time>
      </trkpt>
      <trkpt lat="36.876360" lon="-5.157218">
        <ele>641.816</ele>
        <time>2021-09-19T08:28:37Z</time>
      </trkpt>
      <trkpt lat="36.876332" lon="-5.157203">
        <ele>641.819</ele>
        <time>2021-09-19T08:28:38Z</time>
      </trkpt>
      <trkpt lat="36.876228" lon="-5.157079">
        <ele>642.026</ele>
        <time>2021-09-19T08:28:43Z</time>
      </trkpt>
      <trkpt lat="36.876195" lon="-5.156856">
        <ele>642.412</ele>
        <time>2021-09-19T08:28:49Z</time>
      </trkpt>
      <trkpt lat="36.876113" lon="-5.156654">
        <ele>642.632</ele>
        <time>2021-09-19T08:28:55Z</time>
      </trkpt>
      <trkpt lat="36.876074" lon="-5.156593">
        <ele>642.805</ele>
        <time>2021-09-19T08:28:57Z</time>
      </trkpt>
      <trkpt lat="36.875881" lon="-5.156299">
        <ele>643.808</ele>
        <time>2021-09-19T08:29:06Z</time>
      </trkpt>
      <trkpt lat="36.875773" lon="-5.156133">
        <ele>644.239</ele>
        <time>2021-09-19T08:29:11Z</time>
      </trkpt>
      <trkpt lat="36.875645" lon="-5.155927">
        <ele>644.485</ele>
        <time>2021-09-19T08:29:17Z</time>
      </trkpt>
      <trkpt lat="36.875453" lon="-5.155620">
        <ele>645.083</ele>
        <time>2021-09-19T08:29:26Z</time>
      </trkpt>
      <trkpt lat="36.875432" lon="-5.155586">
        <ele>645.025</ele>
        <time>2021-09-19T08:29:27Z</time>
      </trkpt>
      <trkpt lat="36.875302" lon="-5.155377">
        <ele>645.288</ele>
        <time>2021-09-19T08:29:33Z</time>
      </trkpt>
      <trkpt lat="36.875194" lon="-5.155208">
        <ele>645.614</ele>
        <time>2021-09-19T08:29:38Z</time>
      </trkpt>
      <trkpt lat="36.875044" lon="-5.154980">
        <ele>646.017</ele>
        <time>2021-09-19T08:29:45Z</time>
      </trkpt>
      <trkpt lat="36.874973" lon="-5.154889">
        <ele>646.254</ele>
        <time>2021-09-19T08:29:48Z</time>
      </trkpt>
      <trkpt lat="36.874880" lon="-5.154839">
        <ele>646.685</ele>
        <time>2021-09-19T08:29:51Z</time>
      </trkpt>
      <trkpt lat="36.874613" lon="-5.154781">
        <ele>647.089</ele>
        <time>2021-09-19T08:29:57Z</time>
      </trkpt>
      <trkpt lat="36.874308" lon="-5.154668">
        <ele>647.017</ele>
        <time>2021-09-19T08:30:03Z</time>
      </trkpt>
      <trkpt lat="36.874134" lon="-5.154580">
        <ele>646.008</ele>
        <time>2021-09-19T08:30:07Z</time>
      </trkpt>
      <trkpt lat="36.874051" lon="-5.154540">
        <ele>645.816</ele>
        <time>2021-09-19T08:30:09Z</time>
      </trkpt>
      <trkpt lat="36.874013" lon="-5.154512">
        <ele>645.612</ele>
        <time>2021-09-19T08:30:10Z</time>
      </trkpt>
      <trkpt lat="36.873813" lon="-5.154379">
        <ele>645.420</ele>
        <time>2021-09-19T08:30:15Z</time>
      </trkpt>
      <trkpt lat="36.873740" lon="-5.154331">
        <ele>645.492</ele>
        <time>2021-09-19T08:30:17Z</time>
      </trkpt>
      <trkpt lat="36.873511" lon="-5.154189">
        <ele>645.435</ele>
        <time>2021-09-19T08:30:24Z</time>
      </trkpt>
      <trkpt lat="36.873399" lon="-5.154122">
        <ele>645.621</ele>
        <time>2021-09-19T08:30:29Z</time>
      </trkpt>
      <trkpt lat="36.873337" lon="-5.154070">
        <ele>646.014</ele>
        <time>2021-09-19T08:30:32Z</time>
      </trkpt>
      <trkpt lat="36.873292" lon="-5.154034">
        <ele>646.471</ele>
        <time>2021-09-19T08:30:34Z</time>
      </trkpt>
      <trkpt lat="36.873267" lon="-5.154021">
        <ele>646.693</ele>
        <time>2021-09-19T08:30:35Z</time>
      </trkpt>
      <trkpt lat="36.873182" lon="-5.153985">
        <ele>647.465</ele>
        <time>2021-09-19T08:30:38Z</time>
      </trkpt>
      <trkpt lat="36.873153" lon="-5.153973">
        <ele>647.621</ele>
        <time>2021-09-19T08:30:39Z</time>
      </trkpt>
      <trkpt lat="36.873094" lon="-5.153943">
        <ele>648.008</ele>
        <time>2021-09-19T08:30:41Z</time>
      </trkpt>
      <trkpt lat="36.873005" lon="-5.153886">
        <ele>648.697</ele>
        <time>2021-09-19T08:30:44Z</time>
      </trkpt>
      <trkpt lat="36.872890" lon="-5.153798">
        <ele>649.623</ele>
        <time>2021-09-19T08:30:48Z</time>
      </trkpt>
      <trkpt lat="36.872829" lon="-5.153754">
        <ele>649.841</ele>
        <time>2021-09-19T08:30:50Z</time>
      </trkpt>
      <trkpt lat="36.872621" lon="-5.153656">
        <ele>650.693</ele>
        <time>2021-09-19T08:30:57Z</time>
      </trkpt>
      <trkpt lat="36.872593" lon="-5.153640">
        <ele>650.856</ele>
        <time>2021-09-19T08:30:58Z</time>
      </trkpt>
      <trkpt lat="36.872400" lon="-5.153578">
        <ele>651.672</ele>
        <time>2021-09-19T08:31:04Z</time>
      </trkpt>
      <trkpt lat="36.872364" lon="-5.153576">
        <ele>651.835</ele>
        <time>2021-09-19T08:31:05Z</time>
      </trkpt>
      <trkpt lat="36.872148" lon="-5.153509">
        <ele>652.422</ele>
        <time>2021-09-19T08:31:11Z</time>
      </trkpt>
      <trkpt lat="36.871871" lon="-5.153428">
        <ele>652.611</ele>
        <time>2021-09-19T08:31:18Z</time>
      </trkpt>
      <trkpt lat="36.871781" lon="-5.153417">
        <ele>652.621</ele>
        <time>2021-09-19T08:31:20Z</time>
      </trkpt>
      <trkpt lat="36.871614" lon="-5.153362">
        <ele>652.603</ele>
        <time>2021-09-19T08:31:24Z</time>
      </trkpt>
      <trkpt lat="36.871342" lon="-5.153257">
        <ele>652.608</ele>
        <time>2021-09-19T08:31:31Z</time>
      </trkpt>
      <trkpt lat="36.871300" lon="-5.153241">
        <ele>652.689</ele>
        <time>2021-09-19T08:31:32Z</time>
      </trkpt>
      <trkpt lat="36.871090" lon="-5.153140">
        <ele>652.665</ele>
        <time>2021-09-19T08:31:37Z</time>
      </trkpt>
      <trkpt lat="36.871010" lon="-5.153100">
        <ele>652.493</ele>
        <time>2021-09-19T08:31:39Z</time>
      </trkpt>
      <trkpt lat="36.870971" lon="-5.153085">
        <ele>652.475</ele>
        <time>2021-09-19T08:31:40Z</time>
      </trkpt>
      <trkpt lat="36.870694" lon="-5.152998">
        <ele>652.418</ele>
        <time>2021-09-19T08:31:47Z</time>
      </trkpt>
      <trkpt lat="36.870375" lon="-5.152869">
        <ele>652.854</ele>
        <time>2021-09-19T08:31:55Z</time>
      </trkpt>
      <trkpt lat="36.870294" lon="-5.152829">
        <ele>652.827</ele>
        <time>2021-09-19T08:31:57Z</time>
      </trkpt>
      <trkpt lat="36.870144" lon="-5.152751">
        <ele>652.814</ele>
        <time>2021-09-19T08:32:01Z</time>
      </trkpt>
      <trkpt lat="36.869989" lon="-5.152630">
        <ele>653.078</ele>
        <time>2021-09-19T08:32:06Z</time>
      </trkpt>
      <trkpt lat="36.869911" lon="-5.152551">
        <ele>653.033</ele>
        <time>2021-09-19T08:32:09Z</time>
      </trkpt>
      <trkpt lat="36.869761" lon="-5.152447">
        <ele>653.826</ele>
        <time>2021-09-19T08:32:14Z</time>
      </trkpt>
      <trkpt lat="36.869620" lon="-5.152340">
        <ele>654.208</ele>
        <time>2021-09-19T08:32:19Z</time>
      </trkpt>
      <trkpt lat="36.869560" lon="-5.152300">
        <ele>654.265</ele>
        <time>2021-09-19T08:32:21Z</time>
      </trkpt>
      <trkpt lat="36.869341" lon="-5.152181">
        <ele>654.871</ele>
        <time>2021-09-19T08:32:28Z</time>
      </trkpt>
      <trkpt lat="36.869275" lon="-5.152146">
        <ele>655.249</ele>
        <time>2021-09-19T08:32:30Z</time>
      </trkpt>
      <trkpt lat="36.869055" lon="-5.152021">
        <ele>655.851</ele>
        <time>2021-09-19T08:32:37Z</time>
      </trkpt>
      <trkpt lat="36.868882" lon="-5.151902">
        <ele>656.294</ele>
        <time>2021-09-19T08:32:43Z</time>
      </trkpt>
      <trkpt lat="36.868857" lon="-5.151880">
        <ele>656.490</ele>
        <time>2021-09-19T08:32:44Z</time>
      </trkpt>
      <trkpt lat="36.868638" lon="-5.151708">
        <ele>657.453</ele>
        <time>2021-09-19T08:32:52Z</time>
      </trkpt>
      <trkpt lat="36.868609" lon="-5.151686">
        <ele>657.640</ele>
        <time>2021-09-19T08:32:53Z</time>
      </trkpt>
      <trkpt lat="36.868417" lon="-5.151508">
        <ele>658.457</ele>
        <time>2021-09-19T08:33:00Z</time>
      </trkpt>
      <trkpt lat="36.868217" lon="-5.151287">
        <ele>659.200</ele>
        <time>2021-09-19T08:33:08Z</time>
      </trkpt>
      <trkpt lat="36.868140" lon="-5.151201">
        <ele>659.420</ele>
        <time>2021-09-19T08:33:11Z</time>
      </trkpt>
      <trkpt lat="36.868021" lon="-5.151079">
        <ele>660.008</ele>
        <time>2021-09-19T08:33:16Z</time>
      </trkpt>
      <trkpt lat="36.867872" lon="-5.150981">
        <ele>660.413</ele>
        <time>2021-09-19T08:33:22Z</time>
      </trkpt>
      <trkpt lat="36.867776" lon="-5.150932">
        <ele>660.679</ele>
        <time>2021-09-19T08:33:25Z</time>
      </trkpt>
      <trkpt lat="36.867614" lon="-5.150830">
        <ele>661.497</ele>
        <time>2021-09-19T08:33:30Z</time>
      </trkpt>
      <trkpt lat="36.867466" lon="-5.150714">
        <ele>661.619</ele>
        <time>2021-09-19T08:33:35Z</time>
      </trkpt>
      <trkpt lat="36.867351" lon="-5.150634">
        <ele>662.022</ele>
        <time>2021-09-19T08:33:39Z</time>
      </trkpt>
      <trkpt lat="36.867224" lon="-5.150572">
        <ele>662.698</ele>
        <time>2021-09-19T08:33:43Z</time>
      </trkpt>
      <trkpt lat="36.867088" lon="-5.150534">
        <ele>663.421</ele>
        <time>2021-09-19T08:33:47Z</time>
      </trkpt>
      <trkpt lat="36.867054" lon="-5.150522">
        <ele>663.678</ele>
        <time>2021-09-19T08:33:48Z</time>
      </trkpt>
      <trkpt lat="36.866844" lon="-5.150482">
        <ele>664.442</ele>
        <time>2021-09-19T08:33:54Z</time>
      </trkpt>
      <trkpt lat="36.866607" lon="-5.150421">
        <ele>664.822</ele>
        <time>2021-09-19T08:34:01Z</time>
      </trkpt>
      <trkpt lat="36.866505" lon="-5.150385">
        <ele>665.414</ele>
        <time>2021-09-19T08:34:04Z</time>
      </trkpt>
      <trkpt lat="36.866307" lon="-5.150294">
        <ele>665.608</ele>
        <time>2021-09-19T08:34:10Z</time>
      </trkpt>
      <trkpt lat="36.866237" lon="-5.150269">
        <ele>666.082</ele>
        <time>2021-09-19T08:34:12Z</time>
      </trkpt>
      <trkpt lat="36.865949" lon="-5.150153">
        <ele>666.268</ele>
        <time>2021-09-19T08:34:20Z</time>
      </trkpt>
      <trkpt lat="36.865725" lon="-5.150097">
        <ele>666.466</ele>
        <time>2021-09-19T08:34:26Z</time>
      </trkpt>
      <trkpt lat="36.865647" lon="-5.150086">
        <ele>666.458</ele>
        <time>2021-09-19T08:34:28Z</time>
      </trkpt>
      <trkpt lat="36.865318" lon="-5.149984">
        <ele>666.671</ele>
        <time>2021-09-19T08:34:36Z</time>
      </trkpt>
      <trkpt lat="36.865155" lon="-5.149885">
        <ele>666.667</ele>
        <time>2021-09-19T08:34:40Z</time>
      </trkpt>
      <trkpt lat="36.865040" lon="-5.149791">
        <ele>666.430</ele>
        <time>2021-09-19T08:34:43Z</time>
      </trkpt>
      <trkpt lat="36.864825" lon="-5.149596">
        <ele>666.297</ele>
        <time>2021-09-19T08:34:49Z</time>
      </trkpt>
      <trkpt lat="36.864762" lon="-5.149519">
        <ele>666.037</ele>
        <time>2021-09-19T08:34:51Z</time>
      </trkpt>
      <trkpt lat="36.864732" lon="-5.149475">
        <ele>666.049</ele>
        <time>2021-09-19T08:34:52Z</time>
      </trkpt>
      <trkpt lat="36.864588" lon="-5.149249">
        <ele>665.813</ele>
        <time>2021-09-19T08:34:57Z</time>
      </trkpt>
      <trkpt lat="36.864518" lon="-5.149169">
        <ele>665.608</ele>
        <time>2021-09-19T08:34:59Z</time>
      </trkpt>
      <trkpt lat="36.864368" lon="-5.149060">
        <ele>665.421</ele>
        <time>2021-09-19T08:35:03Z</time>
      </trkpt>
      <trkpt lat="36.864249" lon="-5.149016">
        <ele>665.427</ele>
        <time>2021-09-19T08:35:06Z</time>
      </trkpt>
      <trkpt lat="36.864204" lon="-5.149014">
        <ele>665.475</ele>
        <time>2021-09-19T08:35:07Z</time>
      </trkpt>
      <trkpt lat="36.864112" lon="-5.149029">
        <ele>665.477</ele>
        <time>2021-09-19T08:35:09Z</time>
      </trkpt>
      <trkpt lat="36.863978" lon="-5.149086">
        <ele>665.210</ele>
        <time>2021-09-19T08:35:12Z</time>
      </trkpt>
      <trkpt lat="36.863801" lon="-5.149110">
        <ele>665.276</ele>
        <time>2021-09-19T08:35:17Z</time>
      </trkpt>
      <trkpt lat="36.863668" lon="-5.149094">
        <ele>665.629</ele>
        <time>2021-09-19T08:35:21Z</time>
      </trkpt>
      <trkpt lat="36.863533" lon="-5.149060">
        <ele>665.856</ele>
        <time>2021-09-19T08:35:25Z</time>
      </trkpt>
      <trkpt lat="36.863497" lon="-5.149049">
        <ele>665.857</ele>
        <time>2021-09-19T08:35:26Z</time>
      </trkpt>
      <trkpt lat="36.863301" lon="-5.148997">
        <ele>667.200</ele>
        <time>2021-09-19T08:35:32Z</time>
      </trkpt>
      <trkpt lat="36.863236" lon="-5.148978">
        <ele>667.620</ele>
        <time>2021-09-19T08:35:34Z</time>
      </trkpt>
      <trkpt lat="36.863107" lon="-5.148934">
        <ele>668.408</ele>
        <time>2021-09-19T08:35:38Z</time>
      </trkpt>
      <trkpt lat="36.862972" lon="-5.148879">
        <ele>668.863</ele>
        <time>2021-09-19T08:35:42Z</time>
      </trkpt>
      <trkpt lat="36.862658" lon="-5.148762">
        <ele>669.669</ele>
        <time>2021-09-19T08:35:51Z</time>
      </trkpt>
      <trkpt lat="36.862420" lon="-5.148668">
        <ele>669.857</ele>
        <time>2021-09-19T08:35:58Z</time>
      </trkpt>
      <trkpt lat="36.862063" lon="-5.148495">
        <ele>670.469</ele>
        <time>2021-09-19T08:36:08Z</time>
      </trkpt>
      <trkpt lat="36.861839" lon="-5.148283">
        <ele>670.482</ele>
        <time>2021-09-19T08:36:15Z</time>
      </trkpt>
      <trkpt lat="36.861804" lon="-5.148253">
        <ele>670.448</ele>
        <time>2021-09-19T08:36:16Z</time>
      </trkpt>
      <trkpt lat="36.861691" lon="-5.148179">
        <ele>670.431</ele>
        <time>2021-09-19T08:36:19Z</time>
      </trkpt>
      <trkpt lat="36.861569" lon="-5.148156">
        <ele>670.218</ele>
        <time>2021-09-19T08:36:22Z</time>
      </trkpt>
      <trkpt lat="36.861315" lon="-5.148115">
        <ele>670.274</ele>
        <time>2021-09-19T08:36:29Z</time>
      </trkpt>
      <trkpt lat="36.861052" lon="-5.148031">
        <ele>670.456</ele>
        <time>2021-09-19T08:36:36Z</time>
      </trkpt>
      <trkpt lat="36.861010" lon="-5.148022">
        <ele>670.621</ele>
        <time>2021-09-19T08:36:37Z</time>
      </trkpt>
      <trkpt lat="36.860757" lon="-5.147986">
        <ele>671.608</ele>
        <time>2021-09-19T08:36:43Z</time>
      </trkpt>
      <trkpt lat="36.860631" lon="-5.147971">
        <ele>671.815</ele>
        <time>2021-09-19T08:36:46Z</time>
      </trkpt>
      <trkpt lat="36.860341" lon="-5.147923">
        <ele>672.211</ele>
        <time>2021-09-19T08:36:53Z</time>
      </trkpt>
      <trkpt lat="36.860299" lon="-5.147923">
        <ele>672.439</ele>
        <time>2021-09-19T08:36:54Z</time>
      </trkpt>
      <trkpt lat="36.860215" lon="-5.147920">
        <ele>672.491</ele>
        <time>2021-09-19T08:36:56Z</time>
      </trkpt>
      <trkpt lat="36.860094" lon="-5.147887">
        <ele>672.674</ele>
        <time>2021-09-19T08:36:59Z</time>
      </trkpt>
      <trkpt lat="36.860055" lon="-5.147869">
        <ele>672.840</ele>
        <time>2021-09-19T08:37:00Z</time>
      </trkpt>
      <trkpt lat="36.859907" lon="-5.147781">
        <ele>673.613</ele>
        <time>2021-09-19T08:37:04Z</time>
      </trkpt>
      <trkpt lat="36.859760" lon="-5.147690">
        <ele>674.870</ele>
        <time>2021-09-19T08:37:08Z</time>
      </trkpt>
      <trkpt lat="36.859561" lon="-5.147547">
        <ele>675.457</ele>
        <time>2021-09-19T08:37:14Z</time>
      </trkpt>
      <trkpt lat="36.859496" lon="-5.147495">
        <ele>675.800</ele>
        <time>2021-09-19T08:37:16Z</time>
      </trkpt>
      <trkpt lat="36.859314" lon="-5.147419">
        <ele>676.620</ele>
        <time>2021-09-19T08:37:21Z</time>
      </trkpt>
      <trkpt lat="36.859276" lon="-5.147408">
        <ele>676.808</ele>
        <time>2021-09-19T08:37:22Z</time>
      </trkpt>
      <trkpt lat="36.859071" lon="-5.147292">
        <ele>677.623</ele>
        <time>2021-09-19T08:37:28Z</time>
      </trkpt>
      <trkpt lat="36.859015" lon="-5.147237">
        <ele>678.049</ele>
        <time>2021-09-19T08:37:30Z</time>
      </trkpt>
      <trkpt lat="36.858831" lon="-5.147101">
        <ele>678.667</ele>
        <time>2021-09-19T08:37:36Z</time>
      </trkpt>
      <trkpt lat="36.858697" lon="-5.147037">
        <ele>679.049</ele>
        <time>2021-09-19T08:37:40Z</time>
      </trkpt>
      <trkpt lat="36.858598" lon="-5.146979">
        <ele>679.852</ele>
        <time>2021-09-19T08:37:43Z</time>
      </trkpt>
      <trkpt lat="36.858478" lon="-5.146886">
        <ele>680.248</ele>
        <time>2021-09-19T08:37:47Z</time>
      </trkpt>
      <trkpt lat="36.858394" lon="-5.146804">
        <ele>680.451</ele>
        <time>2021-09-19T08:37:50Z</time>
      </trkpt>
      <trkpt lat="36.858221" lon="-5.146634">
        <ele>681.228</ele>
        <time>2021-09-19T08:37:56Z</time>
      </trkpt>
      <trkpt lat="36.858192" lon="-5.146611">
        <ele>681.226</ele>
        <time>2021-09-19T08:37:57Z</time>
      </trkpt>
      <trkpt lat="36.857996" lon="-5.146389">
        <ele>681.647</ele>
        <time>2021-09-19T08:38:04Z</time>
      </trkpt>
      <trkpt lat="36.857852" lon="-5.146218">
        <ele>681.611</ele>
        <time>2021-09-19T08:38:10Z</time>
      </trkpt>
      <trkpt lat="36.857660" lon="-5.146141">
        <ele>682.008</ele>
        <time>2021-09-19T08:38:16Z</time>
      </trkpt>
      <trkpt lat="36.857625" lon="-5.146131">
        <ele>682.210</ele>
        <time>2021-09-19T08:38:17Z</time>
      </trkpt>
      <trkpt lat="36.857448" lon="-5.146102">
        <ele>683.276</ele>
        <time>2021-09-19T08:38:22Z</time>
      </trkpt>
      <trkpt lat="36.857413" lon="-5.146104">
        <ele>683.444</ele>
        <time>2021-09-19T08:38:23Z</time>
      </trkpt>
      <trkpt lat="36.857262" lon="-5.146078">
        <ele>683.656</ele>
        <time>2021-09-19T08:38:28Z</time>
      </trkpt>
      <trkpt lat="36.857046" lon="-5.145988">
        <ele>684.699</ele>
        <time>2021-09-19T08:38:35Z</time>
      </trkpt>
      <trkpt lat="36.856906" lon="-5.145936">
        <ele>685.845</ele>
        <time>2021-09-19T08:38:39Z</time>
      </trkpt>
      <trkpt lat="36.856835" lon="-5.145908">
        <ele>686.288</ele>
        <time>2021-09-19T08:38:41Z</time>
      </trkpt>
      <trkpt lat="36.856734" lon="-5.145871">
        <ele>686.895</ele>
        <time>2021-09-19T08:38:44Z</time>
      </trkpt>
      <trkpt lat="36.856565" lon="-5.145825">
        <ele>687.877</ele>
        <time>2021-09-19T08:38:49Z</time>
      </trkpt>
      <trkpt lat="36.856531" lon="-5.145817">
        <ele>688.061</ele>
        <time>2021-09-19T08:38:50Z</time>
      </trkpt>
      <trkpt lat="36.856313" lon="-5.145715">
        <ele>688.227</ele>
        <time>2021-09-19T08:38:57Z</time>
      </trkpt>
      <trkpt lat="36.856219" lon="-5.145558">
        <ele>688.608</ele>
        <time>2021-09-19T08:39:02Z</time>
      </trkpt>
      <trkpt lat="36.856168" lon="-5.145471">
        <ele>689.015</ele>
        <time>2021-09-19T08:39:05Z</time>
      </trkpt>
      <trkpt lat="36.856123" lon="-5.145387">
        <ele>689.421</ele>
        <time>2021-09-19T08:39:08Z</time>
      </trkpt>
      <trkpt lat="36.856068" lon="-5.145280">
        <ele>690.269</ele>
        <time>2021-09-19T08:39:12Z</time>
      </trkpt>
      <trkpt lat="36.856054" lon="-5.145254">
        <ele>690.481</ele>
        <time>2021-09-19T08:39:13Z</time>
      </trkpt>
      <trkpt lat="36.856001" lon="-5.145139">
        <ele>691.234</ele>
        <time>2021-09-19T08:39:17Z</time>
      </trkpt>
      <trkpt lat="36.855960" lon="-5.145044">
        <ele>691.880</ele>
        <time>2021-09-19T08:39:20Z</time>
      </trkpt>
      <trkpt lat="36.855902" lon="-5.144928">
        <ele>692.453</ele>
        <time>2021-09-19T08:39:24Z</time>
      </trkpt>
      <trkpt lat="36.855818" lon="-5.144785">
        <ele>693.280</ele>
        <time>2021-09-19T08:39:29Z</time>
      </trkpt>
      <trkpt lat="36.855785" lon="-5.144727">
        <ele>693.658</ele>
        <time>2021-09-19T08:39:31Z</time>
      </trkpt>
      <trkpt lat="36.855687" lon="-5.144543">
        <ele>694.452</ele>
        <time>2021-09-19T08:39:37Z</time>
      </trkpt>
      <trkpt lat="36.855655" lon="-5.144481">
        <ele>694.817</ele>
        <time>2021-09-19T08:39:39Z</time>
      </trkpt>
      <trkpt lat="36.855561" lon="-5.144311">
        <ele>695.808</ele>
        <time>2021-09-19T08:39:45Z</time>
      </trkpt>
      <trkpt lat="36.855477" lon="-5.144107">
        <ele>697.043</ele>
        <time>2021-09-19T08:39:52Z</time>
      </trkpt>
      <trkpt lat="36.855468" lon="-5.144073">
        <ele>697.269</ele>
        <time>2021-09-19T08:39:53Z</time>
      </trkpt>
      <trkpt lat="36.855412" lon="-5.143848">
        <ele>698.247</ele>
        <time>2021-09-19T08:40:00Z</time>
      </trkpt>
      <trkpt lat="36.855392" lon="-5.143786">
        <ele>698.679</ele>
        <time>2021-09-19T08:40:02Z</time>
      </trkpt>
      <trkpt lat="36.855334" lon="-5.143719">
        <ele>699.252</ele>
        <time>2021-09-19T08:40:05Z</time>
      </trkpt>
      <trkpt lat="36.855306" lon="-5.143709">
        <ele>699.498</ele>
        <time>2021-09-19T08:40:06Z</time>
      </trkpt>
      <trkpt lat="36.855162" lon="-5.143712">
        <ele>700.481</ele>
        <time>2021-09-19T08:40:11Z</time>
      </trkpt>
      <trkpt lat="36.855134" lon="-5.143712">
        <ele>700.698</ele>
        <time>2021-09-19T08:40:12Z</time>
      </trkpt>
      <trkpt lat="36.855047" lon="-5.143721">
        <ele>701.649</ele>
        <time>2021-09-19T08:40:15Z</time>
      </trkpt>
      <trkpt lat="36.854889" lon="-5.143760">
        <ele>702.402</ele>
        <time>2021-09-19T08:40:20Z</time>
      </trkpt>
      <trkpt lat="36.854735" lon="-5.143778">
        <ele>702.622</ele>
        <time>2021-09-19T08:40:25Z</time>
      </trkpt>
      <trkpt lat="36.854603" lon="-5.143794">
        <ele>702.808</ele>
        <time>2021-09-19T08:40:29Z</time>
      </trkpt>
      <trkpt lat="36.854308" lon="-5.143819">
        <ele>703.662</ele>
        <time>2021-09-19T08:40:37Z</time>
      </trkpt>
      <trkpt lat="36.854236" lon="-5.143815">
        <ele>703.628</ele>
        <time>2021-09-19T08:40:39Z</time>
      </trkpt>
      <trkpt lat="36.854074" lon="-5.143780">
        <ele>704.296</ele>
        <time>2021-09-19T08:40:44Z</time>
      </trkpt>
      <trkpt lat="36.853883" lon="-5.143734">
        <ele>704.628</ele>
        <time>2021-09-19T08:40:50Z</time>
      </trkpt>
      <trkpt lat="36.853818" lon="-5.143721">
        <ele>704.811</ele>
        <time>2021-09-19T08:40:52Z</time>
      </trkpt>
      <trkpt lat="36.853611" lon="-5.143703">
        <ele>705.437</ele>
        <time>2021-09-19T08:40:59Z</time>
      </trkpt>
      <trkpt lat="36.853504" lon="-5.143764">
        <ele>705.840</ele>
        <time>2021-09-19T08:41:03Z</time>
      </trkpt>
      <trkpt lat="36.853451" lon="-5.143814">
        <ele>706.257</ele>
        <time>2021-09-19T08:41:05Z</time>
      </trkpt>
      <trkpt lat="36.853231" lon="-5.144013">
        <ele>706.659</ele>
        <time>2021-09-19T08:41:12Z</time>
      </trkpt>
      <trkpt lat="36.853154" lon="-5.144055">
        <ele>706.603</ele>
        <time>2021-09-19T08:41:14Z</time>
      </trkpt>
      <trkpt lat="36.853025" lon="-5.144073">
        <ele>706.623</ele>
        <time>2021-09-19T08:41:17Z</time>
      </trkpt>
      <trkpt lat="36.852875" lon="-5.144006">
        <ele>706.408</ele>
        <time>2021-09-19T08:41:21Z</time>
      </trkpt>
      <trkpt lat="36.852804" lon="-5.143963">
        <ele>706.493</ele>
        <time>2021-09-19T08:41:23Z</time>
      </trkpt>
      <trkpt lat="36.852569" lon="-5.143830">
        <ele>706.259</ele>
        <time>2021-09-19T08:41:29Z</time>
      </trkpt>
      <trkpt lat="36.852362" lon="-5.143737">
        <ele>706.467</ele>
        <time>2021-09-19T08:41:34Z</time>
      </trkpt>
      <trkpt lat="36.852276" lon="-5.143753">
        <ele>706.449</ele>
        <time>2021-09-19T08:41:36Z</time>
      </trkpt>
      <trkpt lat="36.852183" lon="-5.143808">
        <ele>706.282</ele>
        <time>2021-09-19T08:41:38Z</time>
      </trkpt>
      <trkpt lat="36.852075" lon="-5.143872">
        <ele>706.288</ele>
        <time>2021-09-19T08:41:40Z</time>
      </trkpt>
      <trkpt lat="36.851916" lon="-5.143954">
        <ele>706.071</ele>
        <time>2021-09-19T08:41:44Z</time>
      </trkpt>
      <trkpt lat="36.851841" lon="-5.144008">
        <ele>706.058</ele>
        <time>2021-09-19T08:41:47Z</time>
      </trkpt>
      <trkpt lat="36.851767" lon="-5.144059">
        <ele>706.046</ele>
        <time>2021-09-19T08:41:50Z</time>
      </trkpt>
      <trkpt lat="36.851630" lon="-5.144046">
        <ele>706.688</ele>
        <time>2021-09-19T08:41:54Z</time>
      </trkpt>
      <trkpt lat="36.851593" lon="-5.144019">
        <ele>707.016</ele>
        <time>2021-09-19T08:41:55Z</time>
      </trkpt>
      <trkpt lat="36.851389" lon="-5.143850">
        <ele>707.808</ele>
        <time>2021-09-19T08:42:01Z</time>
      </trkpt>
      <trkpt lat="36.851228" lon="-5.143663">
        <ele>707.832</ele>
        <time>2021-09-19T08:42:07Z</time>
      </trkpt>
      <trkpt lat="36.851117" lon="-5.143478">
        <ele>708.068</ele>
        <time>2021-09-19T08:42:13Z</time>
      </trkpt>
      <trkpt lat="36.851096" lon="-5.143447">
        <ele>708.066</ele>
        <time>2021-09-19T08:42:14Z</time>
      </trkpt>
      <trkpt lat="36.850952" lon="-5.143256">
        <ele>709.058</ele>
        <time>2021-09-19T08:42:21Z</time>
      </trkpt>
      <trkpt lat="36.850934" lon="-5.143228">
        <ele>709.221</ele>
        <time>2021-09-19T08:42:22Z</time>
      </trkpt>
      <trkpt lat="36.850830" lon="-5.143014">
        <ele>710.237</ele>
        <time>2021-09-19T08:42:29Z</time>
      </trkpt>
      <trkpt lat="36.850699" lon="-5.142941">
        <ele>711.460</ele>
        <time>2021-09-19T08:42:34Z</time>
      </trkpt>
      <trkpt lat="36.850585" lon="-5.142906">
        <ele>712.477</ele>
        <time>2021-09-19T08:42:38Z</time>
      </trkpt>
      <trkpt lat="36.850510" lon="-5.142883">
        <ele>712.687</ele>
        <time>2021-09-19T08:42:41Z</time>
      </trkpt>
      <trkpt lat="36.850383" lon="-5.142822">
        <ele>713.042</ele>
        <time>2021-09-19T08:42:47Z</time>
      </trkpt>
      <trkpt lat="36.850304" lon="-5.142767">
        <ele>713.626</ele>
        <time>2021-09-19T08:42:51Z</time>
      </trkpt>
      <trkpt lat="36.850238" lon="-5.142720">
        <ele>714.208</ele>
        <time>2021-09-19T08:42:54Z</time>
      </trkpt>
      <trkpt lat="36.850180" lon="-5.142671">
        <ele>714.856</ele>
        <time>2021-09-19T08:42:57Z</time>
      </trkpt>
      <trkpt lat="36.850144" lon="-5.142642">
        <ele>715.222</ele>
        <time>2021-09-19T08:42:59Z</time>
      </trkpt>
      <trkpt lat="36.850090" lon="-5.142608">
        <ele>715.830</ele>
        <time>2021-09-19T08:43:02Z</time>
      </trkpt>
      <trkpt lat="36.850014" lon="-5.142555">
        <ele>716.892</ele>
        <time>2021-09-19T08:43:06Z</time>
      </trkpt>
      <trkpt lat="36.849994" lon="-5.142538">
        <ele>717.085</ele>
        <time>2021-09-19T08:43:07Z</time>
      </trkpt>
      <trkpt lat="36.849904" lon="-5.142466">
        <ele>718.061</ele>
        <time>2021-09-19T08:43:12Z</time>
      </trkpt>
      <trkpt lat="36.849886" lon="-5.142452">
        <ele>718.494</ele>
        <time>2021-09-19T08:43:13Z</time>
      </trkpt>
      <trkpt lat="36.849795" lon="-5.142388">
        <ele>719.211</ele>
        <time>2021-09-19T08:43:18Z</time>
      </trkpt>
      <trkpt lat="36.849754" lon="-5.142362">
        <ele>719.855</ele>
        <time>2021-09-19T08:43:20Z</time>
      </trkpt>
      <trkpt lat="36.849712" lon="-5.142340">
        <ele>720.207</ele>
        <time>2021-09-19T08:43:22Z</time>
      </trkpt>
      <trkpt lat="36.849612" lon="-5.142292">
        <ele>721.217</ele>
        <time>2021-09-19T08:43:27Z</time>
      </trkpt>
      <trkpt lat="36.849509" lon="-5.142245">
        <ele>722.408</ele>
        <time>2021-09-19T08:43:32Z</time>
      </trkpt>
      <trkpt lat="36.849442" lon="-5.142218">
        <ele>722.673</ele>
        <time>2021-09-19T08:43:35Z</time>
      </trkpt>
      <trkpt lat="36.849338" lon="-5.142169">
        <ele>723.459</ele>
        <time>2021-09-19T08:43:40Z</time>
      </trkpt>
      <trkpt lat="36.849276" lon="-5.142141">
        <ele>724.067</ele>
        <time>2021-09-19T08:43:43Z</time>
      </trkpt>
      <trkpt lat="36.849213" lon="-5.142112">
        <ele>724.499</ele>
        <time>2021-09-19T08:43:46Z</time>
      </trkpt>
      <trkpt lat="36.849112" lon="-5.142077">
        <ele>725.452</ele>
        <time>2021-09-19T08:43:51Z</time>
      </trkpt>
      <trkpt lat="36.849091" lon="-5.142070">
        <ele>725.628</ele>
        <time>2021-09-19T08:43:52Z</time>
      </trkpt>
      <trkpt lat="36.848967" lon="-5.142027">
        <ele>726.411</ele>
        <time>2021-09-19T08:43:58Z</time>
      </trkpt>
      <trkpt lat="36.848946" lon="-5.142018">
        <ele>726.818</ele>
        <time>2021-09-19T08:43:59Z</time>
      </trkpt>
      <trkpt lat="36.848824" lon="-5.141962">
        <ele>727.817</ele>
        <time>2021-09-19T08:44:05Z</time>
      </trkpt>
      <trkpt lat="36.848803" lon="-5.141953">
        <ele>727.887</ele>
        <time>2021-09-19T08:44:06Z</time>
      </trkpt>
      <trkpt lat="36.848643" lon="-5.141892">
        <ele>728.815</ele>
        <time>2021-09-19T08:44:13Z</time>
      </trkpt>
      <trkpt lat="36.848598" lon="-5.141876">
        <ele>729.208</ele>
        <time>2021-09-19T08:44:15Z</time>
      </trkpt>
      <trkpt lat="36.848483" lon="-5.141843">
        <ele>730.049</ele>
        <time>2021-09-19T08:44:20Z</time>
      </trkpt>
      <trkpt lat="36.848344" lon="-5.141803">
        <ele>731.295</ele>
        <time>2021-09-19T08:44:26Z</time>
      </trkpt>
      <trkpt lat="36.848319" lon="-5.141797">
        <ele>731.613</ele>
        <time>2021-09-19T08:44:27Z</time>
      </trkpt>
      <trkpt lat="36.848213" lon="-5.141764">
        <ele>732.255</ele>
        <time>2021-09-19T08:44:31Z</time>
      </trkpt>
      <trkpt lat="36.848111" lon="-5.141740">
        <ele>732.648</ele>
        <time>2021-09-19T08:44:35Z</time>
      </trkpt>
      <trkpt lat="36.847972" lon="-5.141700">
        <ele>733.224</ele>
        <time>2021-09-19T08:44:40Z</time>
      </trkpt>
      <trkpt lat="36.847864" lon="-5.141667">
        <ele>733.637</ele>
        <time>2021-09-19T08:44:44Z</time>
      </trkpt>
      <trkpt lat="36.847637" lon="-5.141599">
        <ele>734.054</ele>
        <time>2021-09-19T08:44:52Z</time>
      </trkpt>
      <trkpt lat="36.847552" lon="-5.141574">
        <ele>734.432</ele>
        <time>2021-09-19T08:44:55Z</time>
      </trkpt>
      <trkpt lat="36.847446" lon="-5.141535">
        <ele>734.692</ele>
        <time>2021-09-19T08:44:59Z</time>
      </trkpt>
      <trkpt lat="36.847222" lon="-5.141454">
        <ele>735.211</ele>
        <time>2021-09-19T08:45:07Z</time>
      </trkpt>
      <trkpt lat="36.847196" lon="-5.141443">
        <ele>735.408</ele>
        <time>2021-09-19T08:45:08Z</time>
      </trkpt>
      <trkpt lat="36.846981" lon="-5.141351">
        <ele>736.211</ele>
        <time>2021-09-19T08:45:16Z</time>
      </trkpt>
      <trkpt lat="36.846929" lon="-5.141329">
        <ele>736.667</ele>
        <time>2021-09-19T08:45:18Z</time>
      </trkpt>
      <trkpt lat="36.846759" lon="-5.141254">
        <ele>737.655</ele>
        <time>2021-09-19T08:45:25Z</time>
      </trkpt>
      <trkpt lat="36.846586" lon="-5.141174">
        <ele>738.887</ele>
        <time>2021-09-19T08:45:32Z</time>
      </trkpt>
      <trkpt lat="36.846440" lon="-5.141119">
        <ele>739.830</ele>
        <time>2021-09-19T08:45:38Z</time>
      </trkpt>
      <trkpt lat="36.846418" lon="-5.141111">
        <ele>739.836</ele>
        <time>2021-09-19T08:45:39Z</time>
      </trkpt>
      <trkpt lat="36.846289" lon="-5.141048">
        <ele>740.849</ele>
        <time>2021-09-19T08:45:45Z</time>
      </trkpt>
      <trkpt lat="36.846245" lon="-5.141028">
        <ele>741.276</ele>
        <time>2021-09-19T08:45:47Z</time>
      </trkpt>
      <trkpt lat="36.846141" lon="-5.140984">
        <ele>741.895</ele>
        <time>2021-09-19T08:45:52Z</time>
      </trkpt>
      <trkpt lat="36.846063" lon="-5.140944">
        <ele>742.649</ele>
        <time>2021-09-19T08:45:56Z</time>
      </trkpt>
      <trkpt lat="36.846021" lon="-5.140930">
        <ele>742.823</ele>
        <time>2021-09-19T08:45:58Z</time>
      </trkpt>
      <trkpt lat="36.845905" lon="-5.140879">
        <ele>743.808</ele>
        <time>2021-09-19T08:46:03Z</time>
      </trkpt>
      <trkpt lat="36.845882" lon="-5.140865">
        <ele>744.037</ele>
        <time>2021-09-19T08:46:04Z</time>
      </trkpt>
      <trkpt lat="36.845764" lon="-5.140815">
        <ele>745.053</ele>
        <time>2021-09-19T08:46:09Z</time>
      </trkpt>
      <trkpt lat="36.845742" lon="-5.140804">
        <ele>744.871</ele>
        <time>2021-09-19T08:46:10Z</time>
      </trkpt>
      <trkpt lat="36.845602" lon="-5.140746">
        <ele>746.013</ele>
        <time>2021-09-19T08:46:16Z</time>
      </trkpt>
      <trkpt lat="36.845512" lon="-5.140718">
        <ele>747.456</ele>
        <time>2021-09-19T08:46:20Z</time>
      </trkpt>
      <trkpt lat="36.845424" lon="-5.140684">
        <ele>748.662</ele>
        <time>2021-09-19T08:46:24Z</time>
      </trkpt>
      <trkpt lat="36.845307" lon="-5.140666">
        <ele>749.825</ele>
        <time>2021-09-19T08:46:29Z</time>
      </trkpt>
      <trkpt lat="36.845264" lon="-5.140649">
        <ele>750.222</ele>
        <time>2021-09-19T08:46:31Z</time>
      </trkpt>
      <trkpt lat="36.845201" lon="-5.140614">
        <ele>751.039</ele>
        <time>2021-09-19T08:46:34Z</time>
      </trkpt>
      <trkpt lat="36.845110" lon="-5.140577">
        <ele>751.801</ele>
        <time>2021-09-19T08:46:38Z</time>
      </trkpt>
      <trkpt lat="36.845088" lon="-5.140566">
        <ele>752.021</ele>
        <time>2021-09-19T08:46:39Z</time>
      </trkpt>
      <trkpt lat="36.844975" lon="-5.140535">
        <ele>753.008</ele>
        <time>2021-09-19T08:46:44Z</time>
      </trkpt>
      <trkpt lat="36.844885" lon="-5.140507">
        <ele>754.291</ele>
        <time>2021-09-19T08:46:48Z</time>
      </trkpt>
      <trkpt lat="36.844818" lon="-5.140476">
        <ele>754.827</ele>
        <time>2021-09-19T08:46:51Z</time>
      </trkpt>
      <trkpt lat="36.844799" lon="-5.140466">
        <ele>755.255</ele>
        <time>2021-09-19T08:46:52Z</time>
      </trkpt>
      <trkpt lat="36.844682" lon="-5.140430">
        <ele>756.067</ele>
        <time>2021-09-19T08:46:57Z</time>
      </trkpt>
      <trkpt lat="36.844656" lon="-5.140416">
        <ele>756.230</ele>
        <time>2021-09-19T08:46:58Z</time>
      </trkpt>
      <trkpt lat="36.844525" lon="-5.140363">
        <ele>757.216</ele>
        <time>2021-09-19T08:47:03Z</time>
      </trkpt>
      <trkpt lat="36.844497" lon="-5.140351">
        <ele>757.439</ele>
        <time>2021-09-19T08:47:04Z</time>
      </trkpt>
      <trkpt lat="36.844357" lon="-5.140286">
        <ele>757.896</ele>
        <time>2021-09-19T08:47:09Z</time>
      </trkpt>
      <trkpt lat="36.844303" lon="-5.140257">
        <ele>758.012</ele>
        <time>2021-09-19T08:47:11Z</time>
      </trkpt>
      <trkpt lat="36.844277" lon="-5.140241">
        <ele>758.232</ele>
        <time>2021-09-19T08:47:12Z</time>
      </trkpt>
      <trkpt lat="36.844063" lon="-5.140134">
        <ele>759.205</ele>
        <time>2021-09-19T08:47:20Z</time>
      </trkpt>
      <trkpt lat="36.843904" lon="-5.140054">
        <ele>760.208</ele>
        <time>2021-09-19T08:47:26Z</time>
      </trkpt>
      <trkpt lat="36.843845" lon="-5.140032">
        <ele>760.269</ele>
        <time>2021-09-19T08:47:28Z</time>
      </trkpt>
      <trkpt lat="36.843714" lon="-5.139976">
        <ele>761.215</ele>
        <time>2021-09-19T08:47:33Z</time>
      </trkpt>
      <trkpt lat="36.843538" lon="-5.139919">
        <ele>762.473</ele>
        <time>2021-09-19T08:47:40Z</time>
      </trkpt>
      <trkpt lat="36.843514" lon="-5.139906">
        <ele>762.485</ele>
        <time>2021-09-19T08:47:41Z</time>
      </trkpt>
      <trkpt lat="36.843348" lon="-5.139842">
        <ele>763.848</ele>
        <time>2021-09-19T08:47:47Z</time>
      </trkpt>
      <trkpt lat="36.843171" lon="-5.139779">
        <ele>764.814</ele>
        <time>2021-09-19T08:47:53Z</time>
      </trkpt>
      <trkpt lat="36.843082" lon="-5.139745">
        <ele>765.247</ele>
        <time>2021-09-19T08:47:56Z</time>
      </trkpt>
      <trkpt lat="36.842928" lon="-5.139689">
        <ele>765.864</ele>
        <time>2021-09-19T08:48:01Z</time>
      </trkpt>
      <trkpt lat="36.842831" lon="-5.139647">
        <ele>766.262</ele>
        <time>2021-09-19T08:48:04Z</time>
      </trkpt>
      <trkpt lat="36.842634" lon="-5.139549">
        <ele>766.883</ele>
        <time>2021-09-19T08:48:10Z</time>
      </trkpt>
      <trkpt lat="36.842567" lon="-5.139519">
        <ele>767.011</ele>
        <time>2021-09-19T08:48:12Z</time>
      </trkpt>
      <trkpt lat="36.842266" lon="-5.139385">
        <ele>767.608</ele>
        <time>2021-09-19T08:48:21Z</time>
      </trkpt>
      <trkpt lat="36.842135" lon="-5.139332">
        <ele>767.844</ele>
        <time>2021-09-19T08:48:25Z</time>
      </trkpt>
      <trkpt lat="36.841970" lon="-5.139258">
        <ele>768.630</ele>
        <time>2021-09-19T08:48:30Z</time>
      </trkpt>
      <trkpt lat="36.841874" lon="-5.139205">
        <ele>769.098</ele>
        <time>2021-09-19T08:48:33Z</time>
      </trkpt>
      <trkpt lat="36.841743" lon="-5.139141">
        <ele>769.090</ele>
        <time>2021-09-19T08:48:37Z</time>
      </trkpt>
      <trkpt lat="36.841482" lon="-5.138990">
        <ele>769.663</ele>
        <time>2021-09-19T08:48:45Z</time>
      </trkpt>
      <trkpt lat="36.841350" lon="-5.138933">
        <ele>770.039</ele>
        <time>2021-09-19T08:48:49Z</time>
      </trkpt>
      <trkpt lat="36.841206" lon="-5.138871">
        <ele>770.452</ele>
        <time>2021-09-19T08:48:53Z</time>
      </trkpt>
      <trkpt lat="36.840962" lon="-5.138762">
        <ele>771.029</ele>
        <time>2021-09-19T08:49:00Z</time>
      </trkpt>
      <trkpt lat="36.840894" lon="-5.138730">
        <ele>771.072</ele>
        <time>2021-09-19T08:49:02Z</time>
      </trkpt>
      <trkpt lat="36.840624" lon="-5.138614">
        <ele>771.413</ele>
        <time>2021-09-19T08:49:10Z</time>
      </trkpt>
      <trkpt lat="36.840391" lon="-5.138492">
        <ele>772.014</ele>
        <time>2021-09-19T08:49:17Z</time>
      </trkpt>
      <trkpt lat="36.840090" lon="-5.138360">
        <ele>773.008</ele>
        <time>2021-09-19T08:49:26Z</time>
      </trkpt>
      <trkpt lat="36.840026" lon="-5.138329">
        <ele>773.245</ele>
        <time>2021-09-19T08:49:28Z</time>
      </trkpt>
      <trkpt lat="36.839910" lon="-5.138248">
        <ele>773.841</ele>
        <time>2021-09-19T08:49:32Z</time>
      </trkpt>
      <trkpt lat="36.839791" lon="-5.138181">
        <ele>774.279</ele>
        <time>2021-09-19T08:49:36Z</time>
      </trkpt>
      <trkpt lat="36.839693" lon="-5.138139">
        <ele>774.491</ele>
        <time>2021-09-19T08:49:39Z</time>
      </trkpt>
      <trkpt lat="36.839442" lon="-5.138054">
        <ele>774.684</ele>
        <time>2021-09-19T08:49:46Z</time>
      </trkpt>
      <trkpt lat="36.839165" lon="-5.137941">
        <ele>774.840</ele>
        <time>2021-09-19T08:49:53Z</time>
      </trkpt>
      <trkpt lat="36.838890" lon="-5.137830">
        <ele>775.053</ele>
        <time>2021-09-19T08:50:00Z</time>
      </trkpt>
      <trkpt lat="36.838855" lon="-5.137802">
        <ele>775.080</ele>
        <time>2021-09-19T08:50:01Z</time>
      </trkpt>
      <trkpt lat="36.838816" lon="-5.137779">
        <ele>775.083</ele>
        <time>2021-09-19T08:50:02Z</time>
      </trkpt>
      <trkpt lat="36.838694" lon="-5.137759">
        <ele>775.225</ele>
        <time>2021-09-19T08:50:05Z</time>
      </trkpt>
      <trkpt lat="36.838584" lon="-5.137693">
        <ele>775.417</ele>
        <time>2021-09-19T08:50:08Z</time>
      </trkpt>
      <trkpt lat="36.838516" lon="-5.137647">
        <ele>775.608</ele>
        <time>2021-09-19T08:50:10Z</time>
      </trkpt>
      <trkpt lat="36.838234" lon="-5.137468">
        <ele>775.826</ele>
        <time>2021-09-19T08:50:18Z</time>
      </trkpt>
      <trkpt lat="36.837925" lon="-5.137327">
        <ele>775.812</ele>
        <time>2021-09-19T08:50:25Z</time>
      </trkpt>
      <trkpt lat="36.837624" lon="-5.137292">
        <ele>775.870</ele>
        <time>2021-09-19T08:50:31Z</time>
      </trkpt>
      <trkpt lat="36.837222" lon="-5.137235">
        <ele>775.272</ele>
        <time>2021-09-19T08:50:39Z</time>
      </trkpt>
      <trkpt lat="36.836849" lon="-5.137218">
        <ele>774.425</ele>
        <time>2021-09-19T08:50:46Z</time>
      </trkpt>
      <trkpt lat="36.836780" lon="-5.137208">
        <ele>774.281</ele>
        <time>2021-09-19T08:50:47Z</time>
      </trkpt>
      <trkpt lat="36.836629" lon="-5.137182">
        <ele>774.034</ele>
        <time>2021-09-19T08:50:49Z</time>
      </trkpt>
      <trkpt lat="36.836467" lon="-5.137127">
        <ele>773.881</ele>
        <time>2021-09-19T08:50:51Z</time>
      </trkpt>
      <trkpt lat="36.836261" lon="-5.136947">
        <ele>773.268</ele>
        <time>2021-09-19T08:50:54Z</time>
      </trkpt>
      <trkpt lat="36.836208" lon="-5.136868">
        <ele>772.842</ele>
        <time>2021-09-19T08:50:55Z</time>
      </trkpt>
      <trkpt lat="36.836064" lon="-5.136630">
        <ele>771.826</ele>
        <time>2021-09-19T08:50:58Z</time>
      </trkpt>
      <trkpt lat="36.835977" lon="-5.136476">
        <ele>769.808</ele>
        <time>2021-09-19T08:51:00Z</time>
      </trkpt>
      <trkpt lat="36.835935" lon="-5.136400">
        <ele>768.674</ele>
        <time>2021-09-19T08:51:01Z</time>
      </trkpt>
      <trkpt lat="36.835853" lon="-5.136250">
        <ele>766.890</ele>
        <time>2021-09-19T08:51:03Z</time>
      </trkpt>
      <trkpt lat="36.835769" lon="-5.136104">
        <ele>765.868</ele>
        <time>2021-09-19T08:51:05Z</time>
      </trkpt>
      <trkpt lat="36.835645" lon="-5.135888">
        <ele>765.250</ele>
        <time>2021-09-19T08:51:08Z</time>
      </trkpt>
      <trkpt lat="36.835569" lon="-5.135741">
        <ele>764.853</ele>
        <time>2021-09-19T08:51:10Z</time>
      </trkpt>
      <trkpt lat="36.835353" lon="-5.135311">
        <ele>764.459</ele>
        <time>2021-09-19T08:51:16Z</time>
      </trkpt>
      <trkpt lat="36.835118" lon="-5.134810">
        <ele>763.612</ele>
        <time>2021-09-19T08:51:23Z</time>
      </trkpt>
      <trkpt lat="36.835016" lon="-5.134595">
        <ele>763.259</ele>
        <time>2021-09-19T08:51:26Z</time>
      </trkpt>
      <trkpt lat="36.834844" lon="-5.134155">
        <ele>762.884</ele>
        <time>2021-09-19T08:51:32Z</time>
      </trkpt>
      <trkpt lat="36.834800" lon="-5.134001">
        <ele>762.807</ele>
        <time>2021-09-19T08:51:34Z</time>
      </trkpt>
      <trkpt lat="36.834711" lon="-5.133690">
        <ele>762.617</ele>
        <time>2021-09-19T08:51:38Z</time>
      </trkpt>
      <trkpt lat="36.834649" lon="-5.133450">
        <ele>762.208</ele>
        <time>2021-09-19T08:51:41Z</time>
      </trkpt>
      <trkpt lat="36.834504" lon="-5.132984">
        <ele>761.666</ele>
        <time>2021-09-19T08:51:47Z</time>
      </trkpt>
      <trkpt lat="36.834480" lon="-5.132907">
        <ele>761.482</ele>
        <time>2021-09-19T08:51:48Z</time>
      </trkpt>
      <trkpt lat="36.834438" lon="-5.132753">
        <ele>761.240</ele>
        <time>2021-09-19T08:51:50Z</time>
      </trkpt>
      <trkpt lat="36.834410" lon="-5.132512">
        <ele>761.032</ele>
        <time>2021-09-19T08:51:53Z</time>
      </trkpt>
      <trkpt lat="36.834347" lon="-5.131875">
        <ele>760.465</ele>
        <time>2021-09-19T08:52:01Z</time>
      </trkpt>
      <trkpt lat="36.834293" lon="-5.131252">
        <ele>759.221</ele>
        <time>2021-09-19T08:52:09Z</time>
      </trkpt>
      <trkpt lat="36.834270" lon="-5.131017">
        <ele>758.894</ele>
        <time>2021-09-19T08:52:12Z</time>
      </trkpt>
      <trkpt lat="36.834222" lon="-5.130317">
        <ele>758.211</ele>
        <time>2021-09-19T08:52:21Z</time>
      </trkpt>
      <trkpt lat="36.834217" lon="-5.130163">
        <ele>758.028</ele>
        <time>2021-09-19T08:52:23Z</time>
      </trkpt>
      <trkpt lat="36.834181" lon="-5.129631">
        <ele>757.489</ele>
        <time>2021-09-19T08:52:30Z</time>
      </trkpt>
      <trkpt lat="36.834072" lon="-5.129051">
        <ele>757.217</ele>
        <time>2021-09-19T08:52:37Z</time>
      </trkpt>
      <trkpt lat="36.834048" lon="-5.128874">
        <ele>757.208</ele>
        <time>2021-09-19T08:52:39Z</time>
      </trkpt>
      <trkpt lat="36.833972" lon="-5.128251">
        <ele>756.240</ele>
        <time>2021-09-19T08:52:46Z</time>
      </trkpt>
      <trkpt lat="36.833826" lon="-5.127696">
        <ele>755.686</ele>
        <time>2021-09-19T08:52:52Z</time>
      </trkpt>
      <trkpt lat="36.833690" lon="-5.127361">
        <ele>754.224</ele>
        <time>2021-09-19T08:52:56Z</time>
      </trkpt>
      <trkpt lat="36.833650" lon="-5.127284">
        <ele>753.096</ele>
        <time>2021-09-19T08:52:57Z</time>
      </trkpt>
      <trkpt lat="36.833608" lon="-5.127211">
        <ele>752.229</ele>
        <time>2021-09-19T08:52:58Z</time>
      </trkpt>
      <trkpt lat="36.833565" lon="-5.127138">
        <ele>751.845</ele>
        <time>2021-09-19T08:52:59Z</time>
      </trkpt>
      <trkpt lat="36.833325" lon="-5.126803">
        <ele>750.638</ele>
        <time>2021-09-19T08:53:04Z</time>
      </trkpt>
      <trkpt lat="36.833274" lon="-5.126743">
        <ele>750.475</ele>
        <time>2021-09-19T08:53:05Z</time>
      </trkpt>
      <trkpt lat="36.832938" lon="-5.126336">
        <ele>749.824</ele>
        <time>2021-09-19T08:53:12Z</time>
      </trkpt>
      <trkpt lat="36.832796" lon="-5.126196">
        <ele>749.804</ele>
        <time>2021-09-19T08:53:15Z</time>
      </trkpt>
      <trkpt lat="36.832691" lon="-5.126135">
        <ele>749.814</ele>
        <time>2021-09-19T08:53:17Z</time>
      </trkpt>
      <trkpt lat="36.832470" lon="-5.126096">
        <ele>749.808</ele>
        <time>2021-09-19T08:53:21Z</time>
      </trkpt>
      <trkpt lat="36.832417" lon="-5.126093">
        <ele>749.860</ele>
        <time>2021-09-19T08:53:22Z</time>
      </trkpt>
      <trkpt lat="36.832131" lon="-5.126071">
        <ele>750.026</ele>
        <time>2021-09-19T08:53:28Z</time>
      </trkpt>
      <trkpt lat="36.831932" lon="-5.126067">
        <ele>750.264</ele>
        <time>2021-09-19T08:53:33Z</time>
      </trkpt>
      <trkpt lat="36.831861" lon="-5.126054">
        <ele>750.686</ele>
        <time>2021-09-19T08:53:35Z</time>
      </trkpt>
      <trkpt lat="36.831761" lon="-5.126023">
        <ele>751.269</ele>
        <time>2021-09-19T08:53:38Z</time>
      </trkpt>
      <trkpt lat="36.831662" lon="-5.125979">
        <ele>751.685</ele>
        <time>2021-09-19T08:53:41Z</time>
      </trkpt>
      <trkpt lat="36.831594" lon="-5.125947">
        <ele>752.018</ele>
        <time>2021-09-19T08:53:43Z</time>
      </trkpt>
      <trkpt lat="36.831498" lon="-5.125894">
        <ele>752.875</ele>
        <time>2021-09-19T08:53:46Z</time>
      </trkpt>
      <trkpt lat="36.831378" lon="-5.125816">
        <ele>753.611</ele>
        <time>2021-09-19T08:53:50Z</time>
      </trkpt>
      <trkpt lat="36.831348" lon="-5.125795">
        <ele>753.821</ele>
        <time>2021-09-19T08:53:51Z</time>
      </trkpt>
      <trkpt lat="36.831147" lon="-5.125626">
        <ele>755.003</ele>
        <time>2021-09-19T08:53:58Z</time>
      </trkpt>
      <trkpt lat="36.831062" lon="-5.125538">
        <ele>755.208</ele>
        <time>2021-09-19T08:54:01Z</time>
      </trkpt>
      <trkpt lat="36.830845" lon="-5.125249">
        <ele>755.669</ele>
        <time>2021-09-19T08:54:09Z</time>
      </trkpt>
      <trkpt lat="36.830630" lon="-5.124846">
        <ele>755.865</ele>
        <time>2021-09-19T08:54:17Z</time>
      </trkpt>
      <trkpt lat="36.830431" lon="-5.124453">
        <ele>755.413</ele>
        <time>2021-09-19T08:54:24Z</time>
      </trkpt>
      <trkpt lat="36.830375" lon="-5.124358">
        <ele>755.285</ele>
        <time>2021-09-19T08:54:26Z</time>
      </trkpt>
      <trkpt lat="36.830249" lon="-5.124126">
        <ele>755.048</ele>
        <time>2021-09-19T08:54:32Z</time>
      </trkpt>
      <trkpt lat="36.830122" lon="-5.123764">
        <ele>756.014</ele>
        <time>2021-09-19T08:54:41Z</time>
      </trkpt>
      <trkpt lat="36.830074" lon="-5.123604">
        <ele>757.047</ele>
        <time>2021-09-19T08:54:45Z</time>
      </trkpt>
      <trkpt lat="36.830006" lon="-5.123359">
        <ele>758.244</ele>
        <time>2021-09-19T08:54:51Z</time>
      </trkpt>
      <trkpt lat="36.829908" lon="-5.123134">
        <ele>758.431</ele>
        <time>2021-09-19T08:54:55Z</time>
      </trkpt>
      <trkpt lat="36.829701" lon="-5.122885">
        <ele>758.461</ele>
        <time>2021-09-19T08:55:00Z</time>
      </trkpt>
      <trkpt lat="36.829487" lon="-5.122761">
        <ele>757.807</ele>
        <time>2021-09-19T08:55:04Z</time>
      </trkpt>
      <trkpt lat="36.829429" lon="-5.122741">
        <ele>757.608</ele>
        <time>2021-09-19T08:55:05Z</time>
      </trkpt>
      <trkpt lat="36.829251" lon="-5.122701">
        <ele>757.481</ele>
        <time>2021-09-19T08:55:08Z</time>
      </trkpt>
      <trkpt lat="36.829058" lon="-5.122695">
        <ele>757.257</ele>
        <time>2021-09-19T08:55:11Z</time>
      </trkpt>
      <trkpt lat="36.828789" lon="-5.122700">
        <ele>756.695</ele>
        <time>2021-09-19T08:55:15Z</time>
      </trkpt>
      <trkpt lat="36.828515" lon="-5.122724">
        <ele>755.817</ele>
        <time>2021-09-19T08:55:19Z</time>
      </trkpt>
      <trkpt lat="36.828299" lon="-5.122739">
        <ele>755.680</ele>
        <time>2021-09-19T08:55:22Z</time>
      </trkpt>
      <trkpt lat="36.828073" lon="-5.122745">
        <ele>755.216</ele>
        <time>2021-09-19T08:55:25Z</time>
      </trkpt>
      <trkpt lat="36.827757" lon="-5.122741">
        <ele>754.649</ele>
        <time>2021-09-19T08:55:29Z</time>
      </trkpt>
      <trkpt lat="36.827532" lon="-5.122727">
        <ele>753.416</ele>
        <time>2021-09-19T08:55:32Z</time>
      </trkpt>
      <trkpt lat="36.827385" lon="-5.122712">
        <ele>753.094</ele>
        <time>2021-09-19T08:55:34Z</time>
      </trkpt>
      <trkpt lat="36.827012" lon="-5.122679">
        <ele>752.457</ele>
        <time>2021-09-19T08:55:39Z</time>
      </trkpt>
      <trkpt lat="36.826791" lon="-5.122651">
        <ele>751.822</ele>
        <time>2021-09-19T08:55:42Z</time>
      </trkpt>
      <trkpt lat="36.826497" lon="-5.122614">
        <ele>751.408</ele>
        <time>2021-09-19T08:55:46Z</time>
      </trkpt>
      <trkpt lat="36.826125" lon="-5.122568">
        <ele>751.237</ele>
        <time>2021-09-19T08:55:51Z</time>
      </trkpt>
      <trkpt lat="36.825738" lon="-5.122525">
        <ele>750.253</ele>
        <time>2021-09-19T08:55:56Z</time>
      </trkpt>
      <trkpt lat="36.825422" lon="-5.122488">
        <ele>749.661</ele>
        <time>2021-09-19T08:56:00Z</time>
      </trkpt>
      <trkpt lat="36.825260" lon="-5.122472">
        <ele>749.263</ele>
        <time>2021-09-19T08:56:02Z</time>
      </trkpt>
      <trkpt lat="36.824852" lon="-5.122426">
        <ele>748.056</ele>
        <time>2021-09-19T08:56:07Z</time>
      </trkpt>
      <trkpt lat="36.824693" lon="-5.122408">
        <ele>746.652</ele>
        <time>2021-09-19T08:56:09Z</time>
      </trkpt>
      <trkpt lat="36.824371" lon="-5.122367">
        <ele>745.685</ele>
        <time>2021-09-19T08:56:13Z</time>
      </trkpt>
      <trkpt lat="36.823973" lon="-5.122319">
        <ele>744.412</ele>
        <time>2021-09-19T08:56:18Z</time>
      </trkpt>
      <trkpt lat="36.823425" lon="-5.122247">
        <ele>743.457</ele>
        <time>2021-09-19T08:56:25Z</time>
      </trkpt>
      <trkpt lat="36.823347" lon="-5.122237">
        <ele>743.400</ele>
        <time>2021-09-19T08:56:26Z</time>
      </trkpt>
      <trkpt lat="36.823192" lon="-5.122211">
        <ele>743.020</ele>
        <time>2021-09-19T08:56:28Z</time>
      </trkpt>
      <trkpt lat="36.822814" lon="-5.122152">
        <ele>742.208</ele>
        <time>2021-09-19T08:56:33Z</time>
      </trkpt>
      <trkpt lat="36.822519" lon="-5.122109">
        <ele>741.643</ele>
        <time>2021-09-19T08:56:37Z</time>
      </trkpt>
      <trkpt lat="36.822144" lon="-5.122009">
        <ele>741.449</ele>
        <time>2021-09-19T08:56:42Z</time>
      </trkpt>
      <trkpt lat="36.821744" lon="-5.121926">
        <ele>741.477</ele>
        <time>2021-09-19T08:56:48Z</time>
      </trkpt>
      <trkpt lat="36.821267" lon="-5.121873">
        <ele>741.459</ele>
        <time>2021-09-19T08:56:55Z</time>
      </trkpt>
      <trkpt lat="36.820734" lon="-5.121777">
        <ele>741.272</ele>
        <time>2021-09-19T08:57:03Z</time>
      </trkpt>
      <trkpt lat="36.820670" lon="-5.121757">
        <ele>741.298</ele>
        <time>2021-09-19T08:57:04Z</time>
      </trkpt>
      <trkpt lat="36.820295" lon="-5.121586">
        <ele>740.891</ele>
        <time>2021-09-19T08:57:10Z</time>
      </trkpt>
      <trkpt lat="36.820111" lon="-5.121497">
        <ele>739.838</ele>
        <time>2021-09-19T08:57:13Z</time>
      </trkpt>
      <trkpt lat="36.819869" lon="-5.121366">
        <ele>738.892</ele>
        <time>2021-09-19T08:57:17Z</time>
      </trkpt>
      <trkpt lat="36.819812" lon="-5.121328">
        <ele>738.873</ele>
        <time>2021-09-19T08:57:18Z</time>
      </trkpt>
      <trkpt lat="36.819368" lon="-5.120996">
        <ele>738.420</ele>
        <time>2021-09-19T08:57:26Z</time>
      </trkpt>
      <trkpt lat="36.819010" lon="-5.120657">
        <ele>739.008</ele>
        <time>2021-09-19T08:57:33Z</time>
      </trkpt>
      <trkpt lat="36.818878" lon="-5.120482">
        <ele>739.637</ele>
        <time>2021-09-19T08:57:36Z</time>
      </trkpt>
      <trkpt lat="36.818726" lon="-5.120228">
        <ele>739.853</ele>
        <time>2021-09-19T08:57:40Z</time>
      </trkpt>
      <trkpt lat="36.818457" lon="-5.119716">
        <ele>739.891</ele>
        <time>2021-09-19T08:57:48Z</time>
      </trkpt>
      <trkpt lat="36.818155" lon="-5.119258">
        <ele>739.663</ele>
        <time>2021-09-19T08:57:56Z</time>
      </trkpt>
      <trkpt lat="36.817853" lon="-5.118823">
        <ele>739.066</ele>
        <time>2021-09-19T08:58:03Z</time>
      </trkpt>
      <trkpt lat="36.817743" lon="-5.118691">
        <ele>739.062</ele>
        <time>2021-09-19T08:58:05Z</time>
      </trkpt>
      <trkpt lat="36.817622" lon="-5.118557">
        <ele>738.645</ele>
        <time>2021-09-19T08:58:07Z</time>
      </trkpt>
      <trkpt lat="36.817559" lon="-5.118489">
        <ele>738.232</ele>
        <time>2021-09-19T08:58:08Z</time>
      </trkpt>
      <trkpt lat="36.817497" lon="-5.118419">
        <ele>737.811</ele>
        <time>2021-09-19T08:58:09Z</time>
      </trkpt>
      <trkpt lat="36.817316" lon="-5.118218">
        <ele>737.021</ele>
        <time>2021-09-19T08:58:12Z</time>
      </trkpt>
      <trkpt lat="36.817205" lon="-5.118098">
        <ele>735.003</ele>
        <time>2021-09-19T08:58:14Z</time>
      </trkpt>
      <trkpt lat="36.817152" lon="-5.118043">
        <ele>734.008</ele>
        <time>2021-09-19T08:58:15Z</time>
      </trkpt>
      <trkpt lat="36.817100" lon="-5.117991">
        <ele>733.439</ele>
        <time>2021-09-19T08:58:16Z</time>
      </trkpt>
      <trkpt lat="36.816902" lon="-5.117814">
        <ele>733.035</ele>
        <time>2021-09-19T08:58:20Z</time>
      </trkpt>
      <trkpt lat="36.816812" lon="-5.117737">
        <ele>733.043</ele>
        <time>2021-09-19T08:58:22Z</time>
      </trkpt>
      <trkpt lat="36.816613" lon="-5.117627">
        <ele>733.265</ele>
        <time>2021-09-19T08:58:27Z</time>
      </trkpt>
      <trkpt lat="36.816509" lon="-5.117577">
        <ele>734.058</ele>
        <time>2021-09-19T08:58:30Z</time>
      </trkpt>
      <trkpt lat="36.816423" lon="-5.117512">
        <ele>735.264</ele>
        <time>2021-09-19T08:58:33Z</time>
      </trkpt>
      <trkpt lat="36.816376" lon="-5.117458">
        <ele>735.497</ele>
        <time>2021-09-19T08:58:35Z</time>
      </trkpt>
      <trkpt lat="36.816316" lon="-5.117374">
        <ele>736.224</ele>
        <time>2021-09-19T08:58:38Z</time>
      </trkpt>
      <trkpt lat="36.816282" lon="-5.117311">
        <ele>736.864</ele>
        <time>2021-09-19T08:58:40Z</time>
      </trkpt>
      <trkpt lat="36.816266" lon="-5.117281">
        <ele>737.206</ele>
        <time>2021-09-19T08:58:41Z</time>
      </trkpt>
      <trkpt lat="36.816197" lon="-5.117166">
        <ele>738.416</ele>
        <time>2021-09-19T08:58:45Z</time>
      </trkpt>
      <trkpt lat="36.816125" lon="-5.117109">
        <ele>739.408</ele>
        <time>2021-09-19T08:58:48Z</time>
      </trkpt>
      <trkpt lat="36.816097" lon="-5.117099">
        <ele>739.874</ele>
        <time>2021-09-19T08:58:49Z</time>
      </trkpt>
      <trkpt lat="36.815979" lon="-5.117092">
        <ele>740.820</ele>
        <time>2021-09-19T08:58:53Z</time>
      </trkpt>
      <trkpt lat="36.815948" lon="-5.117102">
        <ele>741.248</ele>
        <time>2021-09-19T08:58:54Z</time>
      </trkpt>
      <trkpt lat="36.815857" lon="-5.117169">
        <ele>742.060</ele>
        <time>2021-09-19T08:58:57Z</time>
      </trkpt>
      <trkpt lat="36.815790" lon="-5.117226">
        <ele>743.083</ele>
        <time>2021-09-19T08:58:59Z</time>
      </trkpt>
      <trkpt lat="36.815754" lon="-5.117255">
        <ele>743.299</ele>
        <time>2021-09-19T08:59:00Z</time>
      </trkpt>
      <trkpt lat="36.815498" lon="-5.117447">
        <ele>743.432</ele>
        <time>2021-09-19T08:59:06Z</time>
      </trkpt>
      <trkpt lat="36.815447" lon="-5.117480">
        <ele>743.449</ele>
        <time>2021-09-19T08:59:07Z</time>
      </trkpt>
      <trkpt lat="36.815264" lon="-5.117523">
        <ele>743.499</ele>
        <time>2021-09-19T08:59:10Z</time>
      </trkpt>
      <trkpt lat="36.815049" lon="-5.117464">
        <ele>743.007</ele>
        <time>2021-09-19T08:59:13Z</time>
      </trkpt>
      <trkpt lat="36.814915" lon="-5.117380">
        <ele>742.627</ele>
        <time>2021-09-19T08:59:15Z</time>
      </trkpt>
      <trkpt lat="36.814732" lon="-5.117236">
        <ele>741.808</ele>
        <time>2021-09-19T08:59:18Z</time>
      </trkpt>
      <trkpt lat="36.814567" lon="-5.117096">
        <ele>740.847</ele>
        <time>2021-09-19T08:59:21Z</time>
      </trkpt>
      <trkpt lat="36.814376" lon="-5.116912">
        <ele>739.873</ele>
        <time>2021-09-19T08:59:25Z</time>
      </trkpt>
      <trkpt lat="36.814330" lon="-5.116867">
        <ele>739.621</ele>
        <time>2021-09-19T08:59:26Z</time>
      </trkpt>
      <trkpt lat="36.814149" lon="-5.116694">
        <ele>739.623</ele>
        <time>2021-09-19T08:59:30Z</time>
      </trkpt>
      <trkpt lat="36.814053" lon="-5.116615">
        <ele>739.646</ele>
        <time>2021-09-19T08:59:32Z</time>
      </trkpt>
      <trkpt lat="36.813952" lon="-5.116558">
        <ele>739.892</ele>
        <time>2021-09-19T08:59:34Z</time>
      </trkpt>
      <trkpt lat="36.813845" lon="-5.116521">
        <ele>739.825</ele>
        <time>2021-09-19T08:59:36Z</time>
      </trkpt>
      <trkpt lat="36.813571" lon="-5.116451">
        <ele>739.822</ele>
        <time>2021-09-19T08:59:41Z</time>
      </trkpt>
      <trkpt lat="36.813034" lon="-5.116330">
        <ele>740.073</ele>
        <time>2021-09-19T08:59:51Z</time>
      </trkpt>
      <trkpt lat="36.812540" lon="-5.116189">
        <ele>740.085</ele>
        <time>2021-09-19T09:00:00Z</time>
      </trkpt>
      <trkpt lat="36.812116" lon="-5.116012">
        <ele>739.213</ele>
        <time>2021-09-19T09:00:08Z</time>
      </trkpt>
      <trkpt lat="36.811685" lon="-5.115740">
        <ele>739.008</ele>
        <time>2021-09-19T09:00:17Z</time>
      </trkpt>
      <trkpt lat="36.811345" lon="-5.115449">
        <ele>740.095</ele>
        <time>2021-09-19T09:00:25Z</time>
      </trkpt>
      <trkpt lat="36.810978" lon="-5.115086">
        <ele>740.691</ele>
        <time>2021-09-19T09:00:35Z</time>
      </trkpt>
      <trkpt lat="36.810860" lon="-5.114970">
        <ele>740.639</ele>
        <time>2021-09-19T09:00:38Z</time>
      </trkpt>
      <trkpt lat="36.810646" lon="-5.114749">
        <ele>740.611</ele>
        <time>2021-09-19T09:00:43Z</time>
      </trkpt>
      <trkpt lat="36.810285" lon="-5.114373">
        <ele>740.894</ele>
        <time>2021-09-19T09:00:52Z</time>
      </trkpt>
      <trkpt lat="36.809979" lon="-5.114076">
        <ele>740.670</ele>
        <time>2021-09-19T09:00:59Z</time>
      </trkpt>
      <trkpt lat="36.809618" lon="-5.113767">
        <ele>739.653</ele>
        <time>2021-09-19T09:01:06Z</time>
      </trkpt>
      <trkpt lat="36.809517" lon="-5.113691">
        <ele>738.850</ele>
        <time>2021-09-19T09:01:08Z</time>
      </trkpt>
      <trkpt lat="36.809466" lon="-5.113659">
        <ele>738.424</ele>
        <time>2021-09-19T09:01:09Z</time>
      </trkpt>
      <trkpt lat="36.809304" lon="-5.113619">
        <ele>738.004</ele>
        <time>2021-09-19T09:01:12Z</time>
      </trkpt>
      <trkpt lat="36.809199" lon="-5.113594">
        <ele>738.014</ele>
        <time>2021-09-19T09:01:14Z</time>
      </trkpt>
      <trkpt lat="36.809109" lon="-5.113531">
        <ele>737.808</ele>
        <time>2021-09-19T09:01:16Z</time>
      </trkpt>
      <trkpt lat="36.809001" lon="-5.113318">
        <ele>738.020</ele>
        <time>2021-09-19T09:01:20Z</time>
      </trkpt>
      <trkpt lat="36.808864" lon="-5.113121">
        <ele>738.636</ele>
        <time>2021-09-19T09:01:24Z</time>
      </trkpt>
      <trkpt lat="36.808821" lon="-5.113080">
        <ele>738.674</ele>
        <time>2021-09-19T09:01:25Z</time>
      </trkpt>
      <trkpt lat="36.808519" lon="-5.112874">
        <ele>738.616</ele>
        <time>2021-09-19T09:01:31Z</time>
      </trkpt>
      <trkpt lat="36.808234" lon="-5.112723">
        <ele>738.489</ele>
        <time>2021-09-19T09:01:36Z</time>
      </trkpt>
      <trkpt lat="36.808117" lon="-5.112659">
        <ele>738.495</ele>
        <time>2021-09-19T09:01:38Z</time>
      </trkpt>
      <trkpt lat="36.807703" lon="-5.112468">
        <ele>737.488</ele>
        <time>2021-09-19T09:01:45Z</time>
      </trkpt>
      <trkpt lat="36.807591" lon="-5.112423">
        <ele>737.245</ele>
        <time>2021-09-19T09:01:47Z</time>
      </trkpt>
      <trkpt lat="36.807231" lon="-5.112264">
        <ele>736.641</ele>
        <time>2021-09-19T09:01:54Z</time>
      </trkpt>
      <trkpt lat="36.806946" lon="-5.112139">
        <ele>737.281</ele>
        <time>2021-09-19T09:02:01Z</time>
      </trkpt>
      <trkpt lat="36.806869" lon="-5.112109">
        <ele>737.409</ele>
        <time>2021-09-19T09:02:03Z</time>
      </trkpt>
      <trkpt lat="36.806717" lon="-5.112064">
        <ele>737.808</ele>
        <time>2021-09-19T09:02:07Z</time>
      </trkpt>
      <trkpt lat="36.806678" lon="-5.112056">
        <ele>737.882</ele>
        <time>2021-09-19T09:02:08Z</time>
      </trkpt>
      <trkpt lat="36.806601" lon="-5.112042">
        <ele>738.278</ele>
        <time>2021-09-19T09:02:10Z</time>
      </trkpt>
      <trkpt lat="36.806448" lon="-5.112011">
        <ele>739.216</ele>
        <time>2021-09-19T09:02:14Z</time>
      </trkpt>
      <trkpt lat="36.806410" lon="-5.112003">
        <ele>739.468</ele>
        <time>2021-09-19T09:02:15Z</time>
      </trkpt>
      <trkpt lat="36.806336" lon="-5.111988">
        <ele>740.061</ele>
        <time>2021-09-19T09:02:17Z</time>
      </trkpt>
      <trkpt lat="36.806261" lon="-5.111973">
        <ele>740.647</ele>
        <time>2021-09-19T09:02:19Z</time>
      </trkpt>
      <trkpt lat="36.805987" lon="-5.111921">
        <ele>741.450</ele>
        <time>2021-09-19T09:02:26Z</time>
      </trkpt>
      <trkpt lat="36.805947" lon="-5.111913">
        <ele>741.627</ele>
        <time>2021-09-19T09:02:27Z</time>
      </trkpt>
      <trkpt lat="36.805498" lon="-5.111824">
        <ele>742.047</ele>
        <time>2021-09-19T09:02:38Z</time>
      </trkpt>
      <trkpt lat="36.805250" lon="-5.111764">
        <ele>742.229</ele>
        <time>2021-09-19T09:02:44Z</time>
      </trkpt>
      <trkpt lat="36.805121" lon="-5.111732">
        <ele>742.221</ele>
        <time>2021-09-19T09:02:47Z</time>
      </trkpt>
      <trkpt lat="36.804988" lon="-5.111691">
        <ele>742.608</ele>
        <time>2021-09-19T09:02:50Z</time>
      </trkpt>
      <trkpt lat="36.804680" lon="-5.111583">
        <ele>743.092</ele>
        <time>2021-09-19T09:02:57Z</time>
      </trkpt>
      <trkpt lat="36.804239" lon="-5.111386">
        <ele>743.418</ele>
        <time>2021-09-19T09:03:07Z</time>
      </trkpt>
      <trkpt lat="36.803938" lon="-5.111205">
        <ele>743.636</ele>
        <time>2021-09-19T09:03:14Z</time>
      </trkpt>
      <trkpt lat="36.803896" lon="-5.111177">
        <ele>743.648</ele>
        <time>2021-09-19T09:03:15Z</time>
      </trkpt>
      <trkpt lat="36.803389" lon="-5.110809">
        <ele>744.021</ele>
        <time>2021-09-19T09:03:27Z</time>
      </trkpt>
      <trkpt lat="36.802972" lon="-5.110491">
        <ele>744.457</ele>
        <time>2021-09-19T09:03:37Z</time>
      </trkpt>
      <trkpt lat="36.802561" lon="-5.110185">
        <ele>744.460</ele>
        <time>2021-09-19T09:03:47Z</time>
      </trkpt>
      <trkpt lat="36.802358" lon="-5.110026">
        <ele>744.697</ele>
        <time>2021-09-19T09:03:52Z</time>
      </trkpt>
      <trkpt lat="36.802157" lon="-5.109875">
        <ele>745.442</ele>
        <time>2021-09-19T09:03:57Z</time>
      </trkpt>
      <trkpt lat="36.802075" lon="-5.109815">
        <ele>745.622</ele>
        <time>2021-09-19T09:03:59Z</time>
      </trkpt>
      <trkpt lat="36.801751" lon="-5.109590">
        <ele>746.414</ele>
        <time>2021-09-19T09:04:07Z</time>
      </trkpt>
      <trkpt lat="36.801670" lon="-5.109534">
        <ele>746.608</ele>
        <time>2021-09-19T09:04:09Z</time>
      </trkpt>
      <trkpt lat="36.801425" lon="-5.109346">
        <ele>747.212</ele>
        <time>2021-09-19T09:04:15Z</time>
      </trkpt>
      <trkpt lat="36.801100" lon="-5.109106">
        <ele>747.228</ele>
        <time>2021-09-19T09:04:22Z</time>
      </trkpt>
      <trkpt lat="36.800621" lon="-5.108783">
        <ele>746.476</ele>
        <time>2021-09-19T09:04:31Z</time>
      </trkpt>
      <trkpt lat="36.800408" lon="-5.108639">
        <ele>745.618</ele>
        <time>2021-09-19T09:04:35Z</time>
      </trkpt>
      <trkpt lat="36.800062" lon="-5.108390">
        <ele>745.421</ele>
        <time>2021-09-19T09:04:42Z</time>
      </trkpt>
      <trkpt lat="36.799837" lon="-5.108207">
        <ele>745.287</ele>
        <time>2021-09-19T09:04:47Z</time>
      </trkpt>
      <trkpt lat="36.799774" lon="-5.108103">
        <ele>745.230</ele>
        <time>2021-09-19T09:04:49Z</time>
      </trkpt>
      <trkpt lat="36.799741" lon="-5.107924">
        <ele>745.487</ele>
        <time>2021-09-19T09:04:52Z</time>
      </trkpt>
      <trkpt lat="36.799733" lon="-5.107871">
        <ele>745.453</ele>
        <time>2021-09-19T09:04:53Z</time>
      </trkpt>
      <trkpt lat="36.799732" lon="-5.107818">
        <ele>745.404</ele>
        <time>2021-09-19T09:04:54Z</time>
      </trkpt>
      <trkpt lat="36.799685" lon="-5.107680">
        <ele>745.614</ele>
        <time>2021-09-19T09:04:57Z</time>
      </trkpt>
      <trkpt lat="36.799627" lon="-5.107571">
        <ele>745.808</ele>
        <time>2021-09-19T09:05:00Z</time>
      </trkpt>
      <trkpt lat="36.799541" lon="-5.107470">
        <ele>746.243</ele>
        <time>2021-09-19T09:05:03Z</time>
      </trkpt>
      <trkpt lat="36.799479" lon="-5.107399">
        <ele>746.889</ele>
        <time>2021-09-19T09:05:05Z</time>
      </trkpt>
      <trkpt lat="36.799408" lon="-5.107339">
        <ele>747.657</ele>
        <time>2021-09-19T09:05:07Z</time>
      </trkpt>
      <trkpt lat="36.799331" lon="-5.107291">
        <ele>747.869</ele>
        <time>2021-09-19T09:05:09Z</time>
      </trkpt>
      <trkpt lat="36.799259" lon="-5.107245">
        <ele>748.242</ele>
        <time>2021-09-19T09:05:11Z</time>
      </trkpt>
      <trkpt lat="36.799078" lon="-5.107134">
        <ele>748.878</ele>
        <time>2021-09-19T09:05:16Z</time>
      </trkpt>
      <trkpt lat="36.798938" lon="-5.107024">
        <ele>749.091</ele>
        <time>2021-09-19T09:05:20Z</time>
      </trkpt>
      <trkpt lat="36.798798" lon="-5.106923">
        <ele>749.858</ele>
        <time>2021-09-19T09:05:24Z</time>
      </trkpt>
      <trkpt lat="36.798659" lon="-5.106824">
        <ele>750.278</ele>
        <time>2021-09-19T09:05:28Z</time>
      </trkpt>
      <trkpt lat="36.798553" lon="-5.106752">
        <ele>750.433</ele>
        <time>2021-09-19T09:05:31Z</time>
      </trkpt>
      <trkpt lat="36.798310" lon="-5.106583">
        <ele>751.226</ele>
        <time>2021-09-19T09:05:38Z</time>
      </trkpt>
      <trkpt lat="36.798214" lon="-5.106493">
        <ele>751.608</ele>
        <time>2021-09-19T09:05:41Z</time>
      </trkpt>
      <trkpt lat="36.798180" lon="-5.106466">
        <ele>751.885</ele>
        <time>2021-09-19T09:05:42Z</time>
      </trkpt>
      <trkpt lat="36.798050" lon="-5.106348">
        <ele>752.271</ele>
        <time>2021-09-19T09:05:46Z</time>
      </trkpt>
      <trkpt lat="36.798016" lon="-5.106318">
        <ele>752.439</ele>
        <time>2021-09-19T09:05:47Z</time>
      </trkpt>
      <trkpt lat="36.797673" lon="-5.106046">
        <ele>753.041</ele>
        <time>2021-09-19T09:05:57Z</time>
      </trkpt>
      <trkpt lat="36.797563" lon="-5.105973">
        <ele>753.474</ele>
        <time>2021-09-19T09:06:00Z</time>
      </trkpt>
      <trkpt lat="36.797408" lon="-5.105885">
        <ele>753.870</ele>
        <time>2021-09-19T09:06:04Z</time>
      </trkpt>
      <trkpt lat="36.797252" lon="-5.105783">
        <ele>754.433</ele>
        <time>2021-09-19T09:06:08Z</time>
      </trkpt>
      <trkpt lat="36.797167" lon="-5.105733">
        <ele>754.630</ele>
        <time>2021-09-19T09:06:10Z</time>
      </trkpt>
      <trkpt lat="36.797086" lon="-5.105669">
        <ele>754.678</ele>
        <time>2021-09-19T09:06:12Z</time>
      </trkpt>
      <trkpt lat="36.796812" lon="-5.105495">
        <ele>754.833</ele>
        <time>2021-09-19T09:06:18Z</time>
      </trkpt>
      <trkpt lat="36.796640" lon="-5.105381">
        <ele>754.826</ele>
        <time>2021-09-19T09:06:22Z</time>
      </trkpt>
      <trkpt lat="36.796598" lon="-5.105353">
        <ele>755.008</ele>
        <time>2021-09-19T09:06:23Z</time>
      </trkpt>
      <trkpt lat="36.796336" lon="-5.105205">
        <ele>755.225</ele>
        <time>2021-09-19T09:06:29Z</time>
      </trkpt>
      <trkpt lat="36.796158" lon="-5.105116">
        <ele>755.491</ele>
        <time>2021-09-19T09:06:33Z</time>
      </trkpt>
      <trkpt lat="36.795983" lon="-5.105032">
        <ele>755.649</ele>
        <time>2021-09-19T09:06:37Z</time>
      </trkpt>
      <trkpt lat="36.795558" lon="-5.104851">
        <ele>756.421</ele>
        <time>2021-09-19T09:06:46Z</time>
      </trkpt>
      <trkpt lat="36.795464" lon="-5.104810">
        <ele>756.634</ele>
        <time>2021-09-19T09:06:48Z</time>
      </trkpt>
      <trkpt lat="36.795275" lon="-5.104745">
        <ele>756.860</ele>
        <time>2021-09-19T09:06:52Z</time>
      </trkpt>
      <trkpt lat="36.794994" lon="-5.104646">
        <ele>757.213</ele>
        <time>2021-09-19T09:06:58Z</time>
      </trkpt>
      <trkpt lat="36.794667" lon="-5.104565">
        <ele>757.040</ele>
        <time>2021-09-19T09:07:05Z</time>
      </trkpt>
      <trkpt lat="36.794620" lon="-5.104548">
        <ele>757.014</ele>
        <time>2021-09-19T09:07:06Z</time>
      </trkpt>
      <trkpt lat="36.794424" lon="-5.104500">
        <ele>757.054</ele>
        <time>2021-09-19T09:07:10Z</time>
      </trkpt>
      <trkpt lat="36.794374" lon="-5.104492">
        <ele>757.209</ele>
        <time>2021-09-19T09:07:11Z</time>
      </trkpt>
      <trkpt lat="36.794060" lon="-5.104495">
        <ele>757.208</ele>
        <time>2021-09-19T09:07:17Z</time>
      </trkpt>
      <trkpt lat="36.793699" lon="-5.104534">
        <ele>757.489</ele>
        <time>2021-09-19T09:07:24Z</time>
      </trkpt>
      <trkpt lat="36.793592" lon="-5.104564">
        <ele>757.485</ele>
        <time>2021-09-19T09:07:26Z</time>
      </trkpt>
      <trkpt lat="36.793375" lon="-5.104610">
        <ele>757.413</ele>
        <time>2021-09-19T09:07:30Z</time>
      </trkpt>
      <trkpt lat="36.793263" lon="-5.104621">
        <ele>757.625</ele>
        <time>2021-09-19T09:07:32Z</time>
      </trkpt>
      <trkpt lat="36.793043" lon="-5.104613">
        <ele>757.618</ele>
        <time>2021-09-19T09:07:36Z</time>
      </trkpt>
      <trkpt lat="36.792676" lon="-5.104638">
        <ele>757.674</ele>
        <time>2021-09-19T09:07:43Z</time>
      </trkpt>
      <trkpt lat="36.792310" lon="-5.104697">
        <ele>757.637</ele>
        <time>2021-09-19T09:07:50Z</time>
      </trkpt>
      <trkpt lat="36.791826" lon="-5.104793">
        <ele>757.634</ele>
        <time>2021-09-19T09:07:59Z</time>
      </trkpt>
      <trkpt lat="36.791619" lon="-5.104800">
        <ele>757.619</ele>
        <time>2021-09-19T09:08:03Z</time>
      </trkpt>
      <trkpt lat="36.791563" lon="-5.104795">
        <ele>757.609</ele>
        <time>2021-09-19T09:08:04Z</time>
      </trkpt>
      <trkpt lat="36.791141" lon="-5.104716">
        <ele>757.419</ele>
        <time>2021-09-19T09:08:11Z</time>
      </trkpt>
      <trkpt lat="36.790893" lon="-5.104625">
        <ele>756.808</ele>
        <time>2021-09-19T09:08:15Z</time>
      </trkpt>
      <trkpt lat="36.790835" lon="-5.104591">
        <ele>756.469</ele>
        <time>2021-09-19T09:08:16Z</time>
      </trkpt>
      <trkpt lat="36.790779" lon="-5.104551">
        <ele>756.065</ele>
        <time>2021-09-19T09:08:17Z</time>
      </trkpt>
      <trkpt lat="36.790669" lon="-5.104457">
        <ele>755.453</ele>
        <time>2021-09-19T09:08:19Z</time>
      </trkpt>
      <trkpt lat="36.790616" lon="-5.104407">
        <ele>755.285</ele>
        <time>2021-09-19T09:08:20Z</time>
      </trkpt>
      <trkpt lat="36.790409" lon="-5.104187">
        <ele>754.678</ele>
        <time>2021-09-19T09:08:24Z</time>
      </trkpt>
      <trkpt lat="36.790314" lon="-5.104065">
        <ele>753.884</ele>
        <time>2021-09-19T09:08:26Z</time>
      </trkpt>
      <trkpt lat="36.790229" lon="-5.103940">
        <ele>752.627</ele>
        <time>2021-09-19T09:08:28Z</time>
      </trkpt>
      <trkpt lat="36.790154" lon="-5.103801">
        <ele>752.264</ele>
        <time>2021-09-19T09:08:30Z</time>
      </trkpt>
      <trkpt lat="36.790017" lon="-5.103418">
        <ele>751.644</ele>
        <time>2021-09-19T09:08:35Z</time>
      </trkpt>
      <trkpt lat="36.789988" lon="-5.103342">
        <ele>751.405</ele>
        <time>2021-09-19T09:08:36Z</time>
      </trkpt>
      <trkpt lat="36.789897" lon="-5.103121">
        <ele>750.615</ele>
        <time>2021-09-19T09:08:39Z</time>
      </trkpt>
      <trkpt lat="36.789862" lon="-5.103052">
        <ele>750.608</ele>
        <time>2021-09-19T09:08:40Z</time>
      </trkpt>
      <trkpt lat="36.789746" lon="-5.102840">
        <ele>749.212</ele>
        <time>2021-09-19T09:08:43Z</time>
      </trkpt>
      <trkpt lat="36.789563" lon="-5.102710">
        <ele>748.868</ele>
        <time>2021-09-19T09:08:46Z</time>
      </trkpt>
      <trkpt lat="36.789355" lon="-5.102725">
        <ele>748.026</ele>
        <time>2021-09-19T09:08:49Z</time>
      </trkpt>
      <trkpt lat="36.789196" lon="-5.102872">
        <ele>747.688</ele>
        <time>2021-09-19T09:08:52Z</time>
      </trkpt>
      <trkpt lat="36.789119" lon="-5.102990">
        <ele>747.291</ele>
        <time>2021-09-19T09:08:54Z</time>
      </trkpt>
      <trkpt lat="36.789053" lon="-5.103112">
        <ele>747.097</ele>
        <time>2021-09-19T09:08:56Z</time>
      </trkpt>
      <trkpt lat="36.788988" lon="-5.103231">
        <ele>746.880</ele>
        <time>2021-09-19T09:08:58Z</time>
      </trkpt>
      <trkpt lat="36.788841" lon="-5.103436">
        <ele>746.677</ele>
        <time>2021-09-19T09:09:02Z</time>
      </trkpt>
      <trkpt lat="36.788800" lon="-5.103466">
        <ele>746.669</ele>
        <time>2021-09-19T09:09:03Z</time>
      </trkpt>
      <trkpt lat="36.788697" lon="-5.103420">
        <ele>746.604</ele>
        <time>2021-09-19T09:09:06Z</time>
      </trkpt>
      <trkpt lat="36.788521" lon="-5.103284">
        <ele>746.424</ele>
        <time>2021-09-19T09:09:10Z</time>
      </trkpt>
      <trkpt lat="36.788468" lon="-5.103259">
        <ele>746.408</ele>
        <time>2021-09-19T09:09:11Z</time>
      </trkpt>
      <trkpt lat="36.788152" lon="-5.103131">
        <ele>746.274</ele>
        <time>2021-09-19T09:09:16Z</time>
      </trkpt>
      <trkpt lat="36.788079" lon="-5.103084">
        <ele>745.690</ele>
        <time>2021-09-19T09:09:17Z</time>
      </trkpt>
      <trkpt lat="36.787947" lon="-5.102955">
        <ele>744.848</ele>
        <time>2021-09-19T09:09:19Z</time>
      </trkpt>
      <trkpt lat="36.787888" lon="-5.102881">
        <ele>744.470</ele>
        <time>2021-09-19T09:09:20Z</time>
      </trkpt>
      <trkpt lat="36.787834" lon="-5.102805">
        <ele>743.483</ele>
        <time>2021-09-19T09:09:21Z</time>
      </trkpt>
      <trkpt lat="36.787675" lon="-5.102594">
        <ele>742.279</ele>
        <time>2021-09-19T09:09:24Z</time>
      </trkpt>
      <trkpt lat="36.787576" lon="-5.102466">
        <ele>740.432</ele>
        <time>2021-09-19T09:09:26Z</time>
      </trkpt>
      <trkpt lat="36.787480" lon="-5.102346">
        <ele>739.469</ele>
        <time>2021-09-19T09:09:28Z</time>
      </trkpt>
      <trkpt lat="36.787381" lon="-5.102243">
        <ele>739.095</ele>
        <time>2021-09-19T09:09:30Z</time>
      </trkpt>
      <trkpt lat="36.787327" lon="-5.102206">
        <ele>738.849</ele>
        <time>2021-09-19T09:09:31Z</time>
      </trkpt>
      <trkpt lat="36.787147" lon="-5.102156">
        <ele>738.623</ele>
        <time>2021-09-19T09:09:35Z</time>
      </trkpt>
      <trkpt lat="36.787119" lon="-5.102155">
        <ele>738.608</ele>
        <time>2021-09-19T09:09:36Z</time>
      </trkpt>
      <trkpt lat="36.787045" lon="-5.102151">
        <ele>738.657</ele>
        <time>2021-09-19T09:09:39Z</time>
      </trkpt>
      <trkpt lat="36.787000" lon="-5.102146">
        <ele>738.893</ele>
        <time>2021-09-19T09:09:41Z</time>
      </trkpt>
      <trkpt lat="36.786951" lon="-5.102145">
        <ele>739.491</ele>
        <time>2021-09-19T09:09:43Z</time>
      </trkpt>
      <trkpt lat="36.786875" lon="-5.102153">
        <ele>740.613</ele>
        <time>2021-09-19T09:09:46Z</time>
      </trkpt>
      <trkpt lat="36.786793" lon="-5.102157">
        <ele>741.476</ele>
        <time>2021-09-19T09:09:49Z</time>
      </trkpt>
      <trkpt lat="36.786766" lon="-5.102154">
        <ele>742.022</ele>
        <time>2021-09-19T09:09:50Z</time>
      </trkpt>
      <trkpt lat="36.786655" lon="-5.102144">
        <ele>742.835</ele>
        <time>2021-09-19T09:09:54Z</time>
      </trkpt>
      <trkpt lat="36.786626" lon="-5.102141">
        <ele>743.222</ele>
        <time>2021-09-19T09:09:55Z</time>
      </trkpt>
      <trkpt lat="36.786540" lon="-5.102129">
        <ele>743.816</ele>
        <time>2021-09-19T09:09:58Z</time>
      </trkpt>
      <trkpt lat="36.786450" lon="-5.102122">
        <ele>744.276</ele>
        <time>2021-09-19T09:10:01Z</time>
      </trkpt>
      <trkpt lat="36.786315" lon="-5.102138">
        <ele>744.613</ele>
        <time>2021-09-19T09:10:06Z</time>
      </trkpt>
      <trkpt lat="36.786153" lon="-5.102208">
        <ele>745.008</ele>
        <time>2021-09-19T09:10:13Z</time>
      </trkpt>
      <trkpt lat="36.786049" lon="-5.102235">
        <ele>746.499</ele>
        <time>2021-09-19T09:10:17Z</time>
      </trkpt>
      <trkpt lat="36.785972" lon="-5.102237">
        <ele>747.025</ele>
        <time>2021-09-19T09:10:20Z</time>
      </trkpt>
      <trkpt lat="36.785883" lon="-5.102191">
        <ele>747.633</ele>
        <time>2021-09-19T09:10:24Z</time>
      </trkpt>
      <trkpt lat="36.785858" lon="-5.102169">
        <ele>747.835</ele>
        <time>2021-09-19T09:10:25Z</time>
      </trkpt>
      <trkpt lat="36.785693" lon="-5.102048">
        <ele>748.638</ele>
        <time>2021-09-19T09:10:30Z</time>
      </trkpt>
      <trkpt lat="36.785619" lon="-5.101989">
        <ele>748.614</ele>
        <time>2021-09-19T09:10:32Z</time>
      </trkpt>
      <trkpt lat="36.785550" lon="-5.101930">
        <ele>748.857</ele>
        <time>2021-09-19T09:10:34Z</time>
      </trkpt>
      <trkpt lat="36.785455" lon="-5.101836">
        <ele>748.824</ele>
        <time>2021-09-19T09:10:37Z</time>
      </trkpt>
      <trkpt lat="36.785262" lon="-5.101629">
        <ele>749.277</ele>
        <time>2021-09-19T09:10:44Z</time>
      </trkpt>
      <trkpt lat="36.785178" lon="-5.101527">
        <ele>749.461</ele>
        <time>2021-09-19T09:10:47Z</time>
      </trkpt>
      <trkpt lat="36.785020" lon="-5.101396">
        <ele>750.227</ele>
        <time>2021-09-19T09:10:52Z</time>
      </trkpt>
      <trkpt lat="36.784890" lon="-5.101346">
        <ele>750.408</ele>
        <time>2021-09-19T09:10:56Z</time>
      </trkpt>
      <trkpt lat="36.784829" lon="-5.101338">
        <ele>750.625</ele>
        <time>2021-09-19T09:10:58Z</time>
      </trkpt>
      <trkpt lat="36.784636" lon="-5.101328">
        <ele>751.661</ele>
        <time>2021-09-19T09:11:05Z</time>
      </trkpt>
      <trkpt lat="36.784583" lon="-5.101335">
        <ele>751.819</ele>
        <time>2021-09-19T09:11:07Z</time>
      </trkpt>
      <trkpt lat="36.784486" lon="-5.101350">
        <ele>752.671</ele>
        <time>2021-09-19T09:11:11Z</time>
      </trkpt>
      <trkpt lat="36.784426" lon="-5.101360">
        <ele>753.094</ele>
        <time>2021-09-19T09:11:14Z</time>
      </trkpt>
      <trkpt lat="36.784383" lon="-5.101366">
        <ele>753.460</ele>
        <time>2021-09-19T09:11:16Z</time>
      </trkpt>
      <trkpt lat="36.784308" lon="-5.101374">
        <ele>754.453</ele>
        <time>2021-09-19T09:11:20Z</time>
      </trkpt>
      <trkpt lat="36.784292" lon="-5.101378">
        <ele>754.680</ele>
        <time>2021-09-19T09:11:21Z</time>
      </trkpt>
      <trkpt lat="36.784233" lon="-5.101403">
        <ele>755.623</ele>
        <time>2021-09-19T09:11:25Z</time>
      </trkpt>
      <trkpt lat="36.784188" lon="-5.101426">
        <ele>756.483</ele>
        <time>2021-09-19T09:11:28Z</time>
      </trkpt>
      <trkpt lat="36.784165" lon="-5.101439">
        <ele>756.811</ele>
        <time>2021-09-19T09:11:30Z</time>
      </trkpt>
      <trkpt lat="36.784101" lon="-5.101478">
        <ele>758.008</ele>
        <time>2021-09-19T09:11:35Z</time>
      </trkpt>
      <trkpt lat="36.784053" lon="-5.101502">
        <ele>759.050</ele>
        <time>2021-09-19T09:11:39Z</time>
      </trkpt>
      <trkpt lat="36.784010" lon="-5.101526">
        <ele>760.266</ele>
        <time>2021-09-19T09:11:43Z</time>
      </trkpt>
      <trkpt lat="36.783975" lon="-5.101535">
        <ele>761.494</ele>
        <time>2021-09-19T09:11:46Z</time>
      </trkpt>
      <trkpt lat="36.783944" lon="-5.101542">
        <ele>762.636</ele>
        <time>2021-09-19T09:11:49Z</time>
      </trkpt>
      <trkpt lat="36.783934" lon="-5.101539">
        <ele>762.879</ele>
        <time>2021-09-19T09:11:50Z</time>
      </trkpt>
      <trkpt lat="36.783913" lon="-5.101524">
        <ele>763.845</ele>
        <time>2021-09-19T09:11:52Z</time>
      </trkpt>
      <trkpt lat="36.783877" lon="-5.101497">
        <ele>765.098</ele>
        <time>2021-09-19T09:11:55Z</time>
      </trkpt>
      <trkpt lat="36.783849" lon="-5.101476">
        <ele>765.695</ele>
        <time>2021-09-19T09:11:57Z</time>
      </trkpt>
      <trkpt lat="36.783833" lon="-5.101462">
        <ele>766.032</ele>
        <time>2021-09-19T09:11:58Z</time>
      </trkpt>
      <trkpt lat="36.783784" lon="-5.101432">
        <ele>767.292</ele>
        <time>2021-09-19T09:12:01Z</time>
      </trkpt>
      <trkpt lat="36.783745" lon="-5.101432">
        <ele>767.811</ele>
        <time>2021-09-19T09:12:03Z</time>
      </trkpt>
      <trkpt lat="36.783709" lon="-5.101450">
        <ele>768.208</ele>
        <time>2021-09-19T09:12:05Z</time>
      </trkpt>
      <trkpt lat="36.783654" lon="-5.101517">
        <ele>768.871</ele>
        <time>2021-09-19T09:12:09Z</time>
      </trkpt>
      <trkpt lat="36.783613" lon="-5.101595">
        <ele>769.277</ele>
        <time>2021-09-19T09:12:13Z</time>
      </trkpt>
      <trkpt lat="36.783581" lon="-5.101654">
        <ele>770.035</ele>
        <time>2021-09-19T09:12:16Z</time>
      </trkpt>
      <trkpt lat="36.783569" lon="-5.101674">
        <ele>770.427</ele>
        <time>2021-09-19T09:12:17Z</time>
      </trkpt>
      <trkpt lat="36.783536" lon="-5.101736">
        <ele>771.420</ele>
        <time>2021-09-19T09:12:20Z</time>
      </trkpt>
      <trkpt lat="36.783502" lon="-5.101797">
        <ele>772.476</ele>
        <time>2021-09-19T09:12:23Z</time>
      </trkpt>
      <trkpt lat="36.783477" lon="-5.101840">
        <ele>773.019</ele>
        <time>2021-09-19T09:12:25Z</time>
      </trkpt>
      <trkpt lat="36.783438" lon="-5.101903">
        <ele>773.696</ele>
        <time>2021-09-19T09:12:28Z</time>
      </trkpt>
      <trkpt lat="36.783355" lon="-5.102031">
        <ele>774.456</ele>
        <time>2021-09-19T09:12:33Z</time>
      </trkpt>
      <trkpt lat="36.783321" lon="-5.102099">
        <ele>774.859</ele>
        <time>2021-09-19T09:12:35Z</time>
      </trkpt>
      <trkpt lat="36.783297" lon="-5.102132">
        <ele>774.814</ele>
        <time>2021-09-19T09:12:37Z</time>
      </trkpt>
      <trkpt lat="36.783292" lon="-5.102139">
        <ele>774.808</ele>
        <time>2021-09-19T09:12:39Z</time>
      </trkpt>
      <trkpt lat="36.783270" lon="-5.102180">
        <ele>774.083</ele>
        <time>2021-09-19T09:13:43Z</time>
      </trkpt>
      <trkpt lat="36.783255" lon="-5.102202">
        <ele>774.049</ele>
        <time>2021-09-19T09:13:44Z</time>
      </trkpt>
      <trkpt lat="36.783168" lon="-5.102326">
        <ele>774.247</ele>
        <time>2021-09-19T09:13:48Z</time>
      </trkpt>
      <trkpt lat="36.783125" lon="-5.102396">
        <ele>774.229</ele>
        <time>2021-09-19T09:13:50Z</time>
      </trkpt>
      <trkpt lat="36.783051" lon="-5.102508">
        <ele>774.462</ele>
        <time>2021-09-19T09:13:53Z</time>
      </trkpt>
      <trkpt lat="36.782901" lon="-5.102728">
        <ele>774.248</ele>
        <time>2021-09-19T09:13:58Z</time>
      </trkpt>
      <trkpt lat="36.782866" lon="-5.102769">
        <ele>774.291</ele>
        <time>2021-09-19T09:13:59Z</time>
      </trkpt>
      <trkpt lat="36.782783" lon="-5.102811">
        <ele>774.248</ele>
        <time>2021-09-19T09:14:01Z</time>
      </trkpt>
      <trkpt lat="36.782612" lon="-5.102771">
        <ele>774.297</ele>
        <time>2021-09-19T09:14:05Z</time>
      </trkpt>
      <trkpt lat="36.782576" lon="-5.102752">
        <ele>774.223</ele>
        <time>2021-09-19T09:14:06Z</time>
      </trkpt>
      <trkpt lat="36.782539" lon="-5.102729">
        <ele>774.225</ele>
        <time>2021-09-19T09:14:07Z</time>
      </trkpt>
      <trkpt lat="36.782399" lon="-5.102603">
        <ele>774.208</ele>
        <time>2021-09-19T09:14:11Z</time>
      </trkpt>
      <trkpt lat="36.782203" lon="-5.102398">
        <ele>775.017</ele>
        <time>2021-09-19T09:14:17Z</time>
      </trkpt>
      <trkpt lat="36.782170" lon="-5.102376">
        <ele>775.013</ele>
        <time>2021-09-19T09:14:18Z</time>
      </trkpt>
      <trkpt lat="36.782068" lon="-5.102318">
        <ele>775.031</ele>
        <time>2021-09-19T09:14:21Z</time>
      </trkpt>
      <trkpt lat="36.781929" lon="-5.102234">
        <ele>775.433</ele>
        <time>2021-09-19T09:14:25Z</time>
      </trkpt>
      <trkpt lat="36.781896" lon="-5.102205">
        <ele>775.636</ele>
        <time>2021-09-19T09:14:26Z</time>
      </trkpt>
      <trkpt lat="36.781826" lon="-5.102141">
        <ele>776.042</ele>
        <time>2021-09-19T09:14:28Z</time>
      </trkpt>
      <trkpt lat="36.781646" lon="-5.101954">
        <ele>776.695</ele>
        <time>2021-09-19T09:14:33Z</time>
      </trkpt>
      <trkpt lat="36.781372" lon="-5.101604">
        <ele>776.862</ele>
        <time>2021-09-19T09:14:41Z</time>
      </trkpt>
      <trkpt lat="36.781206" lon="-5.101478">
        <ele>776.874</ele>
        <time>2021-09-19T09:14:45Z</time>
      </trkpt>
      <trkpt lat="36.781110" lon="-5.101432">
        <ele>776.656</ele>
        <time>2021-09-19T09:14:47Z</time>
      </trkpt>
      <trkpt lat="36.780856" lon="-5.101346">
        <ele>776.621</ele>
        <time>2021-09-19T09:14:52Z</time>
      </trkpt>
      <trkpt lat="36.780758" lon="-5.101334">
        <ele>776.608</ele>
        <time>2021-09-19T09:14:54Z</time>
      </trkpt>
      <trkpt lat="36.780627" lon="-5.101377">
        <ele>776.635</ele>
        <time>2021-09-19T09:14:57Z</time>
      </trkpt>
      <trkpt lat="36.780512" lon="-5.101478">
        <ele>776.861</ele>
        <time>2021-09-19T09:15:00Z</time>
      </trkpt>
      <trkpt lat="36.780403" lon="-5.101606">
        <ele>776.849</ele>
        <time>2021-09-19T09:15:03Z</time>
      </trkpt>
      <trkpt lat="36.780325" lon="-5.101696">
        <ele>777.031</ele>
        <time>2021-09-19T09:15:05Z</time>
      </trkpt>
      <trkpt lat="36.780141" lon="-5.101891">
        <ele>777.254</ele>
        <time>2021-09-19T09:15:09Z</time>
      </trkpt>
      <trkpt lat="36.779927" lon="-5.102026">
        <ele>777.210</ele>
        <time>2021-09-19T09:15:13Z</time>
      </trkpt>
      <trkpt lat="36.779757" lon="-5.102015">
        <ele>776.693</ele>
        <time>2021-09-19T09:15:16Z</time>
      </trkpt>
      <trkpt lat="36.779703" lon="-5.102005">
        <ele>776.250</ele>
        <time>2021-09-19T09:15:17Z</time>
      </trkpt>
      <trkpt lat="36.779651" lon="-5.101998">
        <ele>776.036</ele>
        <time>2021-09-19T09:15:18Z</time>
      </trkpt>
      <trkpt lat="36.779599" lon="-5.101995">
        <ele>776.017</ele>
        <time>2021-09-19T09:15:19Z</time>
      </trkpt>
      <trkpt lat="36.779440" lon="-5.102029">
        <ele>775.818</ele>
        <time>2021-09-19T09:15:22Z</time>
      </trkpt>
      <trkpt lat="36.779388" lon="-5.102051">
        <ele>775.808</ele>
        <time>2021-09-19T09:15:23Z</time>
      </trkpt>
      <trkpt lat="36.779084" lon="-5.102169">
        <ele>775.861</ele>
        <time>2021-09-19T09:15:29Z</time>
      </trkpt>
      <trkpt lat="36.778663" lon="-5.102323">
        <ele>775.837</ele>
        <time>2021-09-19T09:15:37Z</time>
      </trkpt>
      <trkpt lat="36.778213" lon="-5.102537">
        <ele>775.615</ele>
        <time>2021-09-19T09:15:46Z</time>
      </trkpt>
      <trkpt lat="36.777782" lon="-5.102776">
        <ele>775.087</ele>
        <time>2021-09-19T09:15:54Z</time>
      </trkpt>
      <trkpt lat="36.777458" lon="-5.102944">
        <ele>774.220</ele>
        <time>2021-09-19T09:15:59Z</time>
      </trkpt>
      <trkpt lat="36.777319" lon="-5.103032">
        <ele>773.686</ele>
        <time>2021-09-19T09:16:01Z</time>
      </trkpt>
      <trkpt lat="36.777106" lon="-5.103175">
        <ele>772.639</ele>
        <time>2021-09-19T09:16:04Z</time>
      </trkpt>
      <trkpt lat="36.776894" lon="-5.103317">
        <ele>771.616</ele>
        <time>2021-09-19T09:16:07Z</time>
      </trkpt>
      <trkpt lat="36.776826" lon="-5.103356">
        <ele>771.077</ele>
        <time>2021-09-19T09:16:08Z</time>
      </trkpt>
      <trkpt lat="36.776757" lon="-5.103386">
        <ele>770.461</ele>
        <time>2021-09-19T09:16:09Z</time>
      </trkpt>
      <trkpt lat="36.776629" lon="-5.103426">
        <ele>769.627</ele>
        <time>2021-09-19T09:16:11Z</time>
      </trkpt>
      <trkpt lat="36.776567" lon="-5.103437">
        <ele>769.408</ele>
        <time>2021-09-19T09:16:12Z</time>
      </trkpt>
      <trkpt lat="36.776507" lon="-5.103443">
        <ele>769.275</ele>
        <time>2021-09-19T09:16:13Z</time>
      </trkpt>
      <trkpt lat="36.776341" lon="-5.103457">
        <ele>769.011</ele>
        <time>2021-09-19T09:16:16Z</time>
      </trkpt>
      <trkpt lat="36.776236" lon="-5.103469">
        <ele>769.069</ele>
        <time>2021-09-19T09:16:18Z</time>
      </trkpt>
      <trkpt lat="36.775902" lon="-5.103498">
        <ele>769.231</ele>
        <time>2021-09-19T09:16:25Z</time>
      </trkpt>
      <trkpt lat="36.775729" lon="-5.103563">
        <ele>769.874</ele>
        <time>2021-09-19T09:16:29Z</time>
      </trkpt>
      <trkpt lat="36.775641" lon="-5.103585">
        <ele>770.030</ele>
        <time>2021-09-19T09:16:31Z</time>
      </trkpt>
      <trkpt lat="36.775510" lon="-5.103598">
        <ele>770.423</ele>
        <time>2021-09-19T09:16:34Z</time>
      </trkpt>
      <trkpt lat="36.775468" lon="-5.103591">
        <ele>770.670</ele>
        <time>2021-09-19T09:16:35Z</time>
      </trkpt>
      <trkpt lat="36.775385" lon="-5.103556">
        <ele>771.066</ele>
        <time>2021-09-19T09:16:37Z</time>
      </trkpt>
      <trkpt lat="36.775235" lon="-5.103496">
        <ele>771.229</ele>
        <time>2021-09-19T09:16:40Z</time>
      </trkpt>
      <trkpt lat="36.775173" lon="-5.103487">
        <ele>771.221</ele>
        <time>2021-09-19T09:16:41Z</time>
      </trkpt>
      <trkpt lat="36.774824" lon="-5.103451">
        <ele>771.208</ele>
        <time>2021-09-19T09:16:46Z</time>
      </trkpt>
      <trkpt lat="36.774569" lon="-5.103536">
        <ele>770.844</ele>
        <time>2021-09-19T09:16:50Z</time>
      </trkpt>
      <trkpt lat="36.774460" lon="-5.103603">
        <ele>769.840</ele>
        <time>2021-09-19T09:16:52Z</time>
      </trkpt>
      <trkpt lat="36.774368" lon="-5.103674">
        <ele>769.288</ele>
        <time>2021-09-19T09:16:54Z</time>
      </trkpt>
      <trkpt lat="36.774323" lon="-5.103709">
        <ele>769.030</ele>
        <time>2021-09-19T09:16:55Z</time>
      </trkpt>
      <trkpt lat="36.774060" lon="-5.103935">
        <ele>768.853</ele>
        <time>2021-09-19T09:17:01Z</time>
      </trkpt>
      <trkpt lat="36.773778" lon="-5.104121">
        <ele>768.859</ele>
        <time>2021-09-19T09:17:07Z</time>
      </trkpt>
      <trkpt lat="36.773426" lon="-5.104436">
        <ele>769.692</ele>
        <time>2021-09-19T09:17:15Z</time>
      </trkpt>
      <trkpt lat="36.773387" lon="-5.104486">
        <ele>769.699</ele>
        <time>2021-09-19T09:17:16Z</time>
      </trkpt>
      <trkpt lat="36.773204" lon="-5.104741">
        <ele>769.885</ele>
        <time>2021-09-19T09:17:21Z</time>
      </trkpt>
      <trkpt lat="36.772869" lon="-5.105085">
        <ele>769.889</ele>
        <time>2021-09-19T09:17:29Z</time>
      </trkpt>
      <trkpt lat="36.772682" lon="-5.105222">
        <ele>770.017</ele>
        <time>2021-09-19T09:17:33Z</time>
      </trkpt>
      <trkpt lat="36.772574" lon="-5.105275">
        <ele>770.008</ele>
        <time>2021-09-19T09:17:35Z</time>
      </trkpt>
      <trkpt lat="36.772331" lon="-5.105445">
        <ele>770.016</ele>
        <time>2021-09-19T09:17:40Z</time>
      </trkpt>
      <trkpt lat="36.772144" lon="-5.105599">
        <ele>770.272</ele>
        <time>2021-09-19T09:17:44Z</time>
      </trkpt>
      <trkpt lat="36.772046" lon="-5.105655">
        <ele>770.220</ele>
        <time>2021-09-19T09:17:46Z</time>
      </trkpt>
      <trkpt lat="36.771739" lon="-5.105776">
        <ele>770.072</ele>
        <time>2021-09-19T09:17:52Z</time>
      </trkpt>
      <trkpt lat="36.771429" lon="-5.105892">
        <ele>770.045</ele>
        <time>2021-09-19T09:17:58Z</time>
      </trkpt>
      <trkpt lat="36.771064" lon="-5.106012">
        <ele>770.061</ele>
        <time>2021-09-19T09:18:05Z</time>
      </trkpt>
      <trkpt lat="36.770708" lon="-5.106091">
        <ele>770.014</ele>
        <time>2021-09-19T09:18:12Z</time>
      </trkpt>
      <trkpt lat="36.770234" lon="-5.106161">
        <ele>769.851</ele>
        <time>2021-09-19T09:18:21Z</time>
      </trkpt>
      <trkpt lat="36.769812" lon="-5.106211">
        <ele>769.663</ele>
        <time>2021-09-19T09:18:29Z</time>
      </trkpt>
      <trkpt lat="36.769337" lon="-5.106287">
        <ele>769.444</ele>
        <time>2021-09-19T09:18:38Z</time>
      </trkpt>
      <trkpt lat="36.769133" lon="-5.106277">
        <ele>769.218</ele>
        <time>2021-09-19T09:18:43Z</time>
      </trkpt>
      <trkpt lat="36.769123" lon="-5.106257">
        <ele>769.208</ele>
        <time>2021-09-19T09:18:44Z</time>
      </trkpt>
      <trkpt lat="36.769152" lon="-5.106208">
        <ele>769.264</ele>
        <time>2021-09-19T09:18:46Z</time>
      </trkpt>
      <trkpt lat="36.769228" lon="-5.106135">
        <ele>769.440</ele>
        <time>2021-09-19T09:18:49Z</time>
      </trkpt>
      <trkpt lat="36.769306" lon="-5.106050">
        <ele>770.278</ele>
        <time>2021-09-19T09:18:52Z</time>
      </trkpt>
      <trkpt lat="36.769335" lon="-5.106022">
        <ele>770.270</ele>
        <time>2021-09-19T09:18:53Z</time>
      </trkpt>
      <trkpt lat="36.769464" lon="-5.105870">
        <ele>770.433</ele>
        <time>2021-09-19T09:18:58Z</time>
      </trkpt>
      <trkpt lat="36.769645" lon="-5.105640">
        <ele>770.679</ele>
        <time>2021-09-19T09:19:04Z</time>
      </trkpt>
      <trkpt lat="36.769677" lon="-5.105599">
        <ele>770.642</ele>
        <time>2021-09-19T09:19:05Z</time>
      </trkpt>
      <trkpt lat="36.769977" lon="-5.105229">
        <ele>771.229</ele>
        <time>2021-09-19T09:19:14Z</time>
      </trkpt>
      <trkpt lat="36.770009" lon="-5.105188">
        <ele>771.285</ele>
        <time>2021-09-19T09:19:15Z</time>
      </trkpt>
      <trkpt lat="36.770107" lon="-5.105063">
        <ele>771.289</ele>
        <time>2021-09-19T09:19:18Z</time>
      </trkpt>
      <trkpt lat="36.770268" lon="-5.104858">
        <ele>772.017</ele>
        <time>2021-09-19T09:19:23Z</time>
      </trkpt>
      <trkpt lat="36.770427" lon="-5.104645">
        <ele>772.608</ele>
        <time>2021-09-19T09:19:28Z</time>
      </trkpt>
      <trkpt lat="36.770666" lon="-5.104293">
        <ele>773.046</ele>
        <time>2021-09-19T09:19:36Z</time>
      </trkpt>
      <trkpt lat="36.770725" lon="-5.104206">
        <ele>773.292</ele>
        <time>2021-09-19T09:19:38Z</time>
      </trkpt>
      <trkpt lat="36.771038" lon="-5.103724">
        <ele>774.070</ele>
        <time>2021-09-19T09:19:49Z</time>
      </trkpt>
      <trkpt lat="36.771088" lon="-5.103630">
        <ele>774.092</ele>
        <time>2021-09-19T09:19:51Z</time>
      </trkpt>
      <trkpt lat="36.771181" lon="-5.103378">
        <ele>774.495</ele>
        <time>2021-09-19T09:19:56Z</time>
      </trkpt>
      <trkpt lat="36.771195" lon="-5.103326">
        <ele>774.461</ele>
        <time>2021-09-19T09:19:57Z</time>
      </trkpt>
      <trkpt lat="36.771289" lon="-5.102947">
        <ele>774.654</ele>
        <time>2021-09-19T09:20:04Z</time>
      </trkpt>
      <trkpt lat="36.771389" lon="-5.102568">
        <ele>775.241</ele>
        <time>2021-09-19T09:20:11Z</time>
      </trkpt>
      <trkpt lat="36.771451" lon="-5.102356">
        <ele>775.477</ele>
        <time>2021-09-19T09:20:15Z</time>
      </trkpt>
      <trkpt lat="36.771588" lon="-5.101941">
        <ele>776.261</ele>
        <time>2021-09-19T09:20:23Z</time>
      </trkpt>
      <trkpt lat="36.771644" lon="-5.101794">
        <ele>776.627</ele>
        <time>2021-09-19T09:20:26Z</time>
      </trkpt>
      <trkpt lat="36.771702" lon="-5.101648">
        <ele>777.208</ele>
        <time>2021-09-19T09:20:29Z</time>
      </trkpt>
      <trkpt lat="36.771856" lon="-5.101255">
        <ele>778.055</ele>
        <time>2021-09-19T09:20:37Z</time>
      </trkpt>
      <trkpt lat="36.771893" lon="-5.101158">
        <ele>778.431</ele>
        <time>2021-09-19T09:20:39Z</time>
      </trkpt>
      <trkpt lat="36.772023" lon="-5.100821">
        <ele>779.469</ele>
        <time>2021-09-19T09:20:46Z</time>
      </trkpt>
      <trkpt lat="36.772157" lon="-5.100483">
        <ele>780.491</ele>
        <time>2021-09-19T09:20:53Z</time>
      </trkpt>
      <trkpt lat="36.772233" lon="-5.100293">
        <ele>780.814</ele>
        <time>2021-09-19T09:20:57Z</time>
      </trkpt>
      <trkpt lat="36.772310" lon="-5.100098">
        <ele>781.680</ele>
        <time>2021-09-19T09:21:01Z</time>
      </trkpt>
      <trkpt lat="36.772365" lon="-5.099948">
        <ele>782.093</ele>
        <time>2021-09-19T09:21:04Z</time>
      </trkpt>
      <trkpt lat="36.772445" lon="-5.099747">
        <ele>782.680</ele>
        <time>2021-09-19T09:21:08Z</time>
      </trkpt>
      <trkpt lat="36.772579" lon="-5.099405">
        <ele>783.455</ele>
        <time>2021-09-19T09:21:15Z</time>
      </trkpt>
      <trkpt lat="36.772630" lon="-5.099265">
        <ele>783.807</ele>
        <time>2021-09-19T09:21:18Z</time>
      </trkpt>
      <trkpt lat="36.772711" lon="-5.099046">
        <ele>784.617</ele>
        <time>2021-09-19T09:21:23Z</time>
      </trkpt>
      <trkpt lat="36.772760" lon="-5.098920">
        <ele>785.008</ele>
        <time>2021-09-19T09:21:26Z</time>
      </trkpt>
      <trkpt lat="36.772846" lon="-5.098703">
        <ele>785.843</ele>
        <time>2021-09-19T09:21:31Z</time>
      </trkpt>
      <trkpt lat="36.772877" lon="-5.098619">
        <ele>786.039</ele>
        <time>2021-09-19T09:21:33Z</time>
      </trkpt>
      <trkpt lat="36.772971" lon="-5.098392">
        <ele>787.067</ele>
        <time>2021-09-19T09:21:39Z</time>
      </trkpt>
      <trkpt lat="36.772999" lon="-5.098318">
        <ele>787.299</ele>
        <time>2021-09-19T09:21:41Z</time>
      </trkpt>
      <trkpt lat="36.773080" lon="-5.098097">
        <ele>788.082</ele>
        <time>2021-09-19T09:21:47Z</time>
      </trkpt>
      <trkpt lat="36.773113" lon="-5.097984">
        <ele>788.438</ele>
        <time>2021-09-19T09:21:50Z</time>
      </trkpt>
      <trkpt lat="36.773169" lon="-5.097695">
        <ele>789.031</ele>
        <time>2021-09-19T09:21:58Z</time>
      </trkpt>
      <trkpt lat="36.773176" lon="-5.097660">
        <ele>789.298</ele>
        <time>2021-09-19T09:21:59Z</time>
      </trkpt>
      <trkpt lat="36.773199" lon="-5.097495">
        <ele>790.247</ele>
        <time>2021-09-19T09:22:04Z</time>
      </trkpt>
      <trkpt lat="36.773211" lon="-5.097400">
        <ele>791.229</ele>
        <time>2021-09-19T09:22:07Z</time>
      </trkpt>
      <trkpt lat="36.773217" lon="-5.097369">
        <ele>791.621</ele>
        <time>2021-09-19T09:22:08Z</time>
      </trkpt>
      <trkpt lat="36.773233" lon="-5.097276">
        <ele>792.408</ele>
        <time>2021-09-19T09:22:11Z</time>
      </trkpt>
      <trkpt lat="36.773270" lon="-5.097091">
        <ele>793.662</ele>
        <time>2021-09-19T09:22:17Z</time>
      </trkpt>
      <trkpt lat="36.773301" lon="-5.096910">
        <ele>794.688</ele>
        <time>2021-09-19T09:22:23Z</time>
      </trkpt>
      <trkpt lat="36.773305" lon="-5.096879">
        <ele>794.886</ele>
        <time>2021-09-19T09:22:24Z</time>
      </trkpt>
      <trkpt lat="36.773316" lon="-5.096789">
        <ele>795.438</ele>
        <time>2021-09-19T09:22:27Z</time>
      </trkpt>
      <trkpt lat="36.773321" lon="-5.096759">
        <ele>795.661</ele>
        <time>2021-09-19T09:22:28Z</time>
      </trkpt>
      <trkpt lat="36.773346" lon="-5.096581">
        <ele>796.867</ele>
        <time>2021-09-19T09:22:34Z</time>
      </trkpt>
      <trkpt lat="36.773355" lon="-5.096521">
        <ele>797.240</ele>
        <time>2021-09-19T09:22:36Z</time>
      </trkpt>
      <trkpt lat="36.773364" lon="-5.096463">
        <ele>797.847</ele>
        <time>2021-09-19T09:22:38Z</time>
      </trkpt>
      <trkpt lat="36.773380" lon="-5.096343">
        <ele>799.076</ele>
        <time>2021-09-19T09:22:42Z</time>
      </trkpt>
      <trkpt lat="36.773407" lon="-5.096197">
        <ele>800.290</ele>
        <time>2021-09-19T09:22:47Z</time>
      </trkpt>
      <trkpt lat="36.773440" lon="-5.096014">
        <ele>801.419</ele>
        <time>2021-09-19T09:22:53Z</time>
      </trkpt>
      <trkpt lat="36.773450" lon="-5.095985">
        <ele>801.608</ele>
        <time>2021-09-19T09:22:54Z</time>
      </trkpt>
      <trkpt lat="36.773509" lon="-5.095874">
        <ele>802.425</ele>
        <time>2021-09-19T09:22:58Z</time>
      </trkpt>
      <trkpt lat="36.773561" lon="-5.095803">
        <ele>803.271</ele>
        <time>2021-09-19T09:23:01Z</time>
      </trkpt>
      <trkpt lat="36.773603" lon="-5.095753">
        <ele>803.629</ele>
        <time>2021-09-19T09:23:03Z</time>
      </trkpt>
      <trkpt lat="36.773704" lon="-5.095629">
        <ele>804.671</ele>
        <time>2021-09-19T09:23:08Z</time>
      </trkpt>
      <trkpt lat="36.773745" lon="-5.095583">
        <ele>804.814</ele>
        <time>2021-09-19T09:23:10Z</time>
      </trkpt>
      <trkpt lat="36.773847" lon="-5.095476">
        <ele>806.090</ele>
        <time>2021-09-19T09:23:15Z</time>
      </trkpt>
      <trkpt lat="36.773943" lon="-5.095364">
        <ele>806.813</ele>
        <time>2021-09-19T09:23:20Z</time>
      </trkpt>
      <trkpt lat="36.773963" lon="-5.095341">
        <ele>807.050</ele>
        <time>2021-09-19T09:23:21Z</time>
      </trkpt>
      <trkpt lat="36.774102" lon="-5.095180">
        <ele>808.218</ele>
        <time>2021-09-19T09:23:28Z</time>
      </trkpt>
      <trkpt lat="36.774123" lon="-5.095156">
        <ele>808.298</ele>
        <time>2021-09-19T09:23:29Z</time>
      </trkpt>
      <trkpt lat="36.774209" lon="-5.095061">
        <ele>809.217</ele>
        <time>2021-09-19T09:23:33Z</time>
      </trkpt>
      <trkpt lat="36.774363" lon="-5.094893">
        <ele>810.408</ele>
        <time>2021-09-19T09:23:40Z</time>
      </trkpt>
      <trkpt lat="36.774470" lon="-5.094716">
        <ele>811.439</ele>
        <time>2021-09-19T09:23:46Z</time>
      </trkpt>
      <trkpt lat="36.774495" lon="-5.094651">
        <ele>811.865</ele>
        <time>2021-09-19T09:23:48Z</time>
      </trkpt>
      <trkpt lat="36.774553" lon="-5.094480">
        <ele>812.433</ele>
        <time>2021-09-19T09:23:53Z</time>
      </trkpt>
      <trkpt lat="36.774596" lon="-5.094339">
        <ele>813.075</ele>
        <time>2021-09-19T09:23:57Z</time>
      </trkpt>
      <trkpt lat="36.774618" lon="-5.094269">
        <ele>813.438</ele>
        <time>2021-09-19T09:23:59Z</time>
      </trkpt>
      <trkpt lat="36.774670" lon="-5.094136">
        <ele>814.654</ele>
        <time>2021-09-19T09:24:03Z</time>
      </trkpt>
      <trkpt lat="36.774722" lon="-5.094050">
        <ele>815.257</ele>
        <time>2021-09-19T09:24:06Z</time>
      </trkpt>
      <trkpt lat="36.774764" lon="-5.094003">
        <ele>815.864</ele>
        <time>2021-09-19T09:24:08Z</time>
      </trkpt>
      <trkpt lat="36.774883" lon="-5.093907">
        <ele>817.047</ele>
        <time>2021-09-19T09:24:13Z</time>
      </trkpt>
      <trkpt lat="36.774910" lon="-5.093891">
        <ele>817.229</ele>
        <time>2021-09-19T09:24:14Z</time>
      </trkpt>
      <trkpt lat="36.775022" lon="-5.093841">
        <ele>818.221</ele>
        <time>2021-09-19T09:24:18Z</time>
      </trkpt>
      <trkpt lat="36.775101" lon="-5.093811">
        <ele>819.208</ele>
        <time>2021-09-19T09:24:21Z</time>
      </trkpt>
      <trkpt lat="36.775126" lon="-5.093801">
        <ele>819.442</ele>
        <time>2021-09-19T09:24:22Z</time>
      </trkpt>
      <trkpt lat="36.775199" lon="-5.093776">
        <ele>820.228</ele>
        <time>2021-09-19T09:24:25Z</time>
      </trkpt>
      <trkpt lat="36.775303" lon="-5.093747">
        <ele>821.216</ele>
        <time>2021-09-19T09:24:29Z</time>
      </trkpt>
      <trkpt lat="36.775358" lon="-5.093731">
        <ele>821.648</ele>
        <time>2021-09-19T09:24:31Z</time>
      </trkpt>
      <trkpt lat="36.775478" lon="-5.093693">
        <ele>822.451</ele>
        <time>2021-09-19T09:24:35Z</time>
      </trkpt>
      <trkpt lat="36.775539" lon="-5.093675">
        <ele>822.817</ele>
        <time>2021-09-19T09:24:37Z</time>
      </trkpt>
      <trkpt lat="36.775626" lon="-5.093650">
        <ele>823.490</ele>
        <time>2021-09-19T09:24:40Z</time>
      </trkpt>
      <trkpt lat="36.775739" lon="-5.093616">
        <ele>824.497</ele>
        <time>2021-09-19T09:24:44Z</time>
      </trkpt>
      <trkpt lat="36.775819" lon="-5.093591">
        <ele>825.012</ele>
        <time>2021-09-19T09:24:47Z</time>
      </trkpt>
      <trkpt lat="36.775900" lon="-5.093570">
        <ele>825.632</ele>
        <time>2021-09-19T09:24:50Z</time>
      </trkpt>
      <trkpt lat="36.776010" lon="-5.093546">
        <ele>826.805</ele>
        <time>2021-09-19T09:24:54Z</time>
      </trkpt>
      <trkpt lat="36.776038" lon="-5.093538">
        <ele>827.008</ele>
        <time>2021-09-19T09:24:55Z</time>
      </trkpt>
      <trkpt lat="36.776119" lon="-5.093516">
        <ele>827.899</ele>
        <time>2021-09-19T09:24:58Z</time>
      </trkpt>
      <trkpt lat="36.776202" lon="-5.093499">
        <ele>828.695</ele>
        <time>2021-09-19T09:25:01Z</time>
      </trkpt>
      <trkpt lat="36.776260" lon="-5.093487">
        <ele>829.073</ele>
        <time>2021-09-19T09:25:03Z</time>
      </trkpt>
      <trkpt lat="36.776372" lon="-5.093465">
        <ele>830.095</ele>
        <time>2021-09-19T09:25:07Z</time>
      </trkpt>
      <trkpt lat="36.776483" lon="-5.093450">
        <ele>831.298</ele>
        <time>2021-09-19T09:25:11Z</time>
      </trkpt>
      <trkpt lat="36.776622" lon="-5.093431">
        <ele>832.234</ele>
        <time>2021-09-19T09:25:16Z</time>
      </trkpt>
      <trkpt lat="36.776761" lon="-5.093412">
        <ele>833.277</ele>
        <time>2021-09-19T09:25:21Z</time>
      </trkpt>
      <trkpt lat="36.776900" lon="-5.093385">
        <ele>834.614</ele>
        <time>2021-09-19T09:25:26Z</time>
      </trkpt>
      <trkpt lat="36.777034" lon="-5.093334">
        <ele>835.843</ele>
        <time>2021-09-19T09:25:31Z</time>
      </trkpt>
      <trkpt lat="36.777168" lon="-5.093249">
        <ele>837.064</ele>
        <time>2021-09-19T09:25:36Z</time>
      </trkpt>
      <trkpt lat="36.777301" lon="-5.093162">
        <ele>838.010</ele>
        <time>2021-09-19T09:25:41Z</time>
      </trkpt>
      <trkpt lat="36.777326" lon="-5.093143">
        <ele>838.208</ele>
        <time>2021-09-19T09:25:42Z</time>
      </trkpt>
      <trkpt lat="36.777537" lon="-5.092950">
        <ele>839.022</ele>
        <time>2021-09-19T09:25:50Z</time>
      </trkpt>
      <trkpt lat="36.777641" lon="-5.092675">
        <ele>839.898</ele>
        <time>2021-09-19T09:25:57Z</time>
      </trkpt>
      <trkpt lat="36.777656" lon="-5.092589">
        <ele>840.096</ele>
        <time>2021-09-19T09:25:59Z</time>
      </trkpt>
      <trkpt lat="36.777689" lon="-5.092387">
        <ele>841.278</ele>
        <time>2021-09-19T09:26:04Z</time>
      </trkpt>
      <trkpt lat="36.777700" lon="-5.092309">
        <ele>841.881</ele>
        <time>2021-09-19T09:26:06Z</time>
      </trkpt>
      <trkpt lat="36.777698" lon="-5.092187">
        <ele>842.417</ele>
        <time>2021-09-19T09:26:09Z</time>
      </trkpt>
      <trkpt lat="36.777670" lon="-5.092064">
        <ele>843.010</ele>
        <time>2021-09-19T09:26:12Z</time>
      </trkpt>
      <trkpt lat="36.777625" lon="-5.091952">
        <ele>843.417</ele>
        <time>2021-09-19T09:26:15Z</time>
      </trkpt>
      <trkpt lat="36.777561" lon="-5.091835">
        <ele>844.072</ele>
        <time>2021-09-19T09:26:18Z</time>
      </trkpt>
      <trkpt lat="36.777477" lon="-5.091722">
        <ele>844.613</ele>
        <time>2021-09-19T09:26:21Z</time>
      </trkpt>
      <trkpt lat="36.777291" lon="-5.091517">
        <ele>845.214</ele>
        <time>2021-09-19T09:26:27Z</time>
      </trkpt>
      <trkpt lat="36.777126" lon="-5.091364">
        <ele>845.608</ele>
        <time>2021-09-19T09:26:32Z</time>
      </trkpt>
      <trkpt lat="36.777032" lon="-5.091273">
        <ele>846.015</ele>
        <time>2021-09-19T09:26:35Z</time>
      </trkpt>
      <trkpt lat="36.776875" lon="-5.091119">
        <ele>846.651</ele>
        <time>2021-09-19T09:26:40Z</time>
      </trkpt>
      <trkpt lat="36.776748" lon="-5.090989">
        <ele>847.259</ele>
        <time>2021-09-19T09:26:44Z</time>
      </trkpt>
      <trkpt lat="36.776573" lon="-5.090783">
        <ele>847.481</ele>
        <time>2021-09-19T09:26:50Z</time>
      </trkpt>
      <trkpt lat="36.776385" lon="-5.090599">
        <ele>847.694</ele>
        <time>2021-09-19T09:26:56Z</time>
      </trkpt>
      <trkpt lat="36.776355" lon="-5.090565">
        <ele>847.660</ele>
        <time>2021-09-19T09:26:57Z</time>
      </trkpt>
      <trkpt lat="36.776117" lon="-5.090299">
        <ele>848.413</ele>
        <time>2021-09-19T09:27:05Z</time>
      </trkpt>
      <trkpt lat="36.776087" lon="-5.090267">
        <ele>848.810</ele>
        <time>2021-09-19T09:27:06Z</time>
      </trkpt>
      <trkpt lat="36.775907" lon="-5.090068">
        <ele>850.058</ele>
        <time>2021-09-19T09:27:12Z</time>
      </trkpt>
      <trkpt lat="36.775819" lon="-5.089970">
        <ele>850.452</ele>
        <time>2021-09-19T09:27:15Z</time>
      </trkpt>
      <trkpt lat="36.775667" lon="-5.089802">
        <ele>851.017</ele>
        <time>2021-09-19T09:27:20Z</time>
      </trkpt>
      <trkpt lat="36.775574" lon="-5.089695">
        <ele>851.008</ele>
        <time>2021-09-19T09:27:23Z</time>
      </trkpt>
      <trkpt lat="36.775384" lon="-5.089497">
        <ele>851.473</ele>
        <time>2021-09-19T09:27:29Z</time>
      </trkpt>
      <trkpt lat="36.775279" lon="-5.089415">
        <ele>851.429</ele>
        <time>2021-09-19T09:27:32Z</time>
      </trkpt>
      <trkpt lat="36.775070" lon="-5.089298">
        <ele>851.637</ele>
        <time>2021-09-19T09:27:38Z</time>
      </trkpt>
      <trkpt lat="36.775037" lon="-5.089271">
        <ele>851.689</ele>
        <time>2021-09-19T09:27:39Z</time>
      </trkpt>
      <trkpt lat="36.774902" lon="-5.089141">
        <ele>851.882</ele>
        <time>2021-09-19T09:27:43Z</time>
      </trkpt>
      <trkpt lat="36.774838" lon="-5.089065">
        <ele>851.878</ele>
        <time>2021-09-19T09:27:45Z</time>
      </trkpt>
      <trkpt lat="36.774807" lon="-5.089027">
        <ele>852.041</ele>
        <time>2021-09-19T09:27:46Z</time>
      </trkpt>
      <trkpt lat="36.774619" lon="-5.088799">
        <ele>852.468</ele>
        <time>2021-09-19T09:27:52Z</time>
      </trkpt>
      <trkpt lat="36.774420" lon="-5.088537">
        <ele>852.892</ele>
        <time>2021-09-19T09:27:59Z</time>
      </trkpt>
      <trkpt lat="36.774332" lon="-5.088432">
        <ele>852.873</ele>
        <time>2021-09-19T09:28:02Z</time>
      </trkpt>
      <trkpt lat="36.774147" lon="-5.088238">
        <ele>853.220</ele>
        <time>2021-09-19T09:28:08Z</time>
      </trkpt>
      <trkpt lat="36.773963" lon="-5.088059">
        <ele>854.008</ele>
        <time>2021-09-19T09:28:14Z</time>
      </trkpt>
      <trkpt lat="36.773901" lon="-5.087999">
        <ele>854.437</ele>
        <time>2021-09-19T09:28:16Z</time>
      </trkpt>
      <trkpt lat="36.773745" lon="-5.087854">
        <ele>855.083</ele>
        <time>2021-09-19T09:28:21Z</time>
      </trkpt>
      <trkpt lat="36.773684" lon="-5.087794">
        <ele>855.471</ele>
        <time>2021-09-19T09:28:23Z</time>
      </trkpt>
      <trkpt lat="36.773560" lon="-5.087675">
        <ele>856.253</ele>
        <time>2021-09-19T09:28:27Z</time>
      </trkpt>
      <trkpt lat="36.773435" lon="-5.087548">
        <ele>856.636</ele>
        <time>2021-09-19T09:28:31Z</time>
      </trkpt>
      <trkpt lat="36.773404" lon="-5.087515">
        <ele>856.652</ele>
        <time>2021-09-19T09:28:32Z</time>
      </trkpt>
      <trkpt lat="36.773198" lon="-5.087312">
        <ele>857.015</ele>
        <time>2021-09-19T09:28:39Z</time>
      </trkpt>
      <trkpt lat="36.773140" lon="-5.087255">
        <ele>857.262</ele>
        <time>2021-09-19T09:28:41Z</time>
      </trkpt>
      <trkpt lat="36.773023" lon="-5.087143">
        <ele>858.039</ele>
        <time>2021-09-19T09:28:45Z</time>
      </trkpt>
      <trkpt lat="36.772962" lon="-5.087084">
        <ele>858.201</ele>
        <time>2021-09-19T09:28:47Z</time>
      </trkpt>
      <trkpt lat="36.772821" lon="-5.086957">
        <ele>858.821</ele>
        <time>2021-09-19T09:28:52Z</time>
      </trkpt>
      <trkpt lat="36.772769" lon="-5.086906">
        <ele>859.408</ele>
        <time>2021-09-19T09:28:54Z</time>
      </trkpt>
      <trkpt lat="36.772640" lon="-5.086783">
        <ele>860.471</ele>
        <time>2021-09-19T09:28:59Z</time>
      </trkpt>
      <trkpt lat="36.772563" lon="-5.086711">
        <ele>860.827</ele>
        <time>2021-09-19T09:29:02Z</time>
      </trkpt>
      <trkpt lat="36.772457" lon="-5.086610">
        <ele>861.225</ele>
        <time>2021-09-19T09:29:06Z</time>
      </trkpt>
      <trkpt lat="36.772379" lon="-5.086534">
        <ele>861.837</ele>
        <time>2021-09-19T09:29:09Z</time>
      </trkpt>
      <trkpt lat="36.772188" lon="-5.086303">
        <ele>862.490</ele>
        <time>2021-09-19T09:29:17Z</time>
      </trkpt>
      <trkpt lat="36.772106" lon="-5.086060">
        <ele>863.456</ele>
        <time>2021-09-19T09:29:23Z</time>
      </trkpt>
      <trkpt lat="36.772097" lon="-5.086015">
        <ele>863.669</ele>
        <time>2021-09-19T09:29:24Z</time>
      </trkpt>
      <trkpt lat="36.772119" lon="-5.085781">
        <ele>863.876</ele>
        <time>2021-09-19T09:29:29Z</time>
      </trkpt>
      <trkpt lat="36.772141" lon="-5.085738">
        <ele>864.098</ele>
        <time>2021-09-19T09:29:30Z</time>
      </trkpt>
      <trkpt lat="36.772273" lon="-5.085606">
        <ele>863.815</ele>
        <time>2021-09-19T09:29:34Z</time>
      </trkpt>
      <trkpt lat="36.772315" lon="-5.085583">
        <ele>863.826</ele>
        <time>2021-09-19T09:29:35Z</time>
      </trkpt>
      <trkpt lat="36.772483" lon="-5.085482">
        <ele>863.808</ele>
        <time>2021-09-19T09:29:39Z</time>
      </trkpt>
      <trkpt lat="36.772551" lon="-5.085411">
        <ele>864.027</ele>
        <time>2021-09-19T09:29:41Z</time>
      </trkpt>
      <trkpt lat="36.772617" lon="-5.085238">
        <ele>864.023</ele>
        <time>2021-09-19T09:29:45Z</time>
      </trkpt>
      <trkpt lat="36.772625" lon="-5.085192">
        <ele>864.051</ele>
        <time>2021-09-19T09:29:46Z</time>
      </trkpt>
      <trkpt lat="36.772657" lon="-5.084980">
        <ele>864.243</ele>
        <time>2021-09-19T09:29:51Z</time>
      </trkpt>
      <trkpt lat="36.772664" lon="-5.084940">
        <ele>864.436</ele>
        <time>2021-09-19T09:29:52Z</time>
      </trkpt>
      <trkpt lat="36.772682" lon="-5.084782">
        <ele>865.422</ele>
        <time>2021-09-19T09:29:56Z</time>
      </trkpt>
      <trkpt lat="36.772692" lon="-5.084665">
        <ele>866.285</ele>
        <time>2021-09-19T09:29:59Z</time>
      </trkpt>
      <trkpt lat="36.772695" lon="-5.084629">
        <ele>866.492</ele>
        <time>2021-09-19T09:30:00Z</time>
      </trkpt>
      <trkpt lat="36.772715" lon="-5.084521">
        <ele>867.215</ele>
        <time>2021-09-19T09:30:03Z</time>
      </trkpt>
      <trkpt lat="36.772719" lon="-5.084486">
        <ele>867.465</ele>
        <time>2021-09-19T09:30:04Z</time>
      </trkpt>
      <trkpt lat="36.772726" lon="-5.084417">
        <ele>868.011</ele>
        <time>2021-09-19T09:30:06Z</time>
      </trkpt>
      <trkpt lat="36.772735" lon="-5.084348">
        <ele>868.408</ele>
        <time>2021-09-19T09:30:08Z</time>
      </trkpt>
      <trkpt lat="36.772759" lon="-5.084197">
        <ele>869.419</ele>
        <time>2021-09-19T09:30:12Z</time>
      </trkpt>
      <trkpt lat="36.772765" lon="-5.084160">
        <ele>869.685</ele>
        <time>2021-09-19T09:30:13Z</time>
      </trkpt>
      <trkpt lat="36.772801" lon="-5.084013">
        <ele>870.853</ele>
        <time>2021-09-19T09:30:17Z</time>
      </trkpt>
      <trkpt lat="36.772833" lon="-5.083910">
        <ele>871.625</ele>
        <time>2021-09-19T09:30:20Z</time>
      </trkpt>
      <trkpt lat="36.772857" lon="-5.083845">
        <ele>872.428</ele>
        <time>2021-09-19T09:30:22Z</time>
      </trkpt>
      <trkpt lat="36.772870" lon="-5.083812">
        <ele>872.834</ele>
        <time>2021-09-19T09:30:23Z</time>
      </trkpt>
      <trkpt lat="36.772956" lon="-5.083601">
        <ele>874.017</ele>
        <time>2021-09-19T09:30:30Z</time>
      </trkpt>
      <trkpt lat="36.772968" lon="-5.083573">
        <ele>874.044</ele>
        <time>2021-09-19T09:30:31Z</time>
      </trkpt>
      <trkpt lat="36.773026" lon="-5.083429">
        <ele>875.051</ele>
        <time>2021-09-19T09:30:36Z</time>
      </trkpt>
      <trkpt lat="36.773072" lon="-5.083346">
        <ele>876.001</ele>
        <time>2021-09-19T09:30:39Z</time>
      </trkpt>
      <trkpt lat="36.773088" lon="-5.083319">
        <ele>876.011</ele>
        <time>2021-09-19T09:30:40Z</time>
      </trkpt>
      <trkpt lat="36.773202" lon="-5.083168">
        <ele>877.208</ele>
        <time>2021-09-19T09:30:46Z</time>
      </trkpt>
      <trkpt lat="36.773261" lon="-5.083095">
        <ele>877.693</ele>
        <time>2021-09-19T09:30:49Z</time>
      </trkpt>
      <trkpt lat="36.773317" lon="-5.083023">
        <ele>878.219</ele>
        <time>2021-09-19T09:30:52Z</time>
      </trkpt>
      <trkpt lat="36.773391" lon="-5.082934">
        <ele>879.257</ele>
        <time>2021-09-19T09:30:56Z</time>
      </trkpt>
      <trkpt lat="36.773425" lon="-5.082891">
        <ele>879.889</ele>
        <time>2021-09-19T09:30:58Z</time>
      </trkpt>
      <trkpt lat="36.773478" lon="-5.082824">
        <ele>880.432</ele>
        <time>2021-09-19T09:31:01Z</time>
      </trkpt>
      <trkpt lat="36.773556" lon="-5.082708">
        <ele>881.488</ele>
        <time>2021-09-19T09:31:06Z</time>
      </trkpt>
      <trkpt lat="36.773600" lon="-5.082634">
        <ele>882.481</ele>
        <time>2021-09-19T09:31:09Z</time>
      </trkpt>
      <trkpt lat="36.773613" lon="-5.082609">
        <ele>882.638</ele>
        <time>2021-09-19T09:31:10Z</time>
      </trkpt>
      <trkpt lat="36.773683" lon="-5.082450">
        <ele>883.695</ele>
        <time>2021-09-19T09:31:16Z</time>
      </trkpt>
      <trkpt lat="36.773693" lon="-5.082422">
        <ele>883.849</ele>
        <time>2021-09-19T09:31:17Z</time>
      </trkpt>
      <trkpt lat="36.773728" lon="-5.082314">
        <ele>884.623</ele>
        <time>2021-09-19T09:31:21Z</time>
      </trkpt>
      <trkpt lat="36.773756" lon="-5.082218">
        <ele>885.408</ele>
        <time>2021-09-19T09:31:25Z</time>
      </trkpt>
      <trkpt lat="36.773769" lon="-5.082171">
        <ele>885.867</ele>
        <time>2021-09-19T09:31:27Z</time>
      </trkpt>
      <trkpt lat="36.773784" lon="-5.082063">
        <ele>887.023</ele>
        <time>2021-09-19T09:31:31Z</time>
      </trkpt>
      <trkpt lat="36.773785" lon="-5.082032">
        <ele>887.281</ele>
        <time>2021-09-19T09:31:32Z</time>
      </trkpt>
      <trkpt lat="36.773787" lon="-5.082001">
        <ele>887.213</ele>
        <time>2021-09-19T09:31:33Z</time>
      </trkpt>
      <trkpt lat="36.773789" lon="-5.081875">
        <ele>888.046</ele>
        <time>2021-09-19T09:31:37Z</time>
      </trkpt>
      <trkpt lat="36.773779" lon="-5.081723">
        <ele>889.072</ele>
        <time>2021-09-19T09:31:42Z</time>
      </trkpt>
      <trkpt lat="36.773775" lon="-5.081693">
        <ele>889.295</ele>
        <time>2021-09-19T09:31:43Z</time>
      </trkpt>
      <trkpt lat="36.773753" lon="-5.081575">
        <ele>890.082</ele>
        <time>2021-09-19T09:31:47Z</time>
      </trkpt>
      <trkpt lat="36.773713" lon="-5.081438">
        <ele>891.277</ele>
        <time>2021-09-19T09:31:52Z</time>
      </trkpt>
      <trkpt lat="36.773704" lon="-5.081411">
        <ele>891.461</ele>
        <time>2021-09-19T09:31:53Z</time>
      </trkpt>
      <trkpt lat="36.773668" lon="-5.081305">
        <ele>892.427</ele>
        <time>2021-09-19T09:31:57Z</time>
      </trkpt>
      <trkpt lat="36.773629" lon="-5.081169">
        <ele>893.408</ele>
        <time>2021-09-19T09:32:02Z</time>
      </trkpt>
      <trkpt lat="36.773601" lon="-5.081084">
        <ele>894.615</ele>
        <time>2021-09-19T09:32:05Z</time>
      </trkpt>
      <trkpt lat="36.773565" lon="-5.080971">
        <ele>895.611</ele>
        <time>2021-09-19T09:32:09Z</time>
      </trkpt>
      <trkpt lat="36.773550" lon="-5.080918">
        <ele>896.279</ele>
        <time>2021-09-19T09:32:11Z</time>
      </trkpt>
      <trkpt lat="36.773521" lon="-5.080837">
        <ele>896.681</ele>
        <time>2021-09-19T09:32:14Z</time>
      </trkpt>
      <trkpt lat="36.773493" lon="-5.080720">
        <ele>897.624</ele>
        <time>2021-09-19T09:32:18Z</time>
      </trkpt>
      <trkpt lat="36.773485" lon="-5.080692">
        <ele>897.830</ele>
        <time>2021-09-19T09:32:19Z</time>
      </trkpt>
      <trkpt lat="36.773441" lon="-5.080485">
        <ele>898.833</ele>
        <time>2021-09-19T09:32:26Z</time>
      </trkpt>
      <trkpt lat="36.773436" lon="-5.080455">
        <ele>899.250</ele>
        <time>2021-09-19T09:32:27Z</time>
      </trkpt>
      <trkpt lat="36.773415" lon="-5.080301">
        <ele>900.425</ele>
        <time>2021-09-19T09:32:32Z</time>
      </trkpt>
      <trkpt lat="36.773414" lon="-5.080173">
        <ele>901.426</ele>
        <time>2021-09-19T09:32:36Z</time>
      </trkpt>
      <trkpt lat="36.773414" lon="-5.080143">
        <ele>901.608</ele>
        <time>2021-09-19T09:32:37Z</time>
      </trkpt>
      <trkpt lat="36.773414" lon="-5.080022">
        <ele>902.408</ele>
        <time>2021-09-19T09:32:41Z</time>
      </trkpt>
      <trkpt lat="36.773408" lon="-5.079902">
        <ele>903.290</ele>
        <time>2021-09-19T09:32:45Z</time>
      </trkpt>
      <trkpt lat="36.773403" lon="-5.079844">
        <ele>903.466</ele>
        <time>2021-09-19T09:32:47Z</time>
      </trkpt>
      <trkpt lat="36.773378" lon="-5.079703">
        <ele>904.874</ele>
        <time>2021-09-19T09:32:52Z</time>
      </trkpt>
      <trkpt lat="36.773368" lon="-5.079679">
        <ele>904.886</ele>
        <time>2021-09-19T09:32:53Z</time>
      </trkpt>
      <trkpt lat="36.773315" lon="-5.079578">
        <ele>906.029</ele>
        <time>2021-09-19T09:32:58Z</time>
      </trkpt>
      <trkpt lat="36.773302" lon="-5.079559">
        <ele>906.275</ele>
        <time>2021-09-19T09:32:59Z</time>
      </trkpt>
      <trkpt lat="36.773260" lon="-5.079503">
        <ele>907.028</ele>
        <time>2021-09-19T09:33:02Z</time>
      </trkpt>
      <trkpt lat="36.773183" lon="-5.079411">
        <ele>908.065</ele>
        <time>2021-09-19T09:33:07Z</time>
      </trkpt>
      <trkpt lat="36.773169" lon="-5.079388">
        <ele>908.287</ele>
        <time>2021-09-19T09:33:08Z</time>
      </trkpt>
      <trkpt lat="36.773129" lon="-5.079245">
        <ele>909.442</ele>
        <time>2021-09-19T09:33:13Z</time>
      </trkpt>
      <trkpt lat="36.773149" lon="-5.079053">
        <ele>910.626</ele>
        <time>2021-09-19T09:33:19Z</time>
      </trkpt>
      <trkpt lat="36.773159" lon="-5.079021">
        <ele>910.808</ele>
        <time>2021-09-19T09:33:20Z</time>
      </trkpt>
      <trkpt lat="36.773208" lon="-5.078870">
        <ele>911.896</ele>
        <time>2021-09-19T09:33:25Z</time>
      </trkpt>
      <trkpt lat="36.773256" lon="-5.078728">
        <ele>912.812</ele>
        <time>2021-09-19T09:33:30Z</time>
      </trkpt>
      <trkpt lat="36.773265" lon="-5.078699">
        <ele>913.040</ele>
        <time>2021-09-19T09:33:31Z</time>
      </trkpt>
      <trkpt lat="36.773315" lon="-5.078532">
        <ele>914.072</ele>
        <time>2021-09-19T09:33:37Z</time>
      </trkpt>
      <trkpt lat="36.773326" lon="-5.078505">
        <ele>914.065</ele>
        <time>2021-09-19T09:33:38Z</time>
      </trkpt>
      <trkpt lat="36.773364" lon="-5.078398">
        <ele>914.821</ele>
        <time>2021-09-19T09:33:42Z</time>
      </trkpt>
      <trkpt lat="36.773400" lon="-5.078287">
        <ele>915.634</ele>
        <time>2021-09-19T09:33:46Z</time>
      </trkpt>
      <trkpt lat="36.773416" lon="-5.078229">
        <ele>916.041</ele>
        <time>2021-09-19T09:33:48Z</time>
      </trkpt>
      <trkpt lat="36.773459" lon="-5.078087">
        <ele>917.067</ele>
        <time>2021-09-19T09:33:53Z</time>
      </trkpt>
      <trkpt lat="36.773476" lon="-5.078033">
        <ele>917.481</ele>
        <time>2021-09-19T09:33:55Z</time>
      </trkpt>
      <trkpt lat="36.773489" lon="-5.077980">
        <ele>918.219</ele>
        <time>2021-09-19T09:33:57Z</time>
      </trkpt>
      <trkpt lat="36.773520" lon="-5.077846">
        <ele>919.208</ele>
        <time>2021-09-19T09:34:02Z</time>
      </trkpt>
      <trkpt lat="36.773526" lon="-5.077817">
        <ele>919.454</ele>
        <time>2021-09-19T09:34:03Z</time>
      </trkpt>
      <trkpt lat="36.773566" lon="-5.077647">
        <ele>920.680</ele>
        <time>2021-09-19T09:34:09Z</time>
      </trkpt>
      <trkpt lat="36.773585" lon="-5.077594">
        <ele>921.048</ele>
        <time>2021-09-19T09:34:11Z</time>
      </trkpt>
      <trkpt lat="36.773620" lon="-5.077516">
        <ele>921.610</ele>
        <time>2021-09-19T09:34:14Z</time>
      </trkpt>
      <trkpt lat="36.773691" lon="-5.077400">
        <ele>922.873</ele>
        <time>2021-09-19T09:34:19Z</time>
      </trkpt>
      <trkpt lat="36.773723" lon="-5.077352">
        <ele>923.229</ele>
        <time>2021-09-19T09:34:21Z</time>
      </trkpt>
      <trkpt lat="36.773795" lon="-5.077263">
        <ele>924.272</ele>
        <time>2021-09-19T09:34:25Z</time>
      </trkpt>
      <trkpt lat="36.773881" lon="-5.077192">
        <ele>925.079</ele>
        <time>2021-09-19T09:34:29Z</time>
      </trkpt>
      <trkpt lat="36.773904" lon="-5.077180">
        <ele>925.269</ele>
        <time>2021-09-19T09:34:30Z</time>
      </trkpt>
      <trkpt lat="36.774026" lon="-5.077138">
        <ele>926.404</ele>
        <time>2021-09-19T09:34:35Z</time>
      </trkpt>
      <trkpt lat="36.774075" lon="-5.077129">
        <ele>926.624</ele>
        <time>2021-09-19T09:34:37Z</time>
      </trkpt>
      <trkpt lat="36.774182" lon="-5.077137">
        <ele>927.408</ele>
        <time>2021-09-19T09:34:41Z</time>
      </trkpt>
      <trkpt lat="36.774271" lon="-5.077142">
        <ele>928.234</ele>
        <time>2021-09-19T09:34:44Z</time>
      </trkpt>
      <trkpt lat="36.774339" lon="-5.077152">
        <ele>928.690</ele>
        <time>2021-09-19T09:34:46Z</time>
      </trkpt>
      <trkpt lat="36.774451" lon="-5.077163">
        <ele>928.898</ele>
        <time>2021-09-19T09:34:49Z</time>
      </trkpt>
      <trkpt lat="36.774530" lon="-5.077171">
        <ele>929.060</ele>
        <time>2021-09-19T09:34:51Z</time>
      </trkpt>
      <trkpt lat="36.774813" lon="-5.077196">
        <ele>929.033</ele>
        <time>2021-09-19T09:34:57Z</time>
      </trkpt>
      <trkpt lat="36.774928" lon="-5.077200">
        <ele>929.049</ele>
        <time>2021-09-19T09:34:59Z</time>
      </trkpt>
      <trkpt lat="36.775123" lon="-5.077149">
        <ele>928.812</ele>
        <time>2021-09-19T09:35:02Z</time>
      </trkpt>
      <trkpt lat="36.775306" lon="-5.076984">
        <ele>928.449</ele>
        <time>2021-09-19T09:35:05Z</time>
      </trkpt>
      <trkpt lat="36.775458" lon="-5.076736">
        <ele>927.631</ele>
        <time>2021-09-19T09:35:08Z</time>
      </trkpt>
      <trkpt lat="36.775493" lon="-5.076640">
        <ele>926.861</ele>
        <time>2021-09-19T09:35:09Z</time>
      </trkpt>
      <trkpt lat="36.775523" lon="-5.076543">
        <ele>926.207</ele>
        <time>2021-09-19T09:35:10Z</time>
      </trkpt>
      <trkpt lat="36.775552" lon="-5.076446">
        <ele>925.808</ele>
        <time>2021-09-19T09:35:11Z</time>
      </trkpt>
      <trkpt lat="36.775609" lon="-5.076250">
        <ele>924.631</ele>
        <time>2021-09-19T09:35:13Z</time>
      </trkpt>
      <trkpt lat="36.775689" lon="-5.075953">
        <ele>922.837</ele>
        <time>2021-09-19T09:35:16Z</time>
      </trkpt>
      <trkpt lat="36.775717" lon="-5.075855">
        <ele>922.445</ele>
        <time>2021-09-19T09:35:17Z</time>
      </trkpt>
      <trkpt lat="36.775800" lon="-5.075562">
        <ele>921.877</ele>
        <time>2021-09-19T09:35:20Z</time>
      </trkpt>
      <trkpt lat="36.775827" lon="-5.075464">
        <ele>920.680</ele>
        <time>2021-09-19T09:35:21Z</time>
      </trkpt>
      <trkpt lat="36.775939" lon="-5.075073">
        <ele>919.476</ele>
        <time>2021-09-19T09:35:25Z</time>
      </trkpt>
      <trkpt lat="36.775966" lon="-5.074977">
        <ele>919.459</ele>
        <time>2021-09-19T09:35:26Z</time>
      </trkpt>
      <trkpt lat="36.776095" lon="-5.074527">
        <ele>918.466</ele>
        <time>2021-09-19T09:35:31Z</time>
      </trkpt>
      <trkpt lat="36.776144" lon="-5.074364">
        <ele>918.284</ele>
        <time>2021-09-19T09:35:33Z</time>
      </trkpt>
      <trkpt lat="36.776280" lon="-5.073890">
        <ele>918.007</ele>
        <time>2021-09-19T09:35:39Z</time>
      </trkpt>
      <trkpt lat="36.776390" lon="-5.073509">
        <ele>917.617</ele>
        <time>2021-09-19T09:35:44Z</time>
      </trkpt>
      <trkpt lat="36.776536" lon="-5.072988">
        <ele>917.808</ele>
        <time>2021-09-19T09:35:51Z</time>
      </trkpt>
      <trkpt lat="36.776555" lon="-5.072920">
        <ele>917.816</ele>
        <time>2021-09-19T09:35:52Z</time>
      </trkpt>
      <trkpt lat="36.776671" lon="-5.072479">
        <ele>918.222</ele>
        <time>2021-09-19T09:35:59Z</time>
      </trkpt>
      <trkpt lat="36.776737" lon="-5.072114">
        <ele>918.850</ele>
        <time>2021-09-19T09:36:05Z</time>
      </trkpt>
      <trkpt lat="36.776752" lon="-5.071990">
        <ele>919.262</ele>
        <time>2021-09-19T09:36:07Z</time>
      </trkpt>
      <trkpt lat="36.776773" lon="-5.071867">
        <ele>919.655</ele>
        <time>2021-09-19T09:36:09Z</time>
      </trkpt>
      <trkpt lat="36.776806" lon="-5.071638">
        <ele>920.431</ele>
        <time>2021-09-19T09:36:13Z</time>
      </trkpt>
      <trkpt lat="36.776832" lon="-5.071473">
        <ele>920.694</ele>
        <time>2021-09-19T09:36:16Z</time>
      </trkpt>
      <trkpt lat="36.776904" lon="-5.070983">
        <ele>921.451</ele>
        <time>2021-09-19T09:36:25Z</time>
      </trkpt>
      <trkpt lat="36.776958" lon="-5.070619">
        <ele>922.485</ele>
        <time>2021-09-19T09:36:33Z</time>
      </trkpt>
      <trkpt lat="36.776982" lon="-5.070439">
        <ele>923.689</ele>
        <time>2021-09-19T09:36:37Z</time>
      </trkpt>
      <trkpt lat="36.776996" lon="-5.070351">
        <ele>924.017</ele>
        <time>2021-09-19T09:36:39Z</time>
      </trkpt>
      <trkpt lat="36.777015" lon="-5.070213">
        <ele>924.608</ele>
        <time>2021-09-19T09:36:42Z</time>
      </trkpt>
      <trkpt lat="36.777044" lon="-5.070032">
        <ele>926.016</ele>
        <time>2021-09-19T09:36:46Z</time>
      </trkpt>
      <trkpt lat="36.777058" lon="-5.069944">
        <ele>926.632</ele>
        <time>2021-09-19T09:36:48Z</time>
      </trkpt>
      <trkpt lat="36.777069" lon="-5.069859">
        <ele>927.080</ele>
        <time>2021-09-19T09:36:50Z</time>
      </trkpt>
      <trkpt lat="36.777099" lon="-5.069630">
        <ele>928.092</ele>
        <time>2021-09-19T09:36:55Z</time>
      </trkpt>
      <trkpt lat="36.777127" lon="-5.069394">
        <ele>929.455</ele>
        <time>2021-09-19T09:37:00Z</time>
      </trkpt>
      <trkpt lat="36.777148" lon="-5.069246">
        <ele>929.811</ele>
        <time>2021-09-19T09:37:03Z</time>
      </trkpt>
      <trkpt lat="36.777178" lon="-5.069049">
        <ele>930.034</ele>
        <time>2021-09-19T09:37:07Z</time>
      </trkpt>
      <trkpt lat="36.777209" lon="-5.068852">
        <ele>930.491</ele>
        <time>2021-09-19T09:37:11Z</time>
      </trkpt>
      <trkpt lat="36.777281" lon="-5.068356">
        <ele>931.077</ele>
        <time>2021-09-19T09:37:21Z</time>
      </trkpt>
      <trkpt lat="36.777332" lon="-5.068013">
        <ele>931.261</ele>
        <time>2021-09-19T09:37:28Z</time>
      </trkpt>
      <trkpt lat="36.777353" lon="-5.067868">
        <ele>931.427</ele>
        <time>2021-09-19T09:37:31Z</time>
      </trkpt>
      <trkpt lat="36.777385" lon="-5.067650">
        <ele>931.608</ele>
        <time>2021-09-19T09:37:36Z</time>
      </trkpt>
      <trkpt lat="36.777427" lon="-5.067397">
        <ele>932.445</ele>
        <time>2021-09-19T09:37:42Z</time>
      </trkpt>
      <trkpt lat="36.777441" lon="-5.067282">
        <ele>933.051</ele>
        <time>2021-09-19T09:37:45Z</time>
      </trkpt>
      <trkpt lat="36.777454" lon="-5.067174">
        <ele>933.689</ele>
        <time>2021-09-19T09:37:48Z</time>
      </trkpt>
      <trkpt lat="36.777480" lon="-5.066997">
        <ele>934.891</ele>
        <time>2021-09-19T09:37:53Z</time>
      </trkpt>
      <trkpt lat="36.777502" lon="-5.066864">
        <ele>935.834</ele>
        <time>2021-09-19T09:37:57Z</time>
      </trkpt>
      <trkpt lat="36.777513" lon="-5.066734">
        <ele>936.810</ele>
        <time>2021-09-19T09:38:01Z</time>
      </trkpt>
      <trkpt lat="36.777536" lon="-5.066606">
        <ele>937.853</ele>
        <time>2021-09-19T09:38:05Z</time>
      </trkpt>
      <trkpt lat="36.777564" lon="-5.066445">
        <ele>939.080</ele>
        <time>2021-09-19T09:38:10Z</time>
      </trkpt>
      <trkpt lat="36.777600" lon="-5.066244">
        <ele>940.276</ele>
        <time>2021-09-19T09:38:16Z</time>
      </trkpt>
      <trkpt lat="36.777685" lon="-5.066043">
        <ele>941.490</ele>
        <time>2021-09-19T09:38:22Z</time>
      </trkpt>
      <trkpt lat="36.777731" lon="-5.065977">
        <ele>941.819</ele>
        <time>2021-09-19T09:38:24Z</time>
      </trkpt>
      <trkpt lat="36.777818" lon="-5.065878">
        <ele>942.608</ele>
        <time>2021-09-19T09:38:27Z</time>
      </trkpt>
      <trkpt lat="36.777946" lon="-5.065730">
        <ele>943.035</ele>
        <time>2021-09-19T09:38:31Z</time>
      </trkpt>
      <trkpt lat="36.778291" lon="-5.065370">
        <ele>943.431</ele>
        <time>2021-09-19T09:38:41Z</time>
      </trkpt>
      <trkpt lat="36.778609" lon="-5.065038">
        <ele>943.489</ele>
        <time>2021-09-19T09:38:50Z</time>
      </trkpt>
      <trkpt lat="36.778715" lon="-5.064927">
        <ele>943.651</ele>
        <time>2021-09-19T09:38:53Z</time>
      </trkpt>
      <trkpt lat="36.778880" lon="-5.064753">
        <ele>943.694</ele>
        <time>2021-09-19T09:38:58Z</time>
      </trkpt>
      <trkpt lat="36.779002" lon="-5.064628">
        <ele>943.880</ele>
        <time>2021-09-19T09:39:02Z</time>
      </trkpt>
      <trkpt lat="36.779245" lon="-5.064377">
        <ele>944.473</ele>
        <time>2021-09-19T09:39:10Z</time>
      </trkpt>
      <trkpt lat="36.779511" lon="-5.064069">
        <ele>945.640</ele>
        <time>2021-09-19T09:39:19Z</time>
      </trkpt>
      <trkpt lat="36.779585" lon="-5.063823">
        <ele>946.235</ele>
        <time>2021-09-19T09:39:24Z</time>
      </trkpt>
      <trkpt lat="36.779591" lon="-5.063771">
        <ele>946.286</ele>
        <time>2021-09-19T09:39:25Z</time>
      </trkpt>
      <trkpt lat="36.779600" lon="-5.063506">
        <ele>946.614</ele>
        <time>2021-09-19T09:39:30Z</time>
      </trkpt>
      <trkpt lat="36.779601" lon="-5.063450">
        <ele>946.608</ele>
        <time>2021-09-19T09:39:31Z</time>
      </trkpt>
      <trkpt lat="36.779607" lon="-5.063096">
        <ele>947.431</ele>
        <time>2021-09-19T09:39:37Z</time>
      </trkpt>
      <trkpt lat="36.779609" lon="-5.062978">
        <ele>947.667</ele>
        <time>2021-09-19T09:39:39Z</time>
      </trkpt>
      <trkpt lat="36.779618" lon="-5.062306">
        <ele>948.065</ele>
        <time>2021-09-19T09:39:50Z</time>
      </trkpt>
      <trkpt lat="36.779642" lon="-5.061955">
        <ele>948.497</ele>
        <time>2021-09-19T09:39:56Z</time>
      </trkpt>
      <trkpt lat="36.779670" lon="-5.061841">
        <ele>948.460</ele>
        <time>2021-09-19T09:39:58Z</time>
      </trkpt>
      <trkpt lat="36.779733" lon="-5.061669">
        <ele>948.816</ele>
        <time>2021-09-19T09:40:01Z</time>
      </trkpt>
      <trkpt lat="36.779824" lon="-5.061511">
        <ele>949.259</ele>
        <time>2021-09-19T09:40:04Z</time>
      </trkpt>
      <trkpt lat="36.780138" lon="-5.061140">
        <ele>949.216</ele>
        <time>2021-09-19T09:40:12Z</time>
      </trkpt>
      <trkpt lat="36.780338" lon="-5.060907">
        <ele>949.299</ele>
        <time>2021-09-19T09:40:17Z</time>
      </trkpt>
      <trkpt lat="36.780672" lon="-5.060526">
        <ele>949.207</ele>
        <time>2021-09-19T09:40:25Z</time>
      </trkpt>
      <trkpt lat="36.780824" lon="-5.060350">
        <ele>949.227</ele>
        <time>2021-09-19T09:40:29Z</time>
      </trkpt>
      <trkpt lat="36.780923" lon="-5.060238">
        <ele>949.408</ele>
        <time>2021-09-19T09:40:32Z</time>
      </trkpt>
      <trkpt lat="36.781076" lon="-5.060066">
        <ele>949.887</ele>
        <time>2021-09-19T09:40:37Z</time>
      </trkpt>
      <trkpt lat="36.781134" lon="-5.059999">
        <ele>950.013</ele>
        <time>2021-09-19T09:40:39Z</time>
      </trkpt>
      <trkpt lat="36.781194" lon="-5.059933">
        <ele>950.481</ele>
        <time>2021-09-19T09:40:41Z</time>
      </trkpt>
      <trkpt lat="36.781306" lon="-5.059801">
        <ele>951.273</ele>
        <time>2021-09-19T09:40:45Z</time>
      </trkpt>
      <trkpt lat="36.781334" lon="-5.059771">
        <ele>951.676</ele>
        <time>2021-09-19T09:40:46Z</time>
      </trkpt>
      <trkpt lat="36.781464" lon="-5.059604">
        <ele>953.022</ele>
        <time>2021-09-19T09:40:51Z</time>
      </trkpt>
      <trkpt lat="36.781518" lon="-5.059540">
        <ele>953.685</ele>
        <time>2021-09-19T09:40:53Z</time>
      </trkpt>
      <trkpt lat="36.781569" lon="-5.059476">
        <ele>954.022</ele>
        <time>2021-09-19T09:40:55Z</time>
      </trkpt>
      <trkpt lat="36.781690" lon="-5.059312">
        <ele>955.043</ele>
        <time>2021-09-19T09:41:00Z</time>
      </trkpt>
      <trkpt lat="36.781760" lon="-5.059209">
        <ele>956.064</ele>
        <time>2021-09-19T09:41:03Z</time>
      </trkpt>
      <trkpt lat="36.781782" lon="-5.059175">
        <ele>956.210</ele>
        <time>2021-09-19T09:41:04Z</time>
      </trkpt>
      <trkpt lat="36.781972" lon="-5.058850">
        <ele>957.208</ele>
        <time>2021-09-19T09:41:13Z</time>
      </trkpt>
      <trkpt lat="36.782012" lon="-5.058776">
        <ele>957.422</ele>
        <time>2021-09-19T09:41:15Z</time>
      </trkpt>
      <trkpt lat="36.782144" lon="-5.058550">
        <ele>958.098</ele>
        <time>2021-09-19T09:41:21Z</time>
      </trkpt>
      <trkpt lat="36.782211" lon="-5.058435">
        <ele>958.296</ele>
        <time>2021-09-19T09:41:24Z</time>
      </trkpt>
      <trkpt lat="36.782367" lon="-5.058164">
        <ele>959.218</ele>
        <time>2021-09-19T09:41:31Z</time>
      </trkpt>
      <trkpt lat="36.782413" lon="-5.058085">
        <ele>959.451</ele>
        <time>2021-09-19T09:41:33Z</time>
      </trkpt>
      <trkpt lat="36.782593" lon="-5.057760">
        <ele>960.297</ele>
        <time>2021-09-19T09:41:41Z</time>
      </trkpt>
      <trkpt lat="36.782639" lon="-5.057679">
        <ele>960.470</ele>
        <time>2021-09-19T09:41:43Z</time>
      </trkpt>
      <trkpt lat="36.782808" lon="-5.057393">
        <ele>961.297</ele>
        <time>2021-09-19T09:41:50Z</time>
      </trkpt>
      <trkpt lat="36.782856" lon="-5.057314">
        <ele>961.653</ele>
        <time>2021-09-19T09:41:52Z</time>
      </trkpt>
      <trkpt lat="36.782968" lon="-5.057115">
        <ele>962.004</ele>
        <time>2021-09-19T09:41:57Z</time>
      </trkpt>
      <trkpt lat="36.783064" lon="-5.056901">
        <ele>962.814</ele>
        <time>2021-09-19T09:42:02Z</time>
      </trkpt>
      <trkpt lat="36.783139" lon="-5.056730">
        <ele>963.008</ele>
        <time>2021-09-19T09:42:06Z</time>
      </trkpt>
      <trkpt lat="36.783256" lon="-5.056539">
        <ele>963.413</ele>
        <time>2021-09-19T09:42:11Z</time>
      </trkpt>
      <trkpt lat="36.783423" lon="-5.056423">
        <ele>964.259</ele>
        <time>2021-09-19T09:42:16Z</time>
      </trkpt>
      <trkpt lat="36.783677" lon="-5.056362">
        <ele>964.687</ele>
        <time>2021-09-19T09:42:24Z</time>
      </trkpt>
      <trkpt lat="36.783736" lon="-5.056357">
        <ele>965.269</ele>
        <time>2021-09-19T09:42:26Z</time>
      </trkpt>
      <trkpt lat="36.783944" lon="-5.056294">
        <ele>966.262</ele>
        <time>2021-09-19T09:42:33Z</time>
      </trkpt>
      <trkpt lat="36.783972" lon="-5.056276">
        <ele>966.288</ele>
        <time>2021-09-19T09:42:34Z</time>
      </trkpt>
      <trkpt lat="36.784171" lon="-5.056128">
        <ele>967.221</ele>
        <time>2021-09-19T09:42:41Z</time>
      </trkpt>
      <trkpt lat="36.784201" lon="-5.056107">
        <ele>967.248</ele>
        <time>2021-09-19T09:42:42Z</time>
      </trkpt>
      <trkpt lat="36.784336" lon="-5.055987">
        <ele>968.247</ele>
        <time>2021-09-19T09:42:47Z</time>
      </trkpt>
      <trkpt lat="36.784417" lon="-5.055915">
        <ele>969.029</ele>
        <time>2021-09-19T09:42:50Z</time>
      </trkpt>
      <trkpt lat="36.784443" lon="-5.055892">
        <ele>969.421</ele>
        <time>2021-09-19T09:42:51Z</time>
      </trkpt>
      <trkpt lat="36.784524" lon="-5.055822">
        <ele>970.608</ele>
        <time>2021-09-19T09:42:54Z</time>
      </trkpt>
      <trkpt lat="36.784682" lon="-5.055681">
        <ele>971.412</ele>
        <time>2021-09-19T09:43:00Z</time>
      </trkpt>
      <trkpt lat="36.784708" lon="-5.055659">
        <ele>971.628</ele>
        <time>2021-09-19T09:43:01Z</time>
      </trkpt>
      <trkpt lat="36.784891" lon="-5.055501">
        <ele>972.676</ele>
        <time>2021-09-19T09:43:08Z</time>
      </trkpt>
      <trkpt lat="36.784942" lon="-5.055458">
        <ele>973.048</ele>
        <time>2021-09-19T09:43:10Z</time>
      </trkpt>
      <trkpt lat="36.785099" lon="-5.055330">
        <ele>973.841</ele>
        <time>2021-09-19T09:43:16Z</time>
      </trkpt>
      <trkpt lat="36.785228" lon="-5.055215">
        <ele>974.617</ele>
        <time>2021-09-19T09:43:21Z</time>
      </trkpt>
      <trkpt lat="36.785256" lon="-5.055192">
        <ele>974.870</ele>
        <time>2021-09-19T09:43:22Z</time>
      </trkpt>
      <trkpt lat="36.785411" lon="-5.055063">
        <ele>975.487</ele>
        <time>2021-09-19T09:43:28Z</time>
      </trkpt>
      <trkpt lat="36.785479" lon="-5.055001">
        <ele>975.863</ele>
        <time>2021-09-19T09:43:31Z</time>
      </trkpt>
      <trkpt lat="36.785550" lon="-5.054958">
        <ele>976.444</ele>
        <time>2021-09-19T09:43:34Z</time>
      </trkpt>
      <trkpt lat="36.785614" lon="-5.054932">
        <ele>977.018</ele>
        <time>2021-09-19T09:43:37Z</time>
      </trkpt>
      <trkpt lat="36.785692" lon="-5.054906">
        <ele>977.608</ele>
        <time>2021-09-19T09:43:41Z</time>
      </trkpt>
      <trkpt lat="36.785714" lon="-5.054905">
        <ele>978.094</ele>
        <time>2021-09-19T09:43:42Z</time>
      </trkpt>
      <trkpt lat="36.785867" lon="-5.054881">
        <ele>979.220</ele>
        <time>2021-09-19T09:43:49Z</time>
      </trkpt>
      <trkpt lat="36.785914" lon="-5.054875">
        <ele>979.898</ele>
        <time>2021-09-19T09:43:51Z</time>
      </trkpt>
      <trkpt lat="36.786013" lon="-5.054865">
        <ele>980.440</ele>
        <time>2021-09-19T09:43:55Z</time>
      </trkpt>
      <trkpt lat="36.786110" lon="-5.054842">
        <ele>981.023</ele>
        <time>2021-09-19T09:43:59Z</time>
      </trkpt>
      <trkpt lat="36.786160" lon="-5.054829">
        <ele>981.439</ele>
        <time>2021-09-19T09:44:01Z</time>
      </trkpt>
      <trkpt lat="36.786258" lon="-5.054800">
        <ele>982.422</ele>
        <time>2021-09-19T09:44:05Z</time>
      </trkpt>
      <trkpt lat="36.786326" lon="-5.054770">
        <ele>983.249</ele>
        <time>2021-09-19T09:44:08Z</time>
      </trkpt>
      <trkpt lat="36.786373" lon="-5.054737">
        <ele>983.655</ele>
        <time>2021-09-19T09:44:10Z</time>
      </trkpt>
      <trkpt lat="36.786453" lon="-5.054643">
        <ele>984.607</ele>
        <time>2021-09-19T09:44:14Z</time>
      </trkpt>
      <trkpt lat="36.786466" lon="-5.054612">
        <ele>985.017</ele>
        <time>2021-09-19T09:44:15Z</time>
      </trkpt>
      <trkpt lat="36.786505" lon="-5.054481">
        <ele>986.208</ele>
        <time>2021-09-19T09:44:19Z</time>
      </trkpt>
      <trkpt lat="36.786551" lon="-5.054313">
        <ele>987.283</ele>
        <time>2021-09-19T09:44:24Z</time>
      </trkpt>
      <trkpt lat="36.786559" lon="-5.054278">
        <ele>987.269</ele>
        <time>2021-09-19T09:44:25Z</time>
      </trkpt>
      <trkpt lat="36.786604" lon="-5.054076">
        <ele>988.247</ele>
        <time>2021-09-19T09:44:31Z</time>
      </trkpt>
      <trkpt lat="36.786623" lon="-5.054009">
        <ele>988.659</ele>
        <time>2021-09-19T09:44:33Z</time>
      </trkpt>
      <trkpt lat="36.786657" lon="-5.053873">
        <ele>989.242</ele>
        <time>2021-09-19T09:44:37Z</time>
      </trkpt>
      <trkpt lat="36.786708" lon="-5.053702">
        <ele>990.048</ele>
        <time>2021-09-19T09:44:42Z</time>
      </trkpt>
      <trkpt lat="36.786727" lon="-5.053639">
        <ele>990.221</ele>
        <time>2021-09-19T09:44:44Z</time>
      </trkpt>
      <trkpt lat="36.786780" lon="-5.053444">
        <ele>991.488</ele>
        <time>2021-09-19T09:44:50Z</time>
      </trkpt>
      <trkpt lat="36.786790" lon="-5.053412">
        <ele>991.427</ele>
        <time>2021-09-19T09:44:51Z</time>
      </trkpt>
      <trkpt lat="36.786810" lon="-5.053347">
        <ele>991.868</ele>
        <time>2021-09-19T09:44:53Z</time>
      </trkpt>
      <trkpt lat="36.786839" lon="-5.053217">
        <ele>992.414</ele>
        <time>2021-09-19T09:44:57Z</time>
      </trkpt>
      <trkpt lat="36.786869" lon="-5.053099">
        <ele>993.208</ele>
        <time>2021-09-19T09:45:01Z</time>
      </trkpt>
      <trkpt lat="36.786882" lon="-5.053041">
        <ele>993.850</ele>
        <time>2021-09-19T09:45:03Z</time>
      </trkpt>
      <trkpt lat="36.786915" lon="-5.052913">
        <ele>994.896</ele>
        <time>2021-09-19T09:45:08Z</time>
      </trkpt>
      <trkpt lat="36.786937" lon="-5.052840">
        <ele>995.424</ele>
        <time>2021-09-19T09:45:11Z</time>
      </trkpt>
      <trkpt lat="36.786952" lon="-5.052794">
        <ele>996.076</ele>
        <time>2021-09-19T09:45:13Z</time>
      </trkpt>
      <trkpt lat="36.786980" lon="-5.052695">
        <ele>996.869</ele>
        <time>2021-09-19T09:45:17Z</time>
      </trkpt>
      <trkpt lat="36.787013" lon="-5.052576">
        <ele>997.845</ele>
        <time>2021-09-19T09:45:22Z</time>
      </trkpt>
      <trkpt lat="36.787020" lon="-5.052550">
        <ele>998.098</ele>
        <time>2021-09-19T09:45:23Z</time>
      </trkpt>
      <trkpt lat="36.787056" lon="-5.052399">
        <ele>998.875</ele>
        <time>2021-09-19T09:45:28Z</time>
      </trkpt>
      <trkpt lat="36.787063" lon="-5.052371">
        <ele>999.096</ele>
        <time>2021-09-19T09:45:29Z</time>
      </trkpt>
      <trkpt lat="36.787102" lon="-5.052231">
        <ele>1000.231</ele>
        <time>2021-09-19T09:45:34Z</time>
      </trkpt>
      <trkpt lat="36.787120" lon="-5.052177">
        <ele>1000.624</ele>
        <time>2021-09-19T09:45:36Z</time>
      </trkpt>
      <trkpt lat="36.787149" lon="-5.052068">
        <ele>1001.408</ele>
        <time>2021-09-19T09:45:40Z</time>
      </trkpt>
      <trkpt lat="36.787187" lon="-5.051962">
        <ele>1002.417</ele>
        <time>2021-09-19T09:45:44Z</time>
      </trkpt>
      <trkpt lat="36.787234" lon="-5.051857">
        <ele>1003.633</ele>
        <time>2021-09-19T09:45:48Z</time>
      </trkpt>
      <trkpt lat="36.787286" lon="-5.051725">
        <ele>1004.461</ele>
        <time>2021-09-19T09:45:53Z</time>
      </trkpt>
      <trkpt lat="36.787296" lon="-5.051698">
        <ele>1004.693</ele>
        <time>2021-09-19T09:45:54Z</time>
      </trkpt>
      <trkpt lat="36.787351" lon="-5.051562">
        <ele>1005.626</ele>
        <time>2021-09-19T09:45:59Z</time>
      </trkpt>
      <trkpt lat="36.787398" lon="-5.051418">
        <ele>1006.632</ele>
        <time>2021-09-19T09:46:04Z</time>
      </trkpt>
      <trkpt lat="36.787424" lon="-5.051233">
        <ele>1007.865</ele>
        <time>2021-09-19T09:46:10Z</time>
      </trkpt>
      <trkpt lat="36.787424" lon="-5.051139">
        <ele>1008.862</ele>
        <time>2021-09-19T09:46:13Z</time>
      </trkpt>
      <trkpt lat="36.787424" lon="-5.051109">
        <ele>1009.051</ele>
        <time>2021-09-19T09:46:14Z</time>
      </trkpt>
      <trkpt lat="36.787415" lon="-5.050931">
        <ele>1009.801</ele>
        <time>2021-09-19T09:46:20Z</time>
      </trkpt>
      <trkpt lat="36.787402" lon="-5.050809">
        <ele>1010.411</ele>
        <time>2021-09-19T09:46:24Z</time>
      </trkpt>
      <trkpt lat="36.787389" lon="-5.050750">
        <ele>1010.808</ele>
        <time>2021-09-19T09:46:26Z</time>
      </trkpt>
      <trkpt lat="36.787329" lon="-5.050611">
        <ele>1011.853</ele>
        <time>2021-09-19T09:46:31Z</time>
      </trkpt>
      <trkpt lat="36.787316" lon="-5.050584">
        <ele>1012.079</ele>
        <time>2021-09-19T09:46:32Z</time>
      </trkpt>
      <trkpt lat="36.787249" lon="-5.050452">
        <ele>1013.287</ele>
        <time>2021-09-19T09:46:37Z</time>
      </trkpt>
      <trkpt lat="36.787208" lon="-5.050379">
        <ele>1013.819</ele>
        <time>2021-09-19T09:46:40Z</time>
      </trkpt>
      <trkpt lat="36.787170" lon="-5.050312">
        <ele>1014.492</ele>
        <time>2021-09-19T09:46:43Z</time>
      </trkpt>
      <trkpt lat="36.787105" lon="-5.050184">
        <ele>1015.298</ele>
        <time>2021-09-19T09:46:48Z</time>
      </trkpt>
      <trkpt lat="36.787091" lon="-5.050157">
        <ele>1015.441</ele>
        <time>2021-09-19T09:46:49Z</time>
      </trkpt>
      <trkpt lat="36.787023" lon="-5.050032">
        <ele>1016.248</ele>
        <time>2021-09-19T09:46:54Z</time>
      </trkpt>
      <trkpt lat="36.786982" lon="-5.049954">
        <ele>1016.669</ele>
        <time>2021-09-19T09:46:57Z</time>
      </trkpt>
      <trkpt lat="36.786925" lon="-5.049854">
        <ele>1017.204</ele>
        <time>2021-09-19T09:47:01Z</time>
      </trkpt>
      <trkpt lat="36.786876" lon="-5.049791">
        <ele>1018.024</ele>
        <time>2021-09-19T09:47:04Z</time>
      </trkpt>
      <trkpt lat="36.786817" lon="-5.049738">
        <ele>1018.408</ele>
        <time>2021-09-19T09:47:07Z</time>
      </trkpt>
      <trkpt lat="36.786711" lon="-5.049653">
        <ele>1019.454</ele>
        <time>2021-09-19T09:47:12Z</time>
      </trkpt>
      <trkpt lat="36.786590" lon="-5.049542">
        <ele>1020.410</ele>
        <time>2021-09-19T09:47:18Z</time>
      </trkpt>
      <trkpt lat="36.786534" lon="-5.049479">
        <ele>1021.258</ele>
        <time>2021-09-19T09:47:21Z</time>
      </trkpt>
      <trkpt lat="36.786501" lon="-5.049430">
        <ele>1021.680</ele>
        <time>2021-09-19T09:47:23Z</time>
      </trkpt>
      <trkpt lat="36.786420" lon="-5.049311">
        <ele>1022.693</ele>
        <time>2021-09-19T09:47:28Z</time>
      </trkpt>
      <trkpt lat="36.786351" lon="-5.049217">
        <ele>1023.279</ele>
        <time>2021-09-19T09:47:32Z</time>
      </trkpt>
      <trkpt lat="36.786318" lon="-5.049169">
        <ele>1023.612</ele>
        <time>2021-09-19T09:47:34Z</time>
      </trkpt>
      <trkpt lat="36.786248" lon="-5.049075">
        <ele>1024.839</ele>
        <time>2021-09-19T09:47:38Z</time>
      </trkpt>
      <trkpt lat="36.786197" lon="-5.049003">
        <ele>1025.089</ele>
        <time>2021-09-19T09:47:41Z</time>
      </trkpt>
      <trkpt lat="36.786044" lon="-5.048793">
        <ele>1025.406</ele>
        <time>2021-09-19T09:47:49Z</time>
      </trkpt>
      <trkpt lat="36.786025" lon="-5.048764">
        <ele>1025.626</ele>
        <time>2021-09-19T09:47:50Z</time>
      </trkpt>
      <trkpt lat="36.785959" lon="-5.048602">
        <ele>1026.008</ele>
        <time>2021-09-19T09:47:54Z</time>
      </trkpt>
      <trkpt lat="36.785950" lon="-5.048552">
        <ele>1026.056</ele>
        <time>2021-09-19T09:47:55Z</time>
      </trkpt>
      <trkpt lat="36.785968" lon="-5.048399">
        <ele>1026.462</ele>
        <time>2021-09-19T09:47:58Z</time>
      </trkpt>
      <trkpt lat="36.786034" lon="-5.048273">
        <ele>1026.690</ele>
        <time>2021-09-19T09:48:01Z</time>
      </trkpt>
      <trkpt lat="36.786064" lon="-5.048239">
        <ele>1026.622</ele>
        <time>2021-09-19T09:48:02Z</time>
      </trkpt>
      <trkpt lat="36.786168" lon="-5.048186">
        <ele>1026.895</ele>
        <time>2021-09-19T09:48:05Z</time>
      </trkpt>
      <trkpt lat="36.786208" lon="-5.048182">
        <ele>1026.871</ele>
        <time>2021-09-19T09:48:06Z</time>
      </trkpt>
      <trkpt lat="36.786414" lon="-5.048178">
        <ele>1027.674</ele>
        <time>2021-09-19T09:48:11Z</time>
      </trkpt>
      <trkpt lat="36.786623" lon="-5.048223">
        <ele>1028.811</ele>
        <time>2021-09-19T09:48:17Z</time>
      </trkpt>
      <trkpt lat="36.786761" lon="-5.048336">
        <ele>1029.814</ele>
        <time>2021-09-19T09:48:22Z</time>
      </trkpt>
      <trkpt lat="36.786785" lon="-5.048366">
        <ele>1030.054</ele>
        <time>2021-09-19T09:48:23Z</time>
      </trkpt>
      <trkpt lat="36.786868" lon="-5.048512">
        <ele>1031.009</ele>
        <time>2021-09-19T09:48:27Z</time>
      </trkpt>
      <trkpt lat="36.786926" lon="-5.048624">
        <ele>1031.208</ele>
        <time>2021-09-19T09:48:30Z</time>
      </trkpt>
      <trkpt lat="36.786967" lon="-5.048697">
        <ele>1031.839</ele>
        <time>2021-09-19T09:48:32Z</time>
      </trkpt>
      <trkpt lat="36.787055" lon="-5.048831">
        <ele>1032.885</ele>
        <time>2021-09-19T09:48:36Z</time>
      </trkpt>
      <trkpt lat="36.787152" lon="-5.048941">
        <ele>1033.663</ele>
        <time>2021-09-19T09:48:40Z</time>
      </trkpt>
      <trkpt lat="36.787207" lon="-5.048984">
        <ele>1034.055</ele>
        <time>2021-09-19T09:48:42Z</time>
      </trkpt>
      <trkpt lat="36.787328" lon="-5.049030">
        <ele>1035.298</ele>
        <time>2021-09-19T09:48:46Z</time>
      </trkpt>
      <trkpt lat="36.787481" lon="-5.049054">
        <ele>1036.234</ele>
        <time>2021-09-19T09:48:51Z</time>
      </trkpt>
      <trkpt lat="36.787578" lon="-5.049055">
        <ele>1037.257</ele>
        <time>2021-09-19T09:48:54Z</time>
      </trkpt>
      <trkpt lat="36.787610" lon="-5.049053">
        <ele>1037.494</ele>
        <time>2021-09-19T09:48:55Z</time>
      </trkpt>
      <trkpt lat="36.787772" lon="-5.049009">
        <ele>1038.684</ele>
        <time>2021-09-19T09:49:00Z</time>
      </trkpt>
      <trkpt lat="36.787834" lon="-5.048979">
        <ele>1038.807</ele>
        <time>2021-09-19T09:49:02Z</time>
      </trkpt>
      <trkpt lat="36.787896" lon="-5.048944">
        <ele>1039.617</ele>
        <time>2021-09-19T09:49:04Z</time>
      </trkpt>
      <trkpt lat="36.788015" lon="-5.048868">
        <ele>1040.608</ele>
        <time>2021-09-19T09:49:08Z</time>
      </trkpt>
      <trkpt lat="36.788132" lon="-5.048791">
        <ele>1041.856</ele>
        <time>2021-09-19T09:49:12Z</time>
      </trkpt>
      <trkpt lat="36.788187" lon="-5.048759">
        <ele>1042.052</ele>
        <time>2021-09-19T09:49:14Z</time>
      </trkpt>
      <trkpt lat="36.788262" lon="-5.048705">
        <ele>1042.640</ele>
        <time>2021-09-19T09:49:17Z</time>
      </trkpt>
      <trkpt lat="36.788351" lon="-5.048639">
        <ele>1043.832</ele>
        <time>2021-09-19T09:49:21Z</time>
      </trkpt>
      <trkpt lat="36.788369" lon="-5.048627">
        <ele>1044.055</ele>
        <time>2021-09-19T09:49:22Z</time>
      </trkpt>
      <trkpt lat="36.788410" lon="-5.048587">
        <ele>1044.811</ele>
        <time>2021-09-19T09:49:27Z</time>
      </trkpt>
      <trkpt lat="36.788485" lon="-5.048578">
        <ele>1046.494</ele>
        <time>2021-09-19T09:51:22Z</time>
      </trkpt>
      <trkpt lat="36.788504" lon="-5.048576">
        <ele>1046.411</ele>
        <time>2021-09-19T09:51:23Z</time>
      </trkpt>
      <trkpt lat="36.788526" lon="-5.048576">
        <ele>1046.688</ele>
        <time>2021-09-19T09:51:24Z</time>
      </trkpt>
      <trkpt lat="36.788617" lon="-5.048565">
        <ele>1046.824</ele>
        <time>2021-09-19T09:51:28Z</time>
      </trkpt>
      <trkpt lat="36.788710" lon="-5.048557">
        <ele>1047.026</ele>
        <time>2021-09-19T09:51:32Z</time>
      </trkpt>
      <trkpt lat="36.788733" lon="-5.048558">
        <ele>1047.408</ele>
        <time>2021-09-19T09:51:33Z</time>
      </trkpt>
      <trkpt lat="36.788833" lon="-5.048541">
        <ele>1048.446</ele>
        <time>2021-09-19T09:51:37Z</time>
      </trkpt>
      <trkpt lat="36.788887" lon="-5.048519">
        <ele>1048.892</ele>
        <time>2021-09-19T09:51:39Z</time>
      </trkpt>
      <trkpt lat="36.788983" lon="-5.048438">
        <ele>1049.240</ele>
        <time>2021-09-19T09:51:43Z</time>
      </trkpt>
      <trkpt lat="36.789002" lon="-5.048404">
        <ele>1049.282</ele>
        <time>2021-09-19T09:51:44Z</time>
      </trkpt>
      <trkpt lat="36.789053" lon="-5.048273">
        <ele>1049.215</ele>
        <time>2021-09-19T09:51:47Z</time>
      </trkpt>
      <trkpt lat="36.789070" lon="-5.048152">
        <ele>1049.241</ele>
        <time>2021-09-19T09:51:49Z</time>
      </trkpt>
      <trkpt lat="36.789049" lon="-5.047925">
        <ele>1049.214</ele>
        <time>2021-09-19T09:51:52Z</time>
      </trkpt>
      <trkpt lat="36.789036" lon="-5.047837">
        <ele>1049.251</ele>
        <time>2021-09-19T09:51:53Z</time>
      </trkpt>
      <trkpt lat="36.788969" lon="-5.047330">
        <ele>1048.052</ele>
        <time>2021-09-19T09:51:58Z</time>
      </trkpt>
      <trkpt lat="36.788940" lon="-5.047101">
        <ele>1047.253</ele>
        <time>2021-09-19T09:52:00Z</time>
      </trkpt>
      <trkpt lat="36.788904" lon="-5.046866">
        <ele>1046.208</ele>
        <time>2021-09-19T09:52:02Z</time>
      </trkpt>
      <trkpt lat="36.788854" lon="-5.046626">
        <ele>1044.408</ele>
        <time>2021-09-19T09:52:04Z</time>
      </trkpt>
      <trkpt lat="36.788699" lon="-5.046284">
        <ele>1042.893</ele>
        <time>2021-09-19T09:52:07Z</time>
      </trkpt>
      <trkpt lat="36.788579" lon="-5.046057">
        <ele>1041.869</ele>
        <time>2021-09-19T09:52:09Z</time>
      </trkpt>
      <trkpt lat="36.788527" lon="-5.045936">
        <ele>1041.277</ele>
        <time>2021-09-19T09:52:10Z</time>
      </trkpt>
      <trkpt lat="36.788492" lon="-5.045802">
        <ele>1040.699</ele>
        <time>2021-09-19T09:52:11Z</time>
      </trkpt>
      <trkpt lat="36.788482" lon="-5.045661">
        <ele>1039.042</ele>
        <time>2021-09-19T09:52:12Z</time>
      </trkpt>
      <trkpt lat="36.788498" lon="-5.045519">
        <ele>1037.888</ele>
        <time>2021-09-19T09:52:13Z</time>
      </trkpt>
      <trkpt lat="36.788576" lon="-5.045254">
        <ele>1036.491</ele>
        <time>2021-09-19T09:52:15Z</time>
      </trkpt>
      <trkpt lat="36.788620" lon="-5.045123">
        <ele>1036.078</ele>
        <time>2021-09-19T09:52:16Z</time>
      </trkpt>
      <trkpt lat="36.788669" lon="-5.044993">
        <ele>1035.827</ele>
        <time>2021-09-19T09:52:17Z</time>
      </trkpt>
      <trkpt lat="36.788730" lon="-5.044870">
        <ele>1035.468</ele>
        <time>2021-09-19T09:52:18Z</time>
      </trkpt>
      <trkpt lat="36.788801" lon="-5.044754">
        <ele>1035.014</ele>
        <time>2021-09-19T09:52:19Z</time>
      </trkpt>
      <trkpt lat="36.788875" lon="-5.044640">
        <ele>1033.808</ele>
        <time>2021-09-19T09:52:20Z</time>
      </trkpt>
      <trkpt lat="36.788943" lon="-5.044518">
        <ele>1031.870</ele>
        <time>2021-09-19T09:52:21Z</time>
      </trkpt>
      <trkpt lat="36.789006" lon="-5.044388">
        <ele>1029.286</ele>
        <time>2021-09-19T09:52:22Z</time>
      </trkpt>
      <trkpt lat="36.789064" lon="-5.044254">
        <ele>1027.864</ele>
        <time>2021-09-19T09:52:23Z</time>
      </trkpt>
      <trkpt lat="36.789117" lon="-5.044117">
        <ele>1026.476</ele>
        <time>2021-09-19T09:52:24Z</time>
      </trkpt>
      <trkpt lat="36.789166" lon="-5.043976">
        <ele>1025.099</ele>
        <time>2021-09-19T09:52:25Z</time>
      </trkpt>
      <trkpt lat="36.789214" lon="-5.043835">
        <ele>1023.825</ele>
        <time>2021-09-19T09:52:26Z</time>
      </trkpt>
      <trkpt lat="36.789312" lon="-5.043549">
        <ele>1021.658</ele>
        <time>2021-09-19T09:52:28Z</time>
      </trkpt>
      <trkpt lat="36.789417" lon="-5.043265">
        <ele>1019.825</ele>
        <time>2021-09-19T09:52:30Z</time>
      </trkpt>
      <trkpt lat="36.789477" lon="-5.043128">
        <ele>1018.624</ele>
        <time>2021-09-19T09:52:31Z</time>
      </trkpt>
      <trkpt lat="36.789616" lon="-5.042865">
        <ele>1016.604</ele>
        <time>2021-09-19T09:52:33Z</time>
      </trkpt>
      <trkpt lat="36.789693" lon="-5.042737">
        <ele>1015.414</ele>
        <time>2021-09-19T09:52:34Z</time>
      </trkpt>
      <trkpt lat="36.789853" lon="-5.042482">
        <ele>1013.808</ele>
        <time>2021-09-19T09:52:36Z</time>
      </trkpt>
      <trkpt lat="36.790023" lon="-5.042225">
        <ele>1012.240</ele>
        <time>2021-09-19T09:52:38Z</time>
      </trkpt>
      <trkpt lat="36.790111" lon="-5.042097">
        <ele>1011.266</ele>
        <time>2021-09-19T09:52:39Z</time>
      </trkpt>
      <trkpt lat="36.790284" lon="-5.041831">
        <ele>1009.424</ele>
        <time>2021-09-19T09:52:41Z</time>
      </trkpt>
      <trkpt lat="36.790450" lon="-5.041553">
        <ele>1007.696</ele>
        <time>2021-09-19T09:52:43Z</time>
      </trkpt>
      <trkpt lat="36.790610" lon="-5.041265">
        <ele>1006.499</ele>
        <time>2021-09-19T09:52:45Z</time>
      </trkpt>
      <trkpt lat="36.790841" lon="-5.040817">
        <ele>1003.875</ele>
        <time>2021-09-19T09:52:48Z</time>
      </trkpt>
      <trkpt lat="36.790981" lon="-5.040502">
        <ele>1000.088</ele>
        <time>2021-09-19T09:52:50Z</time>
      </trkpt>
      <trkpt lat="36.791043" lon="-5.040340">
        <ele>997.485</ele>
        <time>2021-09-19T09:52:51Z</time>
      </trkpt>
      <trkpt lat="36.791096" lon="-5.040174">
        <ele>995.498</ele>
        <time>2021-09-19T09:52:52Z</time>
      </trkpt>
      <trkpt lat="36.791127" lon="-5.040001">
        <ele>994.015</ele>
        <time>2021-09-19T09:52:53Z</time>
      </trkpt>
      <trkpt lat="36.791137" lon="-5.039823">
        <ele>992.426</ele>
        <time>2021-09-19T09:52:54Z</time>
      </trkpt>
      <trkpt lat="36.791129" lon="-5.039463">
        <ele>990.808</ele>
        <time>2021-09-19T09:52:56Z</time>
      </trkpt>
      <trkpt lat="36.791108" lon="-5.038925">
        <ele>989.887</ele>
        <time>2021-09-19T09:52:59Z</time>
      </trkpt>
      <trkpt lat="36.791105" lon="-5.038747">
        <ele>989.283</ele>
        <time>2021-09-19T09:53:00Z</time>
      </trkpt>
      <trkpt lat="36.791108" lon="-5.038571">
        <ele>988.481</ele>
        <time>2021-09-19T09:53:01Z</time>
      </trkpt>
      <trkpt lat="36.791139" lon="-5.038231">
        <ele>987.873</ele>
        <time>2021-09-19T09:53:03Z</time>
      </trkpt>
      <trkpt lat="36.791169" lon="-5.038066">
        <ele>987.416</ele>
        <time>2021-09-19T09:53:04Z</time>
      </trkpt>
      <trkpt lat="36.791200" lon="-5.037903">
        <ele>986.082</ele>
        <time>2021-09-19T09:53:05Z</time>
      </trkpt>
      <trkpt lat="36.791258" lon="-5.037580">
        <ele>984.275</ele>
        <time>2021-09-19T09:53:07Z</time>
      </trkpt>
      <trkpt lat="36.791286" lon="-5.037420">
        <ele>983.062</ele>
        <time>2021-09-19T09:53:08Z</time>
      </trkpt>
      <trkpt lat="36.791311" lon="-5.037260">
        <ele>981.073</ele>
        <time>2021-09-19T09:53:09Z</time>
      </trkpt>
      <trkpt lat="36.791336" lon="-5.037103">
        <ele>980.085</ele>
        <time>2021-09-19T09:53:10Z</time>
      </trkpt>
      <trkpt lat="36.791365" lon="-5.036949">
        <ele>978.213</ele>
        <time>2021-09-19T09:53:11Z</time>
      </trkpt>
      <trkpt lat="36.791407" lon="-5.036802">
        <ele>976.008</ele>
        <time>2021-09-19T09:53:12Z</time>
      </trkpt>
      <trkpt lat="36.791468" lon="-5.036665">
        <ele>974.435</ele>
        <time>2021-09-19T09:53:13Z</time>
      </trkpt>
      <trkpt lat="36.791546" lon="-5.036544">
        <ele>973.041</ele>
        <time>2021-09-19T09:53:14Z</time>
      </trkpt>
      <trkpt lat="36.791636" lon="-5.036445">
        <ele>972.079</ele>
        <time>2021-09-19T09:53:15Z</time>
      </trkpt>
      <trkpt lat="36.791838" lon="-5.036299">
        <ele>971.041</ele>
        <time>2021-09-19T09:53:17Z</time>
      </trkpt>
      <trkpt lat="36.792027" lon="-5.036171">
        <ele>971.084</ele>
        <time>2021-09-19T09:53:19Z</time>
      </trkpt>
      <trkpt lat="36.792280" lon="-5.035975">
        <ele>970.880</ele>
        <time>2021-09-19T09:53:22Z</time>
      </trkpt>
      <trkpt lat="36.792353" lon="-5.035900">
        <ele>970.833</ele>
        <time>2021-09-19T09:53:23Z</time>
      </trkpt>
      <trkpt lat="36.792476" lon="-5.035728">
        <ele>970.880</ele>
        <time>2021-09-19T09:53:25Z</time>
      </trkpt>
      <trkpt lat="36.792739" lon="-5.035315">
        <ele>972.291</ele>
        <time>2021-09-19T09:53:30Z</time>
      </trkpt>
      <trkpt lat="36.793050" lon="-5.034988">
        <ele>973.081</ele>
        <time>2021-09-19T09:53:35Z</time>
      </trkpt>
      <trkpt lat="36.793416" lon="-5.034562">
        <ele>972.819</ele>
        <time>2021-09-19T09:53:41Z</time>
      </trkpt>
      <trkpt lat="36.793509" lon="-5.034390">
        <ele>972.808</ele>
        <time>2021-09-19T09:53:43Z</time>
      </trkpt>
      <trkpt lat="36.793568" lon="-5.034204">
        <ele>972.017</ele>
        <time>2021-09-19T09:53:45Z</time>
      </trkpt>
      <trkpt lat="36.793593" lon="-5.033916">
        <ele>971.083</ele>
        <time>2021-09-19T09:53:48Z</time>
      </trkpt>
      <trkpt lat="36.793605" lon="-5.033823">
        <ele>970.211</ele>
        <time>2021-09-19T09:53:49Z</time>
      </trkpt>
      <trkpt lat="36.793623" lon="-5.033730">
        <ele>969.823</ele>
        <time>2021-09-19T09:53:50Z</time>
      </trkpt>
      <trkpt lat="36.793673" lon="-5.033551">
        <ele>969.016</ele>
        <time>2021-09-19T09:53:52Z</time>
      </trkpt>
      <trkpt lat="36.793732" lon="-5.033376">
        <ele>968.682</ele>
        <time>2021-09-19T09:53:54Z</time>
      </trkpt>
      <trkpt lat="36.793922" lon="-5.032836">
        <ele>967.435</ele>
        <time>2021-09-19T09:54:00Z</time>
      </trkpt>
      <trkpt lat="36.794024" lon="-5.032562">
        <ele>967.232</ele>
        <time>2021-09-19T09:54:03Z</time>
      </trkpt>
      <trkpt lat="36.794155" lon="-5.032184">
        <ele>966.454</ele>
        <time>2021-09-19T09:54:07Z</time>
      </trkpt>
      <trkpt lat="36.794278" lon="-5.031911">
        <ele>965.656</ele>
        <time>2021-09-19T09:54:10Z</time>
      </trkpt>
      <trkpt lat="36.794328" lon="-5.031828">
        <ele>965.211</ele>
        <time>2021-09-19T09:54:11Z</time>
      </trkpt>
      <trkpt lat="36.794496" lon="-5.031598">
        <ele>964.008</ele>
        <time>2021-09-19T09:54:14Z</time>
      </trkpt>
      <trkpt lat="36.794555" lon="-5.031523">
        <ele>964.023</ele>
        <time>2021-09-19T09:54:15Z</time>
      </trkpt>
      <trkpt lat="36.794856" lon="-5.031159">
        <ele>963.019</ele>
        <time>2021-09-19T09:54:20Z</time>
      </trkpt>
      <trkpt lat="36.795077" lon="-5.030847">
        <ele>961.267</ele>
        <time>2021-09-19T09:54:24Z</time>
      </trkpt>
      <trkpt lat="36.795124" lon="-5.030758">
        <ele>960.089</ele>
        <time>2021-09-19T09:54:25Z</time>
      </trkpt>
      <trkpt lat="36.795205" lon="-5.030570">
        <ele>958.412</ele>
        <time>2021-09-19T09:54:27Z</time>
      </trkpt>
      <trkpt lat="36.795279" lon="-5.030375">
        <ele>957.888</ele>
        <time>2021-09-19T09:54:29Z</time>
      </trkpt>
      <trkpt lat="36.795314" lon="-5.030275">
        <ele>957.471</ele>
        <time>2021-09-19T09:54:30Z</time>
      </trkpt>
      <trkpt lat="36.795342" lon="-5.030173">
        <ele>957.228</ele>
        <time>2021-09-19T09:54:31Z</time>
      </trkpt>
      <trkpt lat="36.795405" lon="-5.029853">
        <ele>956.829</ele>
        <time>2021-09-19T09:54:34Z</time>
      </trkpt>
      <trkpt lat="36.795452" lon="-5.029641">
        <ele>956.000</ele>
        <time>2021-09-19T09:54:36Z</time>
      </trkpt>
      <trkpt lat="36.795487" lon="-5.029541">
        <ele>955.620</ele>
        <time>2021-09-19T09:54:37Z</time>
      </trkpt>
      <trkpt lat="36.795532" lon="-5.029447">
        <ele>955.208</ele>
        <time>2021-09-19T09:54:38Z</time>
      </trkpt>
      <trkpt lat="36.795639" lon="-5.029273">
        <ele>954.850</ele>
        <time>2021-09-19T09:54:40Z</time>
      </trkpt>
      <trkpt lat="36.795689" lon="-5.029182">
        <ele>954.846</ele>
        <time>2021-09-19T09:54:41Z</time>
      </trkpt>
      <trkpt lat="36.795730" lon="-5.029084">
        <ele>954.664</ele>
        <time>2021-09-19T09:54:42Z</time>
      </trkpt>
      <trkpt lat="36.795776" lon="-5.028764">
        <ele>954.446</ele>
        <time>2021-09-19T09:54:45Z</time>
      </trkpt>
      <trkpt lat="36.795758" lon="-5.028550">
        <ele>954.229</ele>
        <time>2021-09-19T09:54:47Z</time>
      </trkpt>
      <trkpt lat="36.795755" lon="-5.028442">
        <ele>954.075</ele>
        <time>2021-09-19T09:54:48Z</time>
      </trkpt>
      <trkpt lat="36.795763" lon="-5.028335">
        <ele>953.448</ele>
        <time>2021-09-19T09:54:49Z</time>
      </trkpt>
      <trkpt lat="36.795818" lon="-5.028133">
        <ele>952.285</ele>
        <time>2021-09-19T09:54:51Z</time>
      </trkpt>
      <trkpt lat="36.795855" lon="-5.028037">
        <ele>951.641</ele>
        <time>2021-09-19T09:54:52Z</time>
      </trkpt>
      <trkpt lat="36.795933" lon="-5.027850">
        <ele>950.881</ele>
        <time>2021-09-19T09:54:54Z</time>
      </trkpt>
      <trkpt lat="36.796025" lon="-5.027676">
        <ele>950.409</ele>
        <time>2021-09-19T09:54:56Z</time>
      </trkpt>
      <trkpt lat="36.796084" lon="-5.027602">
        <ele>950.208</ele>
        <time>2021-09-19T09:54:57Z</time>
      </trkpt>
      <trkpt lat="36.796298" lon="-5.027433">
        <ele>949.882</ele>
        <time>2021-09-19T09:55:00Z</time>
      </trkpt>
      <trkpt lat="36.796369" lon="-5.027380">
        <ele>949.688</ele>
        <time>2021-09-19T09:55:01Z</time>
      </trkpt>
      <trkpt lat="36.796516" lon="-5.027282">
        <ele>949.246</ele>
        <time>2021-09-19T09:55:03Z</time>
      </trkpt>
      <trkpt lat="36.796674" lon="-5.027224">
        <ele>949.018</ele>
        <time>2021-09-19T09:55:05Z</time>
      </trkpt>
      <trkpt lat="36.797001" lon="-5.027173">
        <ele>948.481</ele>
        <time>2021-09-19T09:55:09Z</time>
      </trkpt>
      <trkpt lat="36.797132" lon="-5.027051">
        <ele>948.017</ele>
        <time>2021-09-19T09:55:11Z</time>
      </trkpt>
      <trkpt lat="36.797183" lon="-5.026966">
        <ele>947.870</ele>
        <time>2021-09-19T09:55:12Z</time>
      </trkpt>
      <trkpt lat="36.797240" lon="-5.026884">
        <ele>947.827</ele>
        <time>2021-09-19T09:55:13Z</time>
      </trkpt>
      <trkpt lat="36.797312" lon="-5.026818">
        <ele>947.873</ele>
        <time>2021-09-19T09:55:14Z</time>
      </trkpt>
      <trkpt lat="36.797488" lon="-5.026729">
        <ele>947.085</ele>
        <time>2021-09-19T09:55:16Z</time>
      </trkpt>
      <trkpt lat="36.797584" lon="-5.026697">
        <ele>946.413</ele>
        <time>2021-09-19T09:55:17Z</time>
      </trkpt>
      <trkpt lat="36.797683" lon="-5.026668">
        <ele>945.808</ele>
        <time>2021-09-19T09:55:18Z</time>
      </trkpt>
      <trkpt lat="36.798091" lon="-5.026513">
        <ele>944.615</ele>
        <time>2021-09-19T09:55:22Z</time>
      </trkpt>
      <trkpt lat="36.798293" lon="-5.026392">
        <ele>943.891</ele>
        <time>2021-09-19T09:55:24Z</time>
      </trkpt>
      <trkpt lat="36.798491" lon="-5.026243">
        <ele>943.249</ele>
        <time>2021-09-19T09:55:26Z</time>
      </trkpt>
      <trkpt lat="36.798588" lon="-5.026159">
        <ele>941.851</ele>
        <time>2021-09-19T09:55:27Z</time>
      </trkpt>
      <trkpt lat="36.798674" lon="-5.026055">
        <ele>940.254</ele>
        <time>2021-09-19T09:55:28Z</time>
      </trkpt>
      <trkpt lat="36.798744" lon="-5.025929">
        <ele>938.860</ele>
        <time>2021-09-19T09:55:29Z</time>
      </trkpt>
      <trkpt lat="36.798794" lon="-5.025789">
        <ele>937.863</ele>
        <time>2021-09-19T09:55:30Z</time>
      </trkpt>
      <trkpt lat="36.798831" lon="-5.025486">
        <ele>935.690</ele>
        <time>2021-09-19T09:55:32Z</time>
      </trkpt>
      <trkpt lat="36.798818" lon="-5.025329">
        <ele>934.637</ele>
        <time>2021-09-19T09:55:33Z</time>
      </trkpt>
      <trkpt lat="36.798796" lon="-5.025175">
        <ele>934.049</ele>
        <time>2021-09-19T09:55:34Z</time>
      </trkpt>
      <trkpt lat="36.798764" lon="-5.025023">
        <ele>933.613</ele>
        <time>2021-09-19T09:55:35Z</time>
      </trkpt>
      <trkpt lat="36.798658" lon="-5.024739">
        <ele>932.008</ele>
        <time>2021-09-19T09:55:37Z</time>
      </trkpt>
      <trkpt lat="36.798587" lon="-5.024610">
        <ele>930.421</ele>
        <time>2021-09-19T09:55:38Z</time>
      </trkpt>
      <trkpt lat="36.798521" lon="-5.024477">
        <ele>929.277</ele>
        <time>2021-09-19T09:55:39Z</time>
      </trkpt>
      <trkpt lat="36.798433" lon="-5.024187">
        <ele>927.675</ele>
        <time>2021-09-19T09:55:41Z</time>
      </trkpt>
      <trkpt lat="36.798438" lon="-5.023880">
        <ele>926.867</ele>
        <time>2021-09-19T09:55:43Z</time>
      </trkpt>
      <trkpt lat="36.798471" lon="-5.023731">
        <ele>926.050</ele>
        <time>2021-09-19T09:55:44Z</time>
      </trkpt>
      <trkpt lat="36.798512" lon="-5.023585">
        <ele>924.816</ele>
        <time>2021-09-19T09:55:45Z</time>
      </trkpt>
      <trkpt lat="36.798561" lon="-5.023441">
        <ele>923.829</ele>
        <time>2021-09-19T09:55:46Z</time>
      </trkpt>
      <trkpt lat="36.798622" lon="-5.023304">
        <ele>923.076</ele>
        <time>2021-09-19T09:55:47Z</time>
      </trkpt>
      <trkpt lat="36.798734" lon="-5.023027">
        <ele>921.862</ele>
        <time>2021-09-19T09:55:49Z</time>
      </trkpt>
      <trkpt lat="36.798765" lon="-5.022874">
        <ele>920.083</ele>
        <time>2021-09-19T09:55:50Z</time>
      </trkpt>
      <trkpt lat="36.798785" lon="-5.022716">
        <ele>918.211</ele>
        <time>2021-09-19T09:55:51Z</time>
      </trkpt>
      <trkpt lat="36.798800" lon="-5.022556">
        <ele>916.408</ele>
        <time>2021-09-19T09:55:52Z</time>
      </trkpt>
      <trkpt lat="36.798816" lon="-5.022397">
        <ele>915.474</ele>
        <time>2021-09-19T09:55:53Z</time>
      </trkpt>
      <trkpt lat="36.798833" lon="-5.022239">
        <ele>914.420</ele>
        <time>2021-09-19T09:55:54Z</time>
      </trkpt>
      <trkpt lat="36.798850" lon="-5.022080">
        <ele>913.858</ele>
        <time>2021-09-19T09:55:55Z</time>
      </trkpt>
      <trkpt lat="36.798867" lon="-5.021921">
        <ele>913.210</ele>
        <time>2021-09-19T09:55:56Z</time>
      </trkpt>
      <trkpt lat="36.798907" lon="-5.021606">
        <ele>911.823</ele>
        <time>2021-09-19T09:55:58Z</time>
      </trkpt>
      <trkpt lat="36.798978" lon="-5.021310">
        <ele>910.459</ele>
        <time>2021-09-19T09:56:00Z</time>
      </trkpt>
      <trkpt lat="36.799097" lon="-5.021048">
        <ele>908.422</ele>
        <time>2021-09-19T09:56:02Z</time>
      </trkpt>
      <trkpt lat="36.799173" lon="-5.020933">
        <ele>907.629</ele>
        <time>2021-09-19T09:56:03Z</time>
      </trkpt>
      <trkpt lat="36.799246" lon="-5.020817">
        <ele>906.241</ele>
        <time>2021-09-19T09:56:04Z</time>
      </trkpt>
      <trkpt lat="36.799304" lon="-5.020687">
        <ele>905.281</ele>
        <time>2021-09-19T09:56:05Z</time>
      </trkpt>
      <trkpt lat="36.799341" lon="-5.020544">
        <ele>904.809</ele>
        <time>2021-09-19T09:56:06Z</time>
      </trkpt>
      <trkpt lat="36.799372" lon="-5.020092">
        <ele>903.808</ele>
        <time>2021-09-19T09:56:09Z</time>
      </trkpt>
      <trkpt lat="36.799385" lon="-5.019786">
        <ele>902.092</ele>
        <time>2021-09-19T09:56:11Z</time>
      </trkpt>
      <trkpt lat="36.799406" lon="-5.019478">
        <ele>900.858</ele>
        <time>2021-09-19T09:56:13Z</time>
      </trkpt>
      <trkpt lat="36.799419" lon="-5.019323">
        <ele>899.426</ele>
        <time>2021-09-19T09:56:14Z</time>
      </trkpt>
      <trkpt lat="36.799432" lon="-5.019172">
        <ele>898.458</ele>
        <time>2021-09-19T09:56:15Z</time>
      </trkpt>
      <trkpt lat="36.799449" lon="-5.019026">
        <ele>897.891</ele>
        <time>2021-09-19T09:56:16Z</time>
      </trkpt>
      <trkpt lat="36.799475" lon="-5.018893">
        <ele>896.427</ele>
        <time>2021-09-19T09:56:17Z</time>
      </trkpt>
      <trkpt lat="36.799522" lon="-5.018770">
        <ele>895.660</ele>
        <time>2021-09-19T09:56:18Z</time>
      </trkpt>
      <trkpt lat="36.799594" lon="-5.018664">
        <ele>894.837</ele>
        <time>2021-09-19T09:56:19Z</time>
      </trkpt>
      <trkpt lat="36.799682" lon="-5.018577">
        <ele>893.857</ele>
        <time>2021-09-19T09:56:20Z</time>
      </trkpt>
      <trkpt lat="36.799773" lon="-5.018493">
        <ele>893.400</ele>
        <time>2021-09-19T09:56:21Z</time>
      </trkpt>
      <trkpt lat="36.799942" lon="-5.018292">
        <ele>891.820</ele>
        <time>2021-09-19T09:56:23Z</time>
      </trkpt>
      <trkpt lat="36.800011" lon="-5.018172">
        <ele>891.208</ele>
        <time>2021-09-19T09:56:24Z</time>
      </trkpt>
      <trkpt lat="36.800066" lon="-5.018041">
        <ele>890.643</ele>
        <time>2021-09-19T09:56:25Z</time>
      </trkpt>
      <trkpt lat="36.800159" lon="-5.017768">
        <ele>889.639</ele>
        <time>2021-09-19T09:56:27Z</time>
      </trkpt>
      <trkpt lat="36.800202" lon="-5.017629">
        <ele>888.817</ele>
        <time>2021-09-19T09:56:28Z</time>
      </trkpt>
      <trkpt lat="36.800244" lon="-5.017488">
        <ele>888.439</ele>
        <time>2021-09-19T09:56:29Z</time>
      </trkpt>
      <trkpt lat="36.800286" lon="-5.017347">
        <ele>887.212</ele>
        <time>2021-09-19T09:56:30Z</time>
      </trkpt>
      <trkpt lat="36.800372" lon="-5.017064">
        <ele>885.818</ele>
        <time>2021-09-19T09:56:32Z</time>
      </trkpt>
      <trkpt lat="36.800461" lon="-5.016780">
        <ele>882.651</ele>
        <time>2021-09-19T09:56:34Z</time>
      </trkpt>
      <trkpt lat="36.800570" lon="-5.016506">
        <ele>881.438</ele>
        <time>2021-09-19T09:56:36Z</time>
      </trkpt>
      <trkpt lat="36.800690" lon="-5.016238">
        <ele>880.235</ele>
        <time>2021-09-19T09:56:38Z</time>
      </trkpt>
      <trkpt lat="36.800782" lon="-5.015953">
        <ele>879.086</ele>
        <time>2021-09-19T09:56:40Z</time>
      </trkpt>
      <trkpt lat="36.800824" lon="-5.015655">
        <ele>877.214</ele>
        <time>2021-09-19T09:56:42Z</time>
      </trkpt>
      <trkpt lat="36.800840" lon="-5.015509">
        <ele>876.408</ele>
        <time>2021-09-19T09:56:43Z</time>
      </trkpt>
      <trkpt lat="36.800870" lon="-5.015369">
        <ele>875.451</ele>
        <time>2021-09-19T09:56:44Z</time>
      </trkpt>
      <trkpt lat="36.800967" lon="-5.015104">
        <ele>873.487</ele>
        <time>2021-09-19T09:56:46Z</time>
      </trkpt>
      <trkpt lat="36.801077" lon="-5.014848">
        <ele>872.075</ele>
        <time>2021-09-19T09:56:48Z</time>
      </trkpt>
      <trkpt lat="36.801216" lon="-5.014467">
        <ele>871.037</ele>
        <time>2021-09-19T09:56:51Z</time>
      </trkpt>
      <trkpt lat="36.801249" lon="-5.014344">
        <ele>870.680</ele>
        <time>2021-09-19T09:56:52Z</time>
      </trkpt>
      <trkpt lat="36.801296" lon="-5.014109">
        <ele>868.896</ele>
        <time>2021-09-19T09:56:54Z</time>
      </trkpt>
      <trkpt lat="36.801317" lon="-5.013997">
        <ele>867.649</ele>
        <time>2021-09-19T09:56:55Z</time>
      </trkpt>
      <trkpt lat="36.801333" lon="-5.013890">
        <ele>867.086</ele>
        <time>2021-09-19T09:56:56Z</time>
      </trkpt>
      <trkpt lat="36.801353" lon="-5.013684">
        <ele>866.662</ele>
        <time>2021-09-19T09:56:58Z</time>
      </trkpt>
      <trkpt lat="36.801349" lon="-5.013399">
        <ele>866.483</ele>
        <time>2021-09-19T09:57:01Z</time>
      </trkpt>
      <trkpt lat="36.801334" lon="-5.013226">
        <ele>866.411</ele>
        <time>2021-09-19T09:57:03Z</time>
      </trkpt>
      <trkpt lat="36.801287" lon="-5.012922">
        <ele>868.008</ele>
        <time>2021-09-19T09:57:07Z</time>
      </trkpt>
      <trkpt lat="36.801219" lon="-5.012640">
        <ele>869.074</ele>
        <time>2021-09-19T09:57:12Z</time>
      </trkpt>
      <trkpt lat="36.801203" lon="-5.012597">
        <ele>869.290</ele>
        <time>2021-09-19T09:57:13Z</time>
      </trkpt>
      <trkpt lat="36.801156" lon="-5.012486">
        <ele>869.638</ele>
        <time>2021-09-19T09:57:16Z</time>
      </trkpt>
      <trkpt lat="36.801118" lon="-5.012420">
        <ele>869.830</ele>
        <time>2021-09-19T09:57:18Z</time>
      </trkpt>
      <trkpt lat="36.801085" lon="-5.012362">
        <ele>870.493</ele>
        <time>2021-09-19T09:57:20Z</time>
      </trkpt>
      <trkpt lat="36.801055" lon="-5.012303">
        <ele>871.079</ele>
        <time>2021-09-19T09:57:22Z</time>
      </trkpt>
      <trkpt lat="36.801019" lon="-5.012243">
        <ele>871.642</ele>
        <time>2021-09-19T09:57:24Z</time>
      </trkpt>
      <trkpt lat="36.800976" lon="-5.012188">
        <ele>872.069</ele>
        <time>2021-09-19T09:57:26Z</time>
      </trkpt>
      <trkpt lat="36.800912" lon="-5.012112">
        <ele>872.885</ele>
        <time>2021-09-19T09:57:29Z</time>
      </trkpt>
      <trkpt lat="36.800865" lon="-5.012067">
        <ele>873.489</ele>
        <time>2021-09-19T09:57:31Z</time>
      </trkpt>
      <trkpt lat="36.800816" lon="-5.012022">
        <ele>873.817</ele>
        <time>2021-09-19T09:57:33Z</time>
      </trkpt>
      <trkpt lat="36.800692" lon="-5.011939">
        <ele>875.008</ele>
        <time>2021-09-19T09:57:38Z</time>
      </trkpt>
      <trkpt lat="36.800587" lon="-5.011894">
        <ele>875.856</ele>
        <time>2021-09-19T09:57:42Z</time>
      </trkpt>
      <trkpt lat="36.800467" lon="-5.011852">
        <ele>876.852</ele>
        <time>2021-09-19T09:57:47Z</time>
      </trkpt>
      <trkpt lat="36.800329" lon="-5.011819">
        <ele>878.070</ele>
        <time>2021-09-19T09:57:53Z</time>
      </trkpt>
      <trkpt lat="36.800192" lon="-5.011793">
        <ele>879.482</ele>
        <time>2021-09-19T09:57:59Z</time>
      </trkpt>
      <trkpt lat="36.800167" lon="-5.011787">
        <ele>879.625</ele>
        <time>2021-09-19T09:58:00Z</time>
      </trkpt>
      <trkpt lat="36.800071" lon="-5.011768">
        <ele>880.481</ele>
        <time>2021-09-19T09:58:04Z</time>
      </trkpt>
      <trkpt lat="36.799976" lon="-5.011743">
        <ele>881.434</ele>
        <time>2021-09-19T09:58:08Z</time>
      </trkpt>
      <trkpt lat="36.799952" lon="-5.011734">
        <ele>881.631</ele>
        <time>2021-09-19T09:58:09Z</time>
      </trkpt>
      <trkpt lat="36.799851" lon="-5.011689">
        <ele>882.645</ele>
        <time>2021-09-19T09:58:13Z</time>
      </trkpt>
      <trkpt lat="36.799805" lon="-5.011686">
        <ele>883.047</ele>
        <time>2021-09-19T09:58:15Z</time>
      </trkpt>
      <trkpt lat="36.799744" lon="-5.011638">
        <ele>883.411</ele>
        <time>2021-09-19T09:58:18Z</time>
      </trkpt>
      <trkpt lat="36.799703" lon="-5.011603">
        <ele>883.808</ele>
        <time>2021-09-19T09:58:20Z</time>
      </trkpt>
      <trkpt lat="36.799620" lon="-5.011526">
        <ele>884.632</ele>
        <time>2021-09-19T09:58:24Z</time>
      </trkpt>
      <trkpt lat="36.799550" lon="-5.011471">
        <ele>885.438</ele>
        <time>2021-09-19T09:58:27Z</time>
      </trkpt>
      <trkpt lat="36.799529" lon="-5.011450">
        <ele>885.816</ele>
        <time>2021-09-19T09:58:28Z</time>
      </trkpt>
      <trkpt lat="36.799409" lon="-5.011310">
        <ele>886.628</ele>
        <time>2021-09-19T09:58:34Z</time>
      </trkpt>
      <trkpt lat="36.799298" lon="-5.011203">
        <ele>887.621</ele>
        <time>2021-09-19T09:58:39Z</time>
      </trkpt>
      <trkpt lat="36.799226" lon="-5.011148">
        <ele>888.257</ele>
        <time>2021-09-19T09:58:42Z</time>
      </trkpt>
      <trkpt lat="36.799131" lon="-5.011098">
        <ele>888.830</ele>
        <time>2021-09-19T09:58:46Z</time>
      </trkpt>
      <trkpt lat="36.799082" lon="-5.011078">
        <ele>889.297</ele>
        <time>2021-09-19T09:58:48Z</time>
      </trkpt>
      <trkpt lat="36.798960" lon="-5.011028">
        <ele>889.866</ele>
        <time>2021-09-19T09:58:53Z</time>
      </trkpt>
      <trkpt lat="36.798816" lon="-5.010976">
        <ele>891.029</ele>
        <time>2021-09-19T09:58:59Z</time>
      </trkpt>
      <trkpt lat="36.798665" lon="-5.010953">
        <ele>892.221</ele>
        <time>2021-09-19T09:59:05Z</time>
      </trkpt>
      <trkpt lat="36.798640" lon="-5.010955">
        <ele>892.408</ele>
        <time>2021-09-19T09:59:06Z</time>
      </trkpt>
      <trkpt lat="36.798480" lon="-5.010957">
        <ele>893.224</ele>
        <time>2021-09-19T09:59:12Z</time>
      </trkpt>
      <trkpt lat="36.798427" lon="-5.010956">
        <ele>893.660</ele>
        <time>2021-09-19T09:59:14Z</time>
      </trkpt>
      <trkpt lat="36.798324" lon="-5.010935">
        <ele>894.278</ele>
        <time>2021-09-19T09:59:18Z</time>
      </trkpt>
      <trkpt lat="36.798247" lon="-5.010901">
        <ele>894.620</ele>
        <time>2021-09-19T09:59:21Z</time>
      </trkpt>
      <trkpt lat="36.798199" lon="-5.010873">
        <ele>895.223</ele>
        <time>2021-09-19T09:59:23Z</time>
      </trkpt>
      <trkpt lat="36.798127" lon="-5.010826">
        <ele>896.269</ele>
        <time>2021-09-19T09:59:26Z</time>
      </trkpt>
      <trkpt lat="36.798051" lon="-5.010778">
        <ele>896.622</ele>
        <time>2021-09-19T09:59:29Z</time>
      </trkpt>
      <trkpt lat="36.797910" lon="-5.010674">
        <ele>897.489</ele>
        <time>2021-09-19T09:59:35Z</time>
      </trkpt>
      <trkpt lat="36.797887" lon="-5.010658">
        <ele>897.482</ele>
        <time>2021-09-19T09:59:36Z</time>
      </trkpt>
      <trkpt lat="36.797775" lon="-5.010570">
        <ele>898.443</ele>
        <time>2021-09-19T09:59:41Z</time>
      </trkpt>
      <trkpt lat="36.797695" lon="-5.010487">
        <ele>899.017</ele>
        <time>2021-09-19T09:59:45Z</time>
      </trkpt>
      <trkpt lat="36.797648" lon="-5.010407">
        <ele>899.408</ele>
        <time>2021-09-19T09:59:48Z</time>
      </trkpt>
      <trkpt lat="36.797611" lon="-5.010278">
        <ele>900.456</ele>
        <time>2021-09-19T09:59:52Z</time>
      </trkpt>
      <trkpt lat="36.797608" lon="-5.010243">
        <ele>900.682</ele>
        <time>2021-09-19T09:59:53Z</time>
      </trkpt>
      <trkpt lat="36.797609" lon="-5.010044">
        <ele>901.260</ele>
        <time>2021-09-19T09:59:59Z</time>
      </trkpt>
      <trkpt lat="36.797608" lon="-5.010011">
        <ele>901.472</ele>
        <time>2021-09-19T10:00:00Z</time>
      </trkpt>
      <trkpt lat="36.797622" lon="-5.009846">
        <ele>902.415</ele>
        <time>2021-09-19T10:00:05Z</time>
      </trkpt>
      <trkpt lat="36.797628" lon="-5.009812">
        <ele>902.841</ele>
        <time>2021-09-19T10:00:06Z</time>
      </trkpt>
      <trkpt lat="36.797655" lon="-5.009681">
        <ele>903.664</ele>
        <time>2021-09-19T10:00:10Z</time>
      </trkpt>
      <trkpt lat="36.797690" lon="-5.009518">
        <ele>904.431</ele>
        <time>2021-09-19T10:00:15Z</time>
      </trkpt>
      <trkpt lat="36.797709" lon="-5.009456">
        <ele>904.617</ele>
        <time>2021-09-19T10:00:17Z</time>
      </trkpt>
      <trkpt lat="36.797791" lon="-5.009313">
        <ele>905.487</ele>
        <time>2021-09-19T10:00:22Z</time>
      </trkpt>
      <trkpt lat="36.797809" lon="-5.009286">
        <ele>905.415</ele>
        <time>2021-09-19T10:00:23Z</time>
      </trkpt>
      <trkpt lat="36.797955" lon="-5.009074">
        <ele>906.608</ele>
        <time>2021-09-19T10:00:31Z</time>
      </trkpt>
      <trkpt lat="36.798011" lon="-5.008990">
        <ele>906.819</ele>
        <time>2021-09-19T10:00:34Z</time>
      </trkpt>
      <trkpt lat="36.798112" lon="-5.008774">
        <ele>907.815</ele>
        <time>2021-09-19T10:00:41Z</time>
      </trkpt>
      <trkpt lat="36.798116" lon="-5.008738">
        <ele>907.883</ele>
        <time>2021-09-19T10:00:42Z</time>
      </trkpt>
      <trkpt lat="36.798073" lon="-5.008573">
        <ele>908.645</ele>
        <time>2021-09-19T10:00:47Z</time>
      </trkpt>
      <trkpt lat="36.798045" lon="-5.008552">
        <ele>908.848</ele>
        <time>2021-09-19T10:00:48Z</time>
      </trkpt>
      <trkpt lat="36.797937" lon="-5.008491">
        <ele>909.814</ele>
        <time>2021-09-19T10:00:52Z</time>
      </trkpt>
      <trkpt lat="36.797910" lon="-5.008476">
        <ele>910.267</ele>
        <time>2021-09-19T10:00:53Z</time>
      </trkpt>
      <trkpt lat="36.797829" lon="-5.008429">
        <ele>910.884</ele>
        <time>2021-09-19T10:00:56Z</time>
      </trkpt>
      <trkpt lat="36.797684" lon="-5.008310">
        <ele>911.856</ele>
        <time>2021-09-19T10:01:02Z</time>
      </trkpt>
      <trkpt lat="36.797638" lon="-5.008264">
        <ele>912.059</ele>
        <time>2021-09-19T10:01:04Z</time>
      </trkpt>
      <trkpt lat="36.797527" lon="-5.008140">
        <ele>912.614</ele>
        <time>2021-09-19T10:01:09Z</time>
      </trkpt>
      <trkpt lat="36.797459" lon="-5.008066">
        <ele>913.008</ele>
        <time>2021-09-19T10:01:12Z</time>
      </trkpt>
      <trkpt lat="36.797328" lon="-5.007918">
        <ele>913.653</ele>
        <time>2021-09-19T10:01:18Z</time>
      </trkpt>
      <trkpt lat="36.797282" lon="-5.007874">
        <ele>913.829</ele>
        <time>2021-09-19T10:01:20Z</time>
      </trkpt>
      <trkpt lat="36.797127" lon="-5.007778">
        <ele>914.697</ele>
        <time>2021-09-19T10:01:26Z</time>
      </trkpt>
      <trkpt lat="36.797069" lon="-5.007761">
        <ele>915.089</ele>
        <time>2021-09-19T10:01:28Z</time>
      </trkpt>
      <trkpt lat="36.796888" lon="-5.007737">
        <ele>915.642</ele>
        <time>2021-09-19T10:01:34Z</time>
      </trkpt>
      <trkpt lat="36.796801" lon="-5.007736">
        <ele>916.258</ele>
        <time>2021-09-19T10:01:37Z</time>
      </trkpt>
      <trkpt lat="36.796662" lon="-5.007724">
        <ele>917.081</ele>
        <time>2021-09-19T10:01:42Z</time>
      </trkpt>
      <trkpt lat="36.796535" lon="-5.007658">
        <ele>918.068</ele>
        <time>2021-09-19T10:01:46Z</time>
      </trkpt>
      <trkpt lat="36.796472" lon="-5.007605">
        <ele>918.294</ele>
        <time>2021-09-19T10:01:48Z</time>
      </trkpt>
      <trkpt lat="36.796415" lon="-5.007534">
        <ele>918.657</ele>
        <time>2021-09-19T10:01:50Z</time>
      </trkpt>
      <trkpt lat="36.796338" lon="-5.007404">
        <ele>918.822</ele>
        <time>2021-09-19T10:01:53Z</time>
      </trkpt>
      <trkpt lat="36.796262" lon="-5.007254">
        <ele>919.008</ele>
        <time>2021-09-19T10:01:56Z</time>
      </trkpt>
      <trkpt lat="36.796136" lon="-5.007004">
        <ele>919.247</ele>
        <time>2021-09-19T10:02:01Z</time>
      </trkpt>
      <trkpt lat="36.795972" lon="-5.006654">
        <ele>919.623</ele>
        <time>2021-09-19T10:02:08Z</time>
      </trkpt>
      <trkpt lat="36.795789" lon="-5.006293">
        <ele>919.861</ele>
        <time>2021-09-19T10:02:15Z</time>
      </trkpt>
      <trkpt lat="36.795600" lon="-5.005901">
        <ele>920.063</ele>
        <time>2021-09-19T10:02:23Z</time>
      </trkpt>
      <trkpt lat="36.795555" lon="-5.005803">
        <ele>920.066</ele>
        <time>2021-09-19T10:02:25Z</time>
      </trkpt>
      <trkpt lat="36.795410" lon="-5.005509">
        <ele>920.062</ele>
        <time>2021-09-19T10:02:31Z</time>
      </trkpt>
      <trkpt lat="36.795244" lon="-5.005157">
        <ele>920.455</ele>
        <time>2021-09-19T10:02:38Z</time>
      </trkpt>
      <trkpt lat="36.795029" lon="-5.004712">
        <ele>920.612</ele>
        <time>2021-09-19T10:02:47Z</time>
      </trkpt>
      <trkpt lat="36.794981" lon="-5.004610">
        <ele>920.667</ele>
        <time>2021-09-19T10:02:49Z</time>
      </trkpt>
      <trkpt lat="36.794818" lon="-5.004268">
        <ele>920.881</ele>
        <time>2021-09-19T10:02:56Z</time>
      </trkpt>
      <trkpt lat="36.794725" lon="-5.004079">
        <ele>921.019</ele>
        <time>2021-09-19T10:03:00Z</time>
      </trkpt>
      <trkpt lat="36.794567" lon="-5.003678">
        <ele>922.008</ele>
        <time>2021-09-19T10:03:08Z</time>
      </trkpt>
      <trkpt lat="36.794532" lon="-5.003576">
        <ele>922.474</ele>
        <time>2021-09-19T10:03:10Z</time>
      </trkpt>
      <trkpt lat="36.794500" lon="-5.003468">
        <ele>923.080</ele>
        <time>2021-09-19T10:03:12Z</time>
      </trkpt>
      <trkpt lat="36.794450" lon="-5.003199">
        <ele>923.838</ele>
        <time>2021-09-19T10:03:17Z</time>
      </trkpt>
      <trkpt lat="36.794425" lon="-5.003038">
        <ele>924.270</ele>
        <time>2021-09-19T10:03:20Z</time>
      </trkpt>
      <trkpt lat="36.794360" lon="-5.002614">
        <ele>925.293</ele>
        <time>2021-09-19T10:03:28Z</time>
      </trkpt>
      <trkpt lat="36.794277" lon="-5.002085">
        <ele>926.039</ele>
        <time>2021-09-19T10:03:38Z</time>
      </trkpt>
      <trkpt lat="36.794232" lon="-5.001824">
        <ele>926.292</ele>
        <time>2021-09-19T10:03:43Z</time>
      </trkpt>
      <trkpt lat="36.794192" lon="-5.001561">
        <ele>926.699</ele>
        <time>2021-09-19T10:03:48Z</time>
      </trkpt>
      <trkpt lat="36.794100" lon="-5.000967">
        <ele>927.038</ele>
        <time>2021-09-19T10:03:59Z</time>
      </trkpt>
      <trkpt lat="36.794066" lon="-5.000752">
        <ele>927.270</ele>
        <time>2021-09-19T10:04:03Z</time>
      </trkpt>
      <trkpt lat="36.794010" lon="-5.000380">
        <ele>927.817</ele>
        <time>2021-09-19T10:04:10Z</time>
      </trkpt>
      <trkpt lat="36.793988" lon="-5.000238">
        <ele>928.208</ele>
        <time>2021-09-19T10:04:13Z</time>
      </trkpt>
      <trkpt lat="36.793955" lon="-5.000049">
        <ele>928.841</ele>
        <time>2021-09-19T10:04:17Z</time>
      </trkpt>
      <trkpt lat="36.793942" lon="-4.999957">
        <ele>929.457</ele>
        <time>2021-09-19T10:04:19Z</time>
      </trkpt>
      <trkpt lat="36.793891" lon="-4.999741">
        <ele>930.425</ele>
        <time>2021-09-19T10:04:24Z</time>
      </trkpt>
      <trkpt lat="36.793866" lon="-4.999657">
        <ele>930.887</ele>
        <time>2021-09-19T10:04:26Z</time>
      </trkpt>
      <trkpt lat="36.793822" lon="-4.999538">
        <ele>931.490</ele>
        <time>2021-09-19T10:04:29Z</time>
      </trkpt>
      <trkpt lat="36.793761" lon="-4.999399">
        <ele>932.086</ele>
        <time>2021-09-19T10:04:33Z</time>
      </trkpt>
      <trkpt lat="36.793729" lon="-4.999338">
        <ele>932.459</ele>
        <time>2021-09-19T10:04:35Z</time>
      </trkpt>
      <trkpt lat="36.793644" lon="-4.999191">
        <ele>933.476</ele>
        <time>2021-09-19T10:04:40Z</time>
      </trkpt>
      <trkpt lat="36.793628" lon="-4.999161">
        <ele>933.645</ele>
        <time>2021-09-19T10:04:41Z</time>
      </trkpt>
      <trkpt lat="36.793567" lon="-4.999035">
        <ele>934.447</ele>
        <time>2021-09-19T10:04:45Z</time>
      </trkpt>
      <trkpt lat="36.793486" lon="-4.998882">
        <ele>935.411</ele>
        <time>2021-09-19T10:04:50Z</time>
      </trkpt>
      <trkpt lat="36.793470" lon="-4.998850">
        <ele>935.608</ele>
        <time>2021-09-19T10:04:51Z</time>
      </trkpt>
      <trkpt lat="36.793351" lon="-4.998643">
        <ele>936.632</ele>
        <time>2021-09-19T10:04:58Z</time>
      </trkpt>
      <trkpt lat="36.793314" lon="-4.998591">
        <ele>937.048</ele>
        <time>2021-09-19T10:05:00Z</time>
      </trkpt>
      <trkpt lat="36.793249" lon="-4.998516">
        <ele>937.836</ele>
        <time>2021-09-19T10:05:03Z</time>
      </trkpt>
      <trkpt lat="36.793114" lon="-4.998416">
        <ele>938.888</ele>
        <time>2021-09-19T10:05:08Z</time>
      </trkpt>
      <trkpt lat="36.792942" lon="-4.998340">
        <ele>939.851</ele>
        <time>2021-09-19T10:05:14Z</time>
      </trkpt>
      <trkpt lat="36.792831" lon="-4.998304">
        <ele>940.687</ele>
        <time>2021-09-19T10:05:18Z</time>
      </trkpt>
      <trkpt lat="36.792776" lon="-4.998290">
        <ele>941.240</ele>
        <time>2021-09-19T10:05:20Z</time>
      </trkpt>
      <trkpt lat="36.792635" lon="-4.998249">
        <ele>942.087</ele>
        <time>2021-09-19T10:05:25Z</time>
      </trkpt>
      <trkpt lat="36.792607" lon="-4.998243">
        <ele>942.258</ele>
        <time>2021-09-19T10:05:26Z</time>
      </trkpt>
      <trkpt lat="36.792491" lon="-4.998215">
        <ele>942.852</ele>
        <time>2021-09-19T10:05:30Z</time>
      </trkpt>
      <trkpt lat="36.792460" lon="-4.998204">
        <ele>943.017</ele>
        <time>2021-09-19T10:05:31Z</time>
      </trkpt>
      <trkpt lat="36.792363" lon="-4.998171">
        <ele>943.808</ele>
        <time>2021-09-19T10:05:34Z</time>
      </trkpt>
      <trkpt lat="36.792290" lon="-4.998143">
        <ele>944.223</ele>
        <time>2021-09-19T10:05:36Z</time>
      </trkpt>
      <trkpt lat="36.792070" lon="-4.998031">
        <ele>945.479</ele>
        <time>2021-09-19T10:05:42Z</time>
      </trkpt>
      <trkpt lat="36.791726" lon="-4.997814">
        <ele>946.467</ele>
        <time>2021-09-19T10:05:52Z</time>
      </trkpt>
      <trkpt lat="36.791695" lon="-4.997794">
        <ele>946.429</ele>
        <time>2021-09-19T10:05:53Z</time>
      </trkpt>
      <trkpt lat="36.791531" lon="-4.997684">
        <ele>946.892</ele>
        <time>2021-09-19T10:05:58Z</time>
      </trkpt>
      <trkpt lat="36.791464" lon="-4.997649">
        <ele>947.038</ele>
        <time>2021-09-19T10:06:00Z</time>
      </trkpt>
      <trkpt lat="36.791431" lon="-4.997629">
        <ele>947.421</ele>
        <time>2021-09-19T10:06:01Z</time>
      </trkpt>
      <trkpt lat="36.791242" lon="-4.997501">
        <ele>948.268</ele>
        <time>2021-09-19T10:06:07Z</time>
      </trkpt>
      <trkpt lat="36.791210" lon="-4.997477">
        <ele>948.458</ele>
        <time>2021-09-19T10:06:08Z</time>
      </trkpt>
      <trkpt lat="36.791042" lon="-4.997371">
        <ele>949.452</ele>
        <time>2021-09-19T10:06:13Z</time>
      </trkpt>
      <trkpt lat="36.790881" lon="-4.997267">
        <ele>950.017</ele>
        <time>2021-09-19T10:06:18Z</time>
      </trkpt>
      <trkpt lat="36.790784" lon="-4.997201">
        <ele>950.408</ele>
        <time>2021-09-19T10:06:21Z</time>
      </trkpt>
      <trkpt lat="36.790660" lon="-4.997093">
        <ele>951.253</ele>
        <time>2021-09-19T10:06:25Z</time>
      </trkpt>
      <trkpt lat="36.790601" lon="-4.997038">
        <ele>951.659</ele>
        <time>2021-09-19T10:06:27Z</time>
      </trkpt>
      <trkpt lat="36.790430" lon="-4.996848">
        <ele>952.897</ele>
        <time>2021-09-19T10:06:33Z</time>
      </trkpt>
      <trkpt lat="36.790403" lon="-4.996811">
        <ele>952.859</ele>
        <time>2021-09-19T10:06:34Z</time>
      </trkpt>
      <trkpt lat="36.790281" lon="-4.996619">
        <ele>953.822</ele>
        <time>2021-09-19T10:06:39Z</time>
      </trkpt>
      <trkpt lat="36.790156" lon="-4.996376">
        <ele>954.488</ele>
        <time>2021-09-19T10:06:45Z</time>
      </trkpt>
      <trkpt lat="36.790114" lon="-4.996295">
        <ele>954.831</ele>
        <time>2021-09-19T10:06:47Z</time>
      </trkpt>
      <trkpt lat="36.789949" lon="-4.995967">
        <ele>955.888</ele>
        <time>2021-09-19T10:06:55Z</time>
      </trkpt>
      <trkpt lat="36.789856" lon="-4.995769">
        <ele>957.041</ele>
        <time>2021-09-19T10:07:00Z</time>
      </trkpt>
      <trkpt lat="36.789798" lon="-4.995602">
        <ele>957.681</ele>
        <time>2021-09-19T10:07:04Z</time>
      </trkpt>
      <trkpt lat="36.789772" lon="-4.995478">
        <ele>958.209</ele>
        <time>2021-09-19T10:07:07Z</time>
      </trkpt>
      <trkpt lat="36.789796" lon="-4.995402">
        <ele>958.608</ele>
        <time>2021-09-19T10:07:09Z</time>
      </trkpt>
      <trkpt lat="36.789847" lon="-4.995321">
        <ele>959.252</ele>
        <time>2021-09-19T10:07:12Z</time>
      </trkpt>
      <trkpt lat="36.789890" lon="-4.995246">
        <ele>959.688</ele>
        <time>2021-09-19T10:07:15Z</time>
      </trkpt>
      <trkpt lat="36.789957" lon="-4.995117">
        <ele>960.026</ele>
        <time>2021-09-19T10:07:19Z</time>
      </trkpt>
      <trkpt lat="36.790040" lon="-4.994961">
        <ele>960.458</ele>
        <time>2021-09-19T10:07:23Z</time>
      </trkpt>
      <trkpt lat="36.790156" lon="-4.994772">
        <ele>960.811</ele>
        <time>2021-09-19T10:07:28Z</time>
      </trkpt>
      <trkpt lat="36.790296" lon="-4.994601">
        <ele>961.277</ele>
        <time>2021-09-19T10:07:33Z</time>
      </trkpt>
      <trkpt lat="36.790393" lon="-4.994450">
        <ele>961.490</ele>
        <time>2021-09-19T10:07:37Z</time>
      </trkpt>
      <trkpt lat="36.790494" lon="-4.994312">
        <ele>961.667</ele>
        <time>2021-09-19T10:07:41Z</time>
      </trkpt>
      <trkpt lat="36.790663" lon="-4.994065">
        <ele>962.055</ele>
        <time>2021-09-19T10:07:48Z</time>
      </trkpt>
      <trkpt lat="36.790738" lon="-4.993960">
        <ele>962.607</ele>
        <time>2021-09-19T10:07:51Z</time>
      </trkpt>
      <trkpt lat="36.790873" lon="-4.993797">
        <ele>963.017</ele>
        <time>2021-09-19T10:07:56Z</time>
      </trkpt>
      <trkpt lat="36.791038" lon="-4.993590">
        <ele>963.608</ele>
        <time>2021-09-19T10:08:02Z</time>
      </trkpt>
      <trkpt lat="36.791120" lon="-4.993490">
        <ele>963.823</ele>
        <time>2021-09-19T10:08:05Z</time>
      </trkpt>
      <trkpt lat="36.791284" lon="-4.993287">
        <ele>964.629</ele>
        <time>2021-09-19T10:08:11Z</time>
      </trkpt>
      <trkpt lat="36.791389" lon="-4.993150">
        <ele>965.217</ele>
        <time>2021-09-19T10:08:15Z</time>
      </trkpt>
      <trkpt lat="36.791470" lon="-4.993048">
        <ele>965.899</ele>
        <time>2021-09-19T10:08:18Z</time>
      </trkpt>
      <trkpt lat="36.791624" lon="-4.992841">
        <ele>966.852</ele>
        <time>2021-09-19T10:08:24Z</time>
      </trkpt>
      <trkpt lat="36.791651" lon="-4.992805">
        <ele>967.038</ele>
        <time>2021-09-19T10:08:25Z</time>
      </trkpt>
      <trkpt lat="36.791833" lon="-4.992552">
        <ele>968.061</ele>
        <time>2021-09-19T10:08:32Z</time>
      </trkpt>
      <trkpt lat="36.791992" lon="-4.992345">
        <ele>969.028</ele>
        <time>2021-09-19T10:08:38Z</time>
      </trkpt>
      <trkpt lat="36.792101" lon="-4.992222">
        <ele>969.669</ele>
        <time>2021-09-19T10:08:42Z</time>
      </trkpt>
      <trkpt lat="36.792152" lon="-4.992162">
        <ele>970.404</ele>
        <time>2021-09-19T10:08:44Z</time>
      </trkpt>
      <trkpt lat="36.792276" lon="-4.992041">
        <ele>971.424</ele>
        <time>2021-09-19T10:08:49Z</time>
      </trkpt>
      <trkpt lat="36.792391" lon="-4.991946">
        <ele>972.608</ele>
        <time>2021-09-19T10:08:54Z</time>
      </trkpt>
      <trkpt lat="36.792423" lon="-4.991918">
        <ele>972.814</ele>
        <time>2021-09-19T10:08:55Z</time>
      </trkpt>
      <trkpt lat="36.792538" lon="-4.991818">
        <ele>973.080</ele>
        <time>2021-09-19T10:08:58Z</time>
      </trkpt>
      <trkpt lat="36.792611" lon="-4.991729">
        <ele>973.058</ele>
        <time>2021-09-19T10:09:00Z</time>
      </trkpt>
      <trkpt lat="36.792793" lon="-4.991476">
        <ele>972.470</ele>
        <time>2021-09-19T10:09:05Z</time>
      </trkpt>
      <trkpt lat="36.792834" lon="-4.991429">
        <ele>972.243</ele>
        <time>2021-09-19T10:09:06Z</time>
      </trkpt>
      <trkpt lat="36.792879" lon="-4.991387">
        <ele>972.099</ele>
        <time>2021-09-19T10:09:07Z</time>
      </trkpt>
      <trkpt lat="36.793050" lon="-4.991310">
        <ele>971.462</ele>
        <time>2021-09-19T10:09:10Z</time>
      </trkpt>
      <trkpt lat="36.793285" lon="-4.991320">
        <ele>970.679</ele>
        <time>2021-09-19T10:09:13Z</time>
      </trkpt>
      <trkpt lat="36.793375" lon="-4.991328">
        <ele>970.246</ele>
        <time>2021-09-19T10:09:14Z</time>
      </trkpt>
      <trkpt lat="36.793563" lon="-4.991329">
        <ele>969.688</ele>
        <time>2021-09-19T10:09:16Z</time>
      </trkpt>
      <trkpt lat="36.793757" lon="-4.991319">
        <ele>969.416</ele>
        <time>2021-09-19T10:09:18Z</time>
      </trkpt>
      <trkpt lat="36.793856" lon="-4.991304">
        <ele>969.008</ele>
        <time>2021-09-19T10:09:19Z</time>
      </trkpt>
      <trkpt lat="36.794054" lon="-4.991264">
        <ele>966.822</ele>
        <time>2021-09-19T10:09:21Z</time>
      </trkpt>
      <trkpt lat="36.794152" lon="-4.991242">
        <ele>965.478</ele>
        <time>2021-09-19T10:09:22Z</time>
      </trkpt>
      <trkpt lat="36.794250" lon="-4.991219">
        <ele>964.026</ele>
        <time>2021-09-19T10:09:23Z</time>
      </trkpt>
      <trkpt lat="36.794344" lon="-4.991196">
        <ele>962.898</ele>
        <time>2021-09-19T10:09:24Z</time>
      </trkpt>
      <trkpt lat="36.794522" lon="-4.991142">
        <ele>961.651</ele>
        <time>2021-09-19T10:09:26Z</time>
      </trkpt>
      <trkpt lat="36.794769" lon="-4.991031">
        <ele>959.847</ele>
        <time>2021-09-19T10:09:29Z</time>
      </trkpt>
      <trkpt lat="36.794842" lon="-4.990985">
        <ele>958.670</ele>
        <time>2021-09-19T10:09:30Z</time>
      </trkpt>
      <trkpt lat="36.794911" lon="-4.990932">
        <ele>957.477</ele>
        <time>2021-09-19T10:09:31Z</time>
      </trkpt>
      <trkpt lat="36.794975" lon="-4.990873">
        <ele>956.259</ele>
        <time>2021-09-19T10:09:32Z</time>
      </trkpt>
      <trkpt lat="36.795036" lon="-4.990809">
        <ele>955.603</ele>
        <time>2021-09-19T10:09:33Z</time>
      </trkpt>
      <trkpt lat="36.795099" lon="-4.990749">
        <ele>955.223</ele>
        <time>2021-09-19T10:09:34Z</time>
      </trkpt>
      <trkpt lat="36.795270" lon="-4.990609">
        <ele>954.208</ele>
        <time>2021-09-19T10:09:37Z</time>
      </trkpt>
      <trkpt lat="36.795314" lon="-4.990498">
        <ele>953.833</ele>
        <time>2021-09-19T10:09:39Z</time>
      </trkpt>
      <trkpt lat="36.795311" lon="-4.990434">
        <ele>953.859</ele>
        <time>2021-09-19T10:09:40Z</time>
      </trkpt>
      <trkpt lat="36.795286" lon="-4.990309">
        <ele>953.487</ele>
        <time>2021-09-19T10:09:42Z</time>
      </trkpt>
      <trkpt lat="36.795263" lon="-4.990191">
        <ele>953.249</ele>
        <time>2021-09-19T10:09:44Z</time>
      </trkpt>
      <trkpt lat="36.795235" lon="-4.990079">
        <ele>953.212</ele>
        <time>2021-09-19T10:09:46Z</time>
      </trkpt>
      <trkpt lat="36.795200" lon="-4.989972">
        <ele>953.258</ele>
        <time>2021-09-19T10:09:48Z</time>
      </trkpt>
      <trkpt lat="36.795123" lon="-4.989825">
        <ele>953.471</ele>
        <time>2021-09-19T10:09:51Z</time>
      </trkpt>
      <trkpt lat="36.795050" lon="-4.989684">
        <ele>953.618</ele>
        <time>2021-09-19T10:09:54Z</time>
      </trkpt>
      <trkpt lat="36.794987" lon="-4.989543">
        <ele>954.434</ele>
        <time>2021-09-19T10:09:57Z</time>
      </trkpt>
      <trkpt lat="36.794932" lon="-4.989409">
        <ele>954.855</ele>
        <time>2021-09-19T10:10:00Z</time>
      </trkpt>
      <trkpt lat="36.794916" lon="-4.989366">
        <ele>955.010</ele>
        <time>2021-09-19T10:10:01Z</time>
      </trkpt>
      <trkpt lat="36.794849" lon="-4.989081">
        <ele>955.808</ele>
        <time>2021-09-19T10:10:07Z</time>
      </trkpt>
      <trkpt lat="36.794823" lon="-4.988984">
        <ele>956.061</ele>
        <time>2021-09-19T10:10:09Z</time>
      </trkpt>
      <trkpt lat="36.794725" lon="-4.988707">
        <ele>956.827</ele>
        <time>2021-09-19T10:10:15Z</time>
      </trkpt>
      <trkpt lat="36.794687" lon="-4.988619">
        <ele>957.225</ele>
        <time>2021-09-19T10:10:17Z</time>
      </trkpt>
      <trkpt lat="36.794561" lon="-4.988309">
        <ele>957.617</ele>
        <time>2021-09-19T10:10:24Z</time>
      </trkpt>
      <trkpt lat="36.794500" lon="-4.988084">
        <ele>958.230</ele>
        <time>2021-09-19T10:10:29Z</time>
      </trkpt>
      <trkpt lat="36.794481" lon="-4.988042">
        <ele>958.446</ele>
        <time>2021-09-19T10:10:30Z</time>
      </trkpt>
      <trkpt lat="36.794333" lon="-4.987812">
        <ele>959.499</ele>
        <time>2021-09-19T10:10:36Z</time>
      </trkpt>
      <trkpt lat="36.794303" lon="-4.987778">
        <ele>959.496</ele>
        <time>2021-09-19T10:10:37Z</time>
      </trkpt>
      <trkpt lat="36.794098" lon="-4.987652">
        <ele>960.031</ele>
        <time>2021-09-19T10:10:43Z</time>
      </trkpt>
      <trkpt lat="36.794004" lon="-4.987615">
        <ele>960.461</ele>
        <time>2021-09-19T10:10:46Z</time>
      </trkpt>
      <trkpt lat="36.793885" lon="-4.987568">
        <ele>960.807</ele>
        <time>2021-09-19T10:10:50Z</time>
      </trkpt>
      <trkpt lat="36.793793" lon="-4.987545">
        <ele>961.208</ele>
        <time>2021-09-19T10:10:53Z</time>
      </trkpt>
      <trkpt lat="36.793650" lon="-4.987516">
        <ele>962.471</ele>
        <time>2021-09-19T10:10:58Z</time>
      </trkpt>
      <trkpt lat="36.793485" lon="-4.987490">
        <ele>963.617</ele>
        <time>2021-09-19T10:11:04Z</time>
      </trkpt>
      <trkpt lat="36.793430" lon="-4.987480">
        <ele>964.065</ele>
        <time>2021-09-19T10:11:06Z</time>
      </trkpt>
      <trkpt lat="36.793318" lon="-4.987459">
        <ele>964.847</ele>
        <time>2021-09-19T10:11:10Z</time>
      </trkpt>
      <trkpt lat="36.793217" lon="-4.987445">
        <ele>965.640</ele>
        <time>2021-09-19T10:11:14Z</time>
      </trkpt>
      <trkpt lat="36.793196" lon="-4.987442">
        <ele>965.896</ele>
        <time>2021-09-19T10:11:15Z</time>
      </trkpt>
      <trkpt lat="36.793087" lon="-4.987433">
        <ele>967.059</ele>
        <time>2021-09-19T10:11:20Z</time>
      </trkpt>
      <trkpt lat="36.793043" lon="-4.987423">
        <ele>967.446</ele>
        <time>2021-09-19T10:11:22Z</time>
      </trkpt>
      <trkpt lat="36.792976" lon="-4.987404">
        <ele>968.222</ele>
        <time>2021-09-19T10:11:25Z</time>
      </trkpt>
      <trkpt lat="36.792875" lon="-4.987397">
        <ele>969.062</ele>
        <time>2021-09-19T10:11:30Z</time>
      </trkpt>
      <trkpt lat="36.792855" lon="-4.987399">
        <ele>969.408</ele>
        <time>2021-09-19T10:11:31Z</time>
      </trkpt>
      <trkpt lat="36.792754" lon="-4.987407">
        <ele>970.408</ele>
        <time>2021-09-19T10:11:36Z</time>
      </trkpt>
      <trkpt lat="36.792697" lon="-4.987409">
        <ele>971.260</ele>
        <time>2021-09-19T10:11:39Z</time>
      </trkpt>
      <trkpt lat="36.792664" lon="-4.987409">
        <ele>971.676</ele>
        <time>2021-09-19T10:11:41Z</time>
      </trkpt>
      <trkpt lat="36.792598" lon="-4.987430">
        <ele>972.824</ele>
        <time>2021-09-19T10:11:45Z</time>
      </trkpt>
      <trkpt lat="36.792567" lon="-4.987447">
        <ele>973.496</ele>
        <time>2021-09-19T10:11:47Z</time>
      </trkpt>
      <trkpt lat="36.792553" lon="-4.987458">
        <ele>973.669</ele>
        <time>2021-09-19T10:11:48Z</time>
      </trkpt>
      <trkpt lat="36.792529" lon="-4.987477">
        <ele>974.265</ele>
        <time>2021-09-19T10:11:50Z</time>
      </trkpt>
      <trkpt lat="36.792504" lon="-4.987498">
        <ele>974.618</ele>
        <time>2021-09-19T10:11:52Z</time>
      </trkpt>
      <trkpt lat="36.792479" lon="-4.987511">
        <ele>975.075</ele>
        <time>2021-09-19T10:11:54Z</time>
      </trkpt>
      <trkpt lat="36.792466" lon="-4.987514">
        <ele>975.493</ele>
        <time>2021-09-19T10:11:55Z</time>
      </trkpt>
      <trkpt lat="36.792438" lon="-4.987531">
        <ele>975.865</ele>
        <time>2021-09-19T10:11:57Z</time>
      </trkpt>
      <trkpt lat="36.792408" lon="-4.987557">
        <ele>976.621</ele>
        <time>2021-09-19T10:11:59Z</time>
      </trkpt>
      <trkpt lat="36.792335" lon="-4.987605">
        <ele>977.808</ele>
        <time>2021-09-19T10:12:04Z</time>
      </trkpt>
      <trkpt lat="36.792302" lon="-4.987612">
        <ele>978.627</ele>
        <time>2021-09-19T10:12:06Z</time>
      </trkpt>
      <trkpt lat="36.792248" lon="-4.987629">
        <ele>979.093</ele>
        <time>2021-09-19T10:12:09Z</time>
      </trkpt>
      <trkpt lat="36.792187" lon="-4.987631">
        <ele>979.421</ele>
        <time>2021-09-19T10:12:12Z</time>
      </trkpt>
      <trkpt lat="36.792066" lon="-4.987559">
        <ele>979.823</ele>
        <time>2021-09-19T10:12:17Z</time>
      </trkpt>
      <trkpt lat="36.791944" lon="-4.987409">
        <ele>980.086</ele>
        <time>2021-09-19T10:12:22Z</time>
      </trkpt>
      <trkpt lat="36.791797" lon="-4.987318">
        <ele>978.432</ele>
        <time>2021-09-19T10:12:27Z</time>
      </trkpt>
      <trkpt lat="36.791737" lon="-4.987263">
        <ele>977.665</ele>
        <time>2021-09-19T10:12:29Z</time>
      </trkpt>
      <trkpt lat="36.791667" lon="-4.987185">
        <ele>976.642</ele>
        <time>2021-09-19T10:12:31Z</time>
      </trkpt>
      <trkpt lat="36.791632" lon="-4.987136">
        <ele>976.096</ele>
        <time>2021-09-19T10:12:32Z</time>
      </trkpt>
      <trkpt lat="36.791597" lon="-4.987080">
        <ele>975.631</ele>
        <time>2021-09-19T10:12:33Z</time>
      </trkpt>
      <trkpt lat="36.791563" lon="-4.987021">
        <ele>974.424</ele>
        <time>2021-09-19T10:12:34Z</time>
      </trkpt>
      <trkpt lat="36.791487" lon="-4.986907">
        <ele>973.208</ele>
        <time>2021-09-19T10:12:36Z</time>
      </trkpt>
      <trkpt lat="36.791444" lon="-4.986858">
        <ele>972.897</ele>
        <time>2021-09-19T10:12:37Z</time>
      </trkpt>
      <trkpt lat="36.791380" lon="-4.986781">
        <ele>971.423</ele>
        <time>2021-09-19T10:12:39Z</time>
      </trkpt>
      <trkpt lat="36.791369" lon="-4.986753">
        <ele>971.061</ele>
        <time>2021-09-19T10:12:40Z</time>
      </trkpt>
      <trkpt lat="36.791368" lon="-4.986708">
        <ele>970.273</ele>
        <time>2021-09-19T10:12:42Z</time>
      </trkpt>
      <trkpt lat="36.791386" lon="-4.986648">
        <ele>969.076</ele>
        <time>2021-09-19T10:12:45Z</time>
      </trkpt>
      <trkpt lat="36.791419" lon="-4.986613">
        <ele>968.282</ele>
        <time>2021-09-19T10:12:49Z</time>
      </trkpt>
      <trkpt lat="36.791428" lon="-4.986607">
        <ele>968.075</ele>
        <time>2021-09-19T10:12:51Z</time>
      </trkpt>
      <trkpt lat="36.791431" lon="-4.986606">
        <ele>968.022</ele>
        <time>2021-09-19T10:12:52Z</time>
      </trkpt>
      <trkpt lat="36.791476" lon="-4.986550">
        <ele>966.231</ele>
        <time>2021-09-19T10:13:02Z</time>
      </trkpt>
      <trkpt lat="36.791488" lon="-4.986543">
        <ele>966.061</ele>
        <time>2021-09-19T10:13:03Z</time>
      </trkpt>
      <trkpt lat="36.791518" lon="-4.986521">
        <ele>966.007</ele>
        <time>2021-09-19T10:13:05Z</time>
      </trkpt>
      <trkpt lat="36.791525" lon="-4.986501">
        <ele>965.408</ele>
        <time>2021-09-19T10:13:08Z</time>
      </trkpt>
      <trkpt lat="36.791501" lon="-4.986439">
        <ele>964.021</ele>
        <time>2021-09-19T10:13:15Z</time>
      </trkpt>
      <trkpt lat="36.791505" lon="-4.986378">
        <ele>962.877</ele>
        <time>2021-09-19T10:13:21Z</time>
      </trkpt>
      <trkpt lat="36.791518" lon="-4.986340">
        <ele>961.855</ele>
        <time>2021-09-19T10:13:23Z</time>
      </trkpt>
      <trkpt lat="36.791547" lon="-4.986296">
        <ele>961.067</ele>
        <time>2021-09-19T10:13:25Z</time>
      </trkpt>
      <trkpt lat="36.791563" lon="-4.986275">
        <ele>960.610</ele>
        <time>2021-09-19T10:13:26Z</time>
      </trkpt>
      <trkpt lat="36.791659" lon="-4.986195">
        <ele>959.486</ele>
        <time>2021-09-19T10:13:31Z</time>
      </trkpt>
      <trkpt lat="36.791734" lon="-4.986098">
        <ele>958.489</ele>
        <time>2021-09-19T10:13:35Z</time>
      </trkpt>
      <trkpt lat="36.791752" lon="-4.986076">
        <ele>958.056</ele>
        <time>2021-09-19T10:13:36Z</time>
      </trkpt>
      <trkpt lat="36.791813" lon="-4.985987">
        <ele>956.869</ele>
        <time>2021-09-19T10:13:40Z</time>
      </trkpt>
      <trkpt lat="36.791829" lon="-4.985956">
        <ele>956.204</ele>
        <time>2021-09-19T10:13:41Z</time>
      </trkpt>
      <trkpt lat="36.791846" lon="-4.985922">
        <ele>955.824</ele>
        <time>2021-09-19T10:13:42Z</time>
      </trkpt>
      <trkpt lat="36.791940" lon="-4.985748">
        <ele>954.608</ele>
        <time>2021-09-19T10:13:47Z</time>
      </trkpt>
      <trkpt lat="36.791970" lon="-4.985717">
        <ele>954.494</ele>
        <time>2021-09-19T10:13:48Z</time>
      </trkpt>
      <trkpt lat="36.792104" lon="-4.985587">
        <ele>953.610</ele>
        <time>2021-09-19T10:13:52Z</time>
      </trkpt>
      <trkpt lat="36.792177" lon="-4.985522">
        <ele>953.078</ele>
        <time>2021-09-19T10:13:54Z</time>
      </trkpt>
      <trkpt lat="36.792252" lon="-4.985469">
        <ele>952.230</ele>
        <time>2021-09-19T10:13:56Z</time>
      </trkpt>
      <trkpt lat="36.792347" lon="-4.985392">
        <ele>951.253</ele>
        <time>2021-09-19T10:13:59Z</time>
      </trkpt>
      <trkpt lat="36.792428" lon="-4.985322">
        <ele>950.879</ele>
        <time>2021-09-19T10:14:02Z</time>
      </trkpt>
      <trkpt lat="36.792483" lon="-4.985258">
        <ele>950.682</ele>
        <time>2021-09-19T10:14:04Z</time>
      </trkpt>
      <trkpt lat="36.792574" lon="-4.985165">
        <ele>950.649</ele>
        <time>2021-09-19T10:14:07Z</time>
      </trkpt>
      <trkpt lat="36.792679" lon="-4.984996">
        <ele>950.257</ele>
        <time>2021-09-19T10:14:12Z</time>
      </trkpt>
      <trkpt lat="36.792715" lon="-4.984917">
        <ele>949.800</ele>
        <time>2021-09-19T10:14:14Z</time>
      </trkpt>
      <trkpt lat="36.792832" lon="-4.984715">
        <ele>949.620</ele>
        <time>2021-09-19T10:14:20Z</time>
      </trkpt>
      <trkpt lat="36.792888" lon="-4.984641">
        <ele>949.608</ele>
        <time>2021-09-19T10:14:23Z</time>
      </trkpt>
      <trkpt lat="36.792924" lon="-4.984609">
        <ele>949.873</ele>
        <time>2021-09-19T10:14:25Z</time>
      </trkpt>
      <trkpt lat="36.792964" lon="-4.984589">
        <ele>950.469</ele>
        <time>2021-09-19T10:14:27Z</time>
      </trkpt>
      <trkpt lat="36.793026" lon="-4.984562">
        <ele>951.057</ele>
        <time>2021-09-19T10:14:30Z</time>
      </trkpt>
      <trkpt lat="36.793049" lon="-4.984558">
        <ele>951.419</ele>
        <time>2021-09-19T10:14:31Z</time>
      </trkpt>
      <trkpt lat="36.793117" lon="-4.984556">
        <ele>952.092</ele>
        <time>2021-09-19T10:14:34Z</time>
      </trkpt>
      <trkpt lat="36.793179" lon="-4.984552">
        <ele>952.878</ele>
        <time>2021-09-19T10:14:37Z</time>
      </trkpt>
      <trkpt lat="36.793236" lon="-4.984561">
        <ele>953.461</ele>
        <time>2021-09-19T10:14:40Z</time>
      </trkpt>
      <trkpt lat="36.793257" lon="-4.984562">
        <ele>953.818</ele>
        <time>2021-09-19T10:14:41Z</time>
      </trkpt>
      <trkpt lat="36.793365" lon="-4.984548">
        <ele>954.412</ele>
        <time>2021-09-19T10:14:45Z</time>
      </trkpt>
      <trkpt lat="36.793551" lon="-4.984489">
        <ele>954.432</ele>
        <time>2021-09-19T10:14:51Z</time>
      </trkpt>
      <trkpt lat="36.793732" lon="-4.984414">
        <ele>953.005</ele>
        <time>2021-09-19T10:14:57Z</time>
      </trkpt>
      <trkpt lat="36.793765" lon="-4.984381">
        <ele>952.808</ele>
        <time>2021-09-19T10:14:58Z</time>
      </trkpt>
      <trkpt lat="36.793837" lon="-4.984301">
        <ele>952.499</ele>
        <time>2021-09-19T10:15:00Z</time>
      </trkpt>
      <trkpt lat="36.793911" lon="-4.984222">
        <ele>951.895</ele>
        <time>2021-09-19T10:15:02Z</time>
      </trkpt>
      <trkpt lat="36.794000" lon="-4.984138">
        <ele>950.653</ele>
        <time>2021-09-19T10:15:05Z</time>
      </trkpt>
      <trkpt lat="36.794022" lon="-4.984115">
        <ele>950.485</ele>
        <time>2021-09-19T10:15:06Z</time>
      </trkpt>
      <trkpt lat="36.794038" lon="-4.984052">
        <ele>949.078</ele>
        <time>2021-09-19T10:15:08Z</time>
      </trkpt>
      <trkpt lat="36.794031" lon="-4.983969">
        <ele>948.254</ele>
        <time>2021-09-19T10:15:10Z</time>
      </trkpt>
      <trkpt lat="36.794030" lon="-4.983916">
        <ele>947.647</ele>
        <time>2021-09-19T10:15:11Z</time>
      </trkpt>
      <trkpt lat="36.794043" lon="-4.983818">
        <ele>946.614</ele>
        <time>2021-09-19T10:15:13Z</time>
      </trkpt>
      <trkpt lat="36.794051" lon="-4.983774">
        <ele>945.874</ele>
        <time>2021-09-19T10:15:14Z</time>
      </trkpt>
      <trkpt lat="36.794067" lon="-4.983727">
        <ele>945.456</ele>
        <time>2021-09-19T10:15:15Z</time>
      </trkpt>
      <trkpt lat="36.794085" lon="-4.983678">
        <ele>945.021</ele>
        <time>2021-09-19T10:15:16Z</time>
      </trkpt>
      <trkpt lat="36.794121" lon="-4.983566">
        <ele>944.208</ele>
        <time>2021-09-19T10:15:18Z</time>
      </trkpt>
      <trkpt lat="36.794138" lon="-4.983514">
        <ele>944.095</ele>
        <time>2021-09-19T10:15:19Z</time>
      </trkpt>
      <trkpt lat="36.794177" lon="-4.983436">
        <ele>942.831</ele>
        <time>2021-09-19T10:15:21Z</time>
      </trkpt>
      <trkpt lat="36.794231" lon="-4.983397">
        <ele>941.669</ele>
        <time>2021-09-19T10:15:23Z</time>
      </trkpt>
      <trkpt lat="36.794270" lon="-4.983365">
        <ele>940.251</ele>
        <time>2021-09-19T10:15:25Z</time>
      </trkpt>
      <trkpt lat="36.794284" lon="-4.983347">
        <ele>939.424</ele>
        <time>2021-09-19T10:15:26Z</time>
      </trkpt>
      <trkpt lat="36.794291" lon="-4.983340">
        <ele>939.250</ele>
        <time>2021-09-19T10:15:27Z</time>
      </trkpt>
      <trkpt lat="36.794292" lon="-4.983339">
        <ele>938.873</ele>
        <time>2021-09-19T10:15:28Z</time>
      </trkpt>
      <trkpt lat="36.794310" lon="-4.983293">
        <ele>935.440</ele>
        <time>2021-09-19T10:16:36Z</time>
      </trkpt>
      <trkpt lat="36.794333" lon="-4.983214">
        <ele>935.419</ele>
        <time>2021-09-19T10:16:38Z</time>
      </trkpt>
      <trkpt lat="36.794413" lon="-4.983072">
        <ele>935.409</ele>
        <time>2021-09-19T10:16:42Z</time>
      </trkpt>
      <trkpt lat="36.794433" lon="-4.983037">
        <ele>935.419</ele>
        <time>2021-09-19T10:16:43Z</time>
      </trkpt>
      <trkpt lat="36.794529" lon="-4.982831">
        <ele>934.608</ele>
        <time>2021-09-19T10:16:47Z</time>
      </trkpt>
      <trkpt lat="36.794576" lon="-4.982714">
        <ele>933.259</ele>
        <time>2021-09-19T10:16:49Z</time>
      </trkpt>
      <trkpt lat="36.794621" lon="-4.982607">
        <ele>931.625</ele>
        <time>2021-09-19T10:16:51Z</time>
      </trkpt>
      <trkpt lat="36.794636" lon="-4.982549">
        <ele>931.273</ele>
        <time>2021-09-19T10:16:52Z</time>
      </trkpt>
      <trkpt lat="36.794651" lon="-4.982489">
        <ele>930.295</ele>
        <time>2021-09-19T10:16:53Z</time>
      </trkpt>
      <trkpt lat="36.794693" lon="-4.982370">
        <ele>929.028</ele>
        <time>2021-09-19T10:16:55Z</time>
      </trkpt>
      <trkpt lat="36.794733" lon="-4.982253">
        <ele>928.014</ele>
        <time>2021-09-19T10:16:57Z</time>
      </trkpt>
      <trkpt lat="36.794753" lon="-4.982128">
        <ele>926.887</ele>
        <time>2021-09-19T10:16:59Z</time>
      </trkpt>
      <trkpt lat="36.794764" lon="-4.982000">
        <ele>925.414</ele>
        <time>2021-09-19T10:17:01Z</time>
      </trkpt>
      <trkpt lat="36.794775" lon="-4.981939">
        <ele>924.816</ele>
        <time>2021-09-19T10:17:02Z</time>
      </trkpt>
      <trkpt lat="36.794794" lon="-4.981825">
        <ele>924.276</ele>
        <time>2021-09-19T10:17:04Z</time>
      </trkpt>
      <trkpt lat="36.794810" lon="-4.981702">
        <ele>923.213</ele>
        <time>2021-09-19T10:17:07Z</time>
      </trkpt>
      <trkpt lat="36.794808" lon="-4.981669">
        <ele>923.008</ele>
        <time>2021-09-19T10:17:08Z</time>
      </trkpt>
      <trkpt lat="36.794785" lon="-4.981604">
        <ele>922.849</ele>
        <time>2021-09-19T10:17:11Z</time>
      </trkpt>
      <trkpt lat="36.794781" lon="-4.981597">
        <ele>922.435</ele>
        <time>2021-09-19T10:17:13Z</time>
      </trkpt>
      <trkpt lat="36.794754" lon="-4.981565">
        <ele>920.063</ele>
        <time>2021-09-19T10:18:01Z</time>
      </trkpt>
      <trkpt lat="36.794745" lon="-4.981549">
        <ele>920.015</ele>
        <time>2021-09-19T10:18:02Z</time>
      </trkpt>
      <trkpt lat="36.794746" lon="-4.981483">
        <ele>920.028</ele>
        <time>2021-09-19T10:18:07Z</time>
      </trkpt>
      <trkpt lat="36.794739" lon="-4.981396">
        <ele>919.674</ele>
        <time>2021-09-19T10:18:11Z</time>
      </trkpt>
      <trkpt lat="36.794723" lon="-4.981377">
        <ele>919.447</ele>
        <time>2021-09-19T10:18:12Z</time>
      </trkpt>
      <trkpt lat="36.794688" lon="-4.981331">
        <ele>918.634</ele>
        <time>2021-09-19T10:18:14Z</time>
      </trkpt>
      <trkpt lat="36.794680" lon="-4.981308">
        <ele>918.476</ele>
        <time>2021-09-19T10:18:15Z</time>
      </trkpt>
      <trkpt lat="36.794680" lon="-4.981289">
        <ele>918.290</ele>
        <time>2021-09-19T10:18:16Z</time>
      </trkpt>
      <trkpt lat="36.794725" lon="-4.981255">
        <ele>917.419</ele>
        <time>2021-09-19T10:18:19Z</time>
      </trkpt>
      <trkpt lat="36.794752" lon="-4.981244">
        <ele>917.208</ele>
        <time>2021-09-19T10:18:20Z</time>
      </trkpt>
      <trkpt lat="36.794816" lon="-4.981219">
        <ele>916.235</ele>
        <time>2021-09-19T10:18:22Z</time>
      </trkpt>
      <trkpt lat="36.794873" lon="-4.981190">
        <ele>915.291</ele>
        <time>2021-09-19T10:18:24Z</time>
      </trkpt>
      <trkpt lat="36.794924" lon="-4.981151">
        <ele>914.419</ele>
        <time>2021-09-19T10:18:26Z</time>
      </trkpt>
      <trkpt lat="36.794975" lon="-4.981117">
        <ele>914.221</ele>
        <time>2021-09-19T10:18:28Z</time>
      </trkpt>
      <trkpt lat="36.795035" lon="-4.981030">
        <ele>912.864</ele>
        <time>2021-09-19T10:18:31Z</time>
      </trkpt>
      <trkpt lat="36.795066" lon="-4.980906">
        <ele>911.660</ele>
        <time>2021-09-19T10:18:34Z</time>
      </trkpt>
      <trkpt lat="36.795092" lon="-4.980813">
        <ele>911.073</ele>
        <time>2021-09-19T10:18:36Z</time>
      </trkpt>
      <trkpt lat="36.795109" lon="-4.980716">
        <ele>910.250</ele>
        <time>2021-09-19T10:18:38Z</time>
      </trkpt>
      <trkpt lat="36.795117" lon="-4.980610">
        <ele>909.841</ele>
        <time>2021-09-19T10:18:40Z</time>
      </trkpt>
      <trkpt lat="36.795123" lon="-4.980551">
        <ele>909.081</ele>
        <time>2021-09-19T10:18:41Z</time>
      </trkpt>
      <trkpt lat="36.795132" lon="-4.980494">
        <ele>907.809</ele>
        <time>2021-09-19T10:18:42Z</time>
      </trkpt>
      <trkpt lat="36.795144" lon="-4.980385">
        <ele>906.808</ele>
        <time>2021-09-19T10:18:44Z</time>
      </trkpt>
      <trkpt lat="36.795149" lon="-4.980286">
        <ele>906.432</ele>
        <time>2021-09-19T10:18:46Z</time>
      </trkpt>
      <trkpt lat="36.795162" lon="-4.980197">
        <ele>905.648</ele>
        <time>2021-09-19T10:18:48Z</time>
      </trkpt>
      <trkpt lat="36.795185" lon="-4.980067">
        <ele>904.446</ele>
        <time>2021-09-19T10:18:51Z</time>
      </trkpt>
      <trkpt lat="36.795181" lon="-4.979990">
        <ele>903.238</ele>
        <time>2021-09-19T10:18:53Z</time>
      </trkpt>
      <trkpt lat="36.795179" lon="-4.979945">
        <ele>902.211</ele>
        <time>2021-09-19T10:18:55Z</time>
      </trkpt>
      <trkpt lat="36.795177" lon="-4.979934">
        <ele>902.097</ele>
        <time>2021-09-19T10:18:56Z</time>
      </trkpt>
      <trkpt lat="36.795174" lon="-4.979919">
        <ele>900.680</ele>
        <time>2021-09-19T10:18:59Z</time>
      </trkpt>
      <trkpt lat="36.795067" lon="-4.979991">
        <ele>896.867</ele>
        <time>2021-09-19T10:19:18Z</time>
      </trkpt>
      <trkpt lat="36.795037" lon="-4.979994">
        <ele>896.834</ele>
        <time>2021-09-19T10:19:19Z</time>
      </trkpt>
      <trkpt lat="36.794911" lon="-4.980061">
        <ele>896.855</ele>
        <time>2021-09-19T10:19:23Z</time>
      </trkpt>
      <trkpt lat="36.794850" lon="-4.980103">
        <ele>896.810</ele>
        <time>2021-09-19T10:19:26Z</time>
      </trkpt>
      <trkpt lat="36.794804" lon="-4.980122">
        <ele>896.608</ele>
        <time>2021-09-19T10:19:28Z</time>
      </trkpt>
      <trkpt lat="36.794755" lon="-4.980131">
        <ele>896.031</ele>
        <time>2021-09-19T10:19:30Z</time>
      </trkpt>
      <trkpt lat="36.794669" lon="-4.980125">
        <ele>894.847</ele>
        <time>2021-09-19T10:19:33Z</time>
      </trkpt>
      <trkpt lat="36.794635" lon="-4.980122">
        <ele>894.455</ele>
        <time>2021-09-19T10:19:34Z</time>
      </trkpt>
      <trkpt lat="36.794568" lon="-4.980122">
        <ele>893.647</ele>
        <time>2021-09-19T10:19:36Z</time>
      </trkpt>
      <trkpt lat="36.794495" lon="-4.980140">
        <ele>892.270</ele>
        <time>2021-09-19T10:19:38Z</time>
      </trkpt>
      <trkpt lat="36.794419" lon="-4.980128">
        <ele>891.446</ele>
        <time>2021-09-19T10:19:40Z</time>
      </trkpt>
      <trkpt lat="36.794384" lon="-4.980112">
        <ele>890.659</ele>
        <time>2021-09-19T10:19:41Z</time>
      </trkpt>
      <trkpt lat="36.794330" lon="-4.980088">
        <ele>889.426</ele>
        <time>2021-09-19T10:19:43Z</time>
      </trkpt>
      <trkpt lat="36.794308" lon="-4.980080">
        <ele>889.037</ele>
        <time>2021-09-19T10:19:44Z</time>
      </trkpt>
      <trkpt lat="36.794275" lon="-4.980058">
        <ele>887.849</ele>
        <time>2021-09-19T10:19:46Z</time>
      </trkpt>
      <trkpt lat="36.794229" lon="-4.980021">
        <ele>886.813</ele>
        <time>2021-09-19T10:19:49Z</time>
      </trkpt>
      <trkpt lat="36.794233" lon="-4.979997">
        <ele>885.608</ele>
        <time>2021-09-19T10:19:52Z</time>
      </trkpt>
      <trkpt lat="36.794242" lon="-4.979988">
        <ele>885.231</ele>
        <time>2021-09-19T10:19:54Z</time>
      </trkpt>
      <trkpt lat="36.794251" lon="-4.979985">
        <ele>885.047</ele>
        <time>2021-09-19T10:19:55Z</time>
      </trkpt>
      <trkpt lat="36.794285" lon="-4.979971">
        <ele>884.475</ele>
        <time>2021-09-19T10:19:57Z</time>
      </trkpt>
      <trkpt lat="36.794308" lon="-4.979960">
        <ele>884.097</ele>
        <time>2021-09-19T10:19:58Z</time>
      </trkpt>
      <trkpt lat="36.794373" lon="-4.979926">
        <ele>883.280</ele>
        <time>2021-09-19T10:20:01Z</time>
      </trkpt>
      <trkpt lat="36.794390" lon="-4.979910">
        <ele>883.026</ele>
        <time>2021-09-19T10:20:02Z</time>
      </trkpt>
      <trkpt lat="36.794418" lon="-4.979862">
        <ele>882.869</ele>
        <time>2021-09-19T10:20:04Z</time>
      </trkpt>
      <trkpt lat="36.794438" lon="-4.979809">
        <ele>882.226</ele>
        <time>2021-09-19T10:20:06Z</time>
      </trkpt>
      <trkpt lat="36.794439" lon="-4.979778">
        <ele>881.645</ele>
        <time>2021-09-19T10:20:07Z</time>
      </trkpt>
      <trkpt lat="36.794440" lon="-4.979717">
        <ele>881.047</ele>
        <time>2021-09-19T10:20:09Z</time>
      </trkpt>
      <trkpt lat="36.794448" lon="-4.979647">
        <ele>880.011</ele>
        <time>2021-09-19T10:20:12Z</time>
      </trkpt>
      <trkpt lat="36.794445" lon="-4.979607">
        <ele>878.808</ele>
        <time>2021-09-19T10:20:14Z</time>
      </trkpt>
      <trkpt lat="36.794447" lon="-4.979587">
        <ele>878.452</ele>
        <time>2021-09-19T10:20:15Z</time>
      </trkpt>
      <trkpt lat="36.794450" lon="-4.979565">
        <ele>877.878</ele>
        <time>2021-09-19T10:20:16Z</time>
      </trkpt>
      <trkpt lat="36.794475" lon="-4.979471">
        <ele>876.686</ele>
        <time>2021-09-19T10:20:19Z</time>
      </trkpt>
      <trkpt lat="36.794484" lon="-4.979433">
        <ele>876.238</ele>
        <time>2021-09-19T10:20:20Z</time>
      </trkpt>
      <trkpt lat="36.794502" lon="-4.979360">
        <ele>875.281</ele>
        <time>2021-09-19T10:20:22Z</time>
      </trkpt>
      <trkpt lat="36.794528" lon="-4.979264">
        <ele>874.087</ele>
        <time>2021-09-19T10:20:25Z</time>
      </trkpt>
      <trkpt lat="36.794543" lon="-4.979212">
        <ele>873.680</ele>
        <time>2021-09-19T10:20:27Z</time>
      </trkpt>
      <trkpt lat="36.794546" lon="-4.979188">
        <ele>873.297</ele>
        <time>2021-09-19T10:20:28Z</time>
      </trkpt>
      <trkpt lat="36.794539" lon="-4.979163">
        <ele>872.422</ele>
        <time>2021-09-19T10:20:30Z</time>
      </trkpt>
      <trkpt lat="36.794529" lon="-4.979159">
        <ele>872.062</ele>
        <time>2021-09-19T10:20:31Z</time>
      </trkpt>
      <trkpt lat="36.794508" lon="-4.979168">
        <ele>871.408</ele>
        <time>2021-09-19T10:20:33Z</time>
      </trkpt>
      <trkpt lat="36.794486" lon="-4.979189">
        <ele>870.008</ele>
        <time>2021-09-19T10:20:35Z</time>
      </trkpt>
      <trkpt lat="36.794468" lon="-4.979204">
        <ele>869.890</ele>
        <time>2021-09-19T10:20:36Z</time>
      </trkpt>
      <trkpt lat="36.794394" lon="-4.979283">
        <ele>869.266</ele>
        <time>2021-09-19T10:20:40Z</time>
      </trkpt>
      <trkpt lat="36.794374" lon="-4.979304">
        <ele>869.244</ele>
        <time>2021-09-19T10:20:41Z</time>
      </trkpt>
      <trkpt lat="36.794335" lon="-4.979342">
        <ele>868.896</ele>
        <time>2021-09-19T10:20:43Z</time>
      </trkpt>
      <trkpt lat="36.794299" lon="-4.979344">
        <ele>868.449</ele>
        <time>2021-09-19T10:20:45Z</time>
      </trkpt>
      <trkpt lat="36.794281" lon="-4.979341">
        <ele>868.255</ele>
        <time>2021-09-19T10:20:46Z</time>
      </trkpt>
      <trkpt lat="36.794244" lon="-4.979338">
        <ele>867.848</ele>
        <time>2021-09-19T10:20:48Z</time>
      </trkpt>
      <trkpt lat="36.794192" lon="-4.979314">
        <ele>867.025</ele>
        <time>2021-09-19T10:20:51Z</time>
      </trkpt>
      <trkpt lat="36.794176" lon="-4.979303">
        <ele>866.428</ele>
        <time>2021-09-19T10:20:52Z</time>
      </trkpt>
      <trkpt lat="36.794160" lon="-4.979293">
        <ele>866.289</ele>
        <time>2021-09-19T10:20:53Z</time>
      </trkpt>
      <trkpt lat="36.794112" lon="-4.979249">
        <ele>865.217</ele>
        <time>2021-09-19T10:20:56Z</time>
      </trkpt>
      <trkpt lat="36.794018" lon="-4.979137">
        <ele>864.208</ele>
        <time>2021-09-19T10:21:00Z</time>
      </trkpt>
      <trkpt lat="36.793988" lon="-4.979099">
        <ele>863.860</ele>
        <time>2021-09-19T10:21:01Z</time>
      </trkpt>
      <trkpt lat="36.793901" lon="-4.978972">
        <ele>862.846</ele>
        <time>2021-09-19T10:21:04Z</time>
      </trkpt>
      <trkpt lat="36.793833" lon="-4.978855">
        <ele>861.624</ele>
        <time>2021-09-19T10:21:07Z</time>
      </trkpt>
      <trkpt lat="36.793770" lon="-4.978748">
        <ele>860.626</ele>
        <time>2021-09-19T10:21:10Z</time>
      </trkpt>
      <trkpt lat="36.793726" lon="-4.978672">
        <ele>859.269</ele>
        <time>2021-09-19T10:21:12Z</time>
      </trkpt>
      <trkpt lat="36.793700" lon="-4.978631">
        <ele>858.445</ele>
        <time>2021-09-19T10:21:13Z</time>
      </trkpt>
      <trkpt lat="36.793676" lon="-4.978592">
        <ele>857.428</ele>
        <time>2021-09-19T10:21:14Z</time>
      </trkpt>
      <trkpt lat="36.793624" lon="-4.978534">
        <ele>856.255</ele>
        <time>2021-09-19T10:21:16Z</time>
      </trkpt>
      <trkpt lat="36.793583" lon="-4.978497">
        <ele>855.089</ele>
        <time>2021-09-19T10:21:18Z</time>
      </trkpt>
      <trkpt lat="36.793546" lon="-4.978457">
        <ele>853.606</ele>
        <time>2021-09-19T10:21:20Z</time>
      </trkpt>
      <trkpt lat="36.793507" lon="-4.978421">
        <ele>852.226</ele>
        <time>2021-09-19T10:21:22Z</time>
      </trkpt>
      <trkpt lat="36.793468" lon="-4.978360">
        <ele>850.808</ele>
        <time>2021-09-19T10:21:25Z</time>
      </trkpt>
      <trkpt lat="36.793479" lon="-4.978315">
        <ele>849.686</ele>
        <time>2021-09-19T10:21:27Z</time>
      </trkpt>
      <trkpt lat="36.793517" lon="-4.978296">
        <ele>848.882</ele>
        <time>2021-09-19T10:21:29Z</time>
      </trkpt>
      <trkpt lat="36.793541" lon="-4.978298">
        <ele>848.070</ele>
        <time>2021-09-19T10:21:30Z</time>
      </trkpt>
      <trkpt lat="36.793591" lon="-4.978318">
        <ele>846.652</ele>
        <time>2021-09-19T10:21:32Z</time>
      </trkpt>
      <trkpt lat="36.793630" lon="-4.978340">
        <ele>845.875</ele>
        <time>2021-09-19T10:21:34Z</time>
      </trkpt>
      <trkpt lat="36.793644" lon="-4.978346">
        <ele>845.231</ele>
        <time>2021-09-19T10:21:35Z</time>
      </trkpt>
      <trkpt lat="36.793656" lon="-4.978347">
        <ele>844.074</ele>
        <time>2021-09-19T10:21:38Z</time>
      </trkpt>
      <trkpt lat="36.793754" lon="-4.978399">
        <ele>838.611</ele>
        <time>2021-09-19T10:24:28Z</time>
      </trkpt>
      <trkpt lat="36.793887" lon="-4.978453">
        <ele>838.016</ele>
        <time>2021-09-19T10:24:33Z</time>
      </trkpt>
      <trkpt lat="36.793994" lon="-4.978444">
        <ele>837.476</ele>
        <time>2021-09-19T10:24:37Z</time>
      </trkpt>
      <trkpt lat="36.794014" lon="-4.978434">
        <ele>837.213</ele>
        <time>2021-09-19T10:24:38Z</time>
      </trkpt>
      <trkpt lat="36.794048" lon="-4.978402">
        <ele>836.208</ele>
        <time>2021-09-19T10:24:40Z</time>
      </trkpt>
      <trkpt lat="36.794105" lon="-4.978322">
        <ele>835.069</ele>
        <time>2021-09-19T10:24:43Z</time>
      </trkpt>
      <trkpt lat="36.794179" lon="-4.978198">
        <ele>834.055</ele>
        <time>2021-09-19T10:24:46Z</time>
      </trkpt>
      <trkpt lat="36.794235" lon="-4.978109">
        <ele>833.293</ele>
        <time>2021-09-19T10:24:48Z</time>
      </trkpt>
      <trkpt lat="36.794260" lon="-4.978063">
        <ele>832.865</ele>
        <time>2021-09-19T10:24:49Z</time>
      </trkpt>
      <trkpt lat="36.794311" lon="-4.977941">
        <ele>831.688</ele>
        <time>2021-09-19T10:24:52Z</time>
      </trkpt>
      <trkpt lat="36.794322" lon="-4.977905">
        <ele>831.244</ele>
        <time>2021-09-19T10:24:53Z</time>
      </trkpt>
      <trkpt lat="36.794345" lon="-4.977767">
        <ele>830.417</ele>
        <time>2021-09-19T10:24:57Z</time>
      </trkpt>
      <trkpt lat="36.794350" lon="-4.977720">
        <ele>830.054</ele>
        <time>2021-09-19T10:24:59Z</time>
      </trkpt>
      <trkpt lat="36.794369" lon="-4.977648">
        <ele>829.431</ele>
        <time>2021-09-19T10:25:02Z</time>
      </trkpt>
      <trkpt lat="36.794388" lon="-4.977571">
        <ele>827.861</ele>
        <time>2021-09-19T10:25:05Z</time>
      </trkpt>
      <trkpt lat="36.794395" lon="-4.977492">
        <ele>826.207</ele>
        <time>2021-09-19T10:25:08Z</time>
      </trkpt>
      <trkpt lat="36.794407" lon="-4.977420">
        <ele>825.408</ele>
        <time>2021-09-19T10:25:10Z</time>
      </trkpt>
      <trkpt lat="36.794417" lon="-4.977382">
        <ele>825.071</ele>
        <time>2021-09-19T10:25:11Z</time>
      </trkpt>
      <trkpt lat="36.794451" lon="-4.977288">
        <ele>823.617</ele>
        <time>2021-09-19T10:25:14Z</time>
      </trkpt>
      <trkpt lat="36.794457" lon="-4.977251">
        <ele>822.845</ele>
        <time>2021-09-19T10:25:15Z</time>
      </trkpt>
      <trkpt lat="36.794464" lon="-4.977210">
        <ele>822.437</ele>
        <time>2021-09-19T10:25:16Z</time>
      </trkpt>
      <trkpt lat="36.794493" lon="-4.977071">
        <ele>820.450</ele>
        <time>2021-09-19T10:25:19Z</time>
      </trkpt>
      <trkpt lat="36.794502" lon="-4.977021">
        <ele>819.886</ele>
        <time>2021-09-19T10:25:20Z</time>
      </trkpt>
      <trkpt lat="36.794517" lon="-4.976973">
        <ele>819.249</ele>
        <time>2021-09-19T10:25:21Z</time>
      </trkpt>
      <trkpt lat="36.794559" lon="-4.976843">
        <ele>817.656</ele>
        <time>2021-09-19T10:25:24Z</time>
      </trkpt>
      <trkpt lat="36.794570" lon="-4.976805">
        <ele>817.069</ele>
        <time>2021-09-19T10:25:25Z</time>
      </trkpt>
      <trkpt lat="36.794597" lon="-4.976735">
        <ele>816.004</ele>
        <time>2021-09-19T10:25:27Z</time>
      </trkpt>
      <trkpt lat="36.794625" lon="-4.976635">
        <ele>814.424</ele>
        <time>2021-09-19T10:25:30Z</time>
      </trkpt>
      <trkpt lat="36.794645" lon="-4.976578">
        <ele>813.208</ele>
        <time>2021-09-19T10:25:32Z</time>
      </trkpt>
      <trkpt lat="36.794666" lon="-4.976487">
        <ele>812.054</ele>
        <time>2021-09-19T10:25:35Z</time>
      </trkpt>
      <trkpt lat="36.794685" lon="-4.976397">
        <ele>810.820</ele>
        <time>2021-09-19T10:25:37Z</time>
      </trkpt>
      <trkpt lat="36.794709" lon="-4.976274">
        <ele>809.648</ele>
        <time>2021-09-19T10:25:40Z</time>
      </trkpt>
      <trkpt lat="36.794726" lon="-4.976166">
        <ele>808.690</ele>
        <time>2021-09-19T10:25:43Z</time>
      </trkpt>
      <trkpt lat="36.794737" lon="-4.976084">
        <ele>807.683</ele>
        <time>2021-09-19T10:25:45Z</time>
      </trkpt>
      <trkpt lat="36.794747" lon="-4.976037">
        <ele>807.229</ele>
        <time>2021-09-19T10:25:46Z</time>
      </trkpt>
      <trkpt lat="36.794770" lon="-4.975947">
        <ele>806.222</ele>
        <time>2021-09-19T10:25:48Z</time>
      </trkpt>
      <trkpt lat="36.794777" lon="-4.975895">
        <ele>805.439</ele>
        <time>2021-09-19T10:25:50Z</time>
      </trkpt>
      <trkpt lat="36.794772" lon="-4.975880">
        <ele>805.078</ele>
        <time>2021-09-19T10:25:51Z</time>
      </trkpt>
      <trkpt lat="36.794768" lon="-4.975847">
        <ele>804.433</ele>
        <time>2021-09-19T10:25:53Z</time>
      </trkpt>
      <trkpt lat="36.794777" lon="-4.975807">
        <ele>803.826</ele>
        <time>2021-09-19T10:25:55Z</time>
      </trkpt>
      <trkpt lat="36.794783" lon="-4.975784">
        <ele>803.808</ele>
        <time>2021-09-19T10:25:56Z</time>
      </trkpt>
      <trkpt lat="36.794788" lon="-4.975693">
        <ele>803.075</ele>
        <time>2021-09-19T10:25:59Z</time>
      </trkpt>
      <trkpt lat="36.794790" lon="-4.975626">
        <ele>802.411</ele>
        <time>2021-09-19T10:26:01Z</time>
      </trkpt>
      <trkpt lat="36.794784" lon="-4.975523">
        <ele>802.059</ele>
        <time>2021-09-19T10:26:05Z</time>
      </trkpt>
      <trkpt lat="36.794773" lon="-4.975296">
        <ele>801.671</ele>
        <time>2021-09-19T10:26:12Z</time>
      </trkpt>
      <trkpt lat="36.794774" lon="-4.975210">
        <ele>800.614</ele>
        <time>2021-09-19T10:26:15Z</time>
      </trkpt>
      <trkpt lat="36.794773" lon="-4.975188">
        <ele>800.270</ele>
        <time>2021-09-19T10:26:16Z</time>
      </trkpt>
      <trkpt lat="36.794772" lon="-4.975146">
        <ele>799.053</ele>
        <time>2021-09-19T10:26:18Z</time>
      </trkpt>
      <trkpt lat="36.794776" lon="-4.975077">
        <ele>797.820</ele>
        <time>2021-09-19T10:26:21Z</time>
      </trkpt>
      <trkpt lat="36.794776" lon="-4.975005">
        <ele>796.879</ele>
        <time>2021-09-19T10:26:24Z</time>
      </trkpt>
      <trkpt lat="36.794770" lon="-4.974914">
        <ele>795.805</ele>
        <time>2021-09-19T10:26:27Z</time>
      </trkpt>
      <trkpt lat="36.794770" lon="-4.974883">
        <ele>795.425</ele>
        <time>2021-09-19T10:26:28Z</time>
      </trkpt>
      <trkpt lat="36.794771" lon="-4.974778">
        <ele>794.408</ele>
        <time>2021-09-19T10:26:32Z</time>
      </trkpt>
      <trkpt lat="36.794768" lon="-4.974749">
        <ele>794.265</ele>
        <time>2021-09-19T10:26:33Z</time>
      </trkpt>
      <trkpt lat="36.794777" lon="-4.974637">
        <ele>793.021</ele>
        <time>2021-09-19T10:26:37Z</time>
      </trkpt>
      <trkpt lat="36.794772" lon="-4.974574">
        <ele>792.039</ele>
        <time>2021-09-19T10:26:39Z</time>
      </trkpt>
      <trkpt lat="36.794753" lon="-4.974448">
        <ele>790.251</ele>
        <time>2021-09-19T10:26:43Z</time>
      </trkpt>
      <trkpt lat="36.794751" lon="-4.974358">
        <ele>789.014</ele>
        <time>2021-09-19T10:26:46Z</time>
      </trkpt>
      <trkpt lat="36.794750" lon="-4.974283">
        <ele>788.030</ele>
        <time>2021-09-19T10:26:49Z</time>
      </trkpt>
      <trkpt lat="36.794746" lon="-4.974239">
        <ele>786.873</ele>
        <time>2021-09-19T10:26:51Z</time>
      </trkpt>
      <trkpt lat="36.794733" lon="-4.974160">
        <ele>785.680</ele>
        <time>2021-09-19T10:26:54Z</time>
      </trkpt>
      <trkpt lat="36.794732" lon="-4.974133">
        <ele>785.449</ele>
        <time>2021-09-19T10:26:55Z</time>
      </trkpt>
      <trkpt lat="36.794726" lon="-4.974060">
        <ele>784.402</ele>
        <time>2021-09-19T10:26:58Z</time>
      </trkpt>
      <trkpt lat="36.794721" lon="-4.974003">
        <ele>783.622</ele>
        <time>2021-09-19T10:27:00Z</time>
      </trkpt>
      <trkpt lat="36.794718" lon="-4.973973">
        <ele>783.008</ele>
        <time>2021-09-19T10:27:01Z</time>
      </trkpt>
      <trkpt lat="36.794700" lon="-4.973864">
        <ele>781.612</ele>
        <time>2021-09-19T10:27:05Z</time>
      </trkpt>
      <trkpt lat="36.794692" lon="-4.973796">
        <ele>780.488</ele>
        <time>2021-09-19T10:27:08Z</time>
      </trkpt>
      <trkpt lat="36.794686" lon="-4.973763">
        <ele>779.846</ele>
        <time>2021-09-19T10:27:10Z</time>
      </trkpt>
      <trkpt lat="36.794681" lon="-4.973745">
        <ele>779.048</ele>
        <time>2021-09-19T10:27:11Z</time>
      </trkpt>
      <trkpt lat="36.794670" lon="-4.973661">
        <ele>777.821</ele>
        <time>2021-09-19T10:27:14Z</time>
      </trkpt>
      <trkpt lat="36.794661" lon="-4.973555">
        <ele>776.827</ele>
        <time>2021-09-19T10:27:17Z</time>
      </trkpt>
      <trkpt lat="36.794640" lon="-4.973490">
        <ele>775.810</ele>
        <time>2021-09-19T10:27:19Z</time>
      </trkpt>
      <trkpt lat="36.794637" lon="-4.973454">
        <ele>775.827</ele>
        <time>2021-09-19T10:27:20Z</time>
      </trkpt>
      <trkpt lat="36.794639" lon="-4.973373">
        <ele>775.267</ele>
        <time>2021-09-19T10:27:22Z</time>
      </trkpt>
      <trkpt lat="36.794647" lon="-4.973290">
        <ele>774.681</ele>
        <time>2021-09-19T10:27:24Z</time>
      </trkpt>
      <trkpt lat="36.794677" lon="-4.973172">
        <ele>773.419</ele>
        <time>2021-09-19T10:27:27Z</time>
      </trkpt>
      <trkpt lat="36.794694" lon="-4.973085">
        <ele>772.408</ele>
        <time>2021-09-19T10:27:29Z</time>
      </trkpt>
      <trkpt lat="36.794707" lon="-4.973045">
        <ele>772.254</ele>
        <time>2021-09-19T10:27:30Z</time>
      </trkpt>
      <trkpt lat="36.794740" lon="-4.972981">
        <ele>771.230</ele>
        <time>2021-09-19T10:27:32Z</time>
      </trkpt>
      <trkpt lat="36.794751" lon="-4.972942">
        <ele>770.658</ele>
        <time>2021-09-19T10:27:33Z</time>
      </trkpt>
      <trkpt lat="36.794764" lon="-4.972850">
        <ele>769.850</ele>
        <time>2021-09-19T10:27:35Z</time>
      </trkpt>
      <trkpt lat="36.794765" lon="-4.972768">
        <ele>768.673</ele>
        <time>2021-09-19T10:27:37Z</time>
      </trkpt>
      <trkpt lat="36.794762" lon="-4.972731">
        <ele>768.049</ele>
        <time>2021-09-19T10:27:38Z</time>
      </trkpt>
      <trkpt lat="36.794766" lon="-4.972696">
        <ele>767.022</ele>
        <time>2021-09-19T10:27:39Z</time>
      </trkpt>
      <trkpt lat="36.794771" lon="-4.972592">
        <ele>766.029</ele>
        <time>2021-09-19T10:27:42Z</time>
      </trkpt>
      <trkpt lat="36.794767" lon="-4.972534">
        <ele>764.818</ele>
        <time>2021-09-19T10:27:44Z</time>
      </trkpt>
      <trkpt lat="36.794767" lon="-4.972506">
        <ele>764.098</ele>
        <time>2021-09-19T10:27:46Z</time>
      </trkpt>
      <trkpt lat="36.794765" lon="-4.972505">
        <ele>763.417</ele>
        <time>2021-09-19T10:27:47Z</time>
      </trkpt>
      <trkpt lat="36.794771" lon="-4.972426">
        <ele>760.808</ele>
        <time>2021-09-19T10:27:59Z</time>
      </trkpt>
      <trkpt lat="36.794770" lon="-4.972393">
        <ele>760.869</ele>
        <time>2021-09-19T10:28:01Z</time>
      </trkpt>
      <trkpt lat="36.794780" lon="-4.972294">
        <ele>759.495</ele>
        <time>2021-09-19T10:28:08Z</time>
      </trkpt>
      <trkpt lat="36.794780" lon="-4.972279">
        <ele>759.063</ele>
        <time>2021-09-19T10:28:09Z</time>
      </trkpt>
      <trkpt lat="36.794781" lon="-4.972257">
        <ele>758.455</ele>
        <time>2021-09-19T10:28:11Z</time>
      </trkpt>
      <trkpt lat="36.794781" lon="-4.972228">
        <ele>757.428</ele>
        <time>2021-09-19T10:28:15Z</time>
      </trkpt>
      <trkpt lat="36.794780" lon="-4.972203">
        <ele>756.414</ele>
        <time>2021-09-19T10:28:18Z</time>
      </trkpt>
      <trkpt lat="36.794780" lon="-4.972202">
        <ele>756.067</ele>
        <time>2021-09-19T10:28:19Z</time>
      </trkpt>
      <trkpt lat="36.794795" lon="-4.972164">
        <ele>755.464</ele>
        <time>2021-09-19T10:28:23Z</time>
      </trkpt>
      <trkpt lat="36.794805" lon="-4.972143">
        <ele>755.227</ele>
        <time>2021-09-19T10:28:24Z</time>
      </trkpt>
      <trkpt lat="36.794870" lon="-4.972020">
        <ele>754.268</ele>
        <time>2021-09-19T10:28:28Z</time>
      </trkpt>
      <trkpt lat="36.794888" lon="-4.971988">
        <ele>754.014</ele>
        <time>2021-09-19T10:28:29Z</time>
      </trkpt>
      <trkpt lat="36.794959" lon="-4.971855">
        <ele>752.808</ele>
        <time>2021-09-19T10:28:34Z</time>
      </trkpt>
      <trkpt lat="36.794970" lon="-4.971807">
        <ele>751.630</ele>
        <time>2021-09-19T10:28:36Z</time>
      </trkpt>
      <trkpt lat="36.795010" lon="-4.971757">
        <ele>750.436</ele>
        <time>2021-09-19T10:28:39Z</time>
      </trkpt>
      <trkpt lat="36.795029" lon="-4.971737">
        <ele>749.814</ele>
        <time>2021-09-19T10:28:40Z</time>
      </trkpt>
      <trkpt lat="36.795071" lon="-4.971691">
        <ele>749.076</ele>
        <time>2021-09-19T10:28:42Z</time>
      </trkpt>
      <trkpt lat="36.795114" lon="-4.971639">
        <ele>748.249</ele>
        <time>2021-09-19T10:28:44Z</time>
      </trkpt>
      <trkpt lat="36.795124" lon="-4.971604">
        <ele>747.855</ele>
        <time>2021-09-19T10:28:45Z</time>
      </trkpt>
      <trkpt lat="36.795117" lon="-4.971490">
        <ele>746.678</ele>
        <time>2021-09-19T10:28:48Z</time>
      </trkpt>
      <trkpt lat="36.795053" lon="-4.971365">
        <ele>746.085</ele>
        <time>2021-09-19T10:28:51Z</time>
      </trkpt>
      <trkpt lat="36.795028" lon="-4.971331">
        <ele>745.615</ele>
        <time>2021-09-19T10:28:52Z</time>
      </trkpt>
      <trkpt lat="36.795005" lon="-4.971302">
        <ele>745.065</ele>
        <time>2021-09-19T10:28:53Z</time>
      </trkpt>
      <trkpt lat="36.794984" lon="-4.971277">
        <ele>744.611</ele>
        <time>2021-09-19T10:28:54Z</time>
      </trkpt>
      <trkpt lat="36.794941" lon="-4.971235">
        <ele>743.008</ele>
        <time>2021-09-19T10:28:56Z</time>
      </trkpt>
      <trkpt lat="36.794894" lon="-4.971174">
        <ele>742.019</ele>
        <time>2021-09-19T10:28:58Z</time>
      </trkpt>
      <trkpt lat="36.794845" lon="-4.971097">
        <ele>741.025</ele>
        <time>2021-09-19T10:29:00Z</time>
      </trkpt>
      <trkpt lat="36.794794" lon="-4.971007">
        <ele>740.463</ele>
        <time>2021-09-19T10:29:03Z</time>
      </trkpt>
      <trkpt lat="36.794780" lon="-4.970980">
        <ele>739.625</ele>
        <time>2021-09-19T10:29:04Z</time>
      </trkpt>
      <trkpt lat="36.794746" lon="-4.970873">
        <ele>738.428</ele>
        <time>2021-09-19T10:29:07Z</time>
      </trkpt>
      <trkpt lat="36.794724" lon="-4.970794">
        <ele>737.474</ele>
        <time>2021-09-19T10:29:09Z</time>
      </trkpt>
      <trkpt lat="36.794682" lon="-4.970727">
        <ele>736.247</ele>
        <time>2021-09-19T10:29:12Z</time>
      </trkpt>
      <trkpt lat="36.794668" lon="-4.970705">
        <ele>735.824</ele>
        <time>2021-09-19T10:29:13Z</time>
      </trkpt>
      <trkpt lat="36.794643" lon="-4.970662">
        <ele>735.244</ele>
        <time>2021-09-19T10:29:15Z</time>
      </trkpt>
      <trkpt lat="36.794609" lon="-4.970626">
        <ele>734.005</ele>
        <time>2021-09-19T10:29:17Z</time>
      </trkpt>
      <trkpt lat="36.794579" lon="-4.970584">
        <ele>733.615</ele>
        <time>2021-09-19T10:29:19Z</time>
      </trkpt>
      <trkpt lat="36.794564" lon="-4.970565">
        <ele>733.208</ele>
        <time>2021-09-19T10:29:20Z</time>
      </trkpt>
      <trkpt lat="36.794535" lon="-4.970486">
        <ele>732.062</ele>
        <time>2021-09-19T10:29:23Z</time>
      </trkpt>
      <trkpt lat="36.794530" lon="-4.970461">
        <ele>731.678</ele>
        <time>2021-09-19T10:29:24Z</time>
      </trkpt>
      <trkpt lat="36.794519" lon="-4.970410">
        <ele>731.026</ele>
        <time>2021-09-19T10:29:27Z</time>
      </trkpt>
      <trkpt lat="36.794512" lon="-4.970372">
        <ele>729.658</ele>
        <time>2021-09-19T10:29:29Z</time>
      </trkpt>
      <trkpt lat="36.794494" lon="-4.970262">
        <ele>728.251</ele>
        <time>2021-09-19T10:29:32Z</time>
      </trkpt>
      <trkpt lat="36.794488" lon="-4.970214">
        <ele>728.057</ele>
        <time>2021-09-19T10:29:33Z</time>
      </trkpt>
      <trkpt lat="36.794485" lon="-4.970128">
        <ele>727.250</ele>
        <time>2021-09-19T10:29:35Z</time>
      </trkpt>
      <trkpt lat="36.794477" lon="-4.970064">
        <ele>726.887</ele>
        <time>2021-09-19T10:29:37Z</time>
      </trkpt>
      <trkpt lat="36.794473" lon="-4.969970">
        <ele>726.098</ele>
        <time>2021-09-19T10:29:39Z</time>
      </trkpt>
      <trkpt lat="36.794474" lon="-4.969859">
        <ele>725.615</ele>
        <time>2021-09-19T10:29:41Z</time>
      </trkpt>
      <trkpt lat="36.794472" lon="-4.969801">
        <ele>725.026</ele>
        <time>2021-09-19T10:29:42Z</time>
      </trkpt>
      <trkpt lat="36.794472" lon="-4.969744">
        <ele>724.208</ele>
        <time>2021-09-19T10:29:43Z</time>
      </trkpt>
      <trkpt lat="36.794478" lon="-4.969691">
        <ele>723.437</ele>
        <time>2021-09-19T10:29:44Z</time>
      </trkpt>
      <trkpt lat="36.794494" lon="-4.969639">
        <ele>722.863</ele>
        <time>2021-09-19T10:29:45Z</time>
      </trkpt>
      <trkpt lat="36.794517" lon="-4.969591">
        <ele>722.211</ele>
        <time>2021-09-19T10:29:46Z</time>
      </trkpt>
      <trkpt lat="36.794571" lon="-4.969425">
        <ele>720.853</ele>
        <time>2021-09-19T10:29:49Z</time>
      </trkpt>
      <trkpt lat="36.794589" lon="-4.969278">
        <ele>720.246</ele>
        <time>2021-09-19T10:29:51Z</time>
      </trkpt>
      <trkpt lat="36.794601" lon="-4.969203">
        <ele>719.442</ele>
        <time>2021-09-19T10:29:52Z</time>
      </trkpt>
      <trkpt lat="36.794611" lon="-4.969140">
        <ele>719.025</ele>
        <time>2021-09-19T10:29:53Z</time>
      </trkpt>
      <trkpt lat="36.794620" lon="-4.969093">
        <ele>718.452</ele>
        <time>2021-09-19T10:29:54Z</time>
      </trkpt>
      <trkpt lat="36.794663" lon="-4.968973">
        <ele>717.238</ele>
        <time>2021-09-19T10:29:57Z</time>
      </trkpt>
      <trkpt lat="36.794685" lon="-4.968856">
        <ele>715.870</ele>
        <time>2021-09-19T10:29:59Z</time>
      </trkpt>
      <trkpt lat="36.794699" lon="-4.968790">
        <ele>714.617</ele>
        <time>2021-09-19T10:30:00Z</time>
      </trkpt>
      <trkpt lat="36.794710" lon="-4.968723">
        <ele>713.808</ele>
        <time>2021-09-19T10:30:01Z</time>
      </trkpt>
      <trkpt lat="36.794717" lon="-4.968655">
        <ele>713.451</ele>
        <time>2021-09-19T10:30:02Z</time>
      </trkpt>
      <trkpt lat="36.794705" lon="-4.968474">
        <ele>712.437</ele>
        <time>2021-09-19T10:30:05Z</time>
      </trkpt>
      <trkpt lat="36.794678" lon="-4.968382">
        <ele>711.225</ele>
        <time>2021-09-19T10:30:07Z</time>
      </trkpt>
      <trkpt lat="36.794656" lon="-4.968340">
        <ele>710.477</ele>
        <time>2021-09-19T10:30:08Z</time>
      </trkpt>
      <trkpt lat="36.794637" lon="-4.968299">
        <ele>710.090</ele>
        <time>2021-09-19T10:30:09Z</time>
      </trkpt>
      <trkpt lat="36.794622" lon="-4.968216">
        <ele>709.026</ele>
        <time>2021-09-19T10:30:11Z</time>
      </trkpt>
      <trkpt lat="36.794612" lon="-4.968183">
        <ele>708.069</ele>
        <time>2021-09-19T10:30:13Z</time>
      </trkpt>
      <trkpt lat="36.794610" lon="-4.968181">
        <ele>707.696</ele>
        <time>2021-09-19T10:30:14Z</time>
      </trkpt>
      <trkpt lat="36.794607" lon="-4.968183">
        <ele>707.225</ele>
        <time>2021-09-19T10:30:15Z</time>
      </trkpt>
      <trkpt lat="36.794593" lon="-4.968118">
        <ele>702.626</ele>
        <time>2021-09-19T10:31:33Z</time>
      </trkpt>
      <trkpt lat="36.794582" lon="-4.968077">
        <ele>702.608</ele>
        <time>2021-09-19T10:31:34Z</time>
      </trkpt>
      <trkpt lat="36.794562" lon="-4.968032">
        <ele>702.608</ele>
        <time>2021-09-19T10:31:35Z</time>
      </trkpt>
      <trkpt lat="36.794466" lon="-4.967854">
        <ele>702.470</ele>
        <time>2021-09-19T10:31:38Z</time>
      </trkpt>
      <trkpt lat="36.794431" lon="-4.967778">
        <ele>702.496</ele>
        <time>2021-09-19T10:31:39Z</time>
      </trkpt>
      <trkpt lat="36.794369" lon="-4.967606">
        <ele>702.484</ele>
        <time>2021-09-19T10:31:41Z</time>
      </trkpt>
      <trkpt lat="36.794344" lon="-4.967517">
        <ele>701.876</ele>
        <time>2021-09-19T10:31:42Z</time>
      </trkpt>
      <trkpt lat="36.794320" lon="-4.967426">
        <ele>701.499</ele>
        <time>2021-09-19T10:31:43Z</time>
      </trkpt>
      <trkpt lat="36.794265" lon="-4.967239">
        <ele>699.825</ele>
        <time>2021-09-19T10:31:45Z</time>
      </trkpt>
      <trkpt lat="36.794237" lon="-4.967143">
        <ele>698.668</ele>
        <time>2021-09-19T10:31:46Z</time>
      </trkpt>
      <trkpt lat="36.794189" lon="-4.966961">
        <ele>696.275</ele>
        <time>2021-09-19T10:31:48Z</time>
      </trkpt>
      <trkpt lat="36.794167" lon="-4.966882">
        <ele>694.424</ele>
        <time>2021-09-19T10:31:49Z</time>
      </trkpt>
      <trkpt lat="36.794138" lon="-4.966811">
        <ele>692.804</ele>
        <time>2021-09-19T10:31:50Z</time>
      </trkpt>
      <trkpt lat="36.794098" lon="-4.966744">
        <ele>691.614</ele>
        <time>2021-09-19T10:31:51Z</time>
      </trkpt>
      <trkpt lat="36.794049" lon="-4.966683">
        <ele>690.608</ele>
        <time>2021-09-19T10:31:52Z</time>
      </trkpt>
      <trkpt lat="36.793990" lon="-4.966629">
        <ele>688.660</ele>
        <time>2021-09-19T10:31:53Z</time>
      </trkpt>
      <trkpt lat="36.793927" lon="-4.966580">
        <ele>688.056</ele>
        <time>2021-09-19T10:31:54Z</time>
      </trkpt>
      <trkpt lat="36.793872" lon="-4.966533">
        <ele>687.284</ele>
        <time>2021-09-19T10:31:55Z</time>
      </trkpt>
      <trkpt lat="36.793826" lon="-4.966477">
        <ele>686.216</ele>
        <time>2021-09-19T10:31:56Z</time>
      </trkpt>
      <trkpt lat="36.793758" lon="-4.966334">
        <ele>684.299</ele>
        <time>2021-09-19T10:31:58Z</time>
      </trkpt>
      <trkpt lat="36.793734" lon="-4.966253">
        <ele>683.065</ele>
        <time>2021-09-19T10:31:59Z</time>
      </trkpt>
      <trkpt lat="36.793717" lon="-4.966168">
        <ele>682.038</ele>
        <time>2021-09-19T10:32:00Z</time>
      </trkpt>
      <trkpt lat="36.793700" lon="-4.966082">
        <ele>681.475</ele>
        <time>2021-09-19T10:32:01Z</time>
      </trkpt>
      <trkpt lat="36.793684" lon="-4.965992">
        <ele>679.683</ele>
        <time>2021-09-19T10:32:02Z</time>
      </trkpt>
      <trkpt lat="36.793666" lon="-4.965895">
        <ele>678.425</ele>
        <time>2021-09-19T10:32:03Z</time>
      </trkpt>
      <trkpt lat="36.793646" lon="-4.965789">
        <ele>677.017</ele>
        <time>2021-09-19T10:32:04Z</time>
      </trkpt>
      <trkpt lat="36.793623" lon="-4.965675">
        <ele>676.008</ele>
        <time>2021-09-19T10:32:05Z</time>
      </trkpt>
      <trkpt lat="36.793600" lon="-4.965561">
        <ele>675.296</ele>
        <time>2021-09-19T10:32:06Z</time>
      </trkpt>
      <trkpt lat="36.793578" lon="-4.965451">
        <ele>674.652</ele>
        <time>2021-09-19T10:32:07Z</time>
      </trkpt>
      <trkpt lat="36.793506" lon="-4.965134">
        <ele>673.640</ele>
        <time>2021-09-19T10:32:10Z</time>
      </trkpt>
      <trkpt lat="36.793483" lon="-4.965024">
        <ele>673.432</ele>
        <time>2021-09-19T10:32:11Z</time>
      </trkpt>
      <trkpt lat="36.793445" lon="-4.964807">
        <ele>671.465</ele>
        <time>2021-09-19T10:32:13Z</time>
      </trkpt>
      <trkpt lat="36.793428" lon="-4.964694">
        <ele>670.071</ele>
        <time>2021-09-19T10:32:14Z</time>
      </trkpt>
      <trkpt lat="36.793413" lon="-4.964585">
        <ele>669.074</ele>
        <time>2021-09-19T10:32:15Z</time>
      </trkpt>
      <trkpt lat="36.793398" lon="-4.964481">
        <ele>667.411</ele>
        <time>2021-09-19T10:32:16Z</time>
      </trkpt>
      <trkpt lat="36.793382" lon="-4.964387">
        <ele>665.872</ele>
        <time>2021-09-19T10:32:17Z</time>
      </trkpt>
      <trkpt lat="36.793368" lon="-4.964300">
        <ele>664.813</ele>
        <time>2021-09-19T10:32:18Z</time>
      </trkpt>
      <trkpt lat="36.793356" lon="-4.964212">
        <ele>663.614</ele>
        <time>2021-09-19T10:32:19Z</time>
      </trkpt>
      <trkpt lat="36.793344" lon="-4.964122">
        <ele>662.608</ele>
        <time>2021-09-19T10:32:20Z</time>
      </trkpt>
      <trkpt lat="36.793326" lon="-4.964037">
        <ele>660.265</ele>
        <time>2021-09-19T10:32:21Z</time>
      </trkpt>
      <trkpt lat="36.793292" lon="-4.963967">
        <ele>658.611</ele>
        <time>2021-09-19T10:32:22Z</time>
      </trkpt>
      <trkpt lat="36.793243" lon="-4.963913">
        <ele>657.059</ele>
        <time>2021-09-19T10:32:23Z</time>
      </trkpt>
      <trkpt lat="36.793183" lon="-4.963870">
        <ele>656.261</ele>
        <time>2021-09-19T10:32:24Z</time>
      </trkpt>
      <trkpt lat="36.793122" lon="-4.963826">
        <ele>655.674</ele>
        <time>2021-09-19T10:32:25Z</time>
      </trkpt>
      <trkpt lat="36.793063" lon="-4.963778">
        <ele>655.080</ele>
        <time>2021-09-19T10:32:26Z</time>
      </trkpt>
      <trkpt lat="36.793010" lon="-4.963732">
        <ele>654.463</ele>
        <time>2021-09-19T10:32:27Z</time>
      </trkpt>
      <trkpt lat="36.792962" lon="-4.963683">
        <ele>653.640</ele>
        <time>2021-09-19T10:32:28Z</time>
      </trkpt>
      <trkpt lat="36.792920" lon="-4.963631">
        <ele>652.869</ele>
        <time>2021-09-19T10:32:29Z</time>
      </trkpt>
      <trkpt lat="36.792886" lon="-4.963576">
        <ele>651.604</ele>
        <time>2021-09-19T10:32:30Z</time>
      </trkpt>
      <trkpt lat="36.792816" lon="-4.963446">
        <ele>650.024</ele>
        <time>2021-09-19T10:32:32Z</time>
      </trkpt>
      <trkpt lat="36.792772" lon="-4.963374">
        <ele>649.408</ele>
        <time>2021-09-19T10:32:33Z</time>
      </trkpt>
      <trkpt lat="36.792730" lon="-4.963301">
        <ele>649.024</ele>
        <time>2021-09-19T10:32:34Z</time>
      </trkpt>
      <trkpt lat="36.792668" lon="-4.963145">
        <ele>647.810</ele>
        <time>2021-09-19T10:32:36Z</time>
      </trkpt>
      <trkpt lat="36.792652" lon="-4.963061">
        <ele>647.058</ele>
        <time>2021-09-19T10:32:37Z</time>
      </trkpt>
      <trkpt lat="36.792646" lon="-4.962975">
        <ele>646.420</ele>
        <time>2021-09-19T10:32:38Z</time>
      </trkpt>
      <trkpt lat="36.792641" lon="-4.962885">
        <ele>645.843</ele>
        <time>2021-09-19T10:32:39Z</time>
      </trkpt>
      <trkpt lat="36.792634" lon="-4.962790">
        <ele>645.239</ele>
        <time>2021-09-19T10:32:40Z</time>
      </trkpt>
      <trkpt lat="36.792623" lon="-4.962689">
        <ele>643.822</ele>
        <time>2021-09-19T10:32:41Z</time>
      </trkpt>
      <trkpt lat="36.792604" lon="-4.962583">
        <ele>642.439</ele>
        <time>2021-09-19T10:32:42Z</time>
      </trkpt>
      <trkpt lat="36.792576" lon="-4.962473">
        <ele>641.096</ele>
        <time>2021-09-19T10:32:43Z</time>
      </trkpt>
      <trkpt lat="36.792547" lon="-4.962362">
        <ele>639.231</ele>
        <time>2021-09-19T10:32:44Z</time>
      </trkpt>
      <trkpt lat="36.792517" lon="-4.962249">
        <ele>638.424</ele>
        <time>2021-09-19T10:32:45Z</time>
      </trkpt>
      <trkpt lat="36.792487" lon="-4.962137">
        <ele>637.608</ele>
        <time>2021-09-19T10:32:46Z</time>
      </trkpt>
      <trkpt lat="36.792463" lon="-4.962022">
        <ele>636.267</ele>
        <time>2021-09-19T10:32:47Z</time>
      </trkpt>
      <trkpt lat="36.792428" lon="-4.961797">
        <ele>634.023</ele>
        <time>2021-09-19T10:32:49Z</time>
      </trkpt>
      <trkpt lat="36.792412" lon="-4.961686">
        <ele>632.811</ele>
        <time>2021-09-19T10:32:50Z</time>
      </trkpt>
      <trkpt lat="36.792387" lon="-4.961456">
        <ele>630.653</ele>
        <time>2021-09-19T10:32:52Z</time>
      </trkpt>
      <trkpt lat="36.792377" lon="-4.961341">
        <ele>629.056</ele>
        <time>2021-09-19T10:32:53Z</time>
      </trkpt>
      <trkpt lat="36.792368" lon="-4.961231">
        <ele>627.842</ele>
        <time>2021-09-19T10:32:54Z</time>
      </trkpt>
      <trkpt lat="36.792358" lon="-4.961126">
        <ele>626.885</ele>
        <time>2021-09-19T10:32:55Z</time>
      </trkpt>
      <trkpt lat="36.792343" lon="-4.961026">
        <ele>625.882</ele>
        <time>2021-09-19T10:32:56Z</time>
      </trkpt>
      <trkpt lat="36.792320" lon="-4.960931">
        <ele>625.222</ele>
        <time>2021-09-19T10:32:57Z</time>
      </trkpt>
      <trkpt lat="36.792291" lon="-4.960836">
        <ele>624.462</ele>
        <time>2021-09-19T10:32:58Z</time>
      </trkpt>
      <trkpt lat="36.792258" lon="-4.960739">
        <ele>623.208</ele>
        <time>2021-09-19T10:32:59Z</time>
      </trkpt>
      <trkpt lat="36.792220" lon="-4.960638">
        <ele>622.008</ele>
        <time>2021-09-19T10:33:00Z</time>
      </trkpt>
      <trkpt lat="36.792137" lon="-4.960418">
        <ele>620.820</ele>
        <time>2021-09-19T10:33:02Z</time>
      </trkpt>
      <trkpt lat="36.792089" lon="-4.960304">
        <ele>619.476</ele>
        <time>2021-09-19T10:33:03Z</time>
      </trkpt>
      <trkpt lat="36.792042" lon="-4.960188">
        <ele>618.624</ele>
        <time>2021-09-19T10:33:04Z</time>
      </trkpt>
      <trkpt lat="36.791998" lon="-4.960068">
        <ele>617.426</ele>
        <time>2021-09-19T10:33:05Z</time>
      </trkpt>
      <trkpt lat="36.791914" lon="-4.959831">
        <ele>616.099</ele>
        <time>2021-09-19T10:33:07Z</time>
      </trkpt>
      <trkpt lat="36.791871" lon="-4.959719">
        <ele>615.235</ele>
        <time>2021-09-19T10:33:08Z</time>
      </trkpt>
      <trkpt lat="36.791826" lon="-4.959614">
        <ele>613.628</ele>
        <time>2021-09-19T10:33:09Z</time>
      </trkpt>
      <trkpt lat="36.791783" lon="-4.959522">
        <ele>612.045</ele>
        <time>2021-09-19T10:33:10Z</time>
      </trkpt>
      <trkpt lat="36.791746" lon="-4.959439">
        <ele>609.617</ele>
        <time>2021-09-19T10:33:11Z</time>
      </trkpt>
      <trkpt lat="36.791714" lon="-4.959357">
        <ele>608.687</ele>
        <time>2021-09-19T10:33:12Z</time>
      </trkpt>
      <trkpt lat="36.791688" lon="-4.959272">
        <ele>607.215</ele>
        <time>2021-09-19T10:33:13Z</time>
      </trkpt>
      <trkpt lat="36.791648" lon="-4.959100">
        <ele>606.208</ele>
        <time>2021-09-19T10:33:15Z</time>
      </trkpt>
      <trkpt lat="36.791635" lon="-4.959014">
        <ele>605.849</ele>
        <time>2021-09-19T10:33:16Z</time>
      </trkpt>
      <trkpt lat="36.791624" lon="-4.958781">
        <ele>604.485</ele>
        <time>2021-09-19T10:33:19Z</time>
      </trkpt>
      <trkpt lat="36.791624" lon="-4.958719">
        <ele>604.063</ele>
        <time>2021-09-19T10:33:20Z</time>
      </trkpt>
      <trkpt lat="36.791601" lon="-4.958588">
        <ele>603.435</ele>
        <time>2021-09-19T10:33:22Z</time>
      </trkpt>
      <trkpt lat="36.791583" lon="-4.958506">
        <ele>603.238</ele>
        <time>2021-09-19T10:33:23Z</time>
      </trkpt>
      <trkpt lat="36.791495" lon="-4.958098">
        <ele>602.444</ele>
        <time>2021-09-19T10:33:28Z</time>
      </trkpt>
      <trkpt lat="36.791481" lon="-4.957952">
        <ele>602.017</ele>
        <time>2021-09-19T10:33:30Z</time>
      </trkpt>
      <trkpt lat="36.791482" lon="-4.957886">
        <ele>601.294</ele>
        <time>2021-09-19T10:33:31Z</time>
      </trkpt>
      <trkpt lat="36.791483" lon="-4.957819">
        <ele>599.855</ele>
        <time>2021-09-19T10:33:32Z</time>
      </trkpt>
      <trkpt lat="36.791485" lon="-4.957746">
        <ele>598.407</ele>
        <time>2021-09-19T10:33:33Z</time>
      </trkpt>
      <trkpt lat="36.791489" lon="-4.957583">
        <ele>597.017</ele>
        <time>2021-09-19T10:33:35Z</time>
      </trkpt>
      <trkpt lat="36.791490" lon="-4.957401">
        <ele>595.608</ele>
        <time>2021-09-19T10:33:37Z</time>
      </trkpt>
      <trkpt lat="36.791482" lon="-4.957119">
        <ele>594.063</ele>
        <time>2021-09-19T10:33:40Z</time>
      </trkpt>
      <trkpt lat="36.791478" lon="-4.956929">
        <ele>593.449</ele>
        <time>2021-09-19T10:33:42Z</time>
      </trkpt>
      <trkpt lat="36.791477" lon="-4.956832">
        <ele>592.237</ele>
        <time>2021-09-19T10:33:43Z</time>
      </trkpt>
      <trkpt lat="36.791473" lon="-4.956734">
        <ele>591.249</ele>
        <time>2021-09-19T10:33:44Z</time>
      </trkpt>
      <trkpt lat="36.791458" lon="-4.956634">
        <ele>588.482</ele>
        <time>2021-09-19T10:33:45Z</time>
      </trkpt>
      <trkpt lat="36.791436" lon="-4.956532">
        <ele>587.248</ele>
        <time>2021-09-19T10:33:46Z</time>
      </trkpt>
      <trkpt lat="36.791396" lon="-4.956331">
        <ele>586.031</ele>
        <time>2021-09-19T10:33:48Z</time>
      </trkpt>
      <trkpt lat="36.791380" lon="-4.956231">
        <ele>584.888</ele>
        <time>2021-09-19T10:33:49Z</time>
      </trkpt>
      <trkpt lat="36.791371" lon="-4.956132">
        <ele>583.026</ele>
        <time>2021-09-19T10:33:50Z</time>
      </trkpt>
      <trkpt lat="36.791364" lon="-4.956031">
        <ele>581.647</ele>
        <time>2021-09-19T10:33:51Z</time>
      </trkpt>
      <trkpt lat="36.791356" lon="-4.955927">
        <ele>580.811</ele>
        <time>2021-09-19T10:33:52Z</time>
      </trkpt>
      <trkpt lat="36.791346" lon="-4.955820">
        <ele>579.408</ele>
        <time>2021-09-19T10:33:53Z</time>
      </trkpt>
      <trkpt lat="36.791317" lon="-4.955599">
        <ele>577.060</ele>
        <time>2021-09-19T10:33:55Z</time>
      </trkpt>
      <trkpt lat="36.791307" lon="-4.955487">
        <ele>575.486</ele>
        <time>2021-09-19T10:33:56Z</time>
      </trkpt>
      <trkpt lat="36.791303" lon="-4.955374">
        <ele>574.434</ele>
        <time>2021-09-19T10:33:57Z</time>
      </trkpt>
      <trkpt lat="36.791304" lon="-4.955260">
        <ele>573.276</ele>
        <time>2021-09-19T10:33:58Z</time>
      </trkpt>
      <trkpt lat="36.791305" lon="-4.955039">
        <ele>572.079</ele>
        <time>2021-09-19T10:34:00Z</time>
      </trkpt>
      <trkpt lat="36.791304" lon="-4.954935">
        <ele>570.855</ele>
        <time>2021-09-19T10:34:01Z</time>
      </trkpt>
      <trkpt lat="36.791301" lon="-4.954837">
        <ele>570.048</ele>
        <time>2021-09-19T10:34:02Z</time>
      </trkpt>
      <trkpt lat="36.791293" lon="-4.954748">
        <ele>569.435</ele>
        <time>2021-09-19T10:34:03Z</time>
      </trkpt>
      <trkpt lat="36.791281" lon="-4.954663">
        <ele>568.031</ele>
        <time>2021-09-19T10:34:04Z</time>
      </trkpt>
      <trkpt lat="36.791265" lon="-4.954585">
        <ele>566.861</ele>
        <time>2021-09-19T10:34:05Z</time>
      </trkpt>
      <trkpt lat="36.791248" lon="-4.954521">
        <ele>566.207</ele>
        <time>2021-09-19T10:34:06Z</time>
      </trkpt>
      <trkpt lat="36.791234" lon="-4.954474">
        <ele>565.608</ele>
        <time>2021-09-19T10:34:07Z</time>
      </trkpt>
      <trkpt lat="36.791229" lon="-4.954425">
        <ele>564.251</ele>
        <time>2021-09-19T10:34:09Z</time>
      </trkpt>
      <trkpt lat="36.791220" lon="-4.954382">
        <ele>563.467</ele>
        <time>2021-09-19T10:34:13Z</time>
      </trkpt>
      <trkpt lat="36.791209" lon="-4.954368">
        <ele>563.255</ele>
        <time>2021-09-19T10:34:14Z</time>
      </trkpt>
      <trkpt lat="36.791198" lon="-4.954352">
        <ele>563.267</ele>
        <time>2021-09-19T10:34:15Z</time>
      </trkpt>
      <trkpt lat="36.791183" lon="-4.954316">
        <ele>562.870</ele>
        <time>2021-09-19T10:34:17Z</time>
      </trkpt>
      <trkpt lat="36.791182" lon="-4.954311">
        <ele>562.866</ele>
        <time>2021-09-19T10:34:19Z</time>
      </trkpt>
      <trkpt lat="36.791206" lon="-4.954272">
        <ele>562.279</ele>
        <time>2021-09-19T10:35:32Z</time>
      </trkpt>
      <trkpt lat="36.791214" lon="-4.954243">
        <ele>562.256</ele>
        <time>2021-09-19T10:35:33Z</time>
      </trkpt>
      <trkpt lat="36.791220" lon="-4.954208">
        <ele>562.212</ele>
        <time>2021-09-19T10:35:34Z</time>
      </trkpt>
      <trkpt lat="36.791278" lon="-4.953949">
        <ele>562.232</ele>
        <time>2021-09-19T10:35:39Z</time>
      </trkpt>
      <trkpt lat="36.791339" lon="-4.953688">
        <ele>562.005</ele>
        <time>2021-09-19T10:35:43Z</time>
      </trkpt>
      <trkpt lat="36.791359" lon="-4.953621">
        <ele>561.808</ele>
        <time>2021-09-19T10:35:44Z</time>
      </trkpt>
      <trkpt lat="36.791402" lon="-4.953427">
        <ele>561.269</ele>
        <time>2021-09-19T10:35:47Z</time>
      </trkpt>
      <trkpt lat="36.791435" lon="-4.953235">
        <ele>560.665</ele>
        <time>2021-09-19T10:35:50Z</time>
      </trkpt>
      <trkpt lat="36.791437" lon="-4.953171">
        <ele>560.233</ele>
        <time>2021-09-19T10:35:51Z</time>
      </trkpt>
      <trkpt lat="36.791400" lon="-4.952993">
        <ele>559.685</ele>
        <time>2021-09-19T10:35:54Z</time>
      </trkpt>
      <trkpt lat="36.791324" lon="-4.952843">
        <ele>559.428</ele>
        <time>2021-09-19T10:35:57Z</time>
      </trkpt>
      <trkpt lat="36.791299" lon="-4.952790">
        <ele>559.474</ele>
        <time>2021-09-19T10:35:58Z</time>
      </trkpt>
      <trkpt lat="36.791275" lon="-4.952737">
        <ele>559.247</ele>
        <time>2021-09-19T10:35:59Z</time>
      </trkpt>
      <trkpt lat="36.791251" lon="-4.952684">
        <ele>559.234</ele>
        <time>2021-09-19T10:36:00Z</time>
      </trkpt>
      <trkpt lat="36.791170" lon="-4.952465">
        <ele>559.036</ele>
        <time>2021-09-19T10:36:04Z</time>
      </trkpt>
      <trkpt lat="36.791142" lon="-4.952343">
        <ele>558.617</ele>
        <time>2021-09-19T10:36:06Z</time>
      </trkpt>
      <trkpt lat="36.791001" lon="-4.951826">
        <ele>558.618</ele>
        <time>2021-09-19T10:36:14Z</time>
      </trkpt>
      <trkpt lat="36.790881" lon="-4.951366">
        <ele>558.208</ele>
        <time>2021-09-19T10:36:21Z</time>
      </trkpt>
      <trkpt lat="36.790863" lon="-4.951305">
        <ele>558.271</ele>
        <time>2021-09-19T10:36:22Z</time>
      </trkpt>
      <trkpt lat="36.790810" lon="-4.951123">
        <ele>557.857</ele>
        <time>2021-09-19T10:36:25Z</time>
      </trkpt>
      <trkpt lat="36.790692" lon="-4.950771">
        <ele>557.495</ele>
        <time>2021-09-19T10:36:31Z</time>
      </trkpt>
      <trkpt lat="36.790648" lon="-4.950651">
        <ele>557.237</ele>
        <time>2021-09-19T10:36:33Z</time>
      </trkpt>
      <trkpt lat="36.790476" lon="-4.950313">
        <ele>556.630</ele>
        <time>2021-09-19T10:36:39Z</time>
      </trkpt>
      <trkpt lat="36.790397" lon="-4.950211">
        <ele>556.466</ele>
        <time>2021-09-19T10:36:41Z</time>
      </trkpt>
      <trkpt lat="36.790354" lon="-4.950164">
        <ele>556.039</ele>
        <time>2021-09-19T10:36:42Z</time>
      </trkpt>
      <trkpt lat="36.790272" lon="-4.950075">
        <ele>555.436</ele>
        <time>2021-09-19T10:36:44Z</time>
      </trkpt>
      <trkpt lat="36.790265" lon="-4.949962">
        <ele>554.896</ele>
        <time>2021-09-19T10:36:47Z</time>
      </trkpt>
      <trkpt lat="36.790387" lon="-4.949915">
        <ele>554.231</ele>
        <time>2021-09-19T10:36:51Z</time>
      </trkpt>
      <trkpt lat="36.790443" lon="-4.949861">
        <ele>554.024</ele>
        <time>2021-09-19T10:36:53Z</time>
      </trkpt>
      <trkpt lat="36.790522" lon="-4.949816">
        <ele>554.008</ele>
        <time>2021-09-19T10:36:56Z</time>
      </trkpt>
      <trkpt lat="36.790532" lon="-4.949811">
        <ele>554.067</ele>
        <time>2021-09-19T10:36:58Z</time>
      </trkpt>
      <trkpt lat="36.790563" lon="-4.949753">
        <ele>554.893</ele>
        <time>2021-09-19T10:38:06Z</time>
      </trkpt>
      <trkpt lat="36.790612" lon="-4.949731">
        <ele>554.881</ele>
        <time>2021-09-19T10:38:08Z</time>
      </trkpt>
      <trkpt lat="36.790669" lon="-4.949727">
        <ele>554.863</ele>
        <time>2021-09-19T10:38:10Z</time>
      </trkpt>
      <trkpt lat="36.790770" lon="-4.949718">
        <ele>554.656</ele>
        <time>2021-09-19T10:38:14Z</time>
      </trkpt>
      <trkpt lat="36.790750" lon="-4.949683">
        <ele>554.672</ele>
        <time>2021-09-19T10:38:17Z</time>
      </trkpt>
      <trkpt lat="36.790750" lon="-4.949683">
        <ele>554.625</ele>
        <time>2021-09-19T10:38:19Z</time>
      </trkpt>
      <trkpt lat="36.790776" lon="-4.949721">
        <ele>554.452</ele>
        <time>2021-09-19T10:38:29Z</time>
      </trkpt>
      <trkpt lat="36.790778" lon="-4.949744">
        <ele>554.428</ele>
        <time>2021-09-19T10:38:30Z</time>
      </trkpt>
      <trkpt lat="36.790739" lon="-4.949828">
        <ele>554.489</ele>
        <time>2021-09-19T10:38:33Z</time>
      </trkpt>
      <trkpt lat="36.790723" lon="-4.949860">
        <ele>554.417</ele>
        <time>2021-09-19T10:38:34Z</time>
      </trkpt>
      <trkpt lat="36.790714" lon="-4.949894">
        <ele>554.408</ele>
        <time>2021-09-19T10:38:35Z</time>
      </trkpt>
      <trkpt lat="36.790726" lon="-4.949954">
        <ele>554.470</ele>
        <time>2021-09-19T10:38:37Z</time>
      </trkpt>
      <trkpt lat="36.790786" lon="-4.950029">
        <ele>554.486</ele>
        <time>2021-09-19T10:38:41Z</time>
      </trkpt>
      <trkpt lat="36.790808" lon="-4.950075">
        <ele>554.484</ele>
        <time>2021-09-19T10:38:45Z</time>
      </trkpt>
      <trkpt lat="36.790811" lon="-4.950075">
        <ele>554.486</ele>
        <time>2021-09-19T10:38:46Z</time>
      </trkpt>
      <trkpt lat="36.790746" lon="-4.950033">
        <ele>554.829</ele>
        <time>2021-09-19T10:39:05Z</time>
      </trkpt>
      <trkpt lat="36.790692" lon="-4.950018">
        <ele>554.845</ele>
        <time>2021-09-19T10:39:07Z</time>
      </trkpt>
      <trkpt lat="36.790624" lon="-4.950046">
        <ele>554.648</ele>
        <time>2021-09-19T10:39:10Z</time>
      </trkpt>
      <trkpt lat="36.790608" lon="-4.950067">
        <ele>554.635</ele>
        <time>2021-09-19T10:39:14Z</time>
      </trkpt>
      <trkpt lat="36.790514" lon="-4.950035">
        <ele>555.056</ele>
        <time>2021-09-19T10:40:34Z</time>
      </trkpt>
      <trkpt lat="36.790459" lon="-4.950049">
        <ele>555.059</ele>
        <time>2021-09-19T10:40:36Z</time>
      </trkpt>
      <trkpt lat="36.790325" lon="-4.950073">
        <ele>555.014</ele>
        <time>2021-09-19T10:40:40Z</time>
      </trkpt>
      <trkpt lat="36.790286" lon="-4.950058">
        <ele>555.008</ele>
        <time>2021-09-19T10:40:41Z</time>
      </trkpt>
      <trkpt lat="36.790028" lon="-4.949903">
        <ele>554.813</ele>
        <time>2021-09-19T10:40:47Z</time>
      </trkpt>
      <trkpt lat="36.789978" lon="-4.949877">
        <ele>554.839</ele>
        <time>2021-09-19T10:40:48Z</time>
      </trkpt>
      <trkpt lat="36.789744" lon="-4.949789">
        <ele>554.277</ele>
        <time>2021-09-19T10:40:52Z</time>
      </trkpt>
      <trkpt lat="36.789681" lon="-4.949766">
        <ele>553.829</ele>
        <time>2021-09-19T10:40:53Z</time>
      </trkpt>
      <trkpt lat="36.789494" lon="-4.949700">
        <ele>552.462</ele>
        <time>2021-09-19T10:40:56Z</time>
      </trkpt>
      <trkpt lat="36.789379" lon="-4.949661">
        <ele>551.858</ele>
        <time>2021-09-19T10:40:58Z</time>
      </trkpt>
      <trkpt lat="36.789329" lon="-4.949649">
        <ele>551.421</ele>
        <time>2021-09-19T10:40:59Z</time>
      </trkpt>
      <trkpt lat="36.789284" lon="-4.949636">
        <ele>551.278</ele>
        <time>2021-09-19T10:41:00Z</time>
      </trkpt>
      <trkpt lat="36.789195" lon="-4.949622">
        <ele>551.027</ele>
        <time>2021-09-19T10:41:02Z</time>
      </trkpt>
      <trkpt lat="36.789105" lon="-4.949608">
        <ele>550.868</ele>
        <time>2021-09-19T10:41:04Z</time>
      </trkpt>
      <trkpt lat="36.789013" lon="-4.949569">
        <ele>550.614</ele>
        <time>2021-09-19T10:41:06Z</time>
      </trkpt>
      <trkpt lat="36.788914" lon="-4.949533">
        <ele>550.408</ele>
        <time>2021-09-19T10:41:08Z</time>
      </trkpt>
      <trkpt lat="36.788864" lon="-4.949529">
        <ele>549.810</ele>
        <time>2021-09-19T10:41:09Z</time>
      </trkpt>
      <trkpt lat="36.788757" lon="-4.949627">
        <ele>548.846</ele>
        <time>2021-09-19T10:41:12Z</time>
      </trkpt>
      <trkpt lat="36.788716" lon="-4.949725">
        <ele>548.284</ele>
        <time>2021-09-19T10:41:14Z</time>
      </trkpt>
      <trkpt lat="36.788677" lon="-4.949821">
        <ele>547.286</ele>
        <time>2021-09-19T10:41:16Z</time>
      </trkpt>
      <trkpt lat="36.788634" lon="-4.949912">
        <ele>546.269</ele>
        <time>2021-09-19T10:41:18Z</time>
      </trkpt>
      <trkpt lat="36.788614" lon="-4.949956">
        <ele>546.015</ele>
        <time>2021-09-19T10:41:19Z</time>
      </trkpt>
      <trkpt lat="36.788581" lon="-4.950103">
        <ele>545.658</ele>
        <time>2021-09-19T10:41:23Z</time>
      </trkpt>
      <trkpt lat="36.788568" lon="-4.950126">
        <ele>545.635</ele>
        <time>2021-09-19T10:41:24Z</time>
      </trkpt>
      <trkpt lat="36.788538" lon="-4.950109">
        <ele>545.687</ele>
        <time>2021-09-19T10:41:26Z</time>
      </trkpt>
      <trkpt lat="36.788576" lon="-4.950034">
        <ele>545.642</ele>
        <time>2021-09-19T10:41:29Z</time>
      </trkpt>
      <trkpt lat="36.788600" lon="-4.949971">
        <ele>545.626</ele>
        <time>2021-09-19T10:41:31Z</time>
      </trkpt>
      <trkpt lat="36.788612" lon="-4.949934">
        <ele>545.608</ele>
        <time>2021-09-19T10:41:32Z</time>
      </trkpt>
      <trkpt lat="36.788664" lon="-4.949817">
        <ele>545.616</ele>
        <time>2021-09-19T10:41:35Z</time>
      </trkpt>
      <trkpt lat="36.788766" lon="-4.949557">
        <ele>545.652</ele>
        <time>2021-09-19T10:41:41Z</time>
      </trkpt>
      <trkpt lat="36.788792" lon="-4.949488">
        <ele>545.430</ele>
        <time>2021-09-19T10:41:43Z</time>
      </trkpt>
      <trkpt lat="36.788851" lon="-4.949367">
        <ele>545.462</ele>
        <time>2021-09-19T10:41:48Z</time>
      </trkpt>
      <trkpt lat="36.788878" lon="-4.949336">
        <ele>545.255</ele>
        <time>2021-09-19T10:41:50Z</time>
      </trkpt>
      <trkpt lat="36.788918" lon="-4.949343">
        <ele>545.261</ele>
        <time>2021-09-19T10:41:52Z</time>
      </trkpt>
      <trkpt lat="36.788943" lon="-4.949353">
        <ele>545.224</ele>
        <time>2021-09-19T10:41:53Z</time>
      </trkpt>
      <trkpt lat="36.788972" lon="-4.949361">
        <ele>545.211</ele>
        <time>2021-09-19T10:41:54Z</time>
      </trkpt>
      <trkpt lat="36.789030" lon="-4.949387">
        <ele>545.247</ele>
        <time>2021-09-19T10:41:56Z</time>
      </trkpt>
      <trkpt lat="36.789057" lon="-4.949402">
        <ele>545.229</ele>
        <time>2021-09-19T10:41:57Z</time>
      </trkpt>
      <trkpt lat="36.789112" lon="-4.949421">
        <ele>545.221</ele>
        <time>2021-09-19T10:41:59Z</time>
      </trkpt>
      <trkpt lat="36.789166" lon="-4.949433">
        <ele>545.208</ele>
        <time>2021-09-19T10:42:01Z</time>
      </trkpt>
      <trkpt lat="36.789190" lon="-4.949448">
        <ele>545.292</ele>
        <time>2021-09-19T10:42:02Z</time>
      </trkpt>
      <trkpt lat="36.789215" lon="-4.949493">
        <ele>545.698</ele>
        <time>2021-09-19T10:42:04Z</time>
      </trkpt>
      <trkpt lat="36.789207" lon="-4.949519">
        <ele>546.026</ele>
        <time>2021-09-19T10:42:05Z</time>
      </trkpt>
      <trkpt lat="36.789180" lon="-4.949535">
        <ele>546.418</ele>
        <time>2021-09-19T10:42:06Z</time>
      </trkpt>
      <trkpt lat="36.789110" lon="-4.949535">
        <ele>547.011</ele>
        <time>2021-09-19T10:42:08Z</time>
      </trkpt>
      <trkpt lat="36.789035" lon="-4.949512">
        <ele>547.417</ele>
        <time>2021-09-19T10:42:10Z</time>
      </trkpt>
      <trkpt lat="36.788884" lon="-4.949452">
        <ele>548.280</ele>
        <time>2021-09-19T10:42:14Z</time>
      </trkpt>
      <trkpt lat="36.788805" lon="-4.949423">
        <ele>548.437</ele>
        <time>2021-09-19T10:42:16Z</time>
      </trkpt>
      <trkpt lat="36.788649" lon="-4.949362">
        <ele>548.678</ele>
        <time>2021-09-19T10:42:20Z</time>
      </trkpt>
      <trkpt lat="36.788492" lon="-4.949298">
        <ele>548.833</ele>
        <time>2021-09-19T10:42:24Z</time>
      </trkpt>
      <trkpt lat="36.788233" lon="-4.949198">
        <ele>548.626</ele>
        <time>2021-09-19T10:42:31Z</time>
      </trkpt>
      <trkpt lat="36.788126" lon="-4.949159">
        <ele>548.808</ele>
        <time>2021-09-19T10:42:35Z</time>
      </trkpt>
      <trkpt lat="36.788109" lon="-4.949173">
        <ele>548.875</ele>
        <time>2021-09-19T10:42:36Z</time>
      </trkpt>
      <trkpt lat="36.788139" lon="-4.949225">
        <ele>549.061</ele>
        <time>2021-09-19T10:42:38Z</time>
      </trkpt>
      <trkpt lat="36.788270" lon="-4.949324">
        <ele>549.029</ele>
        <time>2021-09-19T10:42:41Z</time>
      </trkpt>
      <trkpt lat="36.788319" lon="-4.949497">
        <ele>549.011</ele>
        <time>2021-09-19T10:42:44Z</time>
      </trkpt>
      <trkpt lat="36.788268" lon="-4.949767">
        <ele>548.854</ele>
        <time>2021-09-19T10:42:48Z</time>
      </trkpt>
      <trkpt lat="36.788250" lon="-4.949826">
        <ele>548.010</ele>
        <time>2021-09-19T10:42:49Z</time>
      </trkpt>
      <trkpt lat="36.788228" lon="-4.949882">
        <ele>547.433</ele>
        <time>2021-09-19T10:42:50Z</time>
      </trkpt>
      <trkpt lat="36.788182" lon="-4.949990">
        <ele>545.830</ele>
        <time>2021-09-19T10:42:52Z</time>
      </trkpt>
      <trkpt lat="36.788093" lon="-4.950210">
        <ele>545.024</ele>
        <time>2021-09-19T10:42:56Z</time>
      </trkpt>
      <trkpt lat="36.788042" lon="-4.950317">
        <ele>544.804</ele>
        <time>2021-09-19T10:42:58Z</time>
      </trkpt>
      <trkpt lat="36.787872" lon="-4.950616">
        <ele>544.814</ele>
        <time>2021-09-19T10:43:04Z</time>
      </trkpt>
      <trkpt lat="36.787651" lon="-4.950909">
        <ele>544.808</ele>
        <time>2021-09-19T10:43:11Z</time>
      </trkpt>
      <trkpt lat="36.787508" lon="-4.951180">
        <ele>545.480</ele>
        <time>2021-09-19T10:43:18Z</time>
      </trkpt>
      <trkpt lat="36.787473" lon="-4.951356">
        <ele>546.076</ele>
        <time>2021-09-19T10:43:22Z</time>
      </trkpt>
      <trkpt lat="36.787448" lon="-4.951485">
        <ele>546.434</ele>
        <time>2021-09-19T10:43:25Z</time>
      </trkpt>
      <trkpt lat="36.787449" lon="-4.951635">
        <ele>546.816</ele>
        <time>2021-09-19T10:43:30Z</time>
      </trkpt>
      <trkpt lat="36.787454" lon="-4.951659">
        <ele>547.069</ele>
        <time>2021-09-19T10:43:32Z</time>
      </trkpt>
      <trkpt lat="36.787462" lon="-4.951666">
        <ele>547.095</ele>
        <time>2021-09-19T10:43:33Z</time>
      </trkpt>
      <trkpt lat="36.787483" lon="-4.951699">
        <ele>547.068</ele>
        <time>2021-09-19T10:43:35Z</time>
      </trkpt>
      <trkpt lat="36.787530" lon="-4.951857">
        <ele>547.035</ele>
        <time>2021-09-19T10:43:40Z</time>
      </trkpt>
      <trkpt lat="36.787550" lon="-4.951894">
        <ele>547.019</ele>
        <time>2021-09-19T10:43:41Z</time>
      </trkpt>
      <trkpt lat="36.787686" lon="-4.952173">
        <ele>547.209</ele>
        <time>2021-09-19T10:43:48Z</time>
      </trkpt>
      <trkpt lat="36.787836" lon="-4.952485">
        <ele>547.219</ele>
        <time>2021-09-19T10:43:55Z</time>
      </trkpt>
      <trkpt lat="36.787854" lon="-4.952533">
        <ele>547.208</ele>
        <time>2021-09-19T10:43:56Z</time>
      </trkpt>
      <trkpt lat="36.787928" lon="-4.952808">
        <ele>547.489</ele>
        <time>2021-09-19T10:44:02Z</time>
      </trkpt>
      <trkpt lat="36.787990" lon="-4.953134">
        <ele>547.825</ele>
        <time>2021-09-19T10:44:10Z</time>
      </trkpt>
      <trkpt lat="36.787995" lon="-4.953173">
        <ele>547.843</ele>
        <time>2021-09-19T10:44:11Z</time>
      </trkpt>
      <trkpt lat="36.787998" lon="-4.953212">
        <ele>548.085</ele>
        <time>2021-09-19T10:44:12Z</time>
      </trkpt>
      <trkpt lat="36.788014" lon="-4.953492">
        <ele>549.028</ele>
        <time>2021-09-19T10:44:19Z</time>
      </trkpt>
      <trkpt lat="36.788017" lon="-4.953534">
        <ele>549.284</ele>
        <time>2021-09-19T10:44:20Z</time>
      </trkpt>
      <trkpt lat="36.788025" lon="-4.953734">
        <ele>550.297</ele>
        <time>2021-09-19T10:44:25Z</time>
      </trkpt>
      <trkpt lat="36.788029" lon="-4.953897">
        <ele>550.654</ele>
        <time>2021-09-19T10:44:29Z</time>
      </trkpt>
      <trkpt lat="36.788042" lon="-4.954058">
        <ele>551.244</ele>
        <time>2021-09-19T10:44:33Z</time>
      </trkpt>
      <trkpt lat="36.788055" lon="-4.954257">
        <ele>551.805</ele>
        <time>2021-09-19T10:44:38Z</time>
      </trkpt>
      <trkpt lat="36.788051" lon="-4.954377">
        <ele>552.415</ele>
        <time>2021-09-19T10:44:41Z</time>
      </trkpt>
      <trkpt lat="36.788042" lon="-4.954587">
        <ele>553.208</ele>
        <time>2021-09-19T10:44:46Z</time>
      </trkpt>
      <trkpt lat="36.788024" lon="-4.954757">
        <ele>553.632</ele>
        <time>2021-09-19T10:44:50Z</time>
      </trkpt>
      <trkpt lat="36.787988" lon="-4.955008">
        <ele>554.038</ele>
        <time>2021-09-19T10:44:56Z</time>
      </trkpt>
      <trkpt lat="36.787968" lon="-4.955134">
        <ele>554.266</ele>
        <time>2021-09-19T10:44:59Z</time>
      </trkpt>
      <trkpt lat="36.787886" lon="-4.955363">
        <ele>554.668</ele>
        <time>2021-09-19T10:45:05Z</time>
      </trkpt>
      <trkpt lat="36.787780" lon="-4.955609">
        <ele>555.471</ele>
        <time>2021-09-19T10:45:11Z</time>
      </trkpt>
      <trkpt lat="36.787764" lon="-4.955658">
        <ele>555.627</ele>
        <time>2021-09-19T10:45:12Z</time>
      </trkpt>
      <trkpt lat="36.787643" lon="-4.956073">
        <ele>555.880</ele>
        <time>2021-09-19T10:45:20Z</time>
      </trkpt>
      <trkpt lat="36.787628" lon="-4.956131">
        <ele>555.817</ele>
        <time>2021-09-19T10:45:21Z</time>
      </trkpt>
      <trkpt lat="36.787590" lon="-4.956246">
        <ele>555.883</ele>
        <time>2021-09-19T10:45:23Z</time>
      </trkpt>
      <trkpt lat="36.787531" lon="-4.956428">
        <ele>555.825</ele>
        <time>2021-09-19T10:45:26Z</time>
      </trkpt>
      <trkpt lat="36.787425" lon="-4.956730">
        <ele>555.417</ele>
        <time>2021-09-19T10:45:31Z</time>
      </trkpt>
      <trkpt lat="36.787370" lon="-4.956918">
        <ele>555.208</ele>
        <time>2021-09-19T10:45:34Z</time>
      </trkpt>
      <trkpt lat="36.787344" lon="-4.957048">
        <ele>555.096</ele>
        <time>2021-09-19T10:45:36Z</time>
      </trkpt>
      <trkpt lat="36.787188" lon="-4.957612">
        <ele>554.652</ele>
        <time>2021-09-19T10:45:45Z</time>
      </trkpt>
      <trkpt lat="36.787157" lon="-4.957666">
        <ele>554.670</ele>
        <time>2021-09-19T10:45:46Z</time>
      </trkpt>
      <trkpt lat="36.787027" lon="-4.957882">
        <ele>554.452</ele>
        <time>2021-09-19T10:45:50Z</time>
      </trkpt>
      <trkpt lat="36.787006" lon="-4.957939">
        <ele>554.465</ele>
        <time>2021-09-19T10:45:51Z</time>
      </trkpt>
      <trkpt lat="36.786985" lon="-4.958119">
        <ele>554.471</ele>
        <time>2021-09-19T10:45:54Z</time>
      </trkpt>
      <trkpt lat="36.786978" lon="-4.958239">
        <ele>554.454</ele>
        <time>2021-09-19T10:45:56Z</time>
      </trkpt>
      <trkpt lat="36.786934" lon="-4.958749">
        <ele>555.451</ele>
        <time>2021-09-19T10:46:05Z</time>
      </trkpt>
      <trkpt lat="36.786908" lon="-4.958904">
        <ele>555.681</ele>
        <time>2021-09-19T10:46:08Z</time>
      </trkpt>
      <trkpt lat="36.786880" lon="-4.959057">
        <ele>556.261</ele>
        <time>2021-09-19T10:46:11Z</time>
      </trkpt>
      <trkpt lat="36.786871" lon="-4.959111">
        <ele>556.217</ele>
        <time>2021-09-19T10:46:12Z</time>
      </trkpt>
      <trkpt lat="36.786826" lon="-4.959320">
        <ele>556.608</ele>
        <time>2021-09-19T10:46:16Z</time>
      </trkpt>
      <trkpt lat="36.786791" lon="-4.959477">
        <ele>557.016</ele>
        <time>2021-09-19T10:46:19Z</time>
      </trkpt>
      <trkpt lat="36.786755" lon="-4.959578">
        <ele>557.022</ele>
        <time>2021-09-19T10:46:21Z</time>
      </trkpt>
      <trkpt lat="36.786731" lon="-4.959623">
        <ele>557.290</ele>
        <time>2021-09-19T10:46:22Z</time>
      </trkpt>
      <trkpt lat="36.786589" lon="-4.959733">
        <ele>557.612</ele>
        <time>2021-09-19T10:46:26Z</time>
      </trkpt>
      <trkpt lat="36.786375" lon="-4.959728">
        <ele>558.075</ele>
        <time>2021-09-19T10:46:31Z</time>
      </trkpt>
      <trkpt lat="36.786330" lon="-4.959714">
        <ele>558.091</ele>
        <time>2021-09-19T10:46:32Z</time>
      </trkpt>
      <trkpt lat="36.786285" lon="-4.959703">
        <ele>558.294</ele>
        <time>2021-09-19T10:46:33Z</time>
      </trkpt>
      <trkpt lat="36.786041" lon="-4.959650">
        <ele>558.451</ele>
        <time>2021-09-19T10:46:38Z</time>
      </trkpt>
      <trkpt lat="36.785680" lon="-4.959642">
        <ele>558.255</ele>
        <time>2021-09-19T10:46:44Z</time>
      </trkpt>
      <trkpt lat="36.785481" lon="-4.959651">
        <ele>557.807</ele>
        <time>2021-09-19T10:46:47Z</time>
      </trkpt>
      <trkpt lat="36.785288" lon="-4.959652">
        <ele>557.217</ele>
        <time>2021-09-19T10:46:50Z</time>
      </trkpt>
      <trkpt lat="36.785225" lon="-4.959660">
        <ele>557.008</ele>
        <time>2021-09-19T10:46:51Z</time>
      </trkpt>
      <trkpt lat="36.785111" lon="-4.959698">
        <ele>556.883</ele>
        <time>2021-09-19T10:46:53Z</time>
      </trkpt>
      <trkpt lat="36.785058" lon="-4.959726">
        <ele>556.669</ele>
        <time>2021-09-19T10:46:54Z</time>
      </trkpt>
      <trkpt lat="36.784900" lon="-4.959915">
        <ele>556.097</ele>
        <time>2021-09-19T10:46:58Z</time>
      </trkpt>
      <trkpt lat="36.784858" lon="-4.960114">
        <ele>555.889</ele>
        <time>2021-09-19T10:47:01Z</time>
      </trkpt>
      <trkpt lat="36.784869" lon="-4.960254">
        <ele>555.642</ele>
        <time>2021-09-19T10:47:03Z</time>
      </trkpt>
      <trkpt lat="36.784880" lon="-4.960320">
        <ele>555.688</ele>
        <time>2021-09-19T10:47:04Z</time>
      </trkpt>
      <trkpt lat="36.784894" lon="-4.960388">
        <ele>555.611</ele>
        <time>2021-09-19T10:47:05Z</time>
      </trkpt>
      <trkpt lat="36.784962" lon="-4.960680">
        <ele>555.488</ele>
        <time>2021-09-19T10:47:10Z</time>
      </trkpt>
      <trkpt lat="36.784971" lon="-4.960732">
        <ele>555.426</ele>
        <time>2021-09-19T10:47:11Z</time>
      </trkpt>
      <trkpt lat="36.785011" lon="-4.960918">
        <ele>555.647</ele>
        <time>2021-09-19T10:47:15Z</time>
      </trkpt>
      <trkpt lat="36.785039" lon="-4.961045">
        <ele>556.011</ele>
        <time>2021-09-19T10:47:18Z</time>
      </trkpt>
      <trkpt lat="36.785055" lon="-4.961124">
        <ele>556.608</ele>
        <time>2021-09-19T10:47:20Z</time>
      </trkpt>
      <trkpt lat="36.785062" lon="-4.961163">
        <ele>556.890</ele>
        <time>2021-09-19T10:47:21Z</time>
      </trkpt>
      <trkpt lat="36.785082" lon="-4.961270">
        <ele>557.616</ele>
        <time>2021-09-19T10:47:24Z</time>
      </trkpt>
      <trkpt lat="36.785086" lon="-4.961343">
        <ele>558.054</ele>
        <time>2021-09-19T10:47:26Z</time>
      </trkpt>
      <trkpt lat="36.785086" lon="-4.961379">
        <ele>558.416</ele>
        <time>2021-09-19T10:47:27Z</time>
      </trkpt>
      <trkpt lat="36.785084" lon="-4.961450">
        <ele>559.219</ele>
        <time>2021-09-19T10:47:29Z</time>
      </trkpt>
      <trkpt lat="36.785089" lon="-4.961551">
        <ele>560.065</ele>
        <time>2021-09-19T10:47:32Z</time>
      </trkpt>
      <trkpt lat="36.785096" lon="-4.961586">
        <ele>560.498</ele>
        <time>2021-09-19T10:47:33Z</time>
      </trkpt>
      <trkpt lat="36.785072" lon="-4.961746">
        <ele>561.495</ele>
        <time>2021-09-19T10:47:37Z</time>
      </trkpt>
      <trkpt lat="36.785056" lon="-4.961786">
        <ele>561.625</ele>
        <time>2021-09-19T10:47:38Z</time>
      </trkpt>
      <trkpt lat="36.784911" lon="-4.962021">
        <ele>562.226</ele>
        <time>2021-09-19T10:47:44Z</time>
      </trkpt>
      <trkpt lat="36.784798" lon="-4.962200">
        <ele>562.208</ele>
        <time>2021-09-19T10:47:48Z</time>
      </trkpt>
      <trkpt lat="36.784773" lon="-4.962314">
        <ele>562.208</ele>
        <time>2021-09-19T10:47:50Z</time>
      </trkpt>
      <trkpt lat="36.784752" lon="-4.962849">
        <ele>562.250</ele>
        <time>2021-09-19T10:47:59Z</time>
      </trkpt>
      <trkpt lat="36.784758" lon="-4.963179">
        <ele>562.016</ele>
        <time>2021-09-19T10:48:04Z</time>
      </trkpt>
      <trkpt lat="36.784756" lon="-4.963322">
        <ele>562.024</ele>
        <time>2021-09-19T10:48:06Z</time>
      </trkpt>
      <trkpt lat="36.784751" lon="-4.963544">
        <ele>561.836</ele>
        <time>2021-09-19T10:48:09Z</time>
      </trkpt>
      <trkpt lat="36.784736" lon="-4.963771">
        <ele>561.899</ele>
        <time>2021-09-19T10:48:12Z</time>
      </trkpt>
      <trkpt lat="36.784714" lon="-4.963926">
        <ele>561.645</ele>
        <time>2021-09-19T10:48:14Z</time>
      </trkpt>
      <trkpt lat="36.784658" lon="-4.964174">
        <ele>561.698</ele>
        <time>2021-09-19T10:48:17Z</time>
      </trkpt>
      <trkpt lat="36.784607" lon="-4.964440">
        <ele>561.275</ele>
        <time>2021-09-19T10:48:20Z</time>
      </trkpt>
      <trkpt lat="36.784583" lon="-4.964618">
        <ele>561.046</ele>
        <time>2021-09-19T10:48:22Z</time>
      </trkpt>
      <trkpt lat="36.784555" lon="-4.964781">
        <ele>560.688</ele>
        <time>2021-09-19T10:48:24Z</time>
      </trkpt>
      <trkpt lat="36.784542" lon="-4.964860">
        <ele>560.216</ele>
        <time>2021-09-19T10:48:25Z</time>
      </trkpt>
      <trkpt lat="36.784525" lon="-4.964934">
        <ele>560.008</ele>
        <time>2021-09-19T10:48:26Z</time>
      </trkpt>
      <trkpt lat="36.784483" lon="-4.965076">
        <ele>558.682</ele>
        <time>2021-09-19T10:48:28Z</time>
      </trkpt>
      <trkpt lat="36.784381" lon="-4.965358">
        <ele>557.898</ele>
        <time>2021-09-19T10:48:32Z</time>
      </trkpt>
      <trkpt lat="36.784322" lon="-4.965575">
        <ele>557.476</ele>
        <time>2021-09-19T10:48:35Z</time>
      </trkpt>
      <trkpt lat="36.784263" lon="-4.965859">
        <ele>557.278</ele>
        <time>2021-09-19T10:48:39Z</time>
      </trkpt>
      <trkpt lat="36.784182" lon="-4.966228">
        <ele>557.291</ele>
        <time>2021-09-19T10:48:45Z</time>
      </trkpt>
      <trkpt lat="36.784169" lon="-4.966282">
        <ele>557.297</ele>
        <time>2021-09-19T10:48:46Z</time>
      </trkpt>
      <trkpt lat="36.784126" lon="-4.966493">
        <ele>557.690</ele>
        <time>2021-09-19T10:48:50Z</time>
      </trkpt>
      <trkpt lat="36.784102" lon="-4.966601">
        <ele>557.647</ele>
        <time>2021-09-19T10:48:52Z</time>
      </trkpt>
      <trkpt lat="36.784095" lon="-4.966656">
        <ele>558.058</ele>
        <time>2021-09-19T10:48:53Z</time>
      </trkpt>
      <trkpt lat="36.784109" lon="-4.966929">
        <ele>558.652</ele>
        <time>2021-09-19T10:48:58Z</time>
      </trkpt>
      <trkpt lat="36.784117" lon="-4.966983">
        <ele>558.617</ele>
        <time>2021-09-19T10:48:59Z</time>
      </trkpt>
      <trkpt lat="36.784129" lon="-4.967035">
        <ele>558.608</ele>
        <time>2021-09-19T10:49:00Z</time>
      </trkpt>
      <trkpt lat="36.784206" lon="-4.967284">
        <ele>559.273</ele>
        <time>2021-09-19T10:49:05Z</time>
      </trkpt>
      <trkpt lat="36.784248" lon="-4.967373">
        <ele>559.639</ele>
        <time>2021-09-19T10:49:07Z</time>
      </trkpt>
      <trkpt lat="36.784314" lon="-4.967506">
        <ele>560.087</ele>
        <time>2021-09-19T10:49:10Z</time>
      </trkpt>
      <trkpt lat="36.784329" lon="-4.967555">
        <ele>560.239</ele>
        <time>2021-09-19T10:49:11Z</time>
      </trkpt>
      <trkpt lat="36.784350" lon="-4.967729">
        <ele>560.462</ele>
        <time>2021-09-19T10:49:14Z</time>
      </trkpt>
      <trkpt lat="36.784351" lon="-4.967795">
        <ele>560.488</ele>
        <time>2021-09-19T10:49:15Z</time>
      </trkpt>
      <trkpt lat="36.784342" lon="-4.967989">
        <ele>560.431</ele>
        <time>2021-09-19T10:49:18Z</time>
      </trkpt>
      <trkpt lat="36.784329" lon="-4.968166">
        <ele>560.428</ele>
        <time>2021-09-19T10:49:21Z</time>
      </trkpt>
      <trkpt lat="36.784311" lon="-4.968398">
        <ele>560.256</ele>
        <time>2021-09-19T10:49:25Z</time>
      </trkpt>
      <trkpt lat="36.784281" lon="-4.968510">
        <ele>560.259</ele>
        <time>2021-09-19T10:49:27Z</time>
      </trkpt>
      <trkpt lat="36.784206" lon="-4.968721">
        <ele>560.214</ele>
        <time>2021-09-19T10:49:31Z</time>
      </trkpt>
      <trkpt lat="36.784190" lon="-4.968828">
        <ele>560.208</ele>
        <time>2021-09-19T10:49:33Z</time>
      </trkpt>
      <trkpt lat="36.784210" lon="-4.969018">
        <ele>560.273</ele>
        <time>2021-09-19T10:49:37Z</time>
      </trkpt>
      <trkpt lat="36.784218" lon="-4.969058">
        <ele>560.259</ele>
        <time>2021-09-19T10:49:38Z</time>
      </trkpt>
      <trkpt lat="36.784225" lon="-4.969095">
        <ele>560.437</ele>
        <time>2021-09-19T10:49:39Z</time>
      </trkpt>
      <trkpt lat="36.784255" lon="-4.969191">
        <ele>561.299</ele>
        <time>2021-09-19T10:49:42Z</time>
      </trkpt>
      <trkpt lat="36.784283" lon="-4.969247">
        <ele>561.612</ele>
        <time>2021-09-19T10:49:44Z</time>
      </trkpt>
      <trkpt lat="36.784300" lon="-4.969275">
        <ele>561.868</ele>
        <time>2021-09-19T10:49:45Z</time>
      </trkpt>
      <trkpt lat="36.784378" lon="-4.969381">
        <ele>562.891</ele>
        <time>2021-09-19T10:49:49Z</time>
      </trkpt>
      <trkpt lat="36.784450" lon="-4.969430">
        <ele>563.438</ele>
        <time>2021-09-19T10:49:52Z</time>
      </trkpt>
      <trkpt lat="36.784501" lon="-4.969461">
        <ele>564.099</ele>
        <time>2021-09-19T10:49:54Z</time>
      </trkpt>
      <trkpt lat="36.784605" lon="-4.969508">
        <ele>565.007</ele>
        <time>2021-09-19T10:49:58Z</time>
      </trkpt>
      <trkpt lat="36.784631" lon="-4.969517">
        <ele>565.227</ele>
        <time>2021-09-19T10:49:59Z</time>
      </trkpt>
      <trkpt lat="36.784736" lon="-4.969537">
        <ele>566.408</ele>
        <time>2021-09-19T10:50:03Z</time>
      </trkpt>
      <trkpt lat="36.784785" lon="-4.969534">
        <ele>566.897</ele>
        <time>2021-09-19T10:50:05Z</time>
      </trkpt>
      <trkpt lat="36.784870" lon="-4.969519">
        <ele>567.213</ele>
        <time>2021-09-19T10:50:09Z</time>
      </trkpt>
      <trkpt lat="36.784890" lon="-4.969513">
        <ele>567.461</ele>
        <time>2021-09-19T10:50:10Z</time>
      </trkpt>
      <trkpt lat="36.784976" lon="-4.969502">
        <ele>568.693</ele>
        <time>2021-09-19T10:50:14Z</time>
      </trkpt>
      <trkpt lat="36.784997" lon="-4.969512">
        <ele>569.096</ele>
        <time>2021-09-19T10:50:15Z</time>
      </trkpt>
      <trkpt lat="36.785039" lon="-4.969521">
        <ele>569.462</ele>
        <time>2021-09-19T10:50:17Z</time>
      </trkpt>
      <trkpt lat="36.785056" lon="-4.969511">
        <ele>569.615</ele>
        <time>2021-09-19T10:50:18Z</time>
      </trkpt>
      <trkpt lat="36.785069" lon="-4.969491">
        <ele>569.832</ele>
        <time>2021-09-19T10:50:19Z</time>
      </trkpt>
      <trkpt lat="36.785124" lon="-4.969452">
        <ele>570.889</ele>
        <time>2021-09-19T10:50:23Z</time>
      </trkpt>
      <trkpt lat="36.785141" lon="-4.969449">
        <ele>571.206</ele>
        <time>2021-09-19T10:50:24Z</time>
      </trkpt>
      <trkpt lat="36.785182" lon="-4.969439">
        <ele>571.826</ele>
        <time>2021-09-19T10:50:27Z</time>
      </trkpt>
      <trkpt lat="36.785191" lon="-4.969437">
        <ele>571.808</ele>
        <time>2021-09-19T10:50:29Z</time>
      </trkpt>
      <trkpt lat="36.785190" lon="-4.969437">
        <ele>572.076</ele>
        <time>2021-09-19T10:50:30Z</time>
      </trkpt>
      <trkpt lat="36.785124" lon="-4.969461">
        <ele>572.082</ele>
        <time>2021-09-19T10:51:59Z</time>
      </trkpt>
      <trkpt lat="36.785096" lon="-4.969479">
        <ele>572.010</ele>
        <time>2021-09-19T10:52:00Z</time>
      </trkpt>
      <trkpt lat="36.785043" lon="-4.969585">
        <ele>572.012</ele>
        <time>2021-09-19T10:52:03Z</time>
      </trkpt>
      <trkpt lat="36.785037" lon="-4.969661">
        <ele>572.255</ele>
        <time>2021-09-19T10:52:05Z</time>
      </trkpt>
      <trkpt lat="36.785043" lon="-4.969763">
        <ele>572.211</ele>
        <time>2021-09-19T10:52:08Z</time>
      </trkpt>
      <trkpt lat="36.785026" lon="-4.969970">
        <ele>572.424</ele>
        <time>2021-09-19T10:52:14Z</time>
      </trkpt>
      <trkpt lat="36.785025" lon="-4.970041">
        <ele>572.411</ele>
        <time>2021-09-19T10:52:16Z</time>
      </trkpt>
      <trkpt lat="36.785030" lon="-4.970187">
        <ele>572.613</ele>
        <time>2021-09-19T10:52:20Z</time>
      </trkpt>
      <trkpt lat="36.785026" lon="-4.970257">
        <ele>572.843</ele>
        <time>2021-09-19T10:52:22Z</time>
      </trkpt>
      <trkpt lat="36.785032" lon="-4.970396">
        <ele>573.807</ele>
        <time>2021-09-19T10:52:26Z</time>
      </trkpt>
      <trkpt lat="36.785055" lon="-4.970525">
        <ele>574.408</ele>
        <time>2021-09-19T10:52:30Z</time>
      </trkpt>
      <trkpt lat="36.785084" lon="-4.970607">
        <ele>575.079</ele>
        <time>2021-09-19T10:52:33Z</time>
      </trkpt>
      <trkpt lat="36.785135" lon="-4.970672">
        <ele>575.675</ele>
        <time>2021-09-19T10:52:36Z</time>
      </trkpt>
      <trkpt lat="36.785167" lon="-4.970715">
        <ele>576.023</ele>
        <time>2021-09-19T10:52:38Z</time>
      </trkpt>
      <trkpt lat="36.785229" lon="-4.970819">
        <ele>576.825</ele>
        <time>2021-09-19T10:52:42Z</time>
      </trkpt>
      <trkpt lat="36.785245" lon="-4.970843">
        <ele>577.068</ele>
        <time>2021-09-19T10:52:43Z</time>
      </trkpt>
      <trkpt lat="36.785298" lon="-4.970979">
        <ele>578.074</ele>
        <time>2021-09-19T10:52:48Z</time>
      </trkpt>
      <trkpt lat="36.785305" lon="-4.971007">
        <ele>578.017</ele>
        <time>2021-09-19T10:52:49Z</time>
      </trkpt>
      <trkpt lat="36.785293" lon="-4.971145">
        <ele>578.824</ele>
        <time>2021-09-19T10:52:54Z</time>
      </trkpt>
      <trkpt lat="36.785283" lon="-4.971172">
        <ele>579.073</ele>
        <time>2021-09-19T10:52:55Z</time>
      </trkpt>
      <trkpt lat="36.785248" lon="-4.971273">
        <ele>580.285</ele>
        <time>2021-09-19T10:52:59Z</time>
      </trkpt>
      <trkpt lat="36.785238" lon="-4.971297">
        <ele>580.413</ele>
        <time>2021-09-19T10:53:00Z</time>
      </trkpt>
      <trkpt lat="36.785191" lon="-4.971416">
        <ele>581.208</ele>
        <time>2021-09-19T10:53:05Z</time>
      </trkpt>
      <trkpt lat="36.785147" lon="-4.971513">
        <ele>582.045</ele>
        <time>2021-09-19T10:53:09Z</time>
      </trkpt>
      <trkpt lat="36.785116" lon="-4.971552">
        <ele>582.451</ele>
        <time>2021-09-19T10:53:11Z</time>
      </trkpt>
      <trkpt lat="36.785041" lon="-4.971644">
        <ele>583.499</ele>
        <time>2021-09-19T10:53:16Z</time>
      </trkpt>
      <trkpt lat="36.785025" lon="-4.971662">
        <ele>583.681</ele>
        <time>2021-09-19T10:53:17Z</time>
      </trkpt>
      <trkpt lat="36.784953" lon="-4.971714">
        <ele>584.414</ele>
        <time>2021-09-19T10:53:21Z</time>
      </trkpt>
      <trkpt lat="36.784867" lon="-4.971738">
        <ele>585.450</ele>
        <time>2021-09-19T10:53:25Z</time>
      </trkpt>
      <trkpt lat="36.784845" lon="-4.971740">
        <ele>585.663</ele>
        <time>2021-09-19T10:53:26Z</time>
      </trkpt>
      <trkpt lat="36.784757" lon="-4.971751">
        <ele>586.890</ele>
        <time>2021-09-19T10:53:30Z</time>
      </trkpt>
      <trkpt lat="36.784665" lon="-4.971743">
        <ele>587.444</ele>
        <time>2021-09-19T10:53:34Z</time>
      </trkpt>
      <trkpt lat="36.784573" lon="-4.971725">
        <ele>587.805</ele>
        <time>2021-09-19T10:53:38Z</time>
      </trkpt>
      <trkpt lat="36.784484" lon="-4.971706">
        <ele>588.815</ele>
        <time>2021-09-19T10:53:42Z</time>
      </trkpt>
      <trkpt lat="36.784462" lon="-4.971703">
        <ele>589.008</ele>
        <time>2021-09-19T10:53:43Z</time>
      </trkpt>
      <trkpt lat="36.784353" lon="-4.971690">
        <ele>590.092</ele>
        <time>2021-09-19T10:53:48Z</time>
      </trkpt>
      <trkpt lat="36.784166" lon="-4.971661">
        <ele>591.048</ele>
        <time>2021-09-19T10:53:56Z</time>
      </trkpt>
      <trkpt lat="36.784141" lon="-4.971655">
        <ele>591.286</ele>
        <time>2021-09-19T10:53:57Z</time>
      </trkpt>
      <trkpt lat="36.783947" lon="-4.971622">
        <ele>592.038</ele>
        <time>2021-09-19T10:54:03Z</time>
      </trkpt>
      <trkpt lat="36.783906" lon="-4.971619">
        <ele>592.081</ele>
        <time>2021-09-19T10:54:04Z</time>
      </trkpt>
      <trkpt lat="36.783662" lon="-4.971594">
        <ele>592.087</ele>
        <time>2021-09-19T10:54:09Z</time>
      </trkpt>
      <trkpt lat="36.783607" lon="-4.971594">
        <ele>591.680</ele>
        <time>2021-09-19T10:54:10Z</time>
      </trkpt>
      <trkpt lat="36.783542" lon="-4.971600">
        <ele>591.667</ele>
        <time>2021-09-19T10:54:11Z</time>
      </trkpt>
      <trkpt lat="36.783333" lon="-4.971661">
        <ele>591.631</ele>
        <time>2021-09-19T10:54:14Z</time>
      </trkpt>
      <trkpt lat="36.783257" lon="-4.971693">
        <ele>591.661</ele>
        <time>2021-09-19T10:54:15Z</time>
      </trkpt>
      <trkpt lat="36.783102" lon="-4.971785">
        <ele>591.007</ele>
        <time>2021-09-19T10:54:17Z</time>
      </trkpt>
      <trkpt lat="36.783020" lon="-4.971839">
        <ele>590.208</ele>
        <time>2021-09-19T10:54:18Z</time>
      </trkpt>
      <trkpt lat="36.782939" lon="-4.971900">
        <ele>589.881</ele>
        <time>2021-09-19T10:54:19Z</time>
      </trkpt>
      <trkpt lat="36.782784" lon="-4.972037">
        <ele>588.887</ele>
        <time>2021-09-19T10:54:21Z</time>
      </trkpt>
      <trkpt lat="36.782715" lon="-4.972098">
        <ele>588.295</ele>
        <time>2021-09-19T10:54:22Z</time>
      </trkpt>
      <trkpt lat="36.782647" lon="-4.972152">
        <ele>587.647</ele>
        <time>2021-09-19T10:54:23Z</time>
      </trkpt>
      <trkpt lat="36.782575" lon="-4.972198">
        <ele>587.040</ele>
        <time>2021-09-19T10:54:24Z</time>
      </trkpt>
      <trkpt lat="36.782414" lon="-4.972263">
        <ele>585.856</ele>
        <time>2021-09-19T10:54:26Z</time>
      </trkpt>
      <trkpt lat="36.782325" lon="-4.972296">
        <ele>584.669</ele>
        <time>2021-09-19T10:54:27Z</time>
      </trkpt>
      <trkpt lat="36.782160" lon="-4.972414">
        <ele>582.836</ele>
        <time>2021-09-19T10:54:29Z</time>
      </trkpt>
      <trkpt lat="36.782092" lon="-4.972481">
        <ele>582.248</ele>
        <time>2021-09-19T10:54:30Z</time>
      </trkpt>
      <trkpt lat="36.782025" lon="-4.972549">
        <ele>581.661</ele>
        <time>2021-09-19T10:54:31Z</time>
      </trkpt>
      <trkpt lat="36.781905" lon="-4.972677">
        <ele>580.217</ele>
        <time>2021-09-19T10:54:33Z</time>
      </trkpt>
      <trkpt lat="36.781774" lon="-4.972862">
        <ele>578.608</ele>
        <time>2021-09-19T10:54:36Z</time>
      </trkpt>
      <trkpt lat="36.781750" lon="-4.972922">
        <ele>578.222</ele>
        <time>2021-09-19T10:54:37Z</time>
      </trkpt>
      <trkpt lat="36.781707" lon="-4.973029">
        <ele>577.418</ele>
        <time>2021-09-19T10:54:39Z</time>
      </trkpt>
      <trkpt lat="36.781691" lon="-4.973080">
        <ele>577.246</ele>
        <time>2021-09-19T10:54:40Z</time>
      </trkpt>
      <trkpt lat="36.781676" lon="-4.973182">
        <ele>576.828</ele>
        <time>2021-09-19T10:54:42Z</time>
      </trkpt>
      <trkpt lat="36.781683" lon="-4.973331">
        <ele>576.881</ele>
        <time>2021-09-19T10:54:45Z</time>
      </trkpt>
      <trkpt lat="36.781703" lon="-4.973469">
        <ele>576.887</ele>
        <time>2021-09-19T10:54:48Z</time>
      </trkpt>
      <trkpt lat="36.781733" lon="-4.973590">
        <ele>577.690</ele>
        <time>2021-09-19T10:54:51Z</time>
      </trkpt>
      <trkpt lat="36.781777" lon="-4.973705">
        <ele>578.447</ele>
        <time>2021-09-19T10:54:54Z</time>
      </trkpt>
      <trkpt lat="36.781789" lon="-4.973743">
        <ele>578.626</ele>
        <time>2021-09-19T10:54:55Z</time>
      </trkpt>
      <trkpt lat="36.781817" lon="-4.973978">
        <ele>579.447</ele>
        <time>2021-09-19T10:55:01Z</time>
      </trkpt>
      <trkpt lat="36.781818" lon="-4.974013">
        <ele>579.611</ele>
        <time>2021-09-19T10:55:02Z</time>
      </trkpt>
      <trkpt lat="36.781826" lon="-4.974201">
        <ele>580.608</ele>
        <time>2021-09-19T10:55:08Z</time>
      </trkpt>
      <trkpt lat="36.781824" lon="-4.974263">
        <ele>580.860</ele>
        <time>2021-09-19T10:55:10Z</time>
      </trkpt>
      <trkpt lat="36.781808" lon="-4.974383">
        <ele>582.096</ele>
        <time>2021-09-19T10:55:14Z</time>
      </trkpt>
      <trkpt lat="36.781789" lon="-4.974530">
        <ele>583.024</ele>
        <time>2021-09-19T10:55:19Z</time>
      </trkpt>
      <trkpt lat="36.781778" lon="-4.974590">
        <ele>583.426</ele>
        <time>2021-09-19T10:55:21Z</time>
      </trkpt>
      <trkpt lat="36.781754" lon="-4.974679">
        <ele>584.289</ele>
        <time>2021-09-19T10:55:24Z</time>
      </trkpt>
      <trkpt lat="36.781686" lon="-4.974809">
        <ele>585.425</ele>
        <time>2021-09-19T10:55:29Z</time>
      </trkpt>
      <trkpt lat="36.781568" lon="-4.974898">
        <ele>586.828</ele>
        <time>2021-09-19T10:55:34Z</time>
      </trkpt>
      <trkpt lat="36.781540" lon="-4.974907">
        <ele>587.295</ele>
        <time>2021-09-19T10:55:35Z</time>
      </trkpt>
      <trkpt lat="36.781390" lon="-4.974915">
        <ele>588.019</ele>
        <time>2021-09-19T10:55:40Z</time>
      </trkpt>
      <trkpt lat="36.781327" lon="-4.974904">
        <ele>588.409</ele>
        <time>2021-09-19T10:55:42Z</time>
      </trkpt>
      <trkpt lat="36.781120" lon="-4.974812">
        <ele>588.819</ele>
        <time>2021-09-19T10:55:49Z</time>
      </trkpt>
      <trkpt lat="36.781057" lon="-4.974775">
        <ele>589.008</ele>
        <time>2021-09-19T10:55:51Z</time>
      </trkpt>
      <trkpt lat="36.780852" lon="-4.974695">
        <ele>589.649</ele>
        <time>2021-09-19T10:55:57Z</time>
      </trkpt>
      <trkpt lat="36.780668" lon="-4.974663">
        <ele>590.055</ele>
        <time>2021-09-19T10:56:02Z</time>
      </trkpt>
      <trkpt lat="36.780518" lon="-4.974711">
        <ele>590.043</ele>
        <time>2021-09-19T10:56:06Z</time>
      </trkpt>
      <trkpt lat="36.780481" lon="-4.974724">
        <ele>590.075</ele>
        <time>2021-09-19T10:56:07Z</time>
      </trkpt>
      <trkpt lat="36.780443" lon="-4.974741">
        <ele>590.068</ele>
        <time>2021-09-19T10:56:08Z</time>
      </trkpt>
      <trkpt lat="36.780406" lon="-4.974757">
        <ele>590.044</ele>
        <time>2021-09-19T10:56:09Z</time>
      </trkpt>
      <trkpt lat="36.780257" lon="-4.974824">
        <ele>590.267</ele>
        <time>2021-09-19T10:56:13Z</time>
      </trkpt>
      <trkpt lat="36.780067" lon="-4.974964">
        <ele>590.854</ele>
        <time>2021-09-19T10:56:19Z</time>
      </trkpt>
      <trkpt lat="36.780004" lon="-4.975038">
        <ele>591.296</ele>
        <time>2021-09-19T10:56:22Z</time>
      </trkpt>
      <trkpt lat="36.779971" lon="-4.975097">
        <ele>591.431</ele>
        <time>2021-09-19T10:56:24Z</time>
      </trkpt>
      <trkpt lat="36.779898" lon="-4.975238">
        <ele>592.424</ele>
        <time>2021-09-19T10:56:29Z</time>
      </trkpt>
      <trkpt lat="36.779837" lon="-4.975356">
        <ele>593.208</ele>
        <time>2021-09-19T10:56:33Z</time>
      </trkpt>
      <trkpt lat="36.779821" lon="-4.975385">
        <ele>593.447</ele>
        <time>2021-09-19T10:56:34Z</time>
      </trkpt>
      <trkpt lat="36.779761" lon="-4.975501">
        <ele>594.613</ele>
        <time>2021-09-19T10:56:38Z</time>
      </trkpt>
      <trkpt lat="36.779708" lon="-4.975628">
        <ele>595.611</ele>
        <time>2021-09-19T10:56:42Z</time>
      </trkpt>
      <trkpt lat="36.779704" lon="-4.975804">
        <ele>596.463</ele>
        <time>2021-09-19T10:56:47Z</time>
      </trkpt>
      <trkpt lat="36.779732" lon="-4.975867">
        <ele>596.866</ele>
        <time>2021-09-19T10:56:49Z</time>
      </trkpt>
      <trkpt lat="36.779793" lon="-4.975979">
        <ele>597.852</ele>
        <time>2021-09-19T10:56:53Z</time>
      </trkpt>
      <trkpt lat="36.779806" lon="-4.976007">
        <ele>598.055</ele>
        <time>2021-09-19T10:56:54Z</time>
      </trkpt>
      <trkpt lat="36.779866" lon="-4.976137">
        <ele>598.842</ele>
        <time>2021-09-19T10:56:59Z</time>
      </trkpt>
      <trkpt lat="36.779883" lon="-4.976192">
        <ele>599.258</ele>
        <time>2021-09-19T10:57:01Z</time>
      </trkpt>
      <trkpt lat="36.779923" lon="-4.976328">
        <ele>600.252</ele>
        <time>2021-09-19T10:57:06Z</time>
      </trkpt>
      <trkpt lat="36.779931" lon="-4.976358">
        <ele>600.817</ele>
        <time>2021-09-19T10:57:07Z</time>
      </trkpt>
      <trkpt lat="36.779961" lon="-4.976476">
        <ele>601.208</ele>
        <time>2021-09-19T10:57:11Z</time>
      </trkpt>
      <trkpt lat="36.780015" lon="-4.976606">
        <ele>602.213</ele>
        <time>2021-09-19T10:57:16Z</time>
      </trkpt>
      <trkpt lat="36.780040" lon="-4.976658">
        <ele>602.449</ele>
        <time>2021-09-19T10:57:18Z</time>
      </trkpt>
      <trkpt lat="36.780082" lon="-4.976796">
        <ele>603.417</ele>
        <time>2021-09-19T10:57:23Z</time>
      </trkpt>
      <trkpt lat="36.780090" lon="-4.976823">
        <ele>603.639</ele>
        <time>2021-09-19T10:57:24Z</time>
      </trkpt>
      <trkpt lat="36.780126" lon="-4.976957">
        <ele>604.852</ele>
        <time>2021-09-19T10:57:29Z</time>
      </trkpt>
      <trkpt lat="36.780126" lon="-4.976992">
        <ele>605.068</ele>
        <time>2021-09-19T10:57:30Z</time>
      </trkpt>
      <trkpt lat="36.780125" lon="-4.977124">
        <ele>605.861</ele>
        <time>2021-09-19T10:57:34Z</time>
      </trkpt>
      <trkpt lat="36.780110" lon="-4.977188">
        <ele>606.488</ele>
        <time>2021-09-19T10:57:36Z</time>
      </trkpt>
      <trkpt lat="36.780087" lon="-4.977246">
        <ele>607.069</ele>
        <time>2021-09-19T10:57:38Z</time>
      </trkpt>
      <trkpt lat="36.780011" lon="-4.977319">
        <ele>607.604</ele>
        <time>2021-09-19T10:57:42Z</time>
      </trkpt>
      <trkpt lat="36.779965" lon="-4.977333">
        <ele>608.024</ele>
        <time>2021-09-19T10:57:44Z</time>
      </trkpt>
      <trkpt lat="36.779876" lon="-4.977350">
        <ele>609.208</ele>
        <time>2021-09-19T10:57:48Z</time>
      </trkpt>
      <trkpt lat="36.779854" lon="-4.977353">
        <ele>609.614</ele>
        <time>2021-09-19T10:57:49Z</time>
      </trkpt>
      <trkpt lat="36.779792" lon="-4.977355">
        <ele>610.670</ele>
        <time>2021-09-19T10:57:52Z</time>
      </trkpt>
      <trkpt lat="36.779769" lon="-4.977356">
        <ele>610.878</ele>
        <time>2021-09-19T10:57:53Z</time>
      </trkpt>
      <trkpt lat="36.779722" lon="-4.977355">
        <ele>611.270</ele>
        <time>2021-09-19T10:57:55Z</time>
      </trkpt>
      <trkpt lat="36.779675" lon="-4.977357">
        <ele>611.633</ele>
        <time>2021-09-19T10:57:57Z</time>
      </trkpt>
      <trkpt lat="36.779534" lon="-4.977360">
        <ele>612.829</ele>
        <time>2021-09-19T10:58:03Z</time>
      </trkpt>
      <trkpt lat="36.779436" lon="-4.977360">
        <ele>613.882</ele>
        <time>2021-09-19T10:58:07Z</time>
      </trkpt>
      <trkpt lat="36.779363" lon="-4.977350">
        <ele>614.439</ele>
        <time>2021-09-19T10:58:10Z</time>
      </trkpt>
      <trkpt lat="36.779286" lon="-4.977327">
        <ele>615.225</ele>
        <time>2021-09-19T10:58:13Z</time>
      </trkpt>
      <trkpt lat="36.779137" lon="-4.977260">
        <ele>616.026</ele>
        <time>2021-09-19T10:58:19Z</time>
      </trkpt>
      <trkpt lat="36.779064" lon="-4.977218">
        <ele>616.208</ele>
        <time>2021-09-19T10:58:22Z</time>
      </trkpt>
      <trkpt lat="36.778942" lon="-4.977117">
        <ele>616.608</ele>
        <time>2021-09-19T10:58:27Z</time>
      </trkpt>
      <trkpt lat="36.778719" lon="-4.976991">
        <ele>617.250</ele>
        <time>2021-09-19T10:58:34Z</time>
      </trkpt>
      <trkpt lat="36.778587" lon="-4.977029">
        <ele>617.246</ele>
        <time>2021-09-19T10:58:38Z</time>
      </trkpt>
      <trkpt lat="36.778558" lon="-4.977045">
        <ele>617.244</ele>
        <time>2021-09-19T10:58:39Z</time>
      </trkpt>
      <trkpt lat="36.778401" lon="-4.977123">
        <ele>617.456</ele>
        <time>2021-09-19T10:58:44Z</time>
      </trkpt>
      <trkpt lat="36.778372" lon="-4.977145">
        <ele>617.439</ele>
        <time>2021-09-19T10:58:45Z</time>
      </trkpt>
      <trkpt lat="36.778270" lon="-4.977284">
        <ele>618.065</ele>
        <time>2021-09-19T10:58:50Z</time>
      </trkpt>
      <trkpt lat="36.778220" lon="-4.977394">
        <ele>618.288</ele>
        <time>2021-09-19T10:58:54Z</time>
      </trkpt>
      <trkpt lat="36.778191" lon="-4.977444">
        <ele>618.655</ele>
        <time>2021-09-19T10:58:56Z</time>
      </trkpt>
      <trkpt lat="36.778145" lon="-4.977515">
        <ele>619.487</ele>
        <time>2021-09-19T10:58:59Z</time>
      </trkpt>
      <trkpt lat="36.778092" lon="-4.977572">
        <ele>620.042</ele>
        <time>2021-09-19T10:59:02Z</time>
      </trkpt>
      <trkpt lat="36.778056" lon="-4.977611">
        <ele>620.426</ele>
        <time>2021-09-19T10:59:04Z</time>
      </trkpt>
      <trkpt lat="36.777947" lon="-4.977724">
        <ele>621.408</ele>
        <time>2021-09-19T10:59:10Z</time>
      </trkpt>
      <trkpt lat="36.777927" lon="-4.977740">
        <ele>621.626</ele>
        <time>2021-09-19T10:59:11Z</time>
      </trkpt>
      <trkpt lat="36.777833" lon="-4.977843">
        <ele>622.212</ele>
        <time>2021-09-19T10:59:16Z</time>
      </trkpt>
      <trkpt lat="36.777800" lon="-4.977887">
        <ele>622.630</ele>
        <time>2021-09-19T10:59:18Z</time>
      </trkpt>
      <trkpt lat="36.777707" lon="-4.978055">
        <ele>623.822</ele>
        <time>2021-09-19T10:59:25Z</time>
      </trkpt>
      <trkpt lat="36.777658" lon="-4.978156">
        <ele>624.845</ele>
        <time>2021-09-19T10:59:30Z</time>
      </trkpt>
      <trkpt lat="36.777628" lon="-4.978215">
        <ele>626.251</ele>
        <time>2021-09-19T10:59:33Z</time>
      </trkpt>
      <trkpt lat="36.777605" lon="-4.978250">
        <ele>626.844</ele>
        <time>2021-09-19T10:59:35Z</time>
      </trkpt>
      <trkpt lat="36.777574" lon="-4.978275">
        <ele>627.471</ele>
        <time>2021-09-19T10:59:37Z</time>
      </trkpt>
      <trkpt lat="36.777499" lon="-4.978309">
        <ele>628.469</ele>
        <time>2021-09-19T10:59:41Z</time>
      </trkpt>
      <trkpt lat="36.777364" lon="-4.978276">
        <ele>629.604</ele>
        <time>2021-09-19T10:59:47Z</time>
      </trkpt>
      <trkpt lat="36.777342" lon="-4.978265">
        <ele>629.824</ele>
        <time>2021-09-19T10:59:48Z</time>
      </trkpt>
      <trkpt lat="36.777222" lon="-4.978159">
        <ele>630.608</ele>
        <time>2021-09-19T10:59:54Z</time>
      </trkpt>
      <trkpt lat="36.777089" lon="-4.978077">
        <ele>631.684</ele>
        <time>2021-09-19T11:00:00Z</time>
      </trkpt>
      <trkpt lat="36.777046" lon="-4.978048">
        <ele>631.860</ele>
        <time>2021-09-19T11:00:02Z</time>
      </trkpt>
      <trkpt lat="36.776873" lon="-4.977960">
        <ele>632.648</ele>
        <time>2021-09-19T11:00:09Z</time>
      </trkpt>
      <trkpt lat="36.776848" lon="-4.977952">
        <ele>633.040</ele>
        <time>2021-09-19T11:00:10Z</time>
      </trkpt>
      <trkpt lat="36.776777" lon="-4.977940">
        <ele>633.443</ele>
        <time>2021-09-19T11:00:13Z</time>
      </trkpt>
      <trkpt lat="36.776743" lon="-4.977978">
        <ele>633.829</ele>
        <time>2021-09-19T11:00:15Z</time>
      </trkpt>
      <trkpt lat="36.776745" lon="-4.978057">
        <ele>634.222</ele>
        <time>2021-09-19T11:00:18Z</time>
      </trkpt>
      <trkpt lat="36.776752" lon="-4.978083">
        <ele>634.429</ele>
        <time>2021-09-19T11:00:19Z</time>
      </trkpt>
      <trkpt lat="36.776771" lon="-4.978139">
        <ele>634.823</ele>
        <time>2021-09-19T11:00:21Z</time>
      </trkpt>
      <trkpt lat="36.776848" lon="-4.978282">
        <ele>635.683</ele>
        <time>2021-09-19T11:00:26Z</time>
      </trkpt>
      <trkpt lat="36.776895" lon="-4.978372">
        <ele>635.811</ele>
        <time>2021-09-19T11:00:29Z</time>
      </trkpt>
      <trkpt lat="36.776921" lon="-4.978436">
        <ele>636.008</ele>
        <time>2021-09-19T11:00:31Z</time>
      </trkpt>
      <trkpt lat="36.776964" lon="-4.978656">
        <ele>636.420</ele>
        <time>2021-09-19T11:00:37Z</time>
      </trkpt>
      <trkpt lat="36.776950" lon="-4.978848">
        <ele>636.666</ele>
        <time>2021-09-19T11:00:42Z</time>
      </trkpt>
      <trkpt lat="36.776956" lon="-4.978925">
        <ele>637.044</ele>
        <time>2021-09-19T11:00:44Z</time>
      </trkpt>
      <trkpt lat="36.777010" lon="-4.979058">
        <ele>637.636</ele>
        <time>2021-09-19T11:00:48Z</time>
      </trkpt>
      <trkpt lat="36.777026" lon="-4.979088">
        <ele>637.899</ele>
        <time>2021-09-19T11:00:49Z</time>
      </trkpt>
      <trkpt lat="36.777046" lon="-4.979243">
        <ele>638.685</ele>
        <time>2021-09-19T11:00:53Z</time>
      </trkpt>
      <trkpt lat="36.777041" lon="-4.979284">
        <ele>638.858</ele>
        <time>2021-09-19T11:00:54Z</time>
      </trkpt>
      <trkpt lat="36.777014" lon="-4.979493">
        <ele>639.285</ele>
        <time>2021-09-19T11:00:59Z</time>
      </trkpt>
      <trkpt lat="36.777011" lon="-4.979846">
        <ele>639.667</ele>
        <time>2021-09-19T11:01:07Z</time>
      </trkpt>
      <trkpt lat="36.777048" lon="-4.980049">
        <ele>640.081</ele>
        <time>2021-09-19T11:01:12Z</time>
      </trkpt>
      <trkpt lat="36.777148" lon="-4.980241">
        <ele>640.019</ele>
        <time>2021-09-19T11:01:18Z</time>
      </trkpt>
      <trkpt lat="36.777250" lon="-4.980263">
        <ele>640.608</ele>
        <time>2021-09-19T11:01:22Z</time>
      </trkpt>
      <trkpt lat="36.777274" lon="-4.980259">
        <ele>640.884</ele>
        <time>2021-09-19T11:01:23Z</time>
      </trkpt>
      <trkpt lat="36.777381" lon="-4.980278">
        <ele>641.480</ele>
        <time>2021-09-19T11:01:27Z</time>
      </trkpt>
      <trkpt lat="36.777477" lon="-4.980321">
        <ele>642.058</ele>
        <time>2021-09-19T11:01:31Z</time>
      </trkpt>
      <trkpt lat="36.777513" lon="-4.980354">
        <ele>642.430</ele>
        <time>2021-09-19T11:01:33Z</time>
      </trkpt>
      <trkpt lat="36.777577" lon="-4.980398">
        <ele>643.083</ele>
        <time>2021-09-19T11:01:36Z</time>
      </trkpt>
      <trkpt lat="36.777640" lon="-4.980457">
        <ele>643.689</ele>
        <time>2021-09-19T11:01:39Z</time>
      </trkpt>
      <trkpt lat="36.777678" lon="-4.980503">
        <ele>644.082</ele>
        <time>2021-09-19T11:01:41Z</time>
      </trkpt>
      <trkpt lat="36.777762" lon="-4.980629">
        <ele>645.039</ele>
        <time>2021-09-19T11:01:46Z</time>
      </trkpt>
      <trkpt lat="36.777775" lon="-4.980653">
        <ele>645.271</ele>
        <time>2021-09-19T11:01:47Z</time>
      </trkpt>
      <trkpt lat="36.777828" lon="-4.980756">
        <ele>646.241</ele>
        <time>2021-09-19T11:01:51Z</time>
      </trkpt>
      <trkpt lat="36.777837" lon="-4.980784">
        <ele>646.615</ele>
        <time>2021-09-19T11:01:52Z</time>
      </trkpt>
      <trkpt lat="36.777860" lon="-4.980887">
        <ele>647.408</ele>
        <time>2021-09-19T11:01:55Z</time>
      </trkpt>
      <trkpt lat="36.777867" lon="-4.981003">
        <ele>647.845</ele>
        <time>2021-09-19T11:01:58Z</time>
      </trkpt>
      <trkpt lat="36.777849" lon="-4.981112">
        <ele>648.461</ele>
        <time>2021-09-19T11:02:01Z</time>
      </trkpt>
      <trkpt lat="36.777801" lon="-4.981212">
        <ele>649.479</ele>
        <time>2021-09-19T11:02:05Z</time>
      </trkpt>
      <trkpt lat="36.777782" lon="-4.981231">
        <ele>649.651</ele>
        <time>2021-09-19T11:02:06Z</time>
      </trkpt>
      <trkpt lat="36.777682" lon="-4.981318">
        <ele>650.644</ele>
        <time>2021-09-19T11:02:11Z</time>
      </trkpt>
      <trkpt lat="36.777660" lon="-4.981334">
        <ele>650.870</ele>
        <time>2021-09-19T11:02:12Z</time>
      </trkpt>
      <trkpt lat="36.777531" lon="-4.981444">
        <ele>651.443</ele>
        <time>2021-09-19T11:02:18Z</time>
      </trkpt>
      <trkpt lat="36.777392" lon="-4.981578">
        <ele>652.090</ele>
        <time>2021-09-19T11:02:24Z</time>
      </trkpt>
      <trkpt lat="36.777372" lon="-4.981606">
        <ele>652.656</ele>
        <time>2021-09-19T11:02:25Z</time>
      </trkpt>
      <trkpt lat="36.777332" lon="-4.981650">
        <ele>653.059</ele>
        <time>2021-09-19T11:02:27Z</time>
      </trkpt>
      <trkpt lat="36.777281" lon="-4.981728">
        <ele>653.614</ele>
        <time>2021-09-19T11:02:30Z</time>
      </trkpt>
      <trkpt lat="36.777219" lon="-4.981825">
        <ele>654.008</ele>
        <time>2021-09-19T11:02:34Z</time>
      </trkpt>
      <trkpt lat="36.777149" lon="-4.981908">
        <ele>654.483</ele>
        <time>2021-09-19T11:02:38Z</time>
      </trkpt>
      <trkpt lat="36.777115" lon="-4.981958">
        <ele>655.219</ele>
        <time>2021-09-19T11:02:41Z</time>
      </trkpt>
      <trkpt lat="36.777100" lon="-4.981986">
        <ele>655.627</ele>
        <time>2021-09-19T11:02:43Z</time>
      </trkpt>
      <trkpt lat="36.777095" lon="-4.982001">
        <ele>656.459</ele>
        <time>2021-09-19T11:02:47Z</time>
      </trkpt>
      <trkpt lat="36.777027" lon="-4.982119">
        <ele>656.612</ele>
        <time>2021-09-19T11:04:36Z</time>
      </trkpt>
      <trkpt lat="36.777014" lon="-4.982137">
        <ele>656.668</ele>
        <time>2021-09-19T11:04:37Z</time>
      </trkpt>
      <trkpt lat="36.776925" lon="-4.982249">
        <ele>657.041</ele>
        <time>2021-09-19T11:04:43Z</time>
      </trkpt>
      <trkpt lat="36.776843" lon="-4.982363">
        <ele>657.888</ele>
        <time>2021-09-19T11:04:48Z</time>
      </trkpt>
      <trkpt lat="36.776808" lon="-4.982408">
        <ele>658.092</ele>
        <time>2021-09-19T11:04:50Z</time>
      </trkpt>
      <trkpt lat="36.776730" lon="-4.982463">
        <ele>658.673</ele>
        <time>2021-09-19T11:04:53Z</time>
      </trkpt>
      <trkpt lat="36.776676" lon="-4.982487">
        <ele>658.820</ele>
        <time>2021-09-19T11:04:55Z</time>
      </trkpt>
      <trkpt lat="36.776650" lon="-4.982495">
        <ele>659.008</ele>
        <time>2021-09-19T11:04:56Z</time>
      </trkpt>
      <trkpt lat="36.776545" lon="-4.982498">
        <ele>660.087</ele>
        <time>2021-09-19T11:05:00Z</time>
      </trkpt>
      <trkpt lat="36.776489" lon="-4.982492">
        <ele>660.033</ele>
        <time>2021-09-19T11:05:02Z</time>
      </trkpt>
      <trkpt lat="36.776303" lon="-4.982441">
        <ele>660.671</ele>
        <time>2021-09-19T11:05:09Z</time>
      </trkpt>
      <trkpt lat="36.776153" lon="-4.982342">
        <ele>661.283</ele>
        <time>2021-09-19T11:05:15Z</time>
      </trkpt>
      <trkpt lat="36.776129" lon="-4.982323">
        <ele>661.076</ele>
        <time>2021-09-19T11:05:16Z</time>
      </trkpt>
      <trkpt lat="36.775989" lon="-4.982277">
        <ele>661.662</ele>
        <time>2021-09-19T11:05:21Z</time>
      </trkpt>
      <trkpt lat="36.775933" lon="-4.982310">
        <ele>661.895</ele>
        <time>2021-09-19T11:05:23Z</time>
      </trkpt>
      <trkpt lat="36.775917" lon="-4.982339">
        <ele>661.872</ele>
        <time>2021-09-19T11:05:24Z</time>
      </trkpt>
      <trkpt lat="36.775906" lon="-4.982370">
        <ele>662.033</ele>
        <time>2021-09-19T11:05:25Z</time>
      </trkpt>
      <trkpt lat="36.775908" lon="-4.982453">
        <ele>662.223</ele>
        <time>2021-09-19T11:05:28Z</time>
      </trkpt>
      <trkpt lat="36.775939" lon="-4.982548">
        <ele>662.615</ele>
        <time>2021-09-19T11:05:32Z</time>
      </trkpt>
      <trkpt lat="36.775954" lon="-4.982599">
        <ele>663.008</ele>
        <time>2021-09-19T11:05:34Z</time>
      </trkpt>
      <trkpt lat="36.775995" lon="-4.982705">
        <ele>663.861</ele>
        <time>2021-09-19T11:05:38Z</time>
      </trkpt>
      <trkpt lat="36.776062" lon="-4.982868">
        <ele>665.027</ele>
        <time>2021-09-19T11:05:44Z</time>
      </trkpt>
      <trkpt lat="36.776140" lon="-4.982979">
        <ele>666.085</ele>
        <time>2021-09-19T11:05:49Z</time>
      </trkpt>
      <trkpt lat="36.776154" lon="-4.983002">
        <ele>666.277</ele>
        <time>2021-09-19T11:05:50Z</time>
      </trkpt>
      <trkpt lat="36.776252" lon="-4.983159">
        <ele>667.230</ele>
        <time>2021-09-19T11:05:56Z</time>
      </trkpt>
      <trkpt lat="36.776323" lon="-4.983304">
        <ele>668.276</ele>
        <time>2021-09-19T11:06:01Z</time>
      </trkpt>
      <trkpt lat="36.776337" lon="-4.983329">
        <ele>668.429</ele>
        <time>2021-09-19T11:06:02Z</time>
      </trkpt>
      <trkpt lat="36.776410" lon="-4.983423">
        <ele>669.446</ele>
        <time>2021-09-19T11:06:06Z</time>
      </trkpt>
      <trkpt lat="36.776435" lon="-4.983443">
        <ele>669.433</ele>
        <time>2021-09-19T11:06:07Z</time>
      </trkpt>
      <trkpt lat="36.776493" lon="-4.983511">
        <ele>670.023</ele>
        <time>2021-09-19T11:06:10Z</time>
      </trkpt>
      <trkpt lat="36.776541" lon="-4.983579">
        <ele>670.415</ele>
        <time>2021-09-19T11:06:13Z</time>
      </trkpt>
      <trkpt lat="36.776613" lon="-4.983684">
        <ele>671.408</ele>
        <time>2021-09-19T11:06:18Z</time>
      </trkpt>
      <trkpt lat="36.776618" lon="-4.983693">
        <ele>671.831</ele>
        <time>2021-09-19T11:06:19Z</time>
      </trkpt>
      <trkpt lat="36.776638" lon="-4.983718">
        <ele>673.077</ele>
        <time>2021-09-19T11:06:47Z</time>
      </trkpt>
      <trkpt lat="36.776678" lon="-4.983760">
        <ele>673.025</ele>
        <time>2021-09-19T11:06:50Z</time>
      </trkpt>
      <trkpt lat="36.776709" lon="-4.983804">
        <ele>673.097</ele>
        <time>2021-09-19T11:06:52Z</time>
      </trkpt>
      <trkpt lat="36.776742" lon="-4.983849">
        <ele>673.290</ele>
        <time>2021-09-19T11:06:54Z</time>
      </trkpt>
      <trkpt lat="36.776795" lon="-4.983953">
        <ele>673.286</ele>
        <time>2021-09-19T11:06:58Z</time>
      </trkpt>
      <trkpt lat="36.776820" lon="-4.984044">
        <ele>674.469</ele>
        <time>2021-09-19T11:07:01Z</time>
      </trkpt>
      <trkpt lat="36.776804" lon="-4.984144">
        <ele>674.636</ele>
        <time>2021-09-19T11:07:04Z</time>
      </trkpt>
      <trkpt lat="36.776715" lon="-4.984239">
        <ele>675.628</ele>
        <time>2021-09-19T11:07:08Z</time>
      </trkpt>
      <trkpt lat="36.776686" lon="-4.984254">
        <ele>675.889</ele>
        <time>2021-09-19T11:07:09Z</time>
      </trkpt>
      <trkpt lat="36.776480" lon="-4.984303">
        <ele>676.017</ele>
        <time>2021-09-19T11:07:14Z</time>
      </trkpt>
      <trkpt lat="36.776274" lon="-4.984444">
        <ele>676.008</ele>
        <time>2021-09-19T11:07:18Z</time>
      </trkpt>
      <trkpt lat="36.776046" lon="-4.984595">
        <ele>675.460</ele>
        <time>2021-09-19T11:07:22Z</time>
      </trkpt>
      <trkpt lat="36.775979" lon="-4.984610">
        <ele>675.236</ele>
        <time>2021-09-19T11:07:23Z</time>
      </trkpt>
      <trkpt lat="36.775907" lon="-4.984604">
        <ele>674.614</ele>
        <time>2021-09-19T11:07:24Z</time>
      </trkpt>
      <trkpt lat="36.775747" lon="-4.984562">
        <ele>673.866</ele>
        <time>2021-09-19T11:07:26Z</time>
      </trkpt>
      <trkpt lat="36.775661" lon="-4.984540">
        <ele>673.629</ele>
        <time>2021-09-19T11:07:27Z</time>
      </trkpt>
      <trkpt lat="36.775470" lon="-4.984508">
        <ele>672.815</ele>
        <time>2021-09-19T11:07:29Z</time>
      </trkpt>
      <trkpt lat="36.775375" lon="-4.984483">
        <ele>672.488</ele>
        <time>2021-09-19T11:07:30Z</time>
      </trkpt>
      <trkpt lat="36.775120" lon="-4.984348">
        <ele>671.055</ele>
        <time>2021-09-19T11:07:33Z</time>
      </trkpt>
      <trkpt lat="36.775051" lon="-4.984294">
        <ele>670.684</ele>
        <time>2021-09-19T11:07:34Z</time>
      </trkpt>
      <trkpt lat="36.774991" lon="-4.984242">
        <ele>670.207</ele>
        <time>2021-09-19T11:07:35Z</time>
      </trkpt>
      <trkpt lat="36.774936" lon="-4.984198">
        <ele>669.817</ele>
        <time>2021-09-19T11:07:36Z</time>
      </trkpt>
      <trkpt lat="36.774878" lon="-4.984165">
        <ele>669.608</ele>
        <time>2021-09-19T11:07:37Z</time>
      </trkpt>
      <trkpt lat="36.774815" lon="-4.984147">
        <ele>669.226</ele>
        <time>2021-09-19T11:07:38Z</time>
      </trkpt>
      <trkpt lat="36.774745" lon="-4.984152">
        <ele>668.282</ele>
        <time>2021-09-19T11:07:39Z</time>
      </trkpt>
      <trkpt lat="36.774587" lon="-4.984214">
        <ele>666.850</ele>
        <time>2021-09-19T11:07:41Z</time>
      </trkpt>
      <trkpt lat="36.774507" lon="-4.984233">
        <ele>665.622</ele>
        <time>2021-09-19T11:07:42Z</time>
      </trkpt>
      <trkpt lat="36.774426" lon="-4.984243">
        <ele>664.495</ele>
        <time>2021-09-19T11:07:43Z</time>
      </trkpt>
      <trkpt lat="36.774255" lon="-4.984246">
        <ele>663.261</ele>
        <time>2021-09-19T11:07:45Z</time>
      </trkpt>
      <trkpt lat="36.774100" lon="-4.984231">
        <ele>661.634</ele>
        <time>2021-09-19T11:07:47Z</time>
      </trkpt>
      <trkpt lat="36.774036" lon="-4.984230">
        <ele>660.851</ele>
        <time>2021-09-19T11:07:48Z</time>
      </trkpt>
      <trkpt lat="36.773990" lon="-4.984262">
        <ele>660.427</ele>
        <time>2021-09-19T11:07:49Z</time>
      </trkpt>
      <trkpt lat="36.773972" lon="-4.984358">
        <ele>659.468</ele>
        <time>2021-09-19T11:07:51Z</time>
      </trkpt>
      <trkpt lat="36.774085" lon="-4.984506">
        <ele>658.214</ele>
        <time>2021-09-19T11:07:55Z</time>
      </trkpt>
      <trkpt lat="36.774162" lon="-4.984548">
        <ele>657.808</ele>
        <time>2021-09-19T11:07:57Z</time>
      </trkpt>
      <trkpt lat="36.774299" lon="-4.984643">
        <ele>657.480</ele>
        <time>2021-09-19T11:08:01Z</time>
      </trkpt>
      <trkpt lat="36.774400" lon="-4.984708">
        <ele>657.456</ele>
        <time>2021-09-19T11:08:04Z</time>
      </trkpt>
      <trkpt lat="36.774465" lon="-4.984759">
        <ele>657.634</ele>
        <time>2021-09-19T11:08:06Z</time>
      </trkpt>
      <trkpt lat="36.774544" lon="-4.984856">
        <ele>658.036</ele>
        <time>2021-09-19T11:08:09Z</time>
      </trkpt>
      <trkpt lat="36.774584" lon="-4.984929">
        <ele>658.299</ele>
        <time>2021-09-19T11:08:11Z</time>
      </trkpt>
      <trkpt lat="36.774642" lon="-4.985047">
        <ele>658.835</ele>
        <time>2021-09-19T11:08:14Z</time>
      </trkpt>
      <trkpt lat="36.774682" lon="-4.985119">
        <ele>659.278</ele>
        <time>2021-09-19T11:08:16Z</time>
      </trkpt>
      <trkpt lat="36.774702" lon="-4.985154">
        <ele>659.475</ele>
        <time>2021-09-19T11:08:17Z</time>
      </trkpt>
      <trkpt lat="36.774763" lon="-4.985252">
        <ele>659.664</ele>
        <time>2021-09-19T11:08:20Z</time>
      </trkpt>
      <trkpt lat="36.774821" lon="-4.985368">
        <ele>660.006</ele>
        <time>2021-09-19T11:08:23Z</time>
      </trkpt>
      <trkpt lat="36.774836" lon="-4.985405">
        <ele>660.016</ele>
        <time>2021-09-19T11:08:24Z</time>
      </trkpt>
      <trkpt lat="36.774875" lon="-4.985559">
        <ele>661.008</ele>
        <time>2021-09-19T11:08:28Z</time>
      </trkpt>
      <trkpt lat="36.774880" lon="-4.985600">
        <ele>661.294</ele>
        <time>2021-09-19T11:08:29Z</time>
      </trkpt>
      <trkpt lat="36.774910" lon="-4.985823">
        <ele>662.060</ele>
        <time>2021-09-19T11:08:35Z</time>
      </trkpt>
      <trkpt lat="36.774923" lon="-4.985880">
        <ele>662.278</ele>
        <time>2021-09-19T11:08:37Z</time>
      </trkpt>
      <trkpt lat="36.774965" lon="-4.986005">
        <ele>663.020</ele>
        <time>2021-09-19T11:08:41Z</time>
      </trkpt>
      <trkpt lat="36.774993" lon="-4.986071">
        <ele>663.213</ele>
        <time>2021-09-19T11:08:43Z</time>
      </trkpt>
      <trkpt lat="36.775037" lon="-4.986208">
        <ele>664.239</ele>
        <time>2021-09-19T11:08:47Z</time>
      </trkpt>
      <trkpt lat="36.775039" lon="-4.986252">
        <ele>664.422</ele>
        <time>2021-09-19T11:08:48Z</time>
      </trkpt>
      <trkpt lat="36.774996" lon="-4.986417">
        <ele>665.489</ele>
        <time>2021-09-19T11:08:52Z</time>
      </trkpt>
      <trkpt lat="36.774899" lon="-4.986623">
        <ele>666.682</ele>
        <time>2021-09-19T11:08:57Z</time>
      </trkpt>
      <trkpt lat="36.774875" lon="-4.986665">
        <ele>666.643</ele>
        <time>2021-09-19T11:08:58Z</time>
      </trkpt>
      <trkpt lat="36.774658" lon="-4.987011">
        <ele>667.017</ele>
        <time>2021-09-19T11:09:06Z</time>
      </trkpt>
      <trkpt lat="36.774496" lon="-4.987318">
        <ele>667.008</ele>
        <time>2021-09-19T11:09:12Z</time>
      </trkpt>
      <trkpt lat="36.774438" lon="-4.987607">
        <ele>667.096</ele>
        <time>2021-09-19T11:09:17Z</time>
      </trkpt>
      <trkpt lat="36.774423" lon="-4.987732">
        <ele>667.022</ele>
        <time>2021-09-19T11:09:21Z</time>
      </trkpt>
      <trkpt lat="36.774396" lon="-4.987901">
        <ele>666.860</ele>
        <time>2021-09-19T11:09:26Z</time>
      </trkpt>
      <trkpt lat="36.774385" lon="-4.987941">
        <ele>666.852</ele>
        <time>2021-09-19T11:09:27Z</time>
      </trkpt>
      <trkpt lat="36.774335" lon="-4.988085">
        <ele>666.845</ele>
        <time>2021-09-19T11:09:30Z</time>
      </trkpt>
      <trkpt lat="36.774290" lon="-4.988191">
        <ele>666.681</ele>
        <time>2021-09-19T11:09:32Z</time>
      </trkpt>
      <trkpt lat="36.774245" lon="-4.988311">
        <ele>666.634</ele>
        <time>2021-09-19T11:09:34Z</time>
      </trkpt>
      <trkpt lat="36.774226" lon="-4.988377">
        <ele>666.651</ele>
        <time>2021-09-19T11:09:35Z</time>
      </trkpt>
      <trkpt lat="36.774211" lon="-4.988450">
        <ele>666.678</ele>
        <time>2021-09-19T11:09:36Z</time>
      </trkpt>
      <trkpt lat="36.774197" lon="-4.988527">
        <ele>666.633</ele>
        <time>2021-09-19T11:09:37Z</time>
      </trkpt>
      <trkpt lat="36.774162" lon="-4.988680">
        <ele>666.426</ele>
        <time>2021-09-19T11:09:39Z</time>
      </trkpt>
      <trkpt lat="36.774066" lon="-4.988987">
        <ele>665.408</ele>
        <time>2021-09-19T11:09:43Z</time>
      </trkpt>
      <trkpt lat="36.773978" lon="-4.989249">
        <ele>665.295</ele>
        <time>2021-09-19T11:09:46Z</time>
      </trkpt>
      <trkpt lat="36.773939" lon="-4.989333">
        <ele>664.821</ele>
        <time>2021-09-19T11:09:47Z</time>
      </trkpt>
      <trkpt lat="36.773851" lon="-4.989491">
        <ele>664.279</ele>
        <time>2021-09-19T11:09:49Z</time>
      </trkpt>
      <trkpt lat="36.773681" lon="-4.989727">
        <ele>663.851</ele>
        <time>2021-09-19T11:09:52Z</time>
      </trkpt>
      <trkpt lat="36.773622" lon="-4.989815">
        <ele>663.284</ele>
        <time>2021-09-19T11:09:53Z</time>
      </trkpt>
      <trkpt lat="36.773462" lon="-4.990095">
        <ele>662.480</ele>
        <time>2021-09-19T11:09:56Z</time>
      </trkpt>
      <trkpt lat="36.773347" lon="-4.990240">
        <ele>662.253</ele>
        <time>2021-09-19T11:09:58Z</time>
      </trkpt>
      <trkpt lat="36.773275" lon="-4.990289">
        <ele>662.240</ele>
        <time>2021-09-19T11:09:59Z</time>
      </trkpt>
      <trkpt lat="36.773199" lon="-4.990320">
        <ele>661.874</ele>
        <time>2021-09-19T11:10:00Z</time>
      </trkpt>
      <trkpt lat="36.773044" lon="-4.990342">
        <ele>660.856</ele>
        <time>2021-09-19T11:10:02Z</time>
      </trkpt>
      <trkpt lat="36.772972" lon="-4.990345">
        <ele>660.221</ele>
        <time>2021-09-19T11:10:03Z</time>
      </trkpt>
      <trkpt lat="36.772907" lon="-4.990348">
        <ele>659.608</ele>
        <time>2021-09-19T11:10:04Z</time>
      </trkpt>
      <trkpt lat="36.772847" lon="-4.990363">
        <ele>658.255</ele>
        <time>2021-09-19T11:10:05Z</time>
      </trkpt>
      <trkpt lat="36.772796" lon="-4.990398">
        <ele>657.421</ele>
        <time>2021-09-19T11:10:06Z</time>
      </trkpt>
      <trkpt lat="36.772761" lon="-4.990461">
        <ele>657.039</ele>
        <time>2021-09-19T11:10:07Z</time>
      </trkpt>
      <trkpt lat="36.772752" lon="-4.990525">
        <ele>656.691</ele>
        <time>2021-09-19T11:10:08Z</time>
      </trkpt>
      <trkpt lat="36.772750" lon="-4.990678">
        <ele>656.024</ele>
        <time>2021-09-19T11:10:10Z</time>
      </trkpt>
      <trkpt lat="36.772748" lon="-4.990749">
        <ele>655.670</ele>
        <time>2021-09-19T11:10:11Z</time>
      </trkpt>
      <trkpt lat="36.772735" lon="-4.990826">
        <ele>655.233</ele>
        <time>2021-09-19T11:10:12Z</time>
      </trkpt>
      <trkpt lat="36.772718" lon="-4.990887">
        <ele>654.470</ele>
        <time>2021-09-19T11:10:13Z</time>
      </trkpt>
      <trkpt lat="36.772653" lon="-4.991039">
        <ele>653.011</ele>
        <time>2021-09-19T11:10:15Z</time>
      </trkpt>
      <trkpt lat="36.772623" lon="-4.991123">
        <ele>652.821</ele>
        <time>2021-09-19T11:10:16Z</time>
      </trkpt>
      <trkpt lat="36.772562" lon="-4.991346">
        <ele>651.803</ele>
        <time>2021-09-19T11:10:19Z</time>
      </trkpt>
      <trkpt lat="36.772555" lon="-4.991411">
        <ele>651.208</ele>
        <time>2021-09-19T11:10:20Z</time>
      </trkpt>
      <trkpt lat="36.772536" lon="-4.991519">
        <ele>650.889</ele>
        <time>2021-09-19T11:10:22Z</time>
      </trkpt>
      <trkpt lat="36.772529" lon="-4.991614">
        <ele>650.625</ele>
        <time>2021-09-19T11:10:24Z</time>
      </trkpt>
      <trkpt lat="36.772531" lon="-4.991653">
        <ele>650.643</ele>
        <time>2021-09-19T11:10:25Z</time>
      </trkpt>
      <trkpt lat="36.772550" lon="-4.991784">
        <ele>650.665</ele>
        <time>2021-09-19T11:10:29Z</time>
      </trkpt>
      <trkpt lat="36.772569" lon="-4.991847">
        <ele>651.468</ele>
        <time>2021-09-19T11:10:33Z</time>
      </trkpt>
      <trkpt lat="36.772509" lon="-4.991887">
        <ele>652.654</ele>
        <time>2021-09-19T11:11:43Z</time>
      </trkpt>
      <trkpt lat="36.772460" lon="-4.991999">
        <ele>652.667</ele>
        <time>2021-09-19T11:11:47Z</time>
      </trkpt>
      <trkpt lat="36.772453" lon="-4.992064">
        <ele>652.684</ele>
        <time>2021-09-19T11:11:49Z</time>
      </trkpt>
      <trkpt lat="36.772457" lon="-4.992162">
        <ele>652.676</ele>
        <time>2021-09-19T11:11:52Z</time>
      </trkpt>
      <trkpt lat="36.772453" lon="-4.992284">
        <ele>652.890</ele>
        <time>2021-09-19T11:11:56Z</time>
      </trkpt>
      <trkpt lat="36.772450" lon="-4.992345">
        <ele>653.019</ele>
        <time>2021-09-19T11:11:58Z</time>
      </trkpt>
      <trkpt lat="36.772440" lon="-4.992446">
        <ele>653.608</ele>
        <time>2021-09-19T11:12:01Z</time>
      </trkpt>
      <trkpt lat="36.772439" lon="-4.992522">
        <ele>654.025</ele>
        <time>2021-09-19T11:12:03Z</time>
      </trkpt>
      <trkpt lat="36.772435" lon="-4.992641">
        <ele>654.661</ele>
        <time>2021-09-19T11:12:06Z</time>
      </trkpt>
      <trkpt lat="36.772433" lon="-4.992681">
        <ele>654.849</ele>
        <time>2021-09-19T11:12:07Z</time>
      </trkpt>
      <trkpt lat="36.772433" lon="-4.992801">
        <ele>655.061</ele>
        <time>2021-09-19T11:12:10Z</time>
      </trkpt>
      <trkpt lat="36.772436" lon="-4.992909">
        <ele>655.644</ele>
        <time>2021-09-19T11:12:13Z</time>
      </trkpt>
      <trkpt lat="36.772436" lon="-4.992945">
        <ele>655.830</ele>
        <time>2021-09-19T11:12:14Z</time>
      </trkpt>
      <trkpt lat="36.772430" lon="-4.993100">
        <ele>656.613</ele>
        <time>2021-09-19T11:12:18Z</time>
      </trkpt>
      <trkpt lat="36.772433" lon="-4.993178">
        <ele>657.080</ele>
        <time>2021-09-19T11:12:20Z</time>
      </trkpt>
      <trkpt lat="36.772477" lon="-4.993481">
        <ele>657.834</ele>
        <time>2021-09-19T11:12:28Z</time>
      </trkpt>
      <trkpt lat="36.772490" lon="-4.993526">
        <ele>658.055</ele>
        <time>2021-09-19T11:12:29Z</time>
      </trkpt>
      <trkpt lat="36.772533" lon="-4.993677">
        <ele>658.210</ele>
        <time>2021-09-19T11:12:32Z</time>
      </trkpt>
      <trkpt lat="36.772552" lon="-4.993730">
        <ele>658.208</ele>
        <time>2021-09-19T11:12:33Z</time>
      </trkpt>
      <trkpt lat="36.772629" lon="-4.993870">
        <ele>658.261</ele>
        <time>2021-09-19T11:12:36Z</time>
      </trkpt>
      <trkpt lat="36.772721" lon="-4.993977">
        <ele>658.237</ele>
        <time>2021-09-19T11:12:39Z</time>
      </trkpt>
      <trkpt lat="36.772797" lon="-4.994030">
        <ele>658.025</ele>
        <time>2021-09-19T11:12:41Z</time>
      </trkpt>
      <trkpt lat="36.772922" lon="-4.994083">
        <ele>657.697</ele>
        <time>2021-09-19T11:12:44Z</time>
      </trkpt>
      <trkpt lat="36.773000" lon="-4.994139">
        <ele>657.640</ele>
        <time>2021-09-19T11:12:46Z</time>
      </trkpt>
      <trkpt lat="36.773101" lon="-4.994282">
        <ele>657.616</ele>
        <time>2021-09-19T11:12:50Z</time>
      </trkpt>
      <trkpt lat="36.773109" lon="-4.994456">
        <ele>657.679</ele>
        <time>2021-09-19T11:12:54Z</time>
      </trkpt>
      <trkpt lat="36.773025" lon="-4.994677">
        <ele>658.076</ele>
        <time>2021-09-19T11:13:00Z</time>
      </trkpt>
      <trkpt lat="36.772866" lon="-4.994890">
        <ele>658.863</ele>
        <time>2021-09-19T11:13:07Z</time>
      </trkpt>
      <trkpt lat="36.772704" lon="-4.995086">
        <ele>658.844</ele>
        <time>2021-09-19T11:13:13Z</time>
      </trkpt>
      <trkpt lat="36.772592" lon="-4.995210">
        <ele>659.018</ele>
        <time>2021-09-19T11:13:17Z</time>
      </trkpt>
      <trkpt lat="36.772482" lon="-4.995338">
        <ele>659.408</ele>
        <time>2021-09-19T11:13:21Z</time>
      </trkpt>
      <trkpt lat="36.772409" lon="-4.995431">
        <ele>660.094</ele>
        <time>2021-09-19T11:13:24Z</time>
      </trkpt>
      <trkpt lat="36.772323" lon="-4.995551">
        <ele>660.470</ele>
        <time>2021-09-19T11:13:28Z</time>
      </trkpt>
      <trkpt lat="36.772223" lon="-4.995799">
        <ele>661.028</ele>
        <time>2021-09-19T11:13:35Z</time>
      </trkpt>
      <trkpt lat="36.772209" lon="-4.995833">
        <ele>661.030</ele>
        <time>2021-09-19T11:13:36Z</time>
      </trkpt>
      <trkpt lat="36.772132" lon="-4.996092">
        <ele>662.063</ele>
        <time>2021-09-19T11:13:43Z</time>
      </trkpt>
      <trkpt lat="36.772110" lon="-4.996388">
        <ele>663.069</ele>
        <time>2021-09-19T11:13:51Z</time>
      </trkpt>
      <trkpt lat="36.772138" lon="-4.996586">
        <ele>664.272</ele>
        <time>2021-09-19T11:13:57Z</time>
      </trkpt>
      <trkpt lat="36.772143" lon="-4.996765">
        <ele>665.249</ele>
        <time>2021-09-19T11:14:02Z</time>
      </trkpt>
      <trkpt lat="36.772144" lon="-4.996806">
        <ele>665.222</ele>
        <time>2021-09-19T11:14:03Z</time>
      </trkpt>
      <trkpt lat="36.772139" lon="-4.996996">
        <ele>665.662</ele>
        <time>2021-09-19T11:14:07Z</time>
      </trkpt>
      <trkpt lat="36.772132" lon="-4.997051">
        <ele>665.608</ele>
        <time>2021-09-19T11:14:08Z</time>
      </trkpt>
      <trkpt lat="36.772084" lon="-4.997296">
        <ele>665.608</ele>
        <time>2021-09-19T11:14:12Z</time>
      </trkpt>
      <trkpt lat="36.772057" lon="-4.997360">
        <ele>665.680</ele>
        <time>2021-09-19T11:14:13Z</time>
      </trkpt>
      <trkpt lat="36.771880" lon="-4.997589">
        <ele>665.446</ele>
        <time>2021-09-19T11:14:17Z</time>
      </trkpt>
      <trkpt lat="36.771700" lon="-4.997743">
        <ele>665.234</ele>
        <time>2021-09-19T11:14:20Z</time>
      </trkpt>
      <trkpt lat="36.771578" lon="-4.997858">
        <ele>664.466</ele>
        <time>2021-09-19T11:14:22Z</time>
      </trkpt>
      <trkpt lat="36.771461" lon="-4.997944">
        <ele>663.689</ele>
        <time>2021-09-19T11:14:24Z</time>
      </trkpt>
      <trkpt lat="36.771333" lon="-4.997972">
        <ele>662.835</ele>
        <time>2021-09-19T11:14:26Z</time>
      </trkpt>
      <trkpt lat="36.771260" lon="-4.997962">
        <ele>662.468</ele>
        <time>2021-09-19T11:14:27Z</time>
      </trkpt>
      <trkpt lat="36.771180" lon="-4.997951">
        <ele>662.025</ele>
        <time>2021-09-19T11:14:28Z</time>
      </trkpt>
      <trkpt lat="36.771098" lon="-4.997950">
        <ele>661.666</ele>
        <time>2021-09-19T11:14:29Z</time>
      </trkpt>
      <trkpt lat="36.770923" lon="-4.997970">
        <ele>661.029</ele>
        <time>2021-09-19T11:14:31Z</time>
      </trkpt>
      <trkpt lat="36.770745" lon="-4.998017">
        <ele>660.221</ele>
        <time>2021-09-19T11:14:33Z</time>
      </trkpt>
      <trkpt lat="36.770653" lon="-4.998040">
        <ele>659.408</ele>
        <time>2021-09-19T11:14:34Z</time>
      </trkpt>
      <trkpt lat="36.770476" lon="-4.998086">
        <ele>657.854</ele>
        <time>2021-09-19T11:14:36Z</time>
      </trkpt>
      <trkpt lat="36.770391" lon="-4.998092">
        <ele>657.490</ele>
        <time>2021-09-19T11:14:37Z</time>
      </trkpt>
      <trkpt lat="36.770300" lon="-4.998094">
        <ele>657.218</ele>
        <time>2021-09-19T11:14:38Z</time>
      </trkpt>
      <trkpt lat="36.770206" lon="-4.998087">
        <ele>657.030</ele>
        <time>2021-09-19T11:14:39Z</time>
      </trkpt>
      <trkpt lat="36.770111" lon="-4.998078">
        <ele>656.833</ele>
        <time>2021-09-19T11:14:40Z</time>
      </trkpt>
      <trkpt lat="36.769918" lon="-4.998062">
        <ele>655.499</ele>
        <time>2021-09-19T11:14:42Z</time>
      </trkpt>
      <trkpt lat="36.769830" lon="-4.998071">
        <ele>654.642</ele>
        <time>2021-09-19T11:14:43Z</time>
      </trkpt>
      <trkpt lat="36.769740" lon="-4.998090">
        <ele>653.619</ele>
        <time>2021-09-19T11:14:44Z</time>
      </trkpt>
      <trkpt lat="36.769653" lon="-4.998124">
        <ele>653.223</ele>
        <time>2021-09-19T11:14:45Z</time>
      </trkpt>
      <trkpt lat="36.769570" lon="-4.998166">
        <ele>652.683</ele>
        <time>2021-09-19T11:14:46Z</time>
      </trkpt>
      <trkpt lat="36.769417" lon="-4.998288">
        <ele>652.011</ele>
        <time>2021-09-19T11:14:48Z</time>
      </trkpt>
      <trkpt lat="36.769345" lon="-4.998352">
        <ele>651.608</ele>
        <time>2021-09-19T11:14:49Z</time>
      </trkpt>
      <trkpt lat="36.769150" lon="-4.998538">
        <ele>650.490</ele>
        <time>2021-09-19T11:14:52Z</time>
      </trkpt>
      <trkpt lat="36.769102" lon="-4.998603">
        <ele>649.886</ele>
        <time>2021-09-19T11:14:53Z</time>
      </trkpt>
      <trkpt lat="36.769063" lon="-4.998669">
        <ele>649.254</ele>
        <time>2021-09-19T11:14:54Z</time>
      </trkpt>
      <trkpt lat="36.768992" lon="-4.998860">
        <ele>648.216</ele>
        <time>2021-09-19T11:14:57Z</time>
      </trkpt>
      <trkpt lat="36.768962" lon="-4.998969">
        <ele>647.879</ele>
        <time>2021-09-19T11:14:59Z</time>
      </trkpt>
      <trkpt lat="36.768911" lon="-4.999142">
        <ele>647.475</ele>
        <time>2021-09-19T11:15:03Z</time>
      </trkpt>
      <trkpt lat="36.768863" lon="-4.999411">
        <ele>648.278</ele>
        <time>2021-09-19T11:15:10Z</time>
      </trkpt>
      <trkpt lat="36.768872" lon="-4.999487">
        <ele>648.435</ele>
        <time>2021-09-19T11:15:12Z</time>
      </trkpt>
      <trkpt lat="36.768874" lon="-4.999562">
        <ele>648.615</ele>
        <time>2021-09-19T11:15:14Z</time>
      </trkpt>
      <trkpt lat="36.768864" lon="-4.999665">
        <ele>649.265</ele>
        <time>2021-09-19T11:15:17Z</time>
      </trkpt>
      <trkpt lat="36.768810" lon="-4.999771">
        <ele>649.811</ele>
        <time>2021-09-19T11:15:20Z</time>
      </trkpt>
      <trkpt lat="36.768749" lon="-4.999815">
        <ele>650.408</ele>
        <time>2021-09-19T11:15:22Z</time>
      </trkpt>
      <trkpt lat="36.768622" lon="-4.999888">
        <ele>651.049</ele>
        <time>2021-09-19T11:15:25Z</time>
      </trkpt>
      <trkpt lat="36.768516" lon="-4.999927">
        <ele>651.275</ele>
        <time>2021-09-19T11:15:27Z</time>
      </trkpt>
      <trkpt lat="36.768462" lon="-4.999940">
        <ele>651.423</ele>
        <time>2021-09-19T11:15:28Z</time>
      </trkpt>
      <trkpt lat="36.768231" lon="-5.000012">
        <ele>651.475</ele>
        <time>2021-09-19T11:15:32Z</time>
      </trkpt>
      <trkpt lat="36.768048" lon="-5.000090">
        <ele>650.888</ele>
        <time>2021-09-19T11:15:35Z</time>
      </trkpt>
      <trkpt lat="36.767938" lon="-5.000161">
        <ele>650.684</ele>
        <time>2021-09-19T11:15:37Z</time>
      </trkpt>
      <trkpt lat="36.767704" lon="-5.000308">
        <ele>650.057</ele>
        <time>2021-09-19T11:15:41Z</time>
      </trkpt>
      <trkpt lat="36.767652" lon="-5.000353">
        <ele>649.854</ele>
        <time>2021-09-19T11:15:42Z</time>
      </trkpt>
      <trkpt lat="36.767602" lon="-5.000396">
        <ele>649.654</ele>
        <time>2021-09-19T11:15:43Z</time>
      </trkpt>
      <trkpt lat="36.767384" lon="-5.000577">
        <ele>649.256</ele>
        <time>2021-09-19T11:15:48Z</time>
      </trkpt>
      <trkpt lat="36.767234" lon="-5.000718">
        <ele>649.211</ele>
        <time>2021-09-19T11:15:53Z</time>
      </trkpt>
      <trkpt lat="36.767108" lon="-5.000815">
        <ele>649.608</ele>
        <time>2021-09-19T11:15:58Z</time>
      </trkpt>
      <trkpt lat="36.766997" lon="-5.000898">
        <ele>650.823</ele>
        <time>2021-09-19T11:16:02Z</time>
      </trkpt>
      <trkpt lat="36.766981" lon="-5.000930">
        <ele>651.279</ele>
        <time>2021-09-19T11:16:03Z</time>
      </trkpt>
      <trkpt lat="36.766943" lon="-5.001061">
        <ele>652.057</ele>
        <time>2021-09-19T11:16:07Z</time>
      </trkpt>
      <trkpt lat="36.766925" lon="-5.001111">
        <ele>652.449</ele>
        <time>2021-09-19T11:16:09Z</time>
      </trkpt>
      <trkpt lat="36.766867" lon="-5.001217">
        <ele>653.282</ele>
        <time>2021-09-19T11:16:13Z</time>
      </trkpt>
      <trkpt lat="36.766850" lon="-5.001244">
        <ele>653.638</ele>
        <time>2021-09-19T11:16:14Z</time>
      </trkpt>
      <trkpt lat="36.766790" lon="-5.001310">
        <ele>654.691</ele>
        <time>2021-09-19T11:16:17Z</time>
      </trkpt>
      <trkpt lat="36.766721" lon="-5.001363">
        <ele>655.658</ele>
        <time>2021-09-19T11:16:20Z</time>
      </trkpt>
      <trkpt lat="36.766699" lon="-5.001380">
        <ele>655.895</ele>
        <time>2021-09-19T11:16:21Z</time>
      </trkpt>
      <trkpt lat="36.766572" lon="-5.001457">
        <ele>657.049</ele>
        <time>2021-09-19T11:16:26Z</time>
      </trkpt>
      <trkpt lat="36.766545" lon="-5.001473">
        <ele>657.423</ele>
        <time>2021-09-19T11:16:27Z</time>
      </trkpt>
      <trkpt lat="36.766487" lon="-5.001503">
        <ele>658.008</ele>
        <time>2021-09-19T11:16:29Z</time>
      </trkpt>
      <trkpt lat="36.766407" lon="-5.001588">
        <ele>658.687</ele>
        <time>2021-09-19T11:16:33Z</time>
      </trkpt>
      <trkpt lat="36.766391" lon="-5.001647">
        <ele>658.833</ele>
        <time>2021-09-19T11:16:35Z</time>
      </trkpt>
      <trkpt lat="36.766401" lon="-5.001729">
        <ele>659.831</ele>
        <time>2021-09-19T11:16:38Z</time>
      </trkpt>
      <trkpt lat="36.766411" lon="-5.001751">
        <ele>660.013</ele>
        <time>2021-09-19T11:16:39Z</time>
      </trkpt>
      <trkpt lat="36.766446" lon="-5.001856">
        <ele>661.046</ele>
        <time>2021-09-19T11:16:43Z</time>
      </trkpt>
      <trkpt lat="36.766447" lon="-5.001887">
        <ele>661.422</ele>
        <time>2021-09-19T11:16:44Z</time>
      </trkpt>
      <trkpt lat="36.766451" lon="-5.001975">
        <ele>662.225</ele>
        <time>2021-09-19T11:16:47Z</time>
      </trkpt>
      <trkpt lat="36.766440" lon="-5.002063">
        <ele>663.222</ele>
        <time>2021-09-19T11:16:50Z</time>
      </trkpt>
      <trkpt lat="36.766437" lon="-5.002090">
        <ele>663.435</ele>
        <time>2021-09-19T11:16:51Z</time>
      </trkpt>
      <trkpt lat="36.766419" lon="-5.002202">
        <ele>664.686</ele>
        <time>2021-09-19T11:16:55Z</time>
      </trkpt>
      <trkpt lat="36.766411" lon="-5.002253">
        <ele>665.014</ele>
        <time>2021-09-19T11:16:57Z</time>
      </trkpt>
      <trkpt lat="36.766395" lon="-5.002320">
        <ele>665.608</ele>
        <time>2021-09-19T11:17:00Z</time>
      </trkpt>
      <trkpt lat="36.766373" lon="-5.002397">
        <ele>666.211</ele>
        <time>2021-09-19T11:17:03Z</time>
      </trkpt>
      <trkpt lat="36.766363" lon="-5.002453">
        <ele>666.677</ele>
        <time>2021-09-19T11:17:05Z</time>
      </trkpt>
      <trkpt lat="36.766332" lon="-5.002596">
        <ele>667.845</ele>
        <time>2021-09-19T11:17:10Z</time>
      </trkpt>
      <trkpt lat="36.766320" lon="-5.002653">
        <ele>668.057</ele>
        <time>2021-09-19T11:17:12Z</time>
      </trkpt>
      <trkpt lat="36.766300" lon="-5.002735">
        <ele>668.870</ele>
        <time>2021-09-19T11:17:15Z</time>
      </trkpt>
      <trkpt lat="36.766270" lon="-5.002842">
        <ele>669.686</ele>
        <time>2021-09-19T11:17:19Z</time>
      </trkpt>
      <trkpt lat="36.766268" lon="-5.002866">
        <ele>670.089</ele>
        <time>2021-09-19T11:17:20Z</time>
      </trkpt>
      <trkpt lat="36.766266" lon="-5.002978">
        <ele>671.026</ele>
        <time>2021-09-19T11:17:24Z</time>
      </trkpt>
      <trkpt lat="36.766266" lon="-5.003011">
        <ele>671.228</ele>
        <time>2021-09-19T11:17:25Z</time>
      </trkpt>
      <trkpt lat="36.766264" lon="-5.003126">
        <ele>672.289</ele>
        <time>2021-09-19T11:17:29Z</time>
      </trkpt>
      <trkpt lat="36.766262" lon="-5.003239">
        <ele>673.217</ele>
        <time>2021-09-19T11:17:33Z</time>
      </trkpt>
      <trkpt lat="36.766257" lon="-5.003290">
        <ele>673.608</ele>
        <time>2021-09-19T11:17:35Z</time>
      </trkpt>
      <trkpt lat="36.766251" lon="-5.003376">
        <ele>674.230</ele>
        <time>2021-09-19T11:17:38Z</time>
      </trkpt>
      <trkpt lat="36.766245" lon="-5.003446">
        <ele>675.036</ele>
        <time>2021-09-19T11:17:41Z</time>
      </trkpt>
      <trkpt lat="36.766237" lon="-5.003469">
        <ele>675.254</ele>
        <time>2021-09-19T11:17:42Z</time>
      </trkpt>
      <trkpt lat="36.766203" lon="-5.003594">
        <ele>676.056</ele>
        <time>2021-09-19T11:17:47Z</time>
      </trkpt>
      <trkpt lat="36.766180" lon="-5.003674">
        <ele>676.699</ele>
        <time>2021-09-19T11:17:50Z</time>
      </trkpt>
      <trkpt lat="36.766160" lon="-5.003750">
        <ele>677.455</ele>
        <time>2021-09-19T11:17:53Z</time>
      </trkpt>
      <trkpt lat="36.766149" lon="-5.003827">
        <ele>678.498</ele>
        <time>2021-09-19T11:17:56Z</time>
      </trkpt>
      <trkpt lat="36.766139" lon="-5.003876">
        <ele>678.885</ele>
        <time>2021-09-19T11:17:58Z</time>
      </trkpt>
      <trkpt lat="36.766122" lon="-5.003998">
        <ele>679.856</ele>
        <time>2021-09-19T11:18:03Z</time>
      </trkpt>
      <trkpt lat="36.766119" lon="-5.004024">
        <ele>680.059</ele>
        <time>2021-09-19T11:18:04Z</time>
      </trkpt>
      <trkpt lat="36.766110" lon="-5.004173">
        <ele>681.214</ele>
        <time>2021-09-19T11:18:10Z</time>
      </trkpt>
      <trkpt lat="36.766078" lon="-5.004295">
        <ele>682.208</ele>
        <time>2021-09-19T11:18:15Z</time>
      </trkpt>
      <trkpt lat="36.766027" lon="-5.004412">
        <ele>683.243</ele>
        <time>2021-09-19T11:18:20Z</time>
      </trkpt>
      <trkpt lat="36.766012" lon="-5.004431">
        <ele>683.649</ele>
        <time>2021-09-19T11:18:21Z</time>
      </trkpt>
      <trkpt lat="36.765993" lon="-5.004445">
        <ele>683.867</ele>
        <time>2021-09-19T11:18:22Z</time>
      </trkpt>
      <trkpt lat="36.765936" lon="-5.004487">
        <ele>684.419</ele>
        <time>2021-09-19T11:18:25Z</time>
      </trkpt>
      <trkpt lat="36.765869" lon="-5.004556">
        <ele>685.032</ele>
        <time>2021-09-19T11:18:29Z</time>
      </trkpt>
      <trkpt lat="36.765831" lon="-5.004584">
        <ele>685.428</ele>
        <time>2021-09-19T11:18:31Z</time>
      </trkpt>
      <trkpt lat="36.765775" lon="-5.004620">
        <ele>686.221</ele>
        <time>2021-09-19T11:18:34Z</time>
      </trkpt>
      <trkpt lat="36.765730" lon="-5.004638">
        <ele>686.688</ele>
        <time>2021-09-19T11:18:36Z</time>
      </trkpt>
      <trkpt lat="36.765614" lon="-5.004663">
        <ele>687.279</ele>
        <time>2021-09-19T11:18:41Z</time>
      </trkpt>
      <trkpt lat="36.765558" lon="-5.004632">
        <ele>687.805</ele>
        <time>2021-09-19T11:18:43Z</time>
      </trkpt>
      <trkpt lat="36.765473" lon="-5.004559">
        <ele>688.025</ele>
        <time>2021-09-19T11:18:46Z</time>
      </trkpt>
      <trkpt lat="36.765346" lon="-5.004425">
        <ele>688.408</ele>
        <time>2021-09-19T11:18:51Z</time>
      </trkpt>
      <trkpt lat="36.765231" lon="-5.004364">
        <ele>688.695</ele>
        <time>2021-09-19T11:18:54Z</time>
      </trkpt>
      <trkpt lat="36.765194" lon="-5.004375">
        <ele>688.621</ele>
        <time>2021-09-19T11:18:55Z</time>
      </trkpt>
      <trkpt lat="36.765107" lon="-5.004439">
        <ele>688.659</ele>
        <time>2021-09-19T11:18:58Z</time>
      </trkpt>
      <trkpt lat="36.765083" lon="-5.004459">
        <ele>688.671</ele>
        <time>2021-09-19T11:18:59Z</time>
      </trkpt>
      <trkpt lat="36.764947" lon="-5.004561">
        <ele>689.234</ele>
        <time>2021-09-19T11:19:05Z</time>
      </trkpt>
      <trkpt lat="36.764827" lon="-5.004629">
        <ele>690.230</ele>
        <time>2021-09-19T11:19:10Z</time>
      </trkpt>
      <trkpt lat="36.764806" lon="-5.004644">
        <ele>690.463</ele>
        <time>2021-09-19T11:19:11Z</time>
      </trkpt>
      <trkpt lat="36.764691" lon="-5.004784">
        <ele>691.280</ele>
        <time>2021-09-19T11:19:17Z</time>
      </trkpt>
      <trkpt lat="36.764671" lon="-5.004810">
        <ele>691.691</ele>
        <time>2021-09-19T11:19:18Z</time>
      </trkpt>
      <trkpt lat="36.764609" lon="-5.004923">
        <ele>692.281</ele>
        <time>2021-09-19T11:19:22Z</time>
      </trkpt>
      <trkpt lat="36.764574" lon="-5.005006">
        <ele>692.819</ele>
        <time>2021-09-19T11:19:25Z</time>
      </trkpt>
      <trkpt lat="36.764555" lon="-5.005062">
        <ele>693.408</ele>
        <time>2021-09-19T11:19:27Z</time>
      </trkpt>
      <trkpt lat="36.764498" lon="-5.005198">
        <ele>694.497</ele>
        <time>2021-09-19T11:19:32Z</time>
      </trkpt>
      <trkpt lat="36.764465" lon="-5.005342">
        <ele>695.293</ele>
        <time>2021-09-19T11:19:37Z</time>
      </trkpt>
      <trkpt lat="36.764458" lon="-5.005371">
        <ele>695.471</ele>
        <time>2021-09-19T11:19:38Z</time>
      </trkpt>
      <trkpt lat="36.764422" lon="-5.005487">
        <ele>696.693</ele>
        <time>2021-09-19T11:19:42Z</time>
      </trkpt>
      <trkpt lat="36.764413" lon="-5.005518">
        <ele>696.856</ele>
        <time>2021-09-19T11:19:43Z</time>
      </trkpt>
      <trkpt lat="36.764382" lon="-5.005607">
        <ele>697.852</ele>
        <time>2021-09-19T11:19:46Z</time>
      </trkpt>
      <trkpt lat="36.764336" lon="-5.005720">
        <ele>698.245</ele>
        <time>2021-09-19T11:19:50Z</time>
      </trkpt>
      <trkpt lat="36.764308" lon="-5.005797">
        <ele>698.892</ele>
        <time>2021-09-19T11:19:53Z</time>
      </trkpt>
      <trkpt lat="36.764261" lon="-5.005900">
        <ele>699.458</ele>
        <time>2021-09-19T11:19:57Z</time>
      </trkpt>
      <trkpt lat="36.764215" lon="-5.005968">
        <ele>699.852</ele>
        <time>2021-09-19T11:20:00Z</time>
      </trkpt>
      <trkpt lat="36.764144" lon="-5.005993">
        <ele>700.617</ele>
        <time>2021-09-19T11:20:03Z</time>
      </trkpt>
      <trkpt lat="36.764119" lon="-5.005982">
        <ele>701.008</ele>
        <time>2021-09-19T11:20:04Z</time>
      </trkpt>
      <trkpt lat="36.764013" lon="-5.005890">
        <ele>702.223</ele>
        <time>2021-09-19T11:20:08Z</time>
      </trkpt>
      <trkpt lat="36.763960" lon="-5.005813">
        <ele>702.449</ele>
        <time>2021-09-19T11:20:10Z</time>
      </trkpt>
      <trkpt lat="36.763900" lon="-5.005730">
        <ele>702.447</ele>
        <time>2021-09-19T11:20:12Z</time>
      </trkpt>
      <trkpt lat="36.763866" lon="-5.005691">
        <ele>702.449</ele>
        <time>2021-09-19T11:20:13Z</time>
      </trkpt>
      <trkpt lat="36.763657" lon="-5.005397">
        <ele>702.442</ele>
        <time>2021-09-19T11:20:19Z</time>
      </trkpt>
      <trkpt lat="36.763624" lon="-5.005343">
        <ele>702.438</ele>
        <time>2021-09-19T11:20:20Z</time>
      </trkpt>
      <trkpt lat="36.763546" lon="-5.005159">
        <ele>702.481</ele>
        <time>2021-09-19T11:20:23Z</time>
      </trkpt>
      <trkpt lat="36.763475" lon="-5.004849">
        <ele>702.248</ele>
        <time>2021-09-19T11:20:28Z</time>
      </trkpt>
      <trkpt lat="36.763457" lon="-5.004796">
        <ele>702.087</ele>
        <time>2021-09-19T11:20:29Z</time>
      </trkpt>
      <trkpt lat="36.763375" lon="-5.004667">
        <ele>702.042</ele>
        <time>2021-09-19T11:20:32Z</time>
      </trkpt>
      <trkpt lat="36.763223" lon="-5.004364">
        <ele>702.626</ele>
        <time>2021-09-19T11:20:39Z</time>
      </trkpt>
      <trkpt lat="36.763182" lon="-5.004170">
        <ele>703.808</ele>
        <time>2021-09-19T11:20:43Z</time>
      </trkpt>
      <trkpt lat="36.763175" lon="-5.004081">
        <ele>704.496</ele>
        <time>2021-09-19T11:20:45Z</time>
      </trkpt>
      <trkpt lat="36.763151" lon="-5.003962">
        <ele>705.062</ele>
        <time>2021-09-19T11:20:48Z</time>
      </trkpt>
      <trkpt lat="36.763112" lon="-5.003891">
        <ele>705.680</ele>
        <time>2021-09-19T11:20:50Z</time>
      </trkpt>
      <trkpt lat="36.763012" lon="-5.003775">
        <ele>706.282</ele>
        <time>2021-09-19T11:20:54Z</time>
      </trkpt>
      <trkpt lat="36.762936" lon="-5.003685">
        <ele>707.215</ele>
        <time>2021-09-19T11:20:57Z</time>
      </trkpt>
      <trkpt lat="36.762911" lon="-5.003654">
        <ele>707.221</ele>
        <time>2021-09-19T11:20:58Z</time>
      </trkpt>
      <trkpt lat="36.762777" lon="-5.003466">
        <ele>708.234</ele>
        <time>2021-09-19T11:21:03Z</time>
      </trkpt>
      <trkpt lat="36.762751" lon="-5.003413">
        <ele>708.251</ele>
        <time>2021-09-19T11:21:04Z</time>
      </trkpt>
      <trkpt lat="36.762627" lon="-5.003087">
        <ele>708.245</ele>
        <time>2021-09-19T11:21:09Z</time>
      </trkpt>
      <trkpt lat="36.762596" lon="-5.003021">
        <ele>708.247</ele>
        <time>2021-09-19T11:21:10Z</time>
      </trkpt>
      <trkpt lat="36.762505" lon="-5.002969">
        <ele>708.011</ele>
        <time>2021-09-19T11:21:12Z</time>
      </trkpt>
      <trkpt lat="36.762431" lon="-5.003004">
        <ele>707.008</ele>
        <time>2021-09-19T11:21:14Z</time>
      </trkpt>
      <trkpt lat="36.762400" lon="-5.003034">
        <ele>706.642</ele>
        <time>2021-09-19T11:21:15Z</time>
      </trkpt>
      <trkpt lat="36.762373" lon="-5.003065">
        <ele>706.248</ele>
        <time>2021-09-19T11:21:16Z</time>
      </trkpt>
      <trkpt lat="36.762352" lon="-5.003097">
        <ele>706.096</ele>
        <time>2021-09-19T11:21:17Z</time>
      </trkpt>
      <trkpt lat="36.762311" lon="-5.003191">
        <ele>705.828</ele>
        <time>2021-09-19T11:21:20Z</time>
      </trkpt>
      <trkpt lat="36.762288" lon="-5.003293">
        <ele>705.811</ele>
        <time>2021-09-19T11:21:23Z</time>
      </trkpt>
      <trkpt lat="36.762280" lon="-5.003405">
        <ele>705.867</ele>
        <time>2021-09-19T11:21:26Z</time>
      </trkpt>
      <trkpt lat="36.762278" lon="-5.003440">
        <ele>705.620</ele>
        <time>2021-09-19T11:21:27Z</time>
      </trkpt>
      <trkpt lat="36.762257" lon="-5.003618">
        <ele>707.067</ele>
        <time>2021-09-19T11:21:32Z</time>
      </trkpt>
      <trkpt lat="36.762237" lon="-5.003719">
        <ele>707.653</ele>
        <time>2021-09-19T11:21:35Z</time>
      </trkpt>
      <trkpt lat="36.762208" lon="-5.003817">
        <ele>708.204</ele>
        <time>2021-09-19T11:21:38Z</time>
      </trkpt>
      <trkpt lat="36.762173" lon="-5.003913">
        <ele>709.214</ele>
        <time>2021-09-19T11:21:41Z</time>
      </trkpt>
      <trkpt lat="36.762131" lon="-5.004001">
        <ele>710.008</ele>
        <time>2021-09-19T11:21:44Z</time>
      </trkpt>
      <trkpt lat="36.762115" lon="-5.004027">
        <ele>710.273</ele>
        <time>2021-09-19T11:21:45Z</time>
      </trkpt>
      <trkpt lat="36.762021" lon="-5.004135">
        <ele>711.019</ele>
        <time>2021-09-19T11:21:50Z</time>
      </trkpt>
      <trkpt lat="36.761974" lon="-5.004174">
        <ele>711.487</ele>
        <time>2021-09-19T11:21:52Z</time>
      </trkpt>
      <trkpt lat="36.761849" lon="-5.004246">
        <ele>712.289</ele>
        <time>2021-09-19T11:21:57Z</time>
      </trkpt>
      <trkpt lat="36.761809" lon="-5.004263">
        <ele>712.662</ele>
        <time>2021-09-19T11:21:59Z</time>
      </trkpt>
      <trkpt lat="36.761788" lon="-5.004270">
        <ele>713.078</ele>
        <time>2021-09-19T11:22:02Z</time>
      </trkpt>
      <trkpt lat="36.761750" lon="-5.004240">
        <ele>713.431</ele>
        <time>2021-09-19T11:22:45Z</time>
      </trkpt>
      <trkpt lat="36.761718" lon="-5.004214">
        <ele>713.458</ele>
        <time>2021-09-19T11:22:47Z</time>
      </trkpt>
      <trkpt lat="36.761689" lon="-5.004191">
        <ele>713.266</ele>
        <time>2021-09-19T11:22:49Z</time>
      </trkpt>
      <trkpt lat="36.761679" lon="-5.004184">
        <ele>713.229</ele>
        <time>2021-09-19T11:22:50Z</time>
      </trkpt>
      <trkpt lat="36.761672" lon="-5.004180">
        <ele>713.221</ele>
        <time>2021-09-19T11:22:51Z</time>
      </trkpt>
      <trkpt lat="36.761666" lon="-5.004182">
        <ele>713.208</ele>
        <time>2021-09-19T11:22:52Z</time>
      </trkpt>
      <trkpt lat="36.761644" lon="-5.004193">
        <ele>713.254</ele>
        <time>2021-09-19T11:22:59Z</time>
      </trkpt>
      <trkpt lat="36.761625" lon="-5.004194">
        <ele>713.460</ele>
        <time>2021-09-19T11:27:40Z</time>
      </trkpt>
      <trkpt lat="36.761609" lon="-5.004189">
        <ele>713.428</ele>
        <time>2021-09-19T11:27:41Z</time>
      </trkpt>
      <trkpt lat="36.761554" lon="-5.004228">
        <ele>713.280</ele>
        <time>2021-09-19T11:27:45Z</time>
      </trkpt>
      <trkpt lat="36.761552" lon="-5.004339">
        <ele>712.453</ele>
        <time>2021-09-19T11:27:50Z</time>
      </trkpt>
      <trkpt lat="36.761562" lon="-5.004385">
        <ele>711.419</ele>
        <time>2021-09-19T11:27:52Z</time>
      </trkpt>
      <trkpt lat="36.761560" lon="-5.004431">
        <ele>710.272</ele>
        <time>2021-09-19T11:27:54Z</time>
      </trkpt>
      <trkpt lat="36.761561" lon="-5.004449">
        <ele>709.649</ele>
        <time>2021-09-19T11:27:55Z</time>
      </trkpt>
      <trkpt lat="36.761559" lon="-5.004463">
        <ele>709.072</ele>
        <time>2021-09-19T11:27:56Z</time>
      </trkpt>
      <trkpt lat="36.761550" lon="-5.004480">
        <ele>707.813</ele>
        <time>2021-09-19T11:27:58Z</time>
      </trkpt>
      <trkpt lat="36.761546" lon="-5.004487">
        <ele>706.614</ele>
        <time>2021-09-19T11:28:00Z</time>
      </trkpt>
      <trkpt lat="36.761528" lon="-5.004508">
        <ele>705.208</ele>
        <time>2021-09-19T11:28:03Z</time>
      </trkpt>
      <trkpt lat="36.761514" lon="-5.004509">
        <ele>704.835</ele>
        <time>2021-09-19T11:28:04Z</time>
      </trkpt>
      <trkpt lat="36.761470" lon="-5.004515">
        <ele>704.031</ele>
        <time>2021-09-19T11:28:06Z</time>
      </trkpt>
      <trkpt lat="36.761413" lon="-5.004484">
        <ele>703.429</ele>
        <time>2021-09-19T11:28:10Z</time>
      </trkpt>
      <trkpt lat="36.761401" lon="-5.004469">
        <ele>703.011</ele>
        <time>2021-09-19T11:28:12Z</time>
      </trkpt>
      <trkpt lat="36.761394" lon="-5.004463">
        <ele>702.094</ele>
        <time>2021-09-19T11:28:14Z</time>
      </trkpt>
      <trkpt lat="36.761392" lon="-5.004457">
        <ele>701.260</ele>
        <time>2021-09-19T11:28:15Z</time>
      </trkpt>
      <trkpt lat="36.761386" lon="-5.004465">
        <ele>700.813</ele>
        <time>2021-09-19T11:28:16Z</time>
      </trkpt>
      <trkpt lat="36.761377" lon="-5.004474">
        <ele>699.870</ele>
        <time>2021-09-19T11:28:18Z</time>
      </trkpt>
      <trkpt lat="36.761363" lon="-5.004484">
        <ele>698.689</ele>
        <time>2021-09-19T11:28:21Z</time>
      </trkpt>
      <trkpt lat="36.761356" lon="-5.004487">
        <ele>698.406</ele>
        <time>2021-09-19T11:28:22Z</time>
      </trkpt>
      <trkpt lat="36.761326" lon="-5.004497">
        <ele>697.626</ele>
        <time>2021-09-19T11:28:27Z</time>
      </trkpt>
      <trkpt lat="36.761286" lon="-5.004489">
        <ele>696.408</ele>
        <time>2021-09-19T11:28:32Z</time>
      </trkpt>
      <trkpt lat="36.761285" lon="-5.004480">
        <ele>695.836</ele>
        <time>2021-09-19T11:28:35Z</time>
      </trkpt>
      <trkpt lat="36.761226" lon="-5.004411">
        <ele>693.082</ele>
        <time>2021-09-19T11:28:46Z</time>
      </trkpt>
      <trkpt lat="36.761210" lon="-5.004399">
        <ele>693.070</ele>
        <time>2021-09-19T11:28:47Z</time>
      </trkpt>
      <trkpt lat="36.761154" lon="-5.004400">
        <ele>692.672</ele>
        <time>2021-09-19T11:28:51Z</time>
      </trkpt>
      <trkpt lat="36.761146" lon="-5.004434">
        <ele>692.015</ele>
        <time>2021-09-19T11:28:53Z</time>
      </trkpt>
      <trkpt lat="36.761142" lon="-5.004453">
        <ele>691.661</ele>
        <time>2021-09-19T11:28:54Z</time>
      </trkpt>
      <trkpt lat="36.761137" lon="-5.004479">
        <ele>691.254</ele>
        <time>2021-09-19T11:28:55Z</time>
      </trkpt>
      <trkpt lat="36.761140" lon="-5.004504">
        <ele>690.671</ele>
        <time>2021-09-19T11:28:56Z</time>
      </trkpt>
      <trkpt lat="36.761153" lon="-5.004552">
        <ele>689.688</ele>
        <time>2021-09-19T11:28:58Z</time>
      </trkpt>
      <trkpt lat="36.761154" lon="-5.004569">
        <ele>689.224</ele>
        <time>2021-09-19T11:28:59Z</time>
      </trkpt>
      <trkpt lat="36.761153" lon="-5.004582">
        <ele>688.226</ele>
        <time>2021-09-19T11:29:01Z</time>
      </trkpt>
      <trkpt lat="36.761152" lon="-5.004582">
        <ele>687.608</ele>
        <time>2021-09-19T11:29:02Z</time>
      </trkpt>
      <trkpt lat="36.761204" lon="-5.004697">
        <ele>683.076</ele>
        <time>2021-09-19T11:29:13Z</time>
      </trkpt>
      <trkpt lat="36.761222" lon="-5.004723">
        <ele>683.092</ele>
        <time>2021-09-19T11:29:14Z</time>
      </trkpt>
      <trkpt lat="36.761252" lon="-5.004785">
        <ele>683.020</ele>
        <time>2021-09-19T11:29:16Z</time>
      </trkpt>
      <trkpt lat="36.761263" lon="-5.004854">
        <ele>682.412</ele>
        <time>2021-09-19T11:29:18Z</time>
      </trkpt>
      <trkpt lat="36.761265" lon="-5.004920">
        <ele>681.655</ele>
        <time>2021-09-19T11:29:20Z</time>
      </trkpt>
      <trkpt lat="36.761253" lon="-5.004970">
        <ele>680.661</ele>
        <time>2021-09-19T11:29:22Z</time>
      </trkpt>
      <trkpt lat="36.761243" lon="-5.005000">
        <ele>680.294</ele>
        <time>2021-09-19T11:29:23Z</time>
      </trkpt>
      <trkpt lat="36.761234" lon="-5.005064">
        <ele>679.071</ele>
        <time>2021-09-19T11:29:25Z</time>
      </trkpt>
      <trkpt lat="36.761226" lon="-5.005101">
        <ele>678.619</ele>
        <time>2021-09-19T11:29:26Z</time>
      </trkpt>
      <trkpt lat="36.761220" lon="-5.005136">
        <ele>677.809</ele>
        <time>2021-09-19T11:29:27Z</time>
      </trkpt>
      <trkpt lat="36.761219" lon="-5.005199">
        <ele>676.219</ele>
        <time>2021-09-19T11:29:29Z</time>
      </trkpt>
      <trkpt lat="36.761227" lon="-5.005261">
        <ele>675.208</ele>
        <time>2021-09-19T11:29:31Z</time>
      </trkpt>
      <trkpt lat="36.761230" lon="-5.005316">
        <ele>674.859</ele>
        <time>2021-09-19T11:29:33Z</time>
      </trkpt>
      <trkpt lat="36.761225" lon="-5.005434">
        <ele>674.495</ele>
        <time>2021-09-19T11:29:37Z</time>
      </trkpt>
      <trkpt lat="36.761215" lon="-5.005460">
        <ele>674.433</ele>
        <time>2021-09-19T11:29:38Z</time>
      </trkpt>
      <trkpt lat="36.761204" lon="-5.005493">
        <ele>674.265</ele>
        <time>2021-09-19T11:29:41Z</time>
      </trkpt>
      <trkpt lat="36.761207" lon="-5.005494">
        <ele>674.248</ele>
        <time>2021-09-19T11:29:42Z</time>
      </trkpt>
      <trkpt lat="36.761291" lon="-5.005477">
        <ele>673.044</ele>
        <time>2021-09-19T11:29:49Z</time>
      </trkpt>
      <trkpt lat="36.761333" lon="-5.005482">
        <ele>672.877</ele>
        <time>2021-09-19T11:29:51Z</time>
      </trkpt>
      <trkpt lat="36.761382" lon="-5.005491">
        <ele>672.644</ele>
        <time>2021-09-19T11:29:53Z</time>
      </trkpt>
      <trkpt lat="36.761448" lon="-5.005535">
        <ele>672.237</ele>
        <time>2021-09-19T11:29:56Z</time>
      </trkpt>
      <trkpt lat="36.761485" lon="-5.005579">
        <ele>671.849</ele>
        <time>2021-09-19T11:29:58Z</time>
      </trkpt>
      <trkpt lat="36.761524" lon="-5.005630">
        <ele>671.013</ele>
        <time>2021-09-19T11:30:00Z</time>
      </trkpt>
      <trkpt lat="36.761546" lon="-5.005655">
        <ele>670.208</ele>
        <time>2021-09-19T11:30:01Z</time>
      </trkpt>
      <trkpt lat="36.761606" lon="-5.005695">
        <ele>668.441</ele>
        <time>2021-09-19T11:30:03Z</time>
      </trkpt>
      <trkpt lat="36.761627" lon="-5.005707">
        <ele>668.057</ele>
        <time>2021-09-19T11:30:04Z</time>
      </trkpt>
      <trkpt lat="36.761660" lon="-5.005731">
        <ele>667.075</ele>
        <time>2021-09-19T11:30:06Z</time>
      </trkpt>
      <trkpt lat="36.761682" lon="-5.005765">
        <ele>665.887</ele>
        <time>2021-09-19T11:30:08Z</time>
      </trkpt>
      <trkpt lat="36.761686" lon="-5.005785">
        <ele>665.210</ele>
        <time>2021-09-19T11:30:09Z</time>
      </trkpt>
      <trkpt lat="36.761688" lon="-5.005801">
        <ele>664.436</ele>
        <time>2021-09-19T11:30:10Z</time>
      </trkpt>
      <trkpt lat="36.761688" lon="-5.005800">
        <ele>662.839</ele>
        <time>2021-09-19T11:30:12Z</time>
      </trkpt>
      <trkpt lat="36.761688" lon="-5.005797">
        <ele>662.266</ele>
        <time>2021-09-19T11:30:13Z</time>
      </trkpt>
      <trkpt lat="36.761687" lon="-5.005803">
        <ele>661.662</ele>
        <time>2021-09-19T11:30:14Z</time>
      </trkpt>
      <trkpt lat="36.761685" lon="-5.005814">
        <ele>661.283</ele>
        <time>2021-09-19T11:30:15Z</time>
      </trkpt>
      <trkpt lat="36.761629" lon="-5.005897">
        <ele>661.611</ele>
        <time>2021-09-19T11:30:27Z</time>
      </trkpt>
      <trkpt lat="36.761618" lon="-5.005916">
        <ele>661.808</ele>
        <time>2021-09-19T11:30:28Z</time>
      </trkpt>
      <trkpt lat="36.761526" lon="-5.006009">
        <ele>662.234</ele>
        <time>2021-09-19T11:30:33Z</time>
      </trkpt>
      <trkpt lat="36.761507" lon="-5.006025">
        <ele>662.490</ele>
        <time>2021-09-19T11:30:34Z</time>
      </trkpt>
      <trkpt lat="36.761398" lon="-5.006076">
        <ele>662.618</ele>
        <time>2021-09-19T11:30:39Z</time>
      </trkpt>
      <trkpt lat="36.761351" lon="-5.006098">
        <ele>662.820</ele>
        <time>2021-09-19T11:30:41Z</time>
      </trkpt>
      <trkpt lat="36.761255" lon="-5.006126">
        <ele>662.863</ele>
        <time>2021-09-19T11:30:45Z</time>
      </trkpt>
      <trkpt lat="36.761202" lon="-5.006206">
        <ele>663.299</ele>
        <time>2021-09-19T11:30:49Z</time>
      </trkpt>
      <trkpt lat="36.761185" lon="-5.006260">
        <ele>663.262</ele>
        <time>2021-09-19T11:30:51Z</time>
      </trkpt>
      <trkpt lat="36.761163" lon="-5.006322">
        <ele>663.499</ele>
        <time>2021-09-19T11:30:54Z</time>
      </trkpt>
      <trkpt lat="36.761140" lon="-5.006382">
        <ele>663.814</ele>
        <time>2021-09-19T11:30:57Z</time>
      </trkpt>
      <trkpt lat="36.761134" lon="-5.006420">
        <ele>664.454</ele>
        <time>2021-09-19T11:30:59Z</time>
      </trkpt>
      <trkpt lat="36.761134" lon="-5.006434">
        <ele>665.009</ele>
        <time>2021-09-19T11:31:00Z</time>
      </trkpt>
      <trkpt lat="36.761140" lon="-5.006471">
        <ele>665.608</ele>
        <time>2021-09-19T11:31:02Z</time>
      </trkpt>
      <trkpt lat="36.761146" lon="-5.006494">
        <ele>665.849</ele>
        <time>2021-09-19T11:31:03Z</time>
      </trkpt>
      <trkpt lat="36.761163" lon="-5.006551">
        <ele>666.865</ele>
        <time>2021-09-19T11:31:05Z</time>
      </trkpt>
      <trkpt lat="36.761187" lon="-5.006625">
        <ele>667.643</ele>
        <time>2021-09-19T11:31:08Z</time>
      </trkpt>
      <trkpt lat="36.761191" lon="-5.006647">
        <ele>667.895</ele>
        <time>2021-09-19T11:31:09Z</time>
      </trkpt>
      <trkpt lat="36.761213" lon="-5.006746">
        <ele>668.038</ele>
        <time>2021-09-19T11:31:13Z</time>
      </trkpt>
      <trkpt lat="36.761232" lon="-5.006792">
        <ele>668.234</ele>
        <time>2021-09-19T11:31:15Z</time>
      </trkpt>
      <trkpt lat="36.761238" lon="-5.006817">
        <ele>668.287</ele>
        <time>2021-09-19T11:31:16Z</time>
      </trkpt>
      <trkpt lat="36.761247" lon="-5.006917">
        <ele>668.264</ele>
        <time>2021-09-19T11:31:20Z</time>
      </trkpt>
      <trkpt lat="36.761265" lon="-5.007070">
        <ele>668.672</ele>
        <time>2021-09-19T11:31:26Z</time>
      </trkpt>
      <trkpt lat="36.761281" lon="-5.007120">
        <ele>668.813</ele>
        <time>2021-09-19T11:31:28Z</time>
      </trkpt>
      <trkpt lat="36.761297" lon="-5.007171">
        <ele>669.014</ele>
        <time>2021-09-19T11:31:30Z</time>
      </trkpt>
      <trkpt lat="36.761303" lon="-5.007200">
        <ele>669.208</ele>
        <time>2021-09-19T11:31:31Z</time>
      </trkpt>
      <trkpt lat="36.761350" lon="-5.007371">
        <ele>669.635</ele>
        <time>2021-09-19T11:31:37Z</time>
      </trkpt>
      <trkpt lat="36.761426" lon="-5.007497">
        <ele>669.881</ele>
        <time>2021-09-19T11:31:42Z</time>
      </trkpt>
      <trkpt lat="36.761437" lon="-5.007523">
        <ele>669.879</ele>
        <time>2021-09-19T11:31:43Z</time>
      </trkpt>
      <trkpt lat="36.761449" lon="-5.007548">
        <ele>669.891</ele>
        <time>2021-09-19T11:31:44Z</time>
      </trkpt>
      <trkpt lat="36.761477" lon="-5.007663">
        <ele>670.474</ele>
        <time>2021-09-19T11:31:48Z</time>
      </trkpt>
      <trkpt lat="36.761493" lon="-5.007713">
        <ele>670.610</ele>
        <time>2021-09-19T11:31:50Z</time>
      </trkpt>
      <trkpt lat="36.761499" lon="-5.007737">
        <ele>670.833</ele>
        <time>2021-09-19T11:31:51Z</time>
      </trkpt>
      <trkpt lat="36.761506" lon="-5.007796">
        <ele>671.070</ele>
        <time>2021-09-19T11:31:53Z</time>
      </trkpt>
      <trkpt lat="36.761508" lon="-5.007951">
        <ele>671.431</ele>
        <time>2021-09-19T11:31:58Z</time>
      </trkpt>
      <trkpt lat="36.761499" lon="-5.008052">
        <ele>671.861</ele>
        <time>2021-09-19T11:32:01Z</time>
      </trkpt>
      <trkpt lat="36.761479" lon="-5.008108">
        <ele>672.007</ele>
        <time>2021-09-19T11:32:03Z</time>
      </trkpt>
      <trkpt lat="36.761430" lon="-5.008224">
        <ele>672.408</ele>
        <time>2021-09-19T11:32:07Z</time>
      </trkpt>
      <trkpt lat="36.761346" lon="-5.008397">
        <ele>672.821</ele>
        <time>2021-09-19T11:32:12Z</time>
      </trkpt>
      <trkpt lat="36.761316" lon="-5.008461">
        <ele>673.077</ele>
        <time>2021-09-19T11:32:14Z</time>
      </trkpt>
      <trkpt lat="36.761235" lon="-5.008631">
        <ele>673.245</ele>
        <time>2021-09-19T11:32:20Z</time>
      </trkpt>
      <trkpt lat="36.761224" lon="-5.008715">
        <ele>673.417</ele>
        <time>2021-09-19T11:32:24Z</time>
      </trkpt>
      <trkpt lat="36.761219" lon="-5.008808">
        <ele>673.840</ele>
        <time>2021-09-19T11:32:28Z</time>
      </trkpt>
      <trkpt lat="36.761214" lon="-5.008850">
        <ele>674.056</ele>
        <time>2021-09-19T11:32:30Z</time>
      </trkpt>
      <trkpt lat="36.761198" lon="-5.008931">
        <ele>675.079</ele>
        <time>2021-09-19T11:32:34Z</time>
      </trkpt>
      <trkpt lat="36.761184" lon="-5.008972">
        <ele>676.296</ele>
        <time>2021-09-19T11:32:36Z</time>
      </trkpt>
      <trkpt lat="36.761171" lon="-5.009014">
        <ele>677.459</ele>
        <time>2021-09-19T11:32:38Z</time>
      </trkpt>
      <trkpt lat="36.761151" lon="-5.009073">
        <ele>678.603</ele>
        <time>2021-09-19T11:32:41Z</time>
      </trkpt>
      <trkpt lat="36.761137" lon="-5.009110">
        <ele>679.223</ele>
        <time>2021-09-19T11:32:43Z</time>
      </trkpt>
      <trkpt lat="36.761120" lon="-5.009155">
        <ele>679.808</ele>
        <time>2021-09-19T11:32:45Z</time>
      </trkpt>
      <trkpt lat="36.761073" lon="-5.009276">
        <ele>680.633</ele>
        <time>2021-09-19T11:32:49Z</time>
      </trkpt>
      <trkpt lat="36.761059" lon="-5.009321">
        <ele>680.839</ele>
        <time>2021-09-19T11:32:50Z</time>
      </trkpt>
      <trkpt lat="36.760983" lon="-5.009437">
        <ele>681.097</ele>
        <time>2021-09-19T11:32:54Z</time>
      </trkpt>
      <trkpt lat="36.760958" lon="-5.009489">
        <ele>681.269</ele>
        <time>2021-09-19T11:32:58Z</time>
      </trkpt>
      <trkpt lat="36.760891" lon="-5.009579">
        <ele>681.272</ele>
        <time>2021-09-19T11:33:02Z</time>
      </trkpt>
      <trkpt lat="36.760796" lon="-5.009675">
        <ele>681.488</ele>
        <time>2021-09-19T11:33:07Z</time>
      </trkpt>
      <trkpt lat="36.760755" lon="-5.009715">
        <ele>681.481</ele>
        <time>2021-09-19T11:33:10Z</time>
      </trkpt>
      <trkpt lat="36.760729" lon="-5.009760">
        <ele>681.488</ele>
        <time>2021-09-19T11:33:12Z</time>
      </trkpt>
      <trkpt lat="36.760712" lon="-5.009783">
        <ele>681.646</ele>
        <time>2021-09-19T11:33:13Z</time>
      </trkpt>
      <trkpt lat="36.760688" lon="-5.009797">
        <ele>681.888</ele>
        <time>2021-09-19T11:33:14Z</time>
      </trkpt>
      <trkpt lat="36.760641" lon="-5.009844">
        <ele>682.416</ele>
        <time>2021-09-19T11:33:17Z</time>
      </trkpt>
      <trkpt lat="36.760611" lon="-5.009872">
        <ele>683.008</ele>
        <time>2021-09-19T11:33:19Z</time>
      </trkpt>
      <trkpt lat="36.760550" lon="-5.009930">
        <ele>684.212</ele>
        <time>2021-09-19T11:33:23Z</time>
      </trkpt>
      <trkpt lat="36.760501" lon="-5.009974">
        <ele>685.288</ele>
        <time>2021-09-19T11:33:27Z</time>
      </trkpt>
      <trkpt lat="36.760477" lon="-5.009999">
        <ele>685.846</ele>
        <time>2021-09-19T11:33:29Z</time>
      </trkpt>
      <trkpt lat="36.760466" lon="-5.010015">
        <ele>686.298</ele>
        <time>2021-09-19T11:33:30Z</time>
      </trkpt>
      <trkpt lat="36.760425" lon="-5.010068">
        <ele>687.441</ele>
        <time>2021-09-19T11:33:34Z</time>
      </trkpt>
      <trkpt lat="36.760410" lon="-5.010082">
        <ele>687.897</ele>
        <time>2021-09-19T11:33:35Z</time>
      </trkpt>
      <trkpt lat="36.760384" lon="-5.010113">
        <ele>688.850</ele>
        <time>2021-09-19T11:33:37Z</time>
      </trkpt>
      <trkpt lat="36.760333" lon="-5.010170">
        <ele>689.837</ele>
        <time>2021-09-19T11:33:41Z</time>
      </trkpt>
      <trkpt lat="36.760258" lon="-5.010314">
        <ele>690.658</ele>
        <time>2021-09-19T11:33:49Z</time>
      </trkpt>
      <trkpt lat="36.760239" lon="-5.010354">
        <ele>691.052</ele>
        <time>2021-09-19T11:33:51Z</time>
      </trkpt>
      <trkpt lat="36.760202" lon="-5.010404">
        <ele>691.617</ele>
        <time>2021-09-19T11:33:54Z</time>
      </trkpt>
      <trkpt lat="36.760181" lon="-5.010433">
        <ele>692.208</ele>
        <time>2021-09-19T11:33:56Z</time>
      </trkpt>
      <trkpt lat="36.760151" lon="-5.010476">
        <ele>693.493</ele>
        <time>2021-09-19T11:33:59Z</time>
      </trkpt>
      <trkpt lat="36.760122" lon="-5.010527">
        <ele>694.259</ele>
        <time>2021-09-19T11:34:02Z</time>
      </trkpt>
      <trkpt lat="36.760112" lon="-5.010547">
        <ele>694.427</ele>
        <time>2021-09-19T11:34:03Z</time>
      </trkpt>
      <trkpt lat="36.760042" lon="-5.010635">
        <ele>695.649</ele>
        <time>2021-09-19T11:34:08Z</time>
      </trkpt>
      <trkpt lat="36.760028" lon="-5.010648">
        <ele>696.022</ele>
        <time>2021-09-19T11:34:09Z</time>
      </trkpt>
      <trkpt lat="36.759955" lon="-5.010715">
        <ele>696.878</ele>
        <time>2021-09-19T11:34:13Z</time>
      </trkpt>
      <trkpt lat="36.759858" lon="-5.010823">
        <ele>697.641</ele>
        <time>2021-09-19T11:34:19Z</time>
      </trkpt>
      <trkpt lat="36.759832" lon="-5.010856">
        <ele>697.648</ele>
        <time>2021-09-19T11:34:21Z</time>
      </trkpt>
      <trkpt lat="36.759786" lon="-5.010931">
        <ele>698.287</ele>
        <time>2021-09-19T11:34:25Z</time>
      </trkpt>
      <trkpt lat="36.759766" lon="-5.010969">
        <ele>698.842</ele>
        <time>2021-09-19T11:34:27Z</time>
      </trkpt>
      <trkpt lat="36.759719" lon="-5.011063">
        <ele>699.426</ele>
        <time>2021-09-19T11:34:32Z</time>
      </trkpt>
      <trkpt lat="36.759690" lon="-5.011114">
        <ele>700.008</ele>
        <time>2021-09-19T11:34:35Z</time>
      </trkpt>
      <trkpt lat="36.759672" lon="-5.011138">
        <ele>700.666</ele>
        <time>2021-09-19T11:34:37Z</time>
      </trkpt>
      <trkpt lat="36.759655" lon="-5.011162">
        <ele>701.042</ele>
        <time>2021-09-19T11:34:39Z</time>
      </trkpt>
      <trkpt lat="36.759626" lon="-5.011207">
        <ele>702.080</ele>
        <time>2021-09-19T11:34:42Z</time>
      </trkpt>
      <trkpt lat="36.759615" lon="-5.011222">
        <ele>702.482</ele>
        <time>2021-09-19T11:34:43Z</time>
      </trkpt>
      <trkpt lat="36.759584" lon="-5.011300">
        <ele>703.065</ele>
        <time>2021-09-19T11:34:47Z</time>
      </trkpt>
      <trkpt lat="36.759567" lon="-5.011336">
        <ele>703.681</ele>
        <time>2021-09-19T11:34:49Z</time>
      </trkpt>
      <trkpt lat="36.759550" lon="-5.011405">
        <ele>704.474</ele>
        <time>2021-09-19T11:34:52Z</time>
      </trkpt>
      <trkpt lat="36.759542" lon="-5.011425">
        <ele>704.841</ele>
        <time>2021-09-19T11:34:53Z</time>
      </trkpt>
      <trkpt lat="36.759503" lon="-5.011510">
        <ele>705.851</ele>
        <time>2021-09-19T11:34:57Z</time>
      </trkpt>
      <trkpt lat="36.759488" lon="-5.011552">
        <ele>706.201</ele>
        <time>2021-09-19T11:34:59Z</time>
      </trkpt>
      <trkpt lat="36.759478" lon="-5.011590">
        <ele>706.611</ele>
        <time>2021-09-19T11:35:01Z</time>
      </trkpt>
      <trkpt lat="36.759478" lon="-5.011679">
        <ele>707.208</ele>
        <time>2021-09-19T11:35:05Z</time>
      </trkpt>
      <trkpt lat="36.759472" lon="-5.011734">
        <ele>707.893</ele>
        <time>2021-09-19T11:35:08Z</time>
      </trkpt>
      <trkpt lat="36.759458" lon="-5.011802">
        <ele>708.849</ele>
        <time>2021-09-19T11:35:12Z</time>
      </trkpt>
      <trkpt lat="36.759452" lon="-5.011819">
        <ele>709.287</ele>
        <time>2021-09-19T11:35:13Z</time>
      </trkpt>
      <trkpt lat="36.759440" lon="-5.011883">
        <ele>710.439</ele>
        <time>2021-09-19T11:35:17Z</time>
      </trkpt>
      <trkpt lat="36.759437" lon="-5.011901">
        <ele>710.672</ele>
        <time>2021-09-19T11:35:18Z</time>
      </trkpt>
      <trkpt lat="36.759421" lon="-5.012028">
        <ele>711.268</ele>
        <time>2021-09-19T11:35:25Z</time>
      </trkpt>
      <trkpt lat="36.759423" lon="-5.012049">
        <ele>711.491</ele>
        <time>2021-09-19T11:35:26Z</time>
      </trkpt>
      <trkpt lat="36.759440" lon="-5.012140">
        <ele>712.668</ele>
        <time>2021-09-19T11:35:31Z</time>
      </trkpt>
      <trkpt lat="36.759447" lon="-5.012155">
        <ele>713.087</ele>
        <time>2021-09-19T11:35:32Z</time>
      </trkpt>
      <trkpt lat="36.759459" lon="-5.012191">
        <ele>713.442</ele>
        <time>2021-09-19T11:35:34Z</time>
      </trkpt>
      <trkpt lat="36.759463" lon="-5.012208">
        <ele>713.826</ele>
        <time>2021-09-19T11:35:35Z</time>
      </trkpt>
      <trkpt lat="36.759471" lon="-5.012246">
        <ele>714.408</ele>
        <time>2021-09-19T11:35:37Z</time>
      </trkpt>
      <trkpt lat="36.759472" lon="-5.012263">
        <ele>714.826</ele>
        <time>2021-09-19T11:35:38Z</time>
      </trkpt>
      <trkpt lat="36.759482" lon="-5.012313">
        <ele>716.052</ele>
        <time>2021-09-19T11:35:41Z</time>
      </trkpt>
      <trkpt lat="36.759485" lon="-5.012332">
        <ele>716.260</ele>
        <time>2021-09-19T11:35:42Z</time>
      </trkpt>
      <trkpt lat="36.759494" lon="-5.012392">
        <ele>717.232</ele>
        <time>2021-09-19T11:35:45Z</time>
      </trkpt>
      <trkpt lat="36.759483" lon="-5.012457">
        <ele>718.695</ele>
        <time>2021-09-19T11:35:48Z</time>
      </trkpt>
      <trkpt lat="36.759475" lon="-5.012497">
        <ele>719.491</ele>
        <time>2021-09-19T11:35:50Z</time>
      </trkpt>
      <trkpt lat="36.759469" lon="-5.012518">
        <ele>719.894</ele>
        <time>2021-09-19T11:35:51Z</time>
      </trkpt>
      <trkpt lat="36.759476" lon="-5.012626">
        <ele>720.881</ele>
        <time>2021-09-19T11:35:55Z</time>
      </trkpt>
      <trkpt lat="36.759536" lon="-5.012671">
        <ele>721.249</ele>
        <time>2021-09-19T11:35:59Z</time>
      </trkpt>
      <trkpt lat="36.759625" lon="-5.012699">
        <ele>721.402</ele>
        <time>2021-09-19T11:36:05Z</time>
      </trkpt>
      <trkpt lat="36.759637" lon="-5.012711">
        <ele>721.622</ele>
        <time>2021-09-19T11:36:06Z</time>
      </trkpt>
      <trkpt lat="36.759651" lon="-5.012724">
        <ele>722.008</ele>
        <time>2021-09-19T11:36:07Z</time>
      </trkpt>
      <trkpt lat="36.759710" lon="-5.012796">
        <ele>723.252</ele>
        <time>2021-09-19T11:36:12Z</time>
      </trkpt>
      <trkpt lat="36.759731" lon="-5.012827">
        <ele>723.638</ele>
        <time>2021-09-19T11:36:14Z</time>
      </trkpt>
      <trkpt lat="36.759737" lon="-5.012844">
        <ele>723.886</ele>
        <time>2021-09-19T11:36:15Z</time>
      </trkpt>
      <trkpt lat="36.759741" lon="-5.012885">
        <ele>724.418</ele>
        <time>2021-09-19T11:36:17Z</time>
      </trkpt>
      <trkpt lat="36.759751" lon="-5.012992">
        <ele>725.891</ele>
        <time>2021-09-19T11:36:22Z</time>
      </trkpt>
      <trkpt lat="36.759754" lon="-5.013022">
        <ele>726.487</ele>
        <time>2021-09-19T11:36:24Z</time>
      </trkpt>
      <trkpt lat="36.759755" lon="-5.013031">
        <ele>726.840</ele>
        <time>2021-09-19T11:36:26Z</time>
      </trkpt>
      <trkpt lat="36.759753" lon="-5.013034">
        <ele>727.047</ele>
        <time>2021-09-19T11:36:27Z</time>
      </trkpt>
      <trkpt lat="36.760002" lon="-5.013247">
        <ele>736.489</ele>
        <time>2021-09-19T11:37:20Z</time>
      </trkpt>
      <trkpt lat="36.760070" lon="-5.013197">
        <ele>736.606</ele>
        <time>2021-09-19T11:37:26Z</time>
      </trkpt>
      <trkpt lat="36.760161" lon="-5.013138">
        <ele>736.626</ele>
        <time>2021-09-19T11:37:32Z</time>
      </trkpt>
      <trkpt lat="36.760219" lon="-5.013061">
        <ele>737.608</ele>
        <time>2021-09-19T11:37:37Z</time>
      </trkpt>
      <trkpt lat="36.760224" lon="-5.013025">
        <ele>738.086</ele>
        <time>2021-09-19T11:37:39Z</time>
      </trkpt>
      <trkpt lat="36.760240" lon="-5.012961">
        <ele>738.892</ele>
        <time>2021-09-19T11:37:42Z</time>
      </trkpt>
      <trkpt lat="36.760278" lon="-5.012908">
        <ele>739.620</ele>
        <time>2021-09-19T11:37:45Z</time>
      </trkpt>
      <trkpt lat="36.760307" lon="-5.012881">
        <ele>739.872</ele>
        <time>2021-09-19T11:37:47Z</time>
      </trkpt>
      <trkpt lat="36.760345" lon="-5.012858">
        <ele>740.445</ele>
        <time>2021-09-19T11:37:50Z</time>
      </trkpt>
      <trkpt lat="36.760348" lon="-5.012858">
        <ele>740.681</ele>
        <time>2021-09-19T11:37:51Z</time>
      </trkpt>
      <trkpt lat="36.760750" lon="-5.012638">
        <ele>750.474</ele>
        <time>2021-09-19T11:39:43Z</time>
      </trkpt>
      <trkpt lat="36.760767" lon="-5.012629">
        <ele>750.431</ele>
        <time>2021-09-19T11:39:44Z</time>
      </trkpt>
      <trkpt lat="36.760784" lon="-5.012619">
        <ele>750.628</ele>
        <time>2021-09-19T11:39:45Z</time>
      </trkpt>
      <trkpt lat="36.760945" lon="-5.012553">
        <ele>751.289</ele>
        <time>2021-09-19T11:39:53Z</time>
      </trkpt>
      <trkpt lat="36.761045" lon="-5.012525">
        <ele>751.617</ele>
        <time>2021-09-19T11:39:58Z</time>
      </trkpt>
      <trkpt lat="36.761067" lon="-5.012519">
        <ele>751.808</ele>
        <time>2021-09-19T11:39:59Z</time>
      </trkpt>
      <trkpt lat="36.761116" lon="-5.012533">
        <ele>751.810</ele>
        <time>2021-09-19T11:40:02Z</time>
      </trkpt>
      <trkpt lat="36.761141" lon="-5.012557">
        <ele>752.276</ele>
        <time>2021-09-19T11:40:04Z</time>
      </trkpt>
      <trkpt lat="36.761210" lon="-5.012574">
        <ele>752.484</ele>
        <time>2021-09-19T11:40:08Z</time>
      </trkpt>
      <trkpt lat="36.761246" lon="-5.012569">
        <ele>752.656</ele>
        <time>2021-09-19T11:40:10Z</time>
      </trkpt>
      <trkpt lat="36.761263" lon="-5.012571">
        <ele>753.019</ele>
        <time>2021-09-19T11:40:11Z</time>
      </trkpt>
      <trkpt lat="36.761276" lon="-5.012575">
        <ele>753.065</ele>
        <time>2021-09-19T11:40:12Z</time>
      </trkpt>
      <trkpt lat="36.761299" lon="-5.012580">
        <ele>753.498</ele>
        <time>2021-09-19T11:40:15Z</time>
      </trkpt>
      <trkpt lat="36.761324" lon="-5.012578">
        <ele>754.095</ele>
        <time>2021-09-19T11:40:17Z</time>
      </trkpt>
      <trkpt lat="36.761365" lon="-5.012581">
        <ele>754.675</ele>
        <time>2021-09-19T11:40:20Z</time>
      </trkpt>
      <trkpt lat="36.761392" lon="-5.012577">
        <ele>755.028</ele>
        <time>2021-09-19T11:40:22Z</time>
      </trkpt>
      <trkpt lat="36.761449" lon="-5.012567">
        <ele>756.220</ele>
        <time>2021-09-19T11:40:26Z</time>
      </trkpt>
      <trkpt lat="36.761498" lon="-5.012537">
        <ele>757.008</ele>
        <time>2021-09-19T11:40:30Z</time>
      </trkpt>
      <trkpt lat="36.761524" lon="-5.012537">
        <ele>757.435</ele>
        <time>2021-09-19T11:40:32Z</time>
      </trkpt>
      <trkpt lat="36.761537" lon="-5.012540">
        <ele>757.451</ele>
        <time>2021-09-19T11:40:33Z</time>
      </trkpt>
      <trkpt lat="36.761582" lon="-5.012592">
        <ele>758.659</ele>
        <time>2021-09-19T11:40:37Z</time>
      </trkpt>
      <trkpt lat="36.761587" lon="-5.012612">
        <ele>758.881</ele>
        <time>2021-09-19T11:40:38Z</time>
      </trkpt>
      <trkpt lat="36.761615" lon="-5.012678">
        <ele>759.824</ele>
        <time>2021-09-19T11:40:42Z</time>
      </trkpt>
      <trkpt lat="36.761619" lon="-5.012689">
        <ele>760.620</ele>
        <time>2021-09-19T11:40:45Z</time>
      </trkpt>
      <trkpt lat="36.761666" lon="-5.012761">
        <ele>762.243</ele>
        <time>2021-09-19T11:41:37Z</time>
      </trkpt>
      <trkpt lat="36.761677" lon="-5.012772">
        <ele>762.270</ele>
        <time>2021-09-19T11:41:38Z</time>
      </trkpt>
      <trkpt lat="36.761696" lon="-5.012799">
        <ele>762.278</ele>
        <time>2021-09-19T11:41:40Z</time>
      </trkpt>
      <trkpt lat="36.761714" lon="-5.012844">
        <ele>762.433</ele>
        <time>2021-09-19T11:41:43Z</time>
      </trkpt>
      <trkpt lat="36.761747" lon="-5.012881">
        <ele>762.826</ele>
        <time>2021-09-19T11:41:46Z</time>
      </trkpt>
      <trkpt lat="36.761759" lon="-5.012888">
        <ele>763.008</ele>
        <time>2021-09-19T11:41:47Z</time>
      </trkpt>
      <trkpt lat="36.761772" lon="-5.012899">
        <ele>763.415</ele>
        <time>2021-09-19T11:41:48Z</time>
      </trkpt>
      <trkpt lat="36.761801" lon="-5.012970">
        <ele>764.291</ele>
        <time>2021-09-19T11:41:52Z</time>
      </trkpt>
      <trkpt lat="36.761824" lon="-5.013053">
        <ele>765.239</ele>
        <time>2021-09-19T11:41:56Z</time>
      </trkpt>
      <trkpt lat="36.761833" lon="-5.013094">
        <ele>765.671</ele>
        <time>2021-09-19T11:41:58Z</time>
      </trkpt>
      <trkpt lat="36.761846" lon="-5.013133">
        <ele>766.484</ele>
        <time>2021-09-19T11:42:00Z</time>
      </trkpt>
      <trkpt lat="36.761866" lon="-5.013186">
        <ele>767.220</ele>
        <time>2021-09-19T11:42:04Z</time>
      </trkpt>
      <trkpt lat="36.761865" lon="-5.013189">
        <ele>767.683</ele>
        <time>2021-09-19T11:42:05Z</time>
      </trkpt>
      <trkpt lat="36.761872" lon="-5.013271">
        <ele>768.830</ele>
        <time>2021-09-19T11:42:12Z</time>
      </trkpt>
      <trkpt lat="36.761886" lon="-5.013324">
        <ele>769.497</ele>
        <time>2021-09-19T11:42:15Z</time>
      </trkpt>
      <trkpt lat="36.761885" lon="-5.013342">
        <ele>769.423</ele>
        <time>2021-09-19T11:42:16Z</time>
      </trkpt>
      <trkpt lat="36.761881" lon="-5.013374">
        <ele>770.025</ele>
        <time>2021-09-19T11:42:18Z</time>
      </trkpt>
      <trkpt lat="36.761874" lon="-5.013411">
        <ele>770.408</ele>
        <time>2021-09-19T11:42:20Z</time>
      </trkpt>
      <trkpt lat="36.761854" lon="-5.013457">
        <ele>770.887</ele>
        <time>2021-09-19T11:42:23Z</time>
      </trkpt>
      <trkpt lat="36.761850" lon="-5.013489">
        <ele>771.633</ele>
        <time>2021-09-19T11:42:25Z</time>
      </trkpt>
      <trkpt lat="36.761849" lon="-5.013505">
        <ele>772.051</ele>
        <time>2021-09-19T11:42:27Z</time>
      </trkpt>
      <trkpt lat="36.761848" lon="-5.013502">
        <ele>772.263</ele>
        <time>2021-09-19T11:42:28Z</time>
      </trkpt>
      <trkpt lat="36.761643" lon="-5.013924">
        <ele>783.416</ele>
        <time>2021-09-19T11:43:57Z</time>
      </trkpt>
      <trkpt lat="36.761653" lon="-5.014005">
        <ele>783.662</ele>
        <time>2021-09-19T11:44:02Z</time>
      </trkpt>
      <trkpt lat="36.761621" lon="-5.014083">
        <ele>784.025</ele>
        <time>2021-09-19T11:44:07Z</time>
      </trkpt>
      <trkpt lat="36.761617" lon="-5.014094">
        <ele>784.422</ele>
        <time>2021-09-19T11:44:08Z</time>
      </trkpt>
      <trkpt lat="36.761601" lon="-5.014134">
        <ele>784.819</ele>
        <time>2021-09-19T11:44:11Z</time>
      </trkpt>
      <trkpt lat="36.761569" lon="-5.014160">
        <ele>784.809</ele>
        <time>2021-09-19T11:44:13Z</time>
      </trkpt>
      <trkpt lat="36.761542" lon="-5.014182">
        <ele>785.019</ele>
        <time>2021-09-19T11:44:15Z</time>
      </trkpt>
      <trkpt lat="36.761484" lon="-5.014235">
        <ele>785.408</ele>
        <time>2021-09-19T11:44:19Z</time>
      </trkpt>
      <trkpt lat="36.761470" lon="-5.014245">
        <ele>785.459</ele>
        <time>2021-09-19T11:44:20Z</time>
      </trkpt>
      <trkpt lat="36.761466" lon="-5.014251">
        <ele>785.645</ele>
        <time>2021-09-19T11:44:22Z</time>
      </trkpt>
      <trkpt lat="36.761053" lon="-5.017799">
        <ele>863.473</ele>
        <time>2021-09-19T11:52:49Z</time>
      </trkpt>
      <trkpt lat="36.761043" lon="-5.017869">
        <ele>863.455</ele>
        <time>2021-09-19T11:52:52Z</time>
      </trkpt>
      <trkpt lat="36.761050" lon="-5.018028">
        <ele>864.068</ele>
        <time>2021-09-19T11:53:00Z</time>
      </trkpt>
      <trkpt lat="36.761061" lon="-5.018084">
        <ele>864.464</ele>
        <time>2021-09-19T11:53:03Z</time>
      </trkpt>
      <trkpt lat="36.761058" lon="-5.018156">
        <ele>865.457</ele>
        <time>2021-09-19T11:53:07Z</time>
      </trkpt>
      <trkpt lat="36.761053" lon="-5.018173">
        <ele>865.624</ele>
        <time>2021-09-19T11:53:08Z</time>
      </trkpt>
      <trkpt lat="36.761027" lon="-5.018242">
        <ele>866.692</ele>
        <time>2021-09-19T11:53:12Z</time>
      </trkpt>
      <trkpt lat="36.761002" lon="-5.018288">
        <ele>867.473</ele>
        <time>2021-09-19T11:53:15Z</time>
      </trkpt>
      <trkpt lat="36.760984" lon="-5.018317">
        <ele>867.820</ele>
        <time>2021-09-19T11:53:17Z</time>
      </trkpt>
      <trkpt lat="36.760970" lon="-5.018328">
        <ele>867.808</ele>
        <time>2021-09-19T11:53:18Z</time>
      </trkpt>
      <trkpt lat="36.760933" lon="-5.018372">
        <ele>868.217</ele>
        <time>2021-09-19T11:53:21Z</time>
      </trkpt>
      <trkpt lat="36.760901" lon="-5.018415">
        <ele>868.653</ele>
        <time>2021-09-19T11:53:24Z</time>
      </trkpt>
      <trkpt lat="36.760888" lon="-5.018427">
        <ele>868.671</ele>
        <time>2021-09-19T11:53:25Z</time>
      </trkpt>
      <trkpt lat="36.760843" lon="-5.018513">
        <ele>869.033</ele>
        <time>2021-09-19T11:53:30Z</time>
      </trkpt>
      <trkpt lat="36.760828" lon="-5.018549">
        <ele>869.856</ele>
        <time>2021-09-19T11:53:32Z</time>
      </trkpt>
      <trkpt lat="36.760798" lon="-5.018612">
        <ele>870.422</ele>
        <time>2021-09-19T11:53:36Z</time>
      </trkpt>
      <trkpt lat="36.760792" lon="-5.018627">
        <ele>870.895</ele>
        <time>2021-09-19T11:53:37Z</time>
      </trkpt>
      <trkpt lat="36.760766" lon="-5.018712">
        <ele>871.842</ele>
        <time>2021-09-19T11:53:42Z</time>
      </trkpt>
      <trkpt lat="36.760760" lon="-5.018745">
        <ele>872.089</ele>
        <time>2021-09-19T11:53:44Z</time>
      </trkpt>
      <trkpt lat="36.760732" lon="-5.018807">
        <ele>873.006</ele>
        <time>2021-09-19T11:53:48Z</time>
      </trkpt>
      <trkpt lat="36.760730" lon="-5.018822">
        <ele>873.026</ele>
        <time>2021-09-19T11:53:49Z</time>
      </trkpt>
      <trkpt lat="36.760730" lon="-5.018829">
        <ele>873.208</ele>
        <time>2021-09-19T11:53:50Z</time>
      </trkpt>
      <trkpt lat="36.760730" lon="-5.018829">
        <ele>873.696</ele>
        <time>2021-09-19T11:53:51Z</time>
      </trkpt>
      <trkpt lat="36.760357" lon="-5.019670">
        <ele>887.672</ele>
        <time>2021-09-19T11:55:38Z</time>
      </trkpt>
      <trkpt lat="36.760350" lon="-5.019694">
        <ele>887.620</ele>
        <time>2021-09-19T11:55:39Z</time>
      </trkpt>
      <trkpt lat="36.760339" lon="-5.019722">
        <ele>887.662</ele>
        <time>2021-09-19T11:55:40Z</time>
      </trkpt>
      <trkpt lat="36.760293" lon="-5.019889">
        <ele>887.665</ele>
        <time>2021-09-19T11:55:45Z</time>
      </trkpt>
      <trkpt lat="36.760284" lon="-5.019923">
        <ele>887.821</ele>
        <time>2021-09-19T11:55:46Z</time>
      </trkpt>
      <trkpt lat="36.760227" lon="-5.020080">
        <ele>888.414</ele>
        <time>2021-09-19T11:55:51Z</time>
      </trkpt>
      <trkpt lat="36.760168" lon="-5.020224">
        <ele>888.651</ele>
        <time>2021-09-19T11:55:56Z</time>
      </trkpt>
      <trkpt lat="36.760157" lon="-5.020247">
        <ele>888.665</ele>
        <time>2021-09-19T11:55:57Z</time>
      </trkpt>
      <trkpt lat="36.760068" lon="-5.020421">
        <ele>889.468</ele>
        <time>2021-09-19T11:56:04Z</time>
      </trkpt>
      <trkpt lat="36.760056" lon="-5.020443">
        <ele>889.614</ele>
        <time>2021-09-19T11:56:05Z</time>
      </trkpt>
      <trkpt lat="36.760017" lon="-5.020506">
        <ele>889.808</ele>
        <time>2021-09-19T11:56:08Z</time>
      </trkpt>
      <trkpt lat="36.759997" lon="-5.020557">
        <ele>890.034</ele>
        <time>2021-09-19T11:56:10Z</time>
      </trkpt>
      <trkpt lat="36.759933" lon="-5.020679">
        <ele>890.470</ele>
        <time>2021-09-19T11:56:16Z</time>
      </trkpt>
      <trkpt lat="36.759911" lon="-5.020745">
        <ele>890.648</ele>
        <time>2021-09-19T11:56:21Z</time>
      </trkpt>
      <trkpt lat="36.759862" lon="-5.020864">
        <ele>890.860</ele>
        <time>2021-09-19T11:56:29Z</time>
      </trkpt>
      <trkpt lat="36.759791" lon="-5.021016">
        <ele>890.633</ele>
        <time>2021-09-19T11:56:35Z</time>
      </trkpt>
      <trkpt lat="36.759720" lon="-5.021230">
        <ele>890.229</ele>
        <time>2021-09-19T11:56:42Z</time>
      </trkpt>
      <trkpt lat="36.759614" lon="-5.021464">
        <ele>889.252</ele>
        <time>2021-09-19T11:56:49Z</time>
      </trkpt>
      <trkpt lat="36.759518" lon="-5.021645">
        <ele>888.029</ele>
        <time>2021-09-19T11:56:54Z</time>
      </trkpt>
      <trkpt lat="36.759499" lon="-5.021674">
        <ele>887.688</ele>
        <time>2021-09-19T11:56:55Z</time>
      </trkpt>
      <trkpt lat="36.759451" lon="-5.021749">
        <ele>886.824</ele>
        <time>2021-09-19T11:56:59Z</time>
      </trkpt>
      <trkpt lat="36.759434" lon="-5.021771">
        <ele>886.626</ele>
        <time>2021-09-19T11:57:00Z</time>
      </trkpt>
      <trkpt lat="36.759396" lon="-5.021824">
        <ele>885.408</ele>
        <time>2021-09-19T11:57:02Z</time>
      </trkpt>
      <trkpt lat="36.759355" lon="-5.021878">
        <ele>884.066</ele>
        <time>2021-09-19T11:57:04Z</time>
      </trkpt>
      <trkpt lat="36.759318" lon="-5.021930">
        <ele>883.442</ele>
        <time>2021-09-19T11:57:06Z</time>
      </trkpt>
      <trkpt lat="36.759283" lon="-5.021978">
        <ele>882.830</ele>
        <time>2021-09-19T11:57:08Z</time>
      </trkpt>
      <trkpt lat="36.759214" lon="-5.022092">
        <ele>881.842</ele>
        <time>2021-09-19T11:57:12Z</time>
      </trkpt>
      <trkpt lat="36.759145" lon="-5.022280">
        <ele>880.695</ele>
        <time>2021-09-19T11:57:17Z</time>
      </trkpt>
      <trkpt lat="36.759074" lon="-5.022443">
        <ele>879.491</ele>
        <time>2021-09-19T11:57:21Z</time>
      </trkpt>
      <trkpt lat="36.759058" lon="-5.022491">
        <ele>879.224</ele>
        <time>2021-09-19T11:57:22Z</time>
      </trkpt>
      <trkpt lat="36.759010" lon="-5.022614">
        <ele>878.891</ele>
        <time>2021-09-19T11:57:26Z</time>
      </trkpt>
      <trkpt lat="36.758972" lon="-5.022704">
        <ele>878.491</ele>
        <time>2021-09-19T11:57:29Z</time>
      </trkpt>
      <trkpt lat="36.758950" lon="-5.022772">
        <ele>877.881</ele>
        <time>2021-09-19T11:57:31Z</time>
      </trkpt>
      <trkpt lat="36.758935" lon="-5.022833">
        <ele>877.219</ele>
        <time>2021-09-19T11:57:33Z</time>
      </trkpt>
      <trkpt lat="36.758932" lon="-5.022933">
        <ele>877.008</ele>
        <time>2021-09-19T11:57:37Z</time>
      </trkpt>
      <trkpt lat="36.758930" lon="-5.022953">
        <ele>877.097</ele>
        <time>2021-09-19T11:57:38Z</time>
      </trkpt>
      <trkpt lat="36.758927" lon="-5.022974">
        <ele>876.893</ele>
        <time>2021-09-19T11:57:41Z</time>
      </trkpt>
      <trkpt lat="36.758890" lon="-5.023397">
        <ele>881.691</ele>
        <time>2021-09-19T11:58:37Z</time>
      </trkpt>
      <trkpt lat="36.758877" lon="-5.023448">
        <ele>881.653</ele>
        <time>2021-09-19T11:58:39Z</time>
      </trkpt>
      <trkpt lat="36.758846" lon="-5.023580">
        <ele>882.076</ele>
        <time>2021-09-19T11:58:44Z</time>
      </trkpt>
      <trkpt lat="36.758763" lon="-5.023814">
        <ele>882.012</ele>
        <time>2021-09-19T11:58:51Z</time>
      </trkpt>
      <trkpt lat="36.758648" lon="-5.024013">
        <ele>881.895</ele>
        <time>2021-09-19T11:58:57Z</time>
      </trkpt>
      <trkpt lat="36.758631" lon="-5.024040">
        <ele>881.492</ele>
        <time>2021-09-19T11:59:01Z</time>
      </trkpt>
      <trkpt lat="36.758570" lon="-5.024219">
        <ele>879.614</ele>
        <time>2021-09-19T11:59:21Z</time>
      </trkpt>
      <trkpt lat="36.758564" lon="-5.024243">
        <ele>879.654</ele>
        <time>2021-09-19T11:59:22Z</time>
      </trkpt>
      <trkpt lat="36.758513" lon="-5.024360">
        <ele>879.609</ele>
        <time>2021-09-19T11:59:28Z</time>
      </trkpt>
      <trkpt lat="36.758455" lon="-5.024462">
        <ele>880.208</ele>
        <time>2021-09-19T11:59:34Z</time>
      </trkpt>
      <trkpt lat="36.758423" lon="-5.024518">
        <ele>880.649</ele>
        <time>2021-09-19T11:59:37Z</time>
      </trkpt>
      <trkpt lat="36.758393" lon="-5.024563">
        <ele>880.835</ele>
        <time>2021-09-19T11:59:40Z</time>
      </trkpt>
      <trkpt lat="36.758359" lon="-5.024628">
        <ele>881.643</ele>
        <time>2021-09-19T11:59:44Z</time>
      </trkpt>
      <trkpt lat="36.758343" lon="-5.024663">
        <ele>882.065</ele>
        <time>2021-09-19T11:59:46Z</time>
      </trkpt>
      <trkpt lat="36.758337" lon="-5.024676">
        <ele>882.498</ele>
        <time>2021-09-19T11:59:48Z</time>
      </trkpt>
      <trkpt lat="36.758220" lon="-5.024943">
        <ele>883.224</ele>
        <time>2021-09-19T12:00:19Z</time>
      </trkpt>
      <trkpt lat="36.758212" lon="-5.024956">
        <ele>883.217</ele>
        <time>2021-09-19T12:00:20Z</time>
      </trkpt>
      <trkpt lat="36.758170" lon="-5.025019">
        <ele>883.094</ele>
        <time>2021-09-19T12:00:25Z</time>
      </trkpt>
      <trkpt lat="36.758166" lon="-5.025032">
        <ele>883.087</ele>
        <time>2021-09-19T12:00:26Z</time>
      </trkpt>
      <trkpt lat="36.758132" lon="-5.025086">
        <ele>882.642</ele>
        <time>2021-09-19T12:00:32Z</time>
      </trkpt>
      <trkpt lat="36.758088" lon="-5.025132">
        <ele>882.226</ele>
        <time>2021-09-19T12:00:37Z</time>
      </trkpt>
      <trkpt lat="36.758064" lon="-5.025156">
        <ele>882.008</ele>
        <time>2021-09-19T12:00:40Z</time>
      </trkpt>
      <trkpt lat="36.758032" lon="-5.025190">
        <ele>881.686</ele>
        <time>2021-09-19T12:00:44Z</time>
      </trkpt>
      <trkpt lat="36.757987" lon="-5.025245">
        <ele>881.442</ele>
        <time>2021-09-19T12:00:50Z</time>
      </trkpt>
      <trkpt lat="36.757944" lon="-5.025279">
        <ele>880.850</ele>
        <time>2021-09-19T12:00:55Z</time>
      </trkpt>
      <trkpt lat="36.757937" lon="-5.025314">
        <ele>880.852</ele>
        <time>2021-09-19T12:00:58Z</time>
      </trkpt>
      <trkpt lat="36.757897" lon="-5.025402">
        <ele>880.255</ele>
        <time>2021-09-19T12:01:06Z</time>
      </trkpt>
      <trkpt lat="36.757893" lon="-5.025438">
        <ele>879.871</ele>
        <time>2021-09-19T12:01:09Z</time>
      </trkpt>
      <trkpt lat="36.757888" lon="-5.025463">
        <ele>879.874</ele>
        <time>2021-09-19T12:01:11Z</time>
      </trkpt>
      <trkpt lat="36.757867" lon="-5.025515">
        <ele>879.871</ele>
        <time>2021-09-19T12:01:16Z</time>
      </trkpt>
      <trkpt lat="36.757840" lon="-5.025579">
        <ele>880.044</ele>
        <time>2021-09-19T12:01:23Z</time>
      </trkpt>
      <trkpt lat="36.757809" lon="-5.025668">
        <ele>881.205</ele>
        <time>2021-09-19T12:01:32Z</time>
      </trkpt>
      <trkpt lat="36.757818" lon="-5.025674">
        <ele>881.615</ele>
        <time>2021-09-19T12:01:34Z</time>
      </trkpt>
      <trkpt lat="36.757812" lon="-5.025690">
        <ele>882.008</ele>
        <time>2021-09-19T12:01:38Z</time>
      </trkpt>
      <trkpt lat="36.757801" lon="-5.025708">
        <ele>882.622</ele>
        <time>2021-09-19T12:01:41Z</time>
      </trkpt>
      <trkpt lat="36.757789" lon="-5.025727">
        <ele>883.218</ele>
        <time>2021-09-19T12:01:45Z</time>
      </trkpt>
      <trkpt lat="36.757788" lon="-5.025727">
        <ele>883.496</ele>
        <time>2021-09-19T12:01:46Z</time>
      </trkpt>
      <trkpt lat="36.756857" lon="-5.028416">
        <ele>942.218</ele>
        <time>2021-09-19T12:10:41Z</time>
      </trkpt>
      <trkpt lat="36.756852" lon="-5.028444">
        <ele>942.461</ele>
        <time>2021-09-19T12:10:42Z</time>
      </trkpt>
      <trkpt lat="36.756850" lon="-5.028474">
        <ele>942.457</ele>
        <time>2021-09-19T12:10:43Z</time>
      </trkpt>
      <trkpt lat="36.756866" lon="-5.028556">
        <ele>942.480</ele>
        <time>2021-09-19T12:10:46Z</time>
      </trkpt>
      <trkpt lat="36.756878" lon="-5.028618">
        <ele>942.477</ele>
        <time>2021-09-19T12:10:48Z</time>
      </trkpt>
      <trkpt lat="36.756911" lon="-5.028788">
        <ele>942.667</ele>
        <time>2021-09-19T12:10:54Z</time>
      </trkpt>
      <trkpt lat="36.756945" lon="-5.028925">
        <ele>943.081</ele>
        <time>2021-09-19T12:10:59Z</time>
      </trkpt>
      <trkpt lat="36.756964" lon="-5.029005">
        <ele>943.619</ele>
        <time>2021-09-19T12:11:02Z</time>
      </trkpt>
      <trkpt lat="36.756971" lon="-5.029032">
        <ele>943.808</ele>
        <time>2021-09-19T12:11:03Z</time>
      </trkpt>
      <trkpt lat="36.757000" lon="-5.029145">
        <ele>943.844</ele>
        <time>2021-09-19T12:11:07Z</time>
      </trkpt>
      <trkpt lat="36.757019" lon="-5.029220">
        <ele>944.410</ele>
        <time>2021-09-19T12:11:10Z</time>
      </trkpt>
      <trkpt lat="36.757028" lon="-5.029239">
        <ele>944.498</ele>
        <time>2021-09-19T12:11:11Z</time>
      </trkpt>
      <trkpt lat="36.757059" lon="-5.029339">
        <ele>945.040</ele>
        <time>2021-09-19T12:11:16Z</time>
      </trkpt>
      <trkpt lat="36.757069" lon="-5.029400">
        <ele>945.483</ele>
        <time>2021-09-19T12:11:19Z</time>
      </trkpt>
      <trkpt lat="36.757077" lon="-5.029505">
        <ele>946.479</ele>
        <time>2021-09-19T12:11:25Z</time>
      </trkpt>
      <trkpt lat="36.757075" lon="-5.029506">
        <ele>946.612</ele>
        <time>2021-09-19T12:11:26Z</time>
      </trkpt>
      <trkpt lat="36.757085" lon="-5.029691">
        <ele>949.239</ele>
        <time>2021-09-19T12:11:40Z</time>
      </trkpt>
      <trkpt lat="36.757087" lon="-5.029715">
        <ele>949.252</ele>
        <time>2021-09-19T12:11:43Z</time>
      </trkpt>
      <trkpt lat="36.757089" lon="-5.029714">
        <ele>949.253</ele>
        <time>2021-09-19T12:11:44Z</time>
      </trkpt>
      <trkpt lat="36.757068" lon="-5.029897">
        <ele>951.408</ele>
        <time>2021-09-19T12:12:02Z</time>
      </trkpt>
      <trkpt lat="36.757052" lon="-5.029939">
        <ele>951.408</ele>
        <time>2021-09-19T12:12:05Z</time>
      </trkpt>
      <trkpt lat="36.757052" lon="-5.030015">
        <ele>952.463</ele>
        <time>2021-09-19T12:12:11Z</time>
      </trkpt>
      <trkpt lat="36.757052" lon="-5.030053">
        <ele>952.839</ele>
        <time>2021-09-19T12:12:14Z</time>
      </trkpt>
      <trkpt lat="36.757052" lon="-5.030085">
        <ele>953.267</ele>
        <time>2021-09-19T12:12:17Z</time>
      </trkpt>
      <trkpt lat="36.757056" lon="-5.030105">
        <ele>953.679</ele>
        <time>2021-09-19T12:12:19Z</time>
      </trkpt>
      <trkpt lat="36.757059" lon="-5.030115">
        <ele>953.872</ele>
        <time>2021-09-19T12:12:21Z</time>
      </trkpt>
      <trkpt lat="36.757059" lon="-5.030117">
        <ele>954.058</ele>
        <time>2021-09-19T12:12:22Z</time>
      </trkpt>
      <trkpt lat="36.757062" lon="-5.030272">
        <ele>956.471</ele>
        <time>2021-09-19T12:12:43Z</time>
      </trkpt>
      <trkpt lat="36.757050" lon="-5.030305">
        <ele>956.848</ele>
        <time>2021-09-19T12:12:46Z</time>
      </trkpt>
      <trkpt lat="36.757042" lon="-5.030332">
        <ele>957.498</ele>
        <time>2021-09-19T12:12:49Z</time>
      </trkpt>
      <trkpt lat="36.757028" lon="-5.030391">
        <ele>958.415</ele>
        <time>2021-09-19T12:12:54Z</time>
      </trkpt>
      <trkpt lat="36.757022" lon="-5.030401">
        <ele>958.426</ele>
        <time>2021-09-19T12:12:55Z</time>
      </trkpt>
      <trkpt lat="36.757005" lon="-5.030466">
        <ele>959.408</ele>
        <time>2021-09-19T12:13:01Z</time>
      </trkpt>
      <trkpt lat="36.757003" lon="-5.030478">
        <ele>959.657</ele>
        <time>2021-09-19T12:13:02Z</time>
      </trkpt>
      <trkpt lat="36.757005" lon="-5.030509">
        <ele>960.823</ele>
        <time>2021-09-19T12:13:06Z</time>
      </trkpt>
      <trkpt lat="36.757013" lon="-5.030572">
        <ele>961.261</ele>
        <time>2021-09-19T12:13:10Z</time>
      </trkpt>
      <trkpt lat="36.757033" lon="-5.030715">
        <ele>961.623</ele>
        <time>2021-09-19T12:13:16Z</time>
      </trkpt>
      <trkpt lat="36.757033" lon="-5.030740">
        <ele>961.616</ele>
        <time>2021-09-19T12:13:17Z</time>
      </trkpt>
      <trkpt lat="36.757005" lon="-5.030878">
        <ele>962.472</ele>
        <time>2021-09-19T12:13:23Z</time>
      </trkpt>
      <trkpt lat="36.757002" lon="-5.030901">
        <ele>962.655</ele>
        <time>2021-09-19T12:13:24Z</time>
      </trkpt>
      <trkpt lat="36.757006" lon="-5.031074">
        <ele>963.232</ele>
        <time>2021-09-19T12:13:31Z</time>
      </trkpt>
      <trkpt lat="36.757008" lon="-5.031119">
        <ele>963.886</ele>
        <time>2021-09-19T12:13:33Z</time>
      </trkpt>
      <trkpt lat="36.757005" lon="-5.031186">
        <ele>964.860</ele>
        <time>2021-09-19T12:13:36Z</time>
      </trkpt>
      <trkpt lat="36.757005" lon="-5.031299">
        <ele>966.026</ele>
        <time>2021-09-19T12:13:41Z</time>
      </trkpt>
      <trkpt lat="36.757004" lon="-5.031344">
        <ele>966.208</ele>
        <time>2021-09-19T12:13:43Z</time>
      </trkpt>
      <trkpt lat="36.757031" lon="-5.031466">
        <ele>967.066</ele>
        <time>2021-09-19T12:13:49Z</time>
      </trkpt>
      <trkpt lat="36.757036" lon="-5.031471">
        <ele>967.272</ele>
        <time>2021-09-19T12:13:50Z</time>
      </trkpt>
      <trkpt lat="36.757036" lon="-5.031473">
        <ele>967.280</ele>
        <time>2021-09-19T12:13:51Z</time>
      </trkpt>
      <trkpt lat="36.756963" lon="-5.031531">
        <ele>968.252</ele>
        <time>2021-09-19T12:14:00Z</time>
      </trkpt>
      <trkpt lat="36.756916" lon="-5.031551">
        <ele>968.445</ele>
        <time>2021-09-19T12:14:02Z</time>
      </trkpt>
      <trkpt lat="36.756758" lon="-5.031633">
        <ele>968.431</ele>
        <time>2021-09-19T12:14:09Z</time>
      </trkpt>
      <trkpt lat="36.756629" lon="-5.031746">
        <ele>968.824</ele>
        <time>2021-09-19T12:14:17Z</time>
      </trkpt>
      <trkpt lat="36.756599" lon="-5.031800">
        <ele>969.481</ele>
        <time>2021-09-19T12:14:19Z</time>
      </trkpt>
      <trkpt lat="36.756511" lon="-5.031901">
        <ele>969.815</ele>
        <time>2021-09-19T12:14:23Z</time>
      </trkpt>
      <trkpt lat="36.756338" lon="-5.032014">
        <ele>970.065</ele>
        <time>2021-09-19T12:14:29Z</time>
      </trkpt>
      <trkpt lat="36.756174" lon="-5.032087">
        <ele>969.611</ele>
        <time>2021-09-19T12:14:35Z</time>
      </trkpt>
      <trkpt lat="36.756148" lon="-5.032105">
        <ele>969.608</ele>
        <time>2021-09-19T12:14:36Z</time>
      </trkpt>
      <trkpt lat="36.756128" lon="-5.032140">
        <ele>969.669</ele>
        <time>2021-09-19T12:14:39Z</time>
      </trkpt>
      <trkpt lat="36.756116" lon="-5.032179">
        <ele>969.215</ele>
        <time>2021-09-19T12:15:23Z</time>
      </trkpt>
      <trkpt lat="36.756105" lon="-5.032200">
        <ele>969.273</ele>
        <time>2021-09-19T12:15:24Z</time>
      </trkpt>
      <trkpt lat="36.756090" lon="-5.032223">
        <ele>969.235</ele>
        <time>2021-09-19T12:15:25Z</time>
      </trkpt>
      <trkpt lat="36.755961" lon="-5.032428">
        <ele>969.038</ele>
        <time>2021-09-19T12:15:31Z</time>
      </trkpt>
      <trkpt lat="36.755900" lon="-5.032511">
        <ele>969.044</ele>
        <time>2021-09-19T12:15:33Z</time>
      </trkpt>
      <trkpt lat="36.755863" lon="-5.032617">
        <ele>969.027</ele>
        <time>2021-09-19T12:15:35Z</time>
      </trkpt>
      <trkpt lat="36.755832" lon="-5.032714">
        <ele>968.644</ele>
        <time>2021-09-19T12:15:37Z</time>
      </trkpt>
      <trkpt lat="36.755786" lon="-5.032791">
        <ele>968.259</ele>
        <time>2021-09-19T12:15:39Z</time>
      </trkpt>
      <trkpt lat="36.755755" lon="-5.032820">
        <ele>968.003</ele>
        <time>2021-09-19T12:15:40Z</time>
      </trkpt>
      <trkpt lat="36.755565" lon="-5.033022">
        <ele>967.423</ele>
        <time>2021-09-19T12:15:47Z</time>
      </trkpt>
      <trkpt lat="36.755528" lon="-5.033080">
        <ele>967.208</ele>
        <time>2021-09-19T12:15:49Z</time>
      </trkpt>
      <trkpt lat="36.755520" lon="-5.033127">
        <ele>967.013</ele>
        <time>2021-09-19T12:15:51Z</time>
      </trkpt>
      <trkpt lat="36.755520" lon="-5.033169">
        <ele>967.049</ele>
        <time>2021-09-19T12:15:53Z</time>
      </trkpt>
      <trkpt lat="36.755497" lon="-5.033230">
        <ele>966.857</ele>
        <time>2021-09-19T12:15:56Z</time>
      </trkpt>
      <trkpt lat="36.755430" lon="-5.033362">
        <ele>966.659</ele>
        <time>2021-09-19T12:16:01Z</time>
      </trkpt>
      <trkpt lat="36.755418" lon="-5.033390">
        <ele>966.652</ele>
        <time>2021-09-19T12:16:02Z</time>
      </trkpt>
      <trkpt lat="36.755349" lon="-5.033559">
        <ele>966.858</ele>
        <time>2021-09-19T12:16:08Z</time>
      </trkpt>
      <trkpt lat="36.755326" lon="-5.033652">
        <ele>967.071</ele>
        <time>2021-09-19T12:16:11Z</time>
      </trkpt>
      <trkpt lat="36.755248" lon="-5.033836">
        <ele>967.428</ele>
        <time>2021-09-19T12:16:17Z</time>
      </trkpt>
      <trkpt lat="36.755234" lon="-5.033867">
        <ele>967.616</ele>
        <time>2021-09-19T12:16:18Z</time>
      </trkpt>
      <trkpt lat="36.755174" lon="-5.034012">
        <ele>968.076</ele>
        <time>2021-09-19T12:16:23Z</time>
      </trkpt>
      <trkpt lat="36.755139" lon="-5.034105">
        <ele>968.213</ele>
        <time>2021-09-19T12:16:26Z</time>
      </trkpt>
      <trkpt lat="36.755063" lon="-5.034372">
        <ele>969.208</ele>
        <time>2021-09-19T12:16:35Z</time>
      </trkpt>
      <trkpt lat="36.755039" lon="-5.034479">
        <ele>970.219</ele>
        <time>2021-09-19T12:16:39Z</time>
      </trkpt>
      <trkpt lat="36.755028" lon="-5.034533">
        <ele>970.415</ele>
        <time>2021-09-19T12:16:41Z</time>
      </trkpt>
      <trkpt lat="36.754985" lon="-5.034688">
        <ele>971.433</ele>
        <time>2021-09-19T12:16:47Z</time>
      </trkpt>
      <trkpt lat="36.754980" lon="-5.034713">
        <ele>971.615</ele>
        <time>2021-09-19T12:16:48Z</time>
      </trkpt>
      <trkpt lat="36.754959" lon="-5.034765">
        <ele>972.298</ele>
        <time>2021-09-19T12:16:52Z</time>
      </trkpt>
      <trkpt lat="36.754957" lon="-5.034768">
        <ele>972.414</ele>
        <time>2021-09-19T12:16:53Z</time>
      </trkpt>
      <trkpt lat="36.754903" lon="-5.034808">
        <ele>973.637</ele>
        <time>2021-09-19T12:17:33Z</time>
      </trkpt>
      <trkpt lat="36.754862" lon="-5.034862">
        <ele>973.634</ele>
        <time>2021-09-19T12:17:36Z</time>
      </trkpt>
      <trkpt lat="36.754827" lon="-5.034910">
        <ele>973.644</ele>
        <time>2021-09-19T12:17:38Z</time>
      </trkpt>
      <trkpt lat="36.754763" lon="-5.035037">
        <ele>974.005</ele>
        <time>2021-09-19T12:17:42Z</time>
      </trkpt>
      <trkpt lat="36.754636" lon="-5.035297">
        <ele>974.415</ele>
        <time>2021-09-19T12:17:49Z</time>
      </trkpt>
      <trkpt lat="36.754541" lon="-5.035501">
        <ele>974.608</ele>
        <time>2021-09-19T12:17:54Z</time>
      </trkpt>
      <trkpt lat="36.754443" lon="-5.035703">
        <ele>975.222</ele>
        <time>2021-09-19T12:17:59Z</time>
      </trkpt>
      <trkpt lat="36.754363" lon="-5.035910">
        <ele>976.048</ele>
        <time>2021-09-19T12:18:04Z</time>
      </trkpt>
      <trkpt lat="36.754342" lon="-5.035999">
        <ele>976.246</ele>
        <time>2021-09-19T12:18:06Z</time>
      </trkpt>
      <trkpt lat="36.754297" lon="-5.036191">
        <ele>977.078</ele>
        <time>2021-09-19T12:18:10Z</time>
      </trkpt>
      <trkpt lat="36.754254" lon="-5.036409">
        <ele>977.451</ele>
        <time>2021-09-19T12:18:14Z</time>
      </trkpt>
      <trkpt lat="36.754201" lon="-5.036695">
        <ele>977.447</ele>
        <time>2021-09-19T12:18:19Z</time>
      </trkpt>
      <trkpt lat="36.754183" lon="-5.036783">
        <ele>977.470</ele>
        <time>2021-09-19T12:18:21Z</time>
      </trkpt>
      <trkpt lat="36.754174" lon="-5.036816">
        <ele>977.467</ele>
        <time>2021-09-19T12:18:24Z</time>
      </trkpt>
      <trkpt lat="36.754133" lon="-5.036870">
        <ele>977.472</ele>
        <time>2021-09-19T12:18:42Z</time>
      </trkpt>
      <trkpt lat="36.754105" lon="-5.036929">
        <ele>977.613</ele>
        <time>2021-09-19T12:18:44Z</time>
      </trkpt>
      <trkpt lat="36.754051" lon="-5.037045">
        <ele>977.614</ele>
        <time>2021-09-19T12:18:47Z</time>
      </trkpt>
      <trkpt lat="36.753980" lon="-5.037211">
        <ele>977.608</ele>
        <time>2021-09-19T12:18:51Z</time>
      </trkpt>
      <trkpt lat="36.753898" lon="-5.037472">
        <ele>978.025</ele>
        <time>2021-09-19T12:18:57Z</time>
      </trkpt>
      <trkpt lat="36.753883" lon="-5.037517">
        <ele>978.051</ele>
        <time>2021-09-19T12:18:58Z</time>
      </trkpt>
      <trkpt lat="36.753745" lon="-5.037882">
        <ele>978.439</ele>
        <time>2021-09-19T12:19:07Z</time>
      </trkpt>
      <trkpt lat="36.753691" lon="-5.037972">
        <ele>979.021</ele>
        <time>2021-09-19T12:19:10Z</time>
      </trkpt>
      <trkpt lat="36.753608" lon="-5.038073">
        <ele>979.824</ele>
        <time>2021-09-19T12:19:14Z</time>
      </trkpt>
      <trkpt lat="36.753583" lon="-5.038092">
        <ele>980.090</ele>
        <time>2021-09-19T12:19:15Z</time>
      </trkpt>
      <trkpt lat="36.753494" lon="-5.038174">
        <ele>980.853</ele>
        <time>2021-09-19T12:19:19Z</time>
      </trkpt>
      <trkpt lat="36.753472" lon="-5.038196">
        <ele>981.290</ele>
        <time>2021-09-19T12:19:20Z</time>
      </trkpt>
      <trkpt lat="36.753368" lon="-5.038308">
        <ele>982.096</ele>
        <time>2021-09-19T12:19:25Z</time>
      </trkpt>
      <trkpt lat="36.753329" lon="-5.038347">
        <ele>982.431</ele>
        <time>2021-09-19T12:19:27Z</time>
      </trkpt>
      <trkpt lat="36.753268" lon="-5.038406">
        <ele>983.224</ele>
        <time>2021-09-19T12:19:30Z</time>
      </trkpt>
      <trkpt lat="36.753216" lon="-5.038491">
        <ele>983.608</ele>
        <time>2021-09-19T12:19:33Z</time>
      </trkpt>
      <trkpt lat="36.753156" lon="-5.038569">
        <ele>984.217</ele>
        <time>2021-09-19T12:19:36Z</time>
      </trkpt>
      <trkpt lat="36.753030" lon="-5.038709">
        <ele>985.283</ele>
        <time>2021-09-19T12:19:42Z</time>
      </trkpt>
      <trkpt lat="36.752946" lon="-5.038783">
        <ele>985.651</ele>
        <time>2021-09-19T12:19:46Z</time>
      </trkpt>
      <trkpt lat="36.752880" lon="-5.038830">
        <ele>985.853</ele>
        <time>2021-09-19T12:19:49Z</time>
      </trkpt>
      <trkpt lat="36.752772" lon="-5.038911">
        <ele>986.476</ele>
        <time>2021-09-19T12:19:54Z</time>
      </trkpt>
      <trkpt lat="36.752731" lon="-5.038945">
        <ele>986.842</ele>
        <time>2021-09-19T12:19:56Z</time>
      </trkpt>
      <trkpt lat="36.752693" lon="-5.038977">
        <ele>987.445</ele>
        <time>2021-09-19T12:19:58Z</time>
      </trkpt>
      <trkpt lat="36.752574" lon="-5.039095">
        <ele>988.452</ele>
        <time>2021-09-19T12:20:04Z</time>
      </trkpt>
      <trkpt lat="36.752557" lon="-5.039117">
        <ele>988.845</ele>
        <time>2021-09-19T12:20:05Z</time>
      </trkpt>
      <trkpt lat="36.752513" lon="-5.039193">
        <ele>989.647</ele>
        <time>2021-09-19T12:20:08Z</time>
      </trkpt>
      <trkpt lat="36.752462" lon="-5.039320">
        <ele>990.411</ele>
        <time>2021-09-19T12:20:12Z</time>
      </trkpt>
      <trkpt lat="36.752448" lon="-5.039347">
        <ele>990.608</ele>
        <time>2021-09-19T12:20:13Z</time>
      </trkpt>
      <trkpt lat="36.752366" lon="-5.039508">
        <ele>991.852</ele>
        <time>2021-09-19T12:20:19Z</time>
      </trkpt>
      <trkpt lat="36.752343" lon="-5.039558">
        <ele>992.098</ele>
        <time>2021-09-19T12:20:21Z</time>
      </trkpt>
      <trkpt lat="36.752275" lon="-5.039722">
        <ele>992.876</ele>
        <time>2021-09-19T12:20:27Z</time>
      </trkpt>
      <trkpt lat="36.752249" lon="-5.039777">
        <ele>993.048</ele>
        <time>2021-09-19T12:20:29Z</time>
      </trkpt>
      <trkpt lat="36.752185" lon="-5.039922">
        <ele>993.861</ele>
        <time>2021-09-19T12:20:34Z</time>
      </trkpt>
      <trkpt lat="36.752168" lon="-5.039983">
        <ele>994.257</ele>
        <time>2021-09-19T12:20:36Z</time>
      </trkpt>
      <trkpt lat="36.752112" lon="-5.040112">
        <ele>995.020</ele>
        <time>2021-09-19T12:20:41Z</time>
      </trkpt>
      <trkpt lat="36.752104" lon="-5.040140">
        <ele>995.487</ele>
        <time>2021-09-19T12:20:42Z</time>
      </trkpt>
      <trkpt lat="36.752061" lon="-5.040279">
        <ele>996.236</ele>
        <time>2021-09-19T12:20:47Z</time>
      </trkpt>
      <trkpt lat="36.752015" lon="-5.040386">
        <ele>997.217</ele>
        <time>2021-09-19T12:20:51Z</time>
      </trkpt>
      <trkpt lat="36.751990" lon="-5.040441">
        <ele>997.618</ele>
        <time>2021-09-19T12:20:53Z</time>
      </trkpt>
      <trkpt lat="36.751955" lon="-5.040526">
        <ele>998.208</ele>
        <time>2021-09-19T12:20:56Z</time>
      </trkpt>
      <trkpt lat="36.751904" lon="-5.040702">
        <ele>999.261</ele>
        <time>2021-09-19T12:21:02Z</time>
      </trkpt>
      <trkpt lat="36.751897" lon="-5.040732">
        <ele>999.477</ele>
        <time>2021-09-19T12:21:03Z</time>
      </trkpt>
      <trkpt lat="36.751853" lon="-5.040906">
        <ele>1000.475</ele>
        <time>2021-09-19T12:21:09Z</time>
      </trkpt>
      <trkpt lat="36.751829" lon="-5.040992">
        <ele>1000.877</ele>
        <time>2021-09-19T12:21:12Z</time>
      </trkpt>
      <trkpt lat="36.751785" lon="-5.041118">
        <ele>1001.680</ele>
        <time>2021-09-19T12:21:17Z</time>
      </trkpt>
      <trkpt lat="36.751776" lon="-5.041141">
        <ele>1001.846</ele>
        <time>2021-09-19T12:21:18Z</time>
      </trkpt>
      <trkpt lat="36.751730" lon="-5.041253">
        <ele>1002.829</ele>
        <time>2021-09-19T12:21:23Z</time>
      </trkpt>
      <trkpt lat="36.751722" lon="-5.041294">
        <ele>1003.066</ele>
        <time>2021-09-19T12:21:25Z</time>
      </trkpt>
      <trkpt lat="36.751711" lon="-5.041399">
        <ele>1003.875</ele>
        <time>2021-09-19T12:21:30Z</time>
      </trkpt>
      <trkpt lat="36.751707" lon="-5.041462">
        <ele>1004.428</ele>
        <time>2021-09-19T12:21:33Z</time>
      </trkpt>
      <trkpt lat="36.751704" lon="-5.041522">
        <ele>1004.820</ele>
        <time>2021-09-19T12:21:36Z</time>
      </trkpt>
      <trkpt lat="36.751716" lon="-5.041601">
        <ele>1006.008</ele>
        <time>2021-09-19T12:21:40Z</time>
      </trkpt>
      <trkpt lat="36.751715" lon="-5.041621">
        <ele>1006.235</ele>
        <time>2021-09-19T12:21:41Z</time>
      </trkpt>
      <trkpt lat="36.751704" lon="-5.041705">
        <ele>1007.231</ele>
        <time>2021-09-19T12:21:45Z</time>
      </trkpt>
      <trkpt lat="36.751694" lon="-5.041771">
        <ele>1008.479</ele>
        <time>2021-09-19T12:21:48Z</time>
      </trkpt>
      <trkpt lat="36.751692" lon="-5.041791">
        <ele>1008.621</ele>
        <time>2021-09-19T12:21:49Z</time>
      </trkpt>
      <trkpt lat="36.751674" lon="-5.041874">
        <ele>1009.644</ele>
        <time>2021-09-19T12:21:53Z</time>
      </trkpt>
      <trkpt lat="36.751658" lon="-5.041964">
        <ele>1010.670</ele>
        <time>2021-09-19T12:21:57Z</time>
      </trkpt>
      <trkpt lat="36.751641" lon="-5.042169">
        <ele>1011.893</ele>
        <time>2021-09-19T12:22:05Z</time>
      </trkpt>
      <trkpt lat="36.751619" lon="-5.042325">
        <ele>1013.230</ele>
        <time>2021-09-19T12:22:11Z</time>
      </trkpt>
      <trkpt lat="36.751612" lon="-5.042402">
        <ele>1013.875</ele>
        <time>2021-09-19T12:22:14Z</time>
      </trkpt>
      <trkpt lat="36.751608" lon="-5.042427">
        <ele>1014.028</ele>
        <time>2021-09-19T12:22:15Z</time>
      </trkpt>
      <trkpt lat="36.751564" lon="-5.042531">
        <ele>1015.020</ele>
        <time>2021-09-19T12:22:20Z</time>
      </trkpt>
      <trkpt lat="36.751546" lon="-5.042544">
        <ele>1015.408</ele>
        <time>2021-09-19T12:22:21Z</time>
      </trkpt>
      <trkpt lat="36.751458" lon="-5.042531">
        <ele>1015.885</ele>
        <time>2021-09-19T12:22:25Z</time>
      </trkpt>
      <trkpt lat="36.751419" lon="-5.042502">
        <ele>1016.261</ele>
        <time>2021-09-19T12:22:27Z</time>
      </trkpt>
      <trkpt lat="36.751308" lon="-5.042416">
        <ele>1017.229</ele>
        <time>2021-09-19T12:22:33Z</time>
      </trkpt>
      <trkpt lat="36.751202" lon="-5.042337">
        <ele>1018.431</ele>
        <time>2021-09-19T12:22:39Z</time>
      </trkpt>
      <trkpt lat="36.751161" lon="-5.042307">
        <ele>1018.824</ele>
        <time>2021-09-19T12:22:41Z</time>
      </trkpt>
      <trkpt lat="36.751114" lon="-5.042278">
        <ele>1019.630</ele>
        <time>2021-09-19T12:22:43Z</time>
      </trkpt>
      <trkpt lat="36.751041" lon="-5.042242">
        <ele>1020.893</ele>
        <time>2021-09-19T12:22:46Z</time>
      </trkpt>
      <trkpt lat="36.750976" lon="-5.042196">
        <ele>1021.460</ele>
        <time>2021-09-19T12:22:49Z</time>
      </trkpt>
      <trkpt lat="36.750852" lon="-5.042085">
        <ele>1022.054</ele>
        <time>2021-09-19T12:22:55Z</time>
      </trkpt>
      <trkpt lat="36.750831" lon="-5.042063">
        <ele>1022.056</ele>
        <time>2021-09-19T12:22:56Z</time>
      </trkpt>
      <trkpt lat="36.750695" lon="-5.041974">
        <ele>1023.011</ele>
        <time>2021-09-19T12:23:02Z</time>
      </trkpt>
      <trkpt lat="36.750572" lon="-5.041850">
        <ele>1024.208</ele>
        <time>2021-09-19T12:23:08Z</time>
      </trkpt>
      <trkpt lat="36.750557" lon="-5.041824">
        <ele>1024.293</ele>
        <time>2021-09-19T12:23:09Z</time>
      </trkpt>
      <trkpt lat="36.750502" lon="-5.041662">
        <ele>1025.239</ele>
        <time>2021-09-19T12:23:15Z</time>
      </trkpt>
      <trkpt lat="36.750438" lon="-5.041548">
        <ele>1026.247</ele>
        <time>2021-09-19T12:23:20Z</time>
      </trkpt>
      <trkpt lat="36.750403" lon="-5.041511">
        <ele>1026.499</ele>
        <time>2021-09-19T12:23:22Z</time>
      </trkpt>
      <trkpt lat="36.750306" lon="-5.041433">
        <ele>1027.242</ele>
        <time>2021-09-19T12:23:27Z</time>
      </trkpt>
      <trkpt lat="36.750246" lon="-5.041397">
        <ele>1028.248</ele>
        <time>2021-09-19T12:23:30Z</time>
      </trkpt>
      <trkpt lat="36.750225" lon="-5.041386">
        <ele>1028.461</ele>
        <time>2021-09-19T12:23:31Z</time>
      </trkpt>
      <trkpt lat="36.750108" lon="-5.041300">
        <ele>1029.458</ele>
        <time>2021-09-19T12:23:37Z</time>
      </trkpt>
      <trkpt lat="36.750085" lon="-5.041294">
        <ele>1029.477</ele>
        <time>2021-09-19T12:23:38Z</time>
      </trkpt>
      <trkpt lat="36.749998" lon="-5.041320">
        <ele>1030.461</ele>
        <time>2021-09-19T12:23:42Z</time>
      </trkpt>
      <trkpt lat="36.749985" lon="-5.041345">
        <ele>1030.627</ele>
        <time>2021-09-19T12:23:43Z</time>
      </trkpt>
      <trkpt lat="36.749998" lon="-5.041432">
        <ele>1031.208</ele>
        <time>2021-09-19T12:23:46Z</time>
      </trkpt>
      <trkpt lat="36.750032" lon="-5.041477">
        <ele>1031.825</ele>
        <time>2021-09-19T12:23:48Z</time>
      </trkpt>
      <trkpt lat="36.750106" lon="-5.041598">
        <ele>1032.851</ele>
        <time>2021-09-19T12:23:53Z</time>
      </trkpt>
      <trkpt lat="36.750147" lon="-5.041747">
        <ele>1034.039</ele>
        <time>2021-09-19T12:23:58Z</time>
      </trkpt>
      <trkpt lat="36.750158" lon="-5.041839">
        <ele>1034.611</ele>
        <time>2021-09-19T12:24:01Z</time>
      </trkpt>
      <trkpt lat="36.750172" lon="-5.041961">
        <ele>1035.244</ele>
        <time>2021-09-19T12:24:05Z</time>
      </trkpt>
      <trkpt lat="36.750178" lon="-5.042054">
        <ele>1035.860</ele>
        <time>2021-09-19T12:24:08Z</time>
      </trkpt>
      <trkpt lat="36.750179" lon="-5.042085">
        <ele>1036.233</ele>
        <time>2021-09-19T12:24:09Z</time>
      </trkpt>
      <trkpt lat="36.750205" lon="-5.042272">
        <ele>1037.040</ele>
        <time>2021-09-19T12:24:15Z</time>
      </trkpt>
      <trkpt lat="36.750223" lon="-5.042364">
        <ele>1037.233</ele>
        <time>2021-09-19T12:24:18Z</time>
      </trkpt>
      <trkpt lat="36.750247" lon="-5.042474">
        <ele>1037.823</ele>
        <time>2021-09-19T12:24:22Z</time>
      </trkpt>
      <trkpt lat="36.750274" lon="-5.042598">
        <ele>1038.415</ele>
        <time>2021-09-19T12:24:26Z</time>
      </trkpt>
      <trkpt lat="36.750290" lon="-5.042653">
        <ele>1038.808</ele>
        <time>2021-09-19T12:24:28Z</time>
      </trkpt>
      <trkpt lat="36.750315" lon="-5.042802">
        <ele>1039.631</ele>
        <time>2021-09-19T12:24:33Z</time>
      </trkpt>
      <trkpt lat="36.750319" lon="-5.042857">
        <ele>1039.867</ele>
        <time>2021-09-19T12:24:35Z</time>
      </trkpt>
      <trkpt lat="36.750319" lon="-5.042934">
        <ele>1040.645</ele>
        <time>2021-09-19T12:24:38Z</time>
      </trkpt>
      <trkpt lat="36.750314" lon="-5.043057">
        <ele>1041.427</ele>
        <time>2021-09-19T12:24:43Z</time>
      </trkpt>
      <trkpt lat="36.750322" lon="-5.043111">
        <ele>1041.840</ele>
        <time>2021-09-19T12:24:45Z</time>
      </trkpt>
      <trkpt lat="36.750325" lon="-5.043196">
        <ele>1042.886</ele>
        <time>2021-09-19T12:24:48Z</time>
      </trkpt>
      <trkpt lat="36.750324" lon="-5.043273">
        <ele>1043.669</ele>
        <time>2021-09-19T12:24:51Z</time>
      </trkpt>
      <trkpt lat="36.750320" lon="-5.043355">
        <ele>1044.036</ele>
        <time>2021-09-19T12:24:54Z</time>
      </trkpt>
      <trkpt lat="36.750319" lon="-5.043461">
        <ele>1045.019</ele>
        <time>2021-09-19T12:24:58Z</time>
      </trkpt>
      <trkpt lat="36.750318" lon="-5.043489">
        <ele>1045.409</ele>
        <time>2021-09-19T12:24:59Z</time>
      </trkpt>
      <trkpt lat="36.750311" lon="-5.043680">
        <ele>1046.619</ele>
        <time>2021-09-19T12:25:06Z</time>
      </trkpt>
      <trkpt lat="36.750310" lon="-5.043706">
        <ele>1046.808</ele>
        <time>2021-09-19T12:25:07Z</time>
      </trkpt>
      <trkpt lat="36.750295" lon="-5.043857">
        <ele>1047.869</ele>
        <time>2021-09-19T12:25:13Z</time>
      </trkpt>
      <trkpt lat="36.750266" lon="-5.043995">
        <ele>1048.895</ele>
        <time>2021-09-19T12:25:19Z</time>
      </trkpt>
      <trkpt lat="36.750262" lon="-5.044015">
        <ele>1049.053</ele>
        <time>2021-09-19T12:25:20Z</time>
      </trkpt>
      <trkpt lat="36.750232" lon="-5.044113">
        <ele>1050.055</ele>
        <time>2021-09-19T12:25:25Z</time>
      </trkpt>
      <trkpt lat="36.750217" lon="-5.044155">
        <ele>1050.848</ele>
        <time>2021-09-19T12:25:27Z</time>
      </trkpt>
      <trkpt lat="36.750210" lon="-5.044173">
        <ele>1051.234</ele>
        <time>2021-09-19T12:25:28Z</time>
      </trkpt>
      <trkpt lat="36.750180" lon="-5.044243">
        <ele>1052.417</ele>
        <time>2021-09-19T12:25:32Z</time>
      </trkpt>
      <trkpt lat="36.750167" lon="-5.044277">
        <ele>1053.034</ele>
        <time>2021-09-19T12:25:34Z</time>
      </trkpt>
      <trkpt lat="36.750155" lon="-5.044314">
        <ele>1053.657</ele>
        <time>2021-09-19T12:25:36Z</time>
      </trkpt>
      <trkpt lat="36.750139" lon="-5.044347">
        <ele>1054.200</ele>
        <time>2021-09-19T12:25:38Z</time>
      </trkpt>
      <trkpt lat="36.750122" lon="-5.044378">
        <ele>1054.820</ele>
        <time>2021-09-19T12:25:40Z</time>
      </trkpt>
      <trkpt lat="36.750111" lon="-5.044414">
        <ele>1055.208</ele>
        <time>2021-09-19T12:25:42Z</time>
      </trkpt>
      <trkpt lat="36.750104" lon="-5.044432">
        <ele>1055.613</ele>
        <time>2021-09-19T12:25:43Z</time>
      </trkpt>
      <trkpt lat="36.750094" lon="-5.044450">
        <ele>1055.819</ele>
        <time>2021-09-19T12:25:44Z</time>
      </trkpt>
      <trkpt lat="36.750077" lon="-5.044486">
        <ele>1056.687</ele>
        <time>2021-09-19T12:25:46Z</time>
      </trkpt>
      <trkpt lat="36.750070" lon="-5.044504">
        <ele>1057.039</ele>
        <time>2021-09-19T12:25:47Z</time>
      </trkpt>
      <trkpt lat="36.750037" lon="-5.044569">
        <ele>1058.482</ele>
        <time>2021-09-19T12:25:51Z</time>
      </trkpt>
      <trkpt lat="36.750024" lon="-5.044601">
        <ele>1059.268</ele>
        <time>2021-09-19T12:25:53Z</time>
      </trkpt>
      <trkpt lat="36.750015" lon="-5.044616">
        <ele>1059.481</ele>
        <time>2021-09-19T12:25:54Z</time>
      </trkpt>
      <trkpt lat="36.750007" lon="-5.044631">
        <ele>1059.678</ele>
        <time>2021-09-19T12:25:55Z</time>
      </trkpt>
      <trkpt lat="36.749947" lon="-5.044718">
        <ele>1060.831</ele>
        <time>2021-09-19T12:26:01Z</time>
      </trkpt>
      <trkpt lat="36.749926" lon="-5.044742">
        <ele>1061.661</ele>
        <time>2021-09-19T12:26:03Z</time>
      </trkpt>
      <trkpt lat="36.749914" lon="-5.044753">
        <ele>1061.807</ele>
        <time>2021-09-19T12:26:04Z</time>
      </trkpt>
      <trkpt lat="36.749845" lon="-5.044826">
        <ele>1063.008</ele>
        <time>2021-09-19T12:26:10Z</time>
      </trkpt>
      <trkpt lat="36.749835" lon="-5.044839">
        <ele>1063.491</ele>
        <time>2021-09-19T12:26:11Z</time>
      </trkpt>
      <trkpt lat="36.749801" lon="-5.044876">
        <ele>1064.257</ele>
        <time>2021-09-19T12:26:14Z</time>
      </trkpt>
      <trkpt lat="36.749753" lon="-5.044927">
        <ele>1065.035</ele>
        <time>2021-09-19T12:26:18Z</time>
      </trkpt>
      <trkpt lat="36.749740" lon="-5.044941">
        <ele>1065.227</ele>
        <time>2021-09-19T12:26:19Z</time>
      </trkpt>
      <trkpt lat="36.749663" lon="-5.045014">
        <ele>1066.490</ele>
        <time>2021-09-19T12:26:25Z</time>
      </trkpt>
      <trkpt lat="36.749637" lon="-5.045037">
        <ele>1066.886</ele>
        <time>2021-09-19T12:26:27Z</time>
      </trkpt>
      <trkpt lat="36.749601" lon="-5.045073">
        <ele>1067.849</ele>
        <time>2021-09-19T12:26:30Z</time>
      </trkpt>
      <trkpt lat="36.749568" lon="-5.045118">
        <ele>1068.416</ele>
        <time>2021-09-19T12:26:33Z</time>
      </trkpt>
      <trkpt lat="36.749552" lon="-5.045153">
        <ele>1068.862</ele>
        <time>2021-09-19T12:26:35Z</time>
      </trkpt>
      <trkpt lat="36.749528" lon="-5.045227">
        <ele>1069.483</ele>
        <time>2021-09-19T12:26:39Z</time>
      </trkpt>
      <trkpt lat="36.749519" lon="-5.045285">
        <ele>1070.011</ele>
        <time>2021-09-19T12:26:42Z</time>
      </trkpt>
      <trkpt lat="36.749538" lon="-5.045380">
        <ele>1071.008</ele>
        <time>2021-09-19T12:26:47Z</time>
      </trkpt>
      <trkpt lat="36.749547" lon="-5.045397">
        <ele>1071.094</ele>
        <time>2021-09-19T12:26:48Z</time>
      </trkpt>
      <trkpt lat="36.749600" lon="-5.045473">
        <ele>1072.080</ele>
        <time>2021-09-19T12:26:53Z</time>
      </trkpt>
      <trkpt lat="36.749609" lon="-5.045490">
        <ele>1072.248</ele>
        <time>2021-09-19T12:26:54Z</time>
      </trkpt>
      <trkpt lat="36.749641" lon="-5.045558">
        <ele>1073.430</ele>
        <time>2021-09-19T12:26:58Z</time>
      </trkpt>
      <trkpt lat="36.749675" lon="-5.045634">
        <ele>1074.293</ele>
        <time>2021-09-19T12:27:02Z</time>
      </trkpt>
      <trkpt lat="36.749684" lon="-5.045653">
        <ele>1074.869</ele>
        <time>2021-09-19T12:27:03Z</time>
      </trkpt>
      <trkpt lat="36.749701" lon="-5.045735">
        <ele>1075.882</ele>
        <time>2021-09-19T12:27:07Z</time>
      </trkpt>
      <trkpt lat="36.749692" lon="-5.045803">
        <ele>1076.819</ele>
        <time>2021-09-19T12:27:10Z</time>
      </trkpt>
      <trkpt lat="36.749688" lon="-5.045824">
        <ele>1077.039</ele>
        <time>2021-09-19T12:27:11Z</time>
      </trkpt>
      <trkpt lat="36.749675" lon="-5.045887">
        <ele>1078.201</ele>
        <time>2021-09-19T12:27:14Z</time>
      </trkpt>
      <trkpt lat="36.749662" lon="-5.045955">
        <ele>1078.621</ele>
        <time>2021-09-19T12:27:17Z</time>
      </trkpt>
      <trkpt lat="36.749642" lon="-5.046054">
        <ele>1079.208</ele>
        <time>2021-09-19T12:27:21Z</time>
      </trkpt>
      <trkpt lat="36.749620" lon="-5.046151">
        <ele>1080.091</ele>
        <time>2021-09-19T12:27:25Z</time>
      </trkpt>
      <trkpt lat="36.749612" lon="-5.046174">
        <ele>1080.487</ele>
        <time>2021-09-19T12:27:26Z</time>
      </trkpt>
      <trkpt lat="36.749566" lon="-5.046331">
        <ele>1081.455</ele>
        <time>2021-09-19T12:27:32Z</time>
      </trkpt>
      <trkpt lat="36.749557" lon="-5.046356">
        <ele>1081.447</ele>
        <time>2021-09-19T12:27:33Z</time>
      </trkpt>
      <trkpt lat="36.749462" lon="-5.046566">
        <ele>1082.420</ele>
        <time>2021-09-19T12:27:42Z</time>
      </trkpt>
      <trkpt lat="36.749450" lon="-5.046589">
        <ele>1082.436</ele>
        <time>2021-09-19T12:27:43Z</time>
      </trkpt>
      <trkpt lat="36.749380" lon="-5.046702">
        <ele>1083.479</ele>
        <time>2021-09-19T12:27:49Z</time>
      </trkpt>
      <trkpt lat="36.749322" lon="-5.046776">
        <ele>1084.436</ele>
        <time>2021-09-19T12:27:54Z</time>
      </trkpt>
      <trkpt lat="36.749310" lon="-5.046784">
        <ele>1084.892</ele>
        <time>2021-09-19T12:27:55Z</time>
      </trkpt>
      <trkpt lat="36.749280" lon="-5.046806">
        <ele>1085.473</ele>
        <time>2021-09-19T12:27:57Z</time>
      </trkpt>
      <trkpt lat="36.749214" lon="-5.046835">
        <ele>1086.620</ele>
        <time>2021-09-19T12:28:01Z</time>
      </trkpt>
      <trkpt lat="36.749197" lon="-5.046833">
        <ele>1086.808</ele>
        <time>2021-09-19T12:28:02Z</time>
      </trkpt>
      <trkpt lat="36.749145" lon="-5.046798">
        <ele>1087.887</ele>
        <time>2021-09-19T12:28:05Z</time>
      </trkpt>
      <trkpt lat="36.749125" lon="-5.046744">
        <ele>1088.273</ele>
        <time>2021-09-19T12:28:07Z</time>
      </trkpt>
      <trkpt lat="36.749113" lon="-5.046684">
        <ele>1088.851</ele>
        <time>2021-09-19T12:28:09Z</time>
      </trkpt>
      <trkpt lat="36.749111" lon="-5.046653">
        <ele>1089.043</ele>
        <time>2021-09-19T12:28:10Z</time>
      </trkpt>
      <trkpt lat="36.749118" lon="-5.046524">
        <ele>1089.846</ele>
        <time>2021-09-19T12:28:14Z</time>
      </trkpt>
      <trkpt lat="36.749108" lon="-5.046296">
        <ele>1090.872</ele>
        <time>2021-09-19T12:28:21Z</time>
      </trkpt>
      <trkpt lat="36.749102" lon="-5.046264">
        <ele>1091.225</ele>
        <time>2021-09-19T12:28:22Z</time>
      </trkpt>
      <trkpt lat="36.749077" lon="-5.046070">
        <ele>1092.042</ele>
        <time>2021-09-19T12:28:28Z</time>
      </trkpt>
      <trkpt lat="36.749033" lon="-5.045884">
        <ele>1092.694</ele>
        <time>2021-09-19T12:28:34Z</time>
      </trkpt>
      <trkpt lat="36.748987" lon="-5.045733">
        <ele>1093.057</ele>
        <time>2021-09-19T12:28:39Z</time>
      </trkpt>
      <trkpt lat="36.748951" lon="-5.045693">
        <ele>1093.422</ele>
        <time>2021-09-19T12:28:41Z</time>
      </trkpt>
      <trkpt lat="36.748859" lon="-5.045696">
        <ele>1094.008</ele>
        <time>2021-09-19T12:28:45Z</time>
      </trkpt>
      <trkpt lat="36.748840" lon="-5.045715">
        <ele>1094.417</ele>
        <time>2021-09-19T12:28:46Z</time>
      </trkpt>
      <trkpt lat="36.748792" lon="-5.045797">
        <ele>1095.273</ele>
        <time>2021-09-19T12:28:50Z</time>
      </trkpt>
      <trkpt lat="36.748786" lon="-5.045819">
        <ele>1095.841</ele>
        <time>2021-09-19T12:28:51Z</time>
      </trkpt>
      <trkpt lat="36.748756" lon="-5.045909">
        <ele>1097.043</ele>
        <time>2021-09-19T12:28:55Z</time>
      </trkpt>
      <trkpt lat="36.748746" lon="-5.045933">
        <ele>1097.056</ele>
        <time>2021-09-19T12:28:56Z</time>
      </trkpt>
      <trkpt lat="36.748705" lon="-5.046027">
        <ele>1098.092</ele>
        <time>2021-09-19T12:29:01Z</time>
      </trkpt>
      <trkpt lat="36.748672" lon="-5.046093">
        <ele>1099.475</ele>
        <time>2021-09-19T12:29:05Z</time>
      </trkpt>
      <trkpt lat="36.748655" lon="-5.046128">
        <ele>1100.072</ele>
        <time>2021-09-19T12:29:07Z</time>
      </trkpt>
      <trkpt lat="36.748645" lon="-5.046144">
        <ele>1100.442</ele>
        <time>2021-09-19T12:29:08Z</time>
      </trkpt>
      <trkpt lat="36.748598" lon="-5.046218">
        <ele>1101.622</ele>
        <time>2021-09-19T12:29:12Z</time>
      </trkpt>
      <trkpt lat="36.748546" lon="-5.046298">
        <ele>1102.814</ele>
        <time>2021-09-19T12:29:16Z</time>
      </trkpt>
      <trkpt lat="36.748505" lon="-5.046373">
        <ele>1104.008</ele>
        <time>2021-09-19T12:29:20Z</time>
      </trkpt>
      <trkpt lat="36.748475" lon="-5.046424">
        <ele>1104.612</ele>
        <time>2021-09-19T12:29:23Z</time>
      </trkpt>
      <trkpt lat="36.748449" lon="-5.046477">
        <ele>1105.448</ele>
        <time>2021-09-19T12:29:26Z</time>
      </trkpt>
      <trkpt lat="36.748413" lon="-5.046571">
        <ele>1106.426</ele>
        <time>2021-09-19T12:29:31Z</time>
      </trkpt>
      <trkpt lat="36.748348" lon="-5.046686">
        <ele>1107.618</ele>
        <time>2021-09-19T12:29:38Z</time>
      </trkpt>
      <trkpt lat="36.748329" lon="-5.046721">
        <ele>1108.071</ele>
        <time>2021-09-19T12:29:40Z</time>
      </trkpt>
      <trkpt lat="36.748292" lon="-5.046794">
        <ele>1108.637</ele>
        <time>2021-09-19T12:29:44Z</time>
      </trkpt>
      <trkpt lat="36.748262" lon="-5.046852">
        <ele>1109.260</ele>
        <time>2021-09-19T12:29:47Z</time>
      </trkpt>
      <trkpt lat="36.748251" lon="-5.046869">
        <ele>1109.647</ele>
        <time>2021-09-19T12:29:48Z</time>
      </trkpt>
      <trkpt lat="36.748179" lon="-5.046982">
        <ele>1110.891</ele>
        <time>2021-09-19T12:29:54Z</time>
      </trkpt>
      <trkpt lat="36.748152" lon="-5.047024">
        <ele>1111.281</ele>
        <time>2021-09-19T12:29:56Z</time>
      </trkpt>
      <trkpt lat="36.748114" lon="-5.047148">
        <ele>1111.819</ele>
        <time>2021-09-19T12:30:01Z</time>
      </trkpt>
      <trkpt lat="36.748109" lon="-5.047173">
        <ele>1111.808</ele>
        <time>2021-09-19T12:30:02Z</time>
      </trkpt>
      <trkpt lat="36.748109" lon="-5.047333">
        <ele>1112.697</ele>
        <time>2021-09-19T12:30:08Z</time>
      </trkpt>
      <trkpt lat="36.748120" lon="-5.047395">
        <ele>1113.093</ele>
        <time>2021-09-19T12:30:10Z</time>
      </trkpt>
      <trkpt lat="36.748150" lon="-5.047537">
        <ele>1113.651</ele>
        <time>2021-09-19T12:30:14Z</time>
      </trkpt>
      <trkpt lat="36.748168" lon="-5.047609">
        <ele>1113.883</ele>
        <time>2021-09-19T12:30:16Z</time>
      </trkpt>
      <trkpt lat="36.748243" lon="-5.047769">
        <ele>1114.826</ele>
        <time>2021-09-19T12:30:21Z</time>
      </trkpt>
      <trkpt lat="36.748284" lon="-5.047817">
        <ele>1115.072</ele>
        <time>2021-09-19T12:30:23Z</time>
      </trkpt>
      <trkpt lat="36.748335" lon="-5.047930">
        <ele>1115.425</ele>
        <time>2021-09-19T12:30:27Z</time>
      </trkpt>
      <trkpt lat="36.748360" lon="-5.048022">
        <ele>1116.062</ele>
        <time>2021-09-19T12:30:30Z</time>
      </trkpt>
      <trkpt lat="36.748354" lon="-5.048118">
        <ele>1116.892</ele>
        <time>2021-09-19T12:30:33Z</time>
      </trkpt>
      <trkpt lat="36.748327" lon="-5.048177">
        <ele>1117.273</ele>
        <time>2021-09-19T12:30:35Z</time>
      </trkpt>
      <trkpt lat="36.748275" lon="-5.048296">
        <ele>1117.820</ele>
        <time>2021-09-19T12:30:39Z</time>
      </trkpt>
      <trkpt lat="36.748190" lon="-5.048451">
        <ele>1118.208</ele>
        <time>2021-09-19T12:30:44Z</time>
      </trkpt>
      <trkpt lat="36.748155" lon="-5.048509">
        <ele>1118.447</ele>
        <time>2021-09-19T12:30:46Z</time>
      </trkpt>
      <trkpt lat="36.748038" lon="-5.048703">
        <ele>1119.453</ele>
        <time>2021-09-19T12:30:52Z</time>
      </trkpt>
      <trkpt lat="36.747997" lon="-5.048785">
        <ele>1119.691</ele>
        <time>2021-09-19T12:30:54Z</time>
      </trkpt>
      <trkpt lat="36.747862" lon="-5.049105">
        <ele>1120.213</ele>
        <time>2021-09-19T12:31:00Z</time>
      </trkpt>
      <trkpt lat="36.747836" lon="-5.049162">
        <ele>1120.266</ele>
        <time>2021-09-19T12:31:01Z</time>
      </trkpt>
      <trkpt lat="36.747633" lon="-5.049645">
        <ele>1120.282</ele>
        <time>2021-09-19T12:31:09Z</time>
      </trkpt>
      <trkpt lat="36.747544" lon="-5.049877">
        <ele>1119.445</ele>
        <time>2021-09-19T12:31:13Z</time>
      </trkpt>
      <trkpt lat="36.747521" lon="-5.049933">
        <ele>1119.462</ele>
        <time>2021-09-19T12:31:14Z</time>
      </trkpt>
      <trkpt lat="36.747403" lon="-5.050212">
        <ele>1118.877</ele>
        <time>2021-09-19T12:31:19Z</time>
      </trkpt>
      <trkpt lat="36.747355" lon="-5.050329">
        <ele>1118.861</ele>
        <time>2021-09-19T12:31:21Z</time>
      </trkpt>
      <trkpt lat="36.747257" lon="-5.050574">
        <ele>1118.827</ele>
        <time>2021-09-19T12:31:25Z</time>
      </trkpt>
      <trkpt lat="36.747217" lon="-5.050701">
        <ele>1118.808</ele>
        <time>2021-09-19T12:31:27Z</time>
      </trkpt>
      <trkpt lat="36.747195" lon="-5.050762">
        <ele>1118.875</ele>
        <time>2021-09-19T12:31:28Z</time>
      </trkpt>
      <trkpt lat="36.747078" lon="-5.051044">
        <ele>1119.091</ele>
        <time>2021-09-19T12:31:33Z</time>
      </trkpt>
      <trkpt lat="36.747058" lon="-5.051099">
        <ele>1119.239</ele>
        <time>2021-09-19T12:31:34Z</time>
      </trkpt>
      <trkpt lat="36.746971" lon="-5.051324">
        <ele>1120.081</ele>
        <time>2021-09-19T12:31:38Z</time>
      </trkpt>
      <trkpt lat="36.746948" lon="-5.051381">
        <ele>1120.484</ele>
        <time>2021-09-19T12:31:39Z</time>
      </trkpt>
      <trkpt lat="36.746858" lon="-5.051594">
        <ele>1121.240</ele>
        <time>2021-09-19T12:31:43Z</time>
      </trkpt>
      <trkpt lat="36.746820" lon="-5.051696">
        <ele>1121.463</ele>
        <time>2021-09-19T12:31:45Z</time>
      </trkpt>
      <trkpt lat="36.746751" lon="-5.051875">
        <ele>1121.660</ele>
        <time>2021-09-19T12:31:49Z</time>
      </trkpt>
      <trkpt lat="36.746674" lon="-5.052050">
        <ele>1122.472</ele>
        <time>2021-09-19T12:31:54Z</time>
      </trkpt>
      <trkpt lat="36.746661" lon="-5.052084">
        <ele>1122.613</ele>
        <time>2021-09-19T12:31:55Z</time>
      </trkpt>
      <trkpt lat="36.746584" lon="-5.052287">
        <ele>1123.414</ele>
        <time>2021-09-19T12:32:01Z</time>
      </trkpt>
      <trkpt lat="36.746561" lon="-5.052345">
        <ele>1124.008</ele>
        <time>2021-09-19T12:32:03Z</time>
      </trkpt>
      <trkpt lat="36.746531" lon="-5.052405">
        <ele>1124.635</ele>
        <time>2021-09-19T12:32:05Z</time>
      </trkpt>
      <trkpt lat="36.746468" lon="-5.052509">
        <ele>1125.621</ele>
        <time>2021-09-19T12:32:09Z</time>
      </trkpt>
      <trkpt lat="36.746392" lon="-5.052600">
        <ele>1127.059</ele>
        <time>2021-09-19T12:32:13Z</time>
      </trkpt>
      <trkpt lat="36.746357" lon="-5.052646">
        <ele>1127.481</ele>
        <time>2021-09-19T12:32:15Z</time>
      </trkpt>
      <trkpt lat="36.746304" lon="-5.052717">
        <ele>1128.044</ele>
        <time>2021-09-19T12:32:18Z</time>
      </trkpt>
      <trkpt lat="36.746258" lon="-5.052788">
        <ele>1129.010</ele>
        <time>2021-09-19T12:32:22Z</time>
      </trkpt>
      <trkpt lat="36.746190" lon="-5.052873">
        <ele>1130.423</ele>
        <time>2021-09-19T12:32:26Z</time>
      </trkpt>
      <trkpt lat="36.746147" lon="-5.052913">
        <ele>1130.850</ele>
        <time>2021-09-19T12:32:28Z</time>
      </trkpt>
      <trkpt lat="36.746100" lon="-5.052949">
        <ele>1131.669</ele>
        <time>2021-09-19T12:32:30Z</time>
      </trkpt>
      <trkpt lat="36.746039" lon="-5.053011">
        <ele>1132.004</ele>
        <time>2021-09-19T12:32:33Z</time>
      </trkpt>
      <trkpt lat="36.745925" lon="-5.053100">
        <ele>1132.624</ele>
        <time>2021-09-19T12:32:40Z</time>
      </trkpt>
      <trkpt lat="36.745922" lon="-5.053101">
        <ele>1132.808</ele>
        <time>2021-09-19T12:32:41Z</time>
      </trkpt>
      <trkpt lat="36.745866" lon="-5.053105">
        <ele>1134.294</ele>
        <time>2021-09-19T12:34:05Z</time>
      </trkpt>
      <trkpt lat="36.745820" lon="-5.053143">
        <ele>1134.280</ele>
        <time>2021-09-19T12:34:07Z</time>
      </trkpt>
      <trkpt lat="36.745773" lon="-5.053229">
        <ele>1134.288</ele>
        <time>2021-09-19T12:34:09Z</time>
      </trkpt>
      <trkpt lat="36.745720" lon="-5.053358">
        <ele>1134.240</ele>
        <time>2021-09-19T12:34:11Z</time>
      </trkpt>
      <trkpt lat="36.745584" lon="-5.053726">
        <ele>1134.013</ele>
        <time>2021-09-19T12:34:15Z</time>
      </trkpt>
      <trkpt lat="36.745403" lon="-5.054178">
        <ele>1133.059</ele>
        <time>2021-09-19T12:34:19Z</time>
      </trkpt>
      <trkpt lat="36.745370" lon="-5.054306">
        <ele>1132.212</ele>
        <time>2021-09-19T12:34:20Z</time>
      </trkpt>
      <trkpt lat="36.745341" lon="-5.054442">
        <ele>1131.829</ele>
        <time>2021-09-19T12:34:21Z</time>
      </trkpt>
      <trkpt lat="36.745289" lon="-5.054730">
        <ele>1130.416</ele>
        <time>2021-09-19T12:34:23Z</time>
      </trkpt>
      <trkpt lat="36.745235" lon="-5.055035">
        <ele>1128.276</ele>
        <time>2021-09-19T12:34:25Z</time>
      </trkpt>
      <trkpt lat="36.745195" lon="-5.055346">
        <ele>1126.413</ele>
        <time>2021-09-19T12:34:27Z</time>
      </trkpt>
      <trkpt lat="36.745163" lon="-5.055505">
        <ele>1125.608</ele>
        <time>2021-09-19T12:34:28Z</time>
      </trkpt>
      <trkpt lat="36.745115" lon="-5.055661">
        <ele>1125.289</ele>
        <time>2021-09-19T12:34:29Z</time>
      </trkpt>
      <trkpt lat="36.745001" lon="-5.055931">
        <ele>1121.685</ele>
        <time>2021-09-19T12:34:31Z</time>
      </trkpt>
      <trkpt lat="36.744937" lon="-5.056037">
        <ele>1119.813</ele>
        <time>2021-09-19T12:34:32Z</time>
      </trkpt>
      <trkpt lat="36.744860" lon="-5.056133">
        <ele>1118.635</ele>
        <time>2021-09-19T12:34:33Z</time>
      </trkpt>
      <trkpt lat="36.744773" lon="-5.056216">
        <ele>1117.838</ele>
        <time>2021-09-19T12:34:34Z</time>
      </trkpt>
      <trkpt lat="36.744680" lon="-5.056295">
        <ele>1117.044</ele>
        <time>2021-09-19T12:34:35Z</time>
      </trkpt>
      <trkpt lat="36.744493" lon="-5.056454">
        <ele>1115.877</ele>
        <time>2021-09-19T12:34:37Z</time>
      </trkpt>
      <trkpt lat="36.744303" lon="-5.056615">
        <ele>1114.074</ele>
        <time>2021-09-19T12:34:39Z</time>
      </trkpt>
      <trkpt lat="36.744210" lon="-5.056700">
        <ele>1112.068</ele>
        <time>2021-09-19T12:34:40Z</time>
      </trkpt>
      <trkpt lat="36.744121" lon="-5.056778">
        <ele>1110.642</ele>
        <time>2021-09-19T12:34:41Z</time>
      </trkpt>
      <trkpt lat="36.744040" lon="-5.056851">
        <ele>1109.226</ele>
        <time>2021-09-19T12:34:42Z</time>
      </trkpt>
      <trkpt lat="36.743969" lon="-5.056927">
        <ele>1107.408</ele>
        <time>2021-09-19T12:34:43Z</time>
      </trkpt>
      <trkpt lat="36.743909" lon="-5.057016">
        <ele>1106.054</ele>
        <time>2021-09-19T12:34:44Z</time>
      </trkpt>
      <trkpt lat="36.743850" lon="-5.057113">
        <ele>1104.880</ele>
        <time>2021-09-19T12:34:45Z</time>
      </trkpt>
      <trkpt lat="36.743709" lon="-5.057307">
        <ele>1102.448</ele>
        <time>2021-09-19T12:34:47Z</time>
      </trkpt>
      <trkpt lat="36.743629" lon="-5.057395">
        <ele>1101.620</ele>
        <time>2021-09-19T12:34:48Z</time>
      </trkpt>
      <trkpt lat="36.743553" lon="-5.057476">
        <ele>1100.483</ele>
        <time>2021-09-19T12:34:49Z</time>
      </trkpt>
      <trkpt lat="36.743483" lon="-5.057558">
        <ele>1099.699</ele>
        <time>2021-09-19T12:34:50Z</time>
      </trkpt>
      <trkpt lat="36.743427" lon="-5.057652">
        <ele>1099.272</ele>
        <time>2021-09-19T12:34:51Z</time>
      </trkpt>
      <trkpt lat="36.743375" lon="-5.057762">
        <ele>1098.859</ele>
        <time>2021-09-19T12:34:52Z</time>
      </trkpt>
      <trkpt lat="36.743325" lon="-5.057881">
        <ele>1098.239</ele>
        <time>2021-09-19T12:34:53Z</time>
      </trkpt>
      <trkpt lat="36.743220" lon="-5.058125">
        <ele>1097.201</ele>
        <time>2021-09-19T12:34:55Z</time>
      </trkpt>
      <trkpt lat="36.743123" lon="-5.058388">
        <ele>1095.021</ele>
        <time>2021-09-19T12:34:57Z</time>
      </trkpt>
      <trkpt lat="36.743075" lon="-5.058521">
        <ele>1092.608</ele>
        <time>2021-09-19T12:34:58Z</time>
      </trkpt>
      <trkpt lat="36.743026" lon="-5.058654">
        <ele>1090.831</ele>
        <time>2021-09-19T12:34:59Z</time>
      </trkpt>
      <trkpt lat="36.742980" lon="-5.058787">
        <ele>1089.047</ele>
        <time>2021-09-19T12:35:00Z</time>
      </trkpt>
      <trkpt lat="36.742937" lon="-5.058923">
        <ele>1087.615</ele>
        <time>2021-09-19T12:35:01Z</time>
      </trkpt>
      <trkpt lat="36.742901" lon="-5.059059">
        <ele>1086.237</ele>
        <time>2021-09-19T12:35:02Z</time>
      </trkpt>
      <trkpt lat="36.742870" lon="-5.059189">
        <ele>1084.670</ele>
        <time>2021-09-19T12:35:03Z</time>
      </trkpt>
      <trkpt lat="36.742843" lon="-5.059311">
        <ele>1083.256</ele>
        <time>2021-09-19T12:35:04Z</time>
      </trkpt>
      <trkpt lat="36.742816" lon="-5.059441">
        <ele>1081.859</ele>
        <time>2021-09-19T12:35:05Z</time>
      </trkpt>
      <trkpt lat="36.742791" lon="-5.059580">
        <ele>1080.066</ele>
        <time>2021-09-19T12:35:06Z</time>
      </trkpt>
      <trkpt lat="36.742770" lon="-5.059728">
        <ele>1077.674</ele>
        <time>2021-09-19T12:35:07Z</time>
      </trkpt>
      <trkpt lat="36.742753" lon="-5.059882">
        <ele>1075.656</ele>
        <time>2021-09-19T12:35:08Z</time>
      </trkpt>
      <trkpt lat="36.742741" lon="-5.060039">
        <ele>1074.421</ele>
        <time>2021-09-19T12:35:09Z</time>
      </trkpt>
      <trkpt lat="36.742727" lon="-5.060200">
        <ele>1073.408</ele>
        <time>2021-09-19T12:35:10Z</time>
      </trkpt>
      <trkpt lat="36.742706" lon="-5.060360">
        <ele>1072.695</ele>
        <time>2021-09-19T12:35:11Z</time>
      </trkpt>
      <trkpt lat="36.742661" lon="-5.060668">
        <ele>1069.661</ele>
        <time>2021-09-19T12:35:13Z</time>
      </trkpt>
      <trkpt lat="36.742636" lon="-5.060819">
        <ele>1067.239</ele>
        <time>2021-09-19T12:35:14Z</time>
      </trkpt>
      <trkpt lat="36.742610" lon="-5.060969">
        <ele>1065.421</ele>
        <time>2021-09-19T12:35:15Z</time>
      </trkpt>
      <trkpt lat="36.742587" lon="-5.061115">
        <ele>1063.214</ele>
        <time>2021-09-19T12:35:16Z</time>
      </trkpt>
      <trkpt lat="36.742571" lon="-5.061263">
        <ele>1061.460</ele>
        <time>2021-09-19T12:35:17Z</time>
      </trkpt>
      <trkpt lat="36.742557" lon="-5.061412">
        <ele>1059.663</ele>
        <time>2021-09-19T12:35:18Z</time>
      </trkpt>
      <trkpt lat="36.742551" lon="-5.061558">
        <ele>1058.460</ele>
        <time>2021-09-19T12:35:19Z</time>
      </trkpt>
      <trkpt lat="36.742551" lon="-5.061701">
        <ele>1056.683</ele>
        <time>2021-09-19T12:35:20Z</time>
      </trkpt>
      <trkpt lat="36.742551" lon="-5.061839">
        <ele>1055.225</ele>
        <time>2021-09-19T12:35:21Z</time>
      </trkpt>
      <trkpt lat="36.742550" lon="-5.062106">
        <ele>1054.017</ele>
        <time>2021-09-19T12:35:23Z</time>
      </trkpt>
      <trkpt lat="36.742509" lon="-5.062583">
        <ele>1052.808</ele>
        <time>2021-09-19T12:35:27Z</time>
      </trkpt>
      <trkpt lat="36.742489" lon="-5.062690">
        <ele>1052.476</ele>
        <time>2021-09-19T12:35:28Z</time>
      </trkpt>
      <trkpt lat="36.742430" lon="-5.063062">
        <ele>1051.852</ele>
        <time>2021-09-19T12:35:32Z</time>
      </trkpt>
      <trkpt lat="36.742389" lon="-5.063510">
        <ele>1052.430</ele>
        <time>2021-09-19T12:35:37Z</time>
      </trkpt>
      <trkpt lat="36.742344" lon="-5.063843">
        <ele>1052.622</ele>
        <time>2021-09-19T12:35:41Z</time>
      </trkpt>
      <trkpt lat="36.742336" lon="-5.064019">
        <ele>1052.435</ele>
        <time>2021-09-19T12:35:43Z</time>
      </trkpt>
      <trkpt lat="36.742325" lon="-5.064362">
        <ele>1052.231</ele>
        <time>2021-09-19T12:35:47Z</time>
      </trkpt>
      <trkpt lat="36.742313" lon="-5.064526">
        <ele>1052.214</ele>
        <time>2021-09-19T12:35:49Z</time>
      </trkpt>
      <trkpt lat="36.742302" lon="-5.064603">
        <ele>1052.271</ele>
        <time>2021-09-19T12:35:50Z</time>
      </trkpt>
      <trkpt lat="36.742281" lon="-5.064926">
        <ele>1052.483</ele>
        <time>2021-09-19T12:35:54Z</time>
      </trkpt>
      <trkpt lat="36.742293" lon="-5.065007">
        <ele>1052.425</ele>
        <time>2021-09-19T12:35:55Z</time>
      </trkpt>
      <trkpt lat="36.742358" lon="-5.065249">
        <ele>1052.217</ele>
        <time>2021-09-19T12:35:58Z</time>
      </trkpt>
      <trkpt lat="36.742407" lon="-5.065412">
        <ele>1052.208</ele>
        <time>2021-09-19T12:36:00Z</time>
      </trkpt>
      <trkpt lat="36.742529" lon="-5.065841">
        <ele>1051.816</ele>
        <time>2021-09-19T12:36:05Z</time>
      </trkpt>
      <trkpt lat="36.742585" lon="-5.066019">
        <ele>1051.812</ele>
        <time>2021-09-19T12:36:07Z</time>
      </trkpt>
      <trkpt lat="36.742619" lon="-5.066099">
        <ele>1051.650</ele>
        <time>2021-09-19T12:36:08Z</time>
      </trkpt>
      <trkpt lat="36.742758" lon="-5.066315">
        <ele>1051.422</ele>
        <time>2021-09-19T12:36:11Z</time>
      </trkpt>
      <trkpt lat="36.742946" lon="-5.066683">
        <ele>1050.665</ele>
        <time>2021-09-19T12:36:16Z</time>
      </trkpt>
      <trkpt lat="36.742972" lon="-5.066758">
        <ele>1050.621</ele>
        <time>2021-09-19T12:36:17Z</time>
      </trkpt>
      <trkpt lat="36.743010" lon="-5.066913">
        <ele>1050.264</ele>
        <time>2021-09-19T12:36:19Z</time>
      </trkpt>
      <trkpt lat="36.743033" lon="-5.067068">
        <ele>1050.261</ele>
        <time>2021-09-19T12:36:21Z</time>
      </trkpt>
      <trkpt lat="36.743053" lon="-5.067382">
        <ele>1050.014</ele>
        <time>2021-09-19T12:36:25Z</time>
      </trkpt>
      <trkpt lat="36.743045" lon="-5.067465">
        <ele>1050.054</ele>
        <time>2021-09-19T12:36:26Z</time>
      </trkpt>
      <trkpt lat="36.742959" lon="-5.067938">
        <ele>1050.009</ele>
        <time>2021-09-19T12:36:32Z</time>
      </trkpt>
      <trkpt lat="36.742852" lon="-5.068417">
        <ele>1050.208</ele>
        <time>2021-09-19T12:36:37Z</time>
      </trkpt>
      <trkpt lat="36.742770" lon="-5.068745">
        <ele>1049.459</ele>
        <time>2021-09-19T12:36:40Z</time>
      </trkpt>
      <trkpt lat="36.742711" lon="-5.068978">
        <ele>1049.265</ele>
        <time>2021-09-19T12:36:42Z</time>
      </trkpt>
      <trkpt lat="36.742623" lon="-5.069327">
        <ele>1048.083</ele>
        <time>2021-09-19T12:36:45Z</time>
      </trkpt>
      <trkpt lat="36.742591" lon="-5.069558">
        <ele>1046.415</ele>
        <time>2021-09-19T12:36:47Z</time>
      </trkpt>
      <trkpt lat="36.742588" lon="-5.069795">
        <ele>1045.458</ele>
        <time>2021-09-19T12:36:49Z</time>
      </trkpt>
      <trkpt lat="36.742598" lon="-5.070045">
        <ele>1044.844</ele>
        <time>2021-09-19T12:36:51Z</time>
      </trkpt>
      <trkpt lat="36.742597" lon="-5.070173">
        <ele>1044.027</ele>
        <time>2021-09-19T12:36:52Z</time>
      </trkpt>
      <trkpt lat="36.742595" lon="-5.070422">
        <ele>1042.424</ele>
        <time>2021-09-19T12:36:54Z</time>
      </trkpt>
      <trkpt lat="36.742590" lon="-5.070546">
        <ele>1042.048</ele>
        <time>2021-09-19T12:36:55Z</time>
      </trkpt>
      <trkpt lat="36.742574" lon="-5.070786">
        <ele>1041.061</ele>
        <time>2021-09-19T12:36:57Z</time>
      </trkpt>
      <trkpt lat="36.742567" lon="-5.071036">
        <ele>1039.217</ele>
        <time>2021-09-19T12:36:59Z</time>
      </trkpt>
      <trkpt lat="36.742552" lon="-5.071164">
        <ele>1037.008</ele>
        <time>2021-09-19T12:37:00Z</time>
      </trkpt>
      <trkpt lat="36.742532" lon="-5.071293">
        <ele>1035.822</ele>
        <time>2021-09-19T12:37:01Z</time>
      </trkpt>
      <trkpt lat="36.742479" lon="-5.071563">
        <ele>1034.858</ele>
        <time>2021-09-19T12:37:03Z</time>
      </trkpt>
      <trkpt lat="36.742431" lon="-5.071851">
        <ele>1034.236</ele>
        <time>2021-09-19T12:37:05Z</time>
      </trkpt>
      <trkpt lat="36.742419" lon="-5.071992">
        <ele>1033.828</ele>
        <time>2021-09-19T12:37:06Z</time>
      </trkpt>
      <trkpt lat="36.742421" lon="-5.072133">
        <ele>1033.651</ele>
        <time>2021-09-19T12:37:07Z</time>
      </trkpt>
      <trkpt lat="36.742447" lon="-5.072407">
        <ele>1033.047</ele>
        <time>2021-09-19T12:37:09Z</time>
      </trkpt>
      <trkpt lat="36.742462" lon="-5.072543">
        <ele>1032.420</ele>
        <time>2021-09-19T12:37:10Z</time>
      </trkpt>
      <trkpt lat="36.742482" lon="-5.072820">
        <ele>1030.257</ele>
        <time>2021-09-19T12:37:12Z</time>
      </trkpt>
      <trkpt lat="36.742474" lon="-5.072959">
        <ele>1027.824</ele>
        <time>2021-09-19T12:37:13Z</time>
      </trkpt>
      <trkpt lat="36.742460" lon="-5.073093">
        <ele>1026.404</ele>
        <time>2021-09-19T12:37:14Z</time>
      </trkpt>
      <trkpt lat="36.742442" lon="-5.073351">
        <ele>1024.414</ele>
        <time>2021-09-19T12:37:16Z</time>
      </trkpt>
      <trkpt lat="36.742442" lon="-5.073600">
        <ele>1022.808</ele>
        <time>2021-09-19T12:37:18Z</time>
      </trkpt>
      <trkpt lat="36.742479" lon="-5.073820">
        <ele>1022.080</ele>
        <time>2021-09-19T12:37:20Z</time>
      </trkpt>
      <trkpt lat="36.742540" lon="-5.074016">
        <ele>1020.296</ele>
        <time>2021-09-19T12:37:22Z</time>
      </trkpt>
      <trkpt lat="36.742594" lon="-5.074213">
        <ele>1019.054</ele>
        <time>2021-09-19T12:37:24Z</time>
      </trkpt>
      <trkpt lat="36.742621" lon="-5.074312">
        <ele>1018.846</ele>
        <time>2021-09-19T12:37:25Z</time>
      </trkpt>
      <trkpt lat="36.742691" lon="-5.074505">
        <ele>1018.689</ele>
        <time>2021-09-19T12:37:27Z</time>
      </trkpt>
      <trkpt lat="36.742797" lon="-5.074681">
        <ele>1018.285</ele>
        <time>2021-09-19T12:37:29Z</time>
      </trkpt>
      <trkpt lat="36.742859" lon="-5.074764">
        <ele>1018.078</ele>
        <time>2021-09-19T12:37:30Z</time>
      </trkpt>
      <trkpt lat="36.743043" lon="-5.075011">
        <ele>1017.485</ele>
        <time>2021-09-19T12:37:33Z</time>
      </trkpt>
      <trkpt lat="36.743096" lon="-5.075105">
        <ele>1017.045</ele>
        <time>2021-09-19T12:37:34Z</time>
      </trkpt>
      <trkpt lat="36.743150" lon="-5.075200">
        <ele>1016.247</ele>
        <time>2021-09-19T12:37:35Z</time>
      </trkpt>
      <trkpt lat="36.743255" lon="-5.075401">
        <ele>1015.611</ele>
        <time>2021-09-19T12:37:37Z</time>
      </trkpt>
      <trkpt lat="36.743299" lon="-5.075510">
        <ele>1014.808</ele>
        <time>2021-09-19T12:37:38Z</time>
      </trkpt>
      <trkpt lat="36.743343" lon="-5.075618">
        <ele>1014.052</ele>
        <time>2021-09-19T12:37:39Z</time>
      </trkpt>
      <trkpt lat="36.743399" lon="-5.075719">
        <ele>1013.078</ele>
        <time>2021-09-19T12:37:40Z</time>
      </trkpt>
      <trkpt lat="36.743543" lon="-5.075892">
        <ele>1010.466</ele>
        <time>2021-09-19T12:37:42Z</time>
      </trkpt>
      <trkpt lat="36.743723" lon="-5.075989">
        <ele>1008.858</ele>
        <time>2021-09-19T12:37:44Z</time>
      </trkpt>
      <trkpt lat="36.743812" lon="-5.076028">
        <ele>1008.051</ele>
        <time>2021-09-19T12:37:45Z</time>
      </trkpt>
      <trkpt lat="36.743896" lon="-5.076078">
        <ele>1007.677</ele>
        <time>2021-09-19T12:37:46Z</time>
      </trkpt>
      <trkpt lat="36.743969" lon="-5.076146">
        <ele>1005.460</ele>
        <time>2021-09-19T12:37:47Z</time>
      </trkpt>
      <trkpt lat="36.744033" lon="-5.076225">
        <ele>1003.047</ele>
        <time>2021-09-19T12:37:48Z</time>
      </trkpt>
      <trkpt lat="36.744093" lon="-5.076306">
        <ele>1001.685</ele>
        <time>2021-09-19T12:37:49Z</time>
      </trkpt>
      <trkpt lat="36.744149" lon="-5.076390">
        <ele>1000.489</ele>
        <time>2021-09-19T12:37:50Z</time>
      </trkpt>
      <trkpt lat="36.744203" lon="-5.076480">
        <ele>999.417</ele>
        <time>2021-09-19T12:37:51Z</time>
      </trkpt>
      <trkpt lat="36.744296" lon="-5.076685">
        <ele>998.408</ele>
        <time>2021-09-19T12:37:53Z</time>
      </trkpt>
      <trkpt lat="36.744325" lon="-5.076801">
        <ele>998.096</ele>
        <time>2021-09-19T12:37:54Z</time>
      </trkpt>
      <trkpt lat="36.744329" lon="-5.077043">
        <ele>997.672</ele>
        <time>2021-09-19T12:37:56Z</time>
      </trkpt>
      <trkpt lat="36.744282" lon="-5.077274">
        <ele>997.440</ele>
        <time>2021-09-19T12:37:58Z</time>
      </trkpt>
      <trkpt lat="36.744253" lon="-5.077386">
        <ele>996.862</ele>
        <time>2021-09-19T12:37:59Z</time>
      </trkpt>
      <trkpt lat="36.744225" lon="-5.077497">
        <ele>995.835</ele>
        <time>2021-09-19T12:38:00Z</time>
      </trkpt>
      <trkpt lat="36.744205" lon="-5.077609">
        <ele>994.621</ele>
        <time>2021-09-19T12:38:01Z</time>
      </trkpt>
      <trkpt lat="36.744203" lon="-5.077839">
        <ele>993.644</ele>
        <time>2021-09-19T12:38:03Z</time>
      </trkpt>
      <trkpt lat="36.744274" lon="-5.078197">
        <ele>992.241</ele>
        <time>2021-09-19T12:38:06Z</time>
      </trkpt>
      <trkpt lat="36.744296" lon="-5.078461">
        <ele>990.676</ele>
        <time>2021-09-19T12:38:08Z</time>
      </trkpt>
      <trkpt lat="36.744302" lon="-5.078592">
        <ele>990.090</ele>
        <time>2021-09-19T12:38:09Z</time>
      </trkpt>
      <trkpt lat="36.744314" lon="-5.078718">
        <ele>989.419</ele>
        <time>2021-09-19T12:38:10Z</time>
      </trkpt>
      <trkpt lat="36.744331" lon="-5.078979">
        <ele>988.808</ele>
        <time>2021-09-19T12:38:12Z</time>
      </trkpt>
      <trkpt lat="36.744306" lon="-5.079244">
        <ele>987.875</ele>
        <time>2021-09-19T12:38:14Z</time>
      </trkpt>
      <trkpt lat="36.744293" lon="-5.079484">
        <ele>986.261</ele>
        <time>2021-09-19T12:38:16Z</time>
      </trkpt>
      <trkpt lat="36.744300" lon="-5.079589">
        <ele>985.299</ele>
        <time>2021-09-19T12:38:17Z</time>
      </trkpt>
      <trkpt lat="36.744309" lon="-5.079695">
        <ele>984.241</ele>
        <time>2021-09-19T12:38:18Z</time>
      </trkpt>
      <trkpt lat="36.744320" lon="-5.079797">
        <ele>982.644</ele>
        <time>2021-09-19T12:38:19Z</time>
      </trkpt>
      <trkpt lat="36.744337" lon="-5.079994">
        <ele>981.670</ele>
        <time>2021-09-19T12:38:21Z</time>
      </trkpt>
      <trkpt lat="36.744329" lon="-5.080095">
        <ele>981.213</ele>
        <time>2021-09-19T12:38:22Z</time>
      </trkpt>
      <trkpt lat="36.744299" lon="-5.080195">
        <ele>980.470</ele>
        <time>2021-09-19T12:38:23Z</time>
      </trkpt>
      <trkpt lat="36.744257" lon="-5.080272">
        <ele>978.278</ele>
        <time>2021-09-19T12:38:24Z</time>
      </trkpt>
      <trkpt lat="36.744203" lon="-5.080339">
        <ele>976.233</ele>
        <time>2021-09-19T12:38:25Z</time>
      </trkpt>
      <trkpt lat="36.744142" lon="-5.080404">
        <ele>974.826</ele>
        <time>2021-09-19T12:38:26Z</time>
      </trkpt>
      <trkpt lat="36.744078" lon="-5.080473">
        <ele>973.608</ele>
        <time>2021-09-19T12:38:27Z</time>
      </trkpt>
      <trkpt lat="36.744017" lon="-5.080547">
        <ele>972.495</ele>
        <time>2021-09-19T12:38:28Z</time>
      </trkpt>
      <trkpt lat="36.743959" lon="-5.080635">
        <ele>971.631</ele>
        <time>2021-09-19T12:38:29Z</time>
      </trkpt>
      <trkpt lat="36.743913" lon="-5.080734">
        <ele>971.049</ele>
        <time>2021-09-19T12:38:30Z</time>
      </trkpt>
      <trkpt lat="36.743875" lon="-5.080845">
        <ele>969.661</ele>
        <time>2021-09-19T12:38:31Z</time>
      </trkpt>
      <trkpt lat="36.743853" lon="-5.080962">
        <ele>967.424</ele>
        <time>2021-09-19T12:38:32Z</time>
      </trkpt>
      <trkpt lat="36.743843" lon="-5.081084">
        <ele>966.490</ele>
        <time>2021-09-19T12:38:33Z</time>
      </trkpt>
      <trkpt lat="36.743841" lon="-5.081207">
        <ele>965.613</ele>
        <time>2021-09-19T12:38:34Z</time>
      </trkpt>
      <trkpt lat="36.743834" lon="-5.081336">
        <ele>965.040</ele>
        <time>2021-09-19T12:38:35Z</time>
      </trkpt>
      <trkpt lat="36.743825" lon="-5.081465">
        <ele>964.223</ele>
        <time>2021-09-19T12:38:36Z</time>
      </trkpt>
      <trkpt lat="36.743821" lon="-5.081594">
        <ele>963.683</ele>
        <time>2021-09-19T12:38:37Z</time>
      </trkpt>
      <trkpt lat="36.743816" lon="-5.081725">
        <ele>961.411</ele>
        <time>2021-09-19T12:38:38Z</time>
      </trkpt>
      <trkpt lat="36.743808" lon="-5.081857">
        <ele>960.408</ele>
        <time>2021-09-19T12:38:39Z</time>
      </trkpt>
      <trkpt lat="36.743796" lon="-5.081985">
        <ele>959.210</ele>
        <time>2021-09-19T12:38:40Z</time>
      </trkpt>
      <trkpt lat="36.743782" lon="-5.082107">
        <ele>956.896</ele>
        <time>2021-09-19T12:38:41Z</time>
      </trkpt>
      <trkpt lat="36.743768" lon="-5.082225">
        <ele>955.044</ele>
        <time>2021-09-19T12:38:42Z</time>
      </trkpt>
      <trkpt lat="36.743743" lon="-5.082469">
        <ele>952.886</ele>
        <time>2021-09-19T12:38:44Z</time>
      </trkpt>
      <trkpt lat="36.743735" lon="-5.082595">
        <ele>951.489</ele>
        <time>2021-09-19T12:38:45Z</time>
      </trkpt>
      <trkpt lat="36.743736" lon="-5.082723">
        <ele>949.885</ele>
        <time>2021-09-19T12:38:46Z</time>
      </trkpt>
      <trkpt lat="36.743743" lon="-5.082853">
        <ele>947.858</ele>
        <time>2021-09-19T12:38:47Z</time>
      </trkpt>
      <trkpt lat="36.743754" lon="-5.082985">
        <ele>946.685</ele>
        <time>2021-09-19T12:38:48Z</time>
      </trkpt>
      <trkpt lat="36.743773" lon="-5.083118">
        <ele>945.658</ele>
        <time>2021-09-19T12:38:49Z</time>
      </trkpt>
      <trkpt lat="36.743799" lon="-5.083253">
        <ele>943.452</ele>
        <time>2021-09-19T12:38:50Z</time>
      </trkpt>
      <trkpt lat="36.743832" lon="-5.083382">
        <ele>942.017</ele>
        <time>2021-09-19T12:38:51Z</time>
      </trkpt>
      <trkpt lat="36.743867" lon="-5.083510">
        <ele>940.808</ele>
        <time>2021-09-19T12:38:52Z</time>
      </trkpt>
      <trkpt lat="36.743904" lon="-5.083630">
        <ele>938.663</ele>
        <time>2021-09-19T12:38:53Z</time>
      </trkpt>
      <trkpt lat="36.743943" lon="-5.083733">
        <ele>936.269</ele>
        <time>2021-09-19T12:38:54Z</time>
      </trkpt>
      <trkpt lat="36.743987" lon="-5.083816">
        <ele>934.227</ele>
        <time>2021-09-19T12:38:55Z</time>
      </trkpt>
      <trkpt lat="36.744039" lon="-5.083888">
        <ele>933.059</ele>
        <time>2021-09-19T12:38:56Z</time>
      </trkpt>
      <trkpt lat="36.744112" lon="-5.084044">
        <ele>930.482</ele>
        <time>2021-09-19T12:38:58Z</time>
      </trkpt>
      <trkpt lat="36.744124" lon="-5.084133">
        <ele>927.858</ele>
        <time>2021-09-19T12:38:59Z</time>
      </trkpt>
      <trkpt lat="36.744122" lon="-5.084227">
        <ele>926.051</ele>
        <time>2021-09-19T12:39:00Z</time>
      </trkpt>
      <trkpt lat="36.744103" lon="-5.084327">
        <ele>925.068</ele>
        <time>2021-09-19T12:39:01Z</time>
      </trkpt>
      <trkpt lat="36.744043" lon="-5.084531">
        <ele>923.834</ele>
        <time>2021-09-19T12:39:03Z</time>
      </trkpt>
      <trkpt lat="36.744021" lon="-5.084635">
        <ele>923.455</ele>
        <time>2021-09-19T12:39:04Z</time>
      </trkpt>
      <trkpt lat="36.744020" lon="-5.084742">
        <ele>923.210</ele>
        <time>2021-09-19T12:39:05Z</time>
      </trkpt>
      <trkpt lat="36.744028" lon="-5.084854">
        <ele>922.608</ele>
        <time>2021-09-19T12:39:06Z</time>
      </trkpt>
      <trkpt lat="36.744031" lon="-5.084969">
        <ele>922.051</ele>
        <time>2021-09-19T12:39:07Z</time>
      </trkpt>
      <trkpt lat="36.744018" lon="-5.085087">
        <ele>921.447</ele>
        <time>2021-09-19T12:39:08Z</time>
      </trkpt>
      <trkpt lat="36.743994" lon="-5.085199">
        <ele>921.065</ele>
        <time>2021-09-19T12:39:09Z</time>
      </trkpt>
      <trkpt lat="36.743965" lon="-5.085308">
        <ele>920.477</ele>
        <time>2021-09-19T12:39:10Z</time>
      </trkpt>
      <trkpt lat="36.743907" lon="-5.085503">
        <ele>918.880</ele>
        <time>2021-09-19T12:39:12Z</time>
      </trkpt>
      <trkpt lat="36.743895" lon="-5.085596">
        <ele>917.856</ele>
        <time>2021-09-19T12:39:13Z</time>
      </trkpt>
      <trkpt lat="36.743898" lon="-5.085692">
        <ele>916.479</ele>
        <time>2021-09-19T12:39:14Z</time>
      </trkpt>
      <trkpt lat="36.743919" lon="-5.085789">
        <ele>914.416</ele>
        <time>2021-09-19T12:39:15Z</time>
      </trkpt>
      <trkpt lat="36.743948" lon="-5.085889">
        <ele>913.853</ele>
        <time>2021-09-19T12:39:16Z</time>
      </trkpt>
      <trkpt lat="36.743980" lon="-5.085995">
        <ele>912.804</ele>
        <time>2021-09-19T12:39:17Z</time>
      </trkpt>
      <trkpt lat="36.744044" lon="-5.086213">
        <ele>911.214</ele>
        <time>2021-09-19T12:39:19Z</time>
      </trkpt>
      <trkpt lat="36.744076" lon="-5.086323">
        <ele>909.608</ele>
        <time>2021-09-19T12:39:20Z</time>
      </trkpt>
      <trkpt lat="36.744108" lon="-5.086435">
        <ele>907.623</ele>
        <time>2021-09-19T12:39:21Z</time>
      </trkpt>
      <trkpt lat="36.744142" lon="-5.086548">
        <ele>906.049</ele>
        <time>2021-09-19T12:39:22Z</time>
      </trkpt>
      <trkpt lat="36.744211" lon="-5.086776">
        <ele>904.667</ele>
        <time>2021-09-19T12:39:24Z</time>
      </trkpt>
      <trkpt lat="36.744283" lon="-5.086973">
        <ele>903.829</ele>
        <time>2021-09-19T12:39:26Z</time>
      </trkpt>
      <trkpt lat="36.744329" lon="-5.087064">
        <ele>903.622</ele>
        <time>2021-09-19T12:39:27Z</time>
      </trkpt>
      <trkpt lat="36.744451" lon="-5.087232">
        <ele>902.418</ele>
        <time>2021-09-19T12:39:29Z</time>
      </trkpt>
      <trkpt lat="36.744514" lon="-5.087318">
        <ele>901.231</ele>
        <time>2021-09-19T12:39:30Z</time>
      </trkpt>
      <trkpt lat="36.744575" lon="-5.087408">
        <ele>898.278</ele>
        <time>2021-09-19T12:39:31Z</time>
      </trkpt>
      <trkpt lat="36.744638" lon="-5.087500">
        <ele>896.097</ele>
        <time>2021-09-19T12:39:32Z</time>
      </trkpt>
      <trkpt lat="36.744706" lon="-5.087592">
        <ele>895.023</ele>
        <time>2021-09-19T12:39:33Z</time>
      </trkpt>
      <trkpt lat="36.744774" lon="-5.087685">
        <ele>894.025</ele>
        <time>2021-09-19T12:39:34Z</time>
      </trkpt>
      <trkpt lat="36.744843" lon="-5.087777">
        <ele>892.208</ele>
        <time>2021-09-19T12:39:35Z</time>
      </trkpt>
      <trkpt lat="36.744912" lon="-5.087867">
        <ele>890.447</ele>
        <time>2021-09-19T12:39:36Z</time>
      </trkpt>
      <trkpt lat="36.744977" lon="-5.087958">
        <ele>889.233</ele>
        <time>2021-09-19T12:39:37Z</time>
      </trkpt>
      <trkpt lat="36.745035" lon="-5.088053">
        <ele>888.611</ele>
        <time>2021-09-19T12:39:38Z</time>
      </trkpt>
      <trkpt lat="36.745083" lon="-5.088155">
        <ele>887.853</ele>
        <time>2021-09-19T12:39:39Z</time>
      </trkpt>
      <trkpt lat="36.745190" lon="-5.088500">
        <ele>886.696</ele>
        <time>2021-09-19T12:39:42Z</time>
      </trkpt>
      <trkpt lat="36.745235" lon="-5.088619">
        <ele>885.072</ele>
        <time>2021-09-19T12:39:43Z</time>
      </trkpt>
      <trkpt lat="36.745276" lon="-5.088740">
        <ele>883.225</ele>
        <time>2021-09-19T12:39:44Z</time>
      </trkpt>
      <trkpt lat="36.745370" lon="-5.089108">
        <ele>882.022</ele>
        <time>2021-09-19T12:39:47Z</time>
      </trkpt>
      <trkpt lat="36.745387" lon="-5.089368">
        <ele>879.888</ele>
        <time>2021-09-19T12:39:49Z</time>
      </trkpt>
      <trkpt lat="36.745400" lon="-5.089629">
        <ele>878.424</ele>
        <time>2021-09-19T12:39:51Z</time>
      </trkpt>
      <trkpt lat="36.745427" lon="-5.090004">
        <ele>877.226</ele>
        <time>2021-09-19T12:39:54Z</time>
      </trkpt>
      <trkpt lat="36.745442" lon="-5.090253">
        <ele>876.208</ele>
        <time>2021-09-19T12:39:56Z</time>
      </trkpt>
      <trkpt lat="36.745460" lon="-5.090513">
        <ele>873.686</ele>
        <time>2021-09-19T12:39:58Z</time>
      </trkpt>
      <trkpt lat="36.745456" lon="-5.090647">
        <ele>872.492</ele>
        <time>2021-09-19T12:39:59Z</time>
      </trkpt>
      <trkpt lat="36.745449" lon="-5.090781">
        <ele>871.850</ele>
        <time>2021-09-19T12:40:00Z</time>
      </trkpt>
      <trkpt lat="36.745442" lon="-5.090921">
        <ele>871.252</ele>
        <time>2021-09-19T12:40:01Z</time>
      </trkpt>
      <trkpt lat="36.745411" lon="-5.091287">
        <ele>870.455</ele>
        <time>2021-09-19T12:40:04Z</time>
      </trkpt>
      <trkpt lat="36.745382" lon="-5.091389">
        <ele>869.881</ele>
        <time>2021-09-19T12:40:05Z</time>
      </trkpt>
      <trkpt lat="36.745285" lon="-5.091561">
        <ele>869.074</ele>
        <time>2021-09-19T12:40:07Z</time>
      </trkpt>
      <trkpt lat="36.745231" lon="-5.091639">
        <ele>868.691</ele>
        <time>2021-09-19T12:40:08Z</time>
      </trkpt>
      <trkpt lat="36.745155" lon="-5.091822">
        <ele>867.855</ele>
        <time>2021-09-19T12:40:10Z</time>
      </trkpt>
      <trkpt lat="36.745126" lon="-5.091935">
        <ele>867.207</ele>
        <time>2021-09-19T12:40:11Z</time>
      </trkpt>
      <trkpt lat="36.745104" lon="-5.092057">
        <ele>865.217</ele>
        <time>2021-09-19T12:40:12Z</time>
      </trkpt>
      <trkpt lat="36.745086" lon="-5.092186">
        <ele>863.208</ele>
        <time>2021-09-19T12:40:13Z</time>
      </trkpt>
      <trkpt lat="36.745069" lon="-5.092318">
        <ele>862.683</ele>
        <time>2021-09-19T12:40:14Z</time>
      </trkpt>
      <trkpt lat="36.745048" lon="-5.092451">
        <ele>861.889</ele>
        <time>2021-09-19T12:40:15Z</time>
      </trkpt>
      <trkpt lat="36.745019" lon="-5.092588">
        <ele>860.827</ele>
        <time>2021-09-19T12:40:16Z</time>
      </trkpt>
      <trkpt lat="36.744978" lon="-5.092724">
        <ele>860.029</ele>
        <time>2021-09-19T12:40:17Z</time>
      </trkpt>
      <trkpt lat="36.744926" lon="-5.092849">
        <ele>859.432</ele>
        <time>2021-09-19T12:40:18Z</time>
      </trkpt>
      <trkpt lat="36.744871" lon="-5.092968">
        <ele>858.478</ele>
        <time>2021-09-19T12:40:19Z</time>
      </trkpt>
      <trkpt lat="36.744773" lon="-5.093204">
        <ele>857.091</ele>
        <time>2021-09-19T12:40:21Z</time>
      </trkpt>
      <trkpt lat="36.744683" lon="-5.093429">
        <ele>854.858</ele>
        <time>2021-09-19T12:40:23Z</time>
      </trkpt>
      <trkpt lat="36.744622" lon="-5.093632">
        <ele>853.042</ele>
        <time>2021-09-19T12:40:25Z</time>
      </trkpt>
      <trkpt lat="36.744611" lon="-5.093730">
        <ele>852.022</ele>
        <time>2021-09-19T12:40:26Z</time>
      </trkpt>
      <trkpt lat="36.744620" lon="-5.093945">
        <ele>850.614</ele>
        <time>2021-09-19T12:40:28Z</time>
      </trkpt>
      <trkpt lat="36.744633" lon="-5.094065">
        <ele>849.408</ele>
        <time>2021-09-19T12:40:29Z</time>
      </trkpt>
      <trkpt lat="36.744647" lon="-5.094194">
        <ele>847.892</ele>
        <time>2021-09-19T12:40:30Z</time>
      </trkpt>
      <trkpt lat="36.744658" lon="-5.094332">
        <ele>846.238</ele>
        <time>2021-09-19T12:40:31Z</time>
      </trkpt>
      <trkpt lat="36.744663" lon="-5.094476">
        <ele>844.496</ele>
        <time>2021-09-19T12:40:32Z</time>
      </trkpt>
      <trkpt lat="36.744663" lon="-5.094625">
        <ele>843.088</ele>
        <time>2021-09-19T12:40:33Z</time>
      </trkpt>
      <trkpt lat="36.744647" lon="-5.094933">
        <ele>841.661</ele>
        <time>2021-09-19T12:40:35Z</time>
      </trkpt>
      <trkpt lat="36.744606" lon="-5.095242">
        <ele>841.027</ele>
        <time>2021-09-19T12:40:37Z</time>
      </trkpt>
      <trkpt lat="36.744584" lon="-5.095394">
        <ele>840.610</ele>
        <time>2021-09-19T12:40:38Z</time>
      </trkpt>
      <trkpt lat="36.744577" lon="-5.095545">
        <ele>839.067</ele>
        <time>2021-09-19T12:40:39Z</time>
      </trkpt>
      <trkpt lat="36.744594" lon="-5.095692">
        <ele>838.027</ele>
        <time>2021-09-19T12:40:40Z</time>
      </trkpt>
      <trkpt lat="36.744624" lon="-5.095835">
        <ele>837.268</ele>
        <time>2021-09-19T12:40:41Z</time>
      </trkpt>
      <trkpt lat="36.744642" lon="-5.095978">
        <ele>836.614</ele>
        <time>2021-09-19T12:40:42Z</time>
      </trkpt>
      <trkpt lat="36.744639" lon="-5.096121">
        <ele>835.808</ele>
        <time>2021-09-19T12:40:43Z</time>
      </trkpt>
      <trkpt lat="36.744574" lon="-5.096426">
        <ele>834.260</ele>
        <time>2021-09-19T12:40:45Z</time>
      </trkpt>
      <trkpt lat="36.744535" lon="-5.096587">
        <ele>833.296</ele>
        <time>2021-09-19T12:40:46Z</time>
      </trkpt>
      <trkpt lat="36.744498" lon="-5.096747">
        <ele>831.874</ele>
        <time>2021-09-19T12:40:47Z</time>
      </trkpt>
      <trkpt lat="36.744450" lon="-5.096906">
        <ele>829.276</ele>
        <time>2021-09-19T12:40:48Z</time>
      </trkpt>
      <trkpt lat="36.744397" lon="-5.097060">
        <ele>826.859</ele>
        <time>2021-09-19T12:40:49Z</time>
      </trkpt>
      <trkpt lat="36.744338" lon="-5.097208">
        <ele>825.285</ele>
        <time>2021-09-19T12:40:50Z</time>
      </trkpt>
      <trkpt lat="36.744220" lon="-5.097488">
        <ele>823.668</ele>
        <time>2021-09-19T12:40:52Z</time>
      </trkpt>
      <trkpt lat="36.744165" lon="-5.097624">
        <ele>821.855</ele>
        <time>2021-09-19T12:40:53Z</time>
      </trkpt>
      <trkpt lat="36.744114" lon="-5.097758">
        <ele>819.064</ele>
        <time>2021-09-19T12:40:54Z</time>
      </trkpt>
      <trkpt lat="36.744068" lon="-5.097885">
        <ele>817.006</ele>
        <time>2021-09-19T12:40:55Z</time>
      </trkpt>
      <trkpt lat="36.744023" lon="-5.098011">
        <ele>815.616</ele>
        <time>2021-09-19T12:40:56Z</time>
      </trkpt>
      <trkpt lat="36.743982" lon="-5.098133">
        <ele>813.408</ele>
        <time>2021-09-19T12:40:57Z</time>
      </trkpt>
      <trkpt lat="36.743943" lon="-5.098253">
        <ele>812.234</ele>
        <time>2021-09-19T12:40:58Z</time>
      </trkpt>
      <trkpt lat="36.743865" lon="-5.098493">
        <ele>811.030</ele>
        <time>2021-09-19T12:41:00Z</time>
      </trkpt>
      <trkpt lat="36.743825" lon="-5.098615">
        <ele>810.698</ele>
        <time>2021-09-19T12:41:01Z</time>
      </trkpt>
      <trkpt lat="36.743652" lon="-5.099233">
        <ele>809.870</ele>
        <time>2021-09-19T12:41:06Z</time>
      </trkpt>
      <trkpt lat="36.743597" lon="-5.099477">
        <ele>809.073</ele>
        <time>2021-09-19T12:41:08Z</time>
      </trkpt>
      <trkpt lat="36.743576" lon="-5.099600">
        <ele>808.439</ele>
        <time>2021-09-19T12:41:09Z</time>
      </trkpt>
      <trkpt lat="36.743556" lon="-5.099721">
        <ele>807.462</ele>
        <time>2021-09-19T12:41:10Z</time>
      </trkpt>
      <trkpt lat="36.743515" lon="-5.099958">
        <ele>805.499</ele>
        <time>2021-09-19T12:41:12Z</time>
      </trkpt>
      <trkpt lat="36.743464" lon="-5.100194">
        <ele>804.488</ele>
        <time>2021-09-19T12:41:14Z</time>
      </trkpt>
      <trkpt lat="36.743403" lon="-5.100430">
        <ele>803.424</ele>
        <time>2021-09-19T12:41:16Z</time>
      </trkpt>
      <trkpt lat="36.743372" lon="-5.100548">
        <ele>802.826</ele>
        <time>2021-09-19T12:41:17Z</time>
      </trkpt>
      <trkpt lat="36.743254" lon="-5.100895">
        <ele>801.608</ele>
        <time>2021-09-19T12:41:20Z</time>
      </trkpt>
      <trkpt lat="36.743167" lon="-5.101117">
        <ele>799.656</ele>
        <time>2021-09-19T12:41:22Z</time>
      </trkpt>
      <trkpt lat="36.743074" lon="-5.101338">
        <ele>798.022</ele>
        <time>2021-09-19T12:41:24Z</time>
      </trkpt>
      <trkpt lat="36.743041" lon="-5.101446">
        <ele>797.450</ele>
        <time>2021-09-19T12:41:25Z</time>
      </trkpt>
      <trkpt lat="36.743013" lon="-5.101557">
        <ele>796.822</ele>
        <time>2021-09-19T12:41:26Z</time>
      </trkpt>
      <trkpt lat="36.742964" lon="-5.101777">
        <ele>795.815</ele>
        <time>2021-09-19T12:41:28Z</time>
      </trkpt>
      <trkpt lat="36.742951" lon="-5.101889">
        <ele>795.671</ele>
        <time>2021-09-19T12:41:29Z</time>
      </trkpt>
      <trkpt lat="36.742951" lon="-5.101998">
        <ele>794.894</ele>
        <time>2021-09-19T12:41:30Z</time>
      </trkpt>
      <trkpt lat="36.742968" lon="-5.102208">
        <ele>792.821</ele>
        <time>2021-09-19T12:41:32Z</time>
      </trkpt>
      <trkpt lat="36.742977" lon="-5.102312">
        <ele>791.838</ele>
        <time>2021-09-19T12:41:33Z</time>
      </trkpt>
      <trkpt lat="36.742975" lon="-5.102519">
        <ele>790.670</ele>
        <time>2021-09-19T12:41:35Z</time>
      </trkpt>
      <trkpt lat="36.742951" lon="-5.102726">
        <ele>789.617</ele>
        <time>2021-09-19T12:41:37Z</time>
      </trkpt>
      <trkpt lat="36.742911" lon="-5.102934">
        <ele>788.408</ele>
        <time>2021-09-19T12:41:39Z</time>
      </trkpt>
      <trkpt lat="36.742886" lon="-5.103039">
        <ele>788.251</ele>
        <time>2021-09-19T12:41:40Z</time>
      </trkpt>
      <trkpt lat="36.742776" lon="-5.103451">
        <ele>787.497</ele>
        <time>2021-09-19T12:41:44Z</time>
      </trkpt>
      <trkpt lat="36.742708" lon="-5.103762">
        <ele>786.885</ele>
        <time>2021-09-19T12:41:47Z</time>
      </trkpt>
      <trkpt lat="36.742672" lon="-5.103974">
        <ele>786.217</ele>
        <time>2021-09-19T12:41:49Z</time>
      </trkpt>
      <trkpt lat="36.742600" lon="-5.104502">
        <ele>785.220</ele>
        <time>2021-09-19T12:41:54Z</time>
      </trkpt>
      <trkpt lat="36.742546" lon="-5.105215">
        <ele>784.046</ele>
        <time>2021-09-19T12:42:01Z</time>
      </trkpt>
      <trkpt lat="36.742523" lon="-5.105514">
        <ele>783.239</ele>
        <time>2021-09-19T12:42:04Z</time>
      </trkpt>
      <trkpt lat="36.742507" lon="-5.105715">
        <ele>782.856</ele>
        <time>2021-09-19T12:42:06Z</time>
      </trkpt>
      <trkpt lat="36.742493" lon="-5.105915">
        <ele>782.067</ele>
        <time>2021-09-19T12:42:08Z</time>
      </trkpt>
      <trkpt lat="36.742462" lon="-5.106315">
        <ele>781.081</ele>
        <time>2021-09-19T12:42:12Z</time>
      </trkpt>
      <trkpt lat="36.742456" lon="-5.106411">
        <ele>780.619</ele>
        <time>2021-09-19T12:42:13Z</time>
      </trkpt>
      <trkpt lat="36.742437" lon="-5.106694">
        <ele>779.808</ele>
        <time>2021-09-19T12:42:16Z</time>
      </trkpt>
      <trkpt lat="36.742417" lon="-5.107153">
        <ele>779.444</ele>
        <time>2021-09-19T12:42:21Z</time>
      </trkpt>
      <trkpt lat="36.742432" lon="-5.107514">
        <ele>778.820</ele>
        <time>2021-09-19T12:42:25Z</time>
      </trkpt>
      <trkpt lat="36.742461" lon="-5.107783">
        <ele>778.248</ele>
        <time>2021-09-19T12:42:28Z</time>
      </trkpt>
      <trkpt lat="36.742468" lon="-5.107970">
        <ele>777.890</ele>
        <time>2021-09-19T12:42:30Z</time>
      </trkpt>
      <trkpt lat="36.742451" lon="-5.108254">
        <ele>777.283</ele>
        <time>2021-09-19T12:42:33Z</time>
      </trkpt>
      <trkpt lat="36.742423" lon="-5.108541">
        <ele>776.679</ele>
        <time>2021-09-19T12:42:36Z</time>
      </trkpt>
      <trkpt lat="36.742399" lon="-5.108726">
        <ele>775.632</ele>
        <time>2021-09-19T12:42:38Z</time>
      </trkpt>
      <trkpt lat="36.742381" lon="-5.108913">
        <ele>774.689</ele>
        <time>2021-09-19T12:42:40Z</time>
      </trkpt>
      <trkpt lat="36.742355" lon="-5.109387">
        <ele>773.423</ele>
        <time>2021-09-19T12:42:45Z</time>
      </trkpt>
      <trkpt lat="36.742353" lon="-5.109481">
        <ele>773.483</ele>
        <time>2021-09-19T12:42:46Z</time>
      </trkpt>
      <trkpt lat="36.742342" lon="-5.109939">
        <ele>772.411</ele>
        <time>2021-09-19T12:42:51Z</time>
      </trkpt>
      <trkpt lat="36.742345" lon="-5.110209">
        <ele>771.608</ele>
        <time>2021-09-19T12:42:54Z</time>
      </trkpt>
      <trkpt lat="36.742346" lon="-5.110301">
        <ele>771.470</ele>
        <time>2021-09-19T12:42:55Z</time>
      </trkpt>
      <trkpt lat="36.742354" lon="-5.110579">
        <ele>770.216</ele>
        <time>2021-09-19T12:42:58Z</time>
      </trkpt>
      <trkpt lat="36.742366" lon="-5.111061">
        <ele>768.624</ele>
        <time>2021-09-19T12:43:03Z</time>
      </trkpt>
      <trkpt lat="36.742369" lon="-5.111159">
        <ele>768.426</ele>
        <time>2021-09-19T12:43:04Z</time>
      </trkpt>
      <trkpt lat="36.742436" lon="-5.111821">
        <ele>767.859</ele>
        <time>2021-09-19T12:43:11Z</time>
      </trkpt>
      <trkpt lat="36.742534" lon="-5.112513">
        <ele>766.815</ele>
        <time>2021-09-19T12:43:19Z</time>
      </trkpt>
      <trkpt lat="36.742543" lon="-5.112594">
        <ele>766.668</ele>
        <time>2021-09-19T12:43:20Z</time>
      </trkpt>
      <trkpt lat="36.742599" lon="-5.113053">
        <ele>765.485</ele>
        <time>2021-09-19T12:43:26Z</time>
      </trkpt>
      <trkpt lat="36.742610" lon="-5.113126">
        <ele>765.475</ele>
        <time>2021-09-19T12:43:27Z</time>
      </trkpt>
      <trkpt lat="36.742636" lon="-5.113260">
        <ele>765.228</ele>
        <time>2021-09-19T12:43:29Z</time>
      </trkpt>
      <trkpt lat="36.742686" lon="-5.113363">
        <ele>764.420</ele>
        <time>2021-09-19T12:43:31Z</time>
      </trkpt>
      <trkpt lat="36.742829" lon="-5.113439">
        <ele>764.208</ele>
        <time>2021-09-19T12:43:34Z</time>
      </trkpt>
      <trkpt lat="36.742950" lon="-5.113436">
        <ele>763.825</ele>
        <time>2021-09-19T12:43:36Z</time>
      </trkpt>
      <trkpt lat="36.743077" lon="-5.113408">
        <ele>763.461</ele>
        <time>2021-09-19T12:43:38Z</time>
      </trkpt>
      <trkpt lat="36.743143" lon="-5.113388">
        <ele>763.299</ele>
        <time>2021-09-19T12:43:39Z</time>
      </trkpt>
      <trkpt lat="36.743521" lon="-5.113286">
        <ele>762.651</ele>
        <time>2021-09-19T12:43:45Z</time>
      </trkpt>
      <trkpt lat="36.743643" lon="-5.113259">
        <ele>762.274</ele>
        <time>2021-09-19T12:43:47Z</time>
      </trkpt>
      <trkpt lat="36.744099" lon="-5.113165">
        <ele>761.680</ele>
        <time>2021-09-19T12:43:54Z</time>
      </trkpt>
      <trkpt lat="36.744675" lon="-5.113045">
        <ele>761.663</ele>
        <time>2021-09-19T12:44:02Z</time>
      </trkpt>
      <trkpt lat="36.745038" lon="-5.112951">
        <ele>761.440</ele>
        <time>2021-09-19T12:44:07Z</time>
      </trkpt>
      <trkpt lat="36.745260" lon="-5.112903">
        <ele>761.415</ele>
        <time>2021-09-19T12:44:10Z</time>
      </trkpt>
      <trkpt lat="36.745700" lon="-5.112802">
        <ele>761.065</ele>
        <time>2021-09-19T12:44:16Z</time>
      </trkpt>
      <trkpt lat="36.746062" lon="-5.112705">
        <ele>760.211</ele>
        <time>2021-09-19T12:44:21Z</time>
      </trkpt>
      <trkpt lat="36.746210" lon="-5.112667">
        <ele>760.008</ele>
        <time>2021-09-19T12:44:23Z</time>
      </trkpt>
      <trkpt lat="36.746651" lon="-5.112525">
        <ele>759.669</ele>
        <time>2021-09-19T12:44:29Z</time>
      </trkpt>
      <trkpt lat="36.746800" lon="-5.112473">
        <ele>759.465</ele>
        <time>2021-09-19T12:44:31Z</time>
      </trkpt>
      <trkpt lat="36.747181" lon="-5.112325">
        <ele>759.293</ele>
        <time>2021-09-19T12:44:36Z</time>
      </trkpt>
      <trkpt lat="36.747677" lon="-5.112040">
        <ele>758.455</ele>
        <time>2021-09-19T12:44:43Z</time>
      </trkpt>
      <trkpt lat="36.747747" lon="-5.112002">
        <ele>758.488</ele>
        <time>2021-09-19T12:44:44Z</time>
      </trkpt>
      <trkpt lat="36.747819" lon="-5.111970">
        <ele>758.484</ele>
        <time>2021-09-19T12:44:45Z</time>
      </trkpt>
      <trkpt lat="36.748309" lon="-5.111725">
        <ele>758.087</ele>
        <time>2021-09-19T12:44:52Z</time>
      </trkpt>
      <trkpt lat="36.748443" lon="-5.111635">
        <ele>757.894</ele>
        <time>2021-09-19T12:44:54Z</time>
      </trkpt>
      <trkpt lat="36.748515" lon="-5.111610">
        <ele>757.652</ele>
        <time>2021-09-19T12:44:55Z</time>
      </trkpt>
      <trkpt lat="36.748592" lon="-5.111617">
        <ele>757.253</ele>
        <time>2021-09-19T12:44:56Z</time>
      </trkpt>
      <trkpt lat="36.748747" lon="-5.111647">
        <ele>757.008</ele>
        <time>2021-09-19T12:44:58Z</time>
      </trkpt>
      <trkpt lat="36.748821" lon="-5.111635">
        <ele>756.808</ele>
        <time>2021-09-19T12:44:59Z</time>
      </trkpt>
      <trkpt lat="36.749094" lon="-5.111506">
        <ele>756.413</ele>
        <time>2021-09-19T12:45:03Z</time>
      </trkpt>
      <trkpt lat="36.749162" lon="-5.111475">
        <ele>756.219</ele>
        <time>2021-09-19T12:45:04Z</time>
      </trkpt>
      <trkpt lat="36.749627" lon="-5.111278">
        <ele>755.897</ele>
        <time>2021-09-19T12:45:11Z</time>
      </trkpt>
      <trkpt lat="36.750139" lon="-5.111009">
        <ele>755.869</ele>
        <time>2021-09-19T12:45:19Z</time>
      </trkpt>
      <trkpt lat="36.750380" lon="-5.110757">
        <ele>756.252</ele>
        <time>2021-09-19T12:45:24Z</time>
      </trkpt>
      <trkpt lat="36.750703" lon="-5.110350">
        <ele>756.898</ele>
        <time>2021-09-19T12:45:31Z</time>
      </trkpt>
      <trkpt lat="36.750899" lon="-5.110135">
        <ele>756.831</ele>
        <time>2021-09-19T12:45:35Z</time>
      </trkpt>
      <trkpt lat="36.751014" lon="-5.110059">
        <ele>757.028</ele>
        <time>2021-09-19T12:45:37Z</time>
      </trkpt>
      <trkpt lat="36.751327" lon="-5.109826">
        <ele>757.219</ele>
        <time>2021-09-19T12:45:43Z</time>
      </trkpt>
      <trkpt lat="36.751424" lon="-5.109748">
        <ele>757.409</ele>
        <time>2021-09-19T12:45:45Z</time>
      </trkpt>
      <trkpt lat="36.751522" lon="-5.109691">
        <ele>757.819</ele>
        <time>2021-09-19T12:45:47Z</time>
      </trkpt>
      <trkpt lat="36.751568" lon="-5.109662">
        <ele>758.008</ele>
        <time>2021-09-19T12:45:48Z</time>
      </trkpt>
      <trkpt lat="36.751784" lon="-5.109555">
        <ele>758.889</ele>
        <time>2021-09-19T12:45:53Z</time>
      </trkpt>
      <trkpt lat="36.751833" lon="-5.109545">
        <ele>758.875</ele>
        <time>2021-09-19T12:45:54Z</time>
      </trkpt>
      <trkpt lat="36.751881" lon="-5.109540">
        <ele>759.013</ele>
        <time>2021-09-19T12:45:55Z</time>
      </trkpt>
      <trkpt lat="36.751975" lon="-5.109536">
        <ele>759.285</ele>
        <time>2021-09-19T12:45:57Z</time>
      </trkpt>
      <trkpt lat="36.752117" lon="-5.109551">
        <ele>759.618</ele>
        <time>2021-09-19T12:46:00Z</time>
      </trkpt>
      <trkpt lat="36.752208" lon="-5.109556">
        <ele>760.094</ele>
        <time>2021-09-19T12:46:02Z</time>
      </trkpt>
      <trkpt lat="36.752251" lon="-5.109563">
        <ele>760.257</ele>
        <time>2021-09-19T12:46:03Z</time>
      </trkpt>
      <trkpt lat="36.752369" lon="-5.109576">
        <ele>760.474</ele>
        <time>2021-09-19T12:46:06Z</time>
      </trkpt>
      <trkpt lat="36.752406" lon="-5.109580">
        <ele>760.675</ele>
        <time>2021-09-19T12:46:07Z</time>
      </trkpt>
      <trkpt lat="36.752585" lon="-5.109629">
        <ele>761.028</ele>
        <time>2021-09-19T12:46:12Z</time>
      </trkpt>
      <trkpt lat="36.752809" lon="-5.109628">
        <ele>762.220</ele>
        <time>2021-09-19T12:46:18Z</time>
      </trkpt>
      <trkpt lat="36.752948" lon="-5.109591">
        <ele>763.208</ele>
        <time>2021-09-19T12:46:22Z</time>
      </trkpt>
      <trkpt lat="36.753105" lon="-5.109583">
        <ele>764.275</ele>
        <time>2021-09-19T12:46:26Z</time>
      </trkpt>
      <trkpt lat="36.753316" lon="-5.109580">
        <ele>765.431</ele>
        <time>2021-09-19T12:46:31Z</time>
      </trkpt>
      <trkpt lat="36.753398" lon="-5.109594">
        <ele>765.819</ele>
        <time>2021-09-19T12:46:33Z</time>
      </trkpt>
      <trkpt lat="36.753677" lon="-5.109671">
        <ele>766.641</ele>
        <time>2021-09-19T12:46:40Z</time>
      </trkpt>
      <trkpt lat="36.753926" lon="-5.109714">
        <ele>767.614</ele>
        <time>2021-09-19T12:46:46Z</time>
      </trkpt>
      <trkpt lat="36.754128" lon="-5.109748">
        <ele>768.610</ele>
        <time>2021-09-19T12:46:51Z</time>
      </trkpt>
      <trkpt lat="36.754248" lon="-5.109733">
        <ele>769.233</ele>
        <time>2021-09-19T12:46:54Z</time>
      </trkpt>
      <trkpt lat="36.754327" lon="-5.109720">
        <ele>770.060</ele>
        <time>2021-09-19T12:46:56Z</time>
      </trkpt>
      <trkpt lat="36.754624" lon="-5.109694">
        <ele>771.091</ele>
        <time>2021-09-19T12:47:03Z</time>
      </trkpt>
      <trkpt lat="36.754730" lon="-5.109696">
        <ele>771.081</ele>
        <time>2021-09-19T12:47:05Z</time>
      </trkpt>
      <trkpt lat="36.754896" lon="-5.109655">
        <ele>771.219</ele>
        <time>2021-09-19T12:47:08Z</time>
      </trkpt>
      <trkpt lat="36.754953" lon="-5.109649">
        <ele>771.208</ele>
        <time>2021-09-19T12:47:09Z</time>
      </trkpt>
      <trkpt lat="36.755106" lon="-5.109695">
        <ele>771.217</ele>
        <time>2021-09-19T12:47:12Z</time>
      </trkpt>
      <trkpt lat="36.755301" lon="-5.109724">
        <ele>771.023</ele>
        <time>2021-09-19T12:47:16Z</time>
      </trkpt>
      <trkpt lat="36.755382" lon="-5.109677">
        <ele>771.021</ele>
        <time>2021-09-19T12:47:18Z</time>
      </trkpt>
      <trkpt lat="36.755545" lon="-5.109579">
        <ele>771.073</ele>
        <time>2021-09-19T12:47:22Z</time>
      </trkpt>
      <trkpt lat="36.755630" lon="-5.109531">
        <ele>771.426</ele>
        <time>2021-09-19T12:47:24Z</time>
      </trkpt>
      <trkpt lat="36.755718" lon="-5.109486">
        <ele>771.822</ele>
        <time>2021-09-19T12:47:26Z</time>
      </trkpt>
      <trkpt lat="36.755857" lon="-5.109431">
        <ele>772.025</ele>
        <time>2021-09-19T12:47:29Z</time>
      </trkpt>
      <trkpt lat="36.755950" lon="-5.109403">
        <ele>772.442</ele>
        <time>2021-09-19T12:47:31Z</time>
      </trkpt>
      <trkpt lat="36.756087" lon="-5.109396">
        <ele>773.084</ele>
        <time>2021-09-19T12:47:34Z</time>
      </trkpt>
      <trkpt lat="36.756361" lon="-5.109462">
        <ele>773.607</ele>
        <time>2021-09-19T12:47:40Z</time>
      </trkpt>
      <trkpt lat="36.756408" lon="-5.109466">
        <ele>773.617</ele>
        <time>2021-09-19T12:47:41Z</time>
      </trkpt>
      <trkpt lat="36.756582" lon="-5.109442">
        <ele>774.208</ele>
        <time>2021-09-19T12:47:45Z</time>
      </trkpt>
      <trkpt lat="36.756710" lon="-5.109416">
        <ele>774.856</ele>
        <time>2021-09-19T12:47:48Z</time>
      </trkpt>
      <trkpt lat="36.756934" lon="-5.109383">
        <ele>775.412</ele>
        <time>2021-09-19T12:47:53Z</time>
      </trkpt>
      <trkpt lat="36.757025" lon="-5.109372">
        <ele>775.830</ele>
        <time>2021-09-19T12:47:55Z</time>
      </trkpt>
      <trkpt lat="36.757198" lon="-5.109354">
        <ele>776.862</ele>
        <time>2021-09-19T12:47:59Z</time>
      </trkpt>
      <trkpt lat="36.757246" lon="-5.109350">
        <ele>777.025</ele>
        <time>2021-09-19T12:48:00Z</time>
      </trkpt>
      <trkpt lat="36.757551" lon="-5.109305">
        <ele>777.821</ele>
        <time>2021-09-19T12:48:06Z</time>
      </trkpt>
      <trkpt lat="36.757655" lon="-5.109290">
        <ele>778.034</ele>
        <time>2021-09-19T12:48:08Z</time>
      </trkpt>
      <trkpt lat="36.757807" lon="-5.109252">
        <ele>778.471</ele>
        <time>2021-09-19T12:48:11Z</time>
      </trkpt>
      <trkpt lat="36.757901" lon="-5.109205">
        <ele>778.229</ele>
        <time>2021-09-19T12:48:13Z</time>
      </trkpt>
      <trkpt lat="36.758198" lon="-5.109064">
        <ele>778.400</ele>
        <time>2021-09-19T12:48:20Z</time>
      </trkpt>
      <trkpt lat="36.758240" lon="-5.109057">
        <ele>778.420</ele>
        <time>2021-09-19T12:48:21Z</time>
      </trkpt>
      <trkpt lat="36.758490" lon="-5.109014">
        <ele>779.208</ele>
        <time>2021-09-19T12:48:27Z</time>
      </trkpt>
      <trkpt lat="36.758595" lon="-5.109003">
        <ele>779.850</ele>
        <time>2021-09-19T12:48:30Z</time>
      </trkpt>
      <trkpt lat="36.758657" lon="-5.109041">
        <ele>780.256</ele>
        <time>2021-09-19T12:48:32Z</time>
      </trkpt>
      <trkpt lat="36.758719" lon="-5.109098">
        <ele>780.474</ele>
        <time>2021-09-19T12:48:34Z</time>
      </trkpt>
      <trkpt lat="36.758751" lon="-5.109127">
        <ele>780.676</ele>
        <time>2021-09-19T12:48:35Z</time>
      </trkpt>
      <trkpt lat="36.758830" lon="-5.109168">
        <ele>781.049</ele>
        <time>2021-09-19T12:48:37Z</time>
      </trkpt>
      <trkpt lat="36.758913" lon="-5.109201">
        <ele>781.885</ele>
        <time>2021-09-19T12:48:39Z</time>
      </trkpt>
      <trkpt lat="36.759051" lon="-5.109261">
        <ele>783.268</ele>
        <time>2021-09-19T12:48:42Z</time>
      </trkpt>
      <trkpt lat="36.759155" lon="-5.109305">
        <ele>783.855</ele>
        <time>2021-09-19T12:48:44Z</time>
      </trkpt>
      <trkpt lat="36.759557" lon="-5.109494">
        <ele>784.074</ele>
        <time>2021-09-19T12:48:51Z</time>
      </trkpt>
      <trkpt lat="36.760014" lon="-5.109655">
        <ele>783.656</ele>
        <time>2021-09-19T12:48:58Z</time>
      </trkpt>
      <trkpt lat="36.760433" lon="-5.109755">
        <ele>782.621</ele>
        <time>2021-09-19T12:49:03Z</time>
      </trkpt>
      <trkpt lat="36.760699" lon="-5.109791">
        <ele>782.208</ele>
        <time>2021-09-19T12:49:06Z</time>
      </trkpt>
      <trkpt lat="36.760949" lon="-5.109811">
        <ele>780.645</ele>
        <time>2021-09-19T12:49:09Z</time>
      </trkpt>
      <trkpt lat="36.761109" lon="-5.109812">
        <ele>779.611</ele>
        <time>2021-09-19T12:49:11Z</time>
      </trkpt>
      <trkpt lat="36.761501" lon="-5.109836">
        <ele>778.669</ele>
        <time>2021-09-19T12:49:16Z</time>
      </trkpt>
      <trkpt lat="36.761659" lon="-5.109828">
        <ele>778.211</ele>
        <time>2021-09-19T12:49:18Z</time>
      </trkpt>
      <trkpt lat="36.761814" lon="-5.109808">
        <ele>778.264</ele>
        <time>2021-09-19T12:49:20Z</time>
      </trkpt>
      <trkpt lat="36.761891" lon="-5.109801">
        <ele>778.290</ele>
        <time>2021-09-19T12:49:21Z</time>
      </trkpt>
      <trkpt lat="36.762296" lon="-5.109816">
        <ele>777.043</ele>
        <time>2021-09-19T12:49:26Z</time>
      </trkpt>
      <trkpt lat="36.762375" lon="-5.109820">
        <ele>776.820</ele>
        <time>2021-09-19T12:49:27Z</time>
      </trkpt>
      <trkpt lat="36.762705" lon="-5.109821">
        <ele>776.057</ele>
        <time>2021-09-19T12:49:31Z</time>
      </trkpt>
      <trkpt lat="36.762875" lon="-5.109843">
        <ele>775.600</ele>
        <time>2021-09-19T12:49:33Z</time>
      </trkpt>
      <trkpt lat="36.763040" lon="-5.109904">
        <ele>775.420</ele>
        <time>2021-09-19T12:49:35Z</time>
      </trkpt>
      <trkpt lat="36.763187" lon="-5.109997">
        <ele>774.808</ele>
        <time>2021-09-19T12:49:37Z</time>
      </trkpt>
      <trkpt lat="36.763334" lon="-5.110074">
        <ele>773.823</ele>
        <time>2021-09-19T12:49:39Z</time>
      </trkpt>
      <trkpt lat="36.763483" lon="-5.110124">
        <ele>773.489</ele>
        <time>2021-09-19T12:49:41Z</time>
      </trkpt>
      <trkpt lat="36.763632" lon="-5.110157">
        <ele>773.247</ele>
        <time>2021-09-19T12:49:43Z</time>
      </trkpt>
      <trkpt lat="36.763783" lon="-5.110150">
        <ele>773.039</ele>
        <time>2021-09-19T12:49:45Z</time>
      </trkpt>
      <trkpt lat="36.764176" lon="-5.110016">
        <ele>772.822</ele>
        <time>2021-09-19T12:49:50Z</time>
      </trkpt>
      <trkpt lat="36.764619" lon="-5.109848">
        <ele>772.288</ele>
        <time>2021-09-19T12:49:55Z</time>
      </trkpt>
      <trkpt lat="36.764785" lon="-5.109749">
        <ele>771.481</ele>
        <time>2021-09-19T12:49:57Z</time>
      </trkpt>
      <trkpt lat="36.764946" lon="-5.109639">
        <ele>770.018</ele>
        <time>2021-09-19T12:49:59Z</time>
      </trkpt>
      <trkpt lat="36.765104" lon="-5.109530">
        <ele>768.443</ele>
        <time>2021-09-19T12:50:01Z</time>
      </trkpt>
      <trkpt lat="36.765425" lon="-5.109350">
        <ele>767.464</ele>
        <time>2021-09-19T12:50:05Z</time>
      </trkpt>
      <trkpt lat="36.765504" lon="-5.109303">
        <ele>767.210</ele>
        <time>2021-09-19T12:50:06Z</time>
      </trkpt>
      <trkpt lat="36.765827" lon="-5.109110">
        <ele>766.408</ele>
        <time>2021-09-19T12:50:10Z</time>
      </trkpt>
      <trkpt lat="36.766057" lon="-5.108977">
        <ele>765.612</ele>
        <time>2021-09-19T12:50:13Z</time>
      </trkpt>
      <trkpt lat="36.766133" lon="-5.108934">
        <ele>765.458</ele>
        <time>2021-09-19T12:50:14Z</time>
      </trkpt>
      <trkpt lat="36.766345" lon="-5.108802">
        <ele>764.046</ele>
        <time>2021-09-19T12:50:17Z</time>
      </trkpt>
      <trkpt lat="36.766481" lon="-5.108727">
        <ele>763.448</ele>
        <time>2021-09-19T12:50:19Z</time>
      </trkpt>
      <trkpt lat="36.766738" lon="-5.108639">
        <ele>763.491</ele>
        <time>2021-09-19T12:50:23Z</time>
      </trkpt>
      <trkpt lat="36.766795" lon="-5.108652">
        <ele>763.667</ele>
        <time>2021-09-19T12:50:24Z</time>
      </trkpt>
      <trkpt lat="36.766902" lon="-5.108804">
        <ele>763.430</ele>
        <time>2021-09-19T12:50:27Z</time>
      </trkpt>
      <trkpt lat="36.767062" lon="-5.108999">
        <ele>763.257</ele>
        <time>2021-09-19T12:50:31Z</time>
      </trkpt>
      <trkpt lat="36.767169" lon="-5.109017">
        <ele>763.025</ele>
        <time>2021-09-19T12:50:34Z</time>
      </trkpt>
      <trkpt lat="36.767251" lon="-5.108904">
        <ele>762.226</ele>
        <time>2021-09-19T12:50:39Z</time>
      </trkpt>
      <trkpt lat="36.767387" lon="-5.108656">
        <ele>762.208</ele>
        <time>2021-09-19T12:50:44Z</time>
      </trkpt>
      <trkpt lat="36.767651" lon="-5.108224">
        <ele>762.408</ele>
        <time>2021-09-19T12:50:52Z</time>
      </trkpt>
      <trkpt lat="36.767687" lon="-5.108172">
        <ele>762.660</ele>
        <time>2021-09-19T12:50:53Z</time>
      </trkpt>
      <trkpt lat="36.767863" lon="-5.107922">
        <ele>763.276</ele>
        <time>2021-09-19T12:50:58Z</time>
      </trkpt>
      <trkpt lat="36.767965" lon="-5.107773">
        <ele>763.854</ele>
        <time>2021-09-19T12:51:01Z</time>
      </trkpt>
      <trkpt lat="36.768103" lon="-5.107575">
        <ele>764.266</ele>
        <time>2021-09-19T12:51:05Z</time>
      </trkpt>
      <trkpt lat="36.768275" lon="-5.107328">
        <ele>764.849</ele>
        <time>2021-09-19T12:51:10Z</time>
      </trkpt>
      <trkpt lat="36.768664" lon="-5.106793">
        <ele>765.075</ele>
        <time>2021-09-19T12:51:21Z</time>
      </trkpt>
      <trkpt lat="36.768864" lon="-5.106551">
        <ele>765.468</ele>
        <time>2021-09-19T12:51:26Z</time>
      </trkpt>
      <trkpt lat="36.768988" lon="-5.106432">
        <ele>765.615</ele>
        <time>2021-09-19T12:51:29Z</time>
      </trkpt>
      <trkpt lat="36.769135" lon="-5.106290">
        <ele>766.041</ele>
        <time>2021-09-19T12:51:33Z</time>
      </trkpt>
      <trkpt lat="36.769179" lon="-5.106270">
        <ele>766.081</ele>
        <time>2021-09-19T12:51:34Z</time>
      </trkpt>
      <trkpt lat="36.769408" lon="-5.106263">
        <ele>766.209</ele>
        <time>2021-09-19T12:51:38Z</time>
      </trkpt>
      <trkpt lat="36.769848" lon="-5.106197">
        <ele>766.208</ele>
        <time>2021-09-19T12:51:45Z</time>
      </trkpt>
      <trkpt lat="36.770369" lon="-5.106137">
        <ele>766.222</ele>
        <time>2021-09-19T12:51:53Z</time>
      </trkpt>
      <trkpt lat="36.770497" lon="-5.106125">
        <ele>766.298</ele>
        <time>2021-09-19T12:51:55Z</time>
      </trkpt>
      <trkpt lat="36.770743" lon="-5.106074">
        <ele>766.476</ele>
        <time>2021-09-19T12:51:59Z</time>
      </trkpt>
      <trkpt lat="36.771301" lon="-5.105942">
        <ele>766.838</ele>
        <time>2021-09-19T12:52:08Z</time>
      </trkpt>
      <trkpt lat="36.771364" lon="-5.105924">
        <ele>766.831</ele>
        <time>2021-09-19T12:52:09Z</time>
      </trkpt>
      <trkpt lat="36.771783" lon="-5.105762">
        <ele>767.217</ele>
        <time>2021-09-19T12:52:16Z</time>
      </trkpt>
      <trkpt lat="36.772145" lon="-5.105634">
        <ele>767.240</ele>
        <time>2021-09-19T12:52:22Z</time>
      </trkpt>
      <trkpt lat="36.772310" lon="-5.105538">
        <ele>767.227</ele>
        <time>2021-09-19T12:52:25Z</time>
      </trkpt>
      <trkpt lat="36.772412" lon="-5.105455">
        <ele>767.244</ele>
        <time>2021-09-19T12:52:27Z</time>
      </trkpt>
      <trkpt lat="36.772841" lon="-5.105165">
        <ele>767.205</ele>
        <time>2021-09-19T12:52:35Z</time>
      </trkpt>
      <trkpt lat="36.773047" lon="-5.105005">
        <ele>767.215</ele>
        <time>2021-09-19T12:52:39Z</time>
      </trkpt>
      <trkpt lat="36.773093" lon="-5.104952">
        <ele>767.208</ele>
        <time>2021-09-19T12:52:40Z</time>
      </trkpt>
      <trkpt lat="36.773379" lon="-5.104638">
        <ele>767.412</ele>
        <time>2021-09-19T12:52:46Z</time>
      </trkpt>
      <trkpt lat="36.773421" lon="-5.104580">
        <ele>767.428</ele>
        <time>2021-09-19T12:52:47Z</time>
      </trkpt>
      <trkpt lat="36.773506" lon="-5.104462">
        <ele>767.496</ele>
        <time>2021-09-19T12:52:49Z</time>
      </trkpt>
      <trkpt lat="36.773655" lon="-5.104317">
        <ele>767.438</ele>
        <time>2021-09-19T12:52:52Z</time>
      </trkpt>
      <trkpt lat="36.774027" lon="-5.104010">
        <ele>767.481</ele>
        <time>2021-09-19T12:52:59Z</time>
      </trkpt>
      <trkpt lat="36.774247" lon="-5.103869">
        <ele>767.247</ele>
        <time>2021-09-19T12:53:03Z</time>
      </trkpt>
      <trkpt lat="36.774353" lon="-5.103774">
        <ele>767.090</ele>
        <time>2021-09-19T12:53:05Z</time>
      </trkpt>
      <trkpt lat="36.774657" lon="-5.103540">
        <ele>766.667</ele>
        <time>2021-09-19T12:53:11Z</time>
      </trkpt>
      <trkpt lat="36.774888" lon="-5.103444">
        <ele>766.016</ele>
        <time>2021-09-19T12:53:16Z</time>
      </trkpt>
      <trkpt lat="36.775153" lon="-5.103459">
        <ele>765.876</ele>
        <time>2021-09-19T12:53:21Z</time>
      </trkpt>
      <trkpt lat="36.775361" lon="-5.103496">
        <ele>765.813</ele>
        <time>2021-09-19T12:53:25Z</time>
      </trkpt>
      <trkpt lat="36.775457" lon="-5.103531">
        <ele>766.008</ele>
        <time>2021-09-19T12:53:27Z</time>
      </trkpt>
      <trkpt lat="36.775564" lon="-5.103564">
        <ele>766.069</ele>
        <time>2021-09-19T12:53:29Z</time>
      </trkpt>
      <trkpt lat="36.775744" lon="-5.103562">
        <ele>766.655</ele>
        <time>2021-09-19T12:53:32Z</time>
      </trkpt>
      <trkpt lat="36.775806" lon="-5.103549">
        <ele>767.083</ele>
        <time>2021-09-19T12:53:33Z</time>
      </trkpt>
      <trkpt lat="36.775868" lon="-5.103532">
        <ele>767.435</ele>
        <time>2021-09-19T12:53:34Z</time>
      </trkpt>
      <trkpt lat="36.776065" lon="-5.103478">
        <ele>767.848</ele>
        <time>2021-09-19T12:53:37Z</time>
      </trkpt>
      <trkpt lat="36.776500" lon="-5.103428">
        <ele>768.024</ele>
        <time>2021-09-19T12:53:43Z</time>
      </trkpt>
      <trkpt lat="36.776794" lon="-5.103381">
        <ele>767.877</ele>
        <time>2021-09-19T12:53:47Z</time>
      </trkpt>
      <trkpt lat="36.776933" lon="-5.103330">
        <ele>767.234</ele>
        <time>2021-09-19T12:53:49Z</time>
      </trkpt>
      <trkpt lat="36.776997" lon="-5.103297">
        <ele>766.851</ele>
        <time>2021-09-19T12:53:50Z</time>
      </trkpt>
      <trkpt lat="36.777170" lon="-5.103180">
        <ele>766.401</ele>
        <time>2021-09-19T12:53:53Z</time>
      </trkpt>
      <trkpt lat="36.777273" lon="-5.103107">
        <ele>766.411</ele>
        <time>2021-09-19T12:53:55Z</time>
      </trkpt>
      <trkpt lat="36.777453" lon="-5.102986">
        <ele>766.208</ele>
        <time>2021-09-19T12:53:59Z</time>
      </trkpt>
      <trkpt lat="36.777681" lon="-5.102844">
        <ele>766.643</ele>
        <time>2021-09-19T12:54:05Z</time>
      </trkpt>
      <trkpt lat="36.778005" lon="-5.102681">
        <ele>767.039</ele>
        <time>2021-09-19T12:54:13Z</time>
      </trkpt>
      <trkpt lat="36.778124" lon="-5.102617">
        <ele>767.637</ele>
        <time>2021-09-19T12:54:16Z</time>
      </trkpt>
      <trkpt lat="36.778291" lon="-5.102528">
        <ele>768.889</ele>
        <time>2021-09-19T12:54:20Z</time>
      </trkpt>
      <trkpt lat="36.778511" lon="-5.102431">
        <ele>769.822</ele>
        <time>2021-09-19T12:54:25Z</time>
      </trkpt>
      <trkpt lat="36.778704" lon="-5.102345">
        <ele>770.238</ele>
        <time>2021-09-19T12:54:29Z</time>
      </trkpt>
      <trkpt lat="36.779179" lon="-5.102157">
        <ele>770.621</ele>
        <time>2021-09-19T12:54:38Z</time>
      </trkpt>
      <trkpt lat="36.779668" lon="-5.101979">
        <ele>771.248</ele>
        <time>2021-09-19T12:54:47Z</time>
      </trkpt>
      <trkpt lat="36.779721" lon="-5.101972">
        <ele>771.254</ele>
        <time>2021-09-19T12:54:48Z</time>
      </trkpt>
      <trkpt lat="36.779945" lon="-5.101989">
        <ele>771.456</ele>
        <time>2021-09-19T12:54:52Z</time>
      </trkpt>
      <trkpt lat="36.780182" lon="-5.101957">
        <ele>771.411</ele>
        <time>2021-09-19T12:54:56Z</time>
      </trkpt>
      <trkpt lat="36.780326" lon="-5.101820">
        <ele>771.208</ele>
        <time>2021-09-19T12:54:59Z</time>
      </trkpt>
      <trkpt lat="36.780366" lon="-5.101769">
        <ele>771.283</ele>
        <time>2021-09-19T12:55:00Z</time>
      </trkpt>
      <trkpt lat="36.780676" lon="-5.101405">
        <ele>771.229</ele>
        <time>2021-09-19T12:55:08Z</time>
      </trkpt>
      <trkpt lat="36.780721" lon="-5.101365">
        <ele>771.227</ele>
        <time>2021-09-19T12:55:09Z</time>
      </trkpt>
      <trkpt lat="36.780882" lon="-5.101324">
        <ele>771.469</ele>
        <time>2021-09-19T12:55:12Z</time>
      </trkpt>
      <trkpt lat="36.780942" lon="-5.101333">
        <ele>771.632</ele>
        <time>2021-09-19T12:55:13Z</time>
      </trkpt>
      <trkpt lat="36.781064" lon="-5.101359">
        <ele>772.028</ele>
        <time>2021-09-19T12:55:15Z</time>
      </trkpt>
      <trkpt lat="36.781188" lon="-5.101397">
        <ele>772.441</ele>
        <time>2021-09-19T12:55:17Z</time>
      </trkpt>
      <trkpt lat="36.781248" lon="-5.101419">
        <ele>772.218</ele>
        <time>2021-09-19T12:55:18Z</time>
      </trkpt>
      <trkpt lat="36.781306" lon="-5.101448">
        <ele>772.432</ele>
        <time>2021-09-19T12:55:19Z</time>
      </trkpt>
      <trkpt lat="36.781512" lon="-5.101608">
        <ele>772.492</ele>
        <time>2021-09-19T12:55:23Z</time>
      </trkpt>
      <trkpt lat="36.781598" lon="-5.101723">
        <ele>772.411</ele>
        <time>2021-09-19T12:55:25Z</time>
      </trkpt>
      <trkpt lat="36.781722" lon="-5.101902">
        <ele>772.608</ele>
        <time>2021-09-19T12:55:28Z</time>
      </trkpt>
      <trkpt lat="36.781894" lon="-5.102104">
        <ele>772.671</ele>
        <time>2021-09-19T12:55:32Z</time>
      </trkpt>
      <trkpt lat="36.782091" lon="-5.102270">
        <ele>772.877</ele>
        <time>2021-09-19T12:55:36Z</time>
      </trkpt>
      <trkpt lat="36.782204" lon="-5.102332">
        <ele>772.855</ele>
        <time>2021-09-19T12:55:38Z</time>
      </trkpt>
      <trkpt lat="36.782324" lon="-5.102408">
        <ele>772.887</ele>
        <time>2021-09-19T12:55:40Z</time>
      </trkpt>
      <trkpt lat="36.782435" lon="-5.102528">
        <ele>772.450</ele>
        <time>2021-09-19T12:55:42Z</time>
      </trkpt>
      <trkpt lat="36.782648" lon="-5.102748">
        <ele>772.466</ele>
        <time>2021-09-19T12:55:46Z</time>
      </trkpt>
      <trkpt lat="36.782920" lon="-5.102791">
        <ele>772.089</ele>
        <time>2021-09-19T12:55:50Z</time>
      </trkpt>
      <trkpt lat="36.783078" lon="-5.102648">
        <ele>771.626</ele>
        <time>2021-09-19T12:55:53Z</time>
      </trkpt>
      <trkpt lat="36.783117" lon="-5.102580">
        <ele>771.664</ele>
        <time>2021-09-19T12:55:54Z</time>
      </trkpt>
      <trkpt lat="36.783155" lon="-5.102514">
        <ele>771.206</ele>
        <time>2021-09-19T12:55:55Z</time>
      </trkpt>
      <trkpt lat="36.783281" lon="-5.102314">
        <ele>770.216</ele>
        <time>2021-09-19T12:55:58Z</time>
      </trkpt>
      <trkpt lat="36.783366" lon="-5.102179">
        <ele>769.608</ele>
        <time>2021-09-19T12:56:00Z</time>
      </trkpt>
      <trkpt lat="36.783582" lon="-5.101809">
        <ele>769.444</ele>
        <time>2021-09-19T12:56:06Z</time>
      </trkpt>
      <trkpt lat="36.783728" lon="-5.101526">
        <ele>769.410</ele>
        <time>2021-09-19T12:56:10Z</time>
      </trkpt>
      <trkpt lat="36.783768" lon="-5.101469">
        <ele>769.468</ele>
        <time>2021-09-19T12:56:11Z</time>
      </trkpt>
      <trkpt lat="36.783848" lon="-5.101412">
        <ele>769.430</ele>
        <time>2021-09-19T12:56:13Z</time>
      </trkpt>
      <trkpt lat="36.783965" lon="-5.101474">
        <ele>769.423</ele>
        <time>2021-09-19T12:56:16Z</time>
      </trkpt>
      <trkpt lat="36.784009" lon="-5.101498">
        <ele>769.499</ele>
        <time>2021-09-19T12:56:17Z</time>
      </trkpt>
      <trkpt lat="36.784122" lon="-5.101502">
        <ele>769.032</ele>
        <time>2021-09-19T12:56:19Z</time>
      </trkpt>
      <trkpt lat="36.784303" lon="-5.101417">
        <ele>766.849</ele>
        <time>2021-09-19T12:56:21Z</time>
      </trkpt>
      <trkpt lat="36.784523" lon="-5.101363">
        <ele>765.227</ele>
        <time>2021-09-19T12:56:23Z</time>
      </trkpt>
      <trkpt lat="36.784637" lon="-5.101341">
        <ele>765.068</ele>
        <time>2021-09-19T12:56:24Z</time>
      </trkpt>
      <trkpt lat="36.784861" lon="-5.101325">
        <ele>764.014</ele>
        <time>2021-09-19T12:56:26Z</time>
      </trkpt>
      <trkpt lat="36.784972" lon="-5.101343">
        <ele>763.008</ele>
        <time>2021-09-19T12:56:27Z</time>
      </trkpt>
      <trkpt lat="36.785078" lon="-5.101381">
        <ele>761.660</ele>
        <time>2021-09-19T12:56:28Z</time>
      </trkpt>
      <trkpt lat="36.785171" lon="-5.101441">
        <ele>760.056</ele>
        <time>2021-09-19T12:56:29Z</time>
      </trkpt>
      <trkpt lat="36.785260" lon="-5.101512">
        <ele>757.414</ele>
        <time>2021-09-19T12:56:30Z</time>
      </trkpt>
      <trkpt lat="36.785341" lon="-5.101594">
        <ele>755.476</ele>
        <time>2021-09-19T12:56:31Z</time>
      </trkpt>
      <trkpt lat="36.785418" lon="-5.101678">
        <ele>753.639</ele>
        <time>2021-09-19T12:56:32Z</time>
      </trkpt>
      <trkpt lat="36.785492" lon="-5.101757">
        <ele>752.285</ele>
        <time>2021-09-19T12:56:33Z</time>
      </trkpt>
      <trkpt lat="36.785571" lon="-5.101832">
        <ele>750.878</ele>
        <time>2021-09-19T12:56:34Z</time>
      </trkpt>
      <trkpt lat="36.785650" lon="-5.101908">
        <ele>749.415</ele>
        <time>2021-09-19T12:56:35Z</time>
      </trkpt>
      <trkpt lat="36.785730" lon="-5.101984">
        <ele>748.213</ele>
        <time>2021-09-19T12:56:36Z</time>
      </trkpt>
      <trkpt lat="36.785891" lon="-5.102119">
        <ele>746.643</ele>
        <time>2021-09-19T12:56:38Z</time>
      </trkpt>
      <trkpt lat="36.786053" lon="-5.102212">
        <ele>745.607</ele>
        <time>2021-09-19T12:56:40Z</time>
      </trkpt>
      <trkpt lat="36.786310" lon="-5.102204">
        <ele>745.008</ele>
        <time>2021-09-19T12:56:43Z</time>
      </trkpt>
      <trkpt lat="36.786395" lon="-5.102177">
        <ele>744.279</ele>
        <time>2021-09-19T12:56:44Z</time>
      </trkpt>
      <trkpt lat="36.786478" lon="-5.102149">
        <ele>743.825</ele>
        <time>2021-09-19T12:56:45Z</time>
      </trkpt>
      <trkpt lat="36.786564" lon="-5.102130">
        <ele>743.693</ele>
        <time>2021-09-19T12:56:46Z</time>
      </trkpt>
      <trkpt lat="36.786656" lon="-5.102134">
        <ele>743.465</ele>
        <time>2021-09-19T12:56:47Z</time>
      </trkpt>
      <trkpt lat="36.786929" lon="-5.102163">
        <ele>743.288</ele>
        <time>2021-09-19T12:56:50Z</time>
      </trkpt>
      <trkpt lat="36.787196" lon="-5.102167">
        <ele>742.894</ele>
        <time>2021-09-19T12:56:53Z</time>
      </trkpt>
      <trkpt lat="36.787359" lon="-5.102183">
        <ele>741.857</ele>
        <time>2021-09-19T12:56:55Z</time>
      </trkpt>
      <trkpt lat="36.787436" lon="-5.102203">
        <ele>740.624</ele>
        <time>2021-09-19T12:56:56Z</time>
      </trkpt>
      <trkpt lat="36.787505" lon="-5.102241">
        <ele>740.213</ele>
        <time>2021-09-19T12:56:57Z</time>
      </trkpt>
      <trkpt lat="36.787563" lon="-5.102296">
        <ele>739.643</ele>
        <time>2021-09-19T12:56:58Z</time>
      </trkpt>
      <trkpt lat="36.787658" lon="-5.102436">
        <ele>738.607</ele>
        <time>2021-09-19T12:57:00Z</time>
      </trkpt>
      <trkpt lat="36.787754" lon="-5.102571">
        <ele>738.208</ele>
        <time>2021-09-19T12:57:02Z</time>
      </trkpt>
      <trkpt lat="36.787949" lon="-5.102819">
        <ele>736.629</ele>
        <time>2021-09-19T12:57:06Z</time>
      </trkpt>
      <trkpt lat="36.788196" lon="-5.103091">
        <ele>735.815</ele>
        <time>2021-09-19T12:57:11Z</time>
      </trkpt>
      <trkpt lat="36.788416" lon="-5.103200">
        <ele>735.863</ele>
        <time>2021-09-19T12:57:15Z</time>
      </trkpt>
      <trkpt lat="36.788552" lon="-5.103237">
        <ele>736.875</ele>
        <time>2021-09-19T12:57:18Z</time>
      </trkpt>
      <trkpt lat="36.788637" lon="-5.103273">
        <ele>737.218</ele>
        <time>2021-09-19T12:57:20Z</time>
      </trkpt>
      <trkpt lat="36.788677" lon="-5.103297">
        <ele>737.474</ele>
        <time>2021-09-19T12:57:21Z</time>
      </trkpt>
      <trkpt lat="36.788717" lon="-5.103324">
        <ele>737.897</ele>
        <time>2021-09-19T12:57:22Z</time>
      </trkpt>
      <trkpt lat="36.788825" lon="-5.103413">
        <ele>739.234</ele>
        <time>2021-09-19T12:57:25Z</time>
      </trkpt>
      <trkpt lat="36.788855" lon="-5.103441">
        <ele>739.875</ele>
        <time>2021-09-19T12:57:26Z</time>
      </trkpt>
      <trkpt lat="36.788918" lon="-5.103468">
        <ele>740.428</ele>
        <time>2021-09-19T12:57:28Z</time>
      </trkpt>
      <trkpt lat="36.788954" lon="-5.103457">
        <ele>740.620</ele>
        <time>2021-09-19T12:57:29Z</time>
      </trkpt>
      <trkpt lat="36.789036" lon="-5.103338">
        <ele>741.208</ele>
        <time>2021-09-19T12:57:32Z</time>
      </trkpt>
      <trkpt lat="36.789063" lon="-5.103290">
        <ele>741.455</ele>
        <time>2021-09-19T12:57:33Z</time>
      </trkpt>
      <trkpt lat="36.789315" lon="-5.102850">
        <ele>742.461</ele>
        <time>2021-09-19T12:57:42Z</time>
      </trkpt>
      <trkpt lat="36.789380" lon="-5.102766">
        <ele>742.419</ele>
        <time>2021-09-19T12:57:44Z</time>
      </trkpt>
      <trkpt lat="36.789464" lon="-5.102714">
        <ele>742.471</ele>
        <time>2021-09-19T12:57:46Z</time>
      </trkpt>
      <trkpt lat="36.789659" lon="-5.102715">
        <ele>742.424</ele>
        <time>2021-09-19T12:57:50Z</time>
      </trkpt>
      <trkpt lat="36.789707" lon="-5.102732">
        <ele>742.490</ele>
        <time>2021-09-19T12:57:51Z</time>
      </trkpt>
      <trkpt lat="36.789753" lon="-5.102754">
        <ele>742.493</ele>
        <time>2021-09-19T12:57:52Z</time>
      </trkpt>
      <trkpt lat="36.789869" lon="-5.102856">
        <ele>742.410</ele>
        <time>2021-09-19T12:57:55Z</time>
      </trkpt>
      <trkpt lat="36.789899" lon="-5.102893">
        <ele>742.475</ele>
        <time>2021-09-19T12:57:56Z</time>
      </trkpt>
      <trkpt lat="36.789963" lon="-5.103030">
        <ele>742.428</ele>
        <time>2021-09-19T12:57:59Z</time>
      </trkpt>
      <trkpt lat="36.790023" lon="-5.103181">
        <ele>742.820</ele>
        <time>2021-09-19T12:58:02Z</time>
      </trkpt>
      <trkpt lat="36.790092" lon="-5.103377">
        <ele>743.408</ele>
        <time>2021-09-19T12:58:06Z</time>
      </trkpt>
      <trkpt lat="36.790105" lon="-5.103426">
        <ele>743.485</ele>
        <time>2021-09-19T12:58:07Z</time>
      </trkpt>
      <trkpt lat="36.790135" lon="-5.103524">
        <ele>743.831</ele>
        <time>2021-09-19T12:58:09Z</time>
      </trkpt>
      <trkpt lat="36.790171" lon="-5.103613">
        <ele>744.649</ele>
        <time>2021-09-19T12:58:11Z</time>
      </trkpt>
      <trkpt lat="36.790191" lon="-5.103658">
        <ele>744.831</ele>
        <time>2021-09-19T12:58:12Z</time>
      </trkpt>
      <trkpt lat="36.790229" lon="-5.103745">
        <ele>745.224</ele>
        <time>2021-09-19T12:58:14Z</time>
      </trkpt>
      <trkpt lat="36.790298" lon="-5.103920">
        <ele>745.450</ele>
        <time>2021-09-19T12:58:18Z</time>
      </trkpt>
      <trkpt lat="36.790341" lon="-5.104000">
        <ele>745.643</ele>
        <time>2021-09-19T12:58:20Z</time>
      </trkpt>
      <trkpt lat="36.790414" lon="-5.104100">
        <ele>746.070</ele>
        <time>2021-09-19T12:58:23Z</time>
      </trkpt>
      <trkpt lat="36.790478" lon="-5.104170">
        <ele>746.224</ele>
        <time>2021-09-19T12:58:25Z</time>
      </trkpt>
      <trkpt lat="36.790614" lon="-5.104316">
        <ele>747.204</ele>
        <time>2021-09-19T12:58:29Z</time>
      </trkpt>
      <trkpt lat="36.790649" lon="-5.104355">
        <ele>747.614</ele>
        <time>2021-09-19T12:58:30Z</time>
      </trkpt>
      <trkpt lat="36.790862" lon="-5.104560">
        <ele>748.608</ele>
        <time>2021-09-19T12:58:36Z</time>
      </trkpt>
      <trkpt lat="36.791101" lon="-5.104700">
        <ele>749.810</ele>
        <time>2021-09-19T12:58:42Z</time>
      </trkpt>
      <trkpt lat="36.791188" lon="-5.104726">
        <ele>750.066</ele>
        <time>2021-09-19T12:58:44Z</time>
      </trkpt>
      <trkpt lat="36.791408" lon="-5.104802">
        <ele>750.874</ele>
        <time>2021-09-19T12:58:49Z</time>
      </trkpt>
      <trkpt lat="36.791455" lon="-5.104809">
        <ele>751.026</ele>
        <time>2021-09-19T12:58:50Z</time>
      </trkpt>
      <trkpt lat="36.791502" lon="-5.104814">
        <ele>751.219</ele>
        <time>2021-09-19T12:58:51Z</time>
      </trkpt>
      <trkpt lat="36.791764" lon="-5.104817">
        <ele>752.045</ele>
        <time>2021-09-19T12:58:57Z</time>
      </trkpt>
      <trkpt lat="36.792005" lon="-5.104794">
        <ele>753.028</ele>
        <time>2021-09-19T12:59:02Z</time>
      </trkpt>
      <trkpt lat="36.792059" lon="-5.104785">
        <ele>753.265</ele>
        <time>2021-09-19T12:59:03Z</time>
      </trkpt>
      <trkpt lat="36.792287" lon="-5.104754">
        <ele>753.643</ele>
        <time>2021-09-19T12:59:07Z</time>
      </trkpt>
      <trkpt lat="36.792347" lon="-5.104740">
        <ele>753.664</ele>
        <time>2021-09-19T12:59:08Z</time>
      </trkpt>
      <trkpt lat="36.792463" lon="-5.104709">
        <ele>753.610</ele>
        <time>2021-09-19T12:59:10Z</time>
      </trkpt>
      <trkpt lat="36.792872" lon="-5.104626">
        <ele>754.008</ele>
        <time>2021-09-19T12:59:17Z</time>
      </trkpt>
      <trkpt lat="36.793238" lon="-5.104563">
        <ele>753.832</ele>
        <time>2021-09-19T12:59:23Z</time>
      </trkpt>
      <trkpt lat="36.793362" lon="-5.104546">
        <ele>753.888</ele>
        <time>2021-09-19T12:59:25Z</time>
      </trkpt>
      <trkpt lat="36.793485" lon="-5.104524">
        <ele>753.826</ele>
        <time>2021-09-19T12:59:27Z</time>
      </trkpt>
      <trkpt lat="36.793607" lon="-5.104513">
        <ele>753.838</ele>
        <time>2021-09-19T12:59:29Z</time>
      </trkpt>
      <trkpt lat="36.793667" lon="-5.104503">
        <ele>753.841</ele>
        <time>2021-09-19T12:59:30Z</time>
      </trkpt>
      <trkpt lat="36.793898" lon="-5.104457">
        <ele>753.827</ele>
        <time>2021-09-19T12:59:34Z</time>
      </trkpt>
      <trkpt lat="36.794258" lon="-5.104425">
        <ele>753.880</ele>
        <time>2021-09-19T12:59:40Z</time>
      </trkpt>
      <trkpt lat="36.794617" lon="-5.104479">
        <ele>753.667</ele>
        <time>2021-09-19T12:59:46Z</time>
      </trkpt>
      <trkpt lat="36.794990" lon="-5.104564">
        <ele>753.423</ele>
        <time>2021-09-19T12:59:52Z</time>
      </trkpt>
      <trkpt lat="36.795416" lon="-5.104726">
        <ele>753.483</ele>
        <time>2021-09-19T12:59:59Z</time>
      </trkpt>
      <trkpt lat="36.795476" lon="-5.104764">
        <ele>753.211</ele>
        <time>2021-09-19T13:00:00Z</time>
      </trkpt>
      <trkpt lat="36.795661" lon="-5.104872">
        <ele>753.008</ele>
        <time>2021-09-19T13:00:03Z</time>
      </trkpt>
      <trkpt lat="36.796117" lon="-5.105085">
        <ele>753.050</ele>
        <time>2021-09-19T13:00:10Z</time>
      </trkpt>
      <trkpt lat="36.796535" lon="-5.105284">
        <ele>752.846</ele>
        <time>2021-09-19T13:00:16Z</time>
      </trkpt>
      <trkpt lat="36.796872" lon="-5.105481">
        <ele>752.664</ele>
        <time>2021-09-19T13:00:21Z</time>
      </trkpt>
      <trkpt lat="36.796999" lon="-5.105569">
        <ele>752.256</ele>
        <time>2021-09-19T13:00:23Z</time>
      </trkpt>
      <trkpt lat="36.797190" lon="-5.105707">
        <ele>751.839</ele>
        <time>2021-09-19T13:00:26Z</time>
      </trkpt>
      <trkpt lat="36.797512" lon="-5.105917">
        <ele>751.615</ele>
        <time>2021-09-19T13:00:31Z</time>
      </trkpt>
      <trkpt lat="36.797578" lon="-5.105953">
        <ele>751.438</ele>
        <time>2021-09-19T13:00:32Z</time>
      </trkpt>
      <trkpt lat="36.797708" lon="-5.106024">
        <ele>751.025</ele>
        <time>2021-09-19T13:00:34Z</time>
      </trkpt>
      <trkpt lat="36.797772" lon="-5.106068">
        <ele>750.859</ele>
        <time>2021-09-19T13:00:35Z</time>
      </trkpt>
      <trkpt lat="36.798087" lon="-5.106316">
        <ele>750.603</ele>
        <time>2021-09-19T13:00:40Z</time>
      </trkpt>
      <trkpt lat="36.798147" lon="-5.106373">
        <ele>750.823</ele>
        <time>2021-09-19T13:00:41Z</time>
      </trkpt>
      <trkpt lat="36.798510" lon="-5.106688">
        <ele>750.608</ele>
        <time>2021-09-19T13:00:47Z</time>
      </trkpt>
      <trkpt lat="36.798913" lon="-5.106973">
        <ele>749.853</ele>
        <time>2021-09-19T13:00:53Z</time>
      </trkpt>
      <trkpt lat="36.798982" lon="-5.107020">
        <ele>749.429</ele>
        <time>2021-09-19T13:00:54Z</time>
      </trkpt>
      <trkpt lat="36.799189" lon="-5.107162">
        <ele>748.647</ele>
        <time>2021-09-19T13:00:57Z</time>
      </trkpt>
      <trkpt lat="36.799396" lon="-5.107299">
        <ele>747.459</ele>
        <time>2021-09-19T13:01:00Z</time>
      </trkpt>
      <trkpt lat="36.799527" lon="-5.107401">
        <ele>747.022</ele>
        <time>2021-09-19T13:01:02Z</time>
      </trkpt>
      <trkpt lat="36.799711" lon="-5.107583">
        <ele>746.498</ele>
        <time>2021-09-19T13:01:05Z</time>
      </trkpt>
      <trkpt lat="36.799763" lon="-5.107654">
        <ele>746.071</ele>
        <time>2021-09-19T13:01:06Z</time>
      </trkpt>
      <trkpt lat="36.799803" lon="-5.107734">
        <ele>745.698</ele>
        <time>2021-09-19T13:01:07Z</time>
      </trkpt>
      <trkpt lat="36.799834" lon="-5.107818">
        <ele>745.469</ele>
        <time>2021-09-19T13:01:08Z</time>
      </trkpt>
      <trkpt lat="36.799893" lon="-5.108004">
        <ele>744.804</ele>
        <time>2021-09-19T13:01:10Z</time>
      </trkpt>
      <trkpt lat="36.799921" lon="-5.108091">
        <ele>744.424</ele>
        <time>2021-09-19T13:01:11Z</time>
      </trkpt>
      <trkpt lat="36.799960" lon="-5.108170">
        <ele>744.208</ele>
        <time>2021-09-19T13:01:12Z</time>
      </trkpt>
      <trkpt lat="36.800063" lon="-5.108294">
        <ele>744.034</ele>
        <time>2021-09-19T13:01:14Z</time>
      </trkpt>
      <trkpt lat="36.800180" lon="-5.108392">
        <ele>743.840</ele>
        <time>2021-09-19T13:01:16Z</time>
      </trkpt>
      <trkpt lat="36.800310" lon="-5.108488">
        <ele>743.288</ele>
        <time>2021-09-19T13:01:18Z</time>
      </trkpt>
      <trkpt lat="36.800378" lon="-5.108539">
        <ele>743.060</ele>
        <time>2021-09-19T13:01:19Z</time>
      </trkpt>
      <trkpt lat="36.800650" lon="-5.108739">
        <ele>742.063</ele>
        <time>2021-09-19T13:01:23Z</time>
      </trkpt>
      <trkpt lat="36.800853" lon="-5.108886">
        <ele>741.899</ele>
        <time>2021-09-19T13:01:26Z</time>
      </trkpt>
      <trkpt lat="36.801385" lon="-5.109260">
        <ele>741.872</ele>
        <time>2021-09-19T13:01:34Z</time>
      </trkpt>
      <trkpt lat="36.801448" lon="-5.109304">
        <ele>741.899</ele>
        <time>2021-09-19T13:01:35Z</time>
      </trkpt>
      <trkpt lat="36.801937" lon="-5.109664">
        <ele>742.884</ele>
        <time>2021-09-19T13:01:43Z</time>
      </trkpt>
      <trkpt lat="36.801996" lon="-5.109708">
        <ele>742.807</ele>
        <time>2021-09-19T13:01:44Z</time>
      </trkpt>
      <trkpt lat="36.802307" lon="-5.109934">
        <ele>743.217</ele>
        <time>2021-09-19T13:01:49Z</time>
      </trkpt>
      <trkpt lat="36.802435" lon="-5.110026">
        <ele>743.208</ele>
        <time>2021-09-19T13:01:51Z</time>
      </trkpt>
      <trkpt lat="36.802948" lon="-5.110420">
        <ele>743.286</ele>
        <time>2021-09-19T13:01:59Z</time>
      </trkpt>
      <trkpt lat="36.803012" lon="-5.110469">
        <ele>743.042</ele>
        <time>2021-09-19T13:02:00Z</time>
      </trkpt>
      <trkpt lat="36.803452" lon="-5.110793">
        <ele>742.270</ele>
        <time>2021-09-19T13:02:07Z</time>
      </trkpt>
      <trkpt lat="36.803865" lon="-5.111103">
        <ele>741.412</ele>
        <time>2021-09-19T13:02:14Z</time>
      </trkpt>
      <trkpt lat="36.803924" lon="-5.111145">
        <ele>741.495</ele>
        <time>2021-09-19T13:02:15Z</time>
      </trkpt>
      <trkpt lat="36.804224" lon="-5.111326">
        <ele>741.061</ele>
        <time>2021-09-19T13:02:20Z</time>
      </trkpt>
      <trkpt lat="36.804343" lon="-5.111389">
        <ele>741.074</ele>
        <time>2021-09-19T13:02:22Z</time>
      </trkpt>
      <trkpt lat="36.804836" lon="-5.111599">
        <ele>740.461</ele>
        <time>2021-09-19T13:02:30Z</time>
      </trkpt>
      <trkpt lat="36.805093" lon="-5.111688">
        <ele>740.054</ele>
        <time>2021-09-19T13:02:34Z</time>
      </trkpt>
      <trkpt lat="36.805292" lon="-5.111732">
        <ele>739.856</ele>
        <time>2021-09-19T13:02:37Z</time>
      </trkpt>
      <trkpt lat="36.805701" lon="-5.111828">
        <ele>739.211</ele>
        <time>2021-09-19T13:02:43Z</time>
      </trkpt>
      <trkpt lat="36.805769" lon="-5.111845">
        <ele>739.208</ele>
        <time>2021-09-19T13:02:44Z</time>
      </trkpt>
      <trkpt lat="36.806258" lon="-5.111938">
        <ele>738.663</ele>
        <time>2021-09-19T13:02:51Z</time>
      </trkpt>
      <trkpt lat="36.806471" lon="-5.111982">
        <ele>738.299</ele>
        <time>2021-09-19T13:02:54Z</time>
      </trkpt>
      <trkpt lat="36.806905" lon="-5.112090">
        <ele>737.877</ele>
        <time>2021-09-19T13:03:00Z</time>
      </trkpt>
      <trkpt lat="36.807446" lon="-5.112330">
        <ele>737.259</ele>
        <time>2021-09-19T13:03:07Z</time>
      </trkpt>
      <trkpt lat="36.807526" lon="-5.112364">
        <ele>736.842</ele>
        <time>2021-09-19T13:03:08Z</time>
      </trkpt>
      <trkpt lat="36.807680" lon="-5.112430">
        <ele>735.678</ele>
        <time>2021-09-19T13:03:10Z</time>
      </trkpt>
      <trkpt lat="36.807897" lon="-5.112524">
        <ele>734.421</ele>
        <time>2021-09-19T13:03:13Z</time>
      </trkpt>
      <trkpt lat="36.807967" lon="-5.112555">
        <ele>733.818</ele>
        <time>2021-09-19T13:03:14Z</time>
      </trkpt>
      <trkpt lat="36.808106" lon="-5.112619">
        <ele>733.292</ele>
        <time>2021-09-19T13:03:16Z</time>
      </trkpt>
      <trkpt lat="36.808493" lon="-5.112787">
        <ele>733.073</ele>
        <time>2021-09-19T13:03:22Z</time>
      </trkpt>
      <trkpt lat="36.808823" lon="-5.112988">
        <ele>733.420</ele>
        <time>2021-09-19T13:03:28Z</time>
      </trkpt>
      <trkpt lat="36.808872" lon="-5.113031">
        <ele>733.608</ele>
        <time>2021-09-19T13:03:29Z</time>
      </trkpt>
      <trkpt lat="36.808917" lon="-5.113076">
        <ele>734.067</ele>
        <time>2021-09-19T13:03:30Z</time>
      </trkpt>
      <trkpt lat="36.809042" lon="-5.113232">
        <ele>734.283</ele>
        <time>2021-09-19T13:03:33Z</time>
      </trkpt>
      <trkpt lat="36.809077" lon="-5.113294">
        <ele>734.461</ele>
        <time>2021-09-19T13:03:34Z</time>
      </trkpt>
      <trkpt lat="36.809167" lon="-5.113489">
        <ele>734.673</ele>
        <time>2021-09-19T13:03:37Z</time>
      </trkpt>
      <trkpt lat="36.809211" lon="-5.113543">
        <ele>735.056</ele>
        <time>2021-09-19T13:03:38Z</time>
      </trkpt>
      <trkpt lat="36.809438" lon="-5.113659">
        <ele>735.092</ele>
        <time>2021-09-19T13:03:42Z</time>
      </trkpt>
      <trkpt lat="36.809563" lon="-5.113692">
        <ele>735.215</ele>
        <time>2021-09-19T13:03:44Z</time>
      </trkpt>
      <trkpt lat="36.809678" lon="-5.113762">
        <ele>735.452</ele>
        <time>2021-09-19T13:03:46Z</time>
      </trkpt>
      <trkpt lat="36.810096" lon="-5.114114">
        <ele>735.055</ele>
        <time>2021-09-19T13:03:54Z</time>
      </trkpt>
      <trkpt lat="36.810453" lon="-5.114472">
        <ele>735.007</ele>
        <time>2021-09-19T13:04:02Z</time>
      </trkpt>
      <trkpt lat="36.810499" lon="-5.114521">
        <ele>735.017</ele>
        <time>2021-09-19T13:04:03Z</time>
      </trkpt>
      <trkpt lat="36.810744" lon="-5.114771">
        <ele>735.808</ele>
        <time>2021-09-19T13:04:08Z</time>
      </trkpt>
      <trkpt lat="36.810893" lon="-5.114926">
        <ele>736.063</ele>
        <time>2021-09-19T13:04:11Z</time>
      </trkpt>
      <trkpt lat="36.811338" lon="-5.115364">
        <ele>736.219</ele>
        <time>2021-09-19T13:04:20Z</time>
      </trkpt>
      <trkpt lat="36.811391" lon="-5.115409">
        <ele>736.257</ele>
        <time>2021-09-19T13:04:21Z</time>
      </trkpt>
      <trkpt lat="36.811888" lon="-5.115817">
        <ele>736.689</ele>
        <time>2021-09-19T13:04:30Z</time>
      </trkpt>
      <trkpt lat="36.811943" lon="-5.115859">
        <ele>736.662</ele>
        <time>2021-09-19T13:04:31Z</time>
      </trkpt>
      <trkpt lat="36.812343" lon="-5.116091">
        <ele>736.278</ele>
        <time>2021-09-19T13:04:38Z</time>
      </trkpt>
      <trkpt lat="36.812770" lon="-5.116246">
        <ele>735.051</ele>
        <time>2021-09-19T13:04:45Z</time>
      </trkpt>
      <trkpt lat="36.812829" lon="-5.116264">
        <ele>735.098</ele>
        <time>2021-09-19T13:04:46Z</time>
      </trkpt>
      <trkpt lat="36.812888" lon="-5.116280">
        <ele>735.045</ele>
        <time>2021-09-19T13:04:47Z</time>
      </trkpt>
      <trkpt lat="36.813426" lon="-5.116405">
        <ele>735.047</ele>
        <time>2021-09-19T13:04:56Z</time>
      </trkpt>
      <trkpt lat="36.813986" lon="-5.116533">
        <ele>735.611</ele>
        <time>2021-09-19T13:05:05Z</time>
      </trkpt>
      <trkpt lat="36.814048" lon="-5.116556">
        <ele>735.808</ele>
        <time>2021-09-19T13:05:06Z</time>
      </trkpt>
      <trkpt lat="36.814109" lon="-5.116586">
        <ele>735.892</ele>
        <time>2021-09-19T13:05:07Z</time>
      </trkpt>
      <trkpt lat="36.814277" lon="-5.116715">
        <ele>735.898</ele>
        <time>2021-09-19T13:05:10Z</time>
      </trkpt>
      <trkpt lat="36.814712" lon="-5.117127">
        <ele>735.616</ele>
        <time>2021-09-19T13:05:18Z</time>
      </trkpt>
      <trkpt lat="36.815113" lon="-5.117445">
        <ele>735.268</ele>
        <time>2021-09-19T13:05:25Z</time>
      </trkpt>
      <trkpt lat="36.815236" lon="-5.117502">
        <ele>735.041</ele>
        <time>2021-09-19T13:05:27Z</time>
      </trkpt>
      <trkpt lat="36.815367" lon="-5.117514">
        <ele>735.057</ele>
        <time>2021-09-19T13:05:29Z</time>
      </trkpt>
      <trkpt lat="36.815430" lon="-5.117511">
        <ele>735.060</ele>
        <time>2021-09-19T13:05:30Z</time>
      </trkpt>
      <trkpt lat="36.815597" lon="-5.117438">
        <ele>735.037</ele>
        <time>2021-09-19T13:05:33Z</time>
      </trkpt>
      <trkpt lat="36.815691" lon="-5.117361">
        <ele>735.225</ele>
        <time>2021-09-19T13:05:35Z</time>
      </trkpt>
      <trkpt lat="36.815818" lon="-5.117255">
        <ele>736.226</ele>
        <time>2021-09-19T13:05:38Z</time>
      </trkpt>
      <trkpt lat="36.815858" lon="-5.117221">
        <ele>736.408</ele>
        <time>2021-09-19T13:05:39Z</time>
      </trkpt>
      <trkpt lat="36.816014" lon="-5.117099">
        <ele>737.608</ele>
        <time>2021-09-19T13:05:43Z</time>
      </trkpt>
      <trkpt lat="36.816101" lon="-5.117075">
        <ele>738.410</ele>
        <time>2021-09-19T13:05:45Z</time>
      </trkpt>
      <trkpt lat="36.816199" lon="-5.117102">
        <ele>738.626</ele>
        <time>2021-09-19T13:05:47Z</time>
      </trkpt>
      <trkpt lat="36.816248" lon="-5.117136">
        <ele>738.874</ele>
        <time>2021-09-19T13:05:48Z</time>
      </trkpt>
      <trkpt lat="36.816382" lon="-5.117329">
        <ele>738.836</ele>
        <time>2021-09-19T13:05:51Z</time>
      </trkpt>
      <trkpt lat="36.816432" lon="-5.117407">
        <ele>738.879</ele>
        <time>2021-09-19T13:05:52Z</time>
      </trkpt>
      <trkpt lat="36.816571" lon="-5.117546">
        <ele>738.845</ele>
        <time>2021-09-19T13:05:54Z</time>
      </trkpt>
      <trkpt lat="36.816753" lon="-5.117655">
        <ele>738.488</ele>
        <time>2021-09-19T13:05:56Z</time>
      </trkpt>
      <trkpt lat="36.816942" lon="-5.117778">
        <ele>737.625</ele>
        <time>2021-09-19T13:05:58Z</time>
      </trkpt>
      <trkpt lat="36.817199" lon="-5.118007">
        <ele>736.462</ele>
        <time>2021-09-19T13:06:01Z</time>
      </trkpt>
      <trkpt lat="36.817277" lon="-5.118088">
        <ele>734.483</ele>
        <time>2021-09-19T13:06:02Z</time>
      </trkpt>
      <trkpt lat="36.817353" lon="-5.118168">
        <ele>733.611</ele>
        <time>2021-09-19T13:06:03Z</time>
      </trkpt>
      <trkpt lat="36.817426" lon="-5.118247">
        <ele>733.208</ele>
        <time>2021-09-19T13:06:04Z</time>
      </trkpt>
      <trkpt lat="36.817624" lon="-5.118475">
        <ele>732.024</ele>
        <time>2021-09-19T13:06:07Z</time>
      </trkpt>
      <trkpt lat="36.817683" lon="-5.118542">
        <ele>731.430</ele>
        <time>2021-09-19T13:06:08Z</time>
      </trkpt>
      <trkpt lat="36.817844" lon="-5.118717">
        <ele>730.868</ele>
        <time>2021-09-19T13:06:11Z</time>
      </trkpt>
      <trkpt lat="36.817933" lon="-5.118822">
        <ele>730.840</ele>
        <time>2021-09-19T13:06:13Z</time>
      </trkpt>
      <trkpt lat="36.818198" lon="-5.119168">
        <ele>730.863</ele>
        <time>2021-09-19T13:06:20Z</time>
      </trkpt>
      <trkpt lat="36.818447" lon="-5.119535">
        <ele>732.059</ele>
        <time>2021-09-19T13:06:27Z</time>
      </trkpt>
      <trkpt lat="36.818547" lon="-5.119703">
        <ele>733.082</ele>
        <time>2021-09-19T13:06:30Z</time>
      </trkpt>
      <trkpt lat="36.818676" lon="-5.119940">
        <ele>733.849</ele>
        <time>2021-09-19T13:06:34Z</time>
      </trkpt>
      <trkpt lat="36.818707" lon="-5.120002">
        <ele>734.013</ele>
        <time>2021-09-19T13:06:35Z</time>
      </trkpt>
      <trkpt lat="36.818893" lon="-5.120368">
        <ele>734.843</ele>
        <time>2021-09-19T13:06:41Z</time>
      </trkpt>
      <trkpt lat="36.818963" lon="-5.120477">
        <ele>734.807</ele>
        <time>2021-09-19T13:06:43Z</time>
      </trkpt>
      <trkpt lat="36.819120" lon="-5.120678">
        <ele>735.008</ele>
        <time>2021-09-19T13:06:47Z</time>
      </trkpt>
      <trkpt lat="36.819429" lon="-5.120969">
        <ele>735.099</ele>
        <time>2021-09-19T13:06:54Z</time>
      </trkpt>
      <trkpt lat="36.819778" lon="-5.121218">
        <ele>735.095</ele>
        <time>2021-09-19T13:07:01Z</time>
      </trkpt>
      <trkpt lat="36.820143" lon="-5.121440">
        <ele>735.023</ele>
        <time>2021-09-19T13:07:08Z</time>
      </trkpt>
      <trkpt lat="36.820641" lon="-5.121684">
        <ele>735.015</ele>
        <time>2021-09-19T13:07:17Z</time>
      </trkpt>
      <trkpt lat="36.821057" lon="-5.121803">
        <ele>735.098</ele>
        <time>2021-09-19T13:07:24Z</time>
      </trkpt>
      <trkpt lat="36.821410" lon="-5.121856">
        <ele>735.284</ele>
        <time>2021-09-19T13:07:30Z</time>
      </trkpt>
      <trkpt lat="36.821588" lon="-5.121878">
        <ele>735.477</ele>
        <time>2021-09-19T13:07:33Z</time>
      </trkpt>
      <trkpt lat="36.821941" lon="-5.121915">
        <ele>735.684</ele>
        <time>2021-09-19T13:07:39Z</time>
      </trkpt>
      <trkpt lat="36.822053" lon="-5.121941">
        <ele>735.855</ele>
        <time>2021-09-19T13:07:41Z</time>
      </trkpt>
      <trkpt lat="36.822520" lon="-5.122080">
        <ele>736.207</ele>
        <time>2021-09-19T13:07:49Z</time>
      </trkpt>
      <trkpt lat="36.822870" lon="-5.122139">
        <ele>736.417</ele>
        <time>2021-09-19T13:07:55Z</time>
      </trkpt>
      <trkpt lat="36.823217" lon="-5.122192">
        <ele>736.208</ele>
        <time>2021-09-19T13:08:01Z</time>
      </trkpt>
      <trkpt lat="36.823334" lon="-5.122210">
        <ele>736.253</ele>
        <time>2021-09-19T13:08:03Z</time>
      </trkpt>
      <trkpt lat="36.823791" lon="-5.122270">
        <ele>736.449</ele>
        <time>2021-09-19T13:08:11Z</time>
      </trkpt>
      <trkpt lat="36.823909" lon="-5.122287">
        <ele>736.497</ele>
        <time>2021-09-19T13:08:13Z</time>
      </trkpt>
      <trkpt lat="36.823968" lon="-5.122291">
        <ele>736.689</ele>
        <time>2021-09-19T13:08:14Z</time>
      </trkpt>
      <trkpt lat="36.824137" lon="-5.122314">
        <ele>737.472</ele>
        <time>2021-09-19T13:08:17Z</time>
      </trkpt>
      <trkpt lat="36.824193" lon="-5.122323">
        <ele>737.678</ele>
        <time>2021-09-19T13:08:18Z</time>
      </trkpt>
      <trkpt lat="36.824628" lon="-5.122375">
        <ele>738.691</ele>
        <time>2021-09-19T13:08:26Z</time>
      </trkpt>
      <trkpt lat="36.824921" lon="-5.122412">
        <ele>738.658</ele>
        <time>2021-09-19T13:08:32Z</time>
      </trkpt>
      <trkpt lat="36.825071" lon="-5.122432">
        <ele>738.835</ele>
        <time>2021-09-19T13:08:35Z</time>
      </trkpt>
      <trkpt lat="36.825501" lon="-5.122476">
        <ele>739.686</ele>
        <time>2021-09-19T13:08:44Z</time>
      </trkpt>
      <trkpt lat="36.825549" lon="-5.122483">
        <ele>739.814</ele>
        <time>2021-09-19T13:08:45Z</time>
      </trkpt>
      <trkpt lat="36.825876" lon="-5.122529">
        <ele>740.608</ele>
        <time>2021-09-19T13:08:52Z</time>
      </trkpt>
      <trkpt lat="36.826017" lon="-5.122541">
        <ele>740.811</ele>
        <time>2021-09-19T13:08:55Z</time>
      </trkpt>
      <trkpt lat="36.826204" lon="-5.122569">
        <ele>741.617</ele>
        <time>2021-09-19T13:08:59Z</time>
      </trkpt>
      <trkpt lat="36.826392" lon="-5.122587">
        <ele>742.025</ele>
        <time>2021-09-19T13:09:03Z</time>
      </trkpt>
      <trkpt lat="36.826572" lon="-5.122606">
        <ele>742.467</ele>
        <time>2021-09-19T13:09:07Z</time>
      </trkpt>
      <trkpt lat="36.826766" lon="-5.122632">
        <ele>743.010</ele>
        <time>2021-09-19T13:09:11Z</time>
      </trkpt>
      <trkpt lat="36.826969" lon="-5.122657">
        <ele>743.876</ele>
        <time>2021-09-19T13:09:15Z</time>
      </trkpt>
      <trkpt lat="36.827118" lon="-5.122671">
        <ele>744.419</ele>
        <time>2021-09-19T13:09:18Z</time>
      </trkpt>
      <trkpt lat="36.827370" lon="-5.122701">
        <ele>744.866</ele>
        <time>2021-09-19T13:09:23Z</time>
      </trkpt>
      <trkpt lat="36.827770" lon="-5.122751">
        <ele>745.498</ele>
        <time>2021-09-19T13:09:31Z</time>
      </trkpt>
      <trkpt lat="36.827917" lon="-5.122767">
        <ele>745.615</ele>
        <time>2021-09-19T13:09:34Z</time>
      </trkpt>
      <trkpt lat="36.828350" lon="-5.122758">
        <ele>745.826</ele>
        <time>2021-09-19T13:09:43Z</time>
      </trkpt>
      <trkpt lat="36.828615" lon="-5.122729">
        <ele>746.408</ele>
        <time>2021-09-19T13:09:49Z</time>
      </trkpt>
      <trkpt lat="36.828663" lon="-5.122724">
        <ele>746.657</ele>
        <time>2021-09-19T13:09:50Z</time>
      </trkpt>
      <trkpt lat="36.828983" lon="-5.122692">
        <ele>747.643</ele>
        <time>2021-09-19T13:09:57Z</time>
      </trkpt>
      <trkpt lat="36.829225" lon="-5.122684">
        <ele>748.821</ele>
        <time>2021-09-19T13:10:02Z</time>
      </trkpt>
      <trkpt lat="36.829325" lon="-5.122685">
        <ele>748.863</ele>
        <time>2021-09-19T13:10:04Z</time>
      </trkpt>
      <trkpt lat="36.829373" lon="-5.122692">
        <ele>748.846</ele>
        <time>2021-09-19T13:10:05Z</time>
      </trkpt>
      <trkpt lat="36.829574" lon="-5.122763">
        <ele>749.292</ele>
        <time>2021-09-19T13:10:09Z</time>
      </trkpt>
      <trkpt lat="36.829802" lon="-5.122922">
        <ele>750.075</ele>
        <time>2021-09-19T13:10:14Z</time>
      </trkpt>
      <trkpt lat="36.829845" lon="-5.122969">
        <ele>750.032</ele>
        <time>2021-09-19T13:10:15Z</time>
      </trkpt>
      <trkpt lat="36.829993" lon="-5.123181">
        <ele>750.827</ele>
        <time>2021-09-19T13:10:19Z</time>
      </trkpt>
      <trkpt lat="36.830040" lon="-5.123297">
        <ele>750.868</ele>
        <time>2021-09-19T13:10:21Z</time>
      </trkpt>
      <trkpt lat="36.830073" lon="-5.123410">
        <ele>751.014</ele>
        <time>2021-09-19T13:10:23Z</time>
      </trkpt>
      <trkpt lat="36.830153" lon="-5.123710">
        <ele>751.808</ele>
        <time>2021-09-19T13:10:28Z</time>
      </trkpt>
      <trkpt lat="36.830313" lon="-5.124154">
        <ele>751.850</ele>
        <time>2021-09-19T13:10:34Z</time>
      </trkpt>
      <trkpt lat="36.830611" lon="-5.124722">
        <ele>751.416</ele>
        <time>2021-09-19T13:10:41Z</time>
      </trkpt>
      <trkpt lat="36.830804" lon="-5.125080">
        <ele>750.054</ele>
        <time>2021-09-19T13:10:46Z</time>
      </trkpt>
      <trkpt lat="36.830874" lon="-5.125209">
        <ele>749.846</ele>
        <time>2021-09-19T13:10:48Z</time>
      </trkpt>
      <trkpt lat="36.831159" lon="-5.125601">
        <ele>749.849</ele>
        <time>2021-09-19T13:10:55Z</time>
      </trkpt>
      <trkpt lat="36.831485" lon="-5.125856">
        <ele>749.855</ele>
        <time>2021-09-19T13:11:01Z</time>
      </trkpt>
      <trkpt lat="36.831951" lon="-5.126072">
        <ele>749.698</ele>
        <time>2021-09-19T13:11:08Z</time>
      </trkpt>
      <trkpt lat="36.832028" lon="-5.126090">
        <ele>749.265</ele>
        <time>2021-09-19T13:11:09Z</time>
      </trkpt>
      <trkpt lat="36.832108" lon="-5.126101">
        <ele>749.025</ele>
        <time>2021-09-19T13:11:10Z</time>
      </trkpt>
      <trkpt lat="36.832277" lon="-5.126113">
        <ele>748.826</ele>
        <time>2021-09-19T13:11:12Z</time>
      </trkpt>
      <trkpt lat="36.832619" lon="-5.126151">
        <ele>748.008</ele>
        <time>2021-09-19T13:11:16Z</time>
      </trkpt>
      <trkpt lat="36.832778" lon="-5.126201">
        <ele>747.008</ele>
        <time>2021-09-19T13:11:18Z</time>
      </trkpt>
      <trkpt lat="36.832853" lon="-5.126238">
        <ele>746.830</ele>
        <time>2021-09-19T13:11:19Z</time>
      </trkpt>
      <trkpt lat="36.832980" lon="-5.126356">
        <ele>746.266</ele>
        <time>2021-09-19T13:11:21Z</time>
      </trkpt>
      <trkpt lat="36.833038" lon="-5.126425">
        <ele>745.864</ele>
        <time>2021-09-19T13:11:22Z</time>
      </trkpt>
      <trkpt lat="36.833094" lon="-5.126495">
        <ele>745.676</ele>
        <time>2021-09-19T13:11:23Z</time>
      </trkpt>
      <trkpt lat="36.833311" lon="-5.126771">
        <ele>744.859</ele>
        <time>2021-09-19T13:11:27Z</time>
      </trkpt>
      <trkpt lat="36.833418" lon="-5.126895">
        <ele>744.685</ele>
        <time>2021-09-19T13:11:29Z</time>
      </trkpt>
      <trkpt lat="36.833470" lon="-5.126956">
        <ele>744.688</ele>
        <time>2021-09-19T13:11:30Z</time>
      </trkpt>
      <trkpt lat="36.833686" lon="-5.127285">
        <ele>744.685</ele>
        <time>2021-09-19T13:11:35Z</time>
      </trkpt>
      <trkpt lat="36.833910" lon="-5.127778">
        <ele>744.621</ele>
        <time>2021-09-19T13:11:42Z</time>
      </trkpt>
      <trkpt lat="36.834007" lon="-5.128126">
        <ele>744.841</ele>
        <time>2021-09-19T13:11:47Z</time>
      </trkpt>
      <trkpt lat="36.834069" lon="-5.128527">
        <ele>745.605</ele>
        <time>2021-09-19T13:11:53Z</time>
      </trkpt>
      <trkpt lat="36.834076" lon="-5.128591">
        <ele>746.008</ele>
        <time>2021-09-19T13:11:54Z</time>
      </trkpt>
      <trkpt lat="36.834099" lon="-5.128834">
        <ele>747.020</ele>
        <time>2021-09-19T13:11:58Z</time>
      </trkpt>
      <trkpt lat="36.834128" lon="-5.129083">
        <ele>748.086</ele>
        <time>2021-09-19T13:12:02Z</time>
      </trkpt>
      <trkpt lat="36.834137" lon="-5.129146">
        <ele>748.414</ele>
        <time>2021-09-19T13:12:03Z</time>
      </trkpt>
      <trkpt lat="36.834180" lon="-5.129444">
        <ele>749.296</ele>
        <time>2021-09-19T13:12:08Z</time>
      </trkpt>
      <trkpt lat="36.834213" lon="-5.129612">
        <ele>749.439</ele>
        <time>2021-09-19T13:12:11Z</time>
      </trkpt>
      <trkpt lat="36.834248" lon="-5.129834">
        <ele>749.845</ele>
        <time>2021-09-19T13:12:15Z</time>
      </trkpt>
      <trkpt lat="36.834265" lon="-5.130065">
        <ele>750.468</ele>
        <time>2021-09-19T13:12:19Z</time>
      </trkpt>
      <trkpt lat="36.834265" lon="-5.130124">
        <ele>750.855</ele>
        <time>2021-09-19T13:12:20Z</time>
      </trkpt>
      <trkpt lat="36.834280" lon="-5.130592">
        <ele>751.454</ele>
        <time>2021-09-19T13:12:28Z</time>
      </trkpt>
      <trkpt lat="36.834319" lon="-5.131072">
        <ele>751.856</ele>
        <time>2021-09-19T13:12:36Z</time>
      </trkpt>
      <trkpt lat="36.834328" lon="-5.131255">
        <ele>752.011</ele>
        <time>2021-09-19T13:12:39Z</time>
      </trkpt>
      <trkpt lat="36.834373" lon="-5.131743">
        <ele>752.408</ele>
        <time>2021-09-19T13:12:47Z</time>
      </trkpt>
      <trkpt lat="36.834401" lon="-5.132116">
        <ele>753.093</ele>
        <time>2021-09-19T13:12:53Z</time>
      </trkpt>
      <trkpt lat="36.834422" lon="-5.132365">
        <ele>753.449</ele>
        <time>2021-09-19T13:12:57Z</time>
      </trkpt>
      <trkpt lat="36.834454" lon="-5.132616">
        <ele>754.027</ele>
        <time>2021-09-19T13:13:01Z</time>
      </trkpt>
      <trkpt lat="36.834529" lon="-5.132987">
        <ele>754.489</ele>
        <time>2021-09-19T13:13:07Z</time>
      </trkpt>
      <trkpt lat="36.834685" lon="-5.133453">
        <ele>755.432</ele>
        <time>2021-09-19T13:13:15Z</time>
      </trkpt>
      <trkpt lat="36.834704" lon="-5.133512">
        <ele>755.628</ele>
        <time>2021-09-19T13:13:16Z</time>
      </trkpt>
      <trkpt lat="36.834848" lon="-5.134044">
        <ele>756.271</ele>
        <time>2021-09-19T13:13:25Z</time>
      </trkpt>
      <trkpt lat="36.835032" lon="-5.134568">
        <ele>756.448</ele>
        <time>2021-09-19T13:13:34Z</time>
      </trkpt>
      <trkpt lat="36.835088" lon="-5.134683">
        <ele>756.478</ele>
        <time>2021-09-19T13:13:36Z</time>
      </trkpt>
      <trkpt lat="36.835234" lon="-5.134979">
        <ele>756.633</ele>
        <time>2021-09-19T13:13:41Z</time>
      </trkpt>
      <trkpt lat="36.835497" lon="-5.135504">
        <ele>757.026</ele>
        <time>2021-09-19T13:13:50Z</time>
      </trkpt>
      <trkpt lat="36.835645" lon="-5.135779">
        <ele>757.408</ele>
        <time>2021-09-19T13:13:55Z</time>
      </trkpt>
      <trkpt lat="36.835729" lon="-5.135931">
        <ele>758.255</ele>
        <time>2021-09-19T13:13:58Z</time>
      </trkpt>
      <trkpt lat="36.835836" lon="-5.136122">
        <ele>758.651</ele>
        <time>2021-09-19T13:14:02Z</time>
      </trkpt>
      <trkpt lat="36.835972" lon="-5.136360">
        <ele>759.099</ele>
        <time>2021-09-19T13:14:07Z</time>
      </trkpt>
      <trkpt lat="36.836080" lon="-5.136559">
        <ele>759.621</ele>
        <time>2021-09-19T13:14:11Z</time>
      </trkpt>
      <trkpt lat="36.836167" lon="-5.136709">
        <ele>759.814</ele>
        <time>2021-09-19T13:14:14Z</time>
      </trkpt>
      <trkpt lat="36.836381" lon="-5.137033">
        <ele>760.420</ele>
        <time>2021-09-19T13:14:21Z</time>
      </trkpt>
      <trkpt lat="36.836415" lon="-5.137073">
        <ele>760.663</ele>
        <time>2021-09-19T13:14:22Z</time>
      </trkpt>
      <trkpt lat="36.836536" lon="-5.137154">
        <ele>761.280</ele>
        <time>2021-09-19T13:14:25Z</time>
      </trkpt>
      <trkpt lat="36.836577" lon="-5.137167">
        <ele>761.255</ele>
        <time>2021-09-19T13:14:26Z</time>
      </trkpt>
      <trkpt lat="36.836620" lon="-5.137181">
        <ele>761.207</ele>
        <time>2021-09-19T13:14:27Z</time>
      </trkpt>
      <trkpt lat="36.836775" lon="-5.137211">
        <ele>761.817</ele>
        <time>2021-09-19T13:14:31Z</time>
      </trkpt>
      <trkpt lat="36.836816" lon="-5.137214">
        <ele>762.008</ele>
        <time>2021-09-19T13:14:32Z</time>
      </trkpt>
      <trkpt lat="36.837059" lon="-5.137221">
        <ele>762.673</ele>
        <time>2021-09-19T13:14:38Z</time>
      </trkpt>
      <trkpt lat="36.837100" lon="-5.137224">
        <ele>763.019</ele>
        <time>2021-09-19T13:14:39Z</time>
      </trkpt>
      <trkpt lat="36.837223" lon="-5.137239">
        <ele>764.227</ele>
        <time>2021-09-19T13:14:42Z</time>
      </trkpt>
      <trkpt lat="36.837343" lon="-5.137249">
        <ele>765.239</ele>
        <time>2021-09-19T13:14:45Z</time>
      </trkpt>
      <trkpt lat="36.837386" lon="-5.137255">
        <ele>765.852</ele>
        <time>2021-09-19T13:14:46Z</time>
      </trkpt>
      <trkpt lat="36.837473" lon="-5.137267">
        <ele>766.628</ele>
        <time>2021-09-19T13:14:48Z</time>
      </trkpt>
      <trkpt lat="36.837702" lon="-5.137296">
        <ele>767.681</ele>
        <time>2021-09-19T13:14:53Z</time>
      </trkpt>
      <trkpt lat="36.837797" lon="-5.137304">
        <ele>767.848</ele>
        <time>2021-09-19T13:14:55Z</time>
      </trkpt>
      <trkpt lat="36.838219" lon="-5.137419">
        <ele>768.427</ele>
        <time>2021-09-19T13:15:04Z</time>
      </trkpt>
      <trkpt lat="36.838305" lon="-5.137481">
        <ele>768.668</ele>
        <time>2021-09-19T13:15:06Z</time>
      </trkpt>
      <trkpt lat="36.838393" lon="-5.137541">
        <ele>768.814</ele>
        <time>2021-09-19T13:15:08Z</time>
      </trkpt>
      <trkpt lat="36.838480" lon="-5.137596">
        <ele>768.808</ele>
        <time>2021-09-19T13:15:10Z</time>
      </trkpt>
      <trkpt lat="36.838792" lon="-5.137777">
        <ele>769.240</ele>
        <time>2021-09-19T13:15:17Z</time>
      </trkpt>
      <trkpt lat="36.838844" lon="-5.137792">
        <ele>769.456</ele>
        <time>2021-09-19T13:15:18Z</time>
      </trkpt>
      <trkpt lat="36.838894" lon="-5.137810">
        <ele>769.484</ele>
        <time>2021-09-19T13:15:19Z</time>
      </trkpt>
      <trkpt lat="36.839035" lon="-5.137889">
        <ele>769.476</ele>
        <time>2021-09-19T13:15:22Z</time>
      </trkpt>
      <trkpt lat="36.839313" lon="-5.137978">
        <ele>769.649</ele>
        <time>2021-09-19T13:15:27Z</time>
      </trkpt>
      <trkpt lat="36.839371" lon="-5.138005">
        <ele>769.665</ele>
        <time>2021-09-19T13:15:28Z</time>
      </trkpt>
      <trkpt lat="36.839709" lon="-5.138144">
        <ele>769.468</ele>
        <time>2021-09-19T13:15:34Z</time>
      </trkpt>
      <trkpt lat="36.839822" lon="-5.138192">
        <ele>769.415</ele>
        <time>2021-09-19T13:15:36Z</time>
      </trkpt>
      <trkpt lat="36.840100" lon="-5.138350">
        <ele>768.814</ele>
        <time>2021-09-19T13:15:41Z</time>
      </trkpt>
      <trkpt lat="36.840162" lon="-5.138375">
        <ele>768.654</ele>
        <time>2021-09-19T13:15:42Z</time>
      </trkpt>
      <trkpt lat="36.840354" lon="-5.138445">
        <ele>768.409</ele>
        <time>2021-09-19T13:15:45Z</time>
      </trkpt>
      <trkpt lat="36.840547" lon="-5.138552">
        <ele>768.008</ele>
        <time>2021-09-19T13:15:48Z</time>
      </trkpt>
      <trkpt lat="36.840828" lon="-5.138696">
        <ele>767.859</ele>
        <time>2021-09-19T13:15:52Z</time>
      </trkpt>
      <trkpt lat="36.840971" lon="-5.138752">
        <ele>767.625</ele>
        <time>2021-09-19T13:15:54Z</time>
      </trkpt>
      <trkpt lat="36.841325" lon="-5.138918">
        <ele>766.283</ele>
        <time>2021-09-19T13:15:59Z</time>
      </trkpt>
      <trkpt lat="36.841680" lon="-5.139092">
        <ele>765.455</ele>
        <time>2021-09-19T13:16:04Z</time>
      </trkpt>
      <trkpt lat="36.841826" lon="-5.139172">
        <ele>765.218</ele>
        <time>2021-09-19T13:16:06Z</time>
      </trkpt>
      <trkpt lat="36.841972" lon="-5.139251">
        <ele>765.274</ele>
        <time>2021-09-19T13:16:08Z</time>
      </trkpt>
      <trkpt lat="36.842044" lon="-5.139294">
        <ele>765.467</ele>
        <time>2021-09-19T13:16:09Z</time>
      </trkpt>
      <trkpt lat="36.842195" lon="-5.139359">
        <ele>765.244</ele>
        <time>2021-09-19T13:16:11Z</time>
      </trkpt>
      <trkpt lat="36.842347" lon="-5.139419">
        <ele>764.658</ele>
        <time>2021-09-19T13:16:13Z</time>
      </trkpt>
      <trkpt lat="36.842422" lon="-5.139450">
        <ele>764.252</ele>
        <time>2021-09-19T13:16:14Z</time>
      </trkpt>
      <trkpt lat="36.842724" lon="-5.139574">
        <ele>763.017</ele>
        <time>2021-09-19T13:16:18Z</time>
      </trkpt>
      <trkpt lat="36.842874" lon="-5.139649">
        <ele>762.408</ele>
        <time>2021-09-19T13:16:20Z</time>
      </trkpt>
      <trkpt lat="36.843026" lon="-5.139712">
        <ele>762.043</ele>
        <time>2021-09-19T13:16:22Z</time>
      </trkpt>
      <trkpt lat="36.843251" lon="-5.139793">
        <ele>761.439</ele>
        <time>2021-09-19T13:16:25Z</time>
      </trkpt>
      <trkpt lat="36.843477" lon="-5.139870">
        <ele>761.017</ele>
        <time>2021-09-19T13:16:28Z</time>
      </trkpt>
      <trkpt lat="36.843713" lon="-5.139953">
        <ele>760.429</ele>
        <time>2021-09-19T13:16:31Z</time>
      </trkpt>
      <trkpt lat="36.844040" lon="-5.140095">
        <ele>759.812</ele>
        <time>2021-09-19T13:16:35Z</time>
      </trkpt>
      <trkpt lat="36.844122" lon="-5.140135">
        <ele>759.848</ele>
        <time>2021-09-19T13:16:36Z</time>
      </trkpt>
      <trkpt lat="36.844457" lon="-5.140296">
        <ele>758.681</ele>
        <time>2021-09-19T13:16:40Z</time>
      </trkpt>
      <trkpt lat="36.844544" lon="-5.140336">
        <ele>758.438</ele>
        <time>2021-09-19T13:16:41Z</time>
      </trkpt>
      <trkpt lat="36.844798" lon="-5.140449">
        <ele>757.612</ele>
        <time>2021-09-19T13:16:44Z</time>
      </trkpt>
      <trkpt lat="36.844964" lon="-5.140521">
        <ele>756.232</ele>
        <time>2021-09-19T13:16:46Z</time>
      </trkpt>
      <trkpt lat="36.845049" lon="-5.140548">
        <ele>755.805</ele>
        <time>2021-09-19T13:16:47Z</time>
      </trkpt>
      <trkpt lat="36.845224" lon="-5.140613">
        <ele>755.008</ele>
        <time>2021-09-19T13:16:49Z</time>
      </trkpt>
      <trkpt lat="36.845414" lon="-5.140683">
        <ele>754.659</ele>
        <time>2021-09-19T13:16:51Z</time>
      </trkpt>
      <trkpt lat="36.845512" lon="-5.140715">
        <ele>754.055</ele>
        <time>2021-09-19T13:16:52Z</time>
      </trkpt>
      <trkpt lat="36.845926" lon="-5.140875">
        <ele>752.413</ele>
        <time>2021-09-19T13:16:56Z</time>
      </trkpt>
      <trkpt lat="36.846035" lon="-5.140924">
        <ele>752.275</ele>
        <time>2021-09-19T13:16:57Z</time>
      </trkpt>
      <trkpt lat="36.846144" lon="-5.140970">
        <ele>751.028</ele>
        <time>2021-09-19T13:16:58Z</time>
      </trkpt>
      <trkpt lat="36.846254" lon="-5.141017">
        <ele>749.464</ele>
        <time>2021-09-19T13:16:59Z</time>
      </trkpt>
      <trkpt lat="36.846473" lon="-5.141116">
        <ele>747.687</ele>
        <time>2021-09-19T13:17:01Z</time>
      </trkpt>
      <trkpt lat="36.846695" lon="-5.141217">
        <ele>746.034</ele>
        <time>2021-09-19T13:17:03Z</time>
      </trkpt>
      <trkpt lat="36.846803" lon="-5.141267">
        <ele>744.846</ele>
        <time>2021-09-19T13:17:04Z</time>
      </trkpt>
      <trkpt lat="36.847020" lon="-5.141365">
        <ele>742.888</ele>
        <time>2021-09-19T13:17:06Z</time>
      </trkpt>
      <trkpt lat="36.847238" lon="-5.141462">
        <ele>739.616</ele>
        <time>2021-09-19T13:17:08Z</time>
      </trkpt>
      <trkpt lat="36.847346" lon="-5.141504">
        <ele>738.008</ele>
        <time>2021-09-19T13:17:09Z</time>
      </trkpt>
      <trkpt lat="36.847454" lon="-5.141541">
        <ele>735.812</ele>
        <time>2021-09-19T13:17:10Z</time>
      </trkpt>
      <trkpt lat="36.847562" lon="-5.141576">
        <ele>734.888</ele>
        <time>2021-09-19T13:17:11Z</time>
      </trkpt>
      <trkpt lat="36.847864" lon="-5.141674">
        <ele>733.296</ele>
        <time>2021-09-19T13:17:14Z</time>
      </trkpt>
      <trkpt lat="36.848056" lon="-5.141729">
        <ele>732.288</ele>
        <time>2021-09-19T13:17:16Z</time>
      </trkpt>
      <trkpt lat="36.848150" lon="-5.141753">
        <ele>731.681</ele>
        <time>2021-09-19T13:17:17Z</time>
      </trkpt>
      <trkpt lat="36.848335" lon="-5.141799">
        <ele>730.257</ele>
        <time>2021-09-19T13:17:19Z</time>
      </trkpt>
      <trkpt lat="36.848713" lon="-5.141898">
        <ele>728.690</ele>
        <time>2021-09-19T13:17:23Z</time>
      </trkpt>
      <trkpt lat="36.848998" lon="-5.142017">
        <ele>727.677</ele>
        <time>2021-09-19T13:17:26Z</time>
      </trkpt>
      <trkpt lat="36.849193" lon="-5.142095">
        <ele>726.242</ele>
        <time>2021-09-19T13:17:28Z</time>
      </trkpt>
      <trkpt lat="36.849293" lon="-5.142136">
        <ele>725.622</ele>
        <time>2021-09-19T13:17:29Z</time>
      </trkpt>
      <trkpt lat="36.849395" lon="-5.142178">
        <ele>725.014</ele>
        <time>2021-09-19T13:17:30Z</time>
      </trkpt>
      <trkpt lat="36.849601" lon="-5.142267">
        <ele>723.808</ele>
        <time>2021-09-19T13:17:32Z</time>
      </trkpt>
      <trkpt lat="36.849809" lon="-5.142370">
        <ele>722.652</ele>
        <time>2021-09-19T13:17:34Z</time>
      </trkpt>
      <trkpt lat="36.849908" lon="-5.142434">
        <ele>721.858</ele>
        <time>2021-09-19T13:17:35Z</time>
      </trkpt>
      <trkpt lat="36.850008" lon="-5.142504">
        <ele>721.076</ele>
        <time>2021-09-19T13:17:36Z</time>
      </trkpt>
      <trkpt lat="36.850213" lon="-5.142653">
        <ele>719.898</ele>
        <time>2021-09-19T13:17:38Z</time>
      </trkpt>
      <trkpt lat="36.850428" lon="-5.142810">
        <ele>718.871</ele>
        <time>2021-09-19T13:17:40Z</time>
      </trkpt>
      <trkpt lat="36.850536" lon="-5.142877">
        <ele>718.417</ele>
        <time>2021-09-19T13:17:41Z</time>
      </trkpt>
      <trkpt lat="36.850641" lon="-5.142931">
        <ele>717.480</ele>
        <time>2021-09-19T13:17:42Z</time>
      </trkpt>
      <trkpt lat="36.850744" lon="-5.142968">
        <ele>716.867</ele>
        <time>2021-09-19T13:17:43Z</time>
      </trkpt>
      <trkpt lat="36.850839" lon="-5.142999">
        <ele>715.483</ele>
        <time>2021-09-19T13:17:44Z</time>
      </trkpt>
      <trkpt lat="36.850917" lon="-5.143041">
        <ele>714.625</ele>
        <time>2021-09-19T13:17:45Z</time>
      </trkpt>
      <trkpt lat="36.850964" lon="-5.143108">
        <ele>714.017</ele>
        <time>2021-09-19T13:17:46Z</time>
      </trkpt>
      <trkpt lat="36.851001" lon="-5.143187">
        <ele>712.208</ele>
        <time>2021-09-19T13:17:47Z</time>
      </trkpt>
      <trkpt lat="36.851041" lon="-5.143262">
        <ele>711.026</ele>
        <time>2021-09-19T13:17:48Z</time>
      </trkpt>
      <trkpt lat="36.851090" lon="-5.143334">
        <ele>709.882</ele>
        <time>2021-09-19T13:17:49Z</time>
      </trkpt>
      <trkpt lat="36.851142" lon="-5.143405">
        <ele>709.410</ele>
        <time>2021-09-19T13:17:50Z</time>
      </trkpt>
      <trkpt lat="36.851239" lon="-5.143557">
        <ele>708.832</ele>
        <time>2021-09-19T13:17:52Z</time>
      </trkpt>
      <trkpt lat="36.851334" lon="-5.143729">
        <ele>707.285</ele>
        <time>2021-09-19T13:17:54Z</time>
      </trkpt>
      <trkpt lat="36.851391" lon="-5.143808">
        <ele>706.691</ele>
        <time>2021-09-19T13:17:55Z</time>
      </trkpt>
      <trkpt lat="36.851526" lon="-5.143932">
        <ele>706.294</ele>
        <time>2021-09-19T13:17:57Z</time>
      </trkpt>
      <trkpt lat="36.851661" lon="-5.144040">
        <ele>705.431</ele>
        <time>2021-09-19T13:17:59Z</time>
      </trkpt>
      <trkpt lat="36.851731" lon="-5.144079">
        <ele>705.086</ele>
        <time>2021-09-19T13:18:00Z</time>
      </trkpt>
      <trkpt lat="36.851865" lon="-5.144081">
        <ele>704.260</ele>
        <time>2021-09-19T13:18:02Z</time>
      </trkpt>
      <trkpt lat="36.851984" lon="-5.144009">
        <ele>704.026</ele>
        <time>2021-09-19T13:18:04Z</time>
      </trkpt>
      <trkpt lat="36.852121" lon="-5.143925">
        <ele>703.808</ele>
        <time>2021-09-19T13:18:06Z</time>
      </trkpt>
      <trkpt lat="36.852395" lon="-5.143769">
        <ele>702.856</ele>
        <time>2021-09-19T13:18:10Z</time>
      </trkpt>
      <trkpt lat="36.852571" lon="-5.143825">
        <ele>702.612</ele>
        <time>2021-09-19T13:18:13Z</time>
      </trkpt>
      <trkpt lat="36.852627" lon="-5.143857">
        <ele>702.420</ele>
        <time>2021-09-19T13:18:14Z</time>
      </trkpt>
      <trkpt lat="36.852974" lon="-5.144049">
        <ele>702.062</ele>
        <time>2021-09-19T13:18:20Z</time>
      </trkpt>
      <trkpt lat="36.853034" lon="-5.144072">
        <ele>702.095</ele>
        <time>2021-09-19T13:18:21Z</time>
      </trkpt>
      <trkpt lat="36.853220" lon="-5.144064">
        <ele>702.051</ele>
        <time>2021-09-19T13:18:24Z</time>
      </trkpt>
      <trkpt lat="36.853326" lon="-5.143994">
        <ele>701.874</ele>
        <time>2021-09-19T13:18:26Z</time>
      </trkpt>
      <trkpt lat="36.853424" lon="-5.143915">
        <ele>701.861</ele>
        <time>2021-09-19T13:18:28Z</time>
      </trkpt>
      <trkpt lat="36.853596" lon="-5.143750">
        <ele>701.815</ele>
        <time>2021-09-19T13:18:32Z</time>
      </trkpt>
      <trkpt lat="36.853644" lon="-5.143724">
        <ele>702.065</ele>
        <time>2021-09-19T13:18:33Z</time>
      </trkpt>
      <trkpt lat="36.853870" lon="-5.143735">
        <ele>702.211</ele>
        <time>2021-09-19T13:18:37Z</time>
      </trkpt>
      <trkpt lat="36.854061" lon="-5.143776">
        <ele>701.808</ele>
        <time>2021-09-19T13:18:40Z</time>
      </trkpt>
      <trkpt lat="36.854264" lon="-5.143820">
        <ele>701.819</ele>
        <time>2021-09-19T13:18:43Z</time>
      </trkpt>
      <trkpt lat="36.854610" lon="-5.143805">
        <ele>701.275</ele>
        <time>2021-09-19T13:18:48Z</time>
      </trkpt>
      <trkpt lat="36.854744" lon="-5.143790">
        <ele>700.613</ele>
        <time>2021-09-19T13:18:50Z</time>
      </trkpt>
      <trkpt lat="36.854941" lon="-5.143765">
        <ele>699.665</ele>
        <time>2021-09-19T13:18:53Z</time>
      </trkpt>
      <trkpt lat="36.855073" lon="-5.143736">
        <ele>699.288</ele>
        <time>2021-09-19T13:18:55Z</time>
      </trkpt>
      <trkpt lat="36.855269" lon="-5.143706">
        <ele>698.674</ele>
        <time>2021-09-19T13:18:58Z</time>
      </trkpt>
      <trkpt lat="36.855331" lon="-5.143704">
        <ele>698.487</ele>
        <time>2021-09-19T13:18:59Z</time>
      </trkpt>
      <trkpt lat="36.855383" lon="-5.143723">
        <ele>698.254</ele>
        <time>2021-09-19T13:19:00Z</time>
      </trkpt>
      <trkpt lat="36.855475" lon="-5.143908">
        <ele>697.613</ele>
        <time>2021-09-19T13:19:03Z</time>
      </trkpt>
      <trkpt lat="36.855518" lon="-5.144071">
        <ele>697.643</ele>
        <time>2021-09-19T13:19:05Z</time>
      </trkpt>
      <trkpt lat="36.855547" lon="-5.144154">
        <ele>697.407</ele>
        <time>2021-09-19T13:19:06Z</time>
      </trkpt>
      <trkpt lat="36.855622" lon="-5.144320">
        <ele>697.208</ele>
        <time>2021-09-19T13:19:08Z</time>
      </trkpt>
      <trkpt lat="36.855762" lon="-5.144579">
        <ele>696.279</ele>
        <time>2021-09-19T13:19:11Z</time>
      </trkpt>
      <trkpt lat="36.855858" lon="-5.144761">
        <ele>695.475</ele>
        <time>2021-09-19T13:19:13Z</time>
      </trkpt>
      <trkpt lat="36.855963" lon="-5.144940">
        <ele>693.823</ele>
        <time>2021-09-19T13:19:15Z</time>
      </trkpt>
      <trkpt lat="36.856010" lon="-5.145033">
        <ele>693.065</ele>
        <time>2021-09-19T13:19:16Z</time>
      </trkpt>
      <trkpt lat="36.856051" lon="-5.145130">
        <ele>692.018</ele>
        <time>2021-09-19T13:19:17Z</time>
      </trkpt>
      <trkpt lat="36.856137" lon="-5.145321">
        <ele>691.234</ele>
        <time>2021-09-19T13:19:19Z</time>
      </trkpt>
      <trkpt lat="36.856186" lon="-5.145415">
        <ele>690.827</ele>
        <time>2021-09-19T13:19:20Z</time>
      </trkpt>
      <trkpt lat="36.856358" lon="-5.145690">
        <ele>689.884</ele>
        <time>2021-09-19T13:19:23Z</time>
      </trkpt>
      <trkpt lat="36.856427" lon="-5.145768">
        <ele>689.652</ele>
        <time>2021-09-19T13:19:24Z</time>
      </trkpt>
      <trkpt lat="36.856661" lon="-5.145871">
        <ele>687.653</ele>
        <time>2021-09-19T13:19:27Z</time>
      </trkpt>
      <trkpt lat="36.856817" lon="-5.145907">
        <ele>686.208</ele>
        <time>2021-09-19T13:19:29Z</time>
      </trkpt>
      <trkpt lat="36.857040" lon="-5.145993">
        <ele>685.608</ele>
        <time>2021-09-19T13:19:32Z</time>
      </trkpt>
      <trkpt lat="36.857187" lon="-5.146048">
        <ele>685.243</ele>
        <time>2021-09-19T13:19:34Z</time>
      </trkpt>
      <trkpt lat="36.857421" lon="-5.146123">
        <ele>684.259</ele>
        <time>2021-09-19T13:19:37Z</time>
      </trkpt>
      <trkpt lat="36.857507" lon="-5.146133">
        <ele>683.847</ele>
        <time>2021-09-19T13:19:38Z</time>
      </trkpt>
      <trkpt lat="36.857590" lon="-5.146140">
        <ele>683.049</ele>
        <time>2021-09-19T13:19:39Z</time>
      </trkpt>
      <trkpt lat="36.857833" lon="-5.146197">
        <ele>682.022</ele>
        <time>2021-09-19T13:19:42Z</time>
      </trkpt>
      <trkpt lat="36.857977" lon="-5.146287">
        <ele>680.658</ele>
        <time>2021-09-19T13:19:44Z</time>
      </trkpt>
      <trkpt lat="36.858038" lon="-5.146354">
        <ele>680.011</ele>
        <time>2021-09-19T13:19:45Z</time>
      </trkpt>
      <trkpt lat="36.858092" lon="-5.146429">
        <ele>679.458</ele>
        <time>2021-09-19T13:19:46Z</time>
      </trkpt>
      <trkpt lat="36.858146" lon="-5.146505">
        <ele>679.034</ele>
        <time>2021-09-19T13:19:47Z</time>
      </trkpt>
      <trkpt lat="36.858206" lon="-5.146573">
        <ele>678.855</ele>
        <time>2021-09-19T13:19:48Z</time>
      </trkpt>
      <trkpt lat="36.858272" lon="-5.146632">
        <ele>678.610</ele>
        <time>2021-09-19T13:19:49Z</time>
      </trkpt>
      <trkpt lat="36.858398" lon="-5.146747">
        <ele>678.208</ele>
        <time>2021-09-19T13:19:51Z</time>
      </trkpt>
      <trkpt lat="36.858652" lon="-5.146968">
        <ele>677.631</ele>
        <time>2021-09-19T13:19:55Z</time>
      </trkpt>
      <trkpt lat="36.858723" lon="-5.147011">
        <ele>677.297</ele>
        <time>2021-09-19T13:19:56Z</time>
      </trkpt>
      <trkpt lat="36.859011" lon="-5.147176">
        <ele>676.655</ele>
        <time>2021-09-19T13:20:00Z</time>
      </trkpt>
      <trkpt lat="36.859209" lon="-5.147350">
        <ele>676.457</ele>
        <time>2021-09-19T13:20:03Z</time>
      </trkpt>
      <trkpt lat="36.859283" lon="-5.147390">
        <ele>676.280</ele>
        <time>2021-09-19T13:20:04Z</time>
      </trkpt>
      <trkpt lat="36.859517" lon="-5.147476">
        <ele>676.036</ele>
        <time>2021-09-19T13:20:07Z</time>
      </trkpt>
      <trkpt lat="36.859591" lon="-5.147520">
        <ele>675.869</ele>
        <time>2021-09-19T13:20:08Z</time>
      </trkpt>
      <trkpt lat="36.859730" lon="-5.147624">
        <ele>674.676</ele>
        <time>2021-09-19T13:20:10Z</time>
      </trkpt>
      <trkpt lat="36.859950" lon="-5.147783">
        <ele>673.873</ele>
        <time>2021-09-19T13:20:13Z</time>
      </trkpt>
      <trkpt lat="36.860026" lon="-5.147832">
        <ele>673.685</ele>
        <time>2021-09-19T13:20:14Z</time>
      </trkpt>
      <trkpt lat="36.860180" lon="-5.147916">
        <ele>673.413</ele>
        <time>2021-09-19T13:20:16Z</time>
      </trkpt>
      <trkpt lat="36.860350" lon="-5.147948">
        <ele>673.008</ele>
        <time>2021-09-19T13:20:18Z</time>
      </trkpt>
      <trkpt lat="36.860522" lon="-5.147963">
        <ele>672.445</ele>
        <time>2021-09-19T13:20:20Z</time>
      </trkpt>
      <trkpt lat="36.860687" lon="-5.147995">
        <ele>672.061</ele>
        <time>2021-09-19T13:20:22Z</time>
      </trkpt>
      <trkpt lat="36.860942" lon="-5.148018">
        <ele>671.459</ele>
        <time>2021-09-19T13:20:25Z</time>
      </trkpt>
      <trkpt lat="36.861107" lon="-5.148046">
        <ele>670.081</ele>
        <time>2021-09-19T13:20:27Z</time>
      </trkpt>
      <trkpt lat="36.861188" lon="-5.148068">
        <ele>669.474</ele>
        <time>2021-09-19T13:20:28Z</time>
      </trkpt>
      <trkpt lat="36.861269" lon="-5.148093">
        <ele>668.860</ele>
        <time>2021-09-19T13:20:29Z</time>
      </trkpt>
      <trkpt lat="36.861516" lon="-5.148164">
        <ele>667.633</ele>
        <time>2021-09-19T13:20:32Z</time>
      </trkpt>
      <trkpt lat="36.861689" lon="-5.148188">
        <ele>667.020</ele>
        <time>2021-09-19T13:20:34Z</time>
      </trkpt>
      <trkpt lat="36.861765" lon="-5.148214">
        <ele>667.036</ele>
        <time>2021-09-19T13:20:35Z</time>
      </trkpt>
      <trkpt lat="36.861903" lon="-5.148312">
        <ele>666.817</ele>
        <time>2021-09-19T13:20:37Z</time>
      </trkpt>
      <trkpt lat="36.861964" lon="-5.148371">
        <ele>666.618</ele>
        <time>2021-09-19T13:20:38Z</time>
      </trkpt>
      <trkpt lat="36.862206" lon="-5.148575">
        <ele>665.808</ele>
        <time>2021-09-19T13:20:42Z</time>
      </trkpt>
      <trkpt lat="36.862271" lon="-5.148611">
        <ele>665.831</ele>
        <time>2021-09-19T13:20:43Z</time>
      </trkpt>
      <trkpt lat="36.862744" lon="-5.148785">
        <ele>665.667</ele>
        <time>2021-09-19T13:20:50Z</time>
      </trkpt>
      <trkpt lat="36.863305" lon="-5.148993">
        <ele>665.865</ele>
        <time>2021-09-19T13:20:58Z</time>
      </trkpt>
      <trkpt lat="36.863379" lon="-5.149013">
        <ele>665.817</ele>
        <time>2021-09-19T13:20:59Z</time>
      </trkpt>
      <trkpt lat="36.863846" lon="-5.149105">
        <ele>664.810</ele>
        <time>2021-09-19T13:21:05Z</time>
      </trkpt>
      <trkpt lat="36.863931" lon="-5.149109">
        <ele>664.656</ele>
        <time>2021-09-19T13:21:06Z</time>
      </trkpt>
      <trkpt lat="36.864101" lon="-5.149057">
        <ele>664.239</ele>
        <time>2021-09-19T13:21:08Z</time>
      </trkpt>
      <trkpt lat="36.864341" lon="-5.149006">
        <ele>663.816</ele>
        <time>2021-09-19T13:21:11Z</time>
      </trkpt>
      <trkpt lat="36.864412" lon="-5.149027">
        <ele>663.677</ele>
        <time>2021-09-19T13:21:12Z</time>
      </trkpt>
      <trkpt lat="36.864538" lon="-5.149105">
        <ele>662.661</ele>
        <time>2021-09-19T13:21:14Z</time>
      </trkpt>
      <trkpt lat="36.864596" lon="-5.149157">
        <ele>662.227</ele>
        <time>2021-09-19T13:21:15Z</time>
      </trkpt>
      <trkpt lat="36.864744" lon="-5.149352">
        <ele>661.808</ele>
        <time>2021-09-19T13:21:18Z</time>
      </trkpt>
      <trkpt lat="36.864786" lon="-5.149423">
        <ele>661.865</ele>
        <time>2021-09-19T13:21:19Z</time>
      </trkpt>
      <trkpt lat="36.864876" lon="-5.149551">
        <ele>661.861</ele>
        <time>2021-09-19T13:21:21Z</time>
      </trkpt>
      <trkpt lat="36.864974" lon="-5.149652">
        <ele>661.899</ele>
        <time>2021-09-19T13:21:23Z</time>
      </trkpt>
      <trkpt lat="36.865273" lon="-5.149922">
        <ele>661.831</ele>
        <time>2021-09-19T13:21:29Z</time>
      </trkpt>
      <trkpt lat="36.865381" lon="-5.149987">
        <ele>661.864</ele>
        <time>2021-09-19T13:21:31Z</time>
      </trkpt>
      <trkpt lat="36.865544" lon="-5.150054">
        <ele>661.840</ele>
        <time>2021-09-19T13:21:34Z</time>
      </trkpt>
      <trkpt lat="36.865940" lon="-5.150157">
        <ele>662.233</ele>
        <time>2021-09-19T13:21:41Z</time>
      </trkpt>
      <trkpt lat="36.866294" lon="-5.150282">
        <ele>662.250</ele>
        <time>2021-09-19T13:21:47Z</time>
      </trkpt>
      <trkpt lat="36.866710" lon="-5.150453">
        <ele>662.046</ele>
        <time>2021-09-19T13:21:54Z</time>
      </trkpt>
      <trkpt lat="36.867044" lon="-5.150506">
        <ele>661.888</ele>
        <time>2021-09-19T13:21:59Z</time>
      </trkpt>
      <trkpt lat="36.867244" lon="-5.150556">
        <ele>661.416</ele>
        <time>2021-09-19T13:22:02Z</time>
      </trkpt>
      <trkpt lat="36.867433" lon="-5.150645">
        <ele>661.208</ele>
        <time>2021-09-19T13:22:05Z</time>
      </trkpt>
      <trkpt lat="36.867812" lon="-5.150915">
        <ele>660.862</ele>
        <time>2021-09-19T13:22:11Z</time>
      </trkpt>
      <trkpt lat="36.868024" lon="-5.151075">
        <ele>660.848</ele>
        <time>2021-09-19T13:22:15Z</time>
      </trkpt>
      <trkpt lat="36.868038" lon="-5.151147">
        <ele>660.416</ele>
        <time>2021-09-19T13:22:16Z</time>
      </trkpt>
      <trkpt lat="36.868040" lon="-5.151309">
        <ele>659.418</ele>
        <time>2021-09-19T13:22:18Z</time>
      </trkpt>
      <trkpt lat="36.868041" lon="-5.151678">
        <ele>658.261</ele>
        <time>2021-09-19T13:22:22Z</time>
      </trkpt>
      <trkpt lat="36.868032" lon="-5.151782">
        <ele>657.847</ele>
        <time>2021-09-19T13:22:23Z</time>
      </trkpt>
      <trkpt lat="36.868012" lon="-5.152004">
        <ele>657.090</ele>
        <time>2021-09-19T13:22:25Z</time>
      </trkpt>
      <trkpt lat="36.867999" lon="-5.152120">
        <ele>655.247</ele>
        <time>2021-09-19T13:22:26Z</time>
      </trkpt>
      <trkpt lat="36.867966" lon="-5.152362">
        <ele>653.823</ele>
        <time>2021-09-19T13:22:28Z</time>
      </trkpt>
      <trkpt lat="36.867937" lon="-5.152617">
        <ele>652.483</ele>
        <time>2021-09-19T13:22:30Z</time>
      </trkpt>
      <trkpt lat="36.867927" lon="-5.152750">
        <ele>651.411</ele>
        <time>2021-09-19T13:22:31Z</time>
      </trkpt>
      <trkpt lat="36.867918" lon="-5.153012">
        <ele>650.008</ele>
        <time>2021-09-19T13:22:33Z</time>
      </trkpt>
      <trkpt lat="36.867915" lon="-5.153270">
        <ele>649.040</ele>
        <time>2021-09-19T13:22:35Z</time>
      </trkpt>
      <trkpt lat="36.867919" lon="-5.153527">
        <ele>648.026</ele>
        <time>2021-09-19T13:22:37Z</time>
      </trkpt>
      <trkpt lat="36.867919" lon="-5.153656">
        <ele>646.834</ele>
        <time>2021-09-19T13:22:38Z</time>
      </trkpt>
      <trkpt lat="36.867923" lon="-5.153912">
        <ele>645.236</ele>
        <time>2021-09-19T13:22:40Z</time>
      </trkpt>
      <trkpt lat="36.867937" lon="-5.154168">
        <ele>644.029</ele>
        <time>2021-09-19T13:22:42Z</time>
      </trkpt>
      <trkpt lat="36.867970" lon="-5.154556">
        <ele>642.895</ele>
        <time>2021-09-19T13:22:45Z</time>
      </trkpt>
      <trkpt lat="36.868006" lon="-5.154953">
        <ele>642.248</ele>
        <time>2021-09-19T13:22:48Z</time>
      </trkpt>
      <trkpt lat="36.868011" lon="-5.155091">
        <ele>642.025</ele>
        <time>2021-09-19T13:22:49Z</time>
      </trkpt>
      <trkpt lat="36.867992" lon="-5.155505">
        <ele>640.895</ele>
        <time>2021-09-19T13:22:52Z</time>
      </trkpt>
      <trkpt lat="36.867977" lon="-5.155641">
        <ele>640.449</ele>
        <time>2021-09-19T13:22:53Z</time>
      </trkpt>
      <trkpt lat="36.867958" lon="-5.155778">
        <ele>639.223</ele>
        <time>2021-09-19T13:22:54Z</time>
      </trkpt>
      <trkpt lat="36.867906" lon="-5.156050">
        <ele>636.808</ele>
        <time>2021-09-19T13:22:56Z</time>
      </trkpt>
      <trkpt lat="36.867872" lon="-5.156186">
        <ele>634.887</ele>
        <time>2021-09-19T13:22:57Z</time>
      </trkpt>
      <trkpt lat="36.867838" lon="-5.156323">
        <ele>633.293</ele>
        <time>2021-09-19T13:22:58Z</time>
      </trkpt>
      <trkpt lat="36.867805" lon="-5.156461">
        <ele>631.841</ele>
        <time>2021-09-19T13:22:59Z</time>
      </trkpt>
      <trkpt lat="36.867735" lon="-5.156748">
        <ele>630.293</ele>
        <time>2021-09-19T13:23:01Z</time>
      </trkpt>
      <trkpt lat="36.867694" lon="-5.156896">
        <ele>629.286</ele>
        <time>2021-09-19T13:23:02Z</time>
      </trkpt>
      <trkpt lat="36.867596" lon="-5.157196">
        <ele>627.822</ele>
        <time>2021-09-19T13:23:04Z</time>
      </trkpt>
      <trkpt lat="36.867547" lon="-5.157349">
        <ele>626.225</ele>
        <time>2021-09-19T13:23:05Z</time>
      </trkpt>
      <trkpt lat="36.867505" lon="-5.157506">
        <ele>625.012</ele>
        <time>2021-09-19T13:23:06Z</time>
      </trkpt>
      <trkpt lat="36.867469" lon="-5.157663">
        <ele>624.083</ele>
        <time>2021-09-19T13:23:07Z</time>
      </trkpt>
      <trkpt lat="36.867440" lon="-5.157821">
        <ele>623.225</ele>
        <time>2021-09-19T13:23:08Z</time>
      </trkpt>
      <trkpt lat="36.867416" lon="-5.157978">
        <ele>622.617</ele>
        <time>2021-09-19T13:23:09Z</time>
      </trkpt>
      <trkpt lat="36.867378" lon="-5.158283">
        <ele>620.008</ele>
        <time>2021-09-19T13:23:11Z</time>
      </trkpt>
      <trkpt lat="36.867362" lon="-5.158432">
        <ele>618.266</ele>
        <time>2021-09-19T13:23:12Z</time>
      </trkpt>
      <trkpt lat="36.867348" lon="-5.158577">
        <ele>617.412</ele>
        <time>2021-09-19T13:23:13Z</time>
      </trkpt>
      <trkpt lat="36.867335" lon="-5.158720">
        <ele>616.410</ele>
        <time>2021-09-19T13:23:14Z</time>
      </trkpt>
      <trkpt lat="36.867316" lon="-5.158998">
        <ele>615.272</ele>
        <time>2021-09-19T13:23:16Z</time>
      </trkpt>
      <trkpt lat="36.867293" lon="-5.159404">
        <ele>614.475</ele>
        <time>2021-09-19T13:23:19Z</time>
      </trkpt>
      <trkpt lat="36.867283" lon="-5.159542">
        <ele>613.671</ele>
        <time>2021-09-19T13:23:20Z</time>
      </trkpt>
      <trkpt lat="36.867264" lon="-5.159974">
        <ele>611.654</ele>
        <time>2021-09-19T13:23:23Z</time>
      </trkpt>
      <trkpt lat="36.867246" lon="-5.160286">
        <ele>611.221</ele>
        <time>2021-09-19T13:23:25Z</time>
      </trkpt>
      <trkpt lat="36.867217" lon="-5.160612">
        <ele>610.484</ele>
        <time>2021-09-19T13:23:27Z</time>
      </trkpt>
      <trkpt lat="36.867157" lon="-5.160935">
        <ele>609.607</ele>
        <time>2021-09-19T13:23:29Z</time>
      </trkpt>
      <trkpt lat="36.867110" lon="-5.161088">
        <ele>609.217</ele>
        <time>2021-09-19T13:23:30Z</time>
      </trkpt>
      <trkpt lat="36.867057" lon="-5.161237">
        <ele>607.208</ele>
        <time>2021-09-19T13:23:31Z</time>
      </trkpt>
      <trkpt lat="36.867004" lon="-5.161385">
        <ele>604.886</ele>
        <time>2021-09-19T13:23:32Z</time>
      </trkpt>
      <trkpt lat="36.866956" lon="-5.161533">
        <ele>603.042</ele>
        <time>2021-09-19T13:23:33Z</time>
      </trkpt>
      <trkpt lat="36.866913" lon="-5.161683">
        <ele>601.640</ele>
        <time>2021-09-19T13:23:34Z</time>
      </trkpt>
      <trkpt lat="36.866874" lon="-5.161832">
        <ele>601.092</ele>
        <time>2021-09-19T13:23:35Z</time>
      </trkpt>
      <trkpt lat="36.866838" lon="-5.161979">
        <ele>600.245</ele>
        <time>2021-09-19T13:23:36Z</time>
      </trkpt>
      <trkpt lat="36.866803" lon="-5.162123">
        <ele>599.081</ele>
        <time>2021-09-19T13:23:37Z</time>
      </trkpt>
      <trkpt lat="36.866767" lon="-5.162263">
        <ele>596.884</ele>
        <time>2021-09-19T13:23:38Z</time>
      </trkpt>
      <trkpt lat="36.866724" lon="-5.162396">
        <ele>595.471</ele>
        <time>2021-09-19T13:23:39Z</time>
      </trkpt>
      <trkpt lat="36.866676" lon="-5.162521">
        <ele>594.473</ele>
        <time>2021-09-19T13:23:40Z</time>
      </trkpt>
      <trkpt lat="36.866620" lon="-5.162638">
        <ele>593.885</ele>
        <time>2021-09-19T13:23:41Z</time>
      </trkpt>
      <trkpt lat="36.866488" lon="-5.162839">
        <ele>592.213</ele>
        <time>2021-09-19T13:23:43Z</time>
      </trkpt>
      <trkpt lat="36.866301" lon="-5.163107">
        <ele>591.608</ele>
        <time>2021-09-19T13:23:46Z</time>
      </trkpt>
      <trkpt lat="36.866256" lon="-5.163204">
        <ele>591.645</ele>
        <time>2021-09-19T13:23:47Z</time>
      </trkpt>
      <trkpt lat="36.866137" lon="-5.163595">
        <ele>591.431</ele>
        <time>2021-09-19T13:23:51Z</time>
      </trkpt>
      <trkpt lat="36.866113" lon="-5.163690">
        <ele>591.639</ele>
        <time>2021-09-19T13:23:52Z</time>
      </trkpt>
      <trkpt lat="36.865965" lon="-5.164411">
        <ele>591.621</ele>
        <time>2021-09-19T13:23:59Z</time>
      </trkpt>
      <trkpt lat="36.865907" lon="-5.164778">
        <ele>591.084</ele>
        <time>2021-09-19T13:24:02Z</time>
      </trkpt>
      <trkpt lat="36.865849" lon="-5.165027">
        <ele>590.220</ele>
        <time>2021-09-19T13:24:04Z</time>
      </trkpt>
      <trkpt lat="36.865805" lon="-5.165146">
        <ele>589.293</ele>
        <time>2021-09-19T13:24:05Z</time>
      </trkpt>
      <trkpt lat="36.865637" lon="-5.165476">
        <ele>587.850</ele>
        <time>2021-09-19T13:24:08Z</time>
      </trkpt>
      <trkpt lat="36.865517" lon="-5.165685">
        <ele>587.212</ele>
        <time>2021-09-19T13:24:10Z</time>
      </trkpt>
      <trkpt lat="36.865352" lon="-5.166026">
        <ele>586.832</ele>
        <time>2021-09-19T13:24:13Z</time>
      </trkpt>
      <trkpt lat="36.865303" lon="-5.166150">
        <ele>586.205</ele>
        <time>2021-09-19T13:24:14Z</time>
      </trkpt>
      <trkpt lat="36.865258" lon="-5.166279">
        <ele>585.408</ele>
        <time>2021-09-19T13:24:15Z</time>
      </trkpt>
      <trkpt lat="36.865181" lon="-5.166553">
        <ele>584.419</ele>
        <time>2021-09-19T13:24:17Z</time>
      </trkpt>
      <trkpt lat="36.865152" lon="-5.166696">
        <ele>583.895</ele>
        <time>2021-09-19T13:24:18Z</time>
      </trkpt>
      <trkpt lat="36.865135" lon="-5.166840">
        <ele>582.873</ele>
        <time>2021-09-19T13:24:19Z</time>
      </trkpt>
      <trkpt lat="36.865136" lon="-5.167120">
        <ele>580.895</ele>
        <time>2021-09-19T13:24:21Z</time>
      </trkpt>
      <trkpt lat="36.865149" lon="-5.167254">
        <ele>579.848</ele>
        <time>2021-09-19T13:24:22Z</time>
      </trkpt>
      <trkpt lat="36.865160" lon="-5.167385">
        <ele>578.474</ele>
        <time>2021-09-19T13:24:23Z</time>
      </trkpt>
      <trkpt lat="36.865168" lon="-5.167640">
        <ele>576.677</ele>
        <time>2021-09-19T13:24:25Z</time>
      </trkpt>
      <trkpt lat="36.865161" lon="-5.167761">
        <ele>576.054</ele>
        <time>2021-09-19T13:24:26Z</time>
      </trkpt>
      <trkpt lat="36.865146" lon="-5.167881">
        <ele>573.828</ele>
        <time>2021-09-19T13:24:27Z</time>
      </trkpt>
      <trkpt lat="36.865130" lon="-5.167997">
        <ele>572.889</ele>
        <time>2021-09-19T13:24:28Z</time>
      </trkpt>
      <trkpt lat="36.865098" lon="-5.168223">
        <ele>571.417</ele>
        <time>2021-09-19T13:24:30Z</time>
      </trkpt>
      <trkpt lat="36.865078" lon="-5.168332">
        <ele>571.008</ele>
        <time>2021-09-19T13:24:31Z</time>
      </trkpt>
      <trkpt lat="36.864992" lon="-5.168742">
        <ele>570.210</ele>
        <time>2021-09-19T13:24:35Z</time>
      </trkpt>
      <trkpt lat="36.864982" lon="-5.168844">
        <ele>570.236</ele>
        <time>2021-09-19T13:24:36Z</time>
      </trkpt>
      <trkpt lat="36.864975" lon="-5.169360">
        <ele>569.834</ele>
        <time>2021-09-19T13:24:41Z</time>
      </trkpt>
      <trkpt lat="36.864983" lon="-5.169460">
        <ele>569.696</ele>
        <time>2021-09-19T13:24:42Z</time>
      </trkpt>
      <trkpt lat="36.864992" lon="-5.169559">
        <ele>569.469</ele>
        <time>2021-09-19T13:24:43Z</time>
      </trkpt>
      <trkpt lat="36.864985" lon="-5.169848">
        <ele>568.495</ele>
        <time>2021-09-19T13:24:46Z</time>
      </trkpt>
      <trkpt lat="36.864975" lon="-5.169936">
        <ele>567.818</ele>
        <time>2021-09-19T13:24:47Z</time>
      </trkpt>
      <trkpt lat="36.864954" lon="-5.170011">
        <ele>567.435</ele>
        <time>2021-09-19T13:24:48Z</time>
      </trkpt>
      <trkpt lat="36.864888" lon="-5.170134">
        <ele>566.693</ele>
        <time>2021-09-19T13:24:50Z</time>
      </trkpt>
      <trkpt lat="36.864749" lon="-5.170269">
        <ele>566.465</ele>
        <time>2021-09-19T13:24:53Z</time>
      </trkpt>
      <trkpt lat="36.864694" lon="-5.170304">
        <ele>566.221</ele>
        <time>2021-09-19T13:24:54Z</time>
      </trkpt>
      <trkpt lat="36.864413" lon="-5.170499">
        <ele>565.608</ele>
        <time>2021-09-19T13:24:59Z</time>
      </trkpt>
      <trkpt lat="36.864298" lon="-5.170581">
        <ele>565.257</ele>
        <time>2021-09-19T13:25:01Z</time>
      </trkpt>
      <trkpt lat="36.864242" lon="-5.170620">
        <ele>565.093</ele>
        <time>2021-09-19T13:25:02Z</time>
      </trkpt>
      <trkpt lat="36.864141" lon="-5.170618">
        <ele>564.651</ele>
        <time>2021-09-19T13:25:04Z</time>
      </trkpt>
      <trkpt lat="36.864085" lon="-5.170522">
        <ele>563.863</ele>
        <time>2021-09-19T13:25:06Z</time>
      </trkpt>
      <trkpt lat="36.864071" lon="-5.170474">
        <ele>563.696</ele>
        <time>2021-09-19T13:25:07Z</time>
      </trkpt>
      <trkpt lat="36.864068" lon="-5.170430">
        <ele>563.242</ele>
        <time>2021-09-19T13:25:10Z</time>
      </trkpt>
      <trkpt lat="36.864066" lon="-5.170430">
        <ele>563.255</ele>
        <time>2021-09-19T13:25:11Z</time>
      </trkpt>
      <trkpt lat="36.864110" lon="-5.170459">
        <ele>745.622</ele>
        <time>2021-09-19T14:06:28Z</time>
      </trkpt>
      <trkpt lat="36.864114" lon="-5.170440">
        <ele>654.666</ele>
        <time>2021-09-19T14:06:29Z</time>
      </trkpt>
      <trkpt lat="36.864053" lon="-5.170477">
        <ele>561.629</ele>
        <time>2021-09-19T14:06:41Z</time>
      </trkpt>
      <trkpt lat="36.864058" lon="-5.170502">
        <ele>561.821</ele>
        <time>2021-09-19T14:06:42Z</time>
      </trkpt>
      <trkpt lat="36.864115" lon="-5.170593">
        <ele>561.408</ele>
        <time>2021-09-19T14:06:46Z</time>
      </trkpt>
      <trkpt lat="36.864118" lon="-5.170620">
        <ele>561.474</ele>
        <time>2021-09-19T14:06:47Z</time>
      </trkpt>
      <trkpt lat="36.864113" lon="-5.170646">
        <ele>561.460</ele>
        <time>2021-09-19T14:06:48Z</time>
      </trkpt>
      <trkpt lat="36.864098" lon="-5.170674">
        <ele>561.458</ele>
        <time>2021-09-19T14:06:49Z</time>
      </trkpt>
      <trkpt lat="36.864057" lon="-5.170725">
        <ele>562.010</ele>
        <time>2021-09-19T14:06:51Z</time>
      </trkpt>
      <trkpt lat="36.863867" lon="-5.170883">
        <ele>562.493</ele>
        <time>2021-09-19T14:06:57Z</time>
      </trkpt>
      <trkpt lat="36.863665" lon="-5.171034">
        <ele>562.299</ele>
        <time>2021-09-19T14:07:02Z</time>
      </trkpt>
      <trkpt lat="36.863576" lon="-5.171107">
        <ele>562.072</ele>
        <time>2021-09-19T14:07:04Z</time>
      </trkpt>
      <trkpt lat="36.863312" lon="-5.171383">
        <ele>561.049</ele>
        <time>2021-09-19T14:07:10Z</time>
      </trkpt>
      <trkpt lat="36.863219" lon="-5.171492">
        <ele>560.837</ele>
        <time>2021-09-19T14:07:12Z</time>
      </trkpt>
      <trkpt lat="36.863139" lon="-5.171615">
        <ele>560.649</ele>
        <time>2021-09-19T14:07:14Z</time>
      </trkpt>
      <trkpt lat="36.863108" lon="-5.171686">
        <ele>560.413</ele>
        <time>2021-09-19T14:07:15Z</time>
      </trkpt>
      <trkpt lat="36.863053" lon="-5.171834">
        <ele>559.208</ele>
        <time>2021-09-19T14:07:17Z</time>
      </trkpt>
      <trkpt lat="36.862987" lon="-5.171978">
        <ele>558.421</ele>
        <time>2021-09-19T14:07:19Z</time>
      </trkpt>
      <trkpt lat="36.862907" lon="-5.172109">
        <ele>557.867</ele>
        <time>2021-09-19T14:07:21Z</time>
      </trkpt>
      <trkpt lat="36.862618" lon="-5.172453">
        <ele>557.025</ele>
        <time>2021-09-19T14:07:27Z</time>
      </trkpt>
      <trkpt lat="36.862572" lon="-5.172508">
        <ele>556.817</ele>
        <time>2021-09-19T14:07:28Z</time>
      </trkpt>
      <trkpt lat="36.862292" lon="-5.172898">
        <ele>556.020</ele>
        <time>2021-09-19T14:07:35Z</time>
      </trkpt>
      <trkpt lat="36.862255" lon="-5.172952">
        <ele>555.876</ele>
        <time>2021-09-19T14:07:36Z</time>
      </trkpt>
      <trkpt lat="36.862138" lon="-5.173107">
        <ele>555.239</ele>
        <time>2021-09-19T14:07:39Z</time>
      </trkpt>
      <trkpt lat="36.861977" lon="-5.173303">
        <ele>554.866</ele>
        <time>2021-09-19T14:07:43Z</time>
      </trkpt>
      <trkpt lat="36.861937" lon="-5.173349">
        <ele>554.822</ele>
        <time>2021-09-19T14:07:44Z</time>
      </trkpt>
      <trkpt lat="36.861737" lon="-5.173592">
        <ele>554.262</ele>
        <time>2021-09-19T14:07:49Z</time>
      </trkpt>
      <trkpt lat="36.861691" lon="-5.173727">
        <ele>554.208</ele>
        <time>2021-09-19T14:07:51Z</time>
      </trkpt>
      <trkpt lat="36.861717" lon="-5.173871">
        <ele>554.008</ele>
        <time>2021-09-19T14:07:53Z</time>
      </trkpt>
      <trkpt lat="36.861758" lon="-5.173936">
        <ele>554.050</ele>
        <time>2021-09-19T14:07:54Z</time>
      </trkpt>
      <trkpt lat="36.861866" lon="-5.174051">
        <ele>553.696</ele>
        <time>2021-09-19T14:07:56Z</time>
      </trkpt>
      <trkpt lat="36.861926" lon="-5.174104">
        <ele>553.474</ele>
        <time>2021-09-19T14:07:57Z</time>
      </trkpt>
      <trkpt lat="36.861988" lon="-5.174155">
        <ele>553.226</ele>
        <time>2021-09-19T14:07:58Z</time>
      </trkpt>
      <trkpt lat="36.862123" lon="-5.174257">
        <ele>552.489</ele>
        <time>2021-09-19T14:08:00Z</time>
      </trkpt>
      <trkpt lat="36.862315" lon="-5.174431">
        <ele>551.875</ele>
        <time>2021-09-19T14:08:03Z</time>
      </trkpt>
      <trkpt lat="36.862373" lon="-5.174502">
        <ele>551.268</ele>
        <time>2021-09-19T14:08:04Z</time>
      </trkpt>
      <trkpt lat="36.862529" lon="-5.174729">
        <ele>550.215</ele>
        <time>2021-09-19T14:08:07Z</time>
      </trkpt>
      <trkpt lat="36.862616" lon="-5.174901">
        <ele>549.876</ele>
        <time>2021-09-19T14:08:09Z</time>
      </trkpt>
      <trkpt lat="36.862700" lon="-5.175100">
        <ele>549.290</ele>
        <time>2021-09-19T14:08:11Z</time>
      </trkpt>
      <trkpt lat="36.862730" lon="-5.175205">
        <ele>549.019</ele>
        <time>2021-09-19T14:08:12Z</time>
      </trkpt>
      <trkpt lat="36.862754" lon="-5.175416">
        <ele>548.608</ele>
        <time>2021-09-19T14:08:14Z</time>
      </trkpt>
      <trkpt lat="36.862725" lon="-5.175707">
        <ele>548.285</ele>
        <time>2021-09-19T14:08:17Z</time>
      </trkpt>
      <trkpt lat="36.862704" lon="-5.175795">
        <ele>548.041</ele>
        <time>2021-09-19T14:08:18Z</time>
      </trkpt>
      <trkpt lat="36.862653" lon="-5.175955">
        <ele>547.699</ele>
        <time>2021-09-19T14:08:20Z</time>
      </trkpt>
      <trkpt lat="36.862562" lon="-5.176177">
        <ele>547.211</ele>
        <time>2021-09-19T14:08:23Z</time>
      </trkpt>
      <trkpt lat="36.862493" lon="-5.176390">
        <ele>546.824</ele>
        <time>2021-09-19T14:08:26Z</time>
      </trkpt>
      <trkpt lat="36.862503" lon="-5.176523">
        <ele>546.830</ele>
        <time>2021-09-19T14:08:28Z</time>
      </trkpt>
      <trkpt lat="36.862518" lon="-5.176574">
        <ele>546.893</ele>
        <time>2021-09-19T14:08:29Z</time>
      </trkpt>
      <trkpt lat="36.862523" lon="-5.176645">
        <ele>546.850</ele>
        <time>2021-09-19T14:08:31Z</time>
      </trkpt>
      <trkpt lat="36.862496" lon="-5.176749">
        <ele>547.282</ele>
        <time>2021-09-19T14:08:35Z</time>
      </trkpt>
      <trkpt lat="36.862474" lon="-5.176810">
        <ele>547.643</ele>
        <time>2021-09-19T14:08:37Z</time>
      </trkpt>
      <trkpt lat="36.862450" lon="-5.176864">
        <ele>548.217</ele>
        <time>2021-09-19T14:08:39Z</time>
      </trkpt>
      <trkpt lat="36.862422" lon="-5.176928">
        <ele>548.808</ele>
        <time>2021-09-19T14:08:42Z</time>
      </trkpt>
      <trkpt lat="36.862408" lon="-5.176963">
        <ele>549.476</ele>
        <time>2021-09-19T14:08:44Z</time>
      </trkpt>
      <trkpt lat="36.862393" lon="-5.177011">
        <ele>550.282</ele>
        <time>2021-09-19T14:08:47Z</time>
      </trkpt>
      <trkpt lat="36.862387" lon="-5.177029">
        <ele>550.610</ele>
        <time>2021-09-19T14:08:48Z</time>
      </trkpt>
      <trkpt lat="36.862346" lon="-5.177120">
        <ele>551.642</ele>
        <time>2021-09-19T14:08:53Z</time>
      </trkpt>
      <trkpt lat="36.862327" lon="-5.177151">
        <ele>551.875</ele>
        <time>2021-09-19T14:08:55Z</time>
      </trkpt>
      <trkpt lat="36.862297" lon="-5.177218">
        <ele>552.451</ele>
        <time>2021-09-19T14:08:59Z</time>
      </trkpt>
      <trkpt lat="36.862284" lon="-5.177261">
        <ele>552.814</ele>
        <time>2021-09-19T14:09:01Z</time>
      </trkpt>
      <trkpt lat="36.862243" lon="-5.177397">
        <ele>553.661</ele>
        <time>2021-09-19T14:09:08Z</time>
      </trkpt>
      <trkpt lat="36.862235" lon="-5.177415">
        <ele>553.834</ele>
        <time>2021-09-19T14:09:09Z</time>
      </trkpt>
      <trkpt lat="36.862229" lon="-5.177432">
        <ele>554.055</ele>
        <time>2021-09-19T14:09:10Z</time>
      </trkpt>
      <trkpt lat="36.862237" lon="-5.177554">
        <ele>554.810</ele>
        <time>2021-09-19T14:09:17Z</time>
      </trkpt>
      <trkpt lat="36.862249" lon="-5.177647">
        <ele>555.608</ele>
        <time>2021-09-19T14:09:22Z</time>
      </trkpt>
      <trkpt lat="36.862271" lon="-5.177703">
        <ele>556.021</ele>
        <time>2021-09-19T14:09:25Z</time>
      </trkpt>
      <trkpt lat="36.862293" lon="-5.177783">
        <ele>556.477</ele>
        <time>2021-09-19T14:09:29Z</time>
      </trkpt>
      <trkpt lat="36.862289" lon="-5.177828">
        <ele>556.655</ele>
        <time>2021-09-19T14:09:31Z</time>
      </trkpt>
      <trkpt lat="36.862276" lon="-5.178004">
        <ele>557.227</ele>
        <time>2021-09-19T14:09:38Z</time>
      </trkpt>
      <trkpt lat="36.862322" lon="-5.178172">
        <ele>557.810</ele>
        <time>2021-09-19T14:09:45Z</time>
      </trkpt>
      <trkpt lat="36.862380" lon="-5.178312">
        <ele>558.426</ele>
        <time>2021-09-19T14:09:51Z</time>
      </trkpt>
      <trkpt lat="36.862414" lon="-5.178443">
        <ele>559.249</ele>
        <time>2021-09-19T14:09:58Z</time>
      </trkpt>
      <trkpt lat="36.862417" lon="-5.178473">
        <ele>559.476</ele>
        <time>2021-09-19T14:10:00Z</time>
      </trkpt>
      <trkpt lat="36.862417" lon="-5.178542">
        <ele>560.227</ele>
        <time>2021-09-19T14:10:04Z</time>
      </trkpt>
      <trkpt lat="36.862426" lon="-5.178581">
        <ele>560.668</ele>
        <time>2021-09-19T14:10:06Z</time>
      </trkpt>
      <trkpt lat="36.862450" lon="-5.178699">
        <ele>561.614</ele>
        <time>2021-09-19T14:10:11Z</time>
      </trkpt>
      <trkpt lat="36.862452" lon="-5.178720">
        <ele>561.808</ele>
        <time>2021-09-19T14:10:12Z</time>
      </trkpt>
      <trkpt lat="36.862448" lon="-5.178784">
        <ele>562.620</ele>
        <time>2021-09-19T14:10:15Z</time>
      </trkpt>
      <trkpt lat="36.862457" lon="-5.178899">
        <ele>563.276</ele>
        <time>2021-09-19T14:10:20Z</time>
      </trkpt>
      <trkpt lat="36.862463" lon="-5.178919">
        <ele>563.434</ele>
        <time>2021-09-19T14:10:21Z</time>
      </trkpt>
      <trkpt lat="36.862489" lon="-5.178980">
        <ele>563.686</ele>
        <time>2021-09-19T14:10:24Z</time>
      </trkpt>
      <trkpt lat="36.862514" lon="-5.179057">
        <ele>564.419</ele>
        <time>2021-09-19T14:10:28Z</time>
      </trkpt>
      <trkpt lat="36.862549" lon="-5.179192">
        <ele>564.655</ele>
        <time>2021-09-19T14:10:34Z</time>
      </trkpt>
      <trkpt lat="36.862569" lon="-5.179320">
        <ele>564.668</ele>
        <time>2021-09-19T14:10:38Z</time>
      </trkpt>
      <trkpt lat="36.862567" lon="-5.179431">
        <ele>564.625</ele>
        <time>2021-09-19T14:10:41Z</time>
      </trkpt>
      <trkpt lat="36.862484" lon="-5.179427">
        <ele>564.468</ele>
        <time>2021-09-19T14:10:44Z</time>
      </trkpt>
      <trkpt lat="36.862454" lon="-5.179407">
        <ele>564.442</ele>
        <time>2021-09-19T14:10:45Z</time>
      </trkpt>
      <trkpt lat="36.862405" lon="-5.179354">
        <ele>564.226</ele>
        <time>2021-09-19T14:10:48Z</time>
      </trkpt>
      <trkpt lat="36.862395" lon="-5.179324">
        <ele>563.008</ele>
        <time>2021-09-19T14:10:52Z</time>
      </trkpt>
      <trkpt lat="36.862393" lon="-5.179300">
        <ele>562.284</ele>
        <time>2021-09-19T14:10:54Z</time>
      </trkpt>
      <trkpt lat="36.862391" lon="-5.179284">
        <ele>562.090</ele>
        <time>2021-09-19T14:10:55Z</time>
      </trkpt>
      <trkpt lat="36.862396" lon="-5.179246">
        <ele>561.648</ele>
        <time>2021-09-19T14:11:00Z</time>
      </trkpt>
    </trkseg>
  </trk>
</gpx>
